<?xml version="1.0" encoding="UTF-8"?>
<TrainingCenterDatabase xmlns="http://www.garmin.com/xmlschemas/TrainingCenterDatabase/v2" xmlns:xsi="http://www.w3.org/2001/XMLSchema-instance" xsi:schemaLocation="http://www.garmin.com/xmlschemas/TrainingCenterDatabase/v2 http://www.garmin.com/xmlschemas/TrainingCenterDatabasev2.xsd">
  <Activities>
    <Activity Sport="Other">
      <Id>2019-05-08T06:37:59.000Z</Id>
      <Lap StartTime="2019-05-08T06:37:59.000Z">
        <TotalTimeSeconds>21647</TotalTimeSeconds>
        <DistanceMeters>84330</DistanceMeters>
        <Track>
          <Trackpoint>
            <Time>2019-05-08T06:37:59.000Z</Time>
            <Position>
              <LatitudeDegrees>42.7946872450411319732666015625</LatitudeDegrees>
              <LongitudeDegrees>0.59650308452546596527099609375</LongitudeDegrees>
            </Position>
            <AltitudeMeters>631.5999755859375</AltitudeMeters>
            <DistanceMeters>0</DistanceMeters>
          </Trackpoint>
          <Trackpoint>
            <Time>2019-05-08T06:38:00.000Z</Time>
            <Position>
              <LatitudeDegrees>42.79471565969288349151611328125</LatitudeDegrees>
              <LongitudeDegrees>0.5964872427284717559814453125</LongitudeDegrees>
            </Position>
            <AltitudeMeters>631.79998779296875</AltitudeMeters>
            <DistanceMeters>3.418321067202</DistanceMeters>
          </Trackpoint>
          <Trackpoint>
            <Time>2019-05-08T06:38:06.000Z</Time>
            <Position>
              <LatitudeDegrees>42.79491766355931758880615234375</LatitudeDegrees>
              <LongitudeDegrees>0.5963729135692119598388671875</LongitudeDegrees>
            </Position>
            <AltitudeMeters>631.79998779296875</AltitudeMeters>
            <DistanceMeters>27.763527318118</DistanceMeters>
          </Trackpoint>
          <Trackpoint>
            <Time>2019-05-08T06:38:10.000Z</Time>
            <Position>
              <LatitudeDegrees>42.79506484977900981903076171875</LatitudeDegrees>
              <LongitudeDegrees>0.59626755304634571075439453125</LongitudeDegrees>
            </Position>
            <AltitudeMeters>631.5999755859375</AltitudeMeters>
            <DistanceMeters>46.268134818819</DistanceMeters>
          </Trackpoint>
          <Trackpoint>
            <Time>2019-05-08T06:38:11.000Z</Time>
            <Position>
              <LatitudeDegrees>42.795107848942279815673828125</LatitudeDegrees>
              <LongitudeDegrees>0.59624441899359226226806640625</LongitudeDegrees>
            </Position>
            <AltitudeMeters>631.79998779296875</AltitudeMeters>
            <DistanceMeters>51.412758620151</DistanceMeters>
          </Trackpoint>
          <Trackpoint>
            <Time>2019-05-08T06:38:13.000Z</Time>
            <Position>
              <LatitudeDegrees>42.79519879259169101715087890625</LatitudeDegrees>
              <LongitudeDegrees>0.5961905233561992645263671875</LongitudeDegrees>
            </Position>
            <AltitudeMeters>631.79998779296875</AltitudeMeters>
            <DistanceMeters>62.450593162391</DistanceMeters>
          </Trackpoint>
          <Trackpoint>
            <Time>2019-05-08T06:38:17.000Z</Time>
            <Position>
              <LatitudeDegrees>42.795382104814052581787109375</LatitudeDegrees>
              <LongitudeDegrees>0.59605398215353488922119140625</LongitudeDegrees>
            </Position>
            <AltitudeMeters>631.4000244140625</AltitudeMeters>
            <DistanceMeters>85.702253463896</DistanceMeters>
          </Trackpoint>
          <Trackpoint>
            <Time>2019-05-08T06:38:18.000Z</Time>
            <Position>
              <LatitudeDegrees>42.79542870819568634033203125</LatitudeDegrees>
              <LongitudeDegrees>0.5960242263972759246826171875</LongitudeDegrees>
            </Position>
            <AltitudeMeters>631.4000244140625</AltitudeMeters>
            <DistanceMeters>91.429929058837</DistanceMeters>
          </Trackpoint>
          <Trackpoint>
            <Time>2019-05-08T06:38:24.000Z</Time>
            <Position>
              <LatitudeDegrees>42.79571176506578922271728515625</LatitudeDegrees>
              <LongitudeDegrees>0.59587812982499599456787109375</LongitudeDegrees>
            </Position>
            <AltitudeMeters>631</AltitudeMeters>
            <DistanceMeters>125.11847410952</DistanceMeters>
          </Trackpoint>
          <Trackpoint>
            <Time>2019-05-08T06:38:26.000Z</Time>
            <Position>
              <LatitudeDegrees>42.79580446891486644744873046875</LatitudeDegrees>
              <LongitudeDegrees>0.59585080482065677642822265625</LongitudeDegrees>
            </Position>
            <AltitudeMeters>630.79998779296875</AltitudeMeters>
            <DistanceMeters>135.67499689853</DistanceMeters>
          </Trackpoint>
          <Trackpoint>
            <Time>2019-05-08T06:38:28.000Z</Time>
            <Position>
              <LatitudeDegrees>42.79590337537229061126708984375</LatitudeDegrees>
              <LongitudeDegrees>0.59582867659628391265869140625</LongitudeDegrees>
            </Position>
            <AltitudeMeters>630.79998779296875</AltitudeMeters>
            <DistanceMeters>146.83123029637</DistanceMeters>
          </Trackpoint>
          <Trackpoint>
            <Time>2019-05-08T06:38:29.000Z</Time>
            <Position>
              <LatitudeDegrees>42.7959569357335567474365234375</LatitudeDegrees>
              <LongitudeDegrees>0.5958193726837635040283203125</LongitudeDegrees>
            </Position>
            <AltitudeMeters>630.4000244140625</AltitudeMeters>
            <DistanceMeters>152.84124741579</DistanceMeters>
          </Trackpoint>
          <Trackpoint>
            <Time>2019-05-08T06:38:35.000Z</Time>
            <Position>
              <LatitudeDegrees>42.79630017466843128204345703125</LatitudeDegrees>
              <LongitudeDegrees>0.59581275098025798797607421875</LongitudeDegrees>
            </Position>
            <AltitudeMeters>630</AltitudeMeters>
            <DistanceMeters>191.04813210466</DistanceMeters>
          </Trackpoint>
          <Trackpoint>
            <Time>2019-05-08T06:38:41.000Z</Time>
            <Position>
              <LatitudeDegrees>42.7966623567044734954833984375</LatitudeDegrees>
              <LongitudeDegrees>0.5958594381809234619140625</LongitudeDegrees>
            </Position>
            <AltitudeMeters>629.4000244140625</AltitudeMeters>
            <DistanceMeters>231.53966072121</DistanceMeters>
          </Trackpoint>
          <Trackpoint>
            <Time>2019-05-08T06:38:42.000Z</Time>
            <Position>
              <LatitudeDegrees>42.79672932811081409454345703125</LatitudeDegrees>
              <LongitudeDegrees>0.595872513949871063232421875</LongitudeDegrees>
            </Position>
            <AltitudeMeters>629</AltitudeMeters>
            <DistanceMeters>239.07019058756</DistanceMeters>
          </Trackpoint>
          <Trackpoint>
            <Time>2019-05-08T06:38:43.000Z</Time>
            <Position>
              <LatitudeDegrees>42.796798981726169586181640625</LatitudeDegrees>
              <LongitudeDegrees>0.5958807282149791717529296875</LongitudeDegrees>
            </Position>
            <AltitudeMeters>628.79998779296875</AltitudeMeters>
            <DistanceMeters>246.85194441515</DistanceMeters>
          </Trackpoint>
          <Trackpoint>
            <Time>2019-05-08T06:38:46.000Z</Time>
            <Position>
              <LatitudeDegrees>42.7970016561448574066162109375</LatitudeDegrees>
              <LongitudeDegrees>0.595909394323825836181640625</LongitudeDegrees>
            </Position>
            <AltitudeMeters>628.4000244140625</AltitudeMeters>
            <DistanceMeters>269.53129965837</DistanceMeters>
          </Trackpoint>
          <Trackpoint>
            <Time>2019-05-08T06:38:49.000Z</Time>
            <Position>
              <LatitudeDegrees>42.797205336391925811767578125</LatitudeDegrees>
              <LongitudeDegrees>0.5959383957087993621826171875</LongitudeDegrees>
            </Position>
            <AltitudeMeters>628.20001220703125</AltitudeMeters>
            <DistanceMeters>292.32464118889</DistanceMeters>
          </Trackpoint>
          <Trackpoint>
            <Time>2019-05-08T06:38:52.000Z</Time>
            <Position>
              <LatitudeDegrees>42.79740088619291782379150390625</LatitudeDegrees>
              <LongitudeDegrees>0.595963709056377410888671875</LongitudeDegrees>
            </Position>
            <AltitudeMeters>627.4000244140625</AltitudeMeters>
            <DistanceMeters>314.18760156502</DistanceMeters>
          </Trackpoint>
          <Trackpoint>
            <Time>2019-05-08T06:38:58.000Z</Time>
            <Position>
              <LatitudeDegrees>42.79777790419757366180419921875</LatitudeDegrees>
              <LongitudeDegrees>0.5960181914269924163818359375</LongitudeDegrees>
            </Position>
            <AltitudeMeters>626.79998779296875</AltitudeMeters>
            <DistanceMeters>356.38566898873</DistanceMeters>
          </Trackpoint>
          <Trackpoint>
            <Time>2019-05-08T06:39:01.000Z</Time>
            <Position>
              <LatitudeDegrees>42.7979732863605022430419921875</LatitudeDegrees>
              <LongitudeDegrees>0.5960463546216487884521484375</LongitudeDegrees>
            </Position>
            <AltitudeMeters>626.79998779296875</AltitudeMeters>
            <DistanceMeters>378.25337870343</DistanceMeters>
          </Trackpoint>
          <Trackpoint>
            <Time>2019-05-08T06:39:03.000Z</Time>
            <Position>
              <LatitudeDegrees>42.7981037087738513946533203125</LatitudeDegrees>
              <LongitudeDegrees>0.59606839902698993682861328125</LongitudeDegrees>
            </Position>
            <AltitudeMeters>626.5999755859375</AltitudeMeters>
            <DistanceMeters>392.88132084907</DistanceMeters>
          </Trackpoint>
          <Trackpoint>
            <Time>2019-05-08T06:39:09.000Z</Time>
            <Position>
              <LatitudeDegrees>42.79850277118384838104248046875</LatitudeDegrees>
              <LongitudeDegrees>0.59613780118525028228759765625</LongitudeDegrees>
            </Position>
            <AltitudeMeters>626.4000244140625</AltitudeMeters>
            <DistanceMeters>437.65796512775</DistanceMeters>
          </Trackpoint>
          <Trackpoint>
            <Time>2019-05-08T06:39:13.000Z</Time>
            <Position>
              <LatitudeDegrees>42.7987655438482761383056640625</LatitudeDegrees>
              <LongitudeDegrees>0.59618038125336170196533203125</LongitudeDegrees>
            </Position>
            <AltitudeMeters>626.20001220703125</AltitudeMeters>
            <DistanceMeters>467.11103497906</DistanceMeters>
          </Trackpoint>
          <Trackpoint>
            <Time>2019-05-08T06:39:15.000Z</Time>
            <Position>
              <LatitudeDegrees>42.79889152385294437408447265625</LatitudeDegrees>
              <LongitudeDegrees>0.5961945466697216033935546875</LongitudeDegrees>
            </Position>
            <AltitudeMeters>626</AltitudeMeters>
            <DistanceMeters>481.18076617068</DistanceMeters>
          </Trackpoint>
          <Trackpoint>
            <Time>2019-05-08T06:39:21.000Z</Time>
            <Position>
              <LatitudeDegrees>42.79927675612270832061767578125</LatitudeDegrees>
              <LongitudeDegrees>0.59625749476253986358642578125</LongitudeDegrees>
            </Position>
            <AltitudeMeters>625.5999755859375</AltitudeMeters>
            <DistanceMeters>524.36494529985</DistanceMeters>
          </Trackpoint>
          <Trackpoint>
            <Time>2019-05-08T06:39:28.000Z</Time>
            <Position>
              <LatitudeDegrees>42.79974077828228473663330078125</LatitudeDegrees>
              <LongitudeDegrees>0.59632706455886363983154296875</LongitudeDegrees>
            </Position>
            <AltitudeMeters>625</AltitudeMeters>
            <DistanceMeters>576.32318568507</DistanceMeters>
          </Trackpoint>
          <Trackpoint>
            <Time>2019-05-08T06:39:31.000Z</Time>
            <Position>
              <LatitudeDegrees>42.79995116405189037322998046875</LatitudeDegrees>
              <LongitudeDegrees>0.5963605083525180816650390625</LongitudeDegrees>
            </Position>
            <AltitudeMeters>624.79998779296875</AltitudeMeters>
            <DistanceMeters>599.89823913089</DistanceMeters>
          </Trackpoint>
          <Trackpoint>
            <Time>2019-05-08T06:39:34.000Z</Time>
            <Position>
              <LatitudeDegrees>42.80015417374670505523681640625</LatitudeDegrees>
              <LongitudeDegrees>0.59639093466103076934814453125</LongitudeDegrees>
            </Position>
            <AltitudeMeters>624.5999755859375</AltitudeMeters>
            <DistanceMeters>622.62969386385</DistanceMeters>
          </Trackpoint>
          <Trackpoint>
            <Time>2019-05-08T06:39:40.000Z</Time>
            <Position>
              <LatitudeDegrees>42.80055566690862178802490234375</LatitudeDegrees>
              <LongitudeDegrees>0.596447177231311798095703125</LongitudeDegrees>
            </Position>
            <AltitudeMeters>624.4000244140625</AltitudeMeters>
            <DistanceMeters>667.55200895862</DistanceMeters>
          </Trackpoint>
          <Trackpoint>
            <Time>2019-05-08T06:39:45.000Z</Time>
            <Position>
              <LatitudeDegrees>42.800885327160358428955078125</LatitudeDegrees>
              <LongitudeDegrees>0.5964959599077701568603515625</LongitudeDegrees>
            </Position>
            <AltitudeMeters>624.4000244140625</AltitudeMeters>
            <DistanceMeters>704.45945998608</DistanceMeters>
          </Trackpoint>
          <Trackpoint>
            <Time>2019-05-08T06:39:52.000Z</Time>
            <Position>
              <LatitudeDegrees>42.80133853666484355926513671875</LatitudeDegrees>
              <LongitudeDegrees>0.59655421413481235504150390625</LongitudeDegrees>
            </Position>
            <AltitudeMeters>624.20001220703125</AltitudeMeters>
            <DistanceMeters>755.12643514854</DistanceMeters>
          </Trackpoint>
          <Trackpoint>
            <Time>2019-05-08T06:39:59.000Z</Time>
            <Position>
              <LatitudeDegrees>42.80177875421941280364990234375</LatitudeDegrees>
              <LongitudeDegrees>0.59661774896085262298583984375</LongitudeDegrees>
            </Position>
            <AltitudeMeters>624</AltitudeMeters>
            <DistanceMeters>804.39748873102</DistanceMeters>
          </Trackpoint>
          <Trackpoint>
            <Time>2019-05-08T06:40:07.000Z</Time>
            <Position>
              <LatitudeDegrees>42.8022768907248973846435546875</LatitudeDegrees>
              <LongitudeDegrees>0.59667927213013172149658203125</LongitudeDegrees>
            </Position>
            <AltitudeMeters>623.5999755859375</AltitudeMeters>
            <DistanceMeters>860.06830358565</DistanceMeters>
          </Trackpoint>
          <Trackpoint>
            <Time>2019-05-08T06:40:16.000Z</Time>
            <Position>
              <LatitudeDegrees>42.80282565392553806304931640625</LatitudeDegrees>
              <LongitudeDegrees>0.59681287966668605804443359375</LongitudeDegrees>
            </Position>
            <AltitudeMeters>623.79998779296875</AltitudeMeters>
            <DistanceMeters>922.11354424803</DistanceMeters>
          </Trackpoint>
          <Trackpoint>
            <Time>2019-05-08T06:40:23.000Z</Time>
            <Position>
              <LatitudeDegrees>42.8031928651034832000732421875</LatitudeDegrees>
              <LongitudeDegrees>0.597056038677692413330078125</LongitudeDegrees>
            </Position>
            <AltitudeMeters>623.79998779296875</AltitudeMeters>
            <DistanceMeters>967.55300990369</DistanceMeters>
          </Trackpoint>
          <Trackpoint>
            <Time>2019-05-08T06:40:32.000Z</Time>
            <Position>
              <LatitudeDegrees>42.8036337532103061676025390625</LatitudeDegrees>
              <LongitudeDegrees>0.5974204838275909423828125</LongitudeDegrees>
            </Position>
            <AltitudeMeters>624.20001220703125</AltitudeMeters>
            <DistanceMeters>1024.9441106346</DistanceMeters>
          </Trackpoint>
          <Trackpoint>
            <Time>2019-05-08T06:40:40.000Z</Time>
            <Position>
              <LatitudeDegrees>42.8040323965251445770263671875</LatitudeDegrees>
              <LongitudeDegrees>0.59775911271572113037109375</LongitudeDegrees>
            </Position>
            <AltitudeMeters>624</AltitudeMeters>
            <DistanceMeters>1077.2254737487</DistanceMeters>
          </Trackpoint>
          <Trackpoint>
            <Time>2019-05-08T06:40:41.000Z</Time>
            <Position>
              <LatitudeDegrees>42.8040816821157932281494140625</LatitudeDegrees>
              <LongitudeDegrees>0.5978018604218959808349609375</LongitudeDegrees>
            </Position>
            <AltitudeMeters>624</AltitudeMeters>
            <DistanceMeters>1083.7269957116</DistanceMeters>
          </Trackpoint>
          <Trackpoint>
            <Time>2019-05-08T06:40:44.000Z</Time>
            <Position>
              <LatitudeDegrees>42.8042297065258026123046875</LatitudeDegrees>
              <LongitudeDegrees>0.5979239009320735931396484375</LongitudeDegrees>
            </Position>
            <AltitudeMeters>623.79998779296875</AltitudeMeters>
            <DistanceMeters>1102.9820438454</DistanceMeters>
          </Trackpoint>
          <Trackpoint>
            <Time>2019-05-08T06:40:48.000Z</Time>
            <Position>
              <LatitudeDegrees>42.8044308722019195556640625</LatitudeDegrees>
              <LongitudeDegrees>0.59808407910168170928955078125</LongitudeDegrees>
            </Position>
            <AltitudeMeters>623.5999755859375</AltitudeMeters>
            <DistanceMeters>1128.9128475786</DistanceMeters>
          </Trackpoint>
          <Trackpoint>
            <Time>2019-05-08T06:40:50.000Z</Time>
            <Position>
              <LatitudeDegrees>42.80453614890575408935546875</LatitudeDegrees>
              <LongitudeDegrees>0.598154403269290924072265625</LongitudeDegrees>
            </Position>
            <AltitudeMeters>623.5999755859375</AltitudeMeters>
            <DistanceMeters>1141.9619912863</DistanceMeters>
          </Trackpoint>
          <Trackpoint>
            <Time>2019-05-08T06:40:54.000Z</Time>
            <Position>
              <LatitudeDegrees>42.80475818552076816558837890625</LatitudeDegrees>
              <LongitudeDegrees>0.598264373838901519775390625</LongitudeDegrees>
            </Position>
            <AltitudeMeters>623.20001220703125</AltitudeMeters>
            <DistanceMeters>1168.2560737547</DistanceMeters>
          </Trackpoint>
          <Trackpoint>
            <Time>2019-05-08T06:40:56.000Z</Time>
            <Position>
              <LatitudeDegrees>42.80487435869872570037841796875</LatitudeDegrees>
              <LongitudeDegrees>0.598279796540737152099609375</LongitudeDegrees>
            </Position>
            <AltitudeMeters>623.20001220703125</AltitudeMeters>
            <DistanceMeters>1181.247306519</DistanceMeters>
          </Trackpoint>
          <Trackpoint>
            <Time>2019-05-08T06:40:57.000Z</Time>
            <Position>
              <LatitudeDegrees>42.804933451116085052490234375</LatitudeDegrees>
              <LongitudeDegrees>0.5982789583504199981689453125</LongitudeDegrees>
            </Position>
            <AltitudeMeters>623.20001220703125</AltitudeMeters>
            <DistanceMeters>1187.8254617558</DistanceMeters>
          </Trackpoint>
          <Trackpoint>
            <Time>2019-05-08T06:41:01.000Z</Time>
            <Position>
              <LatitudeDegrees>42.80516152270138263702392578125</LatitudeDegrees>
              <LongitudeDegrees>0.5982454307377338409423828125</LongitudeDegrees>
            </Position>
            <AltitudeMeters>623</AltitudeMeters>
            <DistanceMeters>1213.3572495587</DistanceMeters>
          </Trackpoint>
          <Trackpoint>
            <Time>2019-05-08T06:41:03.000Z</Time>
            <Position>
              <LatitudeDegrees>42.80526730231940746307373046875</LatitudeDegrees>
              <LongitudeDegrees>0.5981983244419097900390625</LongitudeDegrees>
            </Position>
            <AltitudeMeters>623</AltitudeMeters>
            <DistanceMeters>1225.7428435546</DistanceMeters>
          </Trackpoint>
          <Trackpoint>
            <Time>2019-05-08T06:41:10.000Z</Time>
            <Position>
              <LatitudeDegrees>42.80561381019651889801025390625</LatitudeDegrees>
              <LongitudeDegrees>0.5979715101420879364013671875</LongitudeDegrees>
            </Position>
            <AltitudeMeters>622.4000244140625</AltitudeMeters>
            <DistanceMeters>1268.526821114</DistanceMeters>
          </Trackpoint>
          <Trackpoint>
            <Time>2019-05-08T06:41:15.000Z</Time>
            <Position>
              <LatitudeDegrees>42.8058542869985103607177734375</LatitudeDegrees>
              <LongitudeDegrees>0.59774679131805896759033203125</LongitudeDegrees>
            </Position>
            <AltitudeMeters>622.20001220703125</AltitudeMeters>
            <DistanceMeters>1300.9788266804</DistanceMeters>
          </Trackpoint>
          <Trackpoint>
            <Time>2019-05-08T06:41:17.000Z</Time>
            <Position>
              <LatitudeDegrees>42.80595428310334682464599609375</LatitudeDegrees>
              <LongitudeDegrees>0.59765023179352283477783203125</LongitudeDegrees>
            </Position>
            <AltitudeMeters>622</AltitudeMeters>
            <DistanceMeters>1314.6187190911</DistanceMeters>
          </Trackpoint>
          <Trackpoint>
            <Time>2019-05-08T06:41:21.000Z</Time>
            <Position>
              <LatitudeDegrees>42.8061429597437381744384765625</LatitudeDegrees>
              <LongitudeDegrees>0.5974568612873554229736328125</LongitudeDegrees>
            </Position>
            <AltitudeMeters>621.5999755859375</AltitudeMeters>
            <DistanceMeters>1340.8928752904</DistanceMeters>
          </Trackpoint>
          <Trackpoint>
            <Time>2019-05-08T06:41:23.000Z</Time>
            <Position>
              <LatitudeDegrees>42.806236334145069122314453125</LatitudeDegrees>
              <LongitudeDegrees>0.59736323542892932891845703125</LongitudeDegrees>
            </Position>
            <AltitudeMeters>621.4000244140625</AltitudeMeters>
            <DistanceMeters>1353.7951797065</DistanceMeters>
          </Trackpoint>
          <Trackpoint>
            <Time>2019-05-08T06:41:25.000Z</Time>
            <Position>
              <LatitudeDegrees>42.806333564221858978271484375</LatitudeDegrees>
              <LongitudeDegrees>0.59726835228502750396728515625</LongitudeDegrees>
            </Position>
            <AltitudeMeters>621</AltitudeMeters>
            <DistanceMeters>1367.1050271766</DistanceMeters>
          </Trackpoint>
          <Trackpoint>
            <Time>2019-05-08T06:41:32.000Z</Time>
            <Position>
              <LatitudeDegrees>42.8067099116742610931396484375</LatitudeDegrees>
              <LongitudeDegrees>0.59698604978621006011962890625</LongitudeDegrees>
            </Position>
            <AltitudeMeters>620.20001220703125</AltitudeMeters>
            <DistanceMeters>1414.9173481018</DistanceMeters>
          </Trackpoint>
          <Trackpoint>
            <Time>2019-05-08T06:41:38.000Z</Time>
            <Position>
              <LatitudeDegrees>42.807060442864894866943359375</LatitudeDegrees>
              <LongitudeDegrees>0.5968298949301242828369140625</LongitudeDegrees>
            </Position>
            <AltitudeMeters>619.79998779296875</AltitudeMeters>
            <DistanceMeters>1455.9629491104</DistanceMeters>
          </Trackpoint>
          <Trackpoint>
            <Time>2019-05-08T06:41:43.000Z</Time>
            <Position>
              <LatitudeDegrees>42.8073382191359996795654296875</LatitudeDegrees>
              <LongitudeDegrees>0.596731491386890411376953125</LongitudeDegrees>
            </Position>
            <AltitudeMeters>619.4000244140625</AltitudeMeters>
            <DistanceMeters>1487.9071936385</DistanceMeters>
          </Trackpoint>
          <Trackpoint>
            <Time>2019-05-08T06:41:45.000Z</Time>
            <Position>
              <LatitudeDegrees>42.80744693242013454437255859375</LatitudeDegrees>
              <LongitudeDegrees>0.5966991372406482696533203125</LongitudeDegrees>
            </Position>
            <AltitudeMeters>619.5999755859375</AltitudeMeters>
            <DistanceMeters>1500.2927876344</DistanceMeters>
          </Trackpoint>
          <Trackpoint>
            <Time>2019-05-08T06:41:50.000Z</Time>
            <Position>
              <LatitudeDegrees>42.80769176781177520751953125</LatitudeDegrees>
              <LongitudeDegrees>0.5966166593134403228759765625</LongitudeDegrees>
            </Position>
            <AltitudeMeters>619.79998779296875</AltitudeMeters>
            <DistanceMeters>1528.3634924795</DistanceMeters>
          </Trackpoint>
          <Trackpoint>
            <Time>2019-05-08T06:41:51.000Z</Time>
            <Position>
              <LatitudeDegrees>42.80773912556469440460205078125</LatitudeDegrees>
              <LongitudeDegrees>0.59660199098289012908935546875</LongitudeDegrees>
            </Position>
            <AltitudeMeters>619.79998779296875</AltitudeMeters>
            <DistanceMeters>1533.7691679574</DistanceMeters>
          </Trackpoint>
          <Trackpoint>
            <Time>2019-05-08T06:41:57.000Z</Time>
            <Position>
              <LatitudeDegrees>42.80803316272795200347900390625</LatitudeDegrees>
              <LongitudeDegrees>0.596494115889072418212890625</LongitudeDegrees>
            </Position>
            <AltitudeMeters>620.20001220703125</AltitudeMeters>
            <DistanceMeters>1567.6608156575</DistanceMeters>
          </Trackpoint>
          <Trackpoint>
            <Time>2019-05-08T06:42:00.000Z</Time>
            <Position>
              <LatitudeDegrees>42.8081723861396312713623046875</LatitudeDegrees>
              <LongitudeDegrees>0.59643971733748912811279296875</LongitudeDegrees>
            </Position>
            <AltitudeMeters>620.20001220703125</AltitudeMeters>
            <DistanceMeters>1583.7803829493</DistanceMeters>
          </Trackpoint>
          <Trackpoint>
            <Time>2019-05-08T06:42:03.000Z</Time>
            <Position>
              <LatitudeDegrees>42.8083128668367862701416015625</LatitudeDegrees>
              <LongitudeDegrees>0.5963849835097789764404296875</LongitudeDegrees>
            </Position>
            <AltitudeMeters>620.4000244140625</AltitudeMeters>
            <DistanceMeters>1600.0421721701</DistanceMeters>
          </Trackpoint>
          <Trackpoint>
            <Time>2019-05-08T06:42:09.000Z</Time>
            <Position>
              <LatitudeDegrees>42.80859340913593769073486328125</LatitudeDegrees>
              <LongitudeDegrees>0.59631717391312122344970703125</LongitudeDegrees>
            </Position>
            <AltitudeMeters>620.5999755859375</AltitudeMeters>
            <DistanceMeters>1631.7540546948</DistanceMeters>
          </Trackpoint>
          <Trackpoint>
            <Time>2019-05-08T06:42:16.000Z</Time>
            <Position>
              <LatitudeDegrees>42.808935642242431640625</LatitudeDegrees>
              <LongitudeDegrees>0.59626185335218906402587890625</LongitudeDegrees>
            </Position>
            <AltitudeMeters>621</AltitudeMeters>
            <DistanceMeters>1670.1121385315</DistanceMeters>
          </Trackpoint>
          <Trackpoint>
            <Time>2019-05-08T06:42:20.000Z</Time>
            <Position>
              <LatitudeDegrees>42.8091279231011867523193359375</LatitudeDegrees>
              <LongitudeDegrees>0.59624391607940196990966796875</LongitudeDegrees>
            </Position>
            <AltitudeMeters>621.20001220703125</AltitudeMeters>
            <DistanceMeters>1691.5633537752</DistanceMeters>
          </Trackpoint>
          <Trackpoint>
            <Time>2019-05-08T06:42:22.000Z</Time>
            <Position>
              <LatitudeDegrees>42.80921719036996364593505859375</LatitudeDegrees>
              <LongitudeDegrees>0.59623318724334239959716796875</LongitudeDegrees>
            </Position>
            <AltitudeMeters>621.4000244140625</AltitudeMeters>
            <DistanceMeters>1701.5375380618</DistanceMeters>
          </Trackpoint>
          <Trackpoint>
            <Time>2019-05-08T06:42:29.000Z</Time>
            <Position>
              <LatitudeDegrees>42.8095533885061740875244140625</LatitudeDegrees>
              <LongitudeDegrees>0.5961747653782367706298828125</LongitudeDegrees>
            </Position>
            <AltitudeMeters>621.5999755859375</AltitudeMeters>
            <DistanceMeters>1739.2597924499</DistanceMeters>
          </Trackpoint>
          <Trackpoint>
            <Time>2019-05-08T06:42:32.000Z</Time>
            <Position>
              <LatitudeDegrees>42.809708118438720703125</LatitudeDegrees>
              <LongitudeDegrees>0.596148110926151275634765625</LongitudeDegrees>
            </Position>
            <AltitudeMeters>621.79998779296875</AltitudeMeters>
            <DistanceMeters>1756.6184969194</DistanceMeters>
          </Trackpoint>
          <Trackpoint>
            <Time>2019-05-08T06:42:34.000Z</Time>
            <Position>
              <LatitudeDegrees>42.80980559997260570526123046875</LatitudeDegrees>
              <LongitudeDegrees>0.59613394550979137420654296875</LongitudeDegrees>
            </Position>
            <AltitudeMeters>621.79998779296875</AltitudeMeters>
            <DistanceMeters>1767.5296163779</DistanceMeters>
          </Trackpoint>
          <Trackpoint>
            <Time>2019-05-08T06:42:39.000Z</Time>
            <Position>
              <LatitudeDegrees>42.8100754134356975555419921875</LatitudeDegrees>
              <LongitudeDegrees>0.59612154029309749603271484375</LongitudeDegrees>
            </Position>
            <AltitudeMeters>621.5999755859375</AltitudeMeters>
            <DistanceMeters>1797.5774481341</DistanceMeters>
          </Trackpoint>
          <Trackpoint>
            <Time>2019-05-08T06:42:44.000Z</Time>
            <Position>
              <LatitudeDegrees>42.81036458909511566162109375</LatitudeDegrees>
              <LongitudeDegrees>0.5961191095411777496337890625</LongitudeDegrees>
            </Position>
            <AltitudeMeters>621.4000244140625</AltitudeMeters>
            <DistanceMeters>1829.7638814556</DistanceMeters>
          </Trackpoint>
          <Trackpoint>
            <Time>2019-05-08T06:42:46.000Z</Time>
            <Position>
              <LatitudeDegrees>42.8104898147284984588623046875</LatitudeDegrees>
              <LongitudeDegrees>0.59612036682665348052978515625</LongitudeDegrees>
            </Position>
            <AltitudeMeters>621.20001220703125</AltitudeMeters>
            <DistanceMeters>1843.7020687343</DistanceMeters>
          </Trackpoint>
          <Trackpoint>
            <Time>2019-05-08T06:42:48.000Z</Time>
            <Position>
              <LatitudeDegrees>42.81061747111380100250244140625</LatitudeDegrees>
              <LongitudeDegrees>0.5961249768733978271484375</LongitudeDegrees>
            </Position>
            <AltitudeMeters>620.79998779296875</AltitudeMeters>
            <DistanceMeters>1857.9154733301</DistanceMeters>
          </Trackpoint>
          <Trackpoint>
            <Time>2019-05-08T06:42:53.000Z</Time>
            <Position>
              <LatitudeDegrees>42.81093866564333438873291015625</LatitudeDegrees>
              <LongitudeDegrees>0.5962441675364971160888671875</LongitudeDegrees>
            </Position>
            <AltitudeMeters>620.20001220703125</AltitudeMeters>
            <DistanceMeters>1894.9660224615</DistanceMeters>
          </Trackpoint>
          <Trackpoint>
            <Time>2019-05-08T06:43:00.000Z</Time>
            <Position>
              <LatitudeDegrees>42.811342589557170867919921875</LatitudeDegrees>
              <LongitudeDegrees>0.59653258882462978363037109375</LongitudeDegrees>
            </Position>
            <AltitudeMeters>619</AltitudeMeters>
            <DistanceMeters>1945.7181172477</DistanceMeters>
          </Trackpoint>
          <Trackpoint>
            <Time>2019-05-08T06:43:03.000Z</Time>
            <Position>
              <LatitudeDegrees>42.81150846742093563079833984375</LatitudeDegrees>
              <LongitudeDegrees>0.596644990146160125732421875</LongitudeDegrees>
            </Position>
            <AltitudeMeters>618.79998779296875</AltitudeMeters>
            <DistanceMeters>1966.335629671</DistanceMeters>
          </Trackpoint>
          <Trackpoint>
            <Time>2019-05-08T06:43:06.000Z</Time>
            <Position>
              <LatitudeDegrees>42.81166688539087772369384765625</LatitudeDegrees>
              <LongitudeDegrees>0.59674314223229885101318359375</LongitudeDegrees>
            </Position>
            <AltitudeMeters>618.79998779296875</AltitudeMeters>
            <DistanceMeters>1985.7033702589</DistanceMeters>
          </Trackpoint>
          <Trackpoint>
            <Time>2019-05-08T06:43:09.000Z</Time>
            <Position>
              <LatitudeDegrees>42.81181289814412593841552734375</LatitudeDegrees>
              <LongitudeDegrees>0.59684121049940586090087890625</LongitudeDegrees>
            </Position>
            <AltitudeMeters>618.79998779296875</AltitudeMeters>
            <DistanceMeters>2003.8203572762</DistanceMeters>
          </Trackpoint>
          <Trackpoint>
            <Time>2019-05-08T06:43:13.000Z</Time>
            <Position>
              <LatitudeDegrees>42.81199445016682147979736328125</LatitudeDegrees>
              <LongitudeDegrees>0.5969562940299510955810546875</LongitudeDegrees>
            </Position>
            <AltitudeMeters>619</AltitudeMeters>
            <DistanceMeters>2026.1056920115</DistanceMeters>
          </Trackpoint>
          <Trackpoint>
            <Time>2019-05-08T06:43:14.000Z</Time>
            <Position>
              <LatitudeDegrees>42.81203703023493289947509765625</LatitudeDegrees>
              <LongitudeDegrees>0.59698185883462429046630859375</LongitudeDegrees>
            </Position>
            <AltitudeMeters>619.20001220703125</AltitudeMeters>
            <DistanceMeters>2031.285301757</DistanceMeters>
          </Trackpoint>
          <Trackpoint>
            <Time>2019-05-08T06:43:18.000Z</Time>
            <Position>
              <LatitudeDegrees>42.8122013993561267852783203125</LatitudeDegrees>
              <LongitudeDegrees>0.5970763228833675384521484375</LongitudeDegrees>
            </Position>
            <AltitudeMeters>620.20001220703125</AltitudeMeters>
            <DistanceMeters>2051.1395186141</DistanceMeters>
          </Trackpoint>
          <Trackpoint>
            <Time>2019-05-08T06:43:22.000Z</Time>
            <Position>
              <LatitudeDegrees>42.8123648464679718017578125</LatitudeDegrees>
              <LongitudeDegrees>0.597157962620258331298828125</LongitudeDegrees>
            </Position>
            <AltitudeMeters>621.20001220703125</AltitudeMeters>
            <DistanceMeters>2070.5142515871</DistanceMeters>
          </Trackpoint>
          <Trackpoint>
            <Time>2019-05-08T06:43:23.000Z</Time>
            <Position>
              <LatitudeDegrees>42.81240398995578289031982421875</LatitudeDegrees>
              <LongitudeDegrees>0.597173385322093963623046875</LongitudeDegrees>
            </Position>
            <AltitudeMeters>621.4000244140625</AltitudeMeters>
            <DistanceMeters>2075.0477330292</DistanceMeters>
          </Trackpoint>
          <Trackpoint>
            <Time>2019-05-08T06:43:29.000Z</Time>
            <Position>
              <LatitudeDegrees>42.81263918615877628326416015625</LatitudeDegrees>
              <LongitudeDegrees>0.5972407758235931396484375</LongitudeDegrees>
            </Position>
            <AltitudeMeters>622.79998779296875</AltitudeMeters>
            <DistanceMeters>2101.7977109278</DistanceMeters>
          </Trackpoint>
          <Trackpoint>
            <Time>2019-05-08T06:43:32.000Z</Time>
            <Position>
              <LatitudeDegrees>42.81277966685593128204345703125</LatitudeDegrees>
              <LongitudeDegrees>0.597280673682689666748046875</LongitudeDegrees>
            </Position>
            <AltitudeMeters>623.20001220703125</AltitudeMeters>
            <DistanceMeters>2117.7689851221</DistanceMeters>
          </Trackpoint>
          <Trackpoint>
            <Time>2019-05-08T06:43:35.000Z</Time>
            <Position>
              <LatitudeDegrees>42.8129198960959911346435546875</LatitudeDegrees>
              <LongitudeDegrees>0.5973408557474613189697265625</LongitudeDegrees>
            </Position>
            <AltitudeMeters>623.20001220703125</AltitudeMeters>
            <DistanceMeters>2134.1318017061</DistanceMeters>
          </Trackpoint>
          <Trackpoint>
            <Time>2019-05-08T06:43:36.000Z</Time>
            <Position>
              <LatitudeDegrees>42.81296901404857635498046875</LatitudeDegrees>
              <LongitudeDegrees>0.59735669754445552825927734375</LongitudeDegrees>
            </Position>
            <AltitudeMeters>623.20001220703125</AltitudeMeters>
            <DistanceMeters>2139.7488371426</DistanceMeters>
          </Trackpoint>
          <Trackpoint>
            <Time>2019-05-08T06:43:42.000Z</Time>
            <Position>
              <LatitudeDegrees>42.81326950527727603912353515625</LatitudeDegrees>
              <LongitudeDegrees>0.59743833728134632110595703125</LongitudeDegrees>
            </Position>
            <AltitudeMeters>623</AltitudeMeters>
            <DistanceMeters>2173.8519112786</DistanceMeters>
          </Trackpoint>
          <Trackpoint>
            <Time>2019-05-08T06:43:43.000Z</Time>
            <Position>
              <LatitudeDegrees>42.8133205510675907135009765625</LatitudeDegrees>
              <LongitudeDegrees>0.59745660983026027679443359375</LongitudeDegrees>
            </Position>
            <AltitudeMeters>622.79998779296875</AltitudeMeters>
            <DistanceMeters>2179.7251465043</DistanceMeters>
          </Trackpoint>
          <Trackpoint>
            <Time>2019-05-08T06:43:47.000Z</Time>
            <Position>
              <LatitudeDegrees>42.81353571452200412750244140625</LatitudeDegrees>
              <LongitudeDegrees>0.59752332977950572967529296875</LongitudeDegrees>
            </Position>
            <AltitudeMeters>622.79998779296875</AltitudeMeters>
            <DistanceMeters>2204.2850945153</DistanceMeters>
          </Trackpoint>
          <Trackpoint>
            <Time>2019-05-08T06:43:48.000Z</Time>
            <Position>
              <LatitudeDegrees>42.813590951263904571533203125</LatitudeDegrees>
              <LongitudeDegrees>0.597539842128753662109375</LongitudeDegrees>
            </Position>
            <AltitudeMeters>622.5999755859375</AltitudeMeters>
            <DistanceMeters>2210.5784175869</DistanceMeters>
          </Trackpoint>
          <Trackpoint>
            <Time>2019-05-08T06:43:49.000Z</Time>
            <Position>
              <LatitudeDegrees>42.813647948205471038818359375</LatitudeDegrees>
              <LongitudeDegrees>0.5975544266402721405029296875</LongitudeDegrees>
            </Position>
            <AltitudeMeters>622.5999755859375</AltitudeMeters>
            <DistanceMeters>2217.0332431238</DistanceMeters>
          </Trackpoint>
          <Trackpoint>
            <Time>2019-05-08T06:43:51.000Z</Time>
            <Position>
              <LatitudeDegrees>42.813766635954380035400390625</LatitudeDegrees>
              <LongitudeDegrees>0.59758317656815052032470703125</LongitudeDegrees>
            </Position>
            <AltitudeMeters>622.20001220703125</AltitudeMeters>
            <DistanceMeters>2230.4501941154</DistanceMeters>
          </Trackpoint>
          <Trackpoint>
            <Time>2019-05-08T06:43:54.000Z</Time>
            <Position>
              <LatitudeDegrees>42.8139508701860904693603515625</LatitudeDegrees>
              <LongitudeDegrees>0.59765517711639404296875</LongitudeDegrees>
            </Position>
            <AltitudeMeters>621.79998779296875</AltitudeMeters>
            <DistanceMeters>2251.7817337243</DistanceMeters>
          </Trackpoint>
          <Trackpoint>
            <Time>2019-05-08T06:43:55.000Z</Time>
            <Position>
              <LatitudeDegrees>42.81401717104017734527587890625</LatitudeDegrees>
              <LongitudeDegrees>0.59767336584627628326416015625</LongitudeDegrees>
            </Position>
            <AltitudeMeters>621.5999755859375</AltitudeMeters>
            <DistanceMeters>2259.3086653442</DistanceMeters>
          </Trackpoint>
          <Trackpoint>
            <Time>2019-05-08T06:43:56.000Z</Time>
            <Position>
              <LatitudeDegrees>42.81408422626554965972900390625</LatitudeDegrees>
              <LongitudeDegrees>0.5976945720613002777099609375</LongitudeDegrees>
            </Position>
            <AltitudeMeters>621.4000244140625</AltitudeMeters>
            <DistanceMeters>2266.9699639864</DistanceMeters>
          </Trackpoint>
          <Trackpoint>
            <Time>2019-05-08T06:43:57.000Z</Time>
            <Position>
              <LatitudeDegrees>42.8141510300338268280029296875</LatitudeDegrees>
              <LongitudeDegrees>0.59771795757114887237548828125</LongitudeDegrees>
            </Position>
            <AltitudeMeters>621</AltitudeMeters>
            <DistanceMeters>2274.6471580669</DistanceMeters>
          </Trackpoint>
          <Trackpoint>
            <Time>2019-05-08T06:43:58.000Z</Time>
            <Position>
              <LatitudeDegrees>42.81421917490661144256591796875</LatitudeDegrees>
              <LongitudeDegrees>0.59773924760520458221435546875</LongitudeDegrees>
            </Position>
            <AltitudeMeters>620.5999755859375</AltitudeMeters>
            <DistanceMeters>2282.4289118945</DistanceMeters>
          </Trackpoint>
          <Trackpoint>
            <Time>2019-05-08T06:44:00.000Z</Time>
            <Position>
              <LatitudeDegrees>42.81435839831829071044921875</LatitudeDegrees>
              <LongitudeDegrees>0.5977745354175567626953125</LongitudeDegrees>
            </Position>
            <AltitudeMeters>620</AltitudeMeters>
            <DistanceMeters>2298.1898881617</DistanceMeters>
          </Trackpoint>
          <Trackpoint>
            <Time>2019-05-08T06:44:01.000Z</Time>
            <Position>
              <LatitudeDegrees>42.8144279681146144866943359375</LatitudeDegrees>
              <LongitudeDegrees>0.59779305942356586456298828125</LongitudeDegrees>
            </Position>
            <AltitudeMeters>619.79998779296875</AltitudeMeters>
            <DistanceMeters>2306.0788226178</DistanceMeters>
          </Trackpoint>
          <Trackpoint>
            <Time>2019-05-08T06:44:03.000Z</Time>
            <Position>
              <LatitudeDegrees>42.81456836499273777008056640625</LatitudeDegrees>
              <LongitudeDegrees>0.5978092364966869354248046875</LongitudeDegrees>
            </Position>
            <AltitudeMeters>619.4000244140625</AltitudeMeters>
            <DistanceMeters>2321.7611098219</DistanceMeters>
          </Trackpoint>
          <Trackpoint>
            <Time>2019-05-08T06:44:05.000Z</Time>
            <Position>
              <LatitudeDegrees>42.8147072531282901763916015625</LatitudeDegrees>
              <LongitudeDegrees>0.597769506275653839111328125</LongitudeDegrees>
            </Position>
            <AltitudeMeters>618.5999755859375</AltitudeMeters>
            <DistanceMeters>2337.5561391664</DistanceMeters>
          </Trackpoint>
          <Trackpoint>
            <Time>2019-05-08T06:44:07.000Z</Time>
            <Position>
              <LatitudeDegrees>42.8148333169519901275634765625</LatitudeDegrees>
              <LongitudeDegrees>0.59769264422357082366943359375</LongitudeDegrees>
            </Position>
            <AltitudeMeters>618</AltitudeMeters>
            <DistanceMeters>2352.9266918566</DistanceMeters>
          </Trackpoint>
          <Trackpoint>
            <Time>2019-05-08T06:44:13.000Z</Time>
            <Position>
              <LatitudeDegrees>42.81514068134129047393798828125</LatitudeDegrees>
              <LongitudeDegrees>0.5974178016185760498046875</LongitudeDegrees>
            </Position>
            <AltitudeMeters>617</AltitudeMeters>
            <DistanceMeters>2393.8397482102</DistanceMeters>
          </Trackpoint>
          <Trackpoint>
            <Time>2019-05-08T06:44:14.000Z</Time>
            <Position>
              <LatitudeDegrees>42.81519114039838314056396484375</LatitudeDegrees>
              <LongitudeDegrees>0.5973871238529682159423828125</LongitudeDegrees>
            </Position>
            <AltitudeMeters>617.20001220703125</AltitudeMeters>
            <DistanceMeters>2399.988644865</DistanceMeters>
          </Trackpoint>
          <Trackpoint>
            <Time>2019-05-08T06:44:16.000Z</Time>
            <Position>
              <LatitudeDegrees>42.8152986802160739898681640625</LatitudeDegrees>
              <LongitudeDegrees>0.5973750539124011993408203125</LongitudeDegrees>
            </Position>
            <AltitudeMeters>617</AltitudeMeters>
            <DistanceMeters>2411.9989088552</DistanceMeters>
          </Trackpoint>
          <Trackpoint>
            <Time>2019-05-08T06:44:18.000Z</Time>
            <Position>
              <LatitudeDegrees>42.81540789641439914703369140625</LatitudeDegrees>
              <LongitudeDegrees>0.59738921932876110076904296875</LongitudeDegrees>
            </Position>
            <AltitudeMeters>617</AltitudeMeters>
            <DistanceMeters>2424.209749213</DistanceMeters>
          </Trackpoint>
          <Trackpoint>
            <Time>2019-05-08T06:44:21.000Z</Time>
            <Position>
              <LatitudeDegrees>42.815567739307880401611328125</LatitudeDegrees>
              <LongitudeDegrees>0.59743322432041168212890625</LongitudeDegrees>
            </Position>
            <AltitudeMeters>616.79998779296875</AltitudeMeters>
            <DistanceMeters>2442.3598516576</DistanceMeters>
          </Trackpoint>
          <Trackpoint>
            <Time>2019-05-08T06:44:23.000Z</Time>
            <Position>
              <LatitudeDegrees>42.8156661428511142730712890625</LatitudeDegrees>
              <LongitudeDegrees>0.5974890477955341339111328125</LongitudeDegrees>
            </Position>
            <AltitudeMeters>616.79998779296875</AltitudeMeters>
            <DistanceMeters>2454.2225963359</DistanceMeters>
          </Trackpoint>
          <Trackpoint>
            <Time>2019-05-08T06:44:27.000Z</Time>
            <Position>
              <LatitudeDegrees>42.81585909426212310791015625</LatitudeDegrees>
              <LongitudeDegrees>0.59760061092674732208251953125</LongitudeDegrees>
            </Position>
            <AltitudeMeters>616.5999755859375</AltitudeMeters>
            <DistanceMeters>2477.5502515276</DistanceMeters>
          </Trackpoint>
          <Trackpoint>
            <Time>2019-05-08T06:44:30.000Z</Time>
            <Position>
              <LatitudeDegrees>42.8159992396831512451171875</LatitudeDegrees>
              <LongitudeDegrees>0.59770203195512294769287109375</LongitudeDegrees>
            </Position>
            <AltitudeMeters>616.5999755859375</AltitudeMeters>
            <DistanceMeters>2495.2103981924</DistanceMeters>
          </Trackpoint>
          <Trackpoint>
            <Time>2019-05-08T06:44:34.000Z</Time>
            <Position>
              <LatitudeDegrees>42.81618607230484485626220703125</LatitudeDegrees>
              <LongitudeDegrees>0.59783689677715301513671875</LongitudeDegrees>
            </Position>
            <AltitudeMeters>616.20001220703125</AltitudeMeters>
            <DistanceMeters>2518.7404019538</DistanceMeters>
          </Trackpoint>
          <Trackpoint>
            <Time>2019-05-08T06:44:36.000Z</Time>
            <Position>
              <LatitudeDegrees>42.8162850625813007354736328125</LatitudeDegrees>
              <LongitudeDegrees>0.5978813208639621734619140625</LongitudeDegrees>
            </Position>
            <AltitudeMeters>616</AltitudeMeters>
            <DistanceMeters>2530.3398906931</DistanceMeters>
          </Trackpoint>
          <Trackpoint>
            <Time>2019-05-08T06:44:38.000Z</Time>
            <Position>
              <LatitudeDegrees>42.81638757325708866119384765625</LatitudeDegrees>
              <LongitudeDegrees>0.5979140102863311767578125</LongitudeDegrees>
            </Position>
            <AltitudeMeters>615.5999755859375</AltitudeMeters>
            <DistanceMeters>2542.0578829447</DistanceMeters>
          </Trackpoint>
          <Trackpoint>
            <Time>2019-05-08T06:44:40.000Z</Time>
            <Position>
              <LatitudeDegrees>42.81649184413254261016845703125</LatitudeDegrees>
              <LongitudeDegrees>0.597935803234577178955078125</LongitudeDegrees>
            </Position>
            <AltitudeMeters>615.5999755859375</AltitudeMeters>
            <DistanceMeters>2553.7989709263</DistanceMeters>
          </Trackpoint>
          <Trackpoint>
            <Time>2019-05-08T06:44:43.000Z</Time>
            <Position>
              <LatitudeDegrees>42.816642634570598602294921875</LatitudeDegrees>
              <LongitudeDegrees>0.59796564280986785888671875</LongitudeDegrees>
            </Position>
            <AltitudeMeters>615.20001220703125</AltitudeMeters>
            <DistanceMeters>2570.7585108639</DistanceMeters>
          </Trackpoint>
          <Trackpoint>
            <Time>2019-05-08T06:44:49.000Z</Time>
            <Position>
              <LatitudeDegrees>42.81692854128777980804443359375</LatitudeDegrees>
              <LongitudeDegrees>0.59801182709634304046630859375</LongitudeDegrees>
            </Position>
            <AltitudeMeters>614.5999755859375</AltitudeMeters>
            <DistanceMeters>2602.803091417</DistanceMeters>
          </Trackpoint>
          <Trackpoint>
            <Time>2019-05-08T06:44:50.000Z</Time>
            <Position>
              <LatitudeDegrees>42.816974557936191558837890625</LatitudeDegrees>
              <LongitudeDegrees>0.59802171774208545684814453125</LongitudeDegrees>
            </Position>
            <AltitudeMeters>614.5999755859375</AltitudeMeters>
            <DistanceMeters>2607.9879286925</DistanceMeters>
          </Trackpoint>
          <Trackpoint>
            <Time>2019-05-08T06:44:52.000Z</Time>
            <Position>
              <LatitudeDegrees>42.81706768088042736053466796875</LatitudeDegrees>
              <LongitudeDegrees>0.5980345420539379119873046875</LongitudeDegrees>
            </Position>
            <AltitudeMeters>614.4000244140625</AltitudeMeters>
            <DistanceMeters>2618.4053880135</DistanceMeters>
          </Trackpoint>
          <Trackpoint>
            <Time>2019-05-08T06:44:55.000Z</Time>
            <Position>
              <LatitudeDegrees>42.81720480881631374359130859375</LatitudeDegrees>
              <LongitudeDegrees>0.598058514297008514404296875</LongitudeDegrees>
            </Position>
            <AltitudeMeters>614.20001220703125</AltitudeMeters>
            <DistanceMeters>2633.7929685393</DistanceMeters>
          </Trackpoint>
          <Trackpoint>
            <Time>2019-05-08T06:44:58.000Z</Time>
            <Position>
              <LatitudeDegrees>42.81733187846839427947998046875</LatitudeDegrees>
              <LongitudeDegrees>0.59809531085193157196044921875</LongitudeDegrees>
            </Position>
            <AltitudeMeters>613.79998779296875</AltitudeMeters>
            <DistanceMeters>2648.2517132895</DistanceMeters>
          </Trackpoint>
          <Trackpoint>
            <Time>2019-05-08T06:45:00.000Z</Time>
            <Position>
              <LatitudeDegrees>42.81741033308207988739013671875</LatitudeDegrees>
              <LongitudeDegrees>0.5981351248919963836669921875</LongitudeDegrees>
            </Position>
            <AltitudeMeters>613.5999755859375</AltitudeMeters>
            <DistanceMeters>2657.5691783382</DistanceMeters>
          </Trackpoint>
          <Trackpoint>
            <Time>2019-05-08T06:45:10.000Z</Time>
            <Position>
              <LatitudeDegrees>42.8177837468683719635009765625</LatitudeDegrees>
              <LongitudeDegrees>0.598389767110347747802734375</LongitudeDegrees>
            </Position>
            <AltitudeMeters>613.4000244140625</AltitudeMeters>
            <DistanceMeters>2704.0404479774</DistanceMeters>
          </Trackpoint>
          <Trackpoint>
            <Time>2019-05-08T06:45:17.000Z</Time>
            <Position>
              <LatitudeDegrees>42.81803109683096408843994140625</LatitudeDegrees>
              <LongitudeDegrees>0.598566792905330657958984375</LongitudeDegrees>
            </Position>
            <AltitudeMeters>613.4000244140625</AltitudeMeters>
            <DistanceMeters>2735.1340834122</DistanceMeters>
          </Trackpoint>
          <Trackpoint>
            <Time>2019-05-08T06:45:18.000Z</Time>
            <Position>
              <LatitudeDegrees>42.81807132996618747711181640625</LatitudeDegrees>
              <LongitudeDegrees>0.598576851189136505126953125</LongitudeDegrees>
            </Position>
            <AltitudeMeters>613.4000244140625</AltitudeMeters>
            <DistanceMeters>2739.6864482305</DistanceMeters>
          </Trackpoint>
          <Trackpoint>
            <Time>2019-05-08T06:45:19.000Z</Time>
            <Position>
              <LatitudeDegrees>42.81811206601560115814208984375</LatitudeDegrees>
              <LongitudeDegrees>0.59858162887394428253173828125</LongitudeDegrees>
            </Position>
            <AltitudeMeters>613.4000244140625</AltitudeMeters>
            <DistanceMeters>2744.2368290152</DistanceMeters>
          </Trackpoint>
          <Trackpoint>
            <Time>2019-05-08T06:45:21.000Z</Time>
            <Position>
              <LatitudeDegrees>42.81819554977118968963623046875</LatitudeDegrees>
              <LongitudeDegrees>0.59859101660549640655517578125</LongitudeDegrees>
            </Position>
            <AltitudeMeters>613.4000244140625</AltitudeMeters>
            <DistanceMeters>2753.560107186</DistanceMeters>
          </Trackpoint>
          <Trackpoint>
            <Time>2019-05-08T06:45:24.000Z</Time>
            <Position>
              <LatitudeDegrees>42.81832379288971424102783203125</LatitudeDegrees>
              <LongitudeDegrees>0.59862555004656314849853515625</LongitudeDegrees>
            </Position>
            <AltitudeMeters>613.4000244140625</AltitudeMeters>
            <DistanceMeters>2768.1094388545</DistanceMeters>
          </Trackpoint>
          <Trackpoint>
            <Time>2019-05-08T06:45:31.000Z</Time>
            <Position>
              <LatitudeDegrees>42.81861514784395694732666015625</LatitudeDegrees>
              <LongitudeDegrees>0.59868472628295421600341796875</LongitudeDegrees>
            </Position>
            <AltitudeMeters>613.20001220703125</AltitudeMeters>
            <DistanceMeters>2800.8957210452</DistanceMeters>
          </Trackpoint>
          <Trackpoint>
            <Time>2019-05-08T06:45:35.000Z</Time>
            <Position>
              <LatitudeDegrees>42.81878932379186153411865234375</LatitudeDegrees>
              <LongitudeDegrees>0.59872127138078212738037109375</LongitudeDegrees>
            </Position>
            <AltitudeMeters>613.20001220703125</AltitudeMeters>
            <DistanceMeters>2820.5101648786</DistanceMeters>
          </Trackpoint>
          <Trackpoint>
            <Time>2019-05-08T06:45:38.000Z</Time>
            <Position>
              <LatitudeDegrees>42.8189176507294178009033203125</LatitudeDegrees>
              <LongitudeDegrees>0.59874725528061389923095703125</LongitudeDegrees>
            </Position>
            <AltitudeMeters>613</AltitudeMeters>
            <DistanceMeters>2834.9498485695</DistanceMeters>
          </Trackpoint>
          <Trackpoint>
            <Time>2019-05-08T06:45:46.000Z</Time>
            <Position>
              <LatitudeDegrees>42.8192703612148761749267578125</LatitudeDegrees>
              <LongitudeDegrees>0.598832331597805023193359375</LongitudeDegrees>
            </Position>
            <AltitudeMeters>613.20001220703125</AltitudeMeters>
            <DistanceMeters>2874.8170378983</DistanceMeters>
          </Trackpoint>
          <Trackpoint>
            <Time>2019-05-08T06:45:52.000Z</Time>
            <Position>
              <LatitudeDegrees>42.81953866593539714813232421875</LatitudeDegrees>
              <LongitudeDegrees>0.598935596644878387451171875</LongitudeDegrees>
            </Position>
            <AltitudeMeters>613.20001220703125</AltitudeMeters>
            <DistanceMeters>2905.8470071388</DistanceMeters>
          </Trackpoint>
          <Trackpoint>
            <Time>2019-05-08T06:45:57.000Z</Time>
            <Position>
              <LatitudeDegrees>42.81977000646293163299560546875</LatitudeDegrees>
              <LongitudeDegrees>0.599032156169414520263671875</LongitudeDegrees>
            </Position>
            <AltitudeMeters>613.4000244140625</AltitudeMeters>
            <DistanceMeters>2932.7753044969</DistanceMeters>
          </Trackpoint>
          <Trackpoint>
            <Time>2019-05-08T06:45:59.000Z</Time>
            <Position>
              <LatitudeDegrees>42.81986120156943798065185546875</LatitudeDegrees>
              <LongitudeDegrees>0.59906895272433757781982421875</LongitudeDegrees>
            </Position>
            <AltitudeMeters>613.5999755859375</AltitudeMeters>
            <DistanceMeters>2943.3604444826</DistanceMeters>
          </Trackpoint>
          <Trackpoint>
            <Time>2019-05-08T06:46:02.000Z</Time>
            <Position>
              <LatitudeDegrees>42.81999816186726093292236328125</LatitudeDegrees>
              <LongitudeDegrees>0.59910566546022891998291015625</LongitudeDegrees>
            </Position>
            <AltitudeMeters>613.5999755859375</AltitudeMeters>
            <DistanceMeters>2958.8960771763</DistanceMeters>
          </Trackpoint>
          <Trackpoint>
            <Time>2019-05-08T06:46:07.000Z</Time>
            <Position>
              <LatitudeDegrees>42.82022531144320964813232421875</LatitudeDegrees>
              <LongitudeDegrees>0.59915696270763874053955078125</LongitudeDegrees>
            </Position>
            <AltitudeMeters>613.79998779296875</AltitudeMeters>
            <DistanceMeters>2984.5226520443</DistanceMeters>
          </Trackpoint>
          <Trackpoint>
            <Time>2019-05-08T06:46:16.000Z</Time>
            <Position>
              <LatitudeDegrees>42.8206604160368442535400390625</LatitudeDegrees>
              <LongitudeDegrees>0.5992148816585540771484375</LongitudeDegrees>
            </Position>
            <AltitudeMeters>613.79998779296875</AltitudeMeters>
            <DistanceMeters>3033.1809695569</DistanceMeters>
          </Trackpoint>
          <Trackpoint>
            <Time>2019-05-08T06:46:26.000Z</Time>
            <Position>
              <LatitudeDegrees>42.82115804962813854217529296875</LatitudeDegrees>
              <LongitudeDegrees>0.59931957162916660308837890625</LongitudeDegrees>
            </Position>
            <AltitudeMeters>613.79998779296875</AltitudeMeters>
            <DistanceMeters>3089.2241777873</DistanceMeters>
          </Trackpoint>
          <Trackpoint>
            <Time>2019-05-08T06:46:32.000Z</Time>
            <Position>
              <LatitudeDegrees>42.8214499913156032562255859375</LatitudeDegrees>
              <LongitudeDegrees>0.59940942563116550445556640625</LongitudeDegrees>
            </Position>
            <AltitudeMeters>613.79998779296875</AltitudeMeters>
            <DistanceMeters>3122.5356159691</DistanceMeters>
          </Trackpoint>
          <Trackpoint>
            <Time>2019-05-08T06:46:35.000Z</Time>
            <Position>
              <LatitudeDegrees>42.8215958364307880401611328125</LatitudeDegrees>
              <LongitudeDegrees>0.5994527600705623626708984375</LongitudeDegrees>
            </Position>
            <AltitudeMeters>614.20001220703125</AltitudeMeters>
            <DistanceMeters>3139.1495362368</DistanceMeters>
          </Trackpoint>
          <Trackpoint>
            <Time>2019-05-08T06:46:37.000Z</Time>
            <Position>
              <LatitudeDegrees>42.82168912701308727264404296875</LatitudeDegrees>
              <LongitudeDegrees>0.59948620386421680450439453125</LongitudeDegrees>
            </Position>
            <AltitudeMeters>614.4000244140625</AltitudeMeters>
            <DistanceMeters>3149.8854523939</DistanceMeters>
          </Trackpoint>
          <Trackpoint>
            <Time>2019-05-08T06:46:39.000Z</Time>
            <Position>
              <LatitudeDegrees>42.821779064834117889404296875</LatitudeDegrees>
              <LongitudeDegrees>0.59951461851596832275390625</LongitudeDegrees>
            </Position>
            <AltitudeMeters>614.5999755859375</AltitudeMeters>
            <DistanceMeters>3160.1610878418</DistanceMeters>
          </Trackpoint>
          <Trackpoint>
            <Time>2019-05-08T06:46:43.000Z</Time>
            <Position>
              <LatitudeDegrees>42.82194326631724834442138671875</LatitudeDegrees>
              <LongitudeDegrees>0.59956683777272701263427734375</LongitudeDegrees>
            </Position>
            <AltitudeMeters>615.20001220703125</AltitudeMeters>
            <DistanceMeters>3178.9278414627</DistanceMeters>
          </Trackpoint>
          <Trackpoint>
            <Time>2019-05-08T06:46:44.000Z</Time>
            <Position>
              <LatitudeDegrees>42.82198123633861541748046875</LatitudeDegrees>
              <LongitudeDegrees>0.5995798297226428985595703125</LongitudeDegrees>
            </Position>
            <AltitudeMeters>615.4000244140625</AltitudeMeters>
            <DistanceMeters>3183.2845857386</DistanceMeters>
          </Trackpoint>
          <Trackpoint>
            <Time>2019-05-08T06:46:45.000Z</Time>
            <Position>
              <LatitudeDegrees>42.8220196254551410675048828125</LatitudeDegrees>
              <LongitudeDegrees>0.59959181584417819976806640625</LongitudeDegrees>
            </Position>
            <AltitudeMeters>615.79998779296875</AltitudeMeters>
            <DistanceMeters>3187.6671617614</DistanceMeters>
          </Trackpoint>
          <Trackpoint>
            <Time>2019-05-08T06:46:49.000Z</Time>
            <Position>
              <LatitudeDegrees>42.82217410393059253692626953125</LatitudeDegrees>
              <LongitudeDegrees>0.5996428616344928741455078125</LongitudeDegrees>
            </Position>
            <AltitudeMeters>616.79998779296875</AltitudeMeters>
            <DistanceMeters>3205.3584717623</DistanceMeters>
          </Trackpoint>
          <Trackpoint>
            <Time>2019-05-08T06:46:52.000Z</Time>
            <Position>
              <LatitudeDegrees>42.8222836554050445556640625</LatitudeDegrees>
              <LongitudeDegrees>0.599675886332988739013671875</LongitudeDegrees>
            </Position>
            <AltitudeMeters>617.5999755859375</AltitudeMeters>
            <DistanceMeters>3217.846442782</DistanceMeters>
          </Trackpoint>
          <Trackpoint>
            <Time>2019-05-08T06:46:55.000Z</Time>
            <Position>
              <LatitudeDegrees>42.8223877586424350738525390625</LatitudeDegrees>
              <LongitudeDegrees>0.5997075699269771575927734375</LongitudeDegrees>
            </Position>
            <AltitudeMeters>618</AltitudeMeters>
            <DistanceMeters>3229.7183185031</DistanceMeters>
          </Trackpoint>
          <Trackpoint>
            <Time>2019-05-08T06:47:02.000Z</Time>
            <Position>
              <LatitudeDegrees>42.82264399342238903045654296875</LatitudeDegrees>
              <LongitudeDegrees>0.59978141449391841888427734375</LongitudeDegrees>
            </Position>
            <AltitudeMeters>619.20001220703125</AltitudeMeters>
            <DistanceMeters>3258.8678309016</DistanceMeters>
          </Trackpoint>
          <Trackpoint>
            <Time>2019-05-08T06:47:03.000Z</Time>
            <Position>
              <LatitudeDegrees>42.82267802394926548004150390625</LatitudeDegrees>
              <LongitudeDegrees>0.5997923947870731353759765625</LongitudeDegrees>
            </Position>
            <AltitudeMeters>619.20001220703125</AltitudeMeters>
            <DistanceMeters>3262.7604480511</DistanceMeters>
          </Trackpoint>
          <Trackpoint>
            <Time>2019-05-08T06:47:05.000Z</Time>
            <Position>
              <LatitudeDegrees>42.822738625109195709228515625</LatitudeDegrees>
              <LongitudeDegrees>0.5998115055263042449951171875</LongitudeDegrees>
            </Position>
            <AltitudeMeters>619.5999755859375</AltitudeMeters>
            <DistanceMeters>3269.6837164819</DistanceMeters>
          </Trackpoint>
          <Trackpoint>
            <Time>2019-05-08T06:47:08.000Z</Time>
            <Position>
              <LatitudeDegrees>42.8227689675986766815185546875</LatitudeDegrees>
              <LongitudeDegrees>0.599825419485569000244140625</LongitudeDegrees>
            </Position>
            <AltitudeMeters>619.79998779296875</AltitudeMeters>
            <DistanceMeters>3273.246901501</DistanceMeters>
          </Trackpoint>
          <Trackpoint>
            <Time>2019-05-08T06:57:36.000Z</Time>
            <Position>
              <LatitudeDegrees>42.82288723625242710113525390625</LatitudeDegrees>
              <LongitudeDegrees>0.59985081665217876434326171875</LongitudeDegrees>
            </Position>
            <AltitudeMeters>616.20001220703125</AltitudeMeters>
            <DistanceMeters>3286.5730218421</DistanceMeters>
          </Trackpoint>
          <Trackpoint>
            <Time>2019-05-08T06:57:37.000Z</Time>
            <Position>
              <LatitudeDegrees>42.8229193389415740966796875</LatitudeDegrees>
              <LongitudeDegrees>0.5998544208705425262451171875</LongitudeDegrees>
            </Position>
            <AltitudeMeters>616.20001220703125</AltitudeMeters>
            <DistanceMeters>3290.1602016442</DistanceMeters>
          </Trackpoint>
          <Trackpoint>
            <Time>2019-05-08T06:57:41.000Z</Time>
            <Position>
              <LatitudeDegrees>42.82306023873388767242431640625</LatitudeDegrees>
              <LongitudeDegrees>0.59989088214933872222900390625</LongitudeDegrees>
            </Position>
            <AltitudeMeters>616</AltitudeMeters>
            <DistanceMeters>3306.1229926626</DistanceMeters>
          </Trackpoint>
          <Trackpoint>
            <Time>2019-05-08T06:57:42.000Z</Time>
            <Position>
              <LatitudeDegrees>42.82309879548847675323486328125</LatitudeDegrees>
              <LongitudeDegrees>0.5999015271663665771484375</LongitudeDegrees>
            </Position>
            <AltitudeMeters>616.20001220703125</AltitudeMeters>
            <DistanceMeters>3310.5014458473</DistanceMeters>
          </Trackpoint>
          <Trackpoint>
            <Time>2019-05-08T06:57:48.000Z</Time>
            <Position>
              <LatitudeDegrees>42.823364920914173126220703125</LatitudeDegrees>
              <LongitudeDegrees>0.59997537173330783843994140625</LongitudeDegrees>
            </Position>
            <AltitudeMeters>615.79998779296875</AltitudeMeters>
            <DistanceMeters>3340.728904472</DistanceMeters>
          </Trackpoint>
          <Trackpoint>
            <Time>2019-05-08T06:57:49.000Z</Time>
            <Position>
              <LatitudeDegrees>42.82341076992452144622802734375</LatitudeDegrees>
              <LongitudeDegrees>0.59998643584549427032470703125</LongitudeDegrees>
            </Position>
            <AltitudeMeters>616</AltitudeMeters>
            <DistanceMeters>3345.9111286416</DistanceMeters>
          </Trackpoint>
          <Trackpoint>
            <Time>2019-05-08T06:57:56.000Z</Time>
            <Position>
              <LatitudeDegrees>42.8237419389188289642333984375</LatitudeDegrees>
              <LongitudeDegrees>0.60007746331393718719482421875</LongitudeDegrees>
            </Position>
            <AltitudeMeters>615.4000244140625</AltitudeMeters>
            <DistanceMeters>3383.5124202283</DistanceMeters>
          </Trackpoint>
          <Trackpoint>
            <Time>2019-05-08T06:57:57.000Z</Time>
            <Position>
              <LatitudeDegrees>42.823792397975921630859375</LatitudeDegrees>
              <LongitudeDegrees>0.6000904552638530731201171875</LongitudeDegrees>
            </Position>
            <AltitudeMeters>615.20001220703125</AltitudeMeters>
            <DistanceMeters>3389.2282593245</DistanceMeters>
          </Trackpoint>
          <Trackpoint>
            <Time>2019-05-08T06:58:00.000Z</Time>
            <Position>
              <LatitudeDegrees>42.8239581920206546783447265625</LatitudeDegrees>
              <LongitudeDegrees>0.60012373141944408416748046875</LongitudeDegrees>
            </Position>
            <AltitudeMeters>615</AltitudeMeters>
            <DistanceMeters>3407.8803840066</DistanceMeters>
          </Trackpoint>
          <Trackpoint>
            <Time>2019-05-08T06:58:02.000Z</Time>
            <Position>
              <LatitudeDegrees>42.8240782208740711212158203125</LatitudeDegrees>
              <LongitudeDegrees>0.6001427583396434783935546875</LongitudeDegrees>
            </Position>
            <AltitudeMeters>614.5999755859375</AltitudeMeters>
            <DistanceMeters>3421.3299375801</DistanceMeters>
          </Trackpoint>
          <Trackpoint>
            <Time>2019-05-08T06:58:04.000Z</Time>
            <Position>
              <LatitudeDegrees>42.8242022730410099029541015625</LatitudeDegrees>
              <LongitudeDegrees>0.600179471075534820556640625</LongitudeDegrees>
            </Position>
            <AltitudeMeters>614.4000244140625</AltitudeMeters>
            <DistanceMeters>3435.4589113555</DistanceMeters>
          </Trackpoint>
          <Trackpoint>
            <Time>2019-05-08T06:58:07.000Z</Time>
            <Position>
              <LatitudeDegrees>42.8243990801274776458740234375</LatitudeDegrees>
              <LongitudeDegrees>0.6002460233867168426513671875</LongitudeDegrees>
            </Position>
            <AltitudeMeters>613.20001220703125</AltitudeMeters>
            <DistanceMeters>3458.0277060043</DistanceMeters>
          </Trackpoint>
          <Trackpoint>
            <Time>2019-05-08T06:58:10.000Z</Time>
            <Position>
              <LatitudeDegrees>42.824616171419620513916015625</LatitudeDegrees>
              <LongitudeDegrees>0.600302852690219879150390625</LongitudeDegrees>
            </Position>
            <AltitudeMeters>612</AltitudeMeters>
            <DistanceMeters>3482.6317354436</DistanceMeters>
          </Trackpoint>
          <Trackpoint>
            <Time>2019-05-08T06:58:12.000Z</Time>
            <Position>
              <LatitudeDegrees>42.82476025633513927459716796875</LatitudeDegrees>
              <LongitudeDegrees>0.60033696703612804412841796875</LongitudeDegrees>
            </Position>
            <AltitudeMeters>611.5999755859375</AltitudeMeters>
            <DistanceMeters>3498.9087880904</DistanceMeters>
          </Trackpoint>
          <Trackpoint>
            <Time>2019-05-08T06:58:13.000Z</Time>
            <Position>
              <LatitudeDegrees>42.82483234070241451263427734375</LatitudeDegrees>
              <LongitudeDegrees>0.60034870170056819915771484375</LongitudeDegrees>
            </Position>
            <AltitudeMeters>611.20001220703125</AltitudeMeters>
            <DistanceMeters>3506.9894119998</DistanceMeters>
          </Trackpoint>
          <Trackpoint>
            <Time>2019-05-08T06:58:16.000Z</Time>
            <Position>
              <LatitudeDegrees>42.82504255883395671844482421875</LatitudeDegrees>
              <LongitudeDegrees>0.6003844924271106719970703125</LongitudeDegrees>
            </Position>
            <AltitudeMeters>610</AltitudeMeters>
            <DistanceMeters>3530.5686784569</DistanceMeters>
          </Trackpoint>
          <Trackpoint>
            <Time>2019-05-08T06:58:18.000Z</Time>
            <Position>
              <LatitudeDegrees>42.825176417827606201171875</LatitudeDegrees>
              <LongitudeDegrees>0.6004029326140880584716796875</LongitudeDegrees>
            </Position>
            <AltitudeMeters>609.5999755859375</AltitudeMeters>
            <DistanceMeters>3545.5431520122</DistanceMeters>
          </Trackpoint>
          <Trackpoint>
            <Time>2019-05-08T06:58:20.000Z</Time>
            <Position>
              <LatitudeDegrees>42.82530658878386020660400390625</LatitudeDegrees>
              <LongitudeDegrees>0.600405447185039520263671875</LongitudeDegrees>
            </Position>
            <AltitudeMeters>608.20001220703125</AltitudeMeters>
            <DistanceMeters>3560.0330901555</DistanceMeters>
          </Trackpoint>
          <Trackpoint>
            <Time>2019-05-08T06:58:21.000Z</Time>
            <Position>
              <LatitudeDegrees>42.8253710456192493438720703125</LatitudeDegrees>
              <LongitudeDegrees>0.6003942154347896575927734375</LongitudeDegrees>
            </Position>
            <AltitudeMeters>607.5999755859375</AltitudeMeters>
            <DistanceMeters>3567.2657406268</DistanceMeters>
          </Trackpoint>
          <Trackpoint>
            <Time>2019-05-08T06:58:23.000Z</Time>
            <Position>
              <LatitudeDegrees>42.8254974447190761566162109375</LatitudeDegrees>
              <LongitudeDegrees>0.60034652240574359893798828125</LongitudeDegrees>
            </Position>
            <AltitudeMeters>606.5999755859375</AltitudeMeters>
            <DistanceMeters>3581.8630936008</DistanceMeters>
          </Trackpoint>
          <Trackpoint>
            <Time>2019-05-08T06:58:25.000Z</Time>
            <Position>
              <LatitudeDegrees>42.825609259307384490966796875</LatitudeDegrees>
              <LongitudeDegrees>0.60026588849723339080810546875</LongitudeDegrees>
            </Position>
            <AltitudeMeters>606</AltitudeMeters>
            <DistanceMeters>3595.9418072475</DistanceMeters>
          </Trackpoint>
          <Trackpoint>
            <Time>2019-05-08T06:58:28.000Z</Time>
            <Position>
              <LatitudeDegrees>42.8257576189935207366943359375</LatitudeDegrees>
              <LongitudeDegrees>0.60013697482645511627197265625</LongitudeDegrees>
            </Position>
            <AltitudeMeters>604.79998779296875</AltitudeMeters>
            <DistanceMeters>3615.522845162</DistanceMeters>
          </Trackpoint>
          <Trackpoint>
            <Time>2019-05-08T06:58:30.000Z</Time>
            <Position>
              <LatitudeDegrees>42.82591209746897220611572265625</LatitudeDegrees>
              <LongitudeDegrees>0.6000770442187786102294921875</LongitudeDegrees>
            </Position>
            <AltitudeMeters>604.5999755859375</AltitudeMeters>
            <DistanceMeters>3633.3989841523</DistanceMeters>
          </Trackpoint>
          <Trackpoint>
            <Time>2019-05-08T06:58:33.000Z</Time>
            <Position>
              <LatitudeDegrees>42.82600396312773227691650390625</LatitudeDegrees>
              <LongitudeDegrees>0.60008517466485500335693359375</LongitudeDegrees>
            </Position>
            <AltitudeMeters>604.4000244140625</AltitudeMeters>
            <DistanceMeters>3643.6460192791</DistanceMeters>
          </Trackpoint>
          <Trackpoint>
            <Time>2019-05-08T06:58:35.000Z</Time>
            <Position>
              <LatitudeDegrees>42.82608761452138423919677734375</LatitudeDegrees>
              <LongitudeDegrees>0.60012423433363437652587890625</LongitudeDegrees>
            </Position>
            <AltitudeMeters>604.4000244140625</AltitudeMeters>
            <DistanceMeters>3653.4875943532</DistanceMeters>
          </Trackpoint>
          <Trackpoint>
            <Time>2019-05-08T06:58:47.000Z</Time>
            <Position>
              <LatitudeDegrees>42.82657393254339694976806640625</LatitudeDegrees>
              <LongitudeDegrees>0.600394718348979949951171875</LongitudeDegrees>
            </Position>
            <AltitudeMeters>604.79998779296875</AltitudeMeters>
            <DistanceMeters>3711.945940633</DistanceMeters>
          </Trackpoint>
          <Trackpoint>
            <Time>2019-05-08T06:58:48.000Z</Time>
            <Position>
              <LatitudeDegrees>42.82661718316376209259033203125</LatitudeDegrees>
              <LongitudeDegrees>0.6004165112972259521484375</LongitudeDegrees>
            </Position>
            <AltitudeMeters>604.79998779296875</AltitudeMeters>
            <DistanceMeters>3717.0782630106</DistanceMeters>
          </Trackpoint>
          <Trackpoint>
            <Time>2019-05-08T06:58:55.000Z</Time>
            <Position>
              <LatitudeDegrees>42.826921530067920684814453125</LatitudeDegrees>
              <LongitudeDegrees>0.60056612826883792877197265625</LongitudeDegrees>
            </Position>
            <AltitudeMeters>604.5999755859375</AltitudeMeters>
            <DistanceMeters>3753.087244345</DistanceMeters>
          </Trackpoint>
          <Trackpoint>
            <Time>2019-05-08T06:58:57.000Z</Time>
            <Position>
              <LatitudeDegrees>42.8270095400512218475341796875</LatitudeDegrees>
              <LongitudeDegrees>0.600602589547634124755859375</LongitudeDegrees>
            </Position>
            <AltitudeMeters>604.4000244140625</AltitudeMeters>
            <DistanceMeters>3763.3254632996</DistanceMeters>
          </Trackpoint>
          <Trackpoint>
            <Time>2019-05-08T06:59:02.000Z</Time>
            <Position>
              <LatitudeDegrees>42.82720659859478473663330078125</LatitudeDegrees>
              <LongitudeDegrees>0.600699819624423980712890625</LongitudeDegrees>
            </Position>
            <AltitudeMeters>604.20001220703125</AltitudeMeters>
            <DistanceMeters>3786.6504086515</DistanceMeters>
          </Trackpoint>
          <Trackpoint>
            <Time>2019-05-08T06:59:05.000Z</Time>
            <Position>
              <LatitudeDegrees>42.82732360996305942535400390625</LatitudeDegrees>
              <LongitudeDegrees>0.6007750891149044036865234375</LongitudeDegrees>
            </Position>
            <AltitudeMeters>604.20001220703125</AltitudeMeters>
            <DistanceMeters>3801.0506404365</DistanceMeters>
          </Trackpoint>
          <Trackpoint>
            <Time>2019-05-08T06:59:11.000Z</Time>
            <Position>
              <LatitudeDegrees>42.82760591246187686920166015625</LatitudeDegrees>
              <LongitudeDegrees>0.6008988060057163238525390625</LongitudeDegrees>
            </Position>
            <AltitudeMeters>604.20001220703125</AltitudeMeters>
            <DistanceMeters>3834.0546099118</DistanceMeters>
          </Trackpoint>
          <Trackpoint>
            <Time>2019-05-08T06:59:12.000Z</Time>
            <Position>
              <LatitudeDegrees>42.82760591246187686920166015625</LatitudeDegrees>
              <LongitudeDegrees>0.6008988060057163238525390625</LongitudeDegrees>
            </Position>
            <AltitudeMeters>604.20001220703125</AltitudeMeters>
            <DistanceMeters>3834.1496366262</DistanceMeters>
          </Trackpoint>
          <Trackpoint>
            <Time>2019-05-08T06:59:18.000Z</Time>
            <Position>
              <LatitudeDegrees>42.8278604708611965179443359375</LatitudeDegrees>
              <LongitudeDegrees>0.600990839302539825439453125</LongitudeDegrees>
            </Position>
            <AltitudeMeters>604.20001220703125</AltitudeMeters>
            <DistanceMeters>3863.4616429289</DistanceMeters>
          </Trackpoint>
          <Trackpoint>
            <Time>2019-05-08T06:59:20.000Z</Time>
            <Position>
              <LatitudeDegrees>42.82795476727187633514404296875</LatitudeDegrees>
              <LongitudeDegrees>0.601026713848114013671875</LongitudeDegrees>
            </Position>
            <AltitudeMeters>604.20001220703125</AltitudeMeters>
            <DistanceMeters>3874.3578553482</DistanceMeters>
          </Trackpoint>
          <Trackpoint>
            <Time>2019-05-08T06:59:24.000Z</Time>
            <Position>
              <LatitudeDegrees>42.8282032907009124755859375</LatitudeDegrees>
              <LongitudeDegrees>0.601104162633419036865234375</LongitudeDegrees>
            </Position>
            <AltitudeMeters>604.20001220703125</AltitudeMeters>
            <DistanceMeters>3902.7322021352</DistanceMeters>
          </Trackpoint>
          <Trackpoint>
            <Time>2019-05-08T06:59:28.000Z</Time>
            <Position>
              <LatitudeDegrees>42.82834569923579692840576171875</LatitudeDegrees>
              <LongitudeDegrees>0.60114515013992786407470703125</LongitudeDegrees>
            </Position>
            <AltitudeMeters>604.20001220703125</AltitudeMeters>
            <DistanceMeters>3918.9319577387</DistanceMeters>
          </Trackpoint>
          <Trackpoint>
            <Time>2019-05-08T06:59:35.000Z</Time>
            <Position>
              <LatitudeDegrees>42.82864308916032314300537109375</LatitudeDegrees>
              <LongitudeDegrees>0.60119527392089366912841796875</LongitudeDegrees>
            </Position>
            <AltitudeMeters>604</AltitudeMeters>
            <DistanceMeters>3952.2840331865</DistanceMeters>
          </Trackpoint>
          <Trackpoint>
            <Time>2019-05-08T06:59:41.000Z</Time>
            <Position>
              <LatitudeDegrees>42.82886822707951068878173828125</LatitudeDegrees>
              <LongitudeDegrees>0.6013168953359127044677734375</LongitudeDegrees>
            </Position>
            <AltitudeMeters>604.20001220703125</AltitudeMeters>
            <DistanceMeters>3979.2371341197</DistanceMeters>
          </Trackpoint>
          <Trackpoint>
            <Time>2019-05-08T06:59:44.000Z</Time>
            <Position>
              <LatitudeDegrees>42.8289722464978694915771484375</LatitudeDegrees>
              <LongitudeDegrees>0.60135402716696262359619140625</LongitudeDegrees>
            </Position>
            <AltitudeMeters>604.4000244140625</AltitudeMeters>
            <DistanceMeters>3991.2052197041</DistanceMeters>
          </Trackpoint>
          <Trackpoint>
            <Time>2019-05-08T06:59:46.000Z</Time>
            <Position>
              <LatitudeDegrees>42.82904525287449359893798828125</LatitudeDegrees>
              <LongitudeDegrees>0.60136324726045131683349609375</LongitudeDegrees>
            </Position>
            <AltitudeMeters>604.4000244140625</AltitudeMeters>
            <DistanceMeters>3999.3664600418</DistanceMeters>
          </Trackpoint>
          <Trackpoint>
            <Time>2019-05-08T06:59:48.000Z</Time>
            <Position>
              <LatitudeDegrees>42.8290503658354282379150390625</LatitudeDegrees>
              <LongitudeDegrees>0.60138772241771221160888671875</LongitudeDegrees>
            </Position>
            <AltitudeMeters>604.4000244140625</AltitudeMeters>
            <DistanceMeters>4001.4440491591</DistanceMeters>
          </Trackpoint>
          <Trackpoint>
            <Time>2019-05-08T06:59:49.000Z</Time>
            <Position>
              <LatitudeDegrees>42.82905078493058681488037109375</LatitudeDegrees>
              <LongitudeDegrees>0.60141622088849544525146484375</LongitudeDegrees>
            </Position>
            <AltitudeMeters>604.5999755859375</AltitudeMeters>
            <DistanceMeters>4003.7717187805</DistanceMeters>
          </Trackpoint>
          <Trackpoint>
            <Time>2019-05-08T06:59:50.000Z</Time>
            <Position>
              <LatitudeDegrees>42.8290406428277492523193359375</LatitudeDegrees>
              <LongitudeDegrees>0.60144136659801006317138671875</LongitudeDegrees>
            </Position>
            <AltitudeMeters>604.4000244140625</AltitudeMeters>
            <DistanceMeters>4006.1129271013</DistanceMeters>
          </Trackpoint>
          <Trackpoint>
            <Time>2019-05-08T06:59:51.000Z</Time>
            <Position>
              <LatitudeDegrees>42.82902010716497898101806640625</LatitudeDegrees>
              <LongitudeDegrees>0.6014513410627841949462890625</LongitudeDegrees>
            </Position>
            <AltitudeMeters>604.79998779296875</AltitudeMeters>
            <DistanceMeters>4008.5393668474</DistanceMeters>
          </Trackpoint>
          <Trackpoint>
            <Time>2019-05-08T06:59:54.000Z</Time>
            <Position>
              <LatitudeDegrees>42.8289353661239147186279296875</LatitudeDegrees>
              <LongitudeDegrees>0.60135729610919952392578125</LongitudeDegrees>
            </Position>
            <AltitudeMeters>605.20001220703125</AltitudeMeters>
            <DistanceMeters>4020.7005588942</DistanceMeters>
          </Trackpoint>
          <Trackpoint>
            <Time>2019-05-08T06:59:56.000Z</Time>
            <Position>
              <LatitudeDegrees>42.8288502059876918792724609375</LatitudeDegrees>
              <LongitudeDegrees>0.60127942822873592376708984375</LongitudeDegrees>
            </Position>
            <AltitudeMeters>605.20001220703125</AltitudeMeters>
            <DistanceMeters>4032.1124720763</DistanceMeters>
          </Trackpoint>
          <Trackpoint>
            <Time>2019-05-08T06:59:58.000Z</Time>
            <Position>
              <LatitudeDegrees>42.82869438640773296356201171875</LatitudeDegrees>
              <LongitudeDegrees>0.60121974907815456390380859375</LongitudeDegrees>
            </Position>
            <AltitudeMeters>605.20001220703125</AltitudeMeters>
            <DistanceMeters>4050.1264895929</DistanceMeters>
          </Trackpoint>
          <Trackpoint>
            <Time>2019-05-08T07:00:00.000Z</Time>
            <Position>
              <LatitudeDegrees>42.828654237091541290283203125</LatitudeDegrees>
              <LongitudeDegrees>0.601200722157955169677734375</LongitudeDegrees>
            </Position>
            <AltitudeMeters>605.20001220703125</AltitudeMeters>
            <DistanceMeters>4054.8578276177</DistanceMeters>
          </Trackpoint>
          <Trackpoint>
            <Time>2019-05-08T07:00:01.000Z</Time>
            <Position>
              <LatitudeDegrees>42.828630767762660980224609375</LatitudeDegrees>
              <LongitudeDegrees>0.60115973465144634246826171875</LongitudeDegrees>
            </Position>
            <AltitudeMeters>605.20001220703125</AltitudeMeters>
            <DistanceMeters>4059.103299627</DistanceMeters>
          </Trackpoint>
          <Trackpoint>
            <Time>2019-05-08T07:00:02.000Z</Time>
            <Position>
              <LatitudeDegrees>42.828634120523929595947265625</LatitudeDegrees>
              <LongitudeDegrees>0.6011143885552883148193359375</LongitudeDegrees>
            </Position>
            <AltitudeMeters>605.20001220703125</AltitudeMeters>
            <DistanceMeters>4062.8239322599</DistanceMeters>
          </Trackpoint>
          <Trackpoint>
            <Time>2019-05-08T07:00:03.000Z</Time>
            <Position>
              <LatitudeDegrees>42.82865499146282672882080078125</LatitudeDegrees>
              <LongitudeDegrees>0.60107490979135036468505859375</LongitudeDegrees>
            </Position>
            <AltitudeMeters>605.20001220703125</AltitudeMeters>
            <DistanceMeters>4066.7957761072</DistanceMeters>
          </Trackpoint>
          <Trackpoint>
            <Time>2019-05-08T07:00:04.000Z</Time>
            <Position>
              <LatitudeDegrees>42.8286852501332759857177734375</LatitudeDegrees>
              <LongitudeDegrees>0.6010433100163936614990234375</LongitudeDegrees>
            </Position>
            <AltitudeMeters>605.20001220703125</AltitudeMeters>
            <DistanceMeters>4071.0369920032</DistanceMeters>
          </Trackpoint>
          <Trackpoint>
            <Time>2019-05-08T07:00:07.000Z</Time>
            <Position>
              <LatitudeDegrees>42.8287968970835208892822265625</LatitudeDegrees>
              <LongitudeDegrees>0.60095068998634815216064453125</LongitudeDegrees>
            </Position>
            <AltitudeMeters>604.5999755859375</AltitudeMeters>
            <DistanceMeters>4085.5825992811</DistanceMeters>
          </Trackpoint>
          <Trackpoint>
            <Time>2019-05-08T07:00:10.000Z</Time>
            <Position>
              <LatitudeDegrees>42.8289018385112285614013671875</LatitudeDegrees>
              <LongitudeDegrees>0.60083828866481781005859375</LongitudeDegrees>
            </Position>
            <AltitudeMeters>604.4000244140625</AltitudeMeters>
            <DistanceMeters>4100.4353689731</DistanceMeters>
          </Trackpoint>
          <Trackpoint>
            <Time>2019-05-08T07:00:14.000Z</Time>
            <Position>
              <LatitudeDegrees>42.8290507011115550994873046875</LatitudeDegrees>
              <LongitudeDegrees>0.6006781943142414093017578125</LongitudeDegrees>
            </Position>
            <AltitudeMeters>603.79998779296875</AltitudeMeters>
            <DistanceMeters>4121.5375053503</DistanceMeters>
          </Trackpoint>
          <Trackpoint>
            <Time>2019-05-08T07:00:15.000Z</Time>
            <Position>
              <LatitudeDegrees>42.8290912695229053497314453125</LatitudeDegrees>
              <LongitudeDegrees>0.60064206831157207489013671875</LongitudeDegrees>
            </Position>
            <AltitudeMeters>603.79998779296875</AltitudeMeters>
            <DistanceMeters>4126.9314747887</DistanceMeters>
          </Trackpoint>
          <Trackpoint>
            <Time>2019-05-08T07:00:18.000Z</Time>
            <Position>
              <LatitudeDegrees>42.82920082099735736846923828125</LatitudeDegrees>
              <LongitudeDegrees>0.60053930617868900299072265625</LongitudeDegrees>
            </Position>
            <AltitudeMeters>603.79998779296875</AltitudeMeters>
            <DistanceMeters>4141.7312563488</DistanceMeters>
          </Trackpoint>
          <Trackpoint>
            <Time>2019-05-08T07:00:24.000Z</Time>
            <Position>
              <LatitudeDegrees>42.82944381237030029296875</LatitudeDegrees>
              <LongitudeDegrees>0.60029941610991954803466796875</LongitudeDegrees>
            </Position>
            <AltitudeMeters>604</AltitudeMeters>
            <DistanceMeters>4175.1212152897</DistanceMeters>
          </Trackpoint>
          <Trackpoint>
            <Time>2019-05-08T07:00:33.000Z</Time>
            <Position>
              <LatitudeDegrees>42.8297480754554271697998046875</LatitudeDegrees>
              <LongitudeDegrees>0.5999819934368133544921875</LongitudeDegrees>
            </Position>
            <AltitudeMeters>604.5999755859375</AltitudeMeters>
            <DistanceMeters>4217.761217303</DistanceMeters>
          </Trackpoint>
          <Trackpoint>
            <Time>2019-05-08T07:00:37.000Z</Time>
            <Position>
              <LatitudeDegrees>42.8299636580049991607666015625</LatitudeDegrees>
              <LongitudeDegrees>0.59979080222547054290771484375</LongitudeDegrees>
            </Position>
            <AltitudeMeters>604.5999755859375</AltitudeMeters>
            <DistanceMeters>4246.3846139526</DistanceMeters>
          </Trackpoint>
          <Trackpoint>
            <Time>2019-05-08T07:00:39.000Z</Time>
            <Position>
              <LatitudeDegrees>42.83001688309013843536376953125</LatitudeDegrees>
              <LongitudeDegrees>0.59976213611662387847900390625</LongitudeDegrees>
            </Position>
            <AltitudeMeters>604.4000244140625</AltitudeMeters>
            <DistanceMeters>4252.7535309238</DistanceMeters>
          </Trackpoint>
          <Trackpoint>
            <Time>2019-05-08T07:00:40.000Z</Time>
            <Position>
              <LatitudeDegrees>42.830073796212673187255859375</LatitudeDegrees>
              <LongitudeDegrees>0.5997347272932529449462890625</LongitudeDegrees>
            </Position>
            <AltitudeMeters>604.4000244140625</AltitudeMeters>
            <DistanceMeters>4259.4729343363</DistanceMeters>
          </Trackpoint>
          <Trackpoint>
            <Time>2019-05-08T07:00:43.000Z</Time>
            <Position>
              <LatitudeDegrees>42.8302444517612457275390625</LatitudeDegrees>
              <LongitudeDegrees>0.5996453762054443359375</LongitudeDegrees>
            </Position>
            <AltitudeMeters>604.20001220703125</AltitudeMeters>
            <DistanceMeters>4279.8195275296</DistanceMeters>
          </Trackpoint>
          <Trackpoint>
            <Time>2019-05-08T07:00:46.000Z</Time>
            <Position>
              <LatitudeDegrees>42.83041871152818202972412109375</LatitudeDegrees>
              <LongitudeDegrees>0.59954739175736904144287109375</LongitudeDegrees>
            </Position>
            <AltitudeMeters>603.4000244140625</AltitudeMeters>
            <DistanceMeters>4300.7993515543</DistanceMeters>
          </Trackpoint>
          <Trackpoint>
            <Time>2019-05-08T07:00:47.000Z</Time>
            <Position>
              <LatitudeDegrees>42.8304759599268436431884765625</LatitudeDegrees>
              <LongitudeDegrees>0.59951319359242916107177734375</LongitudeDegrees>
            </Position>
            <AltitudeMeters>603.20001220703125</AltitudeMeters>
            <DistanceMeters>4307.7564493501</DistanceMeters>
          </Trackpoint>
          <Trackpoint>
            <Time>2019-05-08T07:00:52.000Z</Time>
            <Position>
              <LatitudeDegrees>42.8307518921792507171630859375</LatitudeDegrees>
              <LongitudeDegrees>0.59933491051197052001953125</LongitudeDegrees>
            </Position>
            <AltitudeMeters>601.79998779296875</AltitudeMeters>
            <DistanceMeters>4341.7414886687</DistanceMeters>
          </Trackpoint>
          <Trackpoint>
            <Time>2019-05-08T07:00:55.000Z</Time>
            <Position>
              <LatitudeDegrees>42.83092145808041095733642578125</LatitudeDegrees>
              <LongitudeDegrees>0.5992921628057956695556640625</LongitudeDegrees>
            </Position>
            <AltitudeMeters>601.79998779296875</AltitudeMeters>
            <DistanceMeters>4360.9340621882</DistanceMeters>
          </Trackpoint>
          <Trackpoint>
            <Time>2019-05-08T07:00:56.000Z</Time>
            <Position>
              <LatitudeDegrees>42.8309761919081211090087890625</LatitudeDegrees>
              <LongitudeDegrees>0.5992918275296688079833984375</LongitudeDegrees>
            </Position>
            <AltitudeMeters>601.5999755859375</AltitudeMeters>
            <DistanceMeters>4367.0261565887</DistanceMeters>
          </Trackpoint>
          <Trackpoint>
            <Time>2019-05-08T07:01:03.000Z</Time>
            <Position>
              <LatitudeDegrees>42.83135421574115753173828125</LatitudeDegrees>
              <LongitudeDegrees>0.59934589080512523651123046875</LongitudeDegrees>
            </Position>
            <AltitudeMeters>601.4000244140625</AltitudeMeters>
            <DistanceMeters>4409.3318321096</DistanceMeters>
          </Trackpoint>
          <Trackpoint>
            <Time>2019-05-08T07:01:10.000Z</Time>
            <Position>
              <LatitudeDegrees>42.83165671862661838531494140625</LatitudeDegrees>
              <LongitudeDegrees>0.5994095094501972198486328125</LongitudeDegrees>
            </Position>
            <AltitudeMeters>601.5999755859375</AltitudeMeters>
            <DistanceMeters>4443.3991411446</DistanceMeters>
          </Trackpoint>
          <Trackpoint>
            <Time>2019-05-08T07:01:13.000Z</Time>
            <Position>
              <LatitudeDegrees>42.831665687263011932373046875</LatitudeDegrees>
              <LongitudeDegrees>0.599417388439178466796875</LongitudeDegrees>
            </Position>
            <AltitudeMeters>601.5999755859375</AltitudeMeters>
            <DistanceMeters>4444.5860244266</DistanceMeters>
          </Trackpoint>
          <Trackpoint>
            <Time>2019-05-08T07:01:59.000Z</Time>
            <Position>
              <LatitudeDegrees>42.83172142691910266876220703125</LatitudeDegrees>
              <LongitudeDegrees>0.5994185619056224822998046875</LongitudeDegrees>
            </Position>
            <AltitudeMeters>603</AltitudeMeters>
            <DistanceMeters>4450.7912033892</DistanceMeters>
          </Trackpoint>
          <Trackpoint>
            <Time>2019-05-08T07:02:02.000Z</Time>
            <Position>
              <LatitudeDegrees>42.8317929245531558990478515625</LatitudeDegrees>
              <LongitudeDegrees>0.59941914863884449005126953125</LongitudeDegrees>
            </Position>
            <AltitudeMeters>603</AltitudeMeters>
            <DistanceMeters>4458.7485205266</DistanceMeters>
          </Trackpoint>
          <Trackpoint>
            <Time>2019-05-08T07:02:05.000Z</Time>
            <Position>
              <LatitudeDegrees>42.83187783323228359222412109375</LatitudeDegrees>
              <LongitudeDegrees>0.5994316376745700836181640625</LongitudeDegrees>
            </Position>
            <AltitudeMeters>603</AltitudeMeters>
            <DistanceMeters>4468.2535673345</DistanceMeters>
          </Trackpoint>
          <Trackpoint>
            <Time>2019-05-08T07:02:11.000Z</Time>
            <Position>
              <LatitudeDegrees>42.83211068250238895416259765625</LatitudeDegrees>
              <LongitudeDegrees>0.5994269438087940216064453125</LongitudeDegrees>
            </Position>
            <AltitudeMeters>603</AltitudeMeters>
            <DistanceMeters>4494.1728766849</DistanceMeters>
          </Trackpoint>
          <Trackpoint>
            <Time>2019-05-08T07:02:12.000Z</Time>
            <Position>
              <LatitudeDegrees>42.83215745352208614349365234375</LatitudeDegrees>
              <LongitudeDegrees>0.59943038038909435272216796875</LongitudeDegrees>
            </Position>
            <AltitudeMeters>603</AltitudeMeters>
            <DistanceMeters>4499.3863716831</DistanceMeters>
          </Trackpoint>
          <Trackpoint>
            <Time>2019-05-08T07:02:16.000Z</Time>
            <Position>
              <LatitudeDegrees>42.8323511593043804168701171875</LatitudeDegrees>
              <LongitudeDegrees>0.59946206398308277130126953125</LongitudeDegrees>
            </Position>
            <AltitudeMeters>603</AltitudeMeters>
            <DistanceMeters>4521.1007556624</DistanceMeters>
          </Trackpoint>
          <Trackpoint>
            <Time>2019-05-08T07:02:20.000Z</Time>
            <Position>
              <LatitudeDegrees>42.83254033885896205902099609375</LatitudeDegrees>
              <LongitudeDegrees>0.59949005953967571258544921875</LongitudeDegrees>
            </Position>
            <AltitudeMeters>603</AltitudeMeters>
            <DistanceMeters>4542.2804175443</DistanceMeters>
          </Trackpoint>
          <Trackpoint>
            <Time>2019-05-08T07:02:21.000Z</Time>
            <Position>
              <LatitudeDegrees>42.83258660696446895599365234375</LatitudeDegrees>
              <LongitudeDegrees>0.5994923226535320281982421875</LongitudeDegrees>
            </Position>
            <AltitudeMeters>602.79998779296875</AltitudeMeters>
            <DistanceMeters>4547.4329338951</DistanceMeters>
          </Trackpoint>
          <Trackpoint>
            <Time>2019-05-08T07:02:22.000Z</Time>
            <Position>
              <LatitudeDegrees>42.83262885175645351409912109375</LatitudeDegrees>
              <LongitudeDegrees>0.599498860538005828857421875</LongitudeDegrees>
            </Position>
            <AltitudeMeters>603</AltitudeMeters>
            <DistanceMeters>4552.167133905</DistanceMeters>
          </Trackpoint>
          <Trackpoint>
            <Time>2019-05-08T07:02:23.000Z</Time>
            <Position>
              <LatitudeDegrees>42.83266942016780376434326171875</LatitudeDegrees>
              <LongitudeDegrees>0.599508918821811676025390625</LongitudeDegrees>
            </Position>
            <AltitudeMeters>602.79998779296875</AltitudeMeters>
            <DistanceMeters>4556.7570324162</DistanceMeters>
          </Trackpoint>
          <Trackpoint>
            <Time>2019-05-08T07:02:26.000Z</Time>
            <Position>
              <LatitudeDegrees>42.8327920474112033843994140625</LatitudeDegrees>
              <LongitudeDegrees>0.599539764225482940673828125</LongitudeDegrees>
            </Position>
            <AltitudeMeters>603</AltitudeMeters>
            <DistanceMeters>4570.6361386808</DistanceMeters>
          </Trackpoint>
          <Trackpoint>
            <Time>2019-05-08T07:02:30.000Z</Time>
            <Position>
              <LatitudeDegrees>42.8329508006572723388671875</LatitudeDegrees>
              <LongitudeDegrees>0.59957538731396198272705078125</LongitudeDegrees>
            </Position>
            <AltitudeMeters>603.20001220703125</AltitudeMeters>
            <DistanceMeters>4588.5430651207</DistanceMeters>
          </Trackpoint>
          <Trackpoint>
            <Time>2019-05-08T07:02:31.000Z</Time>
            <Position>
              <LatitudeDegrees>42.83299111761152744293212890625</LatitudeDegrees>
              <LongitudeDegrees>0.59958569705486297607421875</LongitudeDegrees>
            </Position>
            <AltitudeMeters>603.4000244140625</AltitudeMeters>
            <DistanceMeters>4593.1083051399</DistanceMeters>
          </Trackpoint>
          <Trackpoint>
            <Time>2019-05-08T07:02:37.000Z</Time>
            <Position>
              <LatitudeDegrees>42.83323972485959529876708984375</LatitudeDegrees>
              <LongitudeDegrees>0.59969206340610980987548828125</LongitudeDegrees>
            </Position>
            <AltitudeMeters>604</AltitudeMeters>
            <DistanceMeters>4622.108739614</DistanceMeters>
          </Trackpoint>
          <Trackpoint>
            <Time>2019-05-08T07:02:43.000Z</Time>
            <Position>
              <LatitudeDegrees>42.83350928686559200286865234375</LatitudeDegrees>
              <LongitudeDegrees>0.59979113750159740447998046875</LongitudeDegrees>
            </Position>
            <AltitudeMeters>603.79998779296875</AltitudeMeters>
            <DistanceMeters>4653.1821846101</DistanceMeters>
          </Trackpoint>
          <Trackpoint>
            <Time>2019-05-08T07:02:46.000Z</Time>
            <Position>
              <LatitudeDegrees>42.83364155329763889312744140625</LatitudeDegrees>
              <LongitudeDegrees>0.5998413451015949249267578125</LongitudeDegrees>
            </Position>
            <AltitudeMeters>604</AltitudeMeters>
            <DistanceMeters>4668.4634730649</DistanceMeters>
          </Trackpoint>
          <Trackpoint>
            <Time>2019-05-08T07:02:52.000Z</Time>
            <Position>
              <LatitudeDegrees>42.83391932956874370574951171875</LatitudeDegrees>
              <LongitudeDegrees>0.59990865178406238555908203125</LongitudeDegrees>
            </Position>
            <AltitudeMeters>604</AltitudeMeters>
            <DistanceMeters>4699.8645903575</DistanceMeters>
          </Trackpoint>
          <Trackpoint>
            <Time>2019-05-08T07:03:00.000Z</Time>
            <Position>
              <LatitudeDegrees>42.83432333730161190032958984375</LatitudeDegrees>
              <LongitudeDegrees>0.60002532787621021270751953125</LongitudeDegrees>
            </Position>
            <AltitudeMeters>603.5999755859375</AltitudeMeters>
            <DistanceMeters>4745.8287478617</DistanceMeters>
          </Trackpoint>
          <Trackpoint>
            <Time>2019-05-08T07:03:07.000Z</Time>
            <Position>
              <LatitudeDegrees>42.834705971181392669677734375</LatitudeDegrees>
              <LongitudeDegrees>0.6001001782715320587158203125</LongitudeDegrees>
            </Position>
            <AltitudeMeters>603</AltitudeMeters>
            <DistanceMeters>4788.8526634215</DistanceMeters>
          </Trackpoint>
          <Trackpoint>
            <Time>2019-05-08T07:03:10.000Z</Time>
            <Position>
              <LatitudeDegrees>42.83485726453363895416259765625</LatitudeDegrees>
              <LongitudeDegrees>0.60009037144482135772705078125</LongitudeDegrees>
            </Position>
            <AltitudeMeters>603.20001220703125</AltitudeMeters>
            <DistanceMeters>4805.7107346589</DistanceMeters>
          </Trackpoint>
          <Trackpoint>
            <Time>2019-05-08T07:03:12.000Z</Time>
            <Position>
              <LatitudeDegrees>42.8349512256681919097900390625</LatitudeDegrees>
              <LongitudeDegrees>0.60006656683981418609619140625</LongitudeDegrees>
            </Position>
            <AltitudeMeters>603.20001220703125</AltitudeMeters>
            <DistanceMeters>4816.3477858406</DistanceMeters>
          </Trackpoint>
          <Trackpoint>
            <Time>2019-05-08T07:03:14.000Z</Time>
            <Position>
              <LatitudeDegrees>42.83504359424114227294921875</LatitudeDegrees>
              <LongitudeDegrees>0.60002231039106845855712890625</LongitudeDegrees>
            </Position>
            <AltitudeMeters>603.20001220703125</AltitudeMeters>
            <DistanceMeters>4827.2448269637</DistanceMeters>
          </Trackpoint>
          <Trackpoint>
            <Time>2019-05-08T07:03:18.000Z</Time>
            <Position>
              <LatitudeDegrees>42.8352221287786960601806640625</LatitudeDegrees>
              <LongitudeDegrees>0.5998812429606914520263671875</LongitudeDegrees>
            </Position>
            <AltitudeMeters>603.4000244140625</AltitudeMeters>
            <DistanceMeters>4850.2110361653</DistanceMeters>
          </Trackpoint>
          <Trackpoint>
            <Time>2019-05-08T07:03:19.000Z</Time>
            <Position>
              <LatitudeDegrees>42.8352660499513149261474609375</LatitudeDegrees>
              <LongitudeDegrees>0.5998383276164531707763671875</LongitudeDegrees>
            </Position>
            <AltitudeMeters>603.4000244140625</AltitudeMeters>
            <DistanceMeters>4856.2255591085</DistanceMeters>
          </Trackpoint>
          <Trackpoint>
            <Time>2019-05-08T07:03:20.000Z</Time>
            <Position>
              <LatitudeDegrees>42.83531089313328266143798828125</LatitudeDegrees>
              <LongitudeDegrees>0.59980094432830810546875</LongitudeDegrees>
            </Position>
            <AltitudeMeters>603.4000244140625</AltitudeMeters>
            <DistanceMeters>4862.0756864338</DistanceMeters>
          </Trackpoint>
          <Trackpoint>
            <Time>2019-05-08T07:03:23.000Z</Time>
            <Position>
              <LatitudeDegrees>42.83546696417033672332763671875</LatitudeDegrees>
              <LongitudeDegrees>0.599722154438495635986328125</LongitudeDegrees>
            </Position>
            <AltitudeMeters>603.4000244140625</AltitudeMeters>
            <DistanceMeters>4880.5985845464</DistanceMeters>
          </Trackpoint>
          <Trackpoint>
            <Time>2019-05-08T07:03:24.000Z</Time>
            <Position>
              <LatitudeDegrees>42.83552697859704494476318359375</LatitudeDegrees>
              <LongitudeDegrees>0.59969357214868068695068359375</LongitudeDegrees>
            </Position>
            <AltitudeMeters>603.4000244140625</AltitudeMeters>
            <DistanceMeters>4887.6740876243</DistanceMeters>
          </Trackpoint>
          <Trackpoint>
            <Time>2019-05-08T07:03:27.000Z</Time>
            <Position>
              <LatitudeDegrees>42.8357270546257495880126953125</LatitudeDegrees>
              <LongitudeDegrees>0.59958980418741703033447265625</LongitudeDegrees>
            </Position>
            <AltitudeMeters>603.4000244140625</AltitudeMeters>
            <DistanceMeters>4911.4990872102</DistanceMeters>
          </Trackpoint>
          <Trackpoint>
            <Time>2019-05-08T07:03:28.000Z</Time>
            <Position>
              <LatitudeDegrees>42.83579461276531219482421875</LatitudeDegrees>
              <LongitudeDegrees>0.599557198584079742431640625</LongitudeDegrees>
            </Position>
            <AltitudeMeters>603</AltitudeMeters>
            <DistanceMeters>4919.4751068032</DistanceMeters>
          </Trackpoint>
          <Trackpoint>
            <Time>2019-05-08T07:03:30.000Z</Time>
            <Position>
              <LatitudeDegrees>42.83592327497899532318115234375</LatitudeDegrees>
              <LongitudeDegrees>0.5994929932057857513427734375</LongitudeDegrees>
            </Position>
            <AltitudeMeters>603</AltitudeMeters>
            <DistanceMeters>4934.7241559049</DistanceMeters>
          </Trackpoint>
          <Trackpoint>
            <Time>2019-05-08T07:03:35.000Z</Time>
            <Position>
              <LatitudeDegrees>42.83623374067246913909912109375</LatitudeDegrees>
              <LongitudeDegrees>0.59932258911430835723876953125</LongitudeDegrees>
            </Position>
            <AltitudeMeters>600.79998779296875</AltitudeMeters>
            <DistanceMeters>4971.9734158429</DistanceMeters>
          </Trackpoint>
          <Trackpoint>
            <Time>2019-05-08T07:03:40.000Z</Time>
            <Position>
              <LatitudeDegrees>42.83653196878731250762939453125</LatitudeDegrees>
              <LongitudeDegrees>0.59916752390563488006591796875</LongitudeDegrees>
            </Position>
            <AltitudeMeters>600.20001220703125</AltitudeMeters>
            <DistanceMeters>5007.49777753</DistanceMeters>
          </Trackpoint>
          <Trackpoint>
            <Time>2019-05-08T07:03:43.000Z</Time>
            <Position>
              <LatitudeDegrees>42.83669675700366497039794921875</LatitudeDegrees>
              <LongitudeDegrees>0.59907716698944568634033203125</LongitudeDegrees>
            </Position>
            <AltitudeMeters>600.20001220703125</AltitudeMeters>
            <DistanceMeters>5027.2660750841</DistanceMeters>
          </Trackpoint>
          <Trackpoint>
            <Time>2019-05-08T07:03:47.000Z</Time>
            <Position>
              <LatitudeDegrees>42.83691032789647579193115234375</LatitudeDegrees>
              <LongitudeDegrees>0.59897189028561115264892578125</LongitudeDegrees>
            </Position>
            <AltitudeMeters>600.20001220703125</AltitudeMeters>
            <DistanceMeters>5052.5422879825</DistanceMeters>
          </Trackpoint>
          <Trackpoint>
            <Time>2019-05-08T07:03:54.000Z</Time>
            <Position>
              <LatitudeDegrees>42.8372887708246707916259765625</LatitudeDegrees>
              <LongitudeDegrees>0.5988475866615772247314453125</LongitudeDegrees>
            </Position>
            <AltitudeMeters>601</AltitudeMeters>
            <DistanceMeters>5095.8683217376</DistanceMeters>
          </Trackpoint>
          <Trackpoint>
            <Time>2019-05-08T07:03:57.000Z</Time>
            <Position>
              <LatitudeDegrees>42.83745213411748409271240234375</LatitudeDegrees>
              <LongitudeDegrees>0.59880760498344898223876953125</LongitudeDegrees>
            </Position>
            <AltitudeMeters>601</AltitudeMeters>
            <DistanceMeters>5114.3411826102</DistanceMeters>
          </Trackpoint>
          <Trackpoint>
            <Time>2019-05-08T07:03:59.000Z</Time>
            <Position>
              <LatitudeDegrees>42.83755992539227008819580078125</LatitudeDegrees>
              <LongitudeDegrees>0.59880827553570270538330078125</LongitudeDegrees>
            </Position>
            <AltitudeMeters>601.20001220703125</AltitudeMeters>
            <DistanceMeters>5126.3386581162</DistanceMeters>
          </Trackpoint>
          <Trackpoint>
            <Time>2019-05-08T07:04:01.000Z</Time>
            <Position>
              <LatitudeDegrees>42.837663106620311737060546875</LatitudeDegrees>
              <LongitudeDegrees>0.59883727692067623138427734375</LongitudeDegrees>
            </Position>
            <AltitudeMeters>601.20001220703125</AltitudeMeters>
            <DistanceMeters>5138.0647390477</DistanceMeters>
          </Trackpoint>
          <Trackpoint>
            <Time>2019-05-08T07:04:04.000Z</Time>
            <Position>
              <LatitudeDegrees>42.8378007374703884124755859375</LatitudeDegrees>
              <LongitudeDegrees>0.5988796055316925048828125</LongitudeDegrees>
            </Position>
            <AltitudeMeters>601.20001220703125</AltitudeMeters>
            <DistanceMeters>5153.7686044217</DistanceMeters>
          </Trackpoint>
          <Trackpoint>
            <Time>2019-05-08T07:04:10.000Z</Time>
            <Position>
              <LatitudeDegrees>42.83810458146035671234130859375</LatitudeDegrees>
              <LongitudeDegrees>0.599006675183773040771484375</LongitudeDegrees>
            </Position>
            <AltitudeMeters>601.4000244140625</AltitudeMeters>
            <DistanceMeters>5189.1416526711</DistanceMeters>
          </Trackpoint>
          <Trackpoint>
            <Time>2019-05-08T07:04:12.000Z</Time>
            <Position>
              <LatitudeDegrees>42.83819912932813167572021484375</LatitudeDegrees>
              <LongitudeDegrees>0.59906928800046443939208984375</LongitudeDegrees>
            </Position>
            <AltitudeMeters>601.20001220703125</AltitudeMeters>
            <DistanceMeters>5200.8403636508</DistanceMeters>
          </Trackpoint>
          <Trackpoint>
            <Time>2019-05-08T07:04:13.000Z</Time>
            <Position>
              <LatitudeDegrees>42.83824489451944828033447265625</LatitudeDegrees>
              <LongitudeDegrees>0.59910080395638942718505859375</LongitudeDegrees>
            </Position>
            <AltitudeMeters>601.4000244140625</AltitudeMeters>
            <DistanceMeters>5206.5467158706</DistanceMeters>
          </Trackpoint>
          <Trackpoint>
            <Time>2019-05-08T07:04:14.000Z</Time>
            <Position>
              <LatitudeDegrees>42.8382899053394794464111328125</LatitudeDegrees>
              <LongitudeDegrees>0.5991174839437007904052734375</LongitudeDegrees>
            </Position>
            <AltitudeMeters>601.4000244140625</AltitudeMeters>
            <DistanceMeters>5211.7376452776</DistanceMeters>
          </Trackpoint>
          <Trackpoint>
            <Time>2019-05-08T07:04:15.000Z</Time>
            <Position>
              <LatitudeDegrees>42.8383321501314640045166015625</LatitudeDegrees>
              <LongitudeDegrees>0.59912561438977718353271484375</LongitudeDegrees>
            </Position>
            <AltitudeMeters>601.4000244140625</AltitudeMeters>
            <DistanceMeters>5216.4870800816</DistanceMeters>
          </Trackpoint>
          <Trackpoint>
            <Time>2019-05-08T07:04:19.000Z</Time>
            <Position>
              <LatitudeDegrees>42.8384198248386383056640625</LatitudeDegrees>
              <LongitudeDegrees>0.5991704575717449188232421875</LongitudeDegrees>
            </Position>
            <AltitudeMeters>601.4000244140625</AltitudeMeters>
            <DistanceMeters>5226.9088726082</DistanceMeters>
          </Trackpoint>
          <Trackpoint>
            <Time>2019-05-08T07:04:20.000Z</Time>
            <Position>
              <LatitudeDegrees>42.838420830667018890380859375</LatitudeDegrees>
              <LongitudeDegrees>0.5991711281239986419677734375</LongitudeDegrees>
            </Position>
            <AltitudeMeters>601.4000244140625</AltitudeMeters>
            <DistanceMeters>5227.0432606764</DistanceMeters>
          </Trackpoint>
          <Trackpoint>
            <Time>2019-05-08T07:10:47.000Z</Time>
            <Position>
              <LatitudeDegrees>42.8385695256292819976806640625</LatitudeDegrees>
              <LongitudeDegrees>0.5992224253714084625244140625</LongitudeDegrees>
            </Position>
            <AltitudeMeters>601.4000244140625</AltitudeMeters>
            <DistanceMeters>5244.1145130346</DistanceMeters>
          </Trackpoint>
          <Trackpoint>
            <Time>2019-05-08T07:10:48.000Z</Time>
            <Position>
              <LatitudeDegrees>42.83860263414680957794189453125</LatitudeDegrees>
              <LongitudeDegrees>0.599240027368068695068359375</LongitudeDegrees>
            </Position>
            <AltitudeMeters>601.4000244140625</AltitudeMeters>
            <DistanceMeters>5248.0692687035</DistanceMeters>
          </Trackpoint>
          <Trackpoint>
            <Time>2019-05-08T07:10:53.000Z</Time>
            <Position>
              <LatitudeDegrees>42.8387904725968837738037109375</LatitudeDegrees>
              <LongitudeDegrees>0.59933415614068508148193359375</LongitudeDegrees>
            </Position>
            <AltitudeMeters>601.20001220703125</AltitudeMeters>
            <DistanceMeters>5270.3428494626</DistanceMeters>
          </Trackpoint>
          <Trackpoint>
            <Time>2019-05-08T07:10:54.000Z</Time>
            <Position>
              <LatitudeDegrees>42.83883229829370975494384765625</LatitudeDegrees>
              <LongitudeDegrees>0.5993541888892650604248046875</LongitudeDegrees>
            </Position>
            <AltitudeMeters>601</AltitudeMeters>
            <DistanceMeters>5275.276923448</DistanceMeters>
          </Trackpoint>
          <Trackpoint>
            <Time>2019-05-08T07:10:59.000Z</Time>
            <Position>
              <LatitudeDegrees>42.8390405885875225067138671875</LatitudeDegrees>
              <LongitudeDegrees>0.59943817555904388427734375</LongitudeDegrees>
            </Position>
            <AltitudeMeters>600.79998779296875</AltitudeMeters>
            <DistanceMeters>5299.4522126418</DistanceMeters>
          </Trackpoint>
          <Trackpoint>
            <Time>2019-05-08T07:11:01.000Z</Time>
            <Position>
              <LatitudeDegrees>42.83912851475179195404052734375</LatitudeDegrees>
              <LongitudeDegrees>0.5994643270969390869140625</LongitudeDegrees>
            </Position>
            <AltitudeMeters>600.79998779296875</AltitudeMeters>
            <DistanceMeters>5309.4684069936</DistanceMeters>
          </Trackpoint>
          <Trackpoint>
            <Time>2019-05-08T07:11:02.000Z</Time>
            <Position>
              <LatitudeDegrees>42.8391777165234088897705078125</LatitudeDegrees>
              <LongitudeDegrees>0.59947430156171321868896484375</LongitudeDegrees>
            </Position>
            <AltitudeMeters>600.5999755859375</AltitudeMeters>
            <DistanceMeters>5315.0044777528</DistanceMeters>
          </Trackpoint>
          <Trackpoint>
            <Time>2019-05-08T07:11:06.000Z</Time>
            <Position>
              <LatitudeDegrees>42.83937628380954265594482421875</LatitudeDegrees>
              <LongitudeDegrees>0.5994678474962711334228515625</LongitudeDegrees>
            </Position>
            <AltitudeMeters>600.4000244140625</AltitudeMeters>
            <DistanceMeters>5337.1120297985</DistanceMeters>
          </Trackpoint>
          <Trackpoint>
            <Time>2019-05-08T07:11:12.000Z</Time>
            <Position>
              <LatitudeDegrees>42.839694209396839141845703125</LatitudeDegrees>
              <LongitudeDegrees>0.599390566349029541015625</LongitudeDegrees>
            </Position>
            <AltitudeMeters>600</AltitudeMeters>
            <DistanceMeters>5373.0554998152</DistanceMeters>
          </Trackpoint>
          <Trackpoint>
            <Time>2019-05-08T07:11:13.000Z</Time>
            <Position>
              <LatitudeDegrees>42.839748524129390716552734375</LatitudeDegrees>
              <LongitudeDegrees>0.59938075952231884002685546875</LongitudeDegrees>
            </Position>
            <AltitudeMeters>600</AltitudeMeters>
            <DistanceMeters>5379.1535203789</DistanceMeters>
          </Trackpoint>
          <Trackpoint>
            <Time>2019-05-08T07:11:18.000Z</Time>
            <Position>
              <LatitudeDegrees>42.84002705477178096771240234375</LatitudeDegrees>
              <LongitudeDegrees>0.59932644478976726531982421875</LongitudeDegrees>
            </Position>
            <AltitudeMeters>600</AltitudeMeters>
            <DistanceMeters>5410.4699774307</DistanceMeters>
          </Trackpoint>
          <Trackpoint>
            <Time>2019-05-08T07:11:20.000Z</Time>
            <Position>
              <LatitudeDegrees>42.8401406295597553253173828125</LatitudeDegrees>
              <LongitudeDegrees>0.59930674731731414794921875</LongitudeDegrees>
            </Position>
            <AltitudeMeters>599.5999755859375</AltitudeMeters>
            <DistanceMeters>5423.212772831</DistanceMeters>
          </Trackpoint>
          <Trackpoint>
            <Time>2019-05-08T07:11:26.000Z</Time>
            <Position>
              <LatitudeDegrees>42.840470708906650543212890625</LatitudeDegrees>
              <LongitudeDegrees>0.59926659800112247467041015625</LongitudeDegrees>
            </Position>
            <AltitudeMeters>599.4000244140625</AltitudeMeters>
            <DistanceMeters>5460.0970954749</DistanceMeters>
          </Trackpoint>
          <Trackpoint>
            <Time>2019-05-08T07:11:28.000Z</Time>
            <Position>
              <LatitudeDegrees>42.8405711241066455841064453125</LatitudeDegrees>
              <LongitudeDegrees>0.59924346394836902618408203125</LongitudeDegrees>
            </Position>
            <AltitudeMeters>599.4000244140625</AltitudeMeters>
            <DistanceMeters>5471.4319941354</DistanceMeters>
          </Trackpoint>
          <Trackpoint>
            <Time>2019-05-08T07:11:31.000Z</Time>
            <Position>
              <LatitudeDegrees>42.8407377563416957855224609375</LatitudeDegrees>
              <LongitudeDegrees>0.59922820888459682464599609375</LongitudeDegrees>
            </Position>
            <AltitudeMeters>599.4000244140625</AltitudeMeters>
            <DistanceMeters>5490.0203465383</DistanceMeters>
          </Trackpoint>
          <Trackpoint>
            <Time>2019-05-08T07:11:35.000Z</Time>
            <Position>
              <LatitudeDegrees>42.84096867777407169342041015625</LatitudeDegrees>
              <LongitudeDegrees>0.599203817546367645263671875</LongitudeDegrees>
            </Position>
            <AltitudeMeters>599.4000244140625</AltitudeMeters>
            <DistanceMeters>5515.7993970603</DistanceMeters>
          </Trackpoint>
          <Trackpoint>
            <Time>2019-05-08T07:11:37.000Z</Time>
            <Position>
              <LatitudeDegrees>42.84108233638107776641845703125</LatitudeDegrees>
              <LongitudeDegrees>0.59919551946222782135009765625</LongitudeDegrees>
            </Position>
            <AltitudeMeters>599.4000244140625</AltitudeMeters>
            <DistanceMeters>5528.4675665635</DistanceMeters>
          </Trackpoint>
          <Trackpoint>
            <Time>2019-05-08T07:11:43.000Z</Time>
            <Position>
              <LatitudeDegrees>42.8414076380431652069091796875</LatitudeDegrees>
              <LongitudeDegrees>0.5991624109447002410888671875</LongitudeDegrees>
            </Position>
            <AltitudeMeters>599.4000244140625</AltitudeMeters>
            <DistanceMeters>5564.7749848061</DistanceMeters>
          </Trackpoint>
          <Trackpoint>
            <Time>2019-05-08T07:11:47.000Z</Time>
            <Position>
              <LatitudeDegrees>42.841636128723621368408203125</LatitudeDegrees>
              <LongitudeDegrees>0.59912569820880889892578125</LongitudeDegrees>
            </Position>
            <AltitudeMeters>599.20001220703125</AltitudeMeters>
            <DistanceMeters>5590.3823482224</DistanceMeters>
          </Trackpoint>
          <Trackpoint>
            <Time>2019-05-08T07:11:48.000Z</Time>
            <Position>
              <LatitudeDegrees>42.84169144928455352783203125</LatitudeDegrees>
              <LongitudeDegrees>0.59910935349762439727783203125</LongitudeDegrees>
            </Position>
            <AltitudeMeters>599</AltitudeMeters>
            <DistanceMeters>5596.6821248828</DistanceMeters>
          </Trackpoint>
          <Trackpoint>
            <Time>2019-05-08T07:11:50.000Z</Time>
            <Position>
              <LatitudeDegrees>42.84179882146418094635009765625</LatitudeDegrees>
              <LongitudeDegrees>0.59907465241849422454833984375</LongitudeDegrees>
            </Position>
            <AltitudeMeters>599</AltitudeMeters>
            <DistanceMeters>5608.963385683</DistanceMeters>
          </Trackpoint>
          <Trackpoint>
            <Time>2019-05-08T07:11:53.000Z</Time>
            <Position>
              <LatitudeDegrees>42.841941229999065399169921875</LatitudeDegrees>
              <LongitudeDegrees>0.59907398186624050140380859375</LongitudeDegrees>
            </Position>
            <AltitudeMeters>599</AltitudeMeters>
            <DistanceMeters>5624.8137732752</DistanceMeters>
          </Trackpoint>
          <Trackpoint>
            <Time>2019-05-08T07:11:57.000Z</Time>
            <Position>
              <LatitudeDegrees>42.84199797548353672027587890625</LatitudeDegrees>
              <LongitudeDegrees>0.59907347895205020904541015625</LongitudeDegrees>
            </Position>
            <AltitudeMeters>599</AltitudeMeters>
            <DistanceMeters>5631.130012483</DistanceMeters>
          </Trackpoint>
          <Trackpoint>
            <Time>2019-05-08T07:12:02.000Z</Time>
            <Position>
              <LatitudeDegrees>42.8419652022421360015869140625</LatitudeDegrees>
              <LongitudeDegrees>0.59910901822149753570556640625</LongitudeDegrees>
            </Position>
            <AltitudeMeters>599.4000244140625</AltitudeMeters>
            <DistanceMeters>5635.7901985144</DistanceMeters>
          </Trackpoint>
          <Trackpoint>
            <Time>2019-05-08T07:12:03.000Z</Time>
            <Position>
              <LatitudeDegrees>42.8419504500925540924072265625</LatitudeDegrees>
              <LongitudeDegrees>0.5991210043430328369140625</LongitudeDegrees>
            </Position>
            <AltitudeMeters>599.5999755859375</AltitudeMeters>
            <DistanceMeters>5637.7049337536</DistanceMeters>
          </Trackpoint>
          <Trackpoint>
            <Time>2019-05-08T07:12:08.000Z</Time>
            <Position>
              <LatitudeDegrees>42.8418069519102573394775390625</LatitudeDegrees>
              <LongitudeDegrees>0.59917137958109378814697265625</LongitudeDegrees>
            </Position>
            <AltitudeMeters>599.5999755859375</AltitudeMeters>
            <DistanceMeters>5654.1972026263</DistanceMeters>
          </Trackpoint>
          <Trackpoint>
            <Time>2019-05-08T07:12:10.000Z</Time>
            <Position>
              <LatitudeDegrees>42.8417905233800411224365234375</LatitudeDegrees>
              <LongitudeDegrees>0.59916232712566852569580078125</LongitudeDegrees>
            </Position>
            <AltitudeMeters>599.79998779296875</AltitudeMeters>
            <DistanceMeters>5656.1677185158</DistanceMeters>
          </Trackpoint>
          <Trackpoint>
            <Time>2019-05-08T07:12:12.000Z</Time>
            <Position>
              <LatitudeDegrees>42.84179714508354663848876953125</LatitudeDegrees>
              <LongitudeDegrees>0.5991124548017978668212890625</LongitudeDegrees>
            </Position>
            <AltitudeMeters>599.5999755859375</AltitudeMeters>
            <DistanceMeters>5660.3032916061</DistanceMeters>
          </Trackpoint>
          <Trackpoint>
            <Time>2019-05-08T07:12:16.000Z</Time>
            <Position>
              <LatitudeDegrees>42.84191365353763103485107421875</LatitudeDegrees>
              <LongitudeDegrees>0.59908404015004634857177734375</LongitudeDegrees>
            </Position>
            <AltitudeMeters>599.5999755859375</AltitudeMeters>
            <DistanceMeters>5673.4767501155</DistanceMeters>
          </Trackpoint>
          <Trackpoint>
            <Time>2019-05-08T07:12:20.000Z</Time>
            <Position>
              <LatitudeDegrees>42.84204759635031223297119140625</LatitudeDegrees>
              <LongitudeDegrees>0.59905906207859516143798828125</LongitudeDegrees>
            </Position>
            <AltitudeMeters>599.79998779296875</AltitudeMeters>
            <DistanceMeters>5688.5234134202</DistanceMeters>
          </Trackpoint>
          <Trackpoint>
            <Time>2019-05-08T07:12:24.000Z</Time>
            <Position>
              <LatitudeDegrees>42.842170894145965576171875</LatitudeDegrees>
              <LongitudeDegrees>0.599034838378429412841796875</LongitudeDegrees>
            </Position>
            <AltitudeMeters>599.5999755859375</AltitudeMeters>
            <DistanceMeters>5702.3888498537</DistanceMeters>
          </Trackpoint>
          <Trackpoint>
            <Time>2019-05-08T07:12:28.000Z</Time>
            <Position>
              <LatitudeDegrees>42.84231263212859630584716796875</LatitudeDegrees>
              <LongitudeDegrees>0.5989220179617404937744140625</LongitudeDegrees>
            </Position>
            <AltitudeMeters>599.5999755859375</AltitudeMeters>
            <DistanceMeters>5720.6547542784</DistanceMeters>
          </Trackpoint>
          <Trackpoint>
            <Time>2019-05-08T07:12:30.000Z</Time>
            <Position>
              <LatitudeDegrees>42.8423842974007129669189453125</LatitudeDegrees>
              <LongitudeDegrees>0.59885370545089244842529296875</LongitudeDegrees>
            </Position>
            <AltitudeMeters>599.4000244140625</AltitudeMeters>
            <DistanceMeters>5730.386529129</DistanceMeters>
          </Trackpoint>
          <Trackpoint>
            <Time>2019-05-08T07:12:35.000Z</Time>
            <Position>
              <LatitudeDegrees>42.842582948505878448486328125</LatitudeDegrees>
              <LongitudeDegrees>0.59865857474505901336669921875</LongitudeDegrees>
            </Position>
            <AltitudeMeters>599</AltitudeMeters>
            <DistanceMeters>5757.6345177745</DistanceMeters>
          </Trackpoint>
          <Trackpoint>
            <Time>2019-05-08T07:12:36.000Z</Time>
            <Position>
              <LatitudeDegrees>42.84262862987816333770751953125</LatitudeDegrees>
              <LongitudeDegrees>0.59863175265491008758544921875</LongitudeDegrees>
            </Position>
            <AltitudeMeters>599</AltitudeMeters>
            <DistanceMeters>5763.1705885337</DistanceMeters>
          </Trackpoint>
          <Trackpoint>
            <Time>2019-05-08T07:12:40.000Z</Time>
            <Position>
              <LatitudeDegrees>42.84279945306479930877685546875</LatitudeDegrees>
              <LongitudeDegrees>0.59853737242519855499267578125</LongitudeDegrees>
            </Position>
            <AltitudeMeters>598.79998779296875</AltitudeMeters>
            <DistanceMeters>5783.6844770593</DistanceMeters>
          </Trackpoint>
          <Trackpoint>
            <Time>2019-05-08T07:12:41.000Z</Time>
            <Position>
              <LatitudeDegrees>42.84284287132322788238525390625</LatitudeDegrees>
              <LongitudeDegrees>0.59852496720850467681884765625</LongitudeDegrees>
            </Position>
            <AltitudeMeters>598.79998779296875</AltitudeMeters>
            <DistanceMeters>5788.6222099803</DistanceMeters>
          </Trackpoint>
          <Trackpoint>
            <Time>2019-05-08T07:12:43.000Z</Time>
            <Position>
              <LatitudeDegrees>42.8429353237152099609375</LatitudeDegrees>
              <LongitudeDegrees>0.59850853867828845977783203125</LongitudeDegrees>
            </Position>
            <AltitudeMeters>598.79998779296875</AltitudeMeters>
            <DistanceMeters>5798.9992838257</DistanceMeters>
          </Trackpoint>
          <Trackpoint>
            <Time>2019-05-08T07:12:46.000Z</Time>
            <Position>
              <LatitudeDegrees>42.8430890478193759918212890625</LatitudeDegrees>
              <LongitudeDegrees>0.598542988300323486328125</LongitudeDegrees>
            </Position>
            <AltitudeMeters>598.5999755859375</AltitudeMeters>
            <DistanceMeters>5816.3384696522</DistanceMeters>
          </Trackpoint>
          <Trackpoint>
            <Time>2019-05-08T07:12:51.000Z</Time>
            <Position>
              <LatitudeDegrees>42.84333103336393833160400390625</LatitudeDegrees>
              <LongitudeDegrees>0.59863711707293987274169921875</LongitudeDegrees>
            </Position>
            <AltitudeMeters>598.79998779296875</AltitudeMeters>
            <DistanceMeters>5844.3462134137</DistanceMeters>
          </Trackpoint>
          <Trackpoint>
            <Time>2019-05-08T07:12:57.000Z</Time>
            <Position>
              <LatitudeDegrees>42.84363093785941600799560546875</LatitudeDegrees>
              <LongitudeDegrees>0.5987374484539031982421875</LongitudeDegrees>
            </Position>
            <AltitudeMeters>598.79998779296875</AltitudeMeters>
            <DistanceMeters>5878.7156827134</DistanceMeters>
          </Trackpoint>
          <Trackpoint>
            <Time>2019-05-08T07:13:03.000Z</Time>
            <Position>
              <LatitudeDegrees>42.8439383022487163543701171875</LatitudeDegrees>
              <LongitudeDegrees>0.59881724417209625244140625</LongitudeDegrees>
            </Position>
            <AltitudeMeters>598.79998779296875</AltitudeMeters>
            <DistanceMeters>5913.5403482047</DistanceMeters>
          </Trackpoint>
          <Trackpoint>
            <Time>2019-05-08T07:13:11.000Z</Time>
            <Position>
              <LatitudeDegrees>42.84432965330779552459716796875</LatitudeDegrees>
              <LongitudeDegrees>0.59890181757509708404541015625</LongitudeDegrees>
            </Position>
            <AltitudeMeters>598.5999755859375</AltitudeMeters>
            <DistanceMeters>5957.6419586624</DistanceMeters>
          </Trackpoint>
          <Trackpoint>
            <Time>2019-05-08T07:13:15.000Z</Time>
            <Position>
              <LatitudeDegrees>42.84452252089977264404296875</LatitudeDegrees>
              <LongitudeDegrees>0.5989520251750946044921875</LongitudeDegrees>
            </Position>
            <AltitudeMeters>598.5999755859375</AltitudeMeters>
            <DistanceMeters>5979.4960370718</DistanceMeters>
          </Trackpoint>
          <Trackpoint>
            <Time>2019-05-08T07:13:20.000Z</Time>
            <Position>
              <LatitudeDegrees>42.8447634167969226837158203125</LatitudeDegrees>
              <LongitudeDegrees>0.59903257526457309722900390625</LongitudeDegrees>
            </Position>
            <AltitudeMeters>598.79998779296875</AltitudeMeters>
            <DistanceMeters>6007.1022380339</DistanceMeters>
          </Trackpoint>
          <Trackpoint>
            <Time>2019-05-08T07:13:22.000Z</Time>
            <Position>
              <LatitudeDegrees>42.84486441873013973236083984375</LatitudeDegrees>
              <LongitudeDegrees>0.5990681983530521392822265625</LongitudeDegrees>
            </Position>
            <AltitudeMeters>598.79998779296875</AltitudeMeters>
            <DistanceMeters>6018.7137870858</DistanceMeters>
          </Trackpoint>
          <Trackpoint>
            <Time>2019-05-08T07:13:27.000Z</Time>
            <Position>
              <LatitudeDegrees>42.845130376517772674560546875</LatitudeDegrees>
              <LongitudeDegrees>0.59914070181548595428466796875</LongitudeDegrees>
            </Position>
            <AltitudeMeters>598.4000244140625</AltitudeMeters>
            <DistanceMeters>6048.9008892036</DistanceMeters>
          </Trackpoint>
          <Trackpoint>
            <Time>2019-05-08T07:13:28.000Z</Time>
            <Position>
              <LatitudeDegrees>42.84518309868872165679931640625</LatitudeDegrees>
              <LongitudeDegrees>0.59915277175605297088623046875</LongitudeDegrees>
            </Position>
            <AltitudeMeters>598.20001220703125</AltitudeMeters>
            <DistanceMeters>6054.8520201728</DistanceMeters>
          </Trackpoint>
          <Trackpoint>
            <Time>2019-05-08T07:13:30.000Z</Time>
            <Position>
              <LatitudeDegrees>42.84528636373579502105712890625</LatitudeDegrees>
              <LongitudeDegrees>0.5991773307323455810546875</LongitudeDegrees>
            </Position>
            <AltitudeMeters>598</AltitudeMeters>
            <DistanceMeters>6066.5190408858</DistanceMeters>
          </Trackpoint>
          <Trackpoint>
            <Time>2019-05-08T07:13:36.000Z</Time>
            <Position>
              <LatitudeDegrees>42.84558056853711605072021484375</LatitudeDegrees>
              <LongitudeDegrees>0.5992395244538784027099609375</LongitudeDegrees>
            </Position>
            <AltitudeMeters>597.79998779296875</AltitudeMeters>
            <DistanceMeters>6099.6555797116</DistanceMeters>
          </Trackpoint>
          <Trackpoint>
            <Time>2019-05-08T07:13:42.000Z</Time>
            <Position>
              <LatitudeDegrees>42.8458818979561328887939453125</LatitudeDegrees>
              <LongitudeDegrees>0.5993141233921051025390625</LongitudeDegrees>
            </Position>
            <AltitudeMeters>597.5999755859375</AltitudeMeters>
            <DistanceMeters>6133.7421005956</DistanceMeters>
          </Trackpoint>
          <Trackpoint>
            <Time>2019-05-08T07:13:45.000Z</Time>
            <Position>
              <LatitudeDegrees>42.84603604115545749664306640625</LatitudeDegrees>
              <LongitudeDegrees>0.59934387914836406707763671875</LongitudeDegrees>
            </Position>
            <AltitudeMeters>597.79998779296875</AltitudeMeters>
            <DistanceMeters>6151.0693041094</DistanceMeters>
          </Trackpoint>
          <Trackpoint>
            <Time>2019-05-08T07:13:53.000Z</Time>
            <Position>
              <LatitudeDegrees>42.8464579023420810699462890625</LatitudeDegrees>
              <LongitudeDegrees>0.59942074120044708251953125</LongitudeDegrees>
            </Position>
            <AltitudeMeters>597.5999755859375</AltitudeMeters>
            <DistanceMeters>6198.4402880198</DistanceMeters>
          </Trackpoint>
          <Trackpoint>
            <Time>2019-05-08T07:14:00.000Z</Time>
            <Position>
              <LatitudeDegrees>42.84680348820984363555908203125</LatitudeDegrees>
              <LongitudeDegrees>0.59947966597974300384521484375</LongitudeDegrees>
            </Position>
            <AltitudeMeters>597.5999755859375</AltitudeMeters>
            <DistanceMeters>6237.2040831192</DistanceMeters>
          </Trackpoint>
          <Trackpoint>
            <Time>2019-05-08T07:14:09.000Z</Time>
            <Position>
              <LatitudeDegrees>42.84724253229796886444091796875</LatitudeDegrees>
              <LongitudeDegrees>0.59956046752631664276123046875</LongitudeDegrees>
            </Position>
            <AltitudeMeters>597.5999755859375</AltitudeMeters>
            <DistanceMeters>6286.5135175426</DistanceMeters>
          </Trackpoint>
          <Trackpoint>
            <Time>2019-05-08T07:14:15.000Z</Time>
            <Position>
              <LatitudeDegrees>42.84756992943584918975830078125</LatitudeDegrees>
              <LongitudeDegrees>0.5996225774288177490234375</LongitudeDegrees>
            </Position>
            <AltitudeMeters>597.5999755859375</AltitudeMeters>
            <DistanceMeters>6323.3041994946</DistanceMeters>
          </Trackpoint>
          <Trackpoint>
            <Time>2019-05-08T07:14:17.000Z</Time>
            <Position>
              <LatitudeDegrees>42.84767772071063518524169921875</LatitudeDegrees>
              <LongitudeDegrees>0.599637664854526519775390625</LongitudeDegrees>
            </Position>
            <AltitudeMeters>597.5999755859375</AltitudeMeters>
            <DistanceMeters>6335.3647331212</DistanceMeters>
          </Trackpoint>
          <Trackpoint>
            <Time>2019-05-08T07:14:19.000Z</Time>
            <Position>
              <LatitudeDegrees>42.84778316505253314971923828125</LatitudeDegrees>
              <LongitudeDegrees>0.59965350665152072906494140625</LongitudeDegrees>
            </Position>
            <AltitudeMeters>597.20001220703125</AltitudeMeters>
            <DistanceMeters>6347.1721608775</DistanceMeters>
          </Trackpoint>
          <Trackpoint>
            <Time>2019-05-08T07:14:22.000Z</Time>
            <Position>
              <LatitudeDegrees>42.84794527105987071990966796875</LatitudeDegrees>
              <LongitudeDegrees>0.59968586079776287078857421875</LongitudeDegrees>
            </Position>
            <AltitudeMeters>596.79998779296875</AltitudeMeters>
            <DistanceMeters>6365.4071411323</DistanceMeters>
          </Trackpoint>
          <Trackpoint>
            <Time>2019-05-08T07:14:24.000Z</Time>
            <Position>
              <LatitudeDegrees>42.84805775620043277740478515625</LatitudeDegrees>
              <LongitudeDegrees>0.59970907866954803466796875</LongitudeDegrees>
            </Position>
            <AltitudeMeters>596.79998779296875</AltitudeMeters>
            <DistanceMeters>6378.0696068219</DistanceMeters>
          </Trackpoint>
          <Trackpoint>
            <Time>2019-05-08T07:14:27.000Z</Time>
            <Position>
              <LatitudeDegrees>42.8482259809970855712890625</LatitudeDegrees>
              <LongitudeDegrees>0.5997424386441707611083984375</LongitudeDegrees>
            </Position>
            <AltitudeMeters>596.5999755859375</AltitudeMeters>
            <DistanceMeters>6396.9901869014</DistanceMeters>
          </Trackpoint>
          <Trackpoint>
            <Time>2019-05-08T07:14:30.000Z</Time>
            <Position>
              <LatitudeDegrees>42.84838498570024967193603515625</LatitudeDegrees>
              <LongitudeDegrees>0.59977202676236629486083984375</LongitudeDegrees>
            </Position>
            <AltitudeMeters>596.4000244140625</AltitudeMeters>
            <DistanceMeters>6414.8516706238</DistanceMeters>
          </Trackpoint>
          <Trackpoint>
            <Time>2019-05-08T07:14:33.000Z</Time>
            <Position>
              <LatitudeDegrees>42.84853686578571796417236328125</LatitudeDegrees>
              <LongitudeDegrees>0.59979625046253204345703125</LongitudeDegrees>
            </Position>
            <AltitudeMeters>596.20001220703125</AltitudeMeters>
            <DistanceMeters>6431.87180142</DistanceMeters>
          </Trackpoint>
          <Trackpoint>
            <Time>2019-05-08T07:14:36.000Z</Time>
            <Position>
              <LatitudeDegrees>42.84868489019572734832763671875</LatitudeDegrees>
              <LongitudeDegrees>0.5998237431049346923828125</LongitudeDegrees>
            </Position>
            <AltitudeMeters>596</AltitudeMeters>
            <DistanceMeters>6448.4993042537</DistanceMeters>
          </Trackpoint>
          <Trackpoint>
            <Time>2019-05-08T07:14:42.000Z</Time>
            <Position>
              <LatitudeDegrees>42.848992086946964263916015625</LatitudeDegrees>
              <LongitudeDegrees>0.599878728389739990234375</LongitudeDegrees>
            </Position>
            <AltitudeMeters>595.5999755859375</AltitudeMeters>
            <DistanceMeters>6482.9841833635</DistanceMeters>
          </Trackpoint>
          <Trackpoint>
            <Time>2019-05-08T07:14:43.000Z</Time>
            <Position>
              <LatitudeDegrees>42.849039696156978607177734375</LatitudeDegrees>
              <LongitudeDegrees>0.59989280998706817626953125</LongitudeDegrees>
            </Position>
            <AltitudeMeters>595.5999755859375</AltitudeMeters>
            <DistanceMeters>6488.4065379167</DistanceMeters>
          </Trackpoint>
          <Trackpoint>
            <Time>2019-05-08T07:14:44.000Z</Time>
            <Position>
              <LatitudeDegrees>42.84908604808151721954345703125</LatitudeDegrees>
              <LongitudeDegrees>0.59990580193698406219482421875</LongitudeDegrees>
            </Position>
            <AltitudeMeters>595.79998779296875</AltitudeMeters>
            <DistanceMeters>6493.6734530324</DistanceMeters>
          </Trackpoint>
          <Trackpoint>
            <Time>2019-05-08T07:14:47.000Z</Time>
            <Position>
              <LatitudeDegrees>42.849222756922245025634765625</LatitudeDegrees>
              <LongitudeDegrees>0.59993840754032135009765625</LongitudeDegrees>
            </Position>
            <AltitudeMeters>595.5999755859375</AltitudeMeters>
            <DistanceMeters>6509.1198985719</DistanceMeters>
          </Trackpoint>
          <Trackpoint>
            <Time>2019-05-08T07:14:48.000Z</Time>
            <Position>
              <LatitudeDegrees>42.84926877357065677642822265625</LatitudeDegrees>
              <LongitudeDegrees>0.59994922019541263580322265625</LongitudeDegrees>
            </Position>
            <AltitudeMeters>595.5999755859375</AltitudeMeters>
            <DistanceMeters>6514.316912969</DistanceMeters>
          </Trackpoint>
          <Trackpoint>
            <Time>2019-05-08T07:14:51.000Z</Time>
            <Position>
              <LatitudeDegrees>42.84941294230520725250244140625</LatitudeDegrees>
              <LongitudeDegrees>0.5999643914401531219482421875</LongitudeDegrees>
            </Position>
            <AltitudeMeters>595.4000244140625</AltitudeMeters>
            <DistanceMeters>6530.4109712738</DistanceMeters>
          </Trackpoint>
          <Trackpoint>
            <Time>2019-05-08T07:14:52.000Z</Time>
            <Position>
              <LatitudeDegrees>42.84946206025779247283935546875</LatitudeDegrees>
              <LongitudeDegrees>0.5999724380671977996826171875</LongitudeDegrees>
            </Position>
            <AltitudeMeters>595.4000244140625</AltitudeMeters>
            <DistanceMeters>6535.9176033387</DistanceMeters>
          </Trackpoint>
          <Trackpoint>
            <Time>2019-05-08T07:14:59.000Z</Time>
            <Position>
              <LatitudeDegrees>42.84981460310518741607666015625</LatitudeDegrees>
              <LongitudeDegrees>0.60003764927387237548828125</LongitudeDegrees>
            </Position>
            <AltitudeMeters>595.5999755859375</AltitudeMeters>
            <DistanceMeters>6575.5154758044</DistanceMeters>
          </Trackpoint>
          <Trackpoint>
            <Time>2019-05-08T07:15:05.000Z</Time>
            <Position>
              <LatitudeDegrees>42.85011065192520618438720703125</LatitudeDegrees>
              <LongitudeDegrees>0.60008701868355274200439453125</LongitudeDegrees>
            </Position>
            <AltitudeMeters>595.4000244140625</AltitudeMeters>
            <DistanceMeters>6608.7115049158</DistanceMeters>
          </Trackpoint>
          <Trackpoint>
            <Time>2019-05-08T07:15:11.000Z</Time>
            <Position>
              <LatitudeDegrees>42.8504228778183460235595703125</LatitudeDegrees>
              <LongitudeDegrees>0.6001482903957366943359375</LongitudeDegrees>
            </Position>
            <AltitudeMeters>595.5999755859375</AltitudeMeters>
            <DistanceMeters>6643.8207574721</DistanceMeters>
          </Trackpoint>
          <Trackpoint>
            <Time>2019-05-08T07:15:19.000Z</Time>
            <Position>
              <LatitudeDegrees>42.85079645924270153045654296875</LatitudeDegrees>
              <LongitudeDegrees>0.60023345053195953369140625</LongitudeDegrees>
            </Position>
            <AltitudeMeters>595.4000244140625</AltitudeMeters>
            <DistanceMeters>6685.9778253851</DistanceMeters>
          </Trackpoint>
          <Trackpoint>
            <Time>2019-05-08T07:15:21.000Z</Time>
            <Position>
              <LatitudeDegrees>42.8508867323398590087890625</LatitudeDegrees>
              <LongitudeDegrees>0.60025666840374469757080078125</LongitudeDegrees>
            </Position>
            <AltitudeMeters>595.4000244140625</AltitudeMeters>
            <DistanceMeters>6696.2028058285</DistanceMeters>
          </Trackpoint>
          <Trackpoint>
            <Time>2019-05-08T07:15:22.000Z</Time>
            <Position>
              <LatitudeDegrees>42.85092973150312900543212890625</LatitudeDegrees>
              <LongitudeDegrees>0.60027376748621463775634765625</LongitudeDegrees>
            </Position>
            <AltitudeMeters>595.4000244140625</AltitudeMeters>
            <DistanceMeters>6701.1878605297</DistanceMeters>
          </Trackpoint>
          <Trackpoint>
            <Time>2019-05-08T07:15:24.000Z</Time>
            <Position>
              <LatitudeDegrees>42.85101137124001979827880859375</LatitudeDegrees>
              <LongitudeDegrees>0.6003150902688503265380859375</LongitudeDegrees>
            </Position>
            <AltitudeMeters>595.5999755859375</AltitudeMeters>
            <DistanceMeters>6710.8796537162</DistanceMeters>
          </Trackpoint>
          <Trackpoint>
            <Time>2019-05-08T07:15:25.000Z</Time>
            <Position>
              <LatitudeDegrees>42.8510570526123046875</LatitudeDegrees>
              <LongitudeDegrees>0.60033059678971767425537109375</LongitudeDegrees>
            </Position>
            <AltitudeMeters>595.4000244140625</AltitudeMeters>
            <DistanceMeters>6716.1190651707</DistanceMeters>
          </Trackpoint>
          <Trackpoint>
            <Time>2019-05-08T07:15:32.000Z</Time>
            <Position>
              <LatitudeDegrees>42.85139543004333972930908203125</LatitudeDegrees>
              <LongitudeDegrees>0.6004364602267742156982421875</LongitudeDegrees>
            </Position>
            <AltitudeMeters>596.5999755859375</AltitudeMeters>
            <DistanceMeters>6754.7591988335</DistanceMeters>
          </Trackpoint>
          <Trackpoint>
            <Time>2019-05-08T07:15:33.000Z</Time>
            <Position>
              <LatitudeDegrees>42.85144639201462268829345703125</LatitudeDegrees>
              <LongitudeDegrees>0.600469820201396942138671875</LongitudeDegrees>
            </Position>
            <AltitudeMeters>596.4000244140625</AltitudeMeters>
            <DistanceMeters>6761.0510868752</DistanceMeters>
          </Trackpoint>
          <Trackpoint>
            <Time>2019-05-08T07:15:34.000Z</Time>
            <Position>
              <LatitudeDegrees>42.85149768926203250885009765625</LatitudeDegrees>
              <LongitudeDegrees>0.60050477273762226104736328125</LongitudeDegrees>
            </Position>
            <AltitudeMeters>596.5999755859375</AltitudeMeters>
            <DistanceMeters>6767.4341664545</DistanceMeters>
          </Trackpoint>
          <Trackpoint>
            <Time>2019-05-08T07:15:39.000Z</Time>
            <Position>
              <LatitudeDegrees>42.85180564038455486297607421875</LatitudeDegrees>
              <LongitudeDegrees>0.6006968021392822265625</LongitudeDegrees>
            </Position>
            <AltitudeMeters>596.4000244140625</AltitudeMeters>
            <DistanceMeters>6805.1215744826</DistanceMeters>
          </Trackpoint>
          <Trackpoint>
            <Time>2019-05-08T07:15:46.000Z</Time>
            <Position>
              <LatitudeDegrees>42.8521371446549892425537109375</LatitudeDegrees>
              <LongitudeDegrees>0.60096141882240772247314453125</LongitudeDegrees>
            </Position>
            <AltitudeMeters>595.79998779296875</AltitudeMeters>
            <DistanceMeters>6847.8719799952</DistanceMeters>
          </Trackpoint>
          <Trackpoint>
            <Time>2019-05-08T07:15:51.000Z</Time>
            <Position>
              <LatitudeDegrees>42.85234845243394374847412109375</LatitudeDegrees>
              <LongitudeDegrees>0.60115973465144634246826171875</LongitudeDegrees>
            </Position>
            <AltitudeMeters>595.5999755859375</AltitudeMeters>
            <DistanceMeters>6876.4198776275</DistanceMeters>
          </Trackpoint>
          <Trackpoint>
            <Time>2019-05-08T07:15:53.000Z</Time>
            <Position>
              <LatitudeDegrees>42.8524264879524707794189453125</LatitudeDegrees>
              <LongitudeDegrees>0.6012479960918426513671875</LongitudeDegrees>
            </Position>
            <AltitudeMeters>595.5999755859375</AltitudeMeters>
            <DistanceMeters>6887.702474298</DistanceMeters>
          </Trackpoint>
          <Trackpoint>
            <Time>2019-05-08T07:15:58.000Z</Time>
            <Position>
              <LatitudeDegrees>42.852579541504383087158203125</LatitudeDegrees>
              <LongitudeDegrees>0.60142644681036472320556640625</LongitudeDegrees>
            </Position>
            <AltitudeMeters>595.5999755859375</AltitudeMeters>
            <DistanceMeters>6910.1124654054</DistanceMeters>
          </Trackpoint>
          <Trackpoint>
            <Time>2019-05-08T07:16:01.000Z</Time>
            <Position>
              <LatitudeDegrees>42.852682806551456451416015625</LatitudeDegrees>
              <LongitudeDegrees>0.60155552811920642852783203125</LongitudeDegrees>
            </Position>
            <AltitudeMeters>595.79998779296875</AltitudeMeters>
            <DistanceMeters>6925.7020605705</DistanceMeters>
          </Trackpoint>
          <Trackpoint>
            <Time>2019-05-08T07:16:04.000Z</Time>
            <Position>
              <LatitudeDegrees>42.852779366075992584228515625</LatitudeDegrees>
              <LongitudeDegrees>0.60169802047312259674072265625</LongitudeDegrees>
            </Position>
            <AltitudeMeters>595.79998779296875</AltitudeMeters>
            <DistanceMeters>6941.5350625651</DistanceMeters>
          </Trackpoint>
          <Trackpoint>
            <Time>2019-05-08T07:16:07.000Z</Time>
            <Position>
              <LatitudeDegrees>42.85287366248667240142822265625</LatitudeDegrees>
              <LongitudeDegrees>0.60183162800967693328857421875</LongitudeDegrees>
            </Position>
            <AltitudeMeters>596.4000244140625</AltitudeMeters>
            <DistanceMeters>6956.6678990018</DistanceMeters>
          </Trackpoint>
          <Trackpoint>
            <Time>2019-05-08T07:16:12.000Z</Time>
            <Position>
              <LatitudeDegrees>42.85303576849400997161865234375</LatitudeDegrees>
              <LongitudeDegrees>0.60204260051250457763671875</LongitudeDegrees>
            </Position>
            <AltitudeMeters>596.79998779296875</AltitudeMeters>
            <DistanceMeters>6981.6054871879</DistanceMeters>
          </Trackpoint>
          <Trackpoint>
            <Time>2019-05-08T07:16:14.000Z</Time>
            <Position>
              <LatitudeDegrees>42.85309410654008388519287109375</LatitudeDegrees>
              <LongitudeDegrees>0.602095909416675567626953125</LongitudeDegrees>
            </Position>
            <AltitudeMeters>596.79998779296875</AltitudeMeters>
            <DistanceMeters>6989.4208206464</DistanceMeters>
          </Trackpoint>
          <Trackpoint>
            <Time>2019-05-08T07:16:17.000Z</Time>
            <Position>
              <LatitudeDegrees>42.85323458723723888397216796875</LatitudeDegrees>
              <LongitudeDegrees>0.60204125940799713134765625</LongitudeDegrees>
            </Position>
            <AltitudeMeters>596.79998779296875</AltitudeMeters>
            <DistanceMeters>7005.6798331594</DistanceMeters>
          </Trackpoint>
          <Trackpoint>
            <Time>2019-05-08T07:16:21.000Z</Time>
            <Position>
              <LatitudeDegrees>42.85333248786628246307373046875</LatitudeDegrees>
              <LongitudeDegrees>0.60199188999831676483154296875</LongitudeDegrees>
            </Position>
            <AltitudeMeters>597.4000244140625</AltitudeMeters>
            <DistanceMeters>7017.2968247</DistanceMeters>
          </Trackpoint>
          <Trackpoint>
            <Time>2019-05-08T07:16:23.000Z</Time>
            <Position>
              <LatitudeDegrees>42.85341094247996807098388671875</LatitudeDegrees>
              <LongitudeDegrees>0.6019026227295398712158203125</LongitudeDegrees>
            </Position>
            <AltitudeMeters>597.79998779296875</AltitudeMeters>
            <DistanceMeters>7028.6683107364</DistanceMeters>
          </Trackpoint>
          <Trackpoint>
            <Time>2019-05-08T07:16:29.000Z</Time>
            <Position>
              <LatitudeDegrees>42.853504233062267303466796875</LatitudeDegrees>
              <LongitudeDegrees>0.60172685422003269195556640625</LongitudeDegrees>
            </Position>
            <AltitudeMeters>598.5999755859375</AltitudeMeters>
            <DistanceMeters>7046.3744168578</DistanceMeters>
          </Trackpoint>
          <Trackpoint>
            <Time>2019-05-08T07:16:30.000Z</Time>
            <Position>
              <LatitudeDegrees>42.8535099327564239501953125</LatitudeDegrees>
              <LongitudeDegrees>0.6016957573592662811279296875</LongitudeDegrees>
            </Position>
            <AltitudeMeters>598.79998779296875</AltitudeMeters>
            <DistanceMeters>7048.9906733331</DistanceMeters>
          </Trackpoint>
          <Trackpoint>
            <Time>2019-05-08T07:16:33.000Z</Time>
            <Position>
              <LatitudeDegrees>42.8535127826035022735595703125</LatitudeDegrees>
              <LongitudeDegrees>0.60167379677295684814453125</LongitudeDegrees>
            </Position>
            <AltitudeMeters>598.79998779296875</AltitudeMeters>
            <DistanceMeters>7050.8111232926</DistanceMeters>
          </Trackpoint>
          <Trackpoint>
            <Time>2019-05-08T07:19:07.000Z</Time>
            <Position>
              <LatitudeDegrees>42.8534873016178607940673828125</LatitudeDegrees>
              <LongitudeDegrees>0.60161721892654895782470703125</LongitudeDegrees>
            </Position>
            <AltitudeMeters>601</AltitudeMeters>
            <DistanceMeters>7056.2293128905</DistanceMeters>
          </Trackpoint>
          <Trackpoint>
            <Time>2019-05-08T07:19:08.000Z</Time>
            <Position>
              <LatitudeDegrees>42.8534665144979953765869140625</LatitudeDegrees>
              <LongitudeDegrees>0.60162015259265899658203125</LongitudeDegrees>
            </Position>
            <AltitudeMeters>601</AltitudeMeters>
            <DistanceMeters>7058.5550419784</DistanceMeters>
          </Trackpoint>
          <Trackpoint>
            <Time>2019-05-08T07:19:09.000Z</Time>
            <Position>
              <LatitudeDegrees>42.8534482419490814208984375</LatitudeDegrees>
              <LongitudeDegrees>0.6016427837312221527099609375</LongitudeDegrees>
            </Position>
            <AltitudeMeters>601</AltitudeMeters>
            <DistanceMeters>7061.3026125247</DistanceMeters>
          </Trackpoint>
          <Trackpoint>
            <Time>2019-05-08T07:19:10.000Z</Time>
            <Position>
              <LatitudeDegrees>42.85344011150300502777099609375</LatitudeDegrees>
              <LongitudeDegrees>0.60168175958096981048583984375</LongitudeDegrees>
            </Position>
            <AltitudeMeters>600.79998779296875</AltitudeMeters>
            <DistanceMeters>7064.6094875713</DistanceMeters>
          </Trackpoint>
          <Trackpoint>
            <Time>2019-05-08T07:19:12.000Z</Time>
            <Position>
              <LatitudeDegrees>42.8534323163330554962158203125</LatitudeDegrees>
              <LongitudeDegrees>0.60178066603839397430419921875</LongitudeDegrees>
            </Position>
            <AltitudeMeters>600.79998779296875</AltitudeMeters>
            <DistanceMeters>7072.7263488942</DistanceMeters>
          </Trackpoint>
          <Trackpoint>
            <Time>2019-05-08T07:19:13.000Z</Time>
            <Position>
              <LatitudeDegrees>42.853417731821537017822265625</LatitudeDegrees>
              <LongitudeDegrees>0.60183196328580379486083984375</LongitudeDegrees>
            </Position>
            <AltitudeMeters>600.79998779296875</AltitudeMeters>
            <DistanceMeters>7077.2157954773</DistanceMeters>
          </Trackpoint>
          <Trackpoint>
            <Time>2019-05-08T07:19:15.000Z</Time>
            <Position>
              <LatitudeDegrees>42.85337205044925212860107421875</LatitudeDegrees>
              <LongitudeDegrees>0.60192860662937164306640625</LongitudeDegrees>
            </Position>
            <AltitudeMeters>600.5999755859375</AltitudeMeters>
            <DistanceMeters>7086.5989316976</DistanceMeters>
          </Trackpoint>
          <Trackpoint>
            <Time>2019-05-08T07:19:16.000Z</Time>
            <Position>
              <LatitudeDegrees>42.8533411212265491485595703125</LatitudeDegrees>
              <LongitudeDegrees>0.60196523554623126983642578125</LongitudeDegrees>
            </Position>
            <AltitudeMeters>600.4000244140625</AltitudeMeters>
            <DistanceMeters>7091.1582338343</DistanceMeters>
          </Trackpoint>
          <Trackpoint>
            <Time>2019-05-08T07:19:17.000Z</Time>
            <Position>
              <LatitudeDegrees>42.85330667160451412200927734375</LatitudeDegrees>
              <LongitudeDegrees>0.60199507512152194976806640625</LongitudeDegrees>
            </Position>
            <AltitudeMeters>600.4000244140625</AltitudeMeters>
            <DistanceMeters>7095.6996757417</DistanceMeters>
          </Trackpoint>
          <Trackpoint>
            <Time>2019-05-08T07:19:18.000Z</Time>
            <Position>
              <LatitudeDegrees>42.85323056392371654510498046875</LatitudeDegrees>
              <LongitudeDegrees>0.60204285196959972381591796875</LongitudeDegrees>
            </Position>
            <AltitudeMeters>600.4000244140625</AltitudeMeters>
            <DistanceMeters>7105.0248908146</DistanceMeters>
          </Trackpoint>
          <Trackpoint>
            <Time>2019-05-08T07:19:20.000Z</Time>
            <Position>
              <LatitudeDegrees>42.85319016315042972564697265625</LatitudeDegrees>
              <LongitudeDegrees>0.6020675785839557647705078125</LongitudeDegrees>
            </Position>
            <AltitudeMeters>600</AltitudeMeters>
            <DistanceMeters>7109.9543873112</DistanceMeters>
          </Trackpoint>
          <Trackpoint>
            <Time>2019-05-08T07:19:21.000Z</Time>
            <Position>
              <LatitudeDegrees>42.85315110348165035247802734375</LatitudeDegrees>
              <LongitudeDegrees>0.6020987592637538909912109375</LongitudeDegrees>
            </Position>
            <AltitudeMeters>599.79998779296875</AltitudeMeters>
            <DistanceMeters>7114.9916995715</DistanceMeters>
          </Trackpoint>
          <Trackpoint>
            <Time>2019-05-08T07:19:23.000Z</Time>
            <Position>
              <LatitudeDegrees>42.85306611098349094390869140625</LatitudeDegrees>
              <LongitudeDegrees>0.60223563574254512786865234375</LongitudeDegrees>
            </Position>
            <AltitudeMeters>599.5999755859375</AltitudeMeters>
            <DistanceMeters>7129.6276646372</DistanceMeters>
          </Trackpoint>
          <Trackpoint>
            <Time>2019-05-08T07:19:24.000Z</Time>
            <Position>
              <LatitudeDegrees>42.85306611098349094390869140625</LatitudeDegrees>
              <LongitudeDegrees>0.60223563574254512786865234375</LongitudeDegrees>
            </Position>
            <AltitudeMeters>599.5999755859375</AltitudeMeters>
            <DistanceMeters>7129.6276646372</DistanceMeters>
          </Trackpoint>
          <Trackpoint>
            <Time>2019-05-08T07:19:25.000Z</Time>
            <Position>
              <LatitudeDegrees>42.853023111820220947265625</LatitudeDegrees>
              <LongitudeDegrees>0.6023341231048107147216796875</LongitudeDegrees>
            </Position>
            <AltitudeMeters>599.4000244140625</AltitudeMeters>
            <DistanceMeters>7138.980919717</DistanceMeters>
          </Trackpoint>
          <Trackpoint>
            <Time>2019-05-08T07:19:29.000Z</Time>
            <Position>
              <LatitudeDegrees>42.85294524393975734710693359375</LatitudeDegrees>
              <LongitudeDegrees>0.60252045281231403350830078125</LongitudeDegrees>
            </Position>
            <AltitudeMeters>599.20001220703125</AltitudeMeters>
            <DistanceMeters>7156.4813217888</DistanceMeters>
          </Trackpoint>
          <Trackpoint>
            <Time>2019-05-08T07:19:31.000Z</Time>
            <Position>
              <LatitudeDegrees>42.85292923450469970703125</LatitudeDegrees>
              <LongitudeDegrees>0.602565295994281768798828125</LongitudeDegrees>
            </Position>
            <AltitudeMeters>599.20001220703125</AltitudeMeters>
            <DistanceMeters>7160.5519716478</DistanceMeters>
          </Trackpoint>
          <Trackpoint>
            <Time>2019-05-08T07:19:37.000Z</Time>
            <Position>
              <LatitudeDegrees>42.85282798111438751220703125</LatitudeDegrees>
              <LongitudeDegrees>0.6029014103114604949951171875</LongitudeDegrees>
            </Position>
            <AltitudeMeters>599.5999755859375</AltitudeMeters>
            <DistanceMeters>7190.2027430136</DistanceMeters>
          </Trackpoint>
          <Trackpoint>
            <Time>2019-05-08T07:19:38.000Z</Time>
            <Position>
              <LatitudeDegrees>42.8528232872486114501953125</LatitudeDegrees>
              <LongitudeDegrees>0.6029460020363330841064453125</LongitudeDegrees>
            </Position>
            <AltitudeMeters>599.79998779296875</AltitudeMeters>
            <DistanceMeters>7193.8769727674</DistanceMeters>
          </Trackpoint>
          <Trackpoint>
            <Time>2019-05-08T07:19:40.000Z</Time>
            <Position>
              <LatitudeDegrees>42.85282798111438751220703125</LatitudeDegrees>
              <LongitudeDegrees>0.60298682190477848052978515625</LongitudeDegrees>
            </Position>
            <AltitudeMeters>600</AltitudeMeters>
            <DistanceMeters>7197.2474083722</DistanceMeters>
          </Trackpoint>
          <Trackpoint>
            <Time>2019-05-08T07:19:42.000Z</Time>
            <Position>
              <LatitudeDegrees>42.8528824634850025177001953125</LatitudeDegrees>
              <LongitudeDegrees>0.60303627513349056243896484375</LongitudeDegrees>
            </Position>
            <AltitudeMeters>600</AltitudeMeters>
            <DistanceMeters>7204.5316879649</DistanceMeters>
          </Trackpoint>
          <Trackpoint>
            <Time>2019-05-08T07:19:43.000Z</Time>
            <Position>
              <LatitudeDegrees>42.852940969169139862060546875</LatitudeDegrees>
              <LongitudeDegrees>0.60309126041829586029052734375</LongitudeDegrees>
            </Position>
            <AltitudeMeters>600</AltitudeMeters>
            <DistanceMeters>7212.4389156269</DistanceMeters>
          </Trackpoint>
          <Trackpoint>
            <Time>2019-05-08T07:19:46.000Z</Time>
            <Position>
              <LatitudeDegrees>42.853021435439586639404296875</LatitudeDegrees>
              <LongitudeDegrees>0.60318446718156337738037109375</LongitudeDegrees>
            </Position>
            <AltitudeMeters>600</AltitudeMeters>
            <DistanceMeters>7224.1884606681</DistanceMeters>
          </Trackpoint>
          <Trackpoint>
            <Time>2019-05-08T07:19:49.000Z</Time>
            <Position>
              <LatitudeDegrees>42.85306141711771488189697265625</LatitudeDegrees>
              <LongitudeDegrees>0.60327566228806972503662109375</LongitudeDegrees>
            </Position>
            <AltitudeMeters>600.4000244140625</AltitudeMeters>
            <DistanceMeters>7232.8583139725</DistanceMeters>
          </Trackpoint>
          <Trackpoint>
            <Time>2019-05-08T07:19:50.000Z</Time>
            <Position>
              <LatitudeDegrees>42.8530749119818210601806640625</LatitudeDegrees>
              <LongitudeDegrees>0.6033402867615222930908203125</LongitudeDegrees>
            </Position>
            <AltitudeMeters>600.4000244140625</AltitudeMeters>
            <DistanceMeters>7238.3411165845</DistanceMeters>
          </Trackpoint>
          <Trackpoint>
            <Time>2019-05-08T07:19:51.000Z</Time>
            <Position>
              <LatitudeDegrees>42.85309880040585994720458984375</LatitudeDegrees>
              <LongitudeDegrees>0.60340709052979946136474609375</LongitudeDegrees>
            </Position>
            <AltitudeMeters>600.4000244140625</AltitudeMeters>
            <DistanceMeters>7244.4064715974</DistanceMeters>
          </Trackpoint>
          <Trackpoint>
            <Time>2019-05-08T07:19:53.000Z</Time>
            <Position>
              <LatitudeDegrees>42.85321312956511974334716796875</LatitudeDegrees>
              <LongitudeDegrees>0.60356819070875644683837890625</LongitudeDegrees>
            </Position>
            <AltitudeMeters>600.5999755859375</AltitudeMeters>
            <DistanceMeters>7262.7017672645</DistanceMeters>
          </Trackpoint>
          <Trackpoint>
            <Time>2019-05-08T07:19:57.000Z</Time>
            <Position>
              <LatitudeDegrees>42.85333449952304363250732421875</LatitudeDegrees>
              <LongitudeDegrees>0.60373281128704547882080078125</LongitudeDegrees>
            </Position>
            <AltitudeMeters>600.5999755859375</AltitudeMeters>
            <DistanceMeters>7281.7519573477</DistanceMeters>
          </Trackpoint>
          <Trackpoint>
            <Time>2019-05-08T07:20:03.000Z</Time>
            <Position>
              <LatitudeDegrees>42.8536445461213588714599609375</LatitudeDegrees>
              <LongitudeDegrees>0.60414218343794345855712890625</LongitudeDegrees>
            </Position>
            <AltitudeMeters>600.20001220703125</AltitudeMeters>
            <DistanceMeters>7329.7789138034</DistanceMeters>
          </Trackpoint>
          <Trackpoint>
            <Time>2019-05-08T07:20:12.000Z</Time>
            <Position>
              <LatitudeDegrees>42.85405349917709827423095703125</LatitudeDegrees>
              <LongitudeDegrees>0.60465146787464618682861328125</LongitudeDegrees>
            </Position>
            <AltitudeMeters>599.5999755859375</AltitudeMeters>
            <DistanceMeters>7391.4119250656</DistanceMeters>
          </Trackpoint>
          <Trackpoint>
            <Time>2019-05-08T07:20:13.000Z</Time>
            <Position>
              <LatitudeDegrees>42.854099683463573455810546875</LatitudeDegrees>
              <LongitudeDegrees>0.6046998314559459686279296875</LongitudeDegrees>
            </Position>
            <AltitudeMeters>599.5999755859375</AltitudeMeters>
            <DistanceMeters>7397.8925797811</DistanceMeters>
          </Trackpoint>
          <Trackpoint>
            <Time>2019-05-08T07:20:21.000Z</Time>
            <Position>
              <LatitudeDegrees>42.85450461320579051971435546875</LatitudeDegrees>
              <LongitudeDegrees>0.60503720305860042572021484375</LongitudeDegrees>
            </Position>
            <AltitudeMeters>599.79998779296875</AltitudeMeters>
            <DistanceMeters>7450.703756443</DistanceMeters>
          </Trackpoint>
          <Trackpoint>
            <Time>2019-05-08T07:20:30.000Z</Time>
            <Position>
              <LatitudeDegrees>42.855028398334980010986328125</LatitudeDegrees>
              <LongitudeDegrees>0.60534414835274219512939453125</LongitudeDegrees>
            </Position>
            <AltitudeMeters>600.20001220703125</AltitudeMeters>
            <DistanceMeters>7514.153998062</DistanceMeters>
          </Trackpoint>
          <Trackpoint>
            <Time>2019-05-08T07:20:31.000Z</Time>
            <Position>
              <LatitudeDegrees>42.85508547909557819366455078125</LatitudeDegrees>
              <LongitudeDegrees>0.60537516139447689056396484375</LongitudeDegrees>
            </Position>
            <AltitudeMeters>600</AltitudeMeters>
            <DistanceMeters>7520.9926211619</DistanceMeters>
          </Trackpoint>
          <Trackpoint>
            <Time>2019-05-08T07:20:39.000Z</Time>
            <Position>
              <LatitudeDegrees>42.8555271215736865997314453125</LatitudeDegrees>
              <LongitudeDegrees>0.60562058351933956146240234375</LongitudeDegrees>
            </Position>
            <AltitudeMeters>600</AltitudeMeters>
            <DistanceMeters>7574.0706344029</DistanceMeters>
          </Trackpoint>
          <Trackpoint>
            <Time>2019-05-08T07:20:45.000Z</Time>
            <Position>
              <LatitudeDegrees>42.85586717538535594940185546875</LatitudeDegrees>
              <LongitudeDegrees>0.60580817051231861114501953125</LongitudeDegrees>
            </Position>
            <AltitudeMeters>600.20001220703125</AltitudeMeters>
            <DistanceMeters>7614.8969686761</DistanceMeters>
          </Trackpoint>
          <Trackpoint>
            <Time>2019-05-08T07:20:53.000Z</Time>
            <Position>
              <LatitudeDegrees>42.85631326027214527130126953125</LatitudeDegrees>
              <LongitudeDegrees>0.6060214899480342864990234375</LongitudeDegrees>
            </Position>
            <AltitudeMeters>600</AltitudeMeters>
            <DistanceMeters>7667.5093395882</DistanceMeters>
          </Trackpoint>
          <Trackpoint>
            <Time>2019-05-08T07:20:59.000Z</Time>
            <Position>
              <LatitudeDegrees>42.85667267628014087677001953125</LatitudeDegrees>
              <LongitudeDegrees>0.606094412505626678466796875</LongitudeDegrees>
            </Position>
            <AltitudeMeters>600</AltitudeMeters>
            <DistanceMeters>7707.9531155863</DistanceMeters>
          </Trackpoint>
          <Trackpoint>
            <Time>2019-05-08T07:21:06.000Z</Time>
            <Position>
              <LatitudeDegrees>42.8571062721312046051025390625</LatitudeDegrees>
              <LongitudeDegrees>0.6060714460909366607666015625</LongitudeDegrees>
            </Position>
            <AltitudeMeters>600</AltitudeMeters>
            <DistanceMeters>7756.2496894425</DistanceMeters>
          </Trackpoint>
          <Trackpoint>
            <Time>2019-05-08T07:21:13.000Z</Time>
            <Position>
              <LatitudeDegrees>42.8575270436704158782958984375</LatitudeDegrees>
              <LongitudeDegrees>0.6059537641704082489013671875</LongitudeDegrees>
            </Position>
            <AltitudeMeters>600.20001220703125</AltitudeMeters>
            <DistanceMeters>7804.0565329675</DistanceMeters>
          </Trackpoint>
          <Trackpoint>
            <Time>2019-05-08T07:21:22.000Z</Time>
            <Position>
              <LatitudeDegrees>42.85807211883366107940673828125</LatitudeDegrees>
              <LongitudeDegrees>0.60574564151465892791748046875</LongitudeDegrees>
            </Position>
            <AltitudeMeters>600.20001220703125</AltitudeMeters>
            <DistanceMeters>7867.0561629596</DistanceMeters>
          </Trackpoint>
          <Trackpoint>
            <Time>2019-05-08T07:21:23.000Z</Time>
            <Position>
              <LatitudeDegrees>42.85813204944133758544921875</LatitudeDegrees>
              <LongitudeDegrees>0.60571982525289058685302734375</LongitudeDegrees>
            </Position>
            <AltitudeMeters>600</AltitudeMeters>
            <DistanceMeters>7874.0514459596</DistanceMeters>
          </Trackpoint>
          <Trackpoint>
            <Time>2019-05-08T07:21:25.000Z</Time>
            <Position>
              <LatitudeDegrees>42.8582552634179592132568359375</LatitudeDegrees>
              <LongitudeDegrees>0.6056763231754302978515625</LongitudeDegrees>
            </Position>
            <AltitudeMeters>600</AltitudeMeters>
            <DistanceMeters>7888.2171213313</DistanceMeters>
          </Trackpoint>
          <Trackpoint>
            <Time>2019-05-08T07:21:28.000Z</Time>
            <Position>
              <LatitudeDegrees>42.8584413416683673858642578125</LatitudeDegrees>
              <LongitudeDegrees>0.60564883053302764892578125</LongitudeDegrees>
            </Position>
            <AltitudeMeters>600.20001220703125</AltitudeMeters>
            <DistanceMeters>7909.0492226132</DistanceMeters>
          </Trackpoint>
          <Trackpoint>
            <Time>2019-05-08T07:21:37.000Z</Time>
            <Position>
              <LatitudeDegrees>42.85901290364563465118408203125</LatitudeDegrees>
              <LongitudeDegrees>0.60565763153135776519775390625</LongitudeDegrees>
            </Position>
            <AltitudeMeters>600</AltitudeMeters>
            <DistanceMeters>7972.6693062677</DistanceMeters>
          </Trackpoint>
          <Trackpoint>
            <Time>2019-05-08T07:21:44.000Z</Time>
            <Position>
              <LatitudeDegrees>42.8594575636088848114013671875</LatitudeDegrees>
              <LongitudeDegrees>0.605728626251220703125</LongitudeDegrees>
            </Position>
            <AltitudeMeters>599.79998779296875</AltitudeMeters>
            <DistanceMeters>8022.4986550443</DistanceMeters>
          </Trackpoint>
          <Trackpoint>
            <Time>2019-05-08T07:21:53.000Z</Time>
            <Position>
              <LatitudeDegrees>42.8600008785724639892578125</LatitudeDegrees>
              <LongitudeDegrees>0.605902969837188720703125</LongitudeDegrees>
            </Position>
            <AltitudeMeters>599.79998779296875</AltitudeMeters>
            <DistanceMeters>8084.6209841208</DistanceMeters>
          </Trackpoint>
          <Trackpoint>
            <Time>2019-05-08T07:22:00.000Z</Time>
            <Position>
              <LatitudeDegrees>42.8604322113096714019775390625</LatitudeDegrees>
              <LongitudeDegrees>0.605923421680927276611328125</LongitudeDegrees>
            </Position>
            <AltitudeMeters>599.5999755859375</AltitudeMeters>
            <DistanceMeters>8132.6580926375</DistanceMeters>
          </Trackpoint>
          <Trackpoint>
            <Time>2019-05-08T07:22:06.000Z</Time>
            <Position>
              <LatitudeDegrees>42.86082054488360881805419921875</LatitudeDegrees>
              <LongitudeDegrees>0.60582962818443775177001953125</LongitudeDegrees>
            </Position>
            <AltitudeMeters>599.79998779296875</AltitudeMeters>
            <DistanceMeters>8176.5526179306</DistanceMeters>
          </Trackpoint>
          <Trackpoint>
            <Time>2019-05-08T07:22:09.000Z</Time>
            <Position>
              <LatitudeDegrees>42.86100612021982669830322265625</LatitudeDegrees>
              <LongitudeDegrees>0.60577447526156902313232421875</LongitudeDegrees>
            </Position>
            <AltitudeMeters>599.4000244140625</AltitudeMeters>
            <DistanceMeters>8197.6917371863</DistanceMeters>
          </Trackpoint>
          <Trackpoint>
            <Time>2019-05-08T07:22:14.000Z</Time>
            <Position>
              <LatitudeDegrees>42.86131423898041248321533203125</LatitudeDegrees>
              <LongitudeDegrees>0.60568864457309246063232421875</LongitudeDegrees>
            </Position>
            <AltitudeMeters>599</AltitudeMeters>
            <DistanceMeters>8232.6934443051</DistanceMeters>
          </Trackpoint>
          <Trackpoint>
            <Time>2019-05-08T07:22:22.000Z</Time>
            <Position>
              <LatitudeDegrees>42.86179401911795139312744140625</LatitudeDegrees>
              <LongitudeDegrees>0.60553693212568759918212890625</LongitudeDegrees>
            </Position>
            <AltitudeMeters>598.4000244140625</AltitudeMeters>
            <DistanceMeters>8287.5094461389</DistanceMeters>
          </Trackpoint>
          <Trackpoint>
            <Time>2019-05-08T07:22:30.000Z</Time>
            <Position>
              <LatitudeDegrees>42.8622950054705142974853515625</LatitudeDegrees>
              <LongitudeDegrees>0.60536979697644710540771484375</LongitudeDegrees>
            </Position>
            <AltitudeMeters>598.4000244140625</AltitudeMeters>
            <DistanceMeters>8344.9131329137</DistanceMeters>
          </Trackpoint>
          <Trackpoint>
            <Time>2019-05-08T07:22:34.000Z</Time>
            <Position>
              <LatitudeDegrees>42.8625447861850261688232421875</LatitudeDegrees>
              <LongitudeDegrees>0.60527776367962360382080078125</LongitudeDegrees>
            </Position>
            <AltitudeMeters>598.20001220703125</AltitudeMeters>
            <DistanceMeters>8373.710147345</DistanceMeters>
          </Trackpoint>
          <Trackpoint>
            <Time>2019-05-08T07:22:37.000Z</Time>
            <Position>
              <LatitudeDegrees>42.86272306926548480987548828125</LatitudeDegrees>
              <LongitudeDegrees>0.60522194020450115203857421875</LongitudeDegrees>
            </Position>
            <AltitudeMeters>598.20001220703125</AltitudeMeters>
            <DistanceMeters>8394.0693852711</DistanceMeters>
          </Trackpoint>
          <Trackpoint>
            <Time>2019-05-08T07:22:41.000Z</Time>
            <Position>
              <LatitudeDegrees>42.862961031496524810791015625</LatitudeDegrees>
              <LongitudeDegrees>0.60518757440149784088134765625</LongitudeDegrees>
            </Position>
            <AltitudeMeters>598.4000244140625</AltitudeMeters>
            <DistanceMeters>8420.7029848209</DistanceMeters>
          </Trackpoint>
          <Trackpoint>
            <Time>2019-05-08T07:22:43.000Z</Time>
            <Position>
              <LatitudeDegrees>42.86308206617832183837890625</LatitudeDegrees>
              <LongitudeDegrees>0.6051849760115146636962890625</LongitudeDegrees>
            </Position>
            <AltitudeMeters>598.4000244140625</AltitudeMeters>
            <DistanceMeters>8434.1760170214</DistanceMeters>
          </Trackpoint>
          <Trackpoint>
            <Time>2019-05-08T07:22:47.000Z</Time>
            <Position>
              <LatitudeDegrees>42.8633192740380764007568359375</LatitudeDegrees>
              <LongitudeDegrees>0.60519696213304996490478515625</LongitudeDegrees>
            </Position>
            <AltitudeMeters>598.5999755859375</AltitudeMeters>
            <DistanceMeters>8460.5958362669</DistanceMeters>
          </Trackpoint>
          <Trackpoint>
            <Time>2019-05-08T07:22:48.000Z</Time>
            <Position>
              <LatitudeDegrees>42.863378785550594329833984375</LatitudeDegrees>
              <LongitudeDegrees>0.60520215891301631927490234375</LongitudeDegrees>
            </Position>
            <AltitudeMeters>599</AltitudeMeters>
            <DistanceMeters>8467.2334369607</DistanceMeters>
          </Trackpoint>
          <Trackpoint>
            <Time>2019-05-08T07:22:51.000Z</Time>
            <Position>
              <LatitudeDegrees>42.86355388350784778594970703125</LatitudeDegrees>
              <LongitudeDegrees>0.60523099265992641448974609375</LongitudeDegrees>
            </Position>
            <AltitudeMeters>599.4000244140625</AltitudeMeters>
            <DistanceMeters>8486.8637574413</DistanceMeters>
          </Trackpoint>
          <Trackpoint>
            <Time>2019-05-08T07:22:55.000Z</Time>
            <Position>
              <LatitudeDegrees>42.86376929841935634613037109375</LatitudeDegrees>
              <LongitudeDegrees>0.6052915938198566436767578125</LongitudeDegrees>
            </Position>
            <AltitudeMeters>600</AltitudeMeters>
            <DistanceMeters>8511.344158853</DistanceMeters>
          </Trackpoint>
          <Trackpoint>
            <Time>2019-05-08T07:22:56.000Z</Time>
            <Position>
              <LatitudeDegrees>42.86381657235324382781982421875</LatitudeDegrees>
              <LongitudeDegrees>0.60531087219715118408203125</LongitudeDegrees>
            </Position>
            <AltitudeMeters>600.20001220703125</AltitudeMeters>
            <DistanceMeters>8516.8360123946</DistanceMeters>
          </Trackpoint>
          <Trackpoint>
            <Time>2019-05-08T07:22:58.000Z</Time>
            <Position>
              <LatitudeDegrees>42.86391086876392364501953125</LatitudeDegrees>
              <LongitudeDegrees>0.60535152442753314971923828125</LongitudeDegrees>
            </Position>
            <AltitudeMeters>600.4000244140625</AltitudeMeters>
            <DistanceMeters>8527.8431253517</DistanceMeters>
          </Trackpoint>
          <Trackpoint>
            <Time>2019-05-08T07:23:01.000Z</Time>
            <Position>
              <LatitudeDegrees>42.86405679769814014434814453125</LatitudeDegrees>
              <LongitudeDegrees>0.60538739897310733795166015625</LongitudeDegrees>
            </Position>
            <AltitudeMeters>600.79998779296875</AltitudeMeters>
            <DistanceMeters>8544.347162005</DistanceMeters>
          </Trackpoint>
          <Trackpoint>
            <Time>2019-05-08T07:23:03.000Z</Time>
            <Position>
              <LatitudeDegrees>42.8641556203365325927734375</LatitudeDegrees>
              <LongitudeDegrees>0.60538723133504390716552734375</LongitudeDegrees>
            </Position>
            <AltitudeMeters>601</AltitudeMeters>
            <DistanceMeters>8555.3464785382</DistanceMeters>
          </Trackpoint>
          <Trackpoint>
            <Time>2019-05-08T07:23:05.000Z</Time>
            <Position>
              <LatitudeDegrees>42.86423809826374053955078125</LatitudeDegrees>
              <LongitudeDegrees>0.60541388578712940216064453125</LongitudeDegrees>
            </Position>
            <AltitudeMeters>601.5999755859375</AltitudeMeters>
            <DistanceMeters>8564.780482642</DistanceMeters>
          </Trackpoint>
          <Trackpoint>
            <Time>2019-05-08T07:23:07.000Z</Time>
            <Position>
              <LatitudeDegrees>42.86431680433452129364013671875</LatitudeDegrees>
              <LongitudeDegrees>0.60546400956809520721435546875</LongitudeDegrees>
            </Position>
            <AltitudeMeters>601.79998779296875</AltitudeMeters>
            <DistanceMeters>8574.4480206531</DistanceMeters>
          </Trackpoint>
          <Trackpoint>
            <Time>2019-05-08T07:23:08.000Z</Time>
            <Position>
              <LatitudeDegrees>42.86436156369745731353759765625</LatitudeDegrees>
              <LongitudeDegrees>0.6054827012121677398681640625</LongitudeDegrees>
            </Position>
            <AltitudeMeters>602</AltitudeMeters>
            <DistanceMeters>8579.6571837062</DistanceMeters>
          </Trackpoint>
          <Trackpoint>
            <Time>2019-05-08T07:23:10.000Z</Time>
            <Position>
              <LatitudeDegrees>42.86445141769945621490478515625</LatitudeDegrees>
              <LongitudeDegrees>0.60547046363353729248046875</LongitudeDegrees>
            </Position>
            <AltitudeMeters>602.4000244140625</AltitudeMeters>
            <DistanceMeters>8589.7075784796</DistanceMeters>
          </Trackpoint>
          <Trackpoint>
            <Time>2019-05-08T07:23:16.000Z</Time>
            <Position>
              <LatitudeDegrees>42.8646918945014476776123046875</LatitudeDegrees>
              <LongitudeDegrees>0.60541287995874881744384765625</LongitudeDegrees>
            </Position>
            <AltitudeMeters>603.79998779296875</AltitudeMeters>
            <DistanceMeters>8616.8822282738</DistanceMeters>
          </Trackpoint>
          <Trackpoint>
            <Time>2019-05-08T07:23:20.000Z</Time>
            <Position>
              <LatitudeDegrees>42.86483732052147388458251953125</LatitudeDegrees>
              <LongitudeDegrees>0.6054441444575786590576171875</LongitudeDegrees>
            </Position>
            <AltitudeMeters>604.20001220703125</AltitudeMeters>
            <DistanceMeters>8633.2682068221</DistanceMeters>
          </Trackpoint>
          <Trackpoint>
            <Time>2019-05-08T07:23:22.000Z</Time>
            <Position>
              <LatitudeDegrees>42.86487386561930179595947265625</LatitudeDegrees>
              <LongitudeDegrees>0.6054501794278621673583984375</LongitudeDegrees>
            </Position>
            <AltitudeMeters>604.20001220703125</AltitudeMeters>
            <DistanceMeters>8637.3664920959</DistanceMeters>
          </Trackpoint>
          <Trackpoint>
            <Time>2019-05-08T07:23:24.000Z</Time>
            <Position>
              <LatitudeDegrees>42.864987440407276153564453125</LatitudeDegrees>
              <LongitudeDegrees>0.605465434491634368896484375</LongitudeDegrees>
            </Position>
            <AltitudeMeters>604.4000244140625</AltitudeMeters>
            <DistanceMeters>8650.0684752412</DistanceMeters>
          </Trackpoint>
          <Trackpoint>
            <Time>2019-05-08T07:23:27.000Z</Time>
            <Position>
              <LatitudeDegrees>42.86511073820292949676513671875</LatitudeDegrees>
              <LongitudeDegrees>0.6054873950779438018798828125</LongitudeDegrees>
            </Position>
            <AltitudeMeters>604.5999755859375</AltitudeMeters>
            <DistanceMeters>8663.9084890248</DistanceMeters>
          </Trackpoint>
          <Trackpoint>
            <Time>2019-05-08T07:23:34.000Z</Time>
            <Position>
              <LatitudeDegrees>42.8654377162456512451171875</LatitudeDegrees>
              <LongitudeDegrees>0.6055422127246856689453125</LongitudeDegrees>
            </Position>
            <AltitudeMeters>604.79998779296875</AltitudeMeters>
            <DistanceMeters>8700.5755044691</DistanceMeters>
          </Trackpoint>
          <Trackpoint>
            <Time>2019-05-08T07:23:35.000Z</Time>
            <Position>
              <LatitudeDegrees>42.8654844872653484344482421875</LatitudeDegrees>
              <LongitudeDegrees>0.60556341893970966339111328125</LongitudeDegrees>
            </Position>
            <AltitudeMeters>604.79998779296875</AltitudeMeters>
            <DistanceMeters>8706.0607769975</DistanceMeters>
          </Trackpoint>
          <Trackpoint>
            <Time>2019-05-08T07:23:39.000Z</Time>
            <Position>
              <LatitudeDegrees>42.8656883351504802703857421875</LatitudeDegrees>
              <LongitudeDegrees>0.60566316358745098114013671875</LongitudeDegrees>
            </Position>
            <AltitudeMeters>604.79998779296875</AltitudeMeters>
            <DistanceMeters>8730.1646173224</DistanceMeters>
          </Trackpoint>
          <Trackpoint>
            <Time>2019-05-08T07:23:40.000Z</Time>
            <Position>
              <LatitudeDegrees>42.86574147641658782958984375</LatitudeDegrees>
              <LongitudeDegrees>0.60569836758077144622802734375</LongitudeDegrees>
            </Position>
            <AltitudeMeters>604.79998779296875</AltitudeMeters>
            <DistanceMeters>8736.7400265122</DistanceMeters>
          </Trackpoint>
          <Trackpoint>
            <Time>2019-05-08T07:23:41.000Z</Time>
            <Position>
              <LatitudeDegrees>42.865794785320758819580078125</LatitudeDegrees>
              <LongitudeDegrees>0.60574145056307315826416015625</LongitudeDegrees>
            </Position>
            <AltitudeMeters>604.5999755859375</AltitudeMeters>
            <DistanceMeters>8743.635850071</DistanceMeters>
          </Trackpoint>
          <Trackpoint>
            <Time>2019-05-08T07:23:45.000Z</Time>
            <Position>
              <LatitudeDegrees>42.86600659601390361785888671875</LatitudeDegrees>
              <LongitudeDegrees>0.6059618107974529266357421875</LongitudeDegrees>
            </Position>
            <AltitudeMeters>604</AltitudeMeters>
            <DistanceMeters>8773.2828143451</DistanceMeters>
          </Trackpoint>
          <Trackpoint>
            <Time>2019-05-08T07:23:47.000Z</Time>
            <Position>
              <LatitudeDegrees>42.86610986106097698211669921875</LatitudeDegrees>
              <LongitudeDegrees>0.6060915626585483551025390625</LongitudeDegrees>
            </Position>
            <AltitudeMeters>603.4000244140625</AltitudeMeters>
            <DistanceMeters>8788.9077030404</DistanceMeters>
          </Trackpoint>
          <Trackpoint>
            <Time>2019-05-08T07:23:50.000Z</Time>
            <Position>
              <LatitudeDegrees>42.86626542918384075164794921875</LatitudeDegrees>
              <LongitudeDegrees>0.606294237077236175537109375</LongitudeDegrees>
            </Position>
            <AltitudeMeters>602.79998779296875</AltitudeMeters>
            <DistanceMeters>8812.8487780414</DistanceMeters>
          </Trackpoint>
          <Trackpoint>
            <Time>2019-05-08T07:23:51.000Z</Time>
            <Position>
              <LatitudeDegrees>42.8663176484405994415283203125</LatitudeDegrees>
              <LongitudeDegrees>0.60636137612164020538330078125</LongitudeDegrees>
            </Position>
            <AltitudeMeters>602.5999755859375</AltitudeMeters>
            <DistanceMeters>8820.8344151385</DistanceMeters>
          </Trackpoint>
          <Trackpoint>
            <Time>2019-05-08T07:23:52.000Z</Time>
            <Position>
              <LatitudeDegrees>42.8663176484405994415283203125</LatitudeDegrees>
              <LongitudeDegrees>0.60636137612164020538330078125</LongitudeDegrees>
            </Position>
            <AltitudeMeters>602.4000244140625</AltitudeMeters>
            <DistanceMeters>8820.8344151385</DistanceMeters>
          </Trackpoint>
          <Trackpoint>
            <Time>2019-05-08T07:23:53.000Z</Time>
            <Position>
              <LatitudeDegrees>42.86643222905695438385009765625</LatitudeDegrees>
              <LongitudeDegrees>0.60647972859442234039306640625</LongitudeDegrees>
            </Position>
            <AltitudeMeters>602.20001220703125</AltitudeMeters>
            <DistanceMeters>8836.829982836</DistanceMeters>
          </Trackpoint>
          <Trackpoint>
            <Time>2019-05-08T07:23:55.000Z</Time>
            <Position>
              <LatitudeDegrees>42.866493165493011474609375</LatitudeDegrees>
              <LongitudeDegrees>0.6065317802131175994873046875</LongitudeDegrees>
            </Position>
            <AltitudeMeters>601.5999755859375</AltitudeMeters>
            <DistanceMeters>8844.8325638034</DistanceMeters>
          </Trackpoint>
          <Trackpoint>
            <Time>2019-05-08T07:23:59.000Z</Time>
            <Position>
              <LatitudeDegrees>42.86682081408798694610595703125</LatitudeDegrees>
              <LongitudeDegrees>0.6067436747252941131591796875</LongitudeDegrees>
            </Position>
            <AltitudeMeters>601</AltitudeMeters>
            <DistanceMeters>8885.1898399481</DistanceMeters>
          </Trackpoint>
          <Trackpoint>
            <Time>2019-05-08T07:24:00.000Z</Time>
            <Position>
              <LatitudeDegrees>42.86689071916043758392333984375</LatitudeDegrees>
              <LongitudeDegrees>0.60678005218505859375</LongitudeDegrees>
            </Position>
            <AltitudeMeters>600.5999755859375</AltitudeMeters>
            <DistanceMeters>8893.5170217651</DistanceMeters>
          </Trackpoint>
          <Trackpoint>
            <Time>2019-05-08T07:24:05.000Z</Time>
            <Position>
              <LatitudeDegrees>42.8671595267951488494873046875</LatitudeDegrees>
              <LongitudeDegrees>0.60697744600474834442138671875</LongitudeDegrees>
            </Position>
            <AltitudeMeters>599.5999755859375</AltitudeMeters>
            <DistanceMeters>8927.4940889267</DistanceMeters>
          </Trackpoint>
          <Trackpoint>
            <Time>2019-05-08T07:24:06.000Z</Time>
            <Position>
              <LatitudeDegrees>42.86722884513437747955322265625</LatitudeDegrees>
              <LongitudeDegrees>0.6070259772241115570068359375</LongitudeDegrees>
            </Position>
            <AltitudeMeters>599.5999755859375</AltitudeMeters>
            <DistanceMeters>8936.1660250787</DistanceMeters>
          </Trackpoint>
          <Trackpoint>
            <Time>2019-05-08T07:24:08.000Z</Time>
            <Position>
              <LatitudeDegrees>42.86744459532201290130615234375</LatitudeDegrees>
              <LongitudeDegrees>0.60716737993061542510986328125</LongitudeDegrees>
            </Position>
            <AltitudeMeters>599.20001220703125</AltitudeMeters>
            <DistanceMeters>8962.8062352498</DistanceMeters>
          </Trackpoint>
          <Trackpoint>
            <Time>2019-05-08T07:24:09.000Z</Time>
            <Position>
              <LatitudeDegrees>42.8675182722508907318115234375</LatitudeDegrees>
              <LongitudeDegrees>0.60721297748386859893798828125</LongitudeDegrees>
            </Position>
            <AltitudeMeters>599</AltitudeMeters>
            <DistanceMeters>8971.8112386628</DistanceMeters>
          </Trackpoint>
          <Trackpoint>
            <Time>2019-05-08T07:24:10.000Z</Time>
            <Position>
              <LatitudeDegrees>42.86759220063686370849609375</LatitudeDegrees>
              <LongitudeDegrees>0.60725773684680461883544921875</LongitudeDegrees>
            </Position>
            <AltitudeMeters>598.5999755859375</AltitudeMeters>
            <DistanceMeters>8980.81323322</DistanceMeters>
          </Trackpoint>
          <Trackpoint>
            <Time>2019-05-08T07:24:14.000Z</Time>
            <Position>
              <LatitudeDegrees>42.86788724362850189208984375</LatitudeDegrees>
              <LongitudeDegrees>0.6074403785169124603271484375</LongitudeDegrees>
            </Position>
            <AltitudeMeters>597.79998779296875</AltitudeMeters>
            <DistanceMeters>9016.8738367679</DistanceMeters>
          </Trackpoint>
          <Trackpoint>
            <Time>2019-05-08T07:24:17.000Z</Time>
            <Position>
              <LatitudeDegrees>42.86803619004786014556884765625</LatitudeDegrees>
              <LongitudeDegrees>0.6075315736234188079833984375</LongitudeDegrees>
            </Position>
            <AltitudeMeters>596.79998779296875</AltitudeMeters>
            <DistanceMeters>9035.0445746477</DistanceMeters>
          </Trackpoint>
          <Trackpoint>
            <Time>2019-05-08T07:24:19.000Z</Time>
            <Position>
              <LatitudeDegrees>42.86825797520577907562255859375</LatitudeDegrees>
              <LongitudeDegrees>0.6076556257903575897216796875</LongitudeDegrees>
            </Position>
            <AltitudeMeters>596.20001220703125</AltitudeMeters>
            <DistanceMeters>9061.7235679845</DistanceMeters>
          </Trackpoint>
          <Trackpoint>
            <Time>2019-05-08T07:24:21.000Z</Time>
            <Position>
              <LatitudeDegrees>42.8684069216251373291015625</LatitudeDegrees>
              <LongitudeDegrees>0.60774288140237331390380859375</LongitudeDegrees>
            </Position>
            <AltitudeMeters>596</AltitudeMeters>
            <DistanceMeters>9079.7651348649</DistanceMeters>
          </Trackpoint>
          <Trackpoint>
            <Time>2019-05-08T07:24:24.000Z</Time>
            <Position>
              <LatitudeDegrees>42.8686357475817203521728515625</LatitudeDegrees>
              <LongitudeDegrees>0.60787464492022991180419921875</LongitudeDegrees>
            </Position>
            <AltitudeMeters>595.20001220703125</AltitudeMeters>
            <DistanceMeters>9107.4090904289</DistanceMeters>
          </Trackpoint>
          <Trackpoint>
            <Time>2019-05-08T07:24:28.000Z</Time>
            <Position>
              <LatitudeDegrees>42.8688660822808742523193359375</LatitudeDegrees>
              <LongitudeDegrees>0.60800992883741855621337890625</LongitudeDegrees>
            </Position>
            <AltitudeMeters>593.5999755859375</AltitudeMeters>
            <DistanceMeters>9135.3202660562</DistanceMeters>
          </Trackpoint>
          <Trackpoint>
            <Time>2019-05-08T07:24:29.000Z</Time>
            <Position>
              <LatitudeDegrees>42.86894059740006923675537109375</LatitudeDegrees>
              <LongitudeDegrees>0.608064830303192138671875</LongitudeDegrees>
            </Position>
            <AltitudeMeters>593.20001220703125</AltitudeMeters>
            <DistanceMeters>9144.7456515685</DistanceMeters>
          </Trackpoint>
          <Trackpoint>
            <Time>2019-05-08T07:24:31.000Z</Time>
            <Position>
              <LatitudeDegrees>42.86912416107952594757080078125</LatitudeDegrees>
              <LongitudeDegrees>0.60829893685877323150634765625</LongitudeDegrees>
            </Position>
            <AltitudeMeters>592.79998779296875</AltitudeMeters>
            <DistanceMeters>9172.7120959446</DistanceMeters>
          </Trackpoint>
          <Trackpoint>
            <Time>2019-05-08T07:24:38.000Z</Time>
            <Position>
              <LatitudeDegrees>42.8694786317646503448486328125</LatitudeDegrees>
              <LongitudeDegrees>0.60888298787176609039306640625</LongitudeDegrees>
            </Position>
            <AltitudeMeters>591</AltitudeMeters>
            <DistanceMeters>9234.5704726841</DistanceMeters>
          </Trackpoint>
          <Trackpoint>
            <Time>2019-05-08T07:24:42.000Z</Time>
            <Position>
              <LatitudeDegrees>42.86969840526580810546875</LatitudeDegrees>
              <LongitudeDegrees>0.60917015187442302703857421875</LongitudeDegrees>
            </Position>
            <AltitudeMeters>590.79998779296875</AltitudeMeters>
            <DistanceMeters>9268.439198829</DistanceMeters>
          </Trackpoint>
          <Trackpoint>
            <Time>2019-05-08T07:24:44.000Z</Time>
            <Position>
              <LatitudeDegrees>42.86978968419134616851806640625</LatitudeDegrees>
              <LongitudeDegrees>0.609330832958221435546875</LongitudeDegrees>
            </Position>
            <AltitudeMeters>590.5999755859375</AltitudeMeters>
            <DistanceMeters>9285.0229260391</DistanceMeters>
          </Trackpoint>
          <Trackpoint>
            <Time>2019-05-08T07:24:47.000Z</Time>
            <Position>
              <LatitudeDegrees>42.8699399717152118682861328125</LatitudeDegrees>
              <LongitudeDegrees>0.60955689288675785064697265625</LongitudeDegrees>
            </Position>
            <AltitudeMeters>590.20001220703125</AltitudeMeters>
            <DistanceMeters>9309.919925204</DistanceMeters>
          </Trackpoint>
          <Trackpoint>
            <Time>2019-05-08T07:24:49.000Z</Time>
            <Position>
              <LatitudeDegrees>42.870048098266124725341796875</LatitudeDegrees>
              <LongitudeDegrees>0.60969133861362934112548828125</LongitudeDegrees>
            </Position>
            <AltitudeMeters>590.20001220703125</AltitudeMeters>
            <DistanceMeters>9326.2022473455</DistanceMeters>
          </Trackpoint>
          <Trackpoint>
            <Time>2019-05-08T07:24:51.000Z</Time>
            <Position>
              <LatitudeDegrees>42.8701565600931644439697265625</LatitudeDegrees>
              <LongitudeDegrees>0.60982695780694484710693359375</LongitudeDegrees>
            </Position>
            <AltitudeMeters>590</AltitudeMeters>
            <DistanceMeters>9342.576649007</DistanceMeters>
          </Trackpoint>
          <Trackpoint>
            <Time>2019-05-08T07:24:56.000Z</Time>
            <Position>
              <LatitudeDegrees>42.87042771466076374053955078125</LatitudeDegrees>
              <LongitudeDegrees>0.6101202405989170074462890625</LongitudeDegrees>
            </Position>
            <AltitudeMeters>589.79998779296875</AltitudeMeters>
            <DistanceMeters>9381.0887383537</DistanceMeters>
          </Trackpoint>
          <Trackpoint>
            <Time>2019-05-08T07:25:05.000Z</Time>
            <Position>
              <LatitudeDegrees>42.870925180613994598388671875</LatitudeDegrees>
              <LongitudeDegrees>0.61056666076183319091796875</LongitudeDegrees>
            </Position>
            <AltitudeMeters>588.79998779296875</AltitudeMeters>
            <DistanceMeters>9447.3593633599</DistanceMeters>
          </Trackpoint>
          <Trackpoint>
            <Time>2019-05-08T07:25:08.000Z</Time>
            <Position>
              <LatitudeDegrees>42.87109625525772571563720703125</LatitudeDegrees>
              <LongitudeDegrees>0.61067394912242889404296875</LongitudeDegrees>
            </Position>
            <AltitudeMeters>588.5999755859375</AltitudeMeters>
            <DistanceMeters>9468.3150701613</DistanceMeters>
          </Trackpoint>
          <Trackpoint>
            <Time>2019-05-08T07:25:09.000Z</Time>
            <Position>
              <LatitudeDegrees>42.8711318783462047576904296875</LatitudeDegrees>
              <LongitudeDegrees>0.61073455028235912322998046875</LongitudeDegrees>
            </Position>
            <AltitudeMeters>588.79998779296875</AltitudeMeters>
            <DistanceMeters>9474.6512930006</DistanceMeters>
          </Trackpoint>
          <Trackpoint>
            <Time>2019-05-08T07:25:13.000Z</Time>
            <Position>
              <LatitudeDegrees>42.87127017974853515625</LatitudeDegrees>
              <LongitudeDegrees>0.61098047532141208648681640625</LongitudeDegrees>
            </Position>
            <AltitudeMeters>588.5999755859375</AltitudeMeters>
            <DistanceMeters>9499.9369714084</DistanceMeters>
          </Trackpoint>
          <Trackpoint>
            <Time>2019-05-08T07:25:14.000Z</Time>
            <Position>
              <LatitudeDegrees>42.87132256664335727691650390625</LatitudeDegrees>
              <LongitudeDegrees>0.61101886443793773651123046875</LongitudeDegrees>
            </Position>
            <AltitudeMeters>588.5999755859375</AltitudeMeters>
            <DistanceMeters>9506.5554984975</DistanceMeters>
          </Trackpoint>
          <Trackpoint>
            <Time>2019-05-08T07:25:15.000Z</Time>
            <Position>
              <LatitudeDegrees>42.87137839011847972869873046875</LatitudeDegrees>
              <LongitudeDegrees>0.61104618944227695465087890625</LongitudeDegrees>
            </Position>
            <AltitudeMeters>588.79998779296875</AltitudeMeters>
            <DistanceMeters>9513.1569490138</DistanceMeters>
          </Trackpoint>
          <Trackpoint>
            <Time>2019-05-08T07:25:18.000Z</Time>
            <Position>
              <LatitudeDegrees>42.871566228568553924560546875</LatitudeDegrees>
              <LongitudeDegrees>0.611113496124744415283203125</LongitudeDegrees>
            </Position>
            <AltitudeMeters>588.79998779296875</AltitudeMeters>
            <DistanceMeters>9534.7725502167</DistanceMeters>
          </Trackpoint>
          <Trackpoint>
            <Time>2019-05-08T07:25:19.000Z</Time>
            <Position>
              <LatitudeDegrees>42.87163160741329193115234375</LatitudeDegrees>
              <LongitudeDegrees>0.61113939620554447174072265625</LongitudeDegrees>
            </Position>
            <AltitudeMeters>588.5999755859375</AltitudeMeters>
            <DistanceMeters>9542.3497017943</DistanceMeters>
          </Trackpoint>
          <Trackpoint>
            <Time>2019-05-08T07:25:22.000Z</Time>
            <Position>
              <LatitudeDegrees>42.87183671258389949798583984375</LatitudeDegrees>
              <LongitudeDegrees>0.6112097203731536865234375</LongitudeDegrees>
            </Position>
            <AltitudeMeters>588.5999755859375</AltitudeMeters>
            <DistanceMeters>9565.8879551343</DistanceMeters>
          </Trackpoint>
          <Trackpoint>
            <Time>2019-05-08T07:25:26.000Z</Time>
            <Position>
              <LatitudeDegrees>42.87211163900792598724365234375</LatitudeDegrees>
              <LongitudeDegrees>0.6113279052078723907470703125</LongitudeDegrees>
            </Position>
            <AltitudeMeters>588.4000244140625</AltitudeMeters>
            <DistanceMeters>9597.9702743041</DistanceMeters>
          </Trackpoint>
          <Trackpoint>
            <Time>2019-05-08T07:25:34.000Z</Time>
            <Position>
              <LatitudeDegrees>42.87261304445564746856689453125</LatitudeDegrees>
              <LongitudeDegrees>0.6116229481995105743408203125</LongitudeDegrees>
            </Position>
            <AltitudeMeters>587.4000244140625</AltitudeMeters>
            <DistanceMeters>9658.7459316746</DistanceMeters>
          </Trackpoint>
          <Trackpoint>
            <Time>2019-05-08T07:25:40.000Z</Time>
            <Position>
              <LatitudeDegrees>42.87294865585863590240478515625</LatitudeDegrees>
              <LongitudeDegrees>0.61185822822153568267822265625</LongitudeDegrees>
            </Position>
            <AltitudeMeters>587.4000244140625</AltitudeMeters>
            <DistanceMeters>9700.7418267144</DistanceMeters>
          </Trackpoint>
          <Trackpoint>
            <Time>2019-05-08T07:25:43.000Z</Time>
            <Position>
              <LatitudeDegrees>42.87305527366697788238525390625</LatitudeDegrees>
              <LongitudeDegrees>0.6119307316839694976806640625</LongitudeDegrees>
            </Position>
            <AltitudeMeters>587.4000244140625</AltitudeMeters>
            <DistanceMeters>9714.0000116603</DistanceMeters>
          </Trackpoint>
          <Trackpoint>
            <Time>2019-05-08T07:25:46.000Z</Time>
            <Position>
              <LatitudeDegrees>42.8732112608850002288818359375</LatitudeDegrees>
              <LongitudeDegrees>0.6120430491864681243896484375</LongitudeDegrees>
            </Position>
            <AltitudeMeters>587.79998779296875</AltitudeMeters>
            <DistanceMeters>9733.6305621428</DistanceMeters>
          </Trackpoint>
          <Trackpoint>
            <Time>2019-05-08T07:25:50.000Z</Time>
            <Position>
              <LatitudeDegrees>42.87341929972171783447265625</LatitudeDegrees>
              <LongitudeDegrees>0.612192414700984954833984375</LongitudeDegrees>
            </Position>
            <AltitudeMeters>588.20001220703125</AltitudeMeters>
            <DistanceMeters>9759.7955428522</DistanceMeters>
          </Trackpoint>
          <Trackpoint>
            <Time>2019-05-08T07:25:58.000Z</Time>
            <Position>
              <LatitudeDegrees>42.87390938960015773773193359375</LatitudeDegrees>
              <LongitudeDegrees>0.61247278936207294464111328125</LongitudeDegrees>
            </Position>
            <AltitudeMeters>588.20001220703125</AltitudeMeters>
            <DistanceMeters>9818.9436233491</DistanceMeters>
          </Trackpoint>
          <Trackpoint>
            <Time>2019-05-08T07:26:02.000Z</Time>
            <Position>
              <LatitudeDegrees>42.87414156831800937652587890625</LatitudeDegrees>
              <LongitudeDegrees>0.6125774793326854705810546875</LongitudeDegrees>
            </Position>
            <AltitudeMeters>588.4000244140625</AltitudeMeters>
            <DistanceMeters>9846.1597786718</DistanceMeters>
          </Trackpoint>
          <Trackpoint>
            <Time>2019-05-08T07:26:06.000Z</Time>
            <Position>
              <LatitudeDegrees>42.8743793629109859466552734375</LatitudeDegrees>
              <LongitudeDegrees>0.61269373632967472076416015625</LongitudeDegrees>
            </Position>
            <AltitudeMeters>588.20001220703125</AltitudeMeters>
            <DistanceMeters>9874.2743599664</DistanceMeters>
          </Trackpoint>
          <Trackpoint>
            <Time>2019-05-08T07:26:07.000Z</Time>
            <Position>
              <LatitudeDegrees>42.8744390420615673065185546875</LatitudeDegrees>
              <LongitudeDegrees>0.6127223186194896697998046875</LongitudeDegrees>
            </Position>
            <AltitudeMeters>588</AltitudeMeters>
            <DistanceMeters>9881.314037482</DistanceMeters>
          </Trackpoint>
          <Trackpoint>
            <Time>2019-05-08T07:26:10.000Z</Time>
            <Position>
              <LatitudeDegrees>42.87461531348526477813720703125</LatitudeDegrees>
              <LongitudeDegrees>0.612812675535678863525390625</LongitudeDegrees>
            </Position>
            <AltitudeMeters>587.79998779296875</AltitudeMeters>
            <DistanceMeters>9902.2718987353</DistanceMeters>
          </Trackpoint>
          <Trackpoint>
            <Time>2019-05-08T07:26:17.000Z</Time>
            <Position>
              <LatitudeDegrees>42.87497523240745067596435546875</LatitudeDegrees>
              <LongitudeDegrees>0.61296815983951091766357421875</LongitudeDegrees>
            </Position>
            <AltitudeMeters>587.5999755859375</AltitudeMeters>
            <DistanceMeters>9944.2911172762</DistanceMeters>
          </Trackpoint>
          <Trackpoint>
            <Time>2019-05-08T07:26:20.000Z</Time>
            <Position>
              <LatitudeDegrees>42.8751531802117824554443359375</LatitudeDegrees>
              <LongitudeDegrees>0.61305231414735317230224609375</LongitudeDegrees>
            </Position>
            <AltitudeMeters>587.4000244140625</AltitudeMeters>
            <DistanceMeters>9965.2528559847</DistanceMeters>
          </Trackpoint>
          <Trackpoint>
            <Time>2019-05-08T07:26:24.000Z</Time>
            <Position>
              <LatitudeDegrees>42.8754445351660251617431640625</LatitudeDegrees>
              <LongitudeDegrees>0.61318391002714633941650390625</LongitudeDegrees>
            </Position>
            <AltitudeMeters>586.79998779296875</AltitudeMeters>
            <DistanceMeters>9999.4114902905</DistanceMeters>
          </Trackpoint>
          <Trackpoint>
            <Time>2019-05-08T07:26:25.000Z</Time>
            <Position>
              <LatitudeDegrees>42.8755018673837184906005859375</LatitudeDegrees>
              <LongitudeDegrees>0.6132054515182971954345703125</LongitudeDegrees>
            </Position>
            <AltitudeMeters>586.5999755859375</AltitudeMeters>
            <DistanceMeters>10006.030699526</DistanceMeters>
          </Trackpoint>
          <Trackpoint>
            <Time>2019-05-08T07:26:27.000Z</Time>
            <Position>
              <LatitudeDegrees>42.87562139332294464111328125</LatitudeDegrees>
              <LongitudeDegrees>0.61321291141211986541748046875</LongitudeDegrees>
            </Position>
            <AltitudeMeters>586.5999755859375</AltitudeMeters>
            <DistanceMeters>10019.348346895</DistanceMeters>
          </Trackpoint>
          <Trackpoint>
            <Time>2019-05-08T07:26:28.000Z</Time>
            <Position>
              <LatitudeDegrees>42.87567998282611370086669921875</LatitudeDegrees>
              <LongitudeDegrees>0.6131972372531890869140625</LongitudeDegrees>
            </Position>
            <AltitudeMeters>586.4000244140625</AltitudeMeters>
            <DistanceMeters>10025.993425812</DistanceMeters>
          </Trackpoint>
          <Trackpoint>
            <Time>2019-05-08T07:26:30.000Z</Time>
            <Position>
              <LatitudeDegrees>42.87578324787318706512451171875</LatitudeDegrees>
              <LongitudeDegrees>0.61311115510761737823486328125</LongitudeDegrees>
            </Position>
            <AltitudeMeters>586.4000244140625</AltitudeMeters>
            <DistanceMeters>10039.462436011</DistanceMeters>
          </Trackpoint>
          <Trackpoint>
            <Time>2019-05-08T07:26:31.000Z</Time>
            <Position>
              <LatitudeDegrees>42.87578324787318706512451171875</LatitudeDegrees>
              <LongitudeDegrees>0.61311115510761737823486328125</LongitudeDegrees>
            </Position>
            <AltitudeMeters>586.4000244140625</AltitudeMeters>
            <DistanceMeters>10039.462436011</DistanceMeters>
          </Trackpoint>
          <Trackpoint>
            <Time>2019-05-08T07:26:33.000Z</Time>
            <Position>
              <LatitudeDegrees>42.87586991675198078155517578125</LatitudeDegrees>
              <LongitudeDegrees>0.6129238195717334747314453125</LongitudeDegrees>
            </Position>
            <AltitudeMeters>586.4000244140625</AltitudeMeters>
            <DistanceMeters>10057.53250973</DistanceMeters>
          </Trackpoint>
          <Trackpoint>
            <Time>2019-05-08T07:26:35.000Z</Time>
            <Position>
              <LatitudeDegrees>42.875900678336620330810546875</LatitudeDegrees>
              <LongitudeDegrees>0.61284276656806468963623046875</LongitudeDegrees>
            </Position>
            <AltitudeMeters>586.4000244140625</AltitudeMeters>
            <DistanceMeters>10064.977414647</DistanceMeters>
          </Trackpoint>
          <Trackpoint>
            <Time>2019-05-08T07:26:37.000Z</Time>
            <Position>
              <LatitudeDegrees>42.87592037580907344818115234375</LatitudeDegrees>
              <LongitudeDegrees>0.61276204884052276611328125</LongitudeDegrees>
            </Position>
            <AltitudeMeters>586.5999755859375</AltitudeMeters>
            <DistanceMeters>10071.916317125</DistanceMeters>
          </Trackpoint>
          <Trackpoint>
            <Time>2019-05-08T07:26:39.000Z</Time>
            <Position>
              <LatitudeDegrees>42.87594635970890522003173828125</LatitudeDegrees>
              <LongitudeDegrees>0.61267797835171222686767578125</LongitudeDegrees>
            </Position>
            <AltitudeMeters>586.5999755859375</AltitudeMeters>
            <DistanceMeters>10079.358795805</DistanceMeters>
          </Trackpoint>
          <Trackpoint>
            <Time>2019-05-08T07:26:41.000Z</Time>
            <Position>
              <LatitudeDegrees>42.875973097980022430419921875</LatitudeDegrees>
              <LongitudeDegrees>0.6125962547957897186279296875</LongitudeDegrees>
            </Position>
            <AltitudeMeters>586.5999755859375</AltitudeMeters>
            <DistanceMeters>10086.657936235</DistanceMeters>
          </Trackpoint>
          <Trackpoint>
            <Time>2019-05-08T07:26:42.000Z</Time>
            <Position>
              <LatitudeDegrees>42.8759950585663318634033203125</LatitudeDegrees>
              <LongitudeDegrees>0.61256951652467250823974609375</LongitudeDegrees>
            </Position>
            <AltitudeMeters>587</AltitudeMeters>
            <DistanceMeters>10089.933257718</DistanceMeters>
          </Trackpoint>
          <Trackpoint>
            <Time>2019-05-08T07:26:44.000Z</Time>
            <Position>
              <LatitudeDegrees>42.87605113349854946136474609375</LatitudeDegrees>
              <LongitudeDegrees>0.61256222426891326904296875</LongitudeDegrees>
            </Position>
            <AltitudeMeters>587</AltitudeMeters>
            <DistanceMeters>10096.203580902</DistanceMeters>
          </Trackpoint>
          <Trackpoint>
            <Time>2019-05-08T07:26:45.000Z</Time>
            <Position>
              <LatitudeDegrees>42.87607879377901554107666015625</LatitudeDegrees>
              <LongitudeDegrees>0.61256566084921360015869140625</LongitudeDegrees>
            </Position>
            <AltitudeMeters>587.20001220703125</AltitudeMeters>
            <DistanceMeters>10099.294506472</DistanceMeters>
          </Trackpoint>
          <Trackpoint>
            <Time>2019-05-08T07:26:47.000Z</Time>
            <Position>
              <LatitudeDegrees>42.8761264868080615997314453125</LatitudeDegrees>
              <LongitudeDegrees>0.61258074827492237091064453125</LongitudeDegrees>
            </Position>
            <AltitudeMeters>587</AltitudeMeters>
            <DistanceMeters>10104.7442699</DistanceMeters>
          </Trackpoint>
          <Trackpoint>
            <Time>2019-05-08T07:26:50.000Z</Time>
            <Position>
              <LatitudeDegrees>42.876198403537273406982421875</LatitudeDegrees>
              <LongitudeDegrees>0.612624250352382659912109375</LongitudeDegrees>
            </Position>
            <AltitudeMeters>587.4000244140625</AltitudeMeters>
            <DistanceMeters>10113.500145014</DistanceMeters>
          </Trackpoint>
          <Trackpoint>
            <Time>2019-05-08T07:26:52.000Z</Time>
            <Position>
              <LatitudeDegrees>42.87625112570822238922119140625</LatitudeDegrees>
              <LongitudeDegrees>0.61264160089194774627685546875</LongitudeDegrees>
            </Position>
            <AltitudeMeters>587.5999755859375</AltitudeMeters>
            <DistanceMeters>10119.537146632</DistanceMeters>
          </Trackpoint>
          <Trackpoint>
            <Time>2019-05-08T07:26:55.000Z</Time>
            <Position>
              <LatitudeDegrees>42.87630879320204257965087890625</LatitudeDegrees>
              <LongitudeDegrees>0.6126505695283412933349609375</LongitudeDegrees>
            </Position>
            <AltitudeMeters>588.4000244140625</AltitudeMeters>
            <DistanceMeters>10125.997565606</DistanceMeters>
          </Trackpoint>
          <Trackpoint>
            <Time>2019-05-08T07:26:56.000Z</Time>
            <Position>
              <LatitudeDegrees>42.8763242997229099273681640625</LatitudeDegrees>
              <LongitudeDegrees>0.6126581132411956787109375</LongitudeDegrees>
            </Position>
            <AltitudeMeters>588.5999755859375</AltitudeMeters>
            <DistanceMeters>10127.830374499</DistanceMeters>
          </Trackpoint>
          <Trackpoint>
            <Time>2019-05-08T07:26:57.000Z</Time>
            <Position>
              <LatitudeDegrees>42.8763413988053798675537109375</LatitudeDegrees>
              <LongitudeDegrees>0.61266171745955944061279296875</LongitudeDegrees>
            </Position>
            <AltitudeMeters>588.79998779296875</AltitudeMeters>
            <DistanceMeters>10129.756863901</DistanceMeters>
          </Trackpoint>
          <Trackpoint>
            <Time>2019-05-08T07:27:00.000Z</Time>
            <Position>
              <LatitudeDegrees>42.8764057718217372894287109375</LatitudeDegrees>
              <LongitudeDegrees>0.6126447021961212158203125</LongitudeDegrees>
            </Position>
            <AltitudeMeters>589.4000244140625</AltitudeMeters>
            <DistanceMeters>10137.054767084</DistanceMeters>
          </Trackpoint>
          <Trackpoint>
            <Time>2019-05-08T07:27:03.000Z</Time>
            <Position>
              <LatitudeDegrees>42.87646788172423839569091796875</LatitudeDegrees>
              <LongitudeDegrees>0.61263305135071277618408203125</LongitudeDegrees>
            </Position>
            <AltitudeMeters>590.20001220703125</AltitudeMeters>
            <DistanceMeters>10144.032601432</DistanceMeters>
          </Trackpoint>
          <Trackpoint>
            <Time>2019-05-08T07:27:05.000Z</Time>
            <Position>
              <LatitudeDegrees>42.876502163708209991455078125</LatitudeDegrees>
              <LongitudeDegrees>0.6126167066395282745361328125</LongitudeDegrees>
            </Position>
            <AltitudeMeters>590.5999755859375</AltitudeMeters>
            <DistanceMeters>10148.075426974</DistanceMeters>
          </Trackpoint>
          <Trackpoint>
            <Time>2019-05-08T07:27:08.000Z</Time>
            <Position>
              <LatitudeDegrees>42.8765087015926837921142578125</LatitudeDegrees>
              <LongitudeDegrees>0.61265199445188045501708984375</LongitudeDegrees>
            </Position>
            <AltitudeMeters>590.79998779296875</AltitudeMeters>
            <DistanceMeters>10151.044156435</DistanceMeters>
          </Trackpoint>
          <Trackpoint>
            <Time>2019-05-08T07:27:09.000Z</Time>
            <Position>
              <LatitudeDegrees>42.8764724917709827423095703125</LatitudeDegrees>
              <LongitudeDegrees>0.61266817152500152587890625</LongitudeDegrees>
            </Position>
            <AltitudeMeters>591</AltitudeMeters>
            <DistanceMeters>10155.28537233</DistanceMeters>
          </Trackpoint>
          <Trackpoint>
            <Time>2019-05-08T07:27:11.000Z</Time>
            <Position>
              <LatitudeDegrees>42.8764144890010356903076171875</LatitudeDegrees>
              <LongitudeDegrees>0.61266188509762287139892578125</LongitudeDegrees>
            </Position>
            <AltitudeMeters>591.20001220703125</AltitudeMeters>
            <DistanceMeters>10161.762542635</DistanceMeters>
          </Trackpoint>
          <Trackpoint>
            <Time>2019-05-08T07:27:16.000Z</Time>
            <Position>
              <LatitudeDegrees>42.87623201496899127960205078125</LatitudeDegrees>
              <LongitudeDegrees>0.6126220710575580596923828125</LongitudeDegrees>
            </Position>
            <AltitudeMeters>591.20001220703125</AltitudeMeters>
            <DistanceMeters>10182.330284154</DistanceMeters>
          </Trackpoint>
          <Trackpoint>
            <Time>2019-05-08T07:27:17.000Z</Time>
            <Position>
              <LatitudeDegrees>42.876187674701213836669921875</LatitudeDegrees>
              <LongitudeDegrees>0.612602122128009796142578125</LongitudeDegrees>
            </Position>
            <AltitudeMeters>591.20001220703125</AltitudeMeters>
            <DistanceMeters>10187.526429703</DistanceMeters>
          </Trackpoint>
          <Trackpoint>
            <Time>2019-05-08T07:27:18.000Z</Time>
            <Position>
              <LatitudeDegrees>42.87614048458635807037353515625</LatitudeDegrees>
              <LongitudeDegrees>0.61257622204720973968505859375</LongitudeDegrees>
            </Position>
            <AltitudeMeters>591.20001220703125</AltitudeMeters>
            <DistanceMeters>10193.187502154</DistanceMeters>
          </Trackpoint>
          <Trackpoint>
            <Time>2019-05-08T07:27:20.000Z</Time>
            <Position>
              <LatitudeDegrees>42.87603118456900119781494140625</LatitudeDegrees>
              <LongitudeDegrees>0.61254705302417278289794921875</LongitudeDegrees>
            </Position>
            <AltitudeMeters>591</AltitudeMeters>
            <DistanceMeters>10205.583299054</DistanceMeters>
          </Trackpoint>
          <Trackpoint>
            <Time>2019-05-08T07:27:21.000Z</Time>
            <Position>
              <LatitudeDegrees>42.8759756125509738922119140625</LatitudeDegrees>
              <LongitudeDegrees>0.61257974244654178619384765625</LongitudeDegrees>
            </Position>
            <AltitudeMeters>591</AltitudeMeters>
            <DistanceMeters>10212.318809729</DistanceMeters>
          </Trackpoint>
          <Trackpoint>
            <Time>2019-05-08T07:27:22.000Z</Time>
            <Position>
              <LatitudeDegrees>42.8759756125509738922119140625</LatitudeDegrees>
              <LongitudeDegrees>0.61257974244654178619384765625</LongitudeDegrees>
            </Position>
            <AltitudeMeters>591</AltitudeMeters>
            <DistanceMeters>10212.318809729</DistanceMeters>
          </Trackpoint>
          <Trackpoint>
            <Time>2019-05-08T07:27:23.000Z</Time>
            <Position>
              <LatitudeDegrees>42.875893972814083099365234375</LatitudeDegrees>
              <LongitudeDegrees>0.6127251684665679931640625</LongitudeDegrees>
            </Position>
            <AltitudeMeters>590.79998779296875</AltitudeMeters>
            <DistanceMeters>10227.260684109</DistanceMeters>
          </Trackpoint>
          <Trackpoint>
            <Time>2019-05-08T07:27:24.000Z</Time>
            <Position>
              <LatitudeDegrees>42.875863797962665557861328125</LatitudeDegrees>
              <LongitudeDegrees>0.61280873604118824005126953125</LongitudeDegrees>
            </Position>
            <AltitudeMeters>590.5999755859375</AltitudeMeters>
            <DistanceMeters>10234.859256921</DistanceMeters>
          </Trackpoint>
          <Trackpoint>
            <Time>2019-05-08T07:27:27.000Z</Time>
            <Position>
              <LatitudeDegrees>42.875778637826442718505859375</LatitudeDegrees>
              <LongitudeDegrees>0.61301828362047672271728515625</LongitudeDegrees>
            </Position>
            <AltitudeMeters>589.79998779296875</AltitudeMeters>
            <DistanceMeters>10254.403597884</DistanceMeters>
          </Trackpoint>
          <Trackpoint>
            <Time>2019-05-08T07:27:28.000Z</Time>
            <Position>
              <LatitudeDegrees>42.875778637826442718505859375</LatitudeDegrees>
              <LongitudeDegrees>0.61301828362047672271728515625</LongitudeDegrees>
            </Position>
            <AltitudeMeters>589.4000244140625</AltitudeMeters>
            <DistanceMeters>10254.403597884</DistanceMeters>
          </Trackpoint>
          <Trackpoint>
            <Time>2019-05-08T07:27:31.000Z</Time>
            <Position>
              <LatitudeDegrees>42.87573597393929958343505859375</LatitudeDegrees>
              <LongitudeDegrees>0.61314954422414302825927734375</LongitudeDegrees>
            </Position>
            <AltitudeMeters>588</AltitudeMeters>
            <DistanceMeters>10266.116194579</DistanceMeters>
          </Trackpoint>
          <Trackpoint>
            <Time>2019-05-08T07:27:35.000Z</Time>
            <Position>
              <LatitudeDegrees>42.87571250461041927337646484375</LatitudeDegrees>
              <LongitudeDegrees>0.61315708793699741363525390625</LongitudeDegrees>
            </Position>
            <AltitudeMeters>587</AltitudeMeters>
            <DistanceMeters>10268.80059414</DistanceMeters>
          </Trackpoint>
          <Trackpoint>
            <Time>2019-05-08T07:27:51.000Z</Time>
            <Position>
              <LatitudeDegrees>42.87569825537502765655517578125</LatitudeDegrees>
              <LongitudeDegrees>0.61323554255068302154541015625</LongitudeDegrees>
            </Position>
            <AltitudeMeters>587.4000244140625</AltitudeMeters>
            <DistanceMeters>10275.393832191</DistanceMeters>
          </Trackpoint>
          <Trackpoint>
            <Time>2019-05-08T07:27:53.000Z</Time>
            <Position>
              <LatitudeDegrees>42.87570244632661342620849609375</LatitudeDegrees>
              <LongitudeDegrees>0.6132674776017665863037109375</LongitudeDegrees>
            </Position>
            <AltitudeMeters>587.4000244140625</AltitudeMeters>
            <DistanceMeters>10278.037556679</DistanceMeters>
          </Trackpoint>
          <Trackpoint>
            <Time>2019-05-08T07:27:55.000Z</Time>
            <Position>
              <LatitudeDegrees>42.87575148046016693115234375</LatitudeDegrees>
              <LongitudeDegrees>0.613339059054851531982421875</LongitudeDegrees>
            </Position>
            <AltitudeMeters>587.4000244140625</AltitudeMeters>
            <DistanceMeters>10286.029975635</DistanceMeters>
          </Trackpoint>
          <Trackpoint>
            <Time>2019-05-08T07:27:57.000Z</Time>
            <Position>
              <LatitudeDegrees>42.87581878714263439178466796875</LatitudeDegrees>
              <LongitudeDegrees>0.61337627470493316650390625</LongitudeDegrees>
            </Position>
            <AltitudeMeters>587.20001220703125</AltitudeMeters>
            <DistanceMeters>10294.112275616</DistanceMeters>
          </Trackpoint>
          <Trackpoint>
            <Time>2019-05-08T07:28:00.000Z</Time>
            <Position>
              <LatitudeDegrees>42.87597418762743473052978515625</LatitudeDegrees>
              <LongitudeDegrees>0.61343117617070674896240234375</LongitudeDegrees>
            </Position>
            <AltitudeMeters>587.20001220703125</AltitudeMeters>
            <DistanceMeters>10311.978814237</DistanceMeters>
          </Trackpoint>
          <Trackpoint>
            <Time>2019-05-08T07:28:05.000Z</Time>
            <Position>
              <LatitudeDegrees>42.87619940936565399169921875</LatitudeDegrees>
              <LongitudeDegrees>0.6135222874581813812255859375</LongitudeDegrees>
            </Position>
            <AltitudeMeters>587</AltitudeMeters>
            <DistanceMeters>10338.124633732</DistanceMeters>
          </Trackpoint>
          <Trackpoint>
            <Time>2019-05-08T07:28:07.000Z</Time>
            <Position>
              <LatitudeDegrees>42.8762927837669849395751953125</LatitudeDegrees>
              <LongitudeDegrees>0.6135638616979122161865234375</LongitudeDegrees>
            </Position>
            <AltitudeMeters>587</AltitudeMeters>
            <DistanceMeters>10349.056423689</DistanceMeters>
          </Trackpoint>
          <Trackpoint>
            <Time>2019-05-08T07:28:15.000Z</Time>
            <Position>
              <LatitudeDegrees>42.87665127776563167572021484375</LatitudeDegrees>
              <LongitudeDegrees>0.613707862794399261474609375</LongitudeDegrees>
            </Position>
            <AltitudeMeters>586.5999755859375</AltitudeMeters>
            <DistanceMeters>10390.650344948</DistanceMeters>
          </Trackpoint>
          <Trackpoint>
            <Time>2019-05-08T07:28:21.000Z</Time>
            <Position>
              <LatitudeDegrees>42.87696383893489837646484375</LatitudeDegrees>
              <LongitudeDegrees>0.6138558872044086456298828125</LongitudeDegrees>
            </Position>
            <AltitudeMeters>586.20001220703125</AltitudeMeters>
            <DistanceMeters>10427.474637466</DistanceMeters>
          </Trackpoint>
          <Trackpoint>
            <Time>2019-05-08T07:28:22.000Z</Time>
            <Position>
              <LatitudeDegrees>42.87702091969549655914306640625</LatitudeDegrees>
              <LongitudeDegrees>0.6138806976377964019775390625</LongitudeDegrees>
            </Position>
            <AltitudeMeters>586</AltitudeMeters>
            <DistanceMeters>10434.142777867</DistanceMeters>
          </Trackpoint>
          <Trackpoint>
            <Time>2019-05-08T07:28:27.000Z</Time>
            <Position>
              <LatitudeDegrees>42.87730716168880462646484375</LatitudeDegrees>
              <LongitudeDegrees>0.61401774175465106964111328125</LongitudeDegrees>
            </Position>
            <AltitudeMeters>585.79998779296875</AltitudeMeters>
            <DistanceMeters>10467.906024901</DistanceMeters>
          </Trackpoint>
          <Trackpoint>
            <Time>2019-05-08T07:28:30.000Z</Time>
            <Position>
              <LatitudeDegrees>42.87742241285741329193115234375</LatitudeDegrees>
              <LongitudeDegrees>0.614071972668170928955078125</LongitudeDegrees>
            </Position>
            <AltitudeMeters>585.4000244140625</AltitudeMeters>
            <DistanceMeters>10481.475227483</DistanceMeters>
          </Trackpoint>
          <Trackpoint>
            <Time>2019-05-08T07:28:31.000Z</Time>
            <Position>
              <LatitudeDegrees>42.87754118442535400390625</LatitudeDegrees>
              <LongitudeDegrees>0.6141172349452972412109375</LongitudeDegrees>
            </Position>
            <AltitudeMeters>585.4000244140625</AltitudeMeters>
            <DistanceMeters>10495.200585575</DistanceMeters>
          </Trackpoint>
          <Trackpoint>
            <Time>2019-05-08T07:28:35.000Z</Time>
            <Position>
              <LatitudeDegrees>42.8777904622256755828857421875</LatitudeDegrees>
              <LongitudeDegrees>0.61417046003043651580810546875</LongitudeDegrees>
            </Position>
            <AltitudeMeters>584.79998779296875</AltitudeMeters>
            <DistanceMeters>10523.283190443</DistanceMeters>
          </Trackpoint>
          <Trackpoint>
            <Time>2019-05-08T07:28:41.000Z</Time>
            <Position>
              <LatitudeDegrees>42.87816152907907962799072265625</LatitudeDegrees>
              <LongitudeDegrees>0.6141717173159122467041015625</LongitudeDegrees>
            </Position>
            <AltitudeMeters>584.4000244140625</AltitudeMeters>
            <DistanceMeters>10564.583641528</DistanceMeters>
          </Trackpoint>
          <Trackpoint>
            <Time>2019-05-08T07:28:42.000Z</Time>
            <Position>
              <LatitudeDegrees>42.87822288461029529571533203125</LatitudeDegrees>
              <LongitudeDegrees>0.6141609884798526763916015625</LongitudeDegrees>
            </Position>
            <AltitudeMeters>584.4000244140625</AltitudeMeters>
            <DistanceMeters>10571.468325344</DistanceMeters>
          </Trackpoint>
          <Trackpoint>
            <Time>2019-05-08T07:28:49.000Z</Time>
            <Position>
              <LatitudeDegrees>42.8786514513194561004638671875</LatitudeDegrees>
              <LongitudeDegrees>0.614017657935619354248046875</LongitudeDegrees>
            </Position>
            <AltitudeMeters>584.20001220703125</AltitudeMeters>
            <DistanceMeters>10620.580223786</DistanceMeters>
          </Trackpoint>
          <Trackpoint>
            <Time>2019-05-08T07:28:53.000Z</Time>
            <Position>
              <LatitudeDegrees>42.87890416570007801055908203125</LatitudeDegrees>
              <LongitudeDegrees>0.6139209307730197906494140625</LongitudeDegrees>
            </Position>
            <AltitudeMeters>584.20001220703125</AltitudeMeters>
            <DistanceMeters>10649.793173046</DistanceMeters>
          </Trackpoint>
          <Trackpoint>
            <Time>2019-05-08T07:28:59.000Z</Time>
            <Position>
              <LatitudeDegrees>42.879281938076019287109375</LatitudeDegrees>
              <LongitudeDegrees>0.61377617530524730682373046875</LongitudeDegrees>
            </Position>
            <AltitudeMeters>584.20001220703125</AltitudeMeters>
            <DistanceMeters>10693.466090471</DistanceMeters>
          </Trackpoint>
          <Trackpoint>
            <Time>2019-05-08T07:29:07.000Z</Time>
            <Position>
              <LatitudeDegrees>42.87979499436914920806884765625</LatitudeDegrees>
              <LongitudeDegrees>0.613587833940982818603515625</LongitudeDegrees>
            </Position>
            <AltitudeMeters>583</AltitudeMeters>
            <DistanceMeters>10752.60027646</DistanceMeters>
          </Trackpoint>
          <Trackpoint>
            <Time>2019-05-08T07:29:08.000Z</Time>
            <Position>
              <LatitudeDegrees>42.8798607923090457916259765625</LatitudeDegrees>
              <LongitudeDegrees>0.6135700643062591552734375</LongitudeDegrees>
            </Position>
            <AltitudeMeters>583</AltitudeMeters>
            <DistanceMeters>10760.065772546</DistanceMeters>
          </Trackpoint>
          <Trackpoint>
            <Time>2019-05-08T07:29:14.000Z</Time>
            <Position>
              <LatitudeDegrees>42.88020252250134944915771484375</LatitudeDegrees>
              <LongitudeDegrees>0.6135524623095989227294921875</LongitudeDegrees>
            </Position>
            <AltitudeMeters>582.5999755859375</AltitudeMeters>
            <DistanceMeters>10798.128093997</DistanceMeters>
          </Trackpoint>
          <Trackpoint>
            <Time>2019-05-08T07:29:21.000Z</Time>
            <Position>
              <LatitudeDegrees>42.88074977695941925048828125</LatitudeDegrees>
              <LongitudeDegrees>0.61363334767520427703857421875</LongitudeDegrees>
            </Position>
            <AltitudeMeters>581.4000244140625</AltitudeMeters>
            <DistanceMeters>10859.394757984</DistanceMeters>
          </Trackpoint>
          <Trackpoint>
            <Time>2019-05-08T07:29:23.000Z</Time>
            <Position>
              <LatitudeDegrees>42.88088648580014705657958984375</LatitudeDegrees>
              <LongitudeDegrees>0.61365648172795772552490234375</LongitudeDegrees>
            </Position>
            <AltitudeMeters>581</AltitudeMeters>
            <DistanceMeters>10874.727076141</DistanceMeters>
          </Trackpoint>
          <Trackpoint>
            <Time>2019-05-08T07:29:29.000Z</Time>
            <Position>
              <LatitudeDegrees>42.88129753433167934417724609375</LatitudeDegrees>
              <LongitudeDegrees>0.61372672207653522491455078125</LongitudeDegrees>
            </Position>
            <AltitudeMeters>580.20001220703125</AltitudeMeters>
            <DistanceMeters>10920.834915356</DistanceMeters>
          </Trackpoint>
          <Trackpoint>
            <Time>2019-05-08T07:29:33.000Z</Time>
            <Position>
              <LatitudeDegrees>42.88157447241246700286865234375</LatitudeDegrees>
              <LongitudeDegrees>0.6137750856578350067138671875</LongitudeDegrees>
            </Position>
            <AltitudeMeters>579.5999755859375</AltitudeMeters>
            <DistanceMeters>10951.910103929</DistanceMeters>
          </Trackpoint>
          <Trackpoint>
            <Time>2019-05-08T07:29:38.000Z</Time>
            <Position>
              <LatitudeDegrees>42.8819304518401622772216796875</LatitudeDegrees>
              <LongitudeDegrees>0.6138288974761962890625</LongitudeDegrees>
            </Position>
            <AltitudeMeters>578.5999755859375</AltitudeMeters>
            <DistanceMeters>10991.773555767</DistanceMeters>
          </Trackpoint>
          <Trackpoint>
            <Time>2019-05-08T07:29:43.000Z</Time>
            <Position>
              <LatitudeDegrees>42.882288359105587005615234375</LatitudeDegrees>
              <LongitudeDegrees>0.61389486305415630340576171875</LongitudeDegrees>
            </Position>
            <AltitudeMeters>578.20001220703125</AltitudeMeters>
            <DistanceMeters>11031.971091499</DistanceMeters>
          </Trackpoint>
          <Trackpoint>
            <Time>2019-05-08T07:29:49.000Z</Time>
            <Position>
              <LatitudeDegrees>42.88271038793027400970458984375</LatitudeDegrees>
              <LongitudeDegrees>0.6140258722007274627685546875</LongitudeDegrees>
            </Position>
            <AltitudeMeters>577.4000244140625</AltitudeMeters>
            <DistanceMeters>11080.143543843</DistanceMeters>
          </Trackpoint>
          <Trackpoint>
            <Time>2019-05-08T07:29:51.000Z</Time>
            <Position>
              <LatitudeDegrees>42.88283829577267169952392578125</LatitudeDegrees>
              <LongitudeDegrees>0.61409636400640010833740234375</LongitudeDegrees>
            </Position>
            <AltitudeMeters>577.4000244140625</AltitudeMeters>
            <DistanceMeters>11095.496755738</DistanceMeters>
          </Trackpoint>
          <Trackpoint>
            <Time>2019-05-08T07:29:54.000Z</Time>
            <Position>
              <LatitudeDegrees>42.88300928659737110137939453125</LatitudeDegrees>
              <LongitudeDegrees>0.61425176449120044708251953125</LongitudeDegrees>
            </Position>
            <AltitudeMeters>577</AltitudeMeters>
            <DistanceMeters>11118.36208683</DistanceMeters>
          </Trackpoint>
          <Trackpoint>
            <Time>2019-05-08T07:29:59.000Z</Time>
            <Position>
              <LatitudeDegrees>42.88323341868817806243896484375</LatitudeDegrees>
              <LongitudeDegrees>0.6145928241312503814697265625</LongitudeDegrees>
            </Position>
            <AltitudeMeters>576.20001220703125</AltitudeMeters>
            <DistanceMeters>11155.725474364</DistanceMeters>
          </Trackpoint>
          <Trackpoint>
            <Time>2019-05-08T07:30:05.000Z</Time>
            <Position>
              <LatitudeDegrees>42.88343827240169048309326171875</LatitudeDegrees>
              <LongitudeDegrees>0.6150726042687892913818359375</LongitudeDegrees>
            </Position>
            <AltitudeMeters>575.79998779296875</AltitudeMeters>
            <DistanceMeters>11201.012658226</DistanceMeters>
          </Trackpoint>
          <Trackpoint>
            <Time>2019-05-08T07:30:14.000Z</Time>
            <Position>
              <LatitudeDegrees>42.88376885466277599334716796875</LatitudeDegrees>
              <LongitudeDegrees>0.6157565675675868988037109375</LongitudeDegrees>
            </Position>
            <AltitudeMeters>575.79998779296875</AltitudeMeters>
            <DistanceMeters>11267.835765391</DistanceMeters>
          </Trackpoint>
          <Trackpoint>
            <Time>2019-05-08T07:30:15.000Z</Time>
            <Position>
              <LatitudeDegrees>42.8838126920163631439208984375</LatitudeDegrees>
              <LongitudeDegrees>0.615832507610321044921875</LongitudeDegrees>
            </Position>
            <AltitudeMeters>575.5999755859375</AltitudeMeters>
            <DistanceMeters>11275.720119914</DistanceMeters>
          </Trackpoint>
          <Trackpoint>
            <Time>2019-05-08T07:30:19.000Z</Time>
            <Position>
              <LatitudeDegrees>42.8839986026287078857421875</LatitudeDegrees>
              <LongitudeDegrees>0.61612595804035663604736328125</LongitudeDegrees>
            </Position>
            <AltitudeMeters>575.20001220703125</AltitudeMeters>
            <DistanceMeters>11307.357451711</DistanceMeters>
          </Trackpoint>
          <Trackpoint>
            <Time>2019-05-08T07:30:22.000Z</Time>
            <Position>
              <LatitudeDegrees>42.88416062481701374053955078125</LatitudeDegrees>
              <LongitudeDegrees>0.61633248813450336456298828125</LongitudeDegrees>
            </Position>
            <AltitudeMeters>575</AltitudeMeters>
            <DistanceMeters>11332.033677411</DistanceMeters>
          </Trackpoint>
          <Trackpoint>
            <Time>2019-05-08T07:30:24.000Z</Time>
            <Position>
              <LatitudeDegrees>42.8842874430119991302490234375</LatitudeDegrees>
              <LongitudeDegrees>0.616452433168888092041015625</LongitudeDegrees>
            </Position>
            <AltitudeMeters>574.5999755859375</AltitudeMeters>
            <DistanceMeters>11349.206979267</DistanceMeters>
          </Trackpoint>
          <Trackpoint>
            <Time>2019-05-08T07:30:25.000Z</Time>
            <Position>
              <LatitudeDegrees>42.8843538276851177215576171875</LatitudeDegrees>
              <LongitudeDegrees>0.61650280840694904327392578125</LongitudeDegrees>
            </Position>
            <AltitudeMeters>574.5999755859375</AltitudeMeters>
            <DistanceMeters>11357.660619015</DistanceMeters>
          </Trackpoint>
          <Trackpoint>
            <Time>2019-05-08T07:30:26.000Z</Time>
            <Position>
              <LatitudeDegrees>42.88442549295723438262939453125</LatitudeDegrees>
              <LongitudeDegrees>0.61654589138925075531005859375</LongitudeDegrees>
            </Position>
            <AltitudeMeters>574.4000244140625</AltitudeMeters>
            <DistanceMeters>11366.376179986</DistanceMeters>
          </Trackpoint>
          <Trackpoint>
            <Time>2019-05-08T07:30:27.000Z</Time>
            <Position>
              <LatitudeDegrees>42.88450243882834911346435546875</LatitudeDegrees>
              <LongitudeDegrees>0.61658059246838092803955078125</LongitudeDegrees>
            </Position>
            <AltitudeMeters>574.4000244140625</AltitudeMeters>
            <DistanceMeters>11375.395211453</DistanceMeters>
          </Trackpoint>
          <Trackpoint>
            <Time>2019-05-08T07:30:31.000Z</Time>
            <Position>
              <LatitudeDegrees>42.8848005831241607666015625</LatitudeDegrees>
              <LongitudeDegrees>0.61671654693782329559326171875</LongitudeDegrees>
            </Position>
            <AltitudeMeters>573.20001220703125</AltitudeMeters>
            <DistanceMeters>11410.38259722</DistanceMeters>
          </Trackpoint>
          <Trackpoint>
            <Time>2019-05-08T07:30:33.000Z</Time>
            <Position>
              <LatitudeDegrees>42.88494433276355266571044921875</LatitudeDegrees>
              <LongitudeDegrees>0.61679198406636714935302734375</LongitudeDegrees>
            </Position>
            <AltitudeMeters>572.79998779296875</AltitudeMeters>
            <DistanceMeters>11427.524057409</DistanceMeters>
          </Trackpoint>
          <Trackpoint>
            <Time>2019-05-08T07:30:35.000Z</Time>
            <Position>
              <LatitudeDegrees>42.88506570272147655487060546875</LatitudeDegrees>
              <LongitudeDegrees>0.616848729550838470458984375</LongitudeDegrees>
            </Position>
            <AltitudeMeters>571.79998779296875</AltitudeMeters>
            <DistanceMeters>11441.803382536</DistanceMeters>
          </Trackpoint>
          <Trackpoint>
            <Time>2019-05-08T07:30:36.000Z</Time>
            <Position>
              <LatitudeDegrees>42.885119430720806121826171875</LatitudeDegrees>
              <LongitudeDegrees>0.61683624051511287689208984375</LongitudeDegrees>
            </Position>
            <AltitudeMeters>571.4000244140625</AltitudeMeters>
            <DistanceMeters>11447.870226163</DistanceMeters>
          </Trackpoint>
          <Trackpoint>
            <Time>2019-05-08T07:30:37.000Z</Time>
            <Position>
              <LatitudeDegrees>42.8851615078747272491455078125</LatitudeDegrees>
              <LongitudeDegrees>0.61679818667471408843994140625</LongitudeDegrees>
            </Position>
            <AltitudeMeters>571</AltitudeMeters>
            <DistanceMeters>11453.488868992</DistanceMeters>
          </Trackpoint>
          <Trackpoint>
            <Time>2019-05-08T07:30:39.000Z</Time>
            <Position>
              <LatitudeDegrees>42.88523820228874683380126953125</LatitudeDegrees>
              <LongitudeDegrees>0.6166867911815643310546875</LongitudeDegrees>
            </Position>
            <AltitudeMeters>570.5999755859375</AltitudeMeters>
            <DistanceMeters>11465.955128078</DistanceMeters>
          </Trackpoint>
          <Trackpoint>
            <Time>2019-05-08T07:30:44.000Z</Time>
            <Position>
              <LatitudeDegrees>42.885401733219623565673828125</LatitudeDegrees>
              <LongitudeDegrees>0.616355203092098236083984375</LongitudeDegrees>
            </Position>
            <AltitudeMeters>569.4000244140625</AltitudeMeters>
            <DistanceMeters>11498.552061448</DistanceMeters>
          </Trackpoint>
          <Trackpoint>
            <Time>2019-05-08T07:30:45.000Z</Time>
            <Position>
              <LatitudeDegrees>42.885401733219623565673828125</LatitudeDegrees>
              <LongitudeDegrees>0.616355203092098236083984375</LongitudeDegrees>
            </Position>
            <AltitudeMeters>569.20001220703125</AltitudeMeters>
            <DistanceMeters>11498.552061448</DistanceMeters>
          </Trackpoint>
          <Trackpoint>
            <Time>2019-05-08T07:30:47.000Z</Time>
            <Position>
              <LatitudeDegrees>42.88542059250175952911376953125</LatitudeDegrees>
              <LongitudeDegrees>0.61619183979928493499755859375</LongitudeDegrees>
            </Position>
            <AltitudeMeters>569.20001220703125</AltitudeMeters>
            <DistanceMeters>11512.038826435</DistanceMeters>
          </Trackpoint>
          <Trackpoint>
            <Time>2019-05-08T07:30:49.000Z</Time>
            <Position>
              <LatitudeDegrees>42.885409779846668243408203125</LatitudeDegrees>
              <LongitudeDegrees>0.61610852368175983428955078125</LongitudeDegrees>
            </Position>
            <AltitudeMeters>569.20001220703125</AltitudeMeters>
            <DistanceMeters>11518.938577373</DistanceMeters>
          </Trackpoint>
          <Trackpoint>
            <Time>2019-05-08T07:30:50.000Z</Time>
            <Position>
              <LatitudeDegrees>42.88539762608706951141357421875</LatitudeDegrees>
              <LongitudeDegrees>0.6160723976790904998779296875</LongitudeDegrees>
            </Position>
            <AltitudeMeters>569.4000244140625</AltitudeMeters>
            <DistanceMeters>11522.180646</DistanceMeters>
          </Trackpoint>
          <Trackpoint>
            <Time>2019-05-08T07:30:52.000Z</Time>
            <Position>
              <LatitudeDegrees>42.88537935353815555572509765625</LatitudeDegrees>
              <LongitudeDegrees>0.6160403788089752197265625</LongitudeDegrees>
            </Position>
            <AltitudeMeters>569.20001220703125</AltitudeMeters>
            <DistanceMeters>11525.490250618</DistanceMeters>
          </Trackpoint>
          <Trackpoint>
            <Time>2019-05-08T07:30:54.000Z</Time>
            <Position>
              <LatitudeDegrees>42.88530282676219940185546875</LatitudeDegrees>
              <LongitudeDegrees>0.61596619896590709686279296875</LongitudeDegrees>
            </Position>
            <AltitudeMeters>569.4000244140625</AltitudeMeters>
            <DistanceMeters>11535.938004637</DistanceMeters>
          </Trackpoint>
          <Trackpoint>
            <Time>2019-05-08T07:30:56.000Z</Time>
            <Position>
              <LatitudeDegrees>42.885252870619297027587890625</LatitudeDegrees>
              <LongitudeDegrees>0.61591573990881443023681640625</LongitudeDegrees>
            </Position>
            <AltitudeMeters>570.4000244140625</AltitudeMeters>
            <DistanceMeters>11542.854748452</DistanceMeters>
          </Trackpoint>
          <Trackpoint>
            <Time>2019-05-08T07:30:57.000Z</Time>
            <Position>
              <LatitudeDegrees>42.88523367606103420257568359375</LatitudeDegrees>
              <LongitudeDegrees>0.6158874928951263427734375</LongitudeDegrees>
            </Position>
            <AltitudeMeters>570.5999755859375</AltitudeMeters>
            <DistanceMeters>11545.997820775</DistanceMeters>
          </Trackpoint>
          <Trackpoint>
            <Time>2019-05-08T07:30:59.000Z</Time>
            <Position>
              <LatitudeDegrees>42.88520626723766326904296875</LatitudeDegrees>
              <LongitudeDegrees>0.6158246286213397979736328125</LongitudeDegrees>
            </Position>
            <AltitudeMeters>571.20001220703125</AltitudeMeters>
            <DistanceMeters>11551.964106164</DistanceMeters>
          </Trackpoint>
          <Trackpoint>
            <Time>2019-05-08T07:31:00.000Z</Time>
            <Position>
              <LatitudeDegrees>42.88519687950611114501953125</LatitudeDegrees>
              <LongitudeDegrees>0.61579185537993907928466796875</LongitudeDegrees>
            </Position>
            <AltitudeMeters>571.20001220703125</AltitudeMeters>
            <DistanceMeters>11554.833850006</DistanceMeters>
          </Trackpoint>
          <Trackpoint>
            <Time>2019-05-08T07:31:01.000Z</Time>
            <Position>
              <LatitudeDegrees>42.88519210182130336761474609375</LatitudeDegrees>
              <LongitudeDegrees>0.61575748957693576812744140625</LongitudeDegrees>
            </Position>
            <AltitudeMeters>571.5999755859375</AltitudeMeters>
            <DistanceMeters>11557.687817236</DistanceMeters>
          </Trackpoint>
          <Trackpoint>
            <Time>2019-05-08T07:31:05.000Z</Time>
            <Position>
              <LatitudeDegrees>42.88518439047038555145263671875</LatitudeDegrees>
              <LongitudeDegrees>0.61562589369714260101318359375</LongitudeDegrees>
            </Position>
            <AltitudeMeters>572.79998779296875</AltitudeMeters>
            <DistanceMeters>11568.454390104</DistanceMeters>
          </Trackpoint>
          <Trackpoint>
            <Time>2019-05-08T07:31:06.000Z</Time>
            <Position>
              <LatitudeDegrees>42.8851916827261447906494140625</LatitudeDegrees>
              <LongitudeDegrees>0.6156004965305328369140625</LongitudeDegrees>
            </Position>
            <AltitudeMeters>573.20001220703125</AltitudeMeters>
            <DistanceMeters>11570.678908454</DistanceMeters>
          </Trackpoint>
          <Trackpoint>
            <Time>2019-05-08T07:31:07.000Z</Time>
            <Position>
              <LatitudeDegrees>42.88520450703799724578857421875</LatitudeDegrees>
              <LongitudeDegrees>0.6155812181532382965087890625</LongitudeDegrees>
            </Position>
            <AltitudeMeters>573.5999755859375</AltitudeMeters>
            <DistanceMeters>11572.803770384</DistanceMeters>
          </Trackpoint>
          <Trackpoint>
            <Time>2019-05-08T07:31:09.000Z</Time>
            <Position>
              <LatitudeDegrees>42.8852369450032711029052734375</LatitudeDegrees>
              <LongitudeDegrees>0.61556604690849781036376953125</LongitudeDegrees>
            </Position>
            <AltitudeMeters>574</AltitudeMeters>
            <DistanceMeters>11576.621432415</DistanceMeters>
          </Trackpoint>
          <Trackpoint>
            <Time>2019-05-08T07:31:10.000Z</Time>
            <Position>
              <LatitudeDegrees>42.8852533735334873199462890625</LatitudeDegrees>
              <LongitudeDegrees>0.61557292006909847259521484375</LongitudeDegrees>
            </Position>
            <AltitudeMeters>574.4000244140625</AltitudeMeters>
            <DistanceMeters>11578.533808152</DistanceMeters>
          </Trackpoint>
          <Trackpoint>
            <Time>2019-05-08T07:31:16.000Z</Time>
            <Position>
              <LatitudeDegrees>42.8853475861251354217529296875</LatitudeDegrees>
              <LongitudeDegrees>0.61564810574054718017578125</LongitudeDegrees>
            </Position>
            <AltitudeMeters>576.20001220703125</AltitudeMeters>
            <DistanceMeters>11590.680883895</DistanceMeters>
          </Trackpoint>
          <Trackpoint>
            <Time>2019-05-08T07:31:17.000Z</Time>
            <Position>
              <LatitudeDegrees>42.8853650204837322235107421875</LatitudeDegrees>
              <LongitudeDegrees>0.61565489508211612701416015625</LongitudeDegrees>
            </Position>
            <AltitudeMeters>576.4000244140625</AltitudeMeters>
            <DistanceMeters>11592.698943477</DistanceMeters>
          </Trackpoint>
          <Trackpoint>
            <Time>2019-05-08T07:31:22.000Z</Time>
            <Position>
              <LatitudeDegrees>42.88545168936252593994140625</LatitudeDegrees>
              <LongitudeDegrees>0.615688003599643707275390625</LongitudeDegrees>
            </Position>
            <AltitudeMeters>577.4000244140625</AltitudeMeters>
            <DistanceMeters>11602.716039336</DistanceMeters>
          </Trackpoint>
          <Trackpoint>
            <Time>2019-05-08T07:31:25.000Z</Time>
            <Position>
              <LatitudeDegrees>42.88550667464733123779296875</LatitudeDegrees>
              <LongitudeDegrees>0.61569009907543659210205078125</LongitudeDegrees>
            </Position>
            <AltitudeMeters>578</AltitudeMeters>
            <DistanceMeters>11608.83844469</DistanceMeters>
          </Trackpoint>
          <Trackpoint>
            <Time>2019-05-08T07:31:30.000Z</Time>
            <Position>
              <LatitudeDegrees>42.885601557791233062744140625</LatitudeDegrees>
              <LongitudeDegrees>0.6156836450099945068359375</LongitudeDegrees>
            </Position>
            <AltitudeMeters>579.20001220703125</AltitudeMeters>
            <DistanceMeters>11619.41248869</DistanceMeters>
          </Trackpoint>
          <Trackpoint>
            <Time>2019-05-08T07:31:32.000Z</Time>
            <Position>
              <LatitudeDegrees>42.8856379352509975433349609375</LatitudeDegrees>
              <LongitudeDegrees>0.615683309733867645263671875</LongitudeDegrees>
            </Position>
            <AltitudeMeters>580.20001220703125</AltitudeMeters>
            <DistanceMeters>11623.460894394</DistanceMeters>
          </Trackpoint>
          <Trackpoint>
            <Time>2019-05-08T07:31:34.000Z</Time>
            <Position>
              <LatitudeDegrees>42.8856738097965717315673828125</LatitudeDegrees>
              <LongitudeDegrees>0.61568607576191425323486328125</LongitudeDegrees>
            </Position>
            <AltitudeMeters>580.79998779296875</AltitudeMeters>
            <DistanceMeters>11627.45992745</DistanceMeters>
          </Trackpoint>
          <Trackpoint>
            <Time>2019-05-08T07:31:36.000Z</Time>
            <Position>
              <LatitudeDegrees>42.88571060635149478912353515625</LatitudeDegrees>
              <LongitudeDegrees>0.615673922002315521240234375</LongitudeDegrees>
            </Position>
            <AltitudeMeters>581</AltitudeMeters>
            <DistanceMeters>11631.67444526</DistanceMeters>
          </Trackpoint>
          <Trackpoint>
            <Time>2019-05-08T07:31:40.000Z</Time>
            <Position>
              <LatitudeDegrees>42.88578252308070659637451171875</LatitudeDegrees>
              <LongitudeDegrees>0.61567082069814205169677734375</LongitudeDegrees>
            </Position>
            <AltitudeMeters>582</AltitudeMeters>
            <DistanceMeters>11639.682666217</DistanceMeters>
          </Trackpoint>
          <Trackpoint>
            <Time>2019-05-08T07:31:41.000Z</Time>
            <Position>
              <LatitudeDegrees>42.88580012507736682891845703125</LatitudeDegrees>
              <LongitudeDegrees>0.61566931195557117462158203125</LongitudeDegrees>
            </Position>
            <AltitudeMeters>582.4000244140625</AltitudeMeters>
            <DistanceMeters>11641.648594171</DistanceMeters>
          </Trackpoint>
          <Trackpoint>
            <Time>2019-05-08T07:31:46.000Z</Time>
            <Position>
              <LatitudeDegrees>42.88589098490774631500244140625</LatitudeDegrees>
              <LongitudeDegrees>0.61564969830214977264404296875</LongitudeDegrees>
            </Position>
            <AltitudeMeters>583.5999755859375</AltitudeMeters>
            <DistanceMeters>11651.886813125</DistanceMeters>
          </Trackpoint>
          <Trackpoint>
            <Time>2019-05-08T07:31:50.000Z</Time>
            <Position>
              <LatitudeDegrees>42.88596801459789276123046875</LatitudeDegrees>
              <LongitudeDegrees>0.6156405620276927947998046875</LongitudeDegrees>
            </Position>
            <AltitudeMeters>584.4000244140625</AltitudeMeters>
            <DistanceMeters>11660.492897426</DistanceMeters>
          </Trackpoint>
          <Trackpoint>
            <Time>2019-05-08T07:31:54.000Z</Time>
            <Position>
              <LatitudeDegrees>42.8860389254987239837646484375</LatitudeDegrees>
              <LongitudeDegrees>0.61564701609313488006591796875</LongitudeDegrees>
            </Position>
            <AltitudeMeters>585.4000244140625</AltitudeMeters>
            <DistanceMeters>11668.403550355</DistanceMeters>
          </Trackpoint>
          <Trackpoint>
            <Time>2019-05-08T07:31:56.000Z</Time>
            <Position>
              <LatitudeDegrees>42.8860721178352832794189453125</LatitudeDegrees>
              <LongitudeDegrees>0.61567735858261585235595703125</LongitudeDegrees>
            </Position>
            <AltitudeMeters>585.79998779296875</AltitudeMeters>
            <DistanceMeters>11672.850556922</DistanceMeters>
          </Trackpoint>
          <Trackpoint>
            <Time>2019-05-08T07:32:00.000Z</Time>
            <Position>
              <LatitudeDegrees>42.88611377589404582977294921875</LatitudeDegrees>
              <LongitudeDegrees>0.6157626025378704071044921875</LongitudeDegrees>
            </Position>
            <AltitudeMeters>587</AltitudeMeters>
            <DistanceMeters>11681.206966507</DistanceMeters>
          </Trackpoint>
          <Trackpoint>
            <Time>2019-05-08T07:32:04.000Z</Time>
            <Position>
              <LatitudeDegrees>42.88615467958152294158935546875</LatitudeDegrees>
              <LongitudeDegrees>0.61584751121699810028076171875</LongitudeDegrees>
            </Position>
            <AltitudeMeters>588</AltitudeMeters>
            <DistanceMeters>11689.493928034</DistanceMeters>
          </Trackpoint>
          <Trackpoint>
            <Time>2019-05-08T07:32:08.000Z</Time>
            <Position>
              <LatitudeDegrees>42.88619960658252239227294921875</LatitudeDegrees>
              <LongitudeDegrees>0.61593485064804553985595703125</LongitudeDegrees>
            </Position>
            <AltitudeMeters>588.79998779296875</AltitudeMeters>
            <DistanceMeters>11698.196009455</DistanceMeters>
          </Trackpoint>
          <Trackpoint>
            <Time>2019-05-08T07:32:10.000Z</Time>
            <Position>
              <LatitudeDegrees>42.88623112253844738006591796875</LatitudeDegrees>
              <LongitudeDegrees>0.61596837826073169708251953125</LongitudeDegrees>
            </Position>
            <AltitudeMeters>589</AltitudeMeters>
            <DistanceMeters>11702.644031205</DistanceMeters>
          </Trackpoint>
          <Trackpoint>
            <Time>2019-05-08T07:32:13.000Z</Time>
            <Position>
              <LatitudeDegrees>42.88628225214779376983642578125</LatitudeDegrees>
              <LongitudeDegrees>0.615995787084102630615234375</LongitudeDegrees>
            </Position>
            <AltitudeMeters>589.5999755859375</AltitudeMeters>
            <DistanceMeters>11708.758319101</DistanceMeters>
          </Trackpoint>
          <Trackpoint>
            <Time>2019-05-08T07:32:14.000Z</Time>
            <Position>
              <LatitudeDegrees>42.88630035705864429473876953125</LatitudeDegrees>
              <LongitudeDegrees>0.61598631553351879119873046875</LongitudeDegrees>
            </Position>
            <AltitudeMeters>589.5999755859375</AltitudeMeters>
            <DistanceMeters>11710.916911107</DistanceMeters>
          </Trackpoint>
          <Trackpoint>
            <Time>2019-05-08T07:32:19.000Z</Time>
            <Position>
              <LatitudeDegrees>42.8863856010138988494873046875</LatitudeDegrees>
              <LongitudeDegrees>0.61592747457325458526611328125</LongitudeDegrees>
            </Position>
            <AltitudeMeters>590.5999755859375</AltitudeMeters>
            <DistanceMeters>11721.549292166</DistanceMeters>
          </Trackpoint>
          <Trackpoint>
            <Time>2019-05-08T07:32:21.000Z</Time>
            <Position>
              <LatitudeDegrees>42.88640026934444904327392578125</LatitudeDegrees>
              <LongitudeDegrees>0.61591255478560924530029296875</LongitudeDegrees>
            </Position>
            <AltitudeMeters>591.4000244140625</AltitudeMeters>
            <DistanceMeters>11723.587388132</DistanceMeters>
          </Trackpoint>
          <Trackpoint>
            <Time>2019-05-08T07:32:22.000Z</Time>
            <Position>
              <LatitudeDegrees>42.88641720078885555267333984375</LatitudeDegrees>
              <LongitudeDegrees>0.6158673763275146484375</LongitudeDegrees>
            </Position>
            <AltitudeMeters>591.5999755859375</AltitudeMeters>
            <DistanceMeters>11727.725144159</DistanceMeters>
          </Trackpoint>
          <Trackpoint>
            <Time>2019-05-08T07:32:23.000Z</Time>
            <Position>
              <LatitudeDegrees>42.88642088882625102996826171875</LatitudeDegrees>
              <LongitudeDegrees>0.61583627946674823760986328125</LongitudeDegrees>
            </Position>
            <AltitudeMeters>591.79998779296875</AltitudeMeters>
            <DistanceMeters>11730.292624598</DistanceMeters>
          </Trackpoint>
          <Trackpoint>
            <Time>2019-05-08T07:32:25.000Z</Time>
            <Position>
              <LatitudeDegrees>42.88642742671072483062744140625</LatitudeDegrees>
              <LongitudeDegrees>0.6157793663442134857177734375</LongitudeDegrees>
            </Position>
            <AltitudeMeters>592</AltitudeMeters>
            <DistanceMeters>11734.990443967</DistanceMeters>
          </Trackpoint>
          <Trackpoint>
            <Time>2019-05-08T07:32:27.000Z</Time>
            <Position>
              <LatitudeDegrees>42.88643346168100833892822265625</LatitudeDegrees>
              <LongitudeDegrees>0.61572982929646968841552734375</LongitudeDegrees>
            </Position>
            <AltitudeMeters>592.5999755859375</AltitudeMeters>
            <DistanceMeters>11739.085422838</DistanceMeters>
          </Trackpoint>
          <Trackpoint>
            <Time>2019-05-08T07:32:32.000Z</Time>
            <Position>
              <LatitudeDegrees>42.88644670508801937103271484375</LatitudeDegrees>
              <LongitudeDegrees>0.61561918817460536956787109375</LongitudeDegrees>
            </Position>
            <AltitudeMeters>594.20001220703125</AltitudeMeters>
            <DistanceMeters>11748.228257062</DistanceMeters>
          </Trackpoint>
          <Trackpoint>
            <Time>2019-05-08T07:32:34.000Z</Time>
            <Position>
              <LatitudeDegrees>42.8864442743360996246337890625</LatitudeDegrees>
              <LongitudeDegrees>0.6155788712203502655029296875</LongitudeDegrees>
            </Position>
            <AltitudeMeters>594.79998779296875</AltitudeMeters>
            <DistanceMeters>11751.526929843</DistanceMeters>
          </Trackpoint>
          <Trackpoint>
            <Time>2019-05-08T07:32:40.000Z</Time>
            <Position>
              <LatitudeDegrees>42.88647956214845180511474609375</LatitudeDegrees>
              <LongitudeDegrees>0.615474097430706024169921875</LongitudeDegrees>
            </Position>
            <AltitudeMeters>596.79998779296875</AltitudeMeters>
            <DistanceMeters>11760.930734319</DistanceMeters>
          </Trackpoint>
          <Trackpoint>
            <Time>2019-05-08T07:32:44.000Z</Time>
            <Position>
              <LatitudeDegrees>42.88648643530905246734619140625</LatitudeDegrees>
              <LongitudeDegrees>0.61539421789348125457763671875</LongitudeDegrees>
            </Position>
            <AltitudeMeters>597.4000244140625</AltitudeMeters>
            <DistanceMeters>11767.490331429</DistanceMeters>
          </Trackpoint>
          <Trackpoint>
            <Time>2019-05-08T07:32:47.000Z</Time>
            <Position>
              <LatitudeDegrees>42.88650043308734893798828125</LatitudeDegrees>
              <LongitudeDegrees>0.61533554457128047943115234375</LongitudeDegrees>
            </Position>
            <AltitudeMeters>598</AltitudeMeters>
            <DistanceMeters>11772.5231601</DistanceMeters>
          </Trackpoint>
          <Trackpoint>
            <Time>2019-05-08T07:32:49.000Z</Time>
            <Position>
              <LatitudeDegrees>42.88650118745863437652587890625</LatitudeDegrees>
              <LongitudeDegrees>0.61531391926109790802001953125</LongitudeDegrees>
            </Position>
            <AltitudeMeters>598.4000244140625</AltitudeMeters>
            <DistanceMeters>11774.290759163</DistanceMeters>
          </Trackpoint>
          <Trackpoint>
            <Time>2019-05-08T07:32:55.000Z</Time>
            <Position>
              <LatitudeDegrees>42.88651778362691402435302734375</LatitudeDegrees>
              <LongitudeDegrees>0.61515835113823413848876953125</LongitudeDegrees>
            </Position>
            <AltitudeMeters>599.79998779296875</AltitudeMeters>
            <DistanceMeters>11787.111268179</DistanceMeters>
          </Trackpoint>
          <Trackpoint>
            <Time>2019-05-08T07:32:57.000Z</Time>
            <Position>
              <LatitudeDegrees>42.8865267522633075714111328125</LatitudeDegrees>
              <LongitudeDegrees>0.61511702835559844970703125</LongitudeDegrees>
            </Position>
            <AltitudeMeters>600.20001220703125</AltitudeMeters>
            <DistanceMeters>11790.625972232</DistanceMeters>
          </Trackpoint>
          <Trackpoint>
            <Time>2019-05-08T07:33:00.000Z</Time>
            <Position>
              <LatitudeDegrees>42.88655273616313934326171875</LatitudeDegrees>
              <LongitudeDegrees>0.6150613725185394287109375</LongitudeDegrees>
            </Position>
            <AltitudeMeters>600.79998779296875</AltitudeMeters>
            <DistanceMeters>11796.008210171</DistanceMeters>
          </Trackpoint>
          <Trackpoint>
            <Time>2019-05-08T07:33:02.000Z</Time>
            <Position>
              <LatitudeDegrees>42.88655365817248821258544921875</LatitudeDegrees>
              <LongitudeDegrees>0.6150199659168720245361328125</LongitudeDegrees>
            </Position>
            <AltitudeMeters>601.20001220703125</AltitudeMeters>
            <DistanceMeters>11799.386673819</DistanceMeters>
          </Trackpoint>
          <Trackpoint>
            <Time>2019-05-08T07:33:07.000Z</Time>
            <Position>
              <LatitudeDegrees>42.88655080832540988922119140625</LatitudeDegrees>
              <LongitudeDegrees>0.61491007916629314422607421875</LongitudeDegrees>
            </Position>
            <AltitudeMeters>602.20001220703125</AltitudeMeters>
            <DistanceMeters>11808.354497458</DistanceMeters>
          </Trackpoint>
          <Trackpoint>
            <Time>2019-05-08T07:33:09.000Z</Time>
            <Position>
              <LatitudeDegrees>42.8865626268088817596435546875</LatitudeDegrees>
              <LongitudeDegrees>0.61486833728849887847900390625</LongitudeDegrees>
            </Position>
            <AltitudeMeters>602.79998779296875</AltitudeMeters>
            <DistanceMeters>11812.005304606</DistanceMeters>
          </Trackpoint>
          <Trackpoint>
            <Time>2019-05-08T07:33:11.000Z</Time>
            <Position>
              <LatitudeDegrees>42.88657293654978275299072265625</LatitudeDegrees>
              <LongitudeDegrees>0.61485123820602893829345703125</LongitudeDegrees>
            </Position>
            <AltitudeMeters>602.79998779296875</AltitudeMeters>
            <DistanceMeters>11813.810812179</DistanceMeters>
          </Trackpoint>
          <Trackpoint>
            <Time>2019-05-08T07:33:12.000Z</Time>
            <Position>
              <LatitudeDegrees>42.88658433593809604644775390625</LatitudeDegrees>
              <LongitudeDegrees>0.614810250699520111083984375</LongitudeDegrees>
            </Position>
            <AltitudeMeters>603.20001220703125</AltitudeMeters>
            <DistanceMeters>11817.386646102</DistanceMeters>
          </Trackpoint>
          <Trackpoint>
            <Time>2019-05-08T07:33:15.000Z</Time>
            <Position>
              <LatitudeDegrees>42.886593975126743316650390625</LatitudeDegrees>
              <LongitudeDegrees>0.61474621295928955078125</LongitudeDegrees>
            </Position>
            <AltitudeMeters>603.79998779296875</AltitudeMeters>
            <DistanceMeters>11822.718313819</DistanceMeters>
          </Trackpoint>
          <Trackpoint>
            <Time>2019-05-08T07:33:18.000Z</Time>
            <Position>
              <LatitudeDegrees>42.88659892044961452484130859375</LatitudeDegrees>
              <LongitudeDegrees>0.61470304615795612335205078125</LongitudeDegrees>
            </Position>
            <AltitudeMeters>604.5999755859375</AltitudeMeters>
            <DistanceMeters>11826.281498838</DistanceMeters>
          </Trackpoint>
          <Trackpoint>
            <Time>2019-05-08T07:33:21.000Z</Time>
            <Position>
              <LatitudeDegrees>42.8866253234446048736572265625</LatitudeDegrees>
              <LongitudeDegrees>0.61462593264877796173095703125</LongitudeDegrees>
            </Position>
            <AltitudeMeters>605</AltitudeMeters>
            <DistanceMeters>11833.223003567</DistanceMeters>
          </Trackpoint>
          <Trackpoint>
            <Time>2019-05-08T07:33:22.000Z</Time>
            <Position>
              <LatitudeDegrees>42.88663647137582302093505859375</LatitudeDegrees>
              <LongitudeDegrees>0.61461143195629119873046875</LongitudeDegrees>
            </Position>
            <AltitudeMeters>605.20001220703125</AltitudeMeters>
            <DistanceMeters>11834.936122023</DistanceMeters>
          </Trackpoint>
          <Trackpoint>
            <Time>2019-05-08T07:33:23.000Z</Time>
            <Position>
              <LatitudeDegrees>42.88664418272674083709716796875</LatitudeDegrees>
              <LongitudeDegrees>0.6145931594073772430419921875</LongitudeDegrees>
            </Position>
            <AltitudeMeters>605.4000244140625</AltitudeMeters>
            <DistanceMeters>11836.654503528</DistanceMeters>
          </Trackpoint>
          <Trackpoint>
            <Time>2019-05-08T07:33:26.000Z</Time>
            <Position>
              <LatitudeDegrees>42.8866548277437686920166015625</LatitudeDegrees>
              <LongitudeDegrees>0.614530630409717559814453125</LongitudeDegrees>
            </Position>
            <AltitudeMeters>605.79998779296875</AltitudeMeters>
            <DistanceMeters>11841.889604483</DistanceMeters>
          </Trackpoint>
          <Trackpoint>
            <Time>2019-05-08T07:33:31.000Z</Time>
            <Position>
              <LatitudeDegrees>42.886669076979160308837890625</LatitudeDegrees>
              <LongitudeDegrees>0.61443046666681766510009765625</LongitudeDegrees>
            </Position>
            <AltitudeMeters>607.20001220703125</AltitudeMeters>
            <DistanceMeters>11850.210819909</DistanceMeters>
          </Trackpoint>
          <Trackpoint>
            <Time>2019-05-08T07:33:36.000Z</Time>
            <Position>
              <LatitudeDegrees>42.886723391711711883544921875</LatitudeDegrees>
              <LongitudeDegrees>0.61435662209987640380859375</LongitudeDegrees>
            </Position>
            <AltitudeMeters>608.5999755859375</AltitudeMeters>
            <DistanceMeters>11858.744197696</DistanceMeters>
          </Trackpoint>
          <Trackpoint>
            <Time>2019-05-08T07:33:38.000Z</Time>
            <Position>
              <LatitudeDegrees>42.886740826070308685302734375</LatitudeDegrees>
              <LongitudeDegrees>0.6143520958721637725830078125</LongitudeDegrees>
            </Position>
            <AltitudeMeters>608.79998779296875</AltitudeMeters>
            <DistanceMeters>11860.719290864</DistanceMeters>
          </Trackpoint>
          <Trackpoint>
            <Time>2019-05-08T07:33:39.000Z</Time>
            <Position>
              <LatitudeDegrees>42.88677292875945568084716796875</LatitudeDegrees>
              <LongitudeDegrees>0.6143554486334323883056640625</LongitudeDegrees>
            </Position>
            <AltitudeMeters>609</AltitudeMeters>
            <DistanceMeters>11864.302692698</DistanceMeters>
          </Trackpoint>
          <Trackpoint>
            <Time>2019-05-08T07:33:40.000Z</Time>
            <Position>
              <LatitudeDegrees>42.88678734563291072845458984375</LatitudeDegrees>
              <LongitudeDegrees>0.61436709947884082794189453125</LongitudeDegrees>
            </Position>
            <AltitudeMeters>609.4000244140625</AltitudeMeters>
            <DistanceMeters>11866.169671409</DistanceMeters>
          </Trackpoint>
          <Trackpoint>
            <Time>2019-05-08T07:33:41.000Z</Time>
            <Position>
              <LatitudeDegrees>42.88680084049701690673828125</LatitudeDegrees>
              <LongitudeDegrees>0.61438771896064281463623046875</LongitudeDegrees>
            </Position>
            <AltitudeMeters>609.5999755859375</AltitudeMeters>
            <DistanceMeters>11868.426430837</DistanceMeters>
          </Trackpoint>
          <Trackpoint>
            <Time>2019-05-08T07:33:42.000Z</Time>
            <Position>
              <LatitudeDegrees>42.88681022822856903076171875</LatitudeDegrees>
              <LongitudeDegrees>0.61441336758434772491455078125</LongitudeDegrees>
            </Position>
            <AltitudeMeters>609.79998779296875</AltitudeMeters>
            <DistanceMeters>11870.765709855</DistanceMeters>
          </Trackpoint>
          <Trackpoint>
            <Time>2019-05-08T07:33:45.000Z</Time>
            <Position>
              <LatitudeDegrees>42.88682355545461177825927734375</LatitudeDegrees>
              <LongitudeDegrees>0.6145019643008708953857421875</LongitudeDegrees>
            </Position>
            <AltitudeMeters>610.79998779296875</AltitudeMeters>
            <DistanceMeters>11878.141766428</DistanceMeters>
          </Trackpoint>
          <Trackpoint>
            <Time>2019-05-08T07:33:50.000Z</Time>
            <Position>
              <LatitudeDegrees>42.88682858459651470184326171875</LatitudeDegrees>
              <LongitudeDegrees>0.61463766731321811676025390625</LongitudeDegrees>
            </Position>
            <AltitudeMeters>612</AltitudeMeters>
            <DistanceMeters>11889.222060618</DistanceMeters>
          </Trackpoint>
          <Trackpoint>
            <Time>2019-05-08T07:33:51.000Z</Time>
            <Position>
              <LatitudeDegrees>42.88682766258716583251953125</LatitudeDegrees>
              <LongitudeDegrees>0.61466197483241558074951171875</LongitudeDegrees>
            </Position>
            <AltitudeMeters>612</AltitudeMeters>
            <DistanceMeters>11891.206276667</DistanceMeters>
          </Trackpoint>
          <Trackpoint>
            <Time>2019-05-08T07:33:59.000Z</Time>
            <Position>
              <LatitudeDegrees>42.88684652186930179595947265625</LatitudeDegrees>
              <LongitudeDegrees>0.61487755738198757171630859375</LongitudeDegrees>
            </Position>
            <AltitudeMeters>613.4000244140625</AltitudeMeters>
            <DistanceMeters>11908.911872783</DistanceMeters>
          </Trackpoint>
          <Trackpoint>
            <Time>2019-05-08T07:34:00.000Z</Time>
            <Position>
              <LatitudeDegrees>42.88684953935444355010986328125</LatitudeDegrees>
              <LongitudeDegrees>0.61490505002439022064208984375</LongitudeDegrees>
            </Position>
            <AltitudeMeters>613.79998779296875</AltitudeMeters>
            <DistanceMeters>11911.180604494</DistanceMeters>
          </Trackpoint>
          <Trackpoint>
            <Time>2019-05-08T07:34:04.000Z</Time>
            <Position>
              <LatitudeDegrees>42.8868613578379154205322265625</LatitudeDegrees>
              <LongitudeDegrees>0.61501166783273220062255859375</LongitudeDegrees>
            </Position>
            <AltitudeMeters>614.4000244140625</AltitudeMeters>
            <DistanceMeters>11919.974555521</DistanceMeters>
          </Trackpoint>
          <Trackpoint>
            <Time>2019-05-08T07:34:06.000Z</Time>
            <Position>
              <LatitudeDegrees>42.8868623636662960052490234375</LatitudeDegrees>
              <LongitudeDegrees>0.6150662340223789215087890625</LongitudeDegrees>
            </Position>
            <AltitudeMeters>614.79998779296875</AltitudeMeters>
            <DistanceMeters>11924.425621429</DistanceMeters>
          </Trackpoint>
          <Trackpoint>
            <Time>2019-05-08T07:34:11.000Z</Time>
            <Position>
              <LatitudeDegrees>42.8868694044649600982666015625</LatitudeDegrees>
              <LongitudeDegrees>0.61520897783339023590087890625</LongitudeDegrees>
            </Position>
            <AltitudeMeters>615.4000244140625</AltitudeMeters>
            <DistanceMeters>11936.093029127</DistanceMeters>
          </Trackpoint>
          <Trackpoint>
            <Time>2019-05-08T07:34:18.000Z</Time>
            <Position>
              <LatitudeDegrees>42.88686647079885005950927734375</LatitudeDegrees>
              <LongitudeDegrees>0.61542087234556674957275390625</LongitudeDegrees>
            </Position>
            <AltitudeMeters>616.5999755859375</AltitudeMeters>
            <DistanceMeters>11953.376400579</DistanceMeters>
          </Trackpoint>
          <Trackpoint>
            <Time>2019-05-08T07:34:19.000Z</Time>
            <Position>
              <LatitudeDegrees>42.88686630316078662872314453125</LatitudeDegrees>
              <LongitudeDegrees>0.6154507957398891448974609375</LongitudeDegrees>
            </Position>
            <AltitudeMeters>616.79998779296875</AltitudeMeters>
            <DistanceMeters>11955.815830918</DistanceMeters>
          </Trackpoint>
          <Trackpoint>
            <Time>2019-05-08T07:34:22.000Z</Time>
            <Position>
              <LatitudeDegrees>42.88686395622789859771728515625</LatitudeDegrees>
              <LongitudeDegrees>0.6155098043382167816162109375</LongitudeDegrees>
            </Position>
            <AltitudeMeters>616.79998779296875</AltitudeMeters>
            <DistanceMeters>11960.635100221</DistanceMeters>
          </Trackpoint>
          <Trackpoint>
            <Time>2019-05-08T07:34:28.000Z</Time>
            <Position>
              <LatitudeDegrees>42.8868650458753108978271484375</LatitudeDegrees>
              <LongitudeDegrees>0.6157265603542327880859375</LongitudeDegrees>
            </Position>
            <AltitudeMeters>617.4000244140625</AltitudeMeters>
            <DistanceMeters>11978.312112561</DistanceMeters>
          </Trackpoint>
          <Trackpoint>
            <Time>2019-05-08T07:34:31.000Z</Time>
            <Position>
              <LatitudeDegrees>42.88687468506395816802978515625</LatitudeDegrees>
              <LongitudeDegrees>0.61581582762300968170166015625</LongitudeDegrees>
            </Position>
            <AltitudeMeters>617.4000244140625</AltitudeMeters>
            <DistanceMeters>11985.670396216</DistanceMeters>
          </Trackpoint>
          <Trackpoint>
            <Time>2019-05-08T07:34:39.000Z</Time>
            <Position>
              <LatitudeDegrees>42.88692832924425601959228515625</LatitudeDegrees>
              <LongitudeDegrees>0.6160445697605609893798828125</LongitudeDegrees>
            </Position>
            <AltitudeMeters>618.20001220703125</AltitudeMeters>
            <DistanceMeters>12005.256736803</DistanceMeters>
          </Trackpoint>
          <Trackpoint>
            <Time>2019-05-08T07:34:40.000Z</Time>
            <Position>
              <LatitudeDegrees>42.8869409859180450439453125</LatitudeDegrees>
              <LongitudeDegrees>0.61607181094586849212646484375</LongitudeDegrees>
            </Position>
            <AltitudeMeters>618.4000244140625</AltitudeMeters>
            <DistanceMeters>12007.888479312</DistanceMeters>
          </Trackpoint>
          <Trackpoint>
            <Time>2019-05-08T07:34:47.000Z</Time>
            <Position>
              <LatitudeDegrees>42.8870514594018459320068359375</LatitudeDegrees>
              <LongitudeDegrees>0.6162333302199840545654296875</LongitudeDegrees>
            </Position>
            <AltitudeMeters>619.4000244140625</AltitudeMeters>
            <DistanceMeters>12025.907508936</DistanceMeters>
          </Trackpoint>
          <Trackpoint>
            <Time>2019-05-08T07:34:49.000Z</Time>
            <Position>
              <LatitudeDegrees>42.8870937041938304901123046875</LatitudeDegrees>
              <LongitudeDegrees>0.6162648461759090423583984375</LongitudeDegrees>
            </Position>
            <AltitudeMeters>619.79998779296875</AltitudeMeters>
            <DistanceMeters>12031.266206828</DistanceMeters>
          </Trackpoint>
          <Trackpoint>
            <Time>2019-05-08T07:34:54.000Z</Time>
            <Position>
              <LatitudeDegrees>42.887216247618198394775390625</LatitudeDegrees>
              <LongitudeDegrees>0.61631153337657451629638671875</LongitudeDegrees>
            </Position>
            <AltitudeMeters>620.5999755859375</AltitudeMeters>
            <DistanceMeters>12045.426781587</DistanceMeters>
          </Trackpoint>
          <Trackpoint>
            <Time>2019-05-08T07:34:57.000Z</Time>
            <Position>
              <LatitudeDegrees>42.88729260675609111785888671875</LatitudeDegrees>
              <LongitudeDegrees>0.61634145677089691162109375</LongitudeDegrees>
            </Position>
            <AltitudeMeters>621</AltitudeMeters>
            <DistanceMeters>12054.268352249</DistanceMeters>
          </Trackpoint>
          <Trackpoint>
            <Time>2019-05-08T07:35:04.000Z</Time>
            <Position>
              <LatitudeDegrees>42.887476421892642974853515625</LatitudeDegrees>
              <LongitudeDegrees>0.61638546176254749298095703125</LongitudeDegrees>
            </Position>
            <AltitudeMeters>621.79998779296875</AltitudeMeters>
            <DistanceMeters>12075.039896547</DistanceMeters>
          </Trackpoint>
          <Trackpoint>
            <Time>2019-05-08T07:35:09.000Z</Time>
            <Position>
              <LatitudeDegrees>42.88761765696108341217041015625</LatitudeDegrees>
              <LongitudeDegrees>0.61643256805837154388427734375</LongitudeDegrees>
            </Position>
            <AltitudeMeters>622.4000244140625</AltitudeMeters>
            <DistanceMeters>12091.222362888</DistanceMeters>
          </Trackpoint>
          <Trackpoint>
            <Time>2019-05-08T07:35:13.000Z</Time>
            <Position>
              <LatitudeDegrees>42.88772595115005970001220703125</LatitudeDegrees>
              <LongitudeDegrees>0.61647498048841953277587890625</LongitudeDegrees>
            </Position>
            <AltitudeMeters>623</AltitudeMeters>
            <DistanceMeters>12103.762289171</DistanceMeters>
          </Trackpoint>
          <Trackpoint>
            <Time>2019-05-08T07:35:19.000Z</Time>
            <Position>
              <LatitudeDegrees>42.8878869675099849700927734375</LatitudeDegrees>
              <LongitudeDegrees>0.61653248034417629241943359375</LongitudeDegrees>
            </Position>
            <AltitudeMeters>623.4000244140625</AltitudeMeters>
            <DistanceMeters>12122.286893486</DistanceMeters>
          </Trackpoint>
          <Trackpoint>
            <Time>2019-05-08T07:35:21.000Z</Time>
            <Position>
              <LatitudeDegrees>42.88794103078544139862060546875</LatitudeDegrees>
              <LongitudeDegrees>0.6165535189211368560791015625</LongitudeDegrees>
            </Position>
            <AltitudeMeters>623.79998779296875</AltitudeMeters>
            <DistanceMeters>12128.544242083</DistanceMeters>
          </Trackpoint>
          <Trackpoint>
            <Time>2019-05-08T07:35:26.000Z</Time>
            <Position>
              <LatitudeDegrees>42.8880747221410274505615234375</LatitudeDegrees>
              <LongitudeDegrees>0.6165821850299835205078125</LongitudeDegrees>
            </Position>
            <AltitudeMeters>624.5999755859375</AltitudeMeters>
            <DistanceMeters>12143.606800652</DistanceMeters>
          </Trackpoint>
          <Trackpoint>
            <Time>2019-05-08T07:35:31.000Z</Time>
            <Position>
              <LatitudeDegrees>42.8882098384201526641845703125</LatitudeDegrees>
              <LongitudeDegrees>0.6165955960750579833984375</LongitudeDegrees>
            </Position>
            <AltitudeMeters>625.20001220703125</AltitudeMeters>
            <DistanceMeters>12158.68523773</DistanceMeters>
          </Trackpoint>
          <Trackpoint>
            <Time>2019-05-08T07:35:34.000Z</Time>
            <Position>
              <LatitudeDegrees>42.8882889635860919952392578125</LatitudeDegrees>
              <LongitudeDegrees>0.61661059968173503875732421875</LongitudeDegrees>
            </Position>
            <AltitudeMeters>625.5999755859375</AltitudeMeters>
            <DistanceMeters>12167.576204448</DistanceMeters>
          </Trackpoint>
          <Trackpoint>
            <Time>2019-05-08T07:35:37.000Z</Time>
            <Position>
              <LatitudeDegrees>42.8883660770952701568603515625</LatitudeDegrees>
              <LongitudeDegrees>0.6166017986834049224853515625</LongitudeDegrees>
            </Position>
            <AltitudeMeters>625.79998779296875</AltitudeMeters>
            <DistanceMeters>12176.188582047</DistanceMeters>
          </Trackpoint>
          <Trackpoint>
            <Time>2019-05-08T07:35:39.000Z</Time>
            <Position>
              <LatitudeDegrees>42.88841661997139453887939453125</LatitudeDegrees>
              <LongitudeDegrees>0.61660003848373889923095703125</LongitudeDegrees>
            </Position>
            <AltitudeMeters>626.20001220703125</AltitudeMeters>
            <DistanceMeters>12181.815254955</DistanceMeters>
          </Trackpoint>
          <Trackpoint>
            <Time>2019-05-08T07:35:43.000Z</Time>
            <Position>
              <LatitudeDegrees>42.88851502351462841033935546875</LatitudeDegrees>
              <LongitudeDegrees>0.61661881394684314727783203125</LongitudeDegrees>
            </Position>
            <AltitudeMeters>626.79998779296875</AltitudeMeters>
            <DistanceMeters>12192.874339699</DistanceMeters>
          </Trackpoint>
          <Trackpoint>
            <Time>2019-05-08T07:35:46.000Z</Time>
            <Position>
              <LatitudeDegrees>42.88858987390995025634765625</LatitudeDegrees>
              <LongitudeDegrees>0.61662870459258556365966796875</LongitudeDegrees>
            </Position>
            <AltitudeMeters>627.5999755859375</AltitudeMeters>
            <DistanceMeters>12201.244246093</DistanceMeters>
          </Trackpoint>
          <Trackpoint>
            <Time>2019-05-08T07:35:47.000Z</Time>
            <Position>
              <LatitudeDegrees>42.88861594162881374359130859375</LatitudeDegrees>
              <LongitudeDegrees>0.6166331470012664794921875</LongitudeDegrees>
            </Position>
            <AltitudeMeters>627.79998779296875</AltitudeMeters>
            <DistanceMeters>12204.166993485</DistanceMeters>
          </Trackpoint>
          <Trackpoint>
            <Time>2019-05-08T07:35:53.000Z</Time>
            <Position>
              <LatitudeDegrees>42.88877653889358043670654296875</LatitudeDegrees>
              <LongitudeDegrees>0.61664496548473834991455078125</LongitudeDegrees>
            </Position>
            <AltitudeMeters>629</AltitudeMeters>
            <DistanceMeters>12222.067867561</DistanceMeters>
          </Trackpoint>
          <Trackpoint>
            <Time>2019-05-08T07:35:55.000Z</Time>
            <Position>
              <LatitudeDegrees>42.88882615976035594940185546875</LatitudeDegrees>
              <LongitudeDegrees>0.6166500784456729888916015625</LongitudeDegrees>
            </Position>
            <AltitudeMeters>630</AltitudeMeters>
            <DistanceMeters>12227.606384482</DistanceMeters>
          </Trackpoint>
          <Trackpoint>
            <Time>2019-05-08T07:35:57.000Z</Time>
            <Position>
              <LatitudeDegrees>42.888875864446163177490234375</LatitudeDegrees>
              <LongitudeDegrees>0.616648234426975250244140625</LongitudeDegrees>
            </Position>
            <AltitudeMeters>630.4000244140625</AltitudeMeters>
            <DistanceMeters>12233.140823866</DistanceMeters>
          </Trackpoint>
          <Trackpoint>
            <Time>2019-05-08T07:36:03.000Z</Time>
            <Position>
              <LatitudeDegrees>42.88901877589523792266845703125</LatitudeDegrees>
              <LongitudeDegrees>0.61663121916353702545166015625</LongitudeDegrees>
            </Position>
            <AltitudeMeters>631.79998779296875</AltitudeMeters>
            <DistanceMeters>12249.107574261</DistanceMeters>
          </Trackpoint>
          <Trackpoint>
            <Time>2019-05-08T07:36:04.000Z</Time>
            <Position>
              <LatitudeDegrees>42.8890372999012470245361328125</LatitudeDegrees>
              <LongitudeDegrees>0.61663222499191761016845703125</LongitudeDegrees>
            </Position>
            <AltitudeMeters>631.79998779296875</AltitudeMeters>
            <DistanceMeters>12251.172082939</DistanceMeters>
          </Trackpoint>
          <Trackpoint>
            <Time>2019-05-08T07:36:09.000Z</Time>
            <Position>
              <LatitudeDegrees>42.889142073690891265869140625</LatitudeDegrees>
              <LongitudeDegrees>0.61664454638957977294921875</LongitudeDegrees>
            </Position>
            <AltitudeMeters>632.79998779296875</AltitudeMeters>
            <DistanceMeters>12262.876967381</DistanceMeters>
          </Trackpoint>
          <Trackpoint>
            <Time>2019-05-08T07:36:10.000Z</Time>
            <Position>
              <LatitudeDegrees>42.8891650401055812835693359375</LatitudeDegrees>
              <LongitudeDegrees>0.6166410259902477264404296875</LongitudeDegrees>
            </Position>
            <AltitudeMeters>633</AltitudeMeters>
            <DistanceMeters>12265.447962511</DistanceMeters>
          </Trackpoint>
          <Trackpoint>
            <Time>2019-05-08T07:36:15.000Z</Time>
            <Position>
              <LatitudeDegrees>42.88928062655031681060791015625</LatitudeDegrees>
              <LongitudeDegrees>0.61666323803365230560302734375</LongitudeDegrees>
            </Position>
            <AltitudeMeters>633.79998779296875</AltitudeMeters>
            <DistanceMeters>12278.439890346</DistanceMeters>
          </Trackpoint>
          <Trackpoint>
            <Time>2019-05-08T07:36:16.000Z</Time>
            <Position>
              <LatitudeDegrees>42.88930325768887996673583984375</LatitudeDegrees>
              <LongitudeDegrees>0.6166624836623668670654296875</LongitudeDegrees>
            </Position>
            <AltitudeMeters>634.20001220703125</AltitudeMeters>
            <DistanceMeters>12280.961233999</DistanceMeters>
          </Trackpoint>
          <Trackpoint>
            <Time>2019-05-08T07:36:21.000Z</Time>
            <Position>
              <LatitudeDegrees>42.8894171677529811859130859375</LatitudeDegrees>
              <LongitudeDegrees>0.616683103144168853759765625</LongitudeDegrees>
            </Position>
            <AltitudeMeters>634.79998779296875</AltitudeMeters>
            <DistanceMeters>12293.750714235</DistanceMeters>
          </Trackpoint>
          <Trackpoint>
            <Time>2019-05-08T07:36:22.000Z</Time>
            <Position>
              <LatitudeDegrees>42.8894389607012271881103515625</LatitudeDegrees>
              <LongitudeDegrees>0.61668637208640575408935546875</LongitudeDegrees>
            </Position>
            <AltitudeMeters>635</AltitudeMeters>
            <DistanceMeters>12296.19199473</DistanceMeters>
          </Trackpoint>
          <Trackpoint>
            <Time>2019-05-08T07:36:26.000Z</Time>
            <Position>
              <LatitudeDegrees>42.88952839560806751251220703125</LatitudeDegrees>
              <LongitudeDegrees>0.6166872940957546234130859375</LongitudeDegrees>
            </Position>
            <AltitudeMeters>635.79998779296875</AltitudeMeters>
            <DistanceMeters>12306.146695072</DistanceMeters>
          </Trackpoint>
          <Trackpoint>
            <Time>2019-05-08T07:36:29.000Z</Time>
            <Position>
              <LatitudeDegrees>42.88959746249020099639892578125</LatitudeDegrees>
              <LongitudeDegrees>0.61668234877288341522216796875</LongitudeDegrees>
            </Position>
            <AltitudeMeters>636.79998779296875</AltitudeMeters>
            <DistanceMeters>12313.844445498</DistanceMeters>
          </Trackpoint>
          <Trackpoint>
            <Time>2019-05-08T07:36:35.000Z</Time>
            <Position>
              <LatitudeDegrees>42.8897380270063877105712890625</LatitudeDegrees>
              <LongitudeDegrees>0.61663960106670856475830078125</LongitudeDegrees>
            </Position>
            <AltitudeMeters>638.4000244140625</AltitudeMeters>
            <DistanceMeters>12329.873286223</DistanceMeters>
          </Trackpoint>
          <Trackpoint>
            <Time>2019-05-08T07:36:36.000Z</Time>
            <Position>
              <LatitudeDegrees>42.889759652316570281982421875</LatitudeDegrees>
              <LongitudeDegrees>0.61663649976253509521484375</LongitudeDegrees>
            </Position>
            <AltitudeMeters>638.5999755859375</AltitudeMeters>
            <DistanceMeters>12332.296001577</DistanceMeters>
          </Trackpoint>
          <Trackpoint>
            <Time>2019-05-08T07:36:39.000Z</Time>
            <Position>
              <LatitudeDegrees>42.88982360623776912689208984375</LatitudeDegrees>
              <LongitudeDegrees>0.61664530076086521148681640625</LongitudeDegrees>
            </Position>
            <AltitudeMeters>639.5999755859375</AltitudeMeters>
            <DistanceMeters>12339.45082536</DistanceMeters>
          </Trackpoint>
          <Trackpoint>
            <Time>2019-05-08T07:36:41.000Z</Time>
            <Position>
              <LatitudeDegrees>42.889856882393360137939453125</LatitudeDegrees>
              <LongitudeDegrees>0.61667648144066333770751953125</LongitudeDegrees>
            </Position>
            <AltitudeMeters>640</AltitudeMeters>
            <DistanceMeters>12343.944292944</DistanceMeters>
          </Trackpoint>
          <Trackpoint>
            <Time>2019-05-08T07:36:49.000Z</Time>
            <Position>
              <LatitudeDegrees>42.8899891488254070281982421875</LatitudeDegrees>
              <LongitudeDegrees>0.6167900562286376953125</LongitudeDegrees>
            </Position>
            <AltitudeMeters>641.79998779296875</AltitudeMeters>
            <DistanceMeters>12361.336777838</DistanceMeters>
          </Trackpoint>
          <Trackpoint>
            <Time>2019-05-08T07:36:52.000Z</Time>
            <Position>
              <LatitudeDegrees>42.89004757069051265716552734375</LatitudeDegrees>
              <LongitudeDegrees>0.61682215891778469085693359375</LongitudeDegrees>
            </Position>
            <AltitudeMeters>642.20001220703125</AltitudeMeters>
            <DistanceMeters>12368.346890249</DistanceMeters>
          </Trackpoint>
          <Trackpoint>
            <Time>2019-05-08T07:36:55.000Z</Time>
            <Position>
              <LatitudeDegrees>42.8901086747646331787109375</LatitudeDegrees>
              <LongitudeDegrees>0.6168425269424915313720703125</LongitudeDegrees>
            </Position>
            <AltitudeMeters>642.5999755859375</AltitudeMeters>
            <DistanceMeters>12375.347334867</DistanceMeters>
          </Trackpoint>
          <Trackpoint>
            <Time>2019-05-08T07:36:56.000Z</Time>
            <Position>
              <LatitudeDegrees>42.8901276178658008575439453125</LatitudeDegrees>
              <LongitudeDegrees>0.6168532557785511016845703125</LongitudeDegrees>
            </Position>
            <AltitudeMeters>642.79998779296875</AltitudeMeters>
            <DistanceMeters>12377.629954877</DistanceMeters>
          </Trackpoint>
          <Trackpoint>
            <Time>2019-05-08T07:36:59.000Z</Time>
            <Position>
              <LatitudeDegrees>42.89018218405544757843017578125</LatitudeDegrees>
              <LongitudeDegrees>0.61688468791544437408447265625</LongitudeDegrees>
            </Position>
            <AltitudeMeters>643.4000244140625</AltitudeMeters>
            <DistanceMeters>12384.221823189</DistanceMeters>
          </Trackpoint>
          <Trackpoint>
            <Time>2019-05-08T07:37:00.000Z</Time>
            <Position>
              <LatitudeDegrees>42.8902025520801544189453125</LatitudeDegrees>
              <LongitudeDegrees>0.6168825924396514892578125</LongitudeDegrees>
            </Position>
            <AltitudeMeters>643.4000244140625</AltitudeMeters>
            <DistanceMeters>12386.494531645</DistanceMeters>
          </Trackpoint>
          <Trackpoint>
            <Time>2019-05-08T07:37:02.000Z</Time>
            <Position>
              <LatitudeDegrees>42.89024102501571178436279296875</LatitudeDegrees>
              <LongitudeDegrees>0.616878904402256011962890625</LongitudeDegrees>
            </Position>
            <AltitudeMeters>644</AltitudeMeters>
            <DistanceMeters>12390.786542357</DistanceMeters>
          </Trackpoint>
          <Trackpoint>
            <Time>2019-05-08T07:37:08.000Z</Time>
            <Position>
              <LatitudeDegrees>42.89036122150719165802001953125</LatitudeDegrees>
              <LongitudeDegrees>0.6168968416750431060791015625</LongitudeDegrees>
            </Position>
            <AltitudeMeters>644.79998779296875</AltitudeMeters>
            <DistanceMeters>12404.24415036</DistanceMeters>
          </Trackpoint>
          <Trackpoint>
            <Time>2019-05-08T07:37:12.000Z</Time>
            <Position>
              <LatitudeDegrees>42.89044856093823909759521484375</LatitudeDegrees>
              <LongitudeDegrees>0.61691050417721271514892578125</LongitudeDegrees>
            </Position>
            <AltitudeMeters>645.4000244140625</AltitudeMeters>
            <DistanceMeters>12414.028672344</DistanceMeters>
          </Trackpoint>
          <Trackpoint>
            <Time>2019-05-08T07:37:16.000Z</Time>
            <Position>
              <LatitudeDegrees>42.8905346430838108062744140625</LatitudeDegrees>
              <LongitudeDegrees>0.6169290281832218170166015625</LongitudeDegrees>
            </Position>
            <AltitudeMeters>646</AltitudeMeters>
            <DistanceMeters>12423.727916458</DistanceMeters>
          </Trackpoint>
          <Trackpoint>
            <Time>2019-05-08T07:37:24.000Z</Time>
            <Position>
              <LatitudeDegrees>42.89072013460099697113037109375</LatitudeDegrees>
              <LongitudeDegrees>0.6170101650059223175048828125</LongitudeDegrees>
            </Position>
            <AltitudeMeters>647</AltitudeMeters>
            <DistanceMeters>12445.407756839</DistanceMeters>
          </Trackpoint>
          <Trackpoint>
            <Time>2019-05-08T07:37:27.000Z</Time>
            <Position>
              <LatitudeDegrees>42.890795655548572540283203125</LatitudeDegrees>
              <LongitudeDegrees>0.61703480780124664306640625</LongitudeDegrees>
            </Position>
            <AltitudeMeters>647.20001220703125</AltitudeMeters>
            <DistanceMeters>12454.049965021</DistanceMeters>
          </Trackpoint>
          <Trackpoint>
            <Time>2019-05-08T07:37:33.000Z</Time>
            <Position>
              <LatitudeDegrees>42.89094376377761363983154296875</LatitudeDegrees>
              <LongitudeDegrees>0.6170701794326305389404296875</LongitudeDegrees>
            </Position>
            <AltitudeMeters>647.79998779296875</AltitudeMeters>
            <DistanceMeters>12470.785191966</DistanceMeters>
          </Trackpoint>
          <Trackpoint>
            <Time>2019-05-08T07:37:34.000Z</Time>
            <Position>
              <LatitudeDegrees>42.89096899330615997314453125</LatitudeDegrees>
              <LongitudeDegrees>0.6170698441565036773681640625</LongitudeDegrees>
            </Position>
            <AltitudeMeters>647.79998779296875</AltitudeMeters>
            <DistanceMeters>12473.594513381</DistanceMeters>
          </Trackpoint>
          <Trackpoint>
            <Time>2019-05-08T07:37:38.000Z</Time>
            <Position>
              <LatitudeDegrees>42.8910630382597446441650390625</LatitudeDegrees>
              <LongitudeDegrees>0.6170594505965709686279296875</LongitudeDegrees>
            </Position>
            <AltitudeMeters>648</AltitudeMeters>
            <DistanceMeters>12484.095717766</DistanceMeters>
          </Trackpoint>
          <Trackpoint>
            <Time>2019-05-08T07:37:41.000Z</Time>
            <Position>
              <LatitudeDegrees>42.89113671518862247467041015625</LatitudeDegrees>
              <LongitudeDegrees>0.6170274317264556884765625</LongitudeDegrees>
            </Position>
            <AltitudeMeters>648.4000244140625</AltitudeMeters>
            <DistanceMeters>12492.701802067</DistanceMeters>
          </Trackpoint>
          <Trackpoint>
            <Time>2019-05-08T07:37:48.000Z</Time>
            <Position>
              <LatitudeDegrees>42.8912823088467121124267578125</LatitudeDegrees>
              <LongitudeDegrees>0.61688200570642948150634765625</LongitudeDegrees>
            </Position>
            <AltitudeMeters>649</AltitudeMeters>
            <DistanceMeters>12512.782365643</DistanceMeters>
          </Trackpoint>
          <Trackpoint>
            <Time>2019-05-08T07:37:51.000Z</Time>
            <Position>
              <LatitudeDegrees>42.89132849313318729400634765625</LatitudeDegrees>
              <LongitudeDegrees>0.61680003069341182708740234375</LongitudeDegrees>
            </Position>
            <AltitudeMeters>649.4000244140625</AltitudeMeters>
            <DistanceMeters>12521.214614567</DistanceMeters>
          </Trackpoint>
          <Trackpoint>
            <Time>2019-05-08T07:37:57.000Z</Time>
            <Position>
              <LatitudeDegrees>42.89141532965004444122314453125</LatitudeDegrees>
              <LongitudeDegrees>0.61662937514483928680419921875</LongitudeDegrees>
            </Position>
            <AltitudeMeters>649.79998779296875</AltitudeMeters>
            <DistanceMeters>12538.15764057</DistanceMeters>
          </Trackpoint>
          <Trackpoint>
            <Time>2019-05-08T07:38:00.000Z</Time>
            <Position>
              <LatitudeDegrees>42.89145505987107753753662109375</LatitudeDegrees>
              <LongitudeDegrees>0.6165414489805698394775390625</LongitudeDegrees>
            </Position>
            <AltitudeMeters>650.20001220703125</AltitudeMeters>
            <DistanceMeters>12546.581317956</DistanceMeters>
          </Trackpoint>
          <Trackpoint>
            <Time>2019-05-08T07:38:06.000Z</Time>
            <Position>
              <LatitudeDegrees>42.89154910482466220855712890625</LatitudeDegrees>
              <LongitudeDegrees>0.61638294719159603118896484375</LongitudeDegrees>
            </Position>
            <AltitudeMeters>650.4000244140625</AltitudeMeters>
            <DistanceMeters>12563.213436335</DistanceMeters>
          </Trackpoint>
          <Trackpoint>
            <Time>2019-05-08T07:38:11.000Z</Time>
            <Position>
              <LatitudeDegrees>42.89167030714452266693115234375</LatitudeDegrees>
              <LongitudeDegrees>0.61633768491446971893310546875</LongitudeDegrees>
            </Position>
            <AltitudeMeters>651.5999755859375</AltitudeMeters>
            <DistanceMeters>12577.199483523</DistanceMeters>
          </Trackpoint>
          <Trackpoint>
            <Time>2019-05-08T07:38:14.000Z</Time>
            <Position>
              <LatitudeDegrees>42.8917823731899261474609375</LatitudeDegrees>
              <LongitudeDegrees>0.6164026446640491485595703125</LongitudeDegrees>
            </Position>
            <AltitudeMeters>651.79998779296875</AltitudeMeters>
            <DistanceMeters>12590.751039324</DistanceMeters>
          </Trackpoint>
          <Trackpoint>
            <Time>2019-05-08T07:38:15.000Z</Time>
            <Position>
              <LatitudeDegrees>42.89182838983833789825439453125</LatitudeDegrees>
              <LongitudeDegrees>0.61643189750611782073974609375</LongitudeDegrees>
            </Position>
            <AltitudeMeters>651.79998779296875</AltitudeMeters>
            <DistanceMeters>12596.400135726</DistanceMeters>
          </Trackpoint>
          <Trackpoint>
            <Time>2019-05-08T07:38:16.000Z</Time>
            <Position>
              <LatitudeDegrees>42.89187063463032245635986328125</LatitudeDegrees>
              <LongitudeDegrees>0.6164673529565334320068359375</LongitudeDegrees>
            </Position>
            <AltitudeMeters>651.79998779296875</AltitudeMeters>
            <DistanceMeters>12601.919871038</DistanceMeters>
          </Trackpoint>
          <Trackpoint>
            <Time>2019-05-08T07:38:18.000Z</Time>
            <Position>
              <LatitudeDegrees>42.8919231891632080078125</LatitudeDegrees>
              <LongitudeDegrees>0.61658377759158611297607421875</LongitudeDegrees>
            </Position>
            <AltitudeMeters>651.5999755859375</AltitudeMeters>
            <DistanceMeters>12613.070841966</DistanceMeters>
          </Trackpoint>
          <Trackpoint>
            <Time>2019-05-08T07:38:19.000Z</Time>
            <Position>
              <LatitudeDegrees>42.8919377736747264862060546875</LatitudeDegrees>
              <LongitudeDegrees>0.616650246083736419677734375</LongitudeDegrees>
            </Position>
            <AltitudeMeters>651.79998779296875</AltitudeMeters>
            <DistanceMeters>12618.727925218</DistanceMeters>
          </Trackpoint>
          <Trackpoint>
            <Time>2019-05-08T07:38:22.000Z</Time>
            <Position>
              <LatitudeDegrees>42.8919830359518527984619140625</LatitudeDegrees>
              <LongitudeDegrees>0.61683741398155689239501953125</LongitudeDegrees>
            </Position>
            <AltitudeMeters>651.20001220703125</AltitudeMeters>
            <DistanceMeters>12634.800367373</DistanceMeters>
          </Trackpoint>
          <Trackpoint>
            <Time>2019-05-08T07:38:23.000Z</Time>
            <Position>
              <LatitudeDegrees>42.89200508035719394683837890625</LatitudeDegrees>
              <LongitudeDegrees>0.61689198017120361328125</LongitudeDegrees>
            </Position>
            <AltitudeMeters>651</AltitudeMeters>
            <DistanceMeters>12639.882297974</DistanceMeters>
          </Trackpoint>
          <Trackpoint>
            <Time>2019-05-08T07:38:25.000Z</Time>
            <Position>
              <LatitudeDegrees>42.89207272231578826904296875</LatitudeDegrees>
              <LongitudeDegrees>0.616990216076374053955078125</LongitudeDegrees>
            </Position>
            <AltitudeMeters>650</AltitudeMeters>
            <DistanceMeters>12650.875044809</DistanceMeters>
          </Trackpoint>
          <Trackpoint>
            <Time>2019-05-08T07:38:26.000Z</Time>
            <Position>
              <LatitudeDegrees>42.89212041534483432769775390625</LatitudeDegrees>
              <LongitudeDegrees>0.61702810227870941162109375</LongitudeDegrees>
            </Position>
            <AltitudeMeters>649.79998779296875</AltitudeMeters>
            <DistanceMeters>12657.016594231</DistanceMeters>
          </Trackpoint>
          <Trackpoint>
            <Time>2019-05-08T07:38:27.000Z</Time>
            <Position>
              <LatitudeDegrees>42.8921707905828952789306640625</LatitudeDegrees>
              <LongitudeDegrees>0.61706925742328166961669921875</LongitudeDegrees>
            </Position>
            <AltitudeMeters>649.79998779296875</AltitudeMeters>
            <DistanceMeters>12663.550674229</DistanceMeters>
          </Trackpoint>
          <Trackpoint>
            <Time>2019-05-08T07:38:28.000Z</Time>
            <Position>
              <LatitudeDegrees>42.8922204114496707916259765625</LatitudeDegrees>
              <LongitudeDegrees>0.61712055467069149017333984375</LongitudeDegrees>
            </Position>
            <AltitudeMeters>649.79998779296875</AltitudeMeters>
            <DistanceMeters>12670.479157929</DistanceMeters>
          </Trackpoint>
          <Trackpoint>
            <Time>2019-05-08T07:38:29.000Z</Time>
            <Position>
              <LatitudeDegrees>42.89226491935551166534423828125</LatitudeDegrees>
              <LongitudeDegrees>0.6171804852783679962158203125</LongitudeDegrees>
            </Position>
            <AltitudeMeters>649.5999755859375</AltitudeMeters>
            <DistanceMeters>12677.438202401</DistanceMeters>
          </Trackpoint>
          <Trackpoint>
            <Time>2019-05-08T07:38:34.000Z</Time>
            <Position>
              <LatitudeDegrees>42.8924242593348026275634765625</LatitudeDegrees>
              <LongitudeDegrees>0.61751785688102245330810546875</LongitudeDegrees>
            </Position>
            <AltitudeMeters>649.5999755859375</AltitudeMeters>
            <DistanceMeters>12710.169905529</DistanceMeters>
          </Trackpoint>
          <Trackpoint>
            <Time>2019-05-08T07:38:36.000Z</Time>
            <Position>
              <LatitudeDegrees>42.89246876724064350128173828125</LatitudeDegrees>
              <LongitudeDegrees>0.61767694540321826934814453125</LongitudeDegrees>
            </Position>
            <AltitudeMeters>648.79998779296875</AltitudeMeters>
            <DistanceMeters>12724.056817084</DistanceMeters>
          </Trackpoint>
          <Trackpoint>
            <Time>2019-05-08T07:38:38.000Z</Time>
            <Position>
              <LatitudeDegrees>42.89247547276318073272705078125</LatitudeDegrees>
              <LongitudeDegrees>0.61786629259586334228515625</LongitudeDegrees>
            </Position>
            <AltitudeMeters>648</AltitudeMeters>
            <DistanceMeters>12739.514950311</DistanceMeters>
          </Trackpoint>
          <Trackpoint>
            <Time>2019-05-08T07:38:39.000Z</Time>
            <Position>
              <LatitudeDegrees>42.8924886323511600494384765625</LatitudeDegrees>
              <LongitudeDegrees>0.61796176247298717498779296875</LongitudeDegrees>
            </Position>
            <AltitudeMeters>648</AltitudeMeters>
            <DistanceMeters>12747.437010099</DistanceMeters>
          </Trackpoint>
          <Trackpoint>
            <Time>2019-05-08T07:38:41.000Z</Time>
            <Position>
              <LatitudeDegrees>42.89251369424164295196533203125</LatitudeDegrees>
              <LongitudeDegrees>0.61804742552340030670166015625</LongitudeDegrees>
            </Position>
            <AltitudeMeters>647.5999755859375</AltitudeMeters>
            <DistanceMeters>12754.958541121</DistanceMeters>
          </Trackpoint>
          <Trackpoint>
            <Time>2019-05-08T07:38:42.000Z</Time>
            <Position>
              <LatitudeDegrees>42.8925801627337932586669921875</LatitudeDegrees>
              <LongitudeDegrees>0.618186481297016143798828125</LongitudeDegrees>
            </Position>
            <AltitudeMeters>647.4000244140625</AltitudeMeters>
            <DistanceMeters>12768.497430357</DistanceMeters>
          </Trackpoint>
          <Trackpoint>
            <Time>2019-05-08T07:38:44.000Z</Time>
            <Position>
              <LatitudeDegrees>42.89266389794647693634033203125</LatitudeDegrees>
              <LongitudeDegrees>0.618297792971134185791015625</LongitudeDegrees>
            </Position>
            <AltitudeMeters>646.5999755859375</AltitudeMeters>
            <DistanceMeters>12781.507417016</DistanceMeters>
          </Trackpoint>
          <Trackpoint>
            <Time>2019-05-08T07:38:50.000Z</Time>
            <Position>
              <LatitudeDegrees>42.8929746150970458984375</LatitudeDegrees>
              <LongitudeDegrees>0.61851966194808483123779296875</LongitudeDegrees>
            </Position>
            <AltitudeMeters>644.5999755859375</AltitudeMeters>
            <DistanceMeters>12820.537261311</DistanceMeters>
          </Trackpoint>
          <Trackpoint>
            <Time>2019-05-08T07:38:54.000Z</Time>
            <Position>
              <LatitudeDegrees>42.893170751631259918212890625</LatitudeDegrees>
              <LongitudeDegrees>0.6185923330485820770263671875</LongitudeDegrees>
            </Position>
            <AltitudeMeters>644.20001220703125</AltitudeMeters>
            <DistanceMeters>12843.157611698</DistanceMeters>
          </Trackpoint>
          <Trackpoint>
            <Time>2019-05-08T07:38:57.000Z</Time>
            <Position>
              <LatitudeDegrees>42.8932584263384342193603515625</LatitudeDegrees>
              <LongitudeDegrees>0.6186206638813018798828125</LongitudeDegrees>
            </Position>
            <AltitudeMeters>644.20001220703125</AltitudeMeters>
            <DistanceMeters>12853.185969557</DistanceMeters>
          </Trackpoint>
          <Trackpoint>
            <Time>2019-05-08T07:39:00.000Z</Time>
            <Position>
              <LatitudeDegrees>42.89341692812740802764892578125</LatitudeDegrees>
              <LongitudeDegrees>0.61865611933171749114990234375</LongitudeDegrees>
            </Position>
            <AltitudeMeters>644.20001220703125</AltitudeMeters>
            <DistanceMeters>12871.062866252</DistanceMeters>
          </Trackpoint>
          <Trackpoint>
            <Time>2019-05-08T07:39:02.000Z</Time>
            <Position>
              <LatitudeDegrees>42.89344743825495243072509765625</LatitudeDegrees>
              <LongitudeDegrees>0.61865494586527347564697265625</LongitudeDegrees>
            </Position>
            <AltitudeMeters>644.20001220703125</AltitudeMeters>
            <DistanceMeters>12874.459988224</DistanceMeters>
          </Trackpoint>
          <Trackpoint>
            <Time>2019-05-08T07:39:03.000Z</Time>
            <Position>
              <LatitudeDegrees>42.89347157813608646392822265625</LatitudeDegrees>
              <LongitudeDegrees>0.6186473183333873748779296875</LongitudeDegrees>
            </Position>
            <AltitudeMeters>644.20001220703125</AltitudeMeters>
            <DistanceMeters>12877.217400846</DistanceMeters>
          </Trackpoint>
          <Trackpoint>
            <Time>2019-05-08T07:39:06.000Z</Time>
            <Position>
              <LatitudeDegrees>42.8934882581233978271484375</LatitudeDegrees>
              <LongitudeDegrees>0.6186369247734546661376953125</LongitudeDegrees>
            </Position>
            <AltitudeMeters>644.20001220703125</AltitudeMeters>
            <DistanceMeters>12879.255496811</DistanceMeters>
          </Trackpoint>
          <Trackpoint>
            <Time>2019-05-08T07:39:15.000Z</Time>
            <Position>
              <LatitudeDegrees>42.893526144325733184814453125</LatitudeDegrees>
              <LongitudeDegrees>0.6186513416469097137451171875</LongitudeDegrees>
            </Position>
            <AltitudeMeters>644.79998779296875</AltitudeMeters>
            <DistanceMeters>12883.63291868</DistanceMeters>
          </Trackpoint>
          <Trackpoint>
            <Time>2019-05-08T07:39:17.000Z</Time>
            <Position>
              <LatitudeDegrees>42.89356805384159088134765625</LatitudeDegrees>
              <LongitudeDegrees>0.61867229640483856201171875</LongitudeDegrees>
            </Position>
            <AltitudeMeters>645</AltitudeMeters>
            <DistanceMeters>12888.600734993</DistanceMeters>
          </Trackpoint>
          <Trackpoint>
            <Time>2019-05-08T07:39:23.000Z</Time>
            <Position>
              <LatitudeDegrees>42.89376243017613887786865234375</LatitudeDegrees>
              <LongitudeDegrees>0.61869014985859394073486328125</LongitudeDegrees>
            </Position>
            <AltitudeMeters>644.79998779296875</AltitudeMeters>
            <DistanceMeters>12910.284323725</DistanceMeters>
          </Trackpoint>
          <Trackpoint>
            <Time>2019-05-08T07:39:24.000Z</Time>
            <Position>
              <LatitudeDegrees>42.89380232803523540496826171875</LatitudeDegrees>
              <LongitudeDegrees>0.618681013584136962890625</LongitudeDegrees>
            </Position>
            <AltitudeMeters>644.79998779296875</AltitudeMeters>
            <DistanceMeters>12914.785822535</DistanceMeters>
          </Trackpoint>
          <Trackpoint>
            <Time>2019-05-08T07:39:25.000Z</Time>
            <Position>
              <LatitudeDegrees>42.89384432137012481689453125</LatitudeDegrees>
              <LongitudeDegrees>0.61866684816777706146240234375</LongitudeDegrees>
            </Position>
            <AltitudeMeters>644.5999755859375</AltitudeMeters>
            <DistanceMeters>12919.600405199</DistanceMeters>
          </Trackpoint>
          <Trackpoint>
            <Time>2019-05-08T07:39:29.000Z</Time>
            <Position>
              <LatitudeDegrees>42.89402402937412261962890625</LatitudeDegrees>
              <LongitudeDegrees>0.61859526671469211578369140625</LongitudeDegrees>
            </Position>
            <AltitudeMeters>644.4000244140625</AltitudeMeters>
            <DistanceMeters>12940.43640734</DistanceMeters>
          </Trackpoint>
          <Trackpoint>
            <Time>2019-05-08T07:39:36.000Z</Time>
            <Position>
              <LatitudeDegrees>42.8943336568772792816162109375</LatitudeDegrees>
              <LongitudeDegrees>0.6185061670839786529541015625</LongitudeDegrees>
            </Position>
            <AltitudeMeters>643.5999755859375</AltitudeMeters>
            <DistanceMeters>12975.65595377</DistanceMeters>
          </Trackpoint>
          <Trackpoint>
            <Time>2019-05-08T07:39:37.000Z</Time>
            <Position>
              <LatitudeDegrees>42.89443348534405231475830078125</LatitudeDegrees>
              <LongitudeDegrees>0.6184743158519268035888671875</LongitudeDegrees>
            </Position>
            <AltitudeMeters>643.4000244140625</AltitudeMeters>
            <DistanceMeters>12987.066284272</DistanceMeters>
          </Trackpoint>
          <Trackpoint>
            <Time>2019-05-08T07:39:40.000Z</Time>
            <Position>
              <LatitudeDegrees>42.89458150975406169891357421875</LatitudeDegrees>
              <LongitudeDegrees>0.618440620601177215576171875</LongitudeDegrees>
            </Position>
            <AltitudeMeters>643</AltitudeMeters>
            <DistanceMeters>13003.769375058</DistanceMeters>
          </Trackpoint>
          <Trackpoint>
            <Time>2019-05-08T07:39:43.000Z</Time>
            <Position>
              <LatitudeDegrees>42.894680500030517578125</LatitudeDegrees>
              <LongitudeDegrees>0.618418157100677490234375</LongitudeDegrees>
            </Position>
            <AltitudeMeters>643</AltitudeMeters>
            <DistanceMeters>13014.938147417</DistanceMeters>
          </Trackpoint>
          <Trackpoint>
            <Time>2019-05-08T07:39:45.000Z</Time>
            <Position>
              <LatitudeDegrees>42.89481528103351593017578125</LatitudeDegrees>
              <LongitudeDegrees>0.618378259241580963134765625</LongitudeDegrees>
            </Position>
            <AltitudeMeters>642.79998779296875</AltitudeMeters>
            <DistanceMeters>13030.288418252</DistanceMeters>
          </Trackpoint>
          <Trackpoint>
            <Time>2019-05-08T07:39:48.000Z</Time>
            <Position>
              <LatitudeDegrees>42.89492835290729999542236328125</LatitudeDegrees>
              <LongitudeDegrees>0.6183375231921672821044921875</LongitudeDegrees>
            </Position>
            <AltitudeMeters>642.79998779296875</AltitudeMeters>
            <DistanceMeters>13043.304650205</DistanceMeters>
          </Trackpoint>
          <Trackpoint>
            <Time>2019-05-08T07:39:51.000Z</Time>
            <Position>
              <LatitudeDegrees>42.89503865875303745269775390625</LatitudeDegrees>
              <LongitudeDegrees>0.61826250515878200531005859375</LongitudeDegrees>
            </Position>
            <AltitudeMeters>643.4000244140625</AltitudeMeters>
            <DistanceMeters>13057.021452776</DistanceMeters>
          </Trackpoint>
          <Trackpoint>
            <Time>2019-05-08T07:39:55.000Z</Time>
            <Position>
              <LatitudeDegrees>42.89512549526989459991455078125</LatitudeDegrees>
              <LongitudeDegrees>0.6180877424776554107666015625</LongitudeDegrees>
            </Position>
            <AltitudeMeters>644</AltitudeMeters>
            <DistanceMeters>13074.240178045</DistanceMeters>
          </Trackpoint>
          <Trackpoint>
            <Time>2019-05-08T07:39:56.000Z</Time>
            <Position>
              <LatitudeDegrees>42.8951322846114635467529296875</LatitudeDegrees>
              <LongitudeDegrees>0.6180397979915142059326171875</LongitudeDegrees>
            </Position>
            <AltitudeMeters>644.20001220703125</AltitudeMeters>
            <DistanceMeters>13078.222239601</DistanceMeters>
          </Trackpoint>
          <Trackpoint>
            <Time>2019-05-08T07:39:59.000Z</Time>
            <Position>
              <LatitudeDegrees>42.89514678530395030975341796875</LatitudeDegrees>
              <LongitudeDegrees>0.61789688654243946075439453125</LongitudeDegrees>
            </Position>
            <AltitudeMeters>644.5999755859375</AltitudeMeters>
            <DistanceMeters>13089.986377971</DistanceMeters>
          </Trackpoint>
          <Trackpoint>
            <Time>2019-05-08T07:40:00.000Z</Time>
            <Position>
              <LatitudeDegrees>42.89515013806521892547607421875</LatitudeDegrees>
              <LongitudeDegrees>0.617849528789520263671875</LongitudeDegrees>
            </Position>
            <AltitudeMeters>644.79998779296875</AltitudeMeters>
            <DistanceMeters>13093.865051372</DistanceMeters>
          </Trackpoint>
          <Trackpoint>
            <Time>2019-05-08T07:40:04.000Z</Time>
            <Position>
              <LatitudeDegrees>42.895170338451862335205078125</LatitudeDegrees>
              <LongitudeDegrees>0.6176663003861904144287109375</LongitudeDegrees>
            </Position>
            <AltitudeMeters>645.79998779296875</AltitudeMeters>
            <DistanceMeters>13108.973701293</DistanceMeters>
          </Trackpoint>
          <Trackpoint>
            <Time>2019-05-08T07:40:06.000Z</Time>
            <Position>
              <LatitudeDegrees>42.89518131874501705169677734375</LatitudeDegrees>
              <LongitudeDegrees>0.6175764463841915130615234375</LongitudeDegrees>
            </Position>
            <AltitudeMeters>646</AltitudeMeters>
            <DistanceMeters>13116.401605915</DistanceMeters>
          </Trackpoint>
          <Trackpoint>
            <Time>2019-05-08T07:40:07.000Z</Time>
            <Position>
              <LatitudeDegrees>42.8951860964298248291015625</LatitudeDegrees>
              <LongitudeDegrees>0.61753177084028720855712890625</LongitudeDegrees>
            </Position>
            <AltitudeMeters>646.20001220703125</AltitudeMeters>
            <DistanceMeters>13120.081974737</DistanceMeters>
          </Trackpoint>
          <Trackpoint>
            <Time>2019-05-08T07:40:11.000Z</Time>
            <Position>
              <LatitudeDegrees>42.8952268324792385101318359375</LatitudeDegrees>
              <LongitudeDegrees>0.61735742725431919097900390625</LongitudeDegrees>
            </Position>
            <AltitudeMeters>647.20001220703125</AltitudeMeters>
            <DistanceMeters>13135.003287173</DistanceMeters>
          </Trackpoint>
          <Trackpoint>
            <Time>2019-05-08T07:40:13.000Z</Time>
            <Position>
              <LatitudeDegrees>42.8952606953680515289306640625</LatitudeDegrees>
              <LongitudeDegrees>0.61728098429739475250244140625</LongitudeDegrees>
            </Position>
            <AltitudeMeters>647.4000244140625</AltitudeMeters>
            <DistanceMeters>13142.287566765</DistanceMeters>
          </Trackpoint>
          <Trackpoint>
            <Time>2019-05-08T07:40:14.000Z</Time>
            <Position>
              <LatitudeDegrees>42.8952814824879169464111328125</LatitudeDegrees>
              <LongitudeDegrees>0.61725139617919921875</LongitudeDegrees>
            </Position>
            <AltitudeMeters>647.4000244140625</AltitudeMeters>
            <DistanceMeters>13145.631103013</DistanceMeters>
          </Trackpoint>
          <Trackpoint>
            <Time>2019-05-08T07:40:19.000Z</Time>
            <Position>
              <LatitudeDegrees>42.89538533426821231842041015625</LatitudeDegrees>
              <LongitudeDegrees>0.6171261705458164215087890625</LongitudeDegrees>
            </Position>
            <AltitudeMeters>648.4000244140625</AltitudeMeters>
            <DistanceMeters>13161.053853857</DistanceMeters>
          </Trackpoint>
          <Trackpoint>
            <Time>2019-05-08T07:40:21.000Z</Time>
            <Position>
              <LatitudeDegrees>42.89542682468891143798828125</LatitudeDegrees>
              <LongitudeDegrees>0.61707797460258007049560546875</LongitudeDegrees>
            </Position>
            <AltitudeMeters>649</AltitudeMeters>
            <DistanceMeters>13167.117719891</DistanceMeters>
          </Trackpoint>
          <Trackpoint>
            <Time>2019-05-08T07:40:28.000Z</Time>
            <Position>
              <LatitudeDegrees>42.89556898176670074462890625</LatitudeDegrees>
              <LongitudeDegrees>0.6169166229665279388427734375</LongitudeDegrees>
            </Position>
            <AltitudeMeters>650.20001220703125</AltitudeMeters>
            <DistanceMeters>13187.695337455</DistanceMeters>
          </Trackpoint>
          <Trackpoint>
            <Time>2019-05-08T07:40:30.000Z</Time>
            <Position>
              <LatitudeDegrees>42.89560996927320957183837890625</LatitudeDegrees>
              <LongitudeDegrees>0.6168743781745433807373046875</LongitudeDegrees>
            </Position>
            <AltitudeMeters>650.5999755859375</AltitudeMeters>
            <DistanceMeters>13193.411176551</DistanceMeters>
          </Trackpoint>
          <Trackpoint>
            <Time>2019-05-08T07:40:35.000Z</Time>
            <Position>
              <LatitudeDegrees>42.89571993984282016754150390625</LatitudeDegrees>
              <LongitudeDegrees>0.6167721189558506011962890625</LongitudeDegrees>
            </Position>
            <AltitudeMeters>651.4000244140625</AltitudeMeters>
            <DistanceMeters>13208.221327017</DistanceMeters>
          </Trackpoint>
          <Trackpoint>
            <Time>2019-05-08T07:40:37.000Z</Time>
            <Position>
              <LatitudeDegrees>42.89576872251927852630615234375</LatitudeDegrees>
              <LongitudeDegrees>0.61674923636019229888916015625</LongitudeDegrees>
            </Position>
            <AltitudeMeters>651.79998779296875</AltitudeMeters>
            <DistanceMeters>13213.96238781</DistanceMeters>
          </Trackpoint>
          <Trackpoint>
            <Time>2019-05-08T07:40:40.000Z</Time>
            <Position>
              <LatitudeDegrees>42.89584080688655376434326171875</LatitudeDegrees>
              <LongitudeDegrees>0.616725347936153411865234375</LongitudeDegrees>
            </Position>
            <AltitudeMeters>652.4000244140625</AltitudeMeters>
            <DistanceMeters>13222.218235252</DistanceMeters>
          </Trackpoint>
          <Trackpoint>
            <Time>2019-05-08T07:40:43.000Z</Time>
            <Position>
              <LatitudeDegrees>42.8959024138748645782470703125</LatitudeDegrees>
              <LongitudeDegrees>0.6166695244610309600830078125</LongitudeDegrees>
            </Position>
            <AltitudeMeters>653</AltitudeMeters>
            <DistanceMeters>13230.447790121</DistanceMeters>
          </Trackpoint>
          <Trackpoint>
            <Time>2019-05-08T07:40:46.000Z</Time>
            <Position>
              <LatitudeDegrees>42.89594071917235851287841796875</LatitudeDegrees>
              <LongitudeDegrees>0.6165900640189647674560546875</LongitudeDegrees>
            </Position>
            <AltitudeMeters>653.79998779296875</AltitudeMeters>
            <DistanceMeters>13238.204554868</DistanceMeters>
          </Trackpoint>
          <Trackpoint>
            <Time>2019-05-08T07:40:49.000Z</Time>
            <Position>
              <LatitudeDegrees>42.89598044939339160919189453125</LatitudeDegrees>
              <LongitudeDegrees>0.61651219613850116729736328125</LongitudeDegrees>
            </Position>
            <AltitudeMeters>655.79998779296875</AltitudeMeters>
            <DistanceMeters>13245.942087215</DistanceMeters>
          </Trackpoint>
          <Trackpoint>
            <Time>2019-05-08T07:40:50.000Z</Time>
            <Position>
              <LatitudeDegrees>42.8959880769252777099609375</LatitudeDegrees>
              <LongitudeDegrees>0.61648386530578136444091796875</LongitudeDegrees>
            </Position>
            <AltitudeMeters>654.5999755859375</AltitudeMeters>
            <DistanceMeters>13248.40179273</DistanceMeters>
          </Trackpoint>
          <Trackpoint>
            <Time>2019-05-08T07:40:53.000Z</Time>
            <Position>
              <LatitudeDegrees>42.89600576274096965789794921875</LatitudeDegrees>
              <LongitudeDegrees>0.616398788988590240478515625</LongitudeDegrees>
            </Position>
            <AltitudeMeters>655.4000244140625</AltitudeMeters>
            <DistanceMeters>13255.611934898</DistanceMeters>
          </Trackpoint>
          <Trackpoint>
            <Time>2019-05-08T07:40:54.000Z</Time>
            <Position>
              <LatitudeDegrees>42.89601330645382404327392578125</LatitudeDegrees>
              <LongitudeDegrees>0.6163684464991092681884765625</LongitudeDegrees>
            </Position>
            <AltitudeMeters>655.4000244140625</AltitudeMeters>
            <DistanceMeters>13258.224737568</DistanceMeters>
          </Trackpoint>
          <Trackpoint>
            <Time>2019-05-08T07:40:59.000Z</Time>
            <Position>
              <LatitudeDegrees>42.8960636816918849945068359375</LatitudeDegrees>
              <LongitudeDegrees>0.616234838962554931640625</LongitudeDegrees>
            </Position>
            <AltitudeMeters>656.79998779296875</AltitudeMeters>
            <DistanceMeters>13270.477289175</DistanceMeters>
          </Trackpoint>
          <Trackpoint>
            <Time>2019-05-08T07:41:00.000Z</Time>
            <Position>
              <LatitudeDegrees>42.89607315324246883392333984375</LatitudeDegrees>
              <LongitudeDegrees>0.61620910651981830596923828125</LongitudeDegrees>
            </Position>
            <AltitudeMeters>657.20001220703125</AltitudeMeters>
            <DistanceMeters>13272.824275888</DistanceMeters>
          </Trackpoint>
          <Trackpoint>
            <Time>2019-05-08T07:41:04.000Z</Time>
            <Position>
              <LatitudeDegrees>42.89615613408386707305908203125</LatitudeDegrees>
              <LongitudeDegrees>0.616146661341190338134765625</LongitudeDegrees>
            </Position>
            <AltitudeMeters>658.5999755859375</AltitudeMeters>
            <DistanceMeters>13283.370528851</DistanceMeters>
          </Trackpoint>
          <Trackpoint>
            <Time>2019-05-08T07:41:06.000Z</Time>
            <Position>
              <LatitudeDegrees>42.89617792703211307525634765625</LatitudeDegrees>
              <LongitudeDegrees>0.6161347590386867523193359375</LongitudeDegrees>
            </Position>
            <AltitudeMeters>658.79998779296875</AltitudeMeters>
            <DistanceMeters>13285.981602905</DistanceMeters>
          </Trackpoint>
          <Trackpoint>
            <Time>2019-05-08T07:41:08.000Z</Time>
            <Position>
              <LatitudeDegrees>42.89624732919037342071533203125</LatitudeDegrees>
              <LongitudeDegrees>0.61612688004970550537109375</LongitudeDegrees>
            </Position>
            <AltitudeMeters>659.4000244140625</AltitudeMeters>
            <DistanceMeters>13293.733709634</DistanceMeters>
          </Trackpoint>
          <Trackpoint>
            <Time>2019-05-08T07:41:10.000Z</Time>
            <Position>
              <LatitudeDegrees>42.89627934806048870086669921875</LatitudeDegrees>
              <LongitudeDegrees>0.616161413490772247314453125</LongitudeDegrees>
            </Position>
            <AltitudeMeters>659.79998779296875</AltitudeMeters>
            <DistanceMeters>13298.276145618</DistanceMeters>
          </Trackpoint>
          <Trackpoint>
            <Time>2019-05-08T07:41:16.000Z</Time>
            <Position>
              <LatitudeDegrees>42.8963345848023891448974609375</LatitudeDegrees>
              <LongitudeDegrees>0.61632812954485416412353515625</LongitudeDegrees>
            </Position>
            <AltitudeMeters>660.79998779296875</AltitudeMeters>
            <DistanceMeters>13313.195642404</DistanceMeters>
          </Trackpoint>
          <Trackpoint>
            <Time>2019-05-08T07:41:23.000Z</Time>
            <Position>
              <LatitudeDegrees>42.89641882292926311492919921875</LatitudeDegrees>
              <LongitudeDegrees>0.61650968156754970550537109375</LongitudeDegrees>
            </Position>
            <AltitudeMeters>661.79998779296875</AltitudeMeters>
            <DistanceMeters>13330.718475774</DistanceMeters>
          </Trackpoint>
          <Trackpoint>
            <Time>2019-05-08T07:41:24.000Z</Time>
            <Position>
              <LatitudeDegrees>42.89643608964979648590087890625</LatitudeDegrees>
              <LongitudeDegrees>0.616536252200603485107421875</LongitudeDegrees>
            </Position>
            <AltitudeMeters>661.79998779296875</AltitudeMeters>
            <DistanceMeters>13333.616401083</DistanceMeters>
          </Trackpoint>
          <Trackpoint>
            <Time>2019-05-08T07:41:29.000Z</Time>
            <Position>
              <LatitudeDegrees>42.89657036773860454559326171875</LatitudeDegrees>
              <LongitudeDegrees>0.6166400201618671417236328125</LongitudeDegrees>
            </Position>
            <AltitudeMeters>662.20001220703125</AltitudeMeters>
            <DistanceMeters>13350.790754548</DistanceMeters>
          </Trackpoint>
          <Trackpoint>
            <Time>2019-05-08T07:41:30.000Z</Time>
            <Position>
              <LatitudeDegrees>42.89659584872424602508544921875</LatitudeDegrees>
              <LongitudeDegrees>0.61664781533181667327880859375</LongitudeDegrees>
            </Position>
            <AltitudeMeters>662.20001220703125</AltitudeMeters>
            <DistanceMeters>13353.698012974</DistanceMeters>
          </Trackpoint>
          <Trackpoint>
            <Time>2019-05-08T07:41:32.000Z</Time>
            <Position>
              <LatitudeDegrees>42.89662149734795093536376953125</LatitudeDegrees>
              <LongitudeDegrees>0.61664588749408721923828125</LongitudeDegrees>
            </Position>
            <AltitudeMeters>662.4000244140625</AltitudeMeters>
            <DistanceMeters>13356.55672233</DistanceMeters>
          </Trackpoint>
          <Trackpoint>
            <Time>2019-05-08T07:41:35.000Z</Time>
            <Position>
              <LatitudeDegrees>42.8966906480491161346435546875</LatitudeDegrees>
              <LongitudeDegrees>0.61659920029342174530029296875</LongitudeDegrees>
            </Position>
            <AltitudeMeters>662.4000244140625</AltitudeMeters>
            <DistanceMeters>13365.142847421</DistanceMeters>
          </Trackpoint>
          <Trackpoint>
            <Time>2019-05-08T07:41:37.000Z</Time>
            <Position>
              <LatitudeDegrees>42.896717302501201629638671875</LatitudeDegrees>
              <LongitudeDegrees>0.6165484897792339324951171875</LongitudeDegrees>
            </Position>
            <AltitudeMeters>663</AltitudeMeters>
            <DistanceMeters>13370.231880654</DistanceMeters>
          </Trackpoint>
          <Trackpoint>
            <Time>2019-05-08T07:41:40.000Z</Time>
            <Position>
              <LatitudeDegrees>42.89674387313425540924072265625</LatitudeDegrees>
              <LongitudeDegrees>0.6164341606199741363525390625</LongitudeDegrees>
            </Position>
            <AltitudeMeters>663.4000244140625</AltitudeMeters>
            <DistanceMeters>13380.012248733</DistanceMeters>
          </Trackpoint>
          <Trackpoint>
            <Time>2019-05-08T07:41:43.000Z</Time>
            <Position>
              <LatitudeDegrees>42.8967573679983615875244140625</LatitudeDegrees>
              <LongitudeDegrees>0.61635084450244903564453125</LongitudeDegrees>
            </Position>
            <AltitudeMeters>664</AltitudeMeters>
            <DistanceMeters>13386.970644374</DistanceMeters>
          </Trackpoint>
          <Trackpoint>
            <Time>2019-05-08T07:41:48.000Z</Time>
            <Position>
              <LatitudeDegrees>42.896769605576992034912109375</LatitudeDegrees>
              <LongitudeDegrees>0.6162296421825885772705078125</LongitudeDegrees>
            </Position>
            <AltitudeMeters>664.79998779296875</AltitudeMeters>
            <DistanceMeters>13396.947091766</DistanceMeters>
          </Trackpoint>
          <Trackpoint>
            <Time>2019-05-08T07:41:54.000Z</Time>
            <Position>
              <LatitudeDegrees>42.8968244232237339019775390625</LatitudeDegrees>
              <LongitudeDegrees>0.61601866967976093292236328125</LongitudeDegrees>
            </Position>
            <AltitudeMeters>666.4000244140625</AltitudeMeters>
            <DistanceMeters>13415.199148641</DistanceMeters>
          </Trackpoint>
          <Trackpoint>
            <Time>2019-05-08T07:41:59.000Z</Time>
            <Position>
              <LatitudeDegrees>42.896966747939586639404296875</LatitudeDegrees>
              <LongitudeDegrees>0.61585270799696445465087890625</LongitudeDegrees>
            </Position>
            <AltitudeMeters>666.79998779296875</AltitudeMeters>
            <DistanceMeters>13436.033200444</DistanceMeters>
          </Trackpoint>
          <Trackpoint>
            <Time>2019-05-08T07:42:04.000Z</Time>
            <Position>
              <LatitudeDegrees>42.89711217395961284637451171875</LatitudeDegrees>
              <LongitudeDegrees>0.61581800691783428192138671875</LongitudeDegrees>
            </Position>
            <AltitudeMeters>667.4000244140625</AltitudeMeters>
            <DistanceMeters>13452.464855432</DistanceMeters>
          </Trackpoint>
          <Trackpoint>
            <Time>2019-05-08T07:42:05.000Z</Time>
            <Position>
              <LatitudeDegrees>42.89714033715426921844482421875</LatitudeDegrees>
              <LongitudeDegrees>0.61583879403769969940185546875</LongitudeDegrees>
            </Position>
            <AltitudeMeters>667.20001220703125</AltitudeMeters>
            <DistanceMeters>13456.028040452</DistanceMeters>
          </Trackpoint>
          <Trackpoint>
            <Time>2019-05-08T07:42:07.000Z</Time>
            <Position>
              <LatitudeDegrees>42.89717604406177997589111328125</LatitudeDegrees>
              <LongitudeDegrees>0.61591641046106815338134765625</LongitudeDegrees>
            </Position>
            <AltitudeMeters>667.5999755859375</AltitudeMeters>
            <DistanceMeters>13463.501998766</DistanceMeters>
          </Trackpoint>
          <Trackpoint>
            <Time>2019-05-08T07:42:12.000Z</Time>
            <Position>
              <LatitudeDegrees>42.89718945510685443878173828125</LatitudeDegrees>
              <LongitudeDegrees>0.61612796969711780548095703125</LongitudeDegrees>
            </Position>
            <AltitudeMeters>667.5999755859375</AltitudeMeters>
            <DistanceMeters>13480.816429391</DistanceMeters>
          </Trackpoint>
          <Trackpoint>
            <Time>2019-05-08T07:42:13.000Z</Time>
            <Position>
              <LatitudeDegrees>42.89718509651720523834228515625</LatitudeDegrees>
              <LongitudeDegrees>0.61616283841431140899658203125</LongitudeDegrees>
            </Position>
            <AltitudeMeters>667.5999755859375</AltitudeMeters>
            <DistanceMeters>13483.698732346</DistanceMeters>
          </Trackpoint>
          <Trackpoint>
            <Time>2019-05-08T07:42:18.000Z</Time>
            <Position>
              <LatitudeDegrees>42.89717956446111202239990234375</LatitudeDegrees>
              <LongitudeDegrees>0.61634556390345096588134765625</LongitudeDegrees>
            </Position>
            <AltitudeMeters>668</AltitudeMeters>
            <DistanceMeters>13498.610358762</DistanceMeters>
          </Trackpoint>
          <Trackpoint>
            <Time>2019-05-08T07:42:19.000Z</Time>
            <Position>
              <LatitudeDegrees>42.8971803188323974609375</LatitudeDegrees>
              <LongitudeDegrees>0.61638395301997661590576171875</LongitudeDegrees>
            </Position>
            <AltitudeMeters>668</AltitudeMeters>
            <DistanceMeters>13501.740475843</DistanceMeters>
          </Trackpoint>
          <Trackpoint>
            <Time>2019-05-08T07:42:20.000Z</Time>
            <Position>
              <LatitudeDegrees>42.89718124084174633026123046875</LatitudeDegrees>
              <LongitudeDegrees>0.61642200686037540435791015625</LongitudeDegrees>
            </Position>
            <AltitudeMeters>668</AltitudeMeters>
            <DistanceMeters>13504.845974457</DistanceMeters>
          </Trackpoint>
          <Trackpoint>
            <Time>2019-05-08T07:42:26.000Z</Time>
            <Position>
              <LatitudeDegrees>42.89718761108815670013427734375</LatitudeDegrees>
              <LongitudeDegrees>0.61660473234951496124267578125</LongitudeDegrees>
            </Position>
            <AltitudeMeters>668.5999755859375</AltitudeMeters>
            <DistanceMeters>13519.761536577</DistanceMeters>
          </Trackpoint>
          <Trackpoint>
            <Time>2019-05-08T07:42:28.000Z</Time>
            <Position>
              <LatitudeDegrees>42.8971858508884906768798828125</LatitudeDegrees>
              <LongitudeDegrees>0.61671336181461811065673828125</LongitudeDegrees>
            </Position>
            <AltitudeMeters>668.79998779296875</AltitudeMeters>
            <DistanceMeters>13528.620962317</DistanceMeters>
          </Trackpoint>
          <Trackpoint>
            <Time>2019-05-08T07:42:32.000Z</Time>
            <Position>
              <LatitudeDegrees>42.8971908800303936004638671875</LatitudeDegrees>
              <LongitudeDegrees>0.6168636493384838104248046875</LongitudeDegrees>
            </Position>
            <AltitudeMeters>669.4000244140625</AltitudeMeters>
            <DistanceMeters>13540.88787692</DistanceMeters>
          </Trackpoint>
          <Trackpoint>
            <Time>2019-05-08T07:42:36.000Z</Time>
            <Position>
              <LatitudeDegrees>42.8972029499709606170654296875</LatitudeDegrees>
              <LongitudeDegrees>0.61701142229139804840087890625</LongitudeDegrees>
            </Position>
            <AltitudeMeters>670.20001220703125</AltitudeMeters>
            <DistanceMeters>13553.011885512</DistanceMeters>
          </Trackpoint>
          <Trackpoint>
            <Time>2019-05-08T07:42:40.000Z</Time>
            <Position>
              <LatitudeDegrees>42.89722348563373088836669921875</LatitudeDegrees>
              <LongitudeDegrees>0.6171583570539951324462890625</LongitudeDegrees>
            </Position>
            <AltitudeMeters>670.79998779296875</AltitudeMeters>
            <DistanceMeters>13565.209037205</DistanceMeters>
          </Trackpoint>
          <Trackpoint>
            <Time>2019-05-08T07:42:43.000Z</Time>
            <Position>
              <LatitudeDegrees>42.89723639376461505889892578125</LatitudeDegrees>
              <LongitudeDegrees>0.6172582693397998809814453125</LongitudeDegrees>
            </Position>
            <AltitudeMeters>672</AltitudeMeters>
            <DistanceMeters>13573.48127507</DistanceMeters>
          </Trackpoint>
          <Trackpoint>
            <Time>2019-05-08T07:42:44.000Z</Time>
            <Position>
              <LatitudeDegrees>42.89724410511553287506103515625</LatitudeDegrees>
              <LongitudeDegrees>0.6172891147434711456298828125</LongitudeDegrees>
            </Position>
            <AltitudeMeters>672.4000244140625</AltitudeMeters>
            <DistanceMeters>13576.138627094</DistanceMeters>
          </Trackpoint>
          <Trackpoint>
            <Time>2019-05-08T07:42:47.000Z</Time>
            <Position>
              <LatitudeDegrees>42.89725583977997303009033203125</LatitudeDegrees>
              <LongitudeDegrees>0.61738215386867523193359375</LongitudeDegrees>
            </Position>
            <AltitudeMeters>673</AltitudeMeters>
            <DistanceMeters>13583.83637752</DistanceMeters>
          </Trackpoint>
          <Trackpoint>
            <Time>2019-05-08T07:42:50.000Z</Time>
            <Position>
              <LatitudeDegrees>42.897271849215030670166015625</LatitudeDegrees>
              <LongitudeDegrees>0.61747376807034015655517578125</LongitudeDegrees>
            </Position>
            <AltitudeMeters>674.20001220703125</AltitudeMeters>
            <DistanceMeters>13591.515923682</DistanceMeters>
          </Trackpoint>
          <Trackpoint>
            <Time>2019-05-08T07:42:52.000Z</Time>
            <Position>
              <LatitudeDegrees>42.8972743637859821319580078125</LatitudeDegrees>
              <LongitudeDegrees>0.6175338663160800933837890625</LongitudeDegrees>
            </Position>
            <AltitudeMeters>674.79998779296875</AltitudeMeters>
            <DistanceMeters>13596.424308748</DistanceMeters>
          </Trackpoint>
          <Trackpoint>
            <Time>2019-05-08T07:42:58.000Z</Time>
            <Position>
              <LatitudeDegrees>42.897234298288822174072265625</LatitudeDegrees>
              <LongitudeDegrees>0.61771667562425136566162109375</LongitudeDegrees>
            </Position>
            <AltitudeMeters>676.5999755859375</AltitudeMeters>
            <DistanceMeters>13611.982883851</DistanceMeters>
          </Trackpoint>
          <Trackpoint>
            <Time>2019-05-08T07:43:05.000Z</Time>
            <Position>
              <LatitudeDegrees>42.8972165286540985107421875</LatitudeDegrees>
              <LongitudeDegrees>0.61793393455445766448974609375</LongitudeDegrees>
            </Position>
            <AltitudeMeters>677.79998779296875</AltitudeMeters>
            <DistanceMeters>13629.807423385</DistanceMeters>
          </Trackpoint>
          <Trackpoint>
            <Time>2019-05-08T07:43:10.000Z</Time>
            <Position>
              <LatitudeDegrees>42.89725919254124164581298828125</LatitudeDegrees>
              <LongitudeDegrees>0.61809922568500041961669921875</LongitudeDegrees>
            </Position>
            <AltitudeMeters>678</AltitudeMeters>
            <DistanceMeters>13644.096863141</DistanceMeters>
          </Trackpoint>
          <Trackpoint>
            <Time>2019-05-08T07:43:13.000Z</Time>
            <Position>
              <LatitudeDegrees>42.89727645926177501678466796875</LatitudeDegrees>
              <LongitudeDegrees>0.6181363575160503387451171875</LongitudeDegrees>
            </Position>
            <AltitudeMeters>677.79998779296875</AltitudeMeters>
            <DistanceMeters>13647.682784063</DistanceMeters>
          </Trackpoint>
          <Trackpoint>
            <Time>2019-05-08T07:43:14.000Z</Time>
            <Position>
              <LatitudeDegrees>42.89728651754558086395263671875</LatitudeDegrees>
              <LongitudeDegrees>0.61815739609301090240478515625</LongitudeDegrees>
            </Position>
            <AltitudeMeters>678</AltitudeMeters>
            <DistanceMeters>13649.729722135</DistanceMeters>
          </Trackpoint>
          <Trackpoint>
            <Time>2019-05-08T07:43:15.000Z</Time>
            <Position>
              <LatitudeDegrees>42.8972871042788028717041015625</LatitudeDegrees>
              <LongitudeDegrees>0.61815798282623291015625</LongitudeDegrees>
            </Position>
            <AltitudeMeters>677.79998779296875</AltitudeMeters>
            <DistanceMeters>13649.729722135</DistanceMeters>
          </Trackpoint>
          <Trackpoint>
            <Time>2019-05-08T07:44:45.000Z</Time>
            <Position>
              <LatitudeDegrees>42.89730763994157314300537109375</LatitudeDegrees>
              <LongitudeDegrees>0.61818279325962066650390625</LongitudeDegrees>
            </Position>
            <AltitudeMeters>676.5999755859375</AltitudeMeters>
            <DistanceMeters>13652.782432224</DistanceMeters>
          </Trackpoint>
          <Trackpoint>
            <Time>2019-05-08T07:44:46.000Z</Time>
            <Position>
              <LatitudeDegrees>42.8973213024437427520751953125</LatitudeDegrees>
              <LongitudeDegrees>0.61820156872272491455078125</LongitudeDegrees>
            </Position>
            <AltitudeMeters>676.5999755859375</AltitudeMeters>
            <DistanceMeters>13654.941024229</DistanceMeters>
          </Trackpoint>
          <Trackpoint>
            <Time>2019-05-08T07:44:47.000Z</Time>
            <Position>
              <LatitudeDegrees>42.89733613841235637664794921875</LatitudeDegrees>
              <LongitudeDegrees>0.61822528950870037078857421875</LongitudeDegrees>
            </Position>
            <AltitudeMeters>676.5999755859375</AltitudeMeters>
            <DistanceMeters>13657.483765808</DistanceMeters>
          </Trackpoint>
          <Trackpoint>
            <Time>2019-05-08T07:44:53.000Z</Time>
            <Position>
              <LatitudeDegrees>42.89744510315358638763427734375</LatitudeDegrees>
              <LongitudeDegrees>0.61838353984057903289794921875</LongitudeDegrees>
            </Position>
            <AltitudeMeters>676.5999755859375</AltitudeMeters>
            <DistanceMeters>13675.191911803</DistanceMeters>
          </Trackpoint>
          <Trackpoint>
            <Time>2019-05-08T07:44:54.000Z</Time>
            <Position>
              <LatitudeDegrees>42.897462956607341766357421875</LatitudeDegrees>
              <LongitudeDegrees>0.61841404996812343597412109375</LongitudeDegrees>
            </Position>
            <AltitudeMeters>676.5999755859375</AltitudeMeters>
            <DistanceMeters>13678.374952137</DistanceMeters>
          </Trackpoint>
          <Trackpoint>
            <Time>2019-05-08T07:45:01.000Z</Time>
            <Position>
              <LatitudeDegrees>42.89761290885508060455322265625</LatitudeDegrees>
              <LongitudeDegrees>0.61863851733505725860595703125</LongitudeDegrees>
            </Position>
            <AltitudeMeters>676.5999755859375</AltitudeMeters>
            <DistanceMeters>13703.144681928</DistanceMeters>
          </Trackpoint>
          <Trackpoint>
            <Time>2019-05-08T07:45:03.000Z</Time>
            <Position>
              <LatitudeDegrees>42.8976522199809551239013671875</LatitudeDegrees>
              <LongitudeDegrees>0.61869266442954540252685546875</LongitudeDegrees>
            </Position>
            <AltitudeMeters>676.4000244140625</AltitudeMeters>
            <DistanceMeters>13709.360039281</DistanceMeters>
          </Trackpoint>
          <Trackpoint>
            <Time>2019-05-08T07:45:07.000Z</Time>
            <Position>
              <LatitudeDegrees>42.8977249749004840850830078125</LatitudeDegrees>
              <LongitudeDegrees>0.61879509128630161285400390625</LongitudeDegrees>
            </Position>
            <AltitudeMeters>676.5999755859375</AltitudeMeters>
            <DistanceMeters>13720.992954891</DistanceMeters>
          </Trackpoint>
          <Trackpoint>
            <Time>2019-05-08T07:45:09.000Z</Time>
            <Position>
              <LatitudeDegrees>42.89776076562702655792236328125</LatitudeDegrees>
              <LongitudeDegrees>0.61884689144790172576904296875</LongitudeDegrees>
            </Position>
            <AltitudeMeters>676.5999755859375</AltitudeMeters>
            <DistanceMeters>13726.798146127</DistanceMeters>
          </Trackpoint>
          <Trackpoint>
            <Time>2019-05-08T07:45:13.000Z</Time>
            <Position>
              <LatitudeDegrees>42.8978426568210124969482421875</LatitudeDegrees>
              <LongitudeDegrees>0.618942193686962127685546875</LongitudeDegrees>
            </Position>
            <AltitudeMeters>676.5999755859375</AltitudeMeters>
            <DistanceMeters>13738.776036365</DistanceMeters>
          </Trackpoint>
          <Trackpoint>
            <Time>2019-05-08T07:45:14.000Z</Time>
            <Position>
              <LatitudeDegrees>42.89786159992218017578125</LatitudeDegrees>
              <LongitudeDegrees>0.61896792612969875335693359375</LongitudeDegrees>
            </Position>
            <AltitudeMeters>676.79998779296875</AltitudeMeters>
            <DistanceMeters>13741.750843067</DistanceMeters>
          </Trackpoint>
          <Trackpoint>
            <Time>2019-05-08T07:45:16.000Z</Time>
            <Position>
              <LatitudeDegrees>42.897894792258739471435546875</LatitudeDegrees>
              <LongitudeDegrees>0.619022659957408905029296875</LongitudeDegrees>
            </Position>
            <AltitudeMeters>677.20001220703125</AltitudeMeters>
            <DistanceMeters>13747.54513545</DistanceMeters>
          </Trackpoint>
          <Trackpoint>
            <Time>2019-05-08T07:45:23.000Z</Time>
            <Position>
              <LatitudeDegrees>42.89802186191082000732421875</LatitudeDegrees>
              <LongitudeDegrees>0.61920446343719959259033203125</LongitudeDegrees>
            </Position>
            <AltitudeMeters>678</AltitudeMeters>
            <DistanceMeters>13768.033256484</DistanceMeters>
          </Trackpoint>
          <Trackpoint>
            <Time>2019-05-08T07:45:28.000Z</Time>
            <Position>
              <LatitudeDegrees>42.898113727569580078125</LatitudeDegrees>
              <LongitudeDegrees>0.61936757527291774749755859375</LongitudeDegrees>
            </Position>
            <AltitudeMeters>678.4000244140625</AltitudeMeters>
            <DistanceMeters>13784.808634342</DistanceMeters>
          </Trackpoint>
          <Trackpoint>
            <Time>2019-05-08T07:45:30.000Z</Time>
            <Position>
              <LatitudeDegrees>42.898154966533184051513671875</LatitudeDegrees>
              <LongitudeDegrees>0.61942775733768939971923828125</LongitudeDegrees>
            </Position>
            <AltitudeMeters>678.79998779296875</AltitudeMeters>
            <DistanceMeters>13791.528037755</DistanceMeters>
          </Trackpoint>
          <Trackpoint>
            <Time>2019-05-08T07:45:33.000Z</Time>
            <Position>
              <LatitudeDegrees>42.8982121311128139495849609375</LatitudeDegrees>
              <LongitudeDegrees>0.6195233948528766632080078125</LongitudeDegrees>
            </Position>
            <AltitudeMeters>679</AltitudeMeters>
            <DistanceMeters>13801.592797938</DistanceMeters>
          </Trackpoint>
          <Trackpoint>
            <Time>2019-05-08T07:45:38.000Z</Time>
            <Position>
              <LatitudeDegrees>42.89830693043768405914306640625</LatitudeDegrees>
              <LongitudeDegrees>0.61967418529093265533447265625</LongitudeDegrees>
            </Position>
            <AltitudeMeters>679.5999755859375</AltitudeMeters>
            <DistanceMeters>13817.794504396</DistanceMeters>
          </Trackpoint>
          <Trackpoint>
            <Time>2019-05-08T07:45:39.000Z</Time>
            <Position>
              <LatitudeDegrees>42.89832168258726596832275390625</LatitudeDegrees>
              <LongitudeDegrees>0.61970704235136508941650390625</LongitudeDegrees>
            </Position>
            <AltitudeMeters>679.5999755859375</AltitudeMeters>
            <DistanceMeters>13820.936139886</DistanceMeters>
          </Trackpoint>
          <Trackpoint>
            <Time>2019-05-08T07:45:46.000Z</Time>
            <Position>
              <LatitudeDegrees>42.89843894541263580322265625</LatitudeDegrees>
              <LongitudeDegrees>0.6199766881763935089111328125</LongitudeDegrees>
            </Position>
            <AltitudeMeters>680.4000244140625</AltitudeMeters>
            <DistanceMeters>13846.503977574</DistanceMeters>
          </Trackpoint>
          <Trackpoint>
            <Time>2019-05-08T07:45:49.000Z</Time>
            <Position>
              <LatitudeDegrees>42.89851044304668903350830078125</LatitudeDegrees>
              <LongitudeDegrees>0.62014541588723659515380859375</LongitudeDegrees>
            </Position>
            <AltitudeMeters>680.4000244140625</AltitudeMeters>
            <DistanceMeters>13862.397035753</DistanceMeters>
          </Trackpoint>
          <Trackpoint>
            <Time>2019-05-08T07:45:52.000Z</Time>
            <Position>
              <LatitudeDegrees>42.8985976986587047576904296875</LatitudeDegrees>
              <LongitudeDegrees>0.6203377805650234222412109375</LongitudeDegrees>
            </Position>
            <AltitudeMeters>680.5999755859375</AltitudeMeters>
            <DistanceMeters>13880.844704737</DistanceMeters>
          </Trackpoint>
          <Trackpoint>
            <Time>2019-05-08T07:45:55.000Z</Time>
            <Position>
              <LatitudeDegrees>42.8987137041985988616943359375</LatitudeDegrees>
              <LongitudeDegrees>0.62054774723947048187255859375</LongitudeDegrees>
            </Position>
            <AltitudeMeters>680.4000244140625</AltitudeMeters>
            <DistanceMeters>13902.287499153</DistanceMeters>
          </Trackpoint>
          <Trackpoint>
            <Time>2019-05-08T07:45:57.000Z</Time>
            <Position>
              <LatitudeDegrees>42.8988042287528514862060546875</LatitudeDegrees>
              <LongitudeDegrees>0.62070281244814395904541015625</LongitudeDegrees>
            </Position>
            <AltitudeMeters>680</AltitudeMeters>
            <DistanceMeters>13918.454333494</DistanceMeters>
          </Trackpoint>
          <Trackpoint>
            <Time>2019-05-08T07:45:59.000Z</Time>
            <Position>
              <LatitudeDegrees>42.89889768697321414947509765625</LatitudeDegrees>
              <LongitudeDegrees>0.62088302336633205413818359375</LongitudeDegrees>
            </Position>
            <AltitudeMeters>679.4000244140625</AltitudeMeters>
            <DistanceMeters>13936.457319461</DistanceMeters>
          </Trackpoint>
          <Trackpoint>
            <Time>2019-05-08T07:46:00.000Z</Time>
            <Position>
              <LatitudeDegrees>42.89894320070743560791015625</LatitudeDegrees>
              <LongitudeDegrees>0.62098695896565914154052734375</LongitudeDegrees>
            </Position>
            <AltitudeMeters>679.20001220703125</AltitudeMeters>
            <DistanceMeters>13946.330956343</DistanceMeters>
          </Trackpoint>
          <Trackpoint>
            <Time>2019-05-08T07:46:01.000Z</Time>
            <Position>
              <LatitudeDegrees>42.8989896364510059356689453125</LatitudeDegrees>
              <LongitudeDegrees>0.62109843827784061431884765625</LongitudeDegrees>
            </Position>
            <AltitudeMeters>678.79998779296875</AltitudeMeters>
            <DistanceMeters>13956.78734987</DistanceMeters>
          </Trackpoint>
          <Trackpoint>
            <Time>2019-05-08T07:46:02.000Z</Time>
            <Position>
              <LatitudeDegrees>42.899037413299083709716796875</LatitudeDegrees>
              <LongitudeDegrees>0.62121461145579814910888671875</LongitudeDegrees>
            </Position>
            <AltitudeMeters>678.4000244140625</AltitudeMeters>
            <DistanceMeters>13967.650362296</DistanceMeters>
          </Trackpoint>
          <Trackpoint>
            <Time>2019-05-08T07:46:04.000Z</Time>
            <Position>
              <LatitudeDegrees>42.8991354815661907196044921875</LatitudeDegrees>
              <LongitudeDegrees>0.62146388925611972808837890625</LongitudeDegrees>
            </Position>
            <AltitudeMeters>677.5999755859375</AltitudeMeters>
            <DistanceMeters>13990.720727176</DistanceMeters>
          </Trackpoint>
          <Trackpoint>
            <Time>2019-05-08T07:46:05.000Z</Time>
            <Position>
              <LatitudeDegrees>42.899186275899410247802734375</LatitudeDegrees>
              <LongitudeDegrees>0.62159297056496143341064453125</LongitudeDegrees>
            </Position>
            <AltitudeMeters>677.20001220703125</AltitudeMeters>
            <DistanceMeters>14002.667667716</DistanceMeters>
          </Trackpoint>
          <Trackpoint>
            <Time>2019-05-08T07:46:06.000Z</Time>
            <Position>
              <LatitudeDegrees>42.8992362320423126220703125</LatitudeDegrees>
              <LongitudeDegrees>0.62172674573957920074462890625</LongitudeDegrees>
            </Position>
            <AltitudeMeters>676.4000244140625</AltitudeMeters>
            <DistanceMeters>14014.910634632</DistanceMeters>
          </Trackpoint>
          <Trackpoint>
            <Time>2019-05-08T07:46:07.000Z</Time>
            <Position>
              <LatitudeDegrees>42.8992871940135955810546875</LatitudeDegrees>
              <LongitudeDegrees>0.6218632869422435760498046875</LongitudeDegrees>
            </Position>
            <AltitudeMeters>675.5999755859375</AltitudeMeters>
            <DistanceMeters>14027.405111874</DistanceMeters>
          </Trackpoint>
          <Trackpoint>
            <Time>2019-05-08T07:46:08.000Z</Time>
            <Position>
              <LatitudeDegrees>42.8993413411080837249755859375</LatitudeDegrees>
              <LongitudeDegrees>0.62200150452554225921630859375</LongitudeDegrees>
            </Position>
            <AltitudeMeters>675</AltitudeMeters>
            <DistanceMeters>14040.184703517</DistanceMeters>
          </Trackpoint>
          <Trackpoint>
            <Time>2019-05-08T07:46:09.000Z</Time>
            <Position>
              <LatitudeDegrees>42.89939607493579387664794921875</LatitudeDegrees>
              <LongitudeDegrees>0.6221422366797924041748046875</LongitudeDegrees>
            </Position>
            <AltitudeMeters>673.79998779296875</AltitudeMeters>
            <DistanceMeters>14053.176631353</DistanceMeters>
          </Trackpoint>
          <Trackpoint>
            <Time>2019-05-08T07:46:11.000Z</Time>
            <Position>
              <LatitudeDegrees>42.8995046205818653106689453125</LatitudeDegrees>
              <LongitudeDegrees>0.62242713756859302520751953125</LongitudeDegrees>
            </Position>
            <AltitudeMeters>671.79998779296875</AltitudeMeters>
            <DistanceMeters>14079.35972463</DistanceMeters>
          </Trackpoint>
          <Trackpoint>
            <Time>2019-05-08T07:46:12.000Z</Time>
            <Position>
              <LatitudeDegrees>42.89955742657184600830078125</LatitudeDegrees>
              <LongitudeDegrees>0.62256812117993831634521484375</LongitudeDegrees>
            </Position>
            <AltitudeMeters>671</AltitudeMeters>
            <DistanceMeters>14092.270075167</DistanceMeters>
          </Trackpoint>
          <Trackpoint>
            <Time>2019-05-08T07:46:14.000Z</Time>
            <Position>
              <LatitudeDegrees>42.8996588476002216339111328125</LatitudeDegrees>
              <LongitudeDegrees>0.62284438870847225189208984375</LongitudeDegrees>
            </Position>
            <AltitudeMeters>669</AltitudeMeters>
            <DistanceMeters>14117.465598064</DistanceMeters>
          </Trackpoint>
          <Trackpoint>
            <Time>2019-05-08T07:46:16.000Z</Time>
            <Position>
              <LatitudeDegrees>42.8997538983821868896484375</LatitudeDegrees>
              <LongitudeDegrees>0.6231187283992767333984375</LongitudeDegrees>
            </Position>
            <AltitudeMeters>667</AltitudeMeters>
            <DistanceMeters>14142.209065543</DistanceMeters>
          </Trackpoint>
          <Trackpoint>
            <Time>2019-05-08T07:46:18.000Z</Time>
            <Position>
              <LatitudeDegrees>42.89984635077416896820068359375</LatitudeDegrees>
              <LongitudeDegrees>0.6233887933194637298583984375</LongitudeDegrees>
            </Position>
            <AltitudeMeters>664.79998779296875</AltitudeMeters>
            <DistanceMeters>14166.514179632</DistanceMeters>
          </Trackpoint>
          <Trackpoint>
            <Time>2019-05-08T07:46:19.000Z</Time>
            <Position>
              <LatitudeDegrees>42.8998901881277561187744140625</LatitudeDegrees>
              <LongitudeDegrees>0.62352114357054233551025390625</LongitudeDegrees>
            </Position>
            <AltitudeMeters>663.5999755859375</AltitudeMeters>
            <DistanceMeters>14178.357116233</DistanceMeters>
          </Trackpoint>
          <Trackpoint>
            <Time>2019-05-08T07:46:21.000Z</Time>
            <Position>
              <LatitudeDegrees>42.89997182786464691162109375</LatitudeDegrees>
              <LongitudeDegrees>0.62378190457820892333984375</LongitudeDegrees>
            </Position>
            <AltitudeMeters>662.5999755859375</AltitudeMeters>
            <DistanceMeters>14201.478113735</DistanceMeters>
          </Trackpoint>
          <Trackpoint>
            <Time>2019-05-08T07:46:24.000Z</Time>
            <Position>
              <LatitudeDegrees>42.90009445510804653167724609375</LatitudeDegrees>
              <LongitudeDegrees>0.62413989566266536712646484375</LongitudeDegrees>
            </Position>
            <AltitudeMeters>661.79998779296875</AltitudeMeters>
            <DistanceMeters>14233.699737517</DistanceMeters>
          </Trackpoint>
          <Trackpoint>
            <Time>2019-05-08T07:46:25.000Z</Time>
            <Position>
              <LatitudeDegrees>42.90014038793742656707763671875</LatitudeDegrees>
              <LongitudeDegrees>0.624247603118419647216796875</LongitudeDegrees>
            </Position>
            <AltitudeMeters>661.4000244140625</AltitudeMeters>
            <DistanceMeters>14243.861377352</DistanceMeters>
          </Trackpoint>
          <Trackpoint>
            <Time>2019-05-08T07:46:28.000Z</Time>
            <Position>
              <LatitudeDegrees>42.9002769291400909423828125</LatitudeDegrees>
              <LongitudeDegrees>0.62454767525196075439453125</LongitudeDegrees>
            </Position>
            <AltitudeMeters>661.20001220703125</AltitudeMeters>
            <DistanceMeters>14272.663095051</DistanceMeters>
          </Trackpoint>
          <Trackpoint>
            <Time>2019-05-08T07:46:29.000Z</Time>
            <Position>
              <LatitudeDegrees>42.9003216885030269622802734375</LatitudeDegrees>
              <LongitudeDegrees>0.62463409267365932464599609375</LongitudeDegrees>
            </Position>
            <AltitudeMeters>661.20001220703125</AltitudeMeters>
            <DistanceMeters>14281.292232341</DistanceMeters>
          </Trackpoint>
          <Trackpoint>
            <Time>2019-05-08T07:46:30.000Z</Time>
            <Position>
              <LatitudeDegrees>42.90036535821855068206787109375</LatitudeDegrees>
              <LongitudeDegrees>0.62471690587699413299560546875</LongitudeDegrees>
            </Position>
            <AltitudeMeters>661.20001220703125</AltitudeMeters>
            <DistanceMeters>14289.611277109</DistanceMeters>
          </Trackpoint>
          <Trackpoint>
            <Time>2019-05-08T07:46:31.000Z</Time>
            <Position>
              <LatitudeDegrees>42.90040827356278896331787109375</LatitudeDegrees>
              <LongitudeDegrees>0.62479686923325061798095703125</LongitudeDegrees>
            </Position>
            <AltitudeMeters>661</AltitudeMeters>
            <DistanceMeters>14297.693577091</DistanceMeters>
          </Trackpoint>
          <Trackpoint>
            <Time>2019-05-08T07:46:35.000Z</Time>
            <Position>
              <LatitudeDegrees>42.90056954137980937957763671875</LatitudeDegrees>
              <LongitudeDegrees>0.625100545585155487060546875</LongitudeDegrees>
            </Position>
            <AltitudeMeters>661.20001220703125</AltitudeMeters>
            <DistanceMeters>14328.274910075</DistanceMeters>
          </Trackpoint>
          <Trackpoint>
            <Time>2019-05-08T07:46:36.000Z</Time>
            <Position>
              <LatitudeDegrees>42.9005972854793071746826171875</LatitudeDegrees>
              <LongitudeDegrees>0.62518444843590259552001953125</LongitudeDegrees>
            </Position>
            <AltitudeMeters>661.79998779296875</AltitudeMeters>
            <DistanceMeters>14335.780215989</DistanceMeters>
          </Trackpoint>
          <Trackpoint>
            <Time>2019-05-08T07:46:37.000Z</Time>
            <Position>
              <LatitudeDegrees>42.90061882697045803070068359375</LatitudeDegrees>
              <LongitudeDegrees>0.62527413479983806610107421875</LongitudeDegrees>
            </Position>
            <AltitudeMeters>662</AltitudeMeters>
            <DistanceMeters>14343.475619898</DistanceMeters>
          </Trackpoint>
          <Trackpoint>
            <Time>2019-05-08T07:46:39.000Z</Time>
            <Position>
              <LatitudeDegrees>42.90065939538180828094482421875</LatitudeDegrees>
              <LongitudeDegrees>0.62547563575208187103271484375</LongitudeDegrees>
            </Position>
            <AltitudeMeters>662.79998779296875</AltitudeMeters>
            <DistanceMeters>14360.513779937</DistanceMeters>
          </Trackpoint>
          <Trackpoint>
            <Time>2019-05-08T07:46:40.000Z</Time>
            <Position>
              <LatitudeDegrees>42.9006794281303882598876953125</LatitudeDegrees>
              <LongitudeDegrees>0.6255898810923099517822265625</LongitudeDegrees>
            </Position>
            <AltitudeMeters>662.79998779296875</AltitudeMeters>
            <DistanceMeters>14370.091228267</DistanceMeters>
          </Trackpoint>
          <Trackpoint>
            <Time>2019-05-08T07:46:42.000Z</Time>
            <Position>
              <LatitudeDegrees>42.9007226787507534027099609375</LatitudeDegrees>
              <LongitudeDegrees>0.6258322857320308685302734375</LongitudeDegrees>
            </Position>
            <AltitudeMeters>663</AltitudeMeters>
            <DistanceMeters>14390.432716974</DistanceMeters>
          </Trackpoint>
          <Trackpoint>
            <Time>2019-05-08T07:46:43.000Z</Time>
            <Position>
              <LatitudeDegrees>42.90075369179248809814453125</LatitudeDegrees>
              <LongitudeDegrees>0.6259600259363651275634765625</LongitudeDegrees>
            </Position>
            <AltitudeMeters>663</AltitudeMeters>
            <DistanceMeters>14401.404908148</DistanceMeters>
          </Trackpoint>
          <Trackpoint>
            <Time>2019-05-08T07:46:44.000Z</Time>
            <Position>
              <LatitudeDegrees>42.90079451166093349456787109375</LatitudeDegrees>
              <LongitudeDegrees>0.62609019689261913299560546875</LongitudeDegrees>
            </Position>
            <AltitudeMeters>663</AltitudeMeters>
            <DistanceMeters>14412.949774033</DistanceMeters>
          </Trackpoint>
          <Trackpoint>
            <Time>2019-05-08T07:46:45.000Z</Time>
            <Position>
              <LatitudeDegrees>42.90084362961351871490478515625</LatitudeDegrees>
              <LongitudeDegrees>0.62622212804853916168212890625</LongitudeDegrees>
            </Position>
            <AltitudeMeters>663</AltitudeMeters>
            <DistanceMeters>14425.016296008</DistanceMeters>
          </Trackpoint>
          <Trackpoint>
            <Time>2019-05-08T07:46:46.000Z</Time>
            <Position>
              <LatitudeDegrees>42.9008960165083408355712890625</LatitudeDegrees>
              <LongitudeDegrees>0.62635875307023525238037109375</LongitudeDegrees>
            </Position>
            <AltitudeMeters>663.20001220703125</AltitudeMeters>
            <DistanceMeters>14437.589303534</DistanceMeters>
          </Trackpoint>
          <Trackpoint>
            <Time>2019-05-08T07:46:47.000Z</Time>
            <Position>
              <LatitudeDegrees>42.900948822498321533203125</LatitudeDegrees>
              <LongitudeDegrees>0.6265008263289928436279296875</LongitudeDegrees>
            </Position>
            <AltitudeMeters>663</AltitudeMeters>
            <DistanceMeters>14450.57845086</DistanceMeters>
          </Trackpoint>
          <Trackpoint>
            <Time>2019-05-08T07:46:48.000Z</Time>
            <Position>
              <LatitudeDegrees>42.90100556798279285430908203125</LatitudeDegrees>
              <LongitudeDegrees>0.6266431510448455810546875</LongitudeDegrees>
            </Position>
            <AltitudeMeters>662.4000244140625</AltitudeMeters>
            <DistanceMeters>14463.790240204</DistanceMeters>
          </Trackpoint>
          <Trackpoint>
            <Time>2019-05-08T07:46:49.000Z</Time>
            <Position>
              <LatitudeDegrees>42.9010660015046596527099609375</LatitudeDegrees>
              <LongitudeDegrees>0.62678329646587371826171875</LongitudeDegrees>
            </Position>
            <AltitudeMeters>661.4000244140625</AltitudeMeters>
            <DistanceMeters>14477.049787269</DistanceMeters>
          </Trackpoint>
          <Trackpoint>
            <Time>2019-05-08T07:46:51.000Z</Time>
            <Position>
              <LatitudeDegrees>42.90117974393069744110107421875</LatitudeDegrees>
              <LongitudeDegrees>0.62706534750759601593017578125</LongitudeDegrees>
            </Position>
            <AltitudeMeters>659.4000244140625</AltitudeMeters>
            <DistanceMeters>14503.300218378</DistanceMeters>
          </Trackpoint>
          <Trackpoint>
            <Time>2019-05-08T07:46:53.000Z</Time>
            <Position>
              <LatitudeDegrees>42.90125484578311443328857421875</LatitudeDegrees>
              <LongitudeDegrees>0.6273738853633403778076171875</LongitudeDegrees>
            </Position>
            <AltitudeMeters>657.4000244140625</AltitudeMeters>
            <DistanceMeters>14529.808413877</DistanceMeters>
          </Trackpoint>
          <Trackpoint>
            <Time>2019-05-08T07:46:54.000Z</Time>
            <Position>
              <LatitudeDegrees>42.90128669701516628265380859375</LatitudeDegrees>
              <LongitudeDegrees>0.62753238715231418609619140625</LongitudeDegrees>
            </Position>
            <AltitudeMeters>656.20001220703125</AltitudeMeters>
            <DistanceMeters>14543.208528432</DistanceMeters>
          </Trackpoint>
          <Trackpoint>
            <Time>2019-05-08T07:46:56.000Z</Time>
            <Position>
              <LatitudeDegrees>42.9013550095260143280029296875</LatitudeDegrees>
              <LongitudeDegrees>0.62785173766314983367919921875</LongitudeDegrees>
            </Position>
            <AltitudeMeters>653.5999755859375</AltitudeMeters>
            <DistanceMeters>14570.333121303</DistanceMeters>
          </Trackpoint>
          <Trackpoint>
            <Time>2019-05-08T07:46:57.000Z</Time>
            <Position>
              <LatitudeDegrees>42.90139649994671344757080078125</LatitudeDegrees>
              <LongitudeDegrees>0.62801049090921878814697265625</LongitudeDegrees>
            </Position>
            <AltitudeMeters>652.4000244140625</AltitudeMeters>
            <DistanceMeters>14584.075903002</DistanceMeters>
          </Trackpoint>
          <Trackpoint>
            <Time>2019-05-08T07:46:58.000Z</Time>
            <Position>
              <LatitudeDegrees>42.9014458693563938140869140625</LatitudeDegrees>
              <LongitudeDegrees>0.62816723249852657318115234375</LongitudeDegrees>
            </Position>
            <AltitudeMeters>651.5999755859375</AltitudeMeters>
            <DistanceMeters>14597.986528729</DistanceMeters>
          </Trackpoint>
          <Trackpoint>
            <Time>2019-05-08T07:46:59.000Z</Time>
            <Position>
              <LatitudeDegrees>42.90150043554604053497314453125</LatitudeDegrees>
              <LongitudeDegrees>0.62832280062139034271240234375</LongitudeDegrees>
            </Position>
            <AltitudeMeters>650.79998779296875</AltitudeMeters>
            <DistanceMeters>14612.049198252</DistanceMeters>
          </Trackpoint>
          <Trackpoint>
            <Time>2019-05-08T07:47:00.000Z</Time>
            <Position>
              <LatitudeDegrees>42.90155676193535327911376953125</LatitudeDegrees>
              <LongitudeDegrees>0.62847836874425411224365234375</LongitudeDegrees>
            </Position>
            <AltitudeMeters>650.20001220703125</AltitudeMeters>
            <DistanceMeters>14626.197651687</DistanceMeters>
          </Trackpoint>
          <Trackpoint>
            <Time>2019-05-08T07:47:01.000Z</Time>
            <Position>
              <LatitudeDegrees>42.90161141194403171539306640625</LatitudeDegrees>
              <LongitudeDegrees>0.6286358647048473358154296875</LongitudeDegrees>
            </Position>
            <AltitudeMeters>649.4000244140625</AltitudeMeters>
            <DistanceMeters>14640.406608339</DistanceMeters>
          </Trackpoint>
          <Trackpoint>
            <Time>2019-05-08T07:47:03.000Z</Time>
            <Position>
              <LatitudeDegrees>42.901715599000453948974609375</LatitudeDegrees>
              <LongitudeDegrees>0.62896200455725193023681640625</LongitudeDegrees>
            </Position>
            <AltitudeMeters>647.5999755859375</AltitudeMeters>
            <DistanceMeters>14669.415760067</DistanceMeters>
          </Trackpoint>
          <Trackpoint>
            <Time>2019-05-08T07:47:04.000Z</Time>
            <Position>
              <LatitudeDegrees>42.901763878762722015380859375</LatitudeDegrees>
              <LongitudeDegrees>0.62913022935390472412109375</LongitudeDegrees>
            </Position>
            <AltitudeMeters>646.79998779296875</AltitudeMeters>
            <DistanceMeters>14684.146433404</DistanceMeters>
          </Trackpoint>
          <Trackpoint>
            <Time>2019-05-08T07:47:05.000Z</Time>
            <Position>
              <LatitudeDegrees>42.90181157179176807403564453125</LatitudeDegrees>
              <LongitudeDegrees>0.62929426319897174835205078125</LongitudeDegrees>
            </Position>
            <AltitudeMeters>645.5999755859375</AltitudeMeters>
            <DistanceMeters>14698.535373347</DistanceMeters>
          </Trackpoint>
          <Trackpoint>
            <Time>2019-05-08T07:47:06.000Z</Time>
            <Position>
              <LatitudeDegrees>42.90186278522014617919921875</LatitudeDegrees>
              <LongitudeDegrees>0.62944077886641025543212890625</LongitudeDegrees>
            </Position>
            <AltitudeMeters>644.5999755859375</AltitudeMeters>
            <DistanceMeters>14711.771404213</DistanceMeters>
          </Trackpoint>
          <Trackpoint>
            <Time>2019-05-08T07:47:08.000Z</Time>
            <Position>
              <LatitudeDegrees>42.90192472748458385467529296875</LatitudeDegrees>
              <LongitudeDegrees>0.6295608915388584136962890625</LongitudeDegrees>
            </Position>
            <AltitudeMeters>642.4000244140625</AltitudeMeters>
            <DistanceMeters>14723.747409564</DistanceMeters>
          </Trackpoint>
          <Trackpoint>
            <Time>2019-05-08T07:47:10.000Z</Time>
            <Position>
              <LatitudeDegrees>42.90219546295702457427978515625</LatitudeDegrees>
              <LongitudeDegrees>0.62977471388876438140869140625</LongitudeDegrees>
            </Position>
            <AltitudeMeters>639.79998779296875</AltitudeMeters>
            <DistanceMeters>14758.560145158</DistanceMeters>
          </Trackpoint>
          <Trackpoint>
            <Time>2019-05-08T07:47:12.000Z</Time>
            <Position>
              <LatitudeDegrees>42.90238975547254085540771484375</LatitudeDegrees>
              <LongitudeDegrees>0.62987479381263256072998046875</LongitudeDegrees>
            </Position>
            <AltitudeMeters>637.79998779296875</AltitudeMeters>
            <DistanceMeters>14781.673330192</DistanceMeters>
          </Trackpoint>
          <Trackpoint>
            <Time>2019-05-08T07:47:14.000Z</Time>
            <Position>
              <LatitudeDegrees>42.9025898315012454986572265625</LatitudeDegrees>
              <LongitudeDegrees>0.6299172900617122650146484375</LongitudeDegrees>
            </Position>
            <AltitudeMeters>635.5999755859375</AltitudeMeters>
            <DistanceMeters>14804.21009304</DistanceMeters>
          </Trackpoint>
          <Trackpoint>
            <Time>2019-05-08T07:47:17.000Z</Time>
            <Position>
              <LatitudeDegrees>42.9028922505676746368408203125</LatitudeDegrees>
              <LongitudeDegrees>0.6299089081585407257080078125</LongitudeDegrees>
            </Position>
            <AltitudeMeters>634.20001220703125</AltitudeMeters>
            <DistanceMeters>14837.876919372</DistanceMeters>
          </Trackpoint>
          <Trackpoint>
            <Time>2019-05-08T07:47:19.000Z</Time>
            <Position>
              <LatitudeDegrees>42.90308578871190547943115234375</LatitudeDegrees>
              <LongitudeDegrees>0.6299142725765705108642578125</LongitudeDegrees>
            </Position>
            <AltitudeMeters>634</AltitudeMeters>
            <DistanceMeters>14859.422432588</DistanceMeters>
          </Trackpoint>
          <Trackpoint>
            <Time>2019-05-08T07:47:23.000Z</Time>
            <Position>
              <LatitudeDegrees>42.90345191024243831634521484375</LatitudeDegrees>
              <LongitudeDegrees>0.6300254166126251220703125</LongitudeDegrees>
            </Position>
            <AltitudeMeters>632.4000244140625</AltitudeMeters>
            <DistanceMeters>14901.167723371</DistanceMeters>
          </Trackpoint>
          <Trackpoint>
            <Time>2019-05-08T07:47:26.000Z</Time>
            <Position>
              <LatitudeDegrees>42.903726585209369659423828125</LatitudeDegrees>
              <LongitudeDegrees>0.63010546378791332244873046875</LongitudeDegrees>
            </Position>
            <AltitudeMeters>631.79998779296875</AltitudeMeters>
            <DistanceMeters>14932.42819062</DistanceMeters>
          </Trackpoint>
          <Trackpoint>
            <Time>2019-05-08T07:47:28.000Z</Time>
            <Position>
              <LatitudeDegrees>42.9039034433662891387939453125</LatitudeDegrees>
              <LongitudeDegrees>0.6300763785839080810546875</LongitudeDegrees>
            </Position>
            <AltitudeMeters>631.20001220703125</AltitudeMeters>
            <DistanceMeters>14952.255327274</DistanceMeters>
          </Trackpoint>
          <Trackpoint>
            <Time>2019-05-08T07:47:30.000Z</Time>
            <Position>
              <LatitudeDegrees>42.90405951440334320068359375</LatitudeDegrees>
              <LongitudeDegrees>0.62998811714351177215576171875</LongitudeDegrees>
            </Position>
            <AltitudeMeters>631.20001220703125</AltitudeMeters>
            <DistanceMeters>14971.057654066</DistanceMeters>
          </Trackpoint>
          <Trackpoint>
            <Time>2019-05-08T07:47:32.000Z</Time>
            <Position>
              <LatitudeDegrees>42.90418155491352081298828125</LatitudeDegrees>
              <LongitudeDegrees>0.62985283322632312774658203125</LongitudeDegrees>
            </Position>
            <AltitudeMeters>630.79998779296875</AltitudeMeters>
            <DistanceMeters>14988.554959909</DistanceMeters>
          </Trackpoint>
          <Trackpoint>
            <Time>2019-05-08T07:47:35.000Z</Time>
            <Position>
              <LatitudeDegrees>42.9043238796293735504150390625</LatitudeDegrees>
              <LongitudeDegrees>0.62960623763501644134521484375</LongitudeDegrees>
            </Position>
            <AltitudeMeters>630.4000244140625</AltitudeMeters>
            <DistanceMeters>15014.150507295</DistanceMeters>
          </Trackpoint>
          <Trackpoint>
            <Time>2019-05-08T07:47:36.000Z</Time>
            <Position>
              <LatitudeDegrees>42.904372327029705047607421875</LatitudeDegrees>
              <LongitudeDegrees>0.62953256070613861083984375</LongitudeDegrees>
            </Position>
            <AltitudeMeters>630.4000244140625</AltitudeMeters>
            <DistanceMeters>15022.222745623</DistanceMeters>
          </Trackpoint>
          <Trackpoint>
            <Time>2019-05-08T07:47:37.000Z</Time>
            <Position>
              <LatitudeDegrees>42.90441700257360935211181640625</LatitudeDegrees>
              <LongitudeDegrees>0.6294586323201656341552734375</LongitudeDegrees>
            </Position>
            <AltitudeMeters>630.4000244140625</AltitudeMeters>
            <DistanceMeters>15030.036923565</DistanceMeters>
          </Trackpoint>
          <Trackpoint>
            <Time>2019-05-08T07:47:40.000Z</Time>
            <Position>
              <LatitudeDegrees>42.9044838063418865203857421875</LatitudeDegrees>
              <LongitudeDegrees>0.6292983703315258026123046875</LongitudeDegrees>
            </Position>
            <AltitudeMeters>630.4000244140625</AltitudeMeters>
            <DistanceMeters>15045.070378033</DistanceMeters>
          </Trackpoint>
          <Trackpoint>
            <Time>2019-05-08T07:47:41.000Z</Time>
            <Position>
              <LatitudeDegrees>42.90453032590448856353759765625</LatitudeDegrees>
              <LongitudeDegrees>0.62913048081099987030029296875</LongitudeDegrees>
            </Position>
            <AltitudeMeters>630.4000244140625</AltitudeMeters>
            <DistanceMeters>15059.704492046</DistanceMeters>
          </Trackpoint>
          <Trackpoint>
            <Time>2019-05-08T07:47:43.000Z</Time>
            <Position>
              <LatitudeDegrees>42.9045575670897960662841796875</LatitudeDegrees>
              <LongitudeDegrees>0.6289630942046642303466796875</LongitudeDegrees>
            </Position>
            <AltitudeMeters>630.5999755859375</AltitudeMeters>
            <DistanceMeters>15073.684081253</DistanceMeters>
          </Trackpoint>
          <Trackpoint>
            <Time>2019-05-08T07:47:44.000Z</Time>
            <Position>
              <LatitudeDegrees>42.90456770919263362884521484375</LatitudeDegrees>
              <LongitudeDegrees>0.6288799457252025604248046875</LongitudeDegrees>
            </Position>
            <AltitudeMeters>630.5999755859375</AltitudeMeters>
            <DistanceMeters>15080.556293401</DistanceMeters>
          </Trackpoint>
          <Trackpoint>
            <Time>2019-05-08T07:47:46.000Z</Time>
            <Position>
              <LatitudeDegrees>42.90460391901433467864990234375</LatitudeDegrees>
              <LongitudeDegrees>0.6287196837365627288818359375</LongitudeDegrees>
            </Position>
            <AltitudeMeters>630.79998779296875</AltitudeMeters>
            <DistanceMeters>15094.22957767</DistanceMeters>
          </Trackpoint>
          <Trackpoint>
            <Time>2019-05-08T07:47:47.000Z</Time>
            <Position>
              <LatitudeDegrees>42.90462923236191272735595703125</LatitudeDegrees>
              <LongitudeDegrees>0.62865153886377811431884765625</LongitudeDegrees>
            </Position>
            <AltitudeMeters>631.20001220703125</AltitudeMeters>
            <DistanceMeters>15100.458721951</DistanceMeters>
          </Trackpoint>
          <Trackpoint>
            <Time>2019-05-08T07:47:49.000Z</Time>
            <Position>
              <LatitudeDegrees>42.90467214770615100860595703125</LatitudeDegrees>
              <LongitudeDegrees>0.62852715142071247100830078125</LongitudeDegrees>
            </Position>
            <AltitudeMeters>631.5999755859375</AltitudeMeters>
            <DistanceMeters>15111.66865254</DistanceMeters>
          </Trackpoint>
          <Trackpoint>
            <Time>2019-05-08T07:47:51.000Z</Time>
            <Position>
              <LatitudeDegrees>42.90471003390848636627197265625</LatitudeDegrees>
              <LongitudeDegrees>0.6284172646701335906982421875</LongitudeDegrees>
            </Position>
            <AltitudeMeters>631.79998779296875</AltitudeMeters>
            <DistanceMeters>15121.570144344</DistanceMeters>
          </Trackpoint>
          <Trackpoint>
            <Time>2019-05-08T07:47:52.000Z</Time>
            <Position>
              <LatitudeDegrees>42.90472663007676601409912109375</LatitudeDegrees>
              <LongitudeDegrees>0.6283656321465969085693359375</LongitudeDegrees>
            </Position>
            <AltitudeMeters>632</AltitudeMeters>
            <DistanceMeters>15126.166923529</DistanceMeters>
          </Trackpoint>
          <Trackpoint>
            <Time>2019-05-08T07:47:54.000Z</Time>
            <Position>
              <LatitudeDegrees>42.904754541814327239990234375</LatitudeDegrees>
              <LongitudeDegrees>0.62825985252857208251953125</LongitudeDegrees>
            </Position>
            <AltitudeMeters>632.4000244140625</AltitudeMeters>
            <DistanceMeters>15135.333431115</DistanceMeters>
          </Trackpoint>
          <Trackpoint>
            <Time>2019-05-08T07:47:55.000Z</Time>
            <Position>
              <LatitudeDegrees>42.9047691263258457183837890625</LatitudeDegrees>
              <LongitudeDegrees>0.62820796854794025421142578125</LongitudeDegrees>
            </Position>
            <AltitudeMeters>632.79998779296875</AltitudeMeters>
            <DistanceMeters>15139.863923776</DistanceMeters>
          </Trackpoint>
          <Trackpoint>
            <Time>2019-05-08T07:47:56.000Z</Time>
            <Position>
              <LatitudeDegrees>42.904786057770252227783203125</LatitudeDegrees>
              <LongitudeDegrees>0.62816069461405277252197265625</LongitudeDegrees>
            </Position>
            <AltitudeMeters>633.20001220703125</AltitudeMeters>
            <DistanceMeters>15144.153830045</DistanceMeters>
          </Trackpoint>
          <Trackpoint>
            <Time>2019-05-08T07:47:58.000Z</Time>
            <Position>
              <LatitudeDegrees>42.9048204235732555389404296875</LatitudeDegrees>
              <LongitudeDegrees>0.62808073125779628753662109375</LongitudeDegrees>
            </Position>
            <AltitudeMeters>634.4000244140625</AltitudeMeters>
            <DistanceMeters>15151.712486914</DistanceMeters>
          </Trackpoint>
          <Trackpoint>
            <Time>2019-05-08T07:48:01.000Z</Time>
            <Position>
              <LatitudeDegrees>42.90488957427442073822021484375</LatitudeDegrees>
              <LongitudeDegrees>0.6279923021793365478515625</LongitudeDegrees>
            </Position>
            <AltitudeMeters>635.79998779296875</AltitudeMeters>
            <DistanceMeters>15162.25831175</DistanceMeters>
          </Trackpoint>
          <Trackpoint>
            <Time>2019-05-08T07:48:06.000Z</Time>
            <Position>
              <LatitudeDegrees>42.9050185717642307281494140625</LatitudeDegrees>
              <LongitudeDegrees>0.62797478400170803070068359375</LongitudeDegrees>
            </Position>
            <AltitudeMeters>638.4000244140625</AltitudeMeters>
            <DistanceMeters>15176.687047399</DistanceMeters>
          </Trackpoint>
          <Trackpoint>
            <Time>2019-05-08T07:48:08.000Z</Time>
            <Position>
              <LatitudeDegrees>42.9050504229962825775146484375</LatitudeDegrees>
              <LongitudeDegrees>0.628032870590686798095703125</LongitudeDegrees>
            </Position>
            <AltitudeMeters>639</AltitudeMeters>
            <DistanceMeters>15182.603175888</DistanceMeters>
          </Trackpoint>
          <Trackpoint>
            <Time>2019-05-08T07:48:10.000Z</Time>
            <Position>
              <LatitudeDegrees>42.9050789214670658111572265625</LatitudeDegrees>
              <LongitudeDegrees>0.62811727635562419891357421875</LongitudeDegrees>
            </Position>
            <AltitudeMeters>639.20001220703125</AltitudeMeters>
            <DistanceMeters>15190.180327465</DistanceMeters>
          </Trackpoint>
          <Trackpoint>
            <Time>2019-05-08T07:48:11.000Z</Time>
            <Position>
              <LatitudeDegrees>42.90510280989110469818115234375</LatitudeDegrees>
              <LongitudeDegrees>0.62816505320370197296142578125</LongitudeDegrees>
            </Position>
            <AltitudeMeters>639.20001220703125</AltitudeMeters>
            <DistanceMeters>15194.896372236</DistanceMeters>
          </Trackpoint>
          <Trackpoint>
            <Time>2019-05-08T07:48:12.000Z</Time>
            <Position>
              <LatitudeDegrees>42.9051429592072963714599609375</LatitudeDegrees>
              <LongitudeDegrees>0.6282055377960205078125</LongitudeDegrees>
            </Position>
            <AltitudeMeters>639.20001220703125</AltitudeMeters>
            <DistanceMeters>15200.451982129</DistanceMeters>
          </Trackpoint>
          <Trackpoint>
            <Time>2019-05-08T07:48:13.000Z</Time>
            <Position>
              <LatitudeDegrees>42.905193753540515899658203125</LatitudeDegrees>
              <LongitudeDegrees>0.62823814339935779571533203125</LongitudeDegrees>
            </Position>
            <AltitudeMeters>639.20001220703125</AltitudeMeters>
            <DistanceMeters>15206.698497983</DistanceMeters>
          </Trackpoint>
          <Trackpoint>
            <Time>2019-05-08T07:48:14.000Z</Time>
            <Position>
              <LatitudeDegrees>42.905245721340179443359375</LatitudeDegrees>
              <LongitudeDegrees>0.6282663904130458831787109375</LongitudeDegrees>
            </Position>
            <AltitudeMeters>639.4000244140625</AltitudeMeters>
            <DistanceMeters>15212.924017086</DistanceMeters>
          </Trackpoint>
          <Trackpoint>
            <Time>2019-05-08T07:48:15.000Z</Time>
            <Position>
              <LatitudeDegrees>42.90529324673116207122802734375</LatitudeDegrees>
              <LongitudeDegrees>0.62830318696796894073486328125</LongitudeDegrees>
            </Position>
            <AltitudeMeters>639.20001220703125</AltitudeMeters>
            <DistanceMeters>15219.004241832</DistanceMeters>
          </Trackpoint>
          <Trackpoint>
            <Time>2019-05-08T07:48:17.000Z</Time>
            <Position>
              <LatitudeDegrees>42.9053427837789058685302734375</LatitudeDegrees>
              <LongitudeDegrees>0.62840469181537628173828125</LongitudeDegrees>
            </Position>
            <AltitudeMeters>639.20001220703125</AltitudeMeters>
            <DistanceMeters>15228.948504858</DistanceMeters>
          </Trackpoint>
          <Trackpoint>
            <Time>2019-05-08T07:48:19.000Z</Time>
            <Position>
              <LatitudeDegrees>42.9053759761154651641845703125</LatitudeDegrees>
              <LongitudeDegrees>0.6285389699041843414306640625</LongitudeDegrees>
            </Position>
            <AltitudeMeters>638.5999755859375</AltitudeMeters>
            <DistanceMeters>15240.502362226</DistanceMeters>
          </Trackpoint>
          <Trackpoint>
            <Time>2019-05-08T07:48:20.000Z</Time>
            <Position>
              <LatitudeDegrees>42.9054001159965991973876953125</LatitudeDegrees>
              <LongitudeDegrees>0.62861616723239421844482421875</LongitudeDegrees>
            </Position>
            <AltitudeMeters>638.5999755859375</AltitudeMeters>
            <DistanceMeters>15247.345605349</DistanceMeters>
          </Trackpoint>
          <Trackpoint>
            <Time>2019-05-08T07:48:21.000Z</Time>
            <Position>
              <LatitudeDegrees>42.905424423515796661376953125</LatitudeDegrees>
              <LongitudeDegrees>0.62870568595826625823974609375</LongitudeDegrees>
            </Position>
            <AltitudeMeters>637.79998779296875</AltitudeMeters>
            <DistanceMeters>15255.129099607</DistanceMeters>
          </Trackpoint>
          <Trackpoint>
            <Time>2019-05-08T07:48:22.000Z</Time>
            <Position>
              <LatitudeDegrees>42.90544395335018634796142578125</LatitudeDegrees>
              <LongitudeDegrees>0.628805346786975860595703125</LongitudeDegrees>
            </Position>
            <AltitudeMeters>637.4000244140625</AltitudeMeters>
            <DistanceMeters>15263.540440103</DistanceMeters>
          </Trackpoint>
          <Trackpoint>
            <Time>2019-05-08T07:48:23.000Z</Time>
            <Position>
              <LatitudeDegrees>42.905459292232990264892578125</LatitudeDegrees>
              <LongitudeDegrees>0.62890936620533466339111328125</LongitudeDegrees>
            </Position>
            <AltitudeMeters>636.79998779296875</AltitudeMeters>
            <DistanceMeters>15272.191525212</DistanceMeters>
          </Trackpoint>
          <Trackpoint>
            <Time>2019-05-08T07:48:24.000Z</Time>
            <Position>
              <LatitudeDegrees>42.90546440519392490386962890625</LatitudeDegrees>
              <LongitudeDegrees>0.629014559090137481689453125</LongitudeDegrees>
            </Position>
            <AltitudeMeters>636.20001220703125</AltitudeMeters>
            <DistanceMeters>15280.786059831</DistanceMeters>
          </Trackpoint>
          <Trackpoint>
            <Time>2019-05-08T07:48:25.000Z</Time>
            <Position>
              <LatitudeDegrees>42.905461974442005157470703125</LatitudeDegrees>
              <LongitudeDegrees>0.62911606393754482269287109375</LongitudeDegrees>
            </Position>
            <AltitudeMeters>635.5999755859375</AltitudeMeters>
            <DistanceMeters>15289.065935455</DistanceMeters>
          </Trackpoint>
          <Trackpoint>
            <Time>2019-05-08T07:48:27.000Z</Time>
            <Position>
              <LatitudeDegrees>42.90546507574617862701416015625</LatitudeDegrees>
              <LongitudeDegrees>0.629314295947551727294921875</LongitudeDegrees>
            </Position>
            <AltitudeMeters>634.4000244140625</AltitudeMeters>
            <DistanceMeters>15305.2302561</DistanceMeters>
          </Trackpoint>
          <Trackpoint>
            <Time>2019-05-08T07:48:28.000Z</Time>
            <Position>
              <LatitudeDegrees>42.9054884612560272216796875</LatitudeDegrees>
              <LongitudeDegrees>0.629416890442371368408203125</LongitudeDegrees>
            </Position>
            <AltitudeMeters>633.79998779296875</AltitudeMeters>
            <DistanceMeters>15313.989224616</DistanceMeters>
          </Trackpoint>
          <Trackpoint>
            <Time>2019-05-08T07:48:29.000Z</Time>
            <Position>
              <LatitudeDegrees>42.90551997721195220947265625</LatitudeDegrees>
              <LongitudeDegrees>0.629518143832683563232421875</LongitudeDegrees>
            </Position>
            <AltitudeMeters>632.5999755859375</AltitudeMeters>
            <DistanceMeters>15322.95805514</DistanceMeters>
          </Trackpoint>
          <Trackpoint>
            <Time>2019-05-08T07:48:31.000Z</Time>
            <Position>
              <LatitudeDegrees>42.905579321086406707763671875</LatitudeDegrees>
              <LongitudeDegrees>0.62969424761831760406494140625</LongitudeDegrees>
            </Position>
            <AltitudeMeters>630.4000244140625</AltitudeMeters>
            <DistanceMeters>15338.761372014</DistanceMeters>
          </Trackpoint>
          <Trackpoint>
            <Time>2019-05-08T07:48:32.000Z</Time>
            <Position>
              <LatitudeDegrees>42.9055955819785594940185546875</LatitudeDegrees>
              <LongitudeDegrees>0.62978309579193592071533203125</LongitudeDegrees>
            </Position>
            <AltitudeMeters>629.20001220703125</AltitudeMeters>
            <DistanceMeters>15346.228077577</DistanceMeters>
          </Trackpoint>
          <Trackpoint>
            <Time>2019-05-08T07:48:33.000Z</Time>
            <Position>
              <LatitudeDegrees>42.90560178458690643310546875</LatitudeDegrees>
              <LongitudeDegrees>0.62988166697323322296142578125</LongitudeDegrees>
            </Position>
            <AltitudeMeters>628.20001220703125</AltitudeMeters>
            <DistanceMeters>15354.294720674</DistanceMeters>
          </Trackpoint>
          <Trackpoint>
            <Time>2019-05-08T07:48:35.000Z</Time>
            <Position>
              <LatitudeDegrees>42.90559281595051288604736328125</LatitudeDegrees>
              <LongitudeDegrees>0.6300906278192996978759765625</LongitudeDegrees>
            </Position>
            <AltitudeMeters>626.20001220703125</AltitudeMeters>
            <DistanceMeters>15371.359888863</DistanceMeters>
          </Trackpoint>
          <Trackpoint>
            <Time>2019-05-08T07:48:36.000Z</Time>
            <Position>
              <LatitudeDegrees>42.90560672990977764129638671875</LatitudeDegrees>
              <LongitudeDegrees>0.630195401608943939208984375</LongitudeDegrees>
            </Position>
            <AltitudeMeters>625.4000244140625</AltitudeMeters>
            <DistanceMeters>15380.040671542</DistanceMeters>
          </Trackpoint>
          <Trackpoint>
            <Time>2019-05-08T07:48:37.000Z</Time>
            <Position>
              <LatitudeDegrees>42.90564143098890781402587890625</LatitudeDegrees>
              <LongitudeDegrees>0.63028651289641857147216796875</LongitudeDegrees>
            </Position>
            <AltitudeMeters>624.20001220703125</AltitudeMeters>
            <DistanceMeters>15388.412735407</DistanceMeters>
          </Trackpoint>
          <Trackpoint>
            <Time>2019-05-08T07:48:39.000Z</Time>
            <Position>
              <LatitudeDegrees>42.90575358085334300994873046875</LatitudeDegrees>
              <LongitudeDegrees>0.630429424345493316650390625</LongitudeDegrees>
            </Position>
            <AltitudeMeters>622.20001220703125</AltitudeMeters>
            <DistanceMeters>15405.487954534</DistanceMeters>
          </Trackpoint>
          <Trackpoint>
            <Time>2019-05-08T07:48:41.000Z</Time>
            <Position>
              <LatitudeDegrees>42.90587880648672580718994140625</LatitudeDegrees>
              <LongitudeDegrees>0.63054836355149745941162109375</LongitudeDegrees>
            </Position>
            <AltitudeMeters>620.5999755859375</AltitudeMeters>
            <DistanceMeters>15422.466651786</DistanceMeters>
          </Trackpoint>
          <Trackpoint>
            <Time>2019-05-08T07:48:44.000Z</Time>
            <Position>
              <LatitudeDegrees>42.90605935268104076385498046875</LatitudeDegrees>
              <LongitudeDegrees>0.63071407377719879150390625</LongitudeDegrees>
            </Position>
            <AltitudeMeters>619</AltitudeMeters>
            <DistanceMeters>15446.680756426</DistanceMeters>
          </Trackpoint>
          <Trackpoint>
            <Time>2019-05-08T07:48:45.000Z</Time>
            <Position>
              <LatitudeDegrees>42.9061192832887172698974609375</LatitudeDegrees>
              <LongitudeDegrees>0.63076235353946685791015625</LongitudeDegrees>
            </Position>
            <AltitudeMeters>618.4000244140625</AltitudeMeters>
            <DistanceMeters>15454.425287899</DistanceMeters>
          </Trackpoint>
          <Trackpoint>
            <Time>2019-05-08T07:48:46.000Z</Time>
            <Position>
              <LatitudeDegrees>42.906171418726444244384765625</LatitudeDegrees>
              <LongitudeDegrees>0.6308094598352909088134765625</LongitudeDegrees>
            </Position>
            <AltitudeMeters>618</AltitudeMeters>
            <DistanceMeters>15461.38368354</DistanceMeters>
          </Trackpoint>
          <Trackpoint>
            <Time>2019-05-08T07:48:48.000Z</Time>
            <Position>
              <LatitudeDegrees>42.90623738430440425872802734375</LatitudeDegrees>
              <LongitudeDegrees>0.63089805655181407928466796875</LongitudeDegrees>
            </Position>
            <AltitudeMeters>617.20001220703125</AltitudeMeters>
            <DistanceMeters>15471.682580467</DistanceMeters>
          </Trackpoint>
          <Trackpoint>
            <Time>2019-05-08T07:48:49.000Z</Time>
            <Position>
              <LatitudeDegrees>42.90626068599522113800048828125</LatitudeDegrees>
              <LongitudeDegrees>0.6309465877711772918701171875</LongitudeDegrees>
            </Position>
            <AltitudeMeters>617</AltitudeMeters>
            <DistanceMeters>15476.412009539</DistanceMeters>
          </Trackpoint>
          <Trackpoint>
            <Time>2019-05-08T07:48:50.000Z</Time>
            <Position>
              <LatitudeDegrees>42.90628197602927684783935546875</LatitudeDegrees>
              <LongitudeDegrees>0.63100517727434635162353515625</LongitudeDegrees>
            </Position>
            <AltitudeMeters>616.5999755859375</AltitudeMeters>
            <DistanceMeters>15481.743677257</DistanceMeters>
          </Trackpoint>
          <Trackpoint>
            <Time>2019-05-08T07:48:52.000Z</Time>
            <Position>
              <LatitudeDegrees>42.9063238017261028289794921875</LatitudeDegrees>
              <LongitudeDegrees>0.63115127384662628173828125</LongitudeDegrees>
            </Position>
            <AltitudeMeters>616.20001220703125</AltitudeMeters>
            <DistanceMeters>15494.531745304</DistanceMeters>
          </Trackpoint>
          <Trackpoint>
            <Time>2019-05-08T07:48:53.000Z</Time>
            <Position>
              <LatitudeDegrees>42.90635414421558380126953125</LatitudeDegrees>
              <LongitudeDegrees>0.63123266212642192840576171875</LongitudeDegrees>
            </Position>
            <AltitudeMeters>616.20001220703125</AltitudeMeters>
            <DistanceMeters>15501.976650221</DistanceMeters>
          </Trackpoint>
          <Trackpoint>
            <Time>2019-05-08T07:48:54.000Z</Time>
            <Position>
              <LatitudeDegrees>42.9063958860933780670166015625</LatitudeDegrees>
              <LongitudeDegrees>0.63131622970104217529296875</LongitudeDegrees>
            </Position>
            <AltitudeMeters>616</AltitudeMeters>
            <DistanceMeters>15510.222647773</DistanceMeters>
          </Trackpoint>
          <Trackpoint>
            <Time>2019-05-08T07:48:55.000Z</Time>
            <Position>
              <LatitudeDegrees>42.9064488597214221954345703125</LatitudeDegrees>
              <LongitudeDegrees>0.6313971988856792449951171875</LongitudeDegrees>
            </Position>
            <AltitudeMeters>615.5999755859375</AltitudeMeters>
            <DistanceMeters>15519.073405545</DistanceMeters>
          </Trackpoint>
          <Trackpoint>
            <Time>2019-05-08T07:48:56.000Z</Time>
            <Position>
              <LatitudeDegrees>42.906514741480350494384765625</LatitudeDegrees>
              <LongitudeDegrees>0.63147305510938167572021484375</LongitudeDegrees>
            </Position>
            <AltitudeMeters>615.5999755859375</AltitudeMeters>
            <DistanceMeters>15528.665927579</DistanceMeters>
          </Trackpoint>
          <Trackpoint>
            <Time>2019-05-08T07:48:58.000Z</Time>
            <Position>
              <LatitudeDegrees>42.9066681303083896636962890625</LatitudeDegrees>
              <LongitudeDegrees>0.6316131167113780975341796875</LongitudeDegrees>
            </Position>
            <AltitudeMeters>615.20001220703125</AltitudeMeters>
            <DistanceMeters>15549.204891797</DistanceMeters>
          </Trackpoint>
          <Trackpoint>
            <Time>2019-05-08T07:48:59.000Z</Time>
            <Position>
              <LatitudeDegrees>42.9067526198923587799072265625</LatitudeDegrees>
              <LongitudeDegrees>0.63166491687297821044921875</LongitudeDegrees>
            </Position>
            <AltitudeMeters>614.79998779296875</AltitudeMeters>
            <DistanceMeters>15559.513429016</DistanceMeters>
          </Trackpoint>
          <Trackpoint>
            <Time>2019-05-08T07:49:00.000Z</Time>
            <Position>
              <LatitudeDegrees>42.90684163570404052734375</LatitudeDegrees>
              <LongitudeDegrees>0.6316902302205562591552734375</LongitudeDegrees>
            </Position>
            <AltitudeMeters>614.4000244140625</AltitudeMeters>
            <DistanceMeters>15569.633662562</DistanceMeters>
          </Trackpoint>
          <Trackpoint>
            <Time>2019-05-08T07:49:01.000Z</Time>
            <Position>
              <LatitudeDegrees>42.9069363512098789215087890625</LatitudeDegrees>
              <LongitudeDegrees>0.6316830217838287353515625</LongitudeDegrees>
            </Position>
            <AltitudeMeters>613.79998779296875</AltitudeMeters>
            <DistanceMeters>15580.191468377</DistanceMeters>
          </Trackpoint>
          <Trackpoint>
            <Time>2019-05-08T07:49:02.000Z</Time>
            <Position>
              <LatitudeDegrees>42.907033078372478485107421875</LatitudeDegrees>
              <LongitudeDegrees>0.631649158895015716552734375</LongitudeDegrees>
            </Position>
            <AltitudeMeters>612.79998779296875</AltitudeMeters>
            <DistanceMeters>15591.305938484</DistanceMeters>
          </Trackpoint>
          <Trackpoint>
            <Time>2019-05-08T07:49:03.000Z</Time>
            <Position>
              <LatitudeDegrees>42.9071314819157123565673828125</LatitudeDegrees>
              <LongitudeDegrees>0.63160188496112823486328125</LongitudeDegrees>
            </Position>
            <AltitudeMeters>611.79998779296875</AltitudeMeters>
            <DistanceMeters>15602.917098689</DistanceMeters>
          </Trackpoint>
          <Trackpoint>
            <Time>2019-05-08T07:49:05.000Z</Time>
            <Position>
              <LatitudeDegrees>42.90733792819082736968994140625</LatitudeDegrees>
              <LongitudeDegrees>0.6315162219107151031494140625</LongitudeDegrees>
            </Position>
            <AltitudeMeters>609.4000244140625</AltitudeMeters>
            <DistanceMeters>15626.932739061</DistanceMeters>
          </Trackpoint>
          <Trackpoint>
            <Time>2019-05-08T07:49:06.000Z</Time>
            <Position>
              <LatitudeDegrees>42.90743432007730007171630859375</LatitudeDegrees>
              <LongitudeDegrees>0.63149820081889629364013671875</LongitudeDegrees>
            </Position>
            <AltitudeMeters>608.5999755859375</AltitudeMeters>
            <DistanceMeters>15637.761198906</DistanceMeters>
          </Trackpoint>
          <Trackpoint>
            <Time>2019-05-08T07:49:07.000Z</Time>
            <Position>
              <LatitudeDegrees>42.9075234197080135345458984375</LatitudeDegrees>
              <LongitudeDegrees>0.63151697628200054168701171875</LongitudeDegrees>
            </Position>
            <AltitudeMeters>607.79998779296875</AltitudeMeters>
            <DistanceMeters>15647.796307899</DistanceMeters>
          </Trackpoint>
          <Trackpoint>
            <Time>2019-05-08T07:49:08.000Z</Time>
            <Position>
              <LatitudeDegrees>42.907600700855255126953125</LatitudeDegrees>
              <LongitudeDegrees>0.63157430849969387054443359375</LongitudeDegrees>
            </Position>
            <AltitudeMeters>607</AltitudeMeters>
            <DistanceMeters>15657.585443266</DistanceMeters>
          </Trackpoint>
          <Trackpoint>
            <Time>2019-05-08T07:49:09.000Z</Time>
            <Position>
              <LatitudeDegrees>42.90766038000583648681640625</LatitudeDegrees>
              <LongitudeDegrees>0.63167019747197628021240234375</LongitudeDegrees>
            </Position>
            <AltitudeMeters>606.20001220703125</AltitudeMeters>
            <DistanceMeters>15667.843928089</DistanceMeters>
          </Trackpoint>
          <Trackpoint>
            <Time>2019-05-08T07:49:10.000Z</Time>
            <Position>
              <LatitudeDegrees>42.90771343745291233062744140625</LatitudeDegrees>
              <LongitudeDegrees>0.631785951554775238037109375</LongitudeDegrees>
            </Position>
            <AltitudeMeters>605.4000244140625</AltitudeMeters>
            <DistanceMeters>15678.976257994</DistanceMeters>
          </Trackpoint>
          <Trackpoint>
            <Time>2019-05-08T07:49:11.000Z</Time>
            <Position>
              <LatitudeDegrees>42.90777026675641536712646484375</LatitudeDegrees>
              <LongitudeDegrees>0.6319054774940013885498046875</LongitudeDegrees>
            </Position>
            <AltitudeMeters>604.4000244140625</AltitudeMeters>
            <DistanceMeters>15690.593638187</DistanceMeters>
          </Trackpoint>
          <Trackpoint>
            <Time>2019-05-08T07:49:12.000Z</Time>
            <Position>
              <LatitudeDegrees>42.9078301973640918731689453125</LatitudeDegrees>
              <LongitudeDegrees>0.63202911056578159332275390625</LongitudeDegrees>
            </Position>
            <AltitudeMeters>603.4000244140625</AltitudeMeters>
            <DistanceMeters>15702.680348935</DistanceMeters>
          </Trackpoint>
          <Trackpoint>
            <Time>2019-05-08T07:49:13.000Z</Time>
            <Position>
              <LatitudeDegrees>42.9078905470669269561767578125</LatitudeDegrees>
              <LongitudeDegrees>0.6321609579026699066162109375</LongitudeDegrees>
            </Position>
            <AltitudeMeters>602.20001220703125</AltitudeMeters>
            <DistanceMeters>15715.35493216</DistanceMeters>
          </Trackpoint>
          <Trackpoint>
            <Time>2019-05-08T07:49:15.000Z</Time>
            <Position>
              <LatitudeDegrees>42.90800680406391620635986328125</LatitudeDegrees>
              <LongitudeDegrees>0.63244502060115337371826171875</LongitudeDegrees>
            </Position>
            <AltitudeMeters>599.79998779296875</AltitudeMeters>
            <DistanceMeters>15741.88253773</DistanceMeters>
          </Trackpoint>
          <Trackpoint>
            <Time>2019-05-08T07:49:16.000Z</Time>
            <Position>
              <LatitudeDegrees>42.90805868804454803466796875</LatitudeDegrees>
              <LongitudeDegrees>0.63260100781917572021484375</LongitudeDegrees>
            </Position>
            <AltitudeMeters>599</AltitudeMeters>
            <DistanceMeters>15755.849202019</DistanceMeters>
          </Trackpoint>
          <Trackpoint>
            <Time>2019-05-08T07:49:17.000Z</Time>
            <Position>
              <LatitudeDegrees>42.90810621343553066253662109375</LatitudeDegrees>
              <LongitudeDegrees>0.63276470638811588287353515625</LongitudeDegrees>
            </Position>
            <AltitudeMeters>598.20001220703125</AltitudeMeters>
            <DistanceMeters>15770.204842186</DistanceMeters>
          </Trackpoint>
          <Trackpoint>
            <Time>2019-05-08T07:49:18.000Z</Time>
            <Position>
              <LatitudeDegrees>42.9081564210355281829833984375</LatitudeDegrees>
              <LongitudeDegrees>0.63293150626122951507568359375</LongitudeDegrees>
            </Position>
            <AltitudeMeters>597.20001220703125</AltitudeMeters>
            <DistanceMeters>15784.906675737</DistanceMeters>
          </Trackpoint>
          <Trackpoint>
            <Time>2019-05-08T07:49:19.000Z</Time>
            <Position>
              <LatitudeDegrees>42.90821048431098461151123046875</LatitudeDegrees>
              <LongitudeDegrees>0.6330913491547107696533203125</LongitudeDegrees>
            </Position>
            <AltitudeMeters>595.79998779296875</AltitudeMeters>
            <DistanceMeters>15799.259799578</DistanceMeters>
          </Trackpoint>
          <Trackpoint>
            <Time>2019-05-08T07:49:21.000Z</Time>
            <Position>
              <LatitudeDegrees>42.9083396494388580322265625</LatitudeDegrees>
              <LongitudeDegrees>0.63341011293232440948486328125</LongitudeDegrees>
            </Position>
            <AltitudeMeters>593.20001220703125</AltitudeMeters>
            <DistanceMeters>15828.958042395</DistanceMeters>
          </Trackpoint>
          <Trackpoint>
            <Time>2019-05-08T07:49:22.000Z</Time>
            <Position>
              <LatitudeDegrees>42.908416427671909332275390625</LatitudeDegrees>
              <LongitudeDegrees>0.63355880789458751678466796875</LongitudeDegrees>
            </Position>
            <AltitudeMeters>592</AltitudeMeters>
            <DistanceMeters>15843.789213357</DistanceMeters>
          </Trackpoint>
          <Trackpoint>
            <Time>2019-05-08T07:49:24.000Z</Time>
            <Position>
              <LatitudeDegrees>42.90855892002582550048828125</LatitudeDegrees>
              <LongitudeDegrees>0.633814036846160888671875</LongitudeDegrees>
            </Position>
            <AltitudeMeters>589.4000244140625</AltitudeMeters>
            <DistanceMeters>15869.951087795</DistanceMeters>
          </Trackpoint>
          <Trackpoint>
            <Time>2019-05-08T07:49:25.000Z</Time>
            <Position>
              <LatitudeDegrees>42.90862706489861011505126953125</LatitudeDegrees>
              <LongitudeDegrees>0.63391503877937793731689453125</LongitudeDegrees>
            </Position>
            <AltitudeMeters>588</AltitudeMeters>
            <DistanceMeters>15881.145702612</DistanceMeters>
          </Trackpoint>
          <Trackpoint>
            <Time>2019-05-08T07:49:26.000Z</Time>
            <Position>
              <LatitudeDegrees>42.90870753116905689239501953125</LatitudeDegrees>
              <LongitudeDegrees>0.6339922361075878143310546875</LongitudeDegrees>
            </Position>
            <AltitudeMeters>586.4000244140625</AltitudeMeters>
            <DistanceMeters>15892.091938693</DistanceMeters>
          </Trackpoint>
          <Trackpoint>
            <Time>2019-05-08T07:49:27.000Z</Time>
            <Position>
              <LatitudeDegrees>42.90880224667489528656005859375</LatitudeDegrees>
              <LongitudeDegrees>0.63404613174498081207275390625</LongitudeDegrees>
            </Position>
            <AltitudeMeters>584.4000244140625</AltitudeMeters>
            <DistanceMeters>15903.513343348</DistanceMeters>
          </Trackpoint>
          <Trackpoint>
            <Time>2019-05-08T07:49:29.000Z</Time>
            <Position>
              <LatitudeDegrees>42.909009195864200592041015625</LatitudeDegrees>
              <LongitudeDegrees>0.63412659801542758941650390625</LongitudeDegrees>
            </Position>
            <AltitudeMeters>581.4000244140625</AltitudeMeters>
            <DistanceMeters>15927.462903379</DistanceMeters>
          </Trackpoint>
          <Trackpoint>
            <Time>2019-05-08T07:49:31.000Z</Time>
            <Position>
              <LatitudeDegrees>42.9092220962047576904296875</LatitudeDegrees>
              <LongitudeDegrees>0.63422583974897861480712890625</LongitudeDegrees>
            </Position>
            <AltitudeMeters>579</AltitudeMeters>
            <DistanceMeters>15952.5020369</DistanceMeters>
          </Trackpoint>
          <Trackpoint>
            <Time>2019-05-08T07:49:32.000Z</Time>
            <Position>
              <LatitudeDegrees>42.90931505151093006134033203125</LatitudeDegrees>
              <LongitudeDegrees>0.63429616391658782958984375</LongitudeDegrees>
            </Position>
            <AltitudeMeters>577.79998779296875</AltitudeMeters>
            <DistanceMeters>15964.33047739</DistanceMeters>
          </Trackpoint>
          <Trackpoint>
            <Time>2019-05-08T07:49:33.000Z</Time>
            <Position>
              <LatitudeDegrees>42.909398116171360015869140625</LatitudeDegrees>
              <LongitudeDegrees>0.6343754567205905914306640625</LongitudeDegrees>
            </Position>
            <AltitudeMeters>577</AltitudeMeters>
            <DistanceMeters>15975.611072997</DistanceMeters>
          </Trackpoint>
          <Trackpoint>
            <Time>2019-05-08T07:49:34.000Z</Time>
            <Position>
              <LatitudeDegrees>42.90948252193629741668701171875</LatitudeDegrees>
              <LongitudeDegrees>0.63444846309721469879150390625</LongitudeDegrees>
            </Position>
            <AltitudeMeters>576.5999755859375</AltitudeMeters>
            <DistanceMeters>15986.732852851</DistanceMeters>
          </Trackpoint>
          <Trackpoint>
            <Time>2019-05-08T07:49:36.000Z</Time>
            <Position>
              <LatitudeDegrees>42.90966809727251529693603515625</LatitudeDegrees>
              <LongitudeDegrees>0.63452473841607570648193359375</LongitudeDegrees>
            </Position>
            <AltitudeMeters>574.4000244140625</AltitudeMeters>
            <DistanceMeters>16008.303289074</DistanceMeters>
          </Trackpoint>
          <Trackpoint>
            <Time>2019-05-08T07:49:38.000Z</Time>
            <Position>
              <LatitudeDegrees>42.90985166095197200775146484375</LatitudeDegrees>
              <LongitudeDegrees>0.63454284332692623138427734375</LongitudeDegrees>
            </Position>
            <AltitudeMeters>572.20001220703125</AltitudeMeters>
            <DistanceMeters>16028.787663417</DistanceMeters>
          </Trackpoint>
          <Trackpoint>
            <Time>2019-05-08T07:49:39.000Z</Time>
            <Position>
              <LatitudeDegrees>42.9099275171756744384765625</LatitudeDegrees>
              <LongitudeDegrees>0.63459715805947780609130859375</LongitudeDegrees>
            </Position>
            <AltitudeMeters>571.20001220703125</AltitudeMeters>
            <DistanceMeters>16038.321642097</DistanceMeters>
          </Trackpoint>
          <Trackpoint>
            <Time>2019-05-08T07:49:40.000Z</Time>
            <Position>
              <LatitudeDegrees>42.90999012999236583709716796875</LatitudeDegrees>
              <LongitudeDegrees>0.63468483276665210723876953125</LongitudeDegrees>
            </Position>
            <AltitudeMeters>570</AltitudeMeters>
            <DistanceMeters>16048.304423455</DistanceMeters>
          </Trackpoint>
          <Trackpoint>
            <Time>2019-05-08T07:49:41.000Z</Time>
            <Position>
              <LatitudeDegrees>42.9100508987903594970703125</LatitudeDegrees>
              <LongitudeDegrees>0.63478340394794940948486328125</LongitudeDegrees>
            </Position>
            <AltitudeMeters>568.79998779296875</AltitudeMeters>
            <DistanceMeters>16058.808207249</DistanceMeters>
          </Trackpoint>
          <Trackpoint>
            <Time>2019-05-08T07:49:42.000Z</Time>
            <Position>
              <LatitudeDegrees>42.9101174511015415191650390625</LatitudeDegrees>
              <LongitudeDegrees>0.634888596832752227783203125</LongitudeDegrees>
            </Position>
            <AltitudeMeters>568.20001220703125</AltitudeMeters>
            <DistanceMeters>16070.139918816</DistanceMeters>
          </Trackpoint>
          <Trackpoint>
            <Time>2019-05-08T07:49:43.000Z</Time>
            <Position>
              <LatitudeDegrees>42.91019179858267307281494140625</LatitudeDegrees>
              <LongitudeDegrees>0.63499647192656993865966796875</LongitudeDegrees>
            </Position>
            <AltitudeMeters>567.20001220703125</AltitudeMeters>
            <DistanceMeters>16082.21504384</DistanceMeters>
          </Trackpoint>
          <Trackpoint>
            <Time>2019-05-08T07:49:44.000Z</Time>
            <Position>
              <LatitudeDegrees>42.91027461178600788116455078125</LatitudeDegrees>
              <LongitudeDegrees>0.6351073645055294036865234375</LongitudeDegrees>
            </Position>
            <AltitudeMeters>566.5999755859375</AltitudeMeters>
            <DistanceMeters>16095.125744095</DistanceMeters>
          </Trackpoint>
          <Trackpoint>
            <Time>2019-05-08T07:49:45.000Z</Time>
            <Position>
              <LatitudeDegrees>42.91036245413124561309814453125</LatitudeDegrees>
              <LongitudeDegrees>0.63521624542772769927978515625</LongitudeDegrees>
            </Position>
            <AltitudeMeters>565.79998779296875</AltitudeMeters>
            <DistanceMeters>16108.331038723</DistanceMeters>
          </Trackpoint>
          <Trackpoint>
            <Time>2019-05-08T07:49:46.000Z</Time>
            <Position>
              <LatitudeDegrees>42.91045197285711765289306640625</LatitudeDegrees>
              <LongitudeDegrees>0.6353202648460865020751953125</LongitudeDegrees>
            </Position>
            <AltitudeMeters>565.20001220703125</AltitudeMeters>
            <DistanceMeters>16121.414391851</DistanceMeters>
          </Trackpoint>
          <Trackpoint>
            <Time>2019-05-08T07:49:47.000Z</Time>
            <Position>
              <LatitudeDegrees>42.91054249741137027740478515625</LatitudeDegrees>
              <LongitudeDegrees>0.63542294315993785858154296875</LongitudeDegrees>
            </Position>
            <AltitudeMeters>564.79998779296875</AltitudeMeters>
            <DistanceMeters>16134.512920487</DistanceMeters>
          </Trackpoint>
          <Trackpoint>
            <Time>2019-05-08T07:49:48.000Z</Time>
            <Position>
              <LatitudeDegrees>42.91063771583139896392822265625</LatitudeDegrees>
              <LongitudeDegrees>0.635512210428714752197265625</LongitudeDegrees>
            </Position>
            <AltitudeMeters>564.4000244140625</AltitudeMeters>
            <DistanceMeters>16147.368598574</DistanceMeters>
          </Trackpoint>
          <Trackpoint>
            <Time>2019-05-08T07:49:49.000Z</Time>
            <Position>
              <LatitudeDegrees>42.91074248962104320526123046875</LatitudeDegrees>
              <LongitudeDegrees>0.63558018766343593597412109375</LongitudeDegrees>
            </Position>
            <AltitudeMeters>564</AltitudeMeters>
            <DistanceMeters>16160.279648537</DistanceMeters>
          </Trackpoint>
          <Trackpoint>
            <Time>2019-05-08T07:49:50.000Z</Time>
            <Position>
              <LatitudeDegrees>42.91085363365709781646728515625</LatitudeDegrees>
              <LongitudeDegrees>0.63563802279531955718994140625</LongitudeDegrees>
            </Position>
            <AltitudeMeters>563.20001220703125</AltitudeMeters>
            <DistanceMeters>16173.518067009</DistanceMeters>
          </Trackpoint>
          <Trackpoint>
            <Time>2019-05-08T07:49:51.000Z</Time>
            <Position>
              <LatitudeDegrees>42.9109663702547550201416015625</LatitudeDegrees>
              <LongitudeDegrees>0.635695271193981170654296875</LongitudeDegrees>
            </Position>
            <AltitudeMeters>561.79998779296875</AltitudeMeters>
            <DistanceMeters>16186.905708969</DistanceMeters>
          </Trackpoint>
          <Trackpoint>
            <Time>2019-05-08T07:49:53.000Z</Time>
            <Position>
              <LatitudeDegrees>42.91119175963103771209716796875</LatitudeDegrees>
              <LongitudeDegrees>0.63583441078662872314453125</LongitudeDegrees>
            </Position>
            <AltitudeMeters>559</AltitudeMeters>
            <DistanceMeters>16214.436901398</DistanceMeters>
          </Trackpoint>
          <Trackpoint>
            <Time>2019-05-08T07:49:54.000Z</Time>
            <Position>
              <LatitudeDegrees>42.91130692698061466217041015625</LatitudeDegrees>
              <LongitudeDegrees>0.635911189019680023193359375</LongitudeDegrees>
            </Position>
            <AltitudeMeters>557.20001220703125</AltitudeMeters>
            <DistanceMeters>16228.701674182</DistanceMeters>
          </Trackpoint>
          <Trackpoint>
            <Time>2019-05-08T07:49:55.000Z</Time>
            <Position>
              <LatitudeDegrees>42.91142410598695278167724609375</LatitudeDegrees>
              <LongitudeDegrees>0.6359906494617462158203125</LongitudeDegrees>
            </Position>
            <AltitudeMeters>556.4000244140625</AltitudeMeters>
            <DistanceMeters>16243.264033717</DistanceMeters>
          </Trackpoint>
          <Trackpoint>
            <Time>2019-05-08T07:49:56.000Z</Time>
            <Position>
              <LatitudeDegrees>42.91153692640364170074462890625</LatitudeDegrees>
              <LongitudeDegrees>0.63608142547309398651123046875</LongitudeDegrees>
            </Position>
            <AltitudeMeters>554</AltitudeMeters>
            <DistanceMeters>16257.839409473</DistanceMeters>
          </Trackpoint>
          <Trackpoint>
            <Time>2019-05-08T07:49:58.000Z</Time>
            <Position>
              <LatitudeDegrees>42.91175100021064281463623046875</LatitudeDegrees>
              <LongitudeDegrees>0.6363032944500446319580078125</LongitudeDegrees>
            </Position>
            <AltitudeMeters>551.4000244140625</AltitudeMeters>
            <DistanceMeters>16287.753209385</DistanceMeters>
          </Trackpoint>
          <Trackpoint>
            <Time>2019-05-08T07:49:59.000Z</Time>
            <Position>
              <LatitudeDegrees>42.91185996495187282562255859375</LatitudeDegrees>
              <LongitudeDegrees>0.63641955144703388214111328125</LongitudeDegrees>
            </Position>
            <AltitudeMeters>550.20001220703125</AltitudeMeters>
            <DistanceMeters>16303.14460391</DistanceMeters>
          </Trackpoint>
          <Trackpoint>
            <Time>2019-05-08T07:50:00.000Z</Time>
            <Position>
              <LatitudeDegrees>42.911967001855373382568359375</LatitudeDegrees>
              <LongitudeDegrees>0.63653689809143543243408203125</LongitudeDegrees>
            </Position>
            <AltitudeMeters>549</AltitudeMeters>
            <DistanceMeters>16318.423528487</DistanceMeters>
          </Trackpoint>
          <Trackpoint>
            <Time>2019-05-08T07:50:01.000Z</Time>
            <Position>
              <LatitudeDegrees>42.9120761342346668243408203125</LatitudeDegrees>
              <LongitudeDegrees>0.6366531550884246826171875</LongitudeDegrees>
            </Position>
            <AltitudeMeters>548.20001220703125</AltitudeMeters>
            <DistanceMeters>16333.829876508</DistanceMeters>
          </Trackpoint>
          <Trackpoint>
            <Time>2019-05-08T07:50:02.000Z</Time>
            <Position>
              <LatitudeDegrees>42.91219172067940235137939453125</LatitudeDegrees>
              <LongitudeDegrees>0.63676505349576473236083984375</LongitudeDegrees>
            </Position>
            <AltitudeMeters>547.20001220703125</AltitudeMeters>
            <DistanceMeters>16349.600303434</DistanceMeters>
          </Trackpoint>
          <Trackpoint>
            <Time>2019-05-08T07:50:03.000Z</Time>
            <Position>
              <LatitudeDegrees>42.91231325827538967132568359375</LatitudeDegrees>
              <LongitudeDegrees>0.63685893081128597259521484375</LongitudeDegrees>
            </Position>
            <AltitudeMeters>545.79998779296875</AltitudeMeters>
            <DistanceMeters>16365.142328555</DistanceMeters>
          </Trackpoint>
          <Trackpoint>
            <Time>2019-05-08T07:50:04.000Z</Time>
            <Position>
              <LatitudeDegrees>42.91244317777454853057861328125</LatitudeDegrees>
              <LongitudeDegrees>0.63694509677588939666748046875</LongitudeDegrees>
            </Position>
            <AltitudeMeters>544.20001220703125</AltitudeMeters>
            <DistanceMeters>16381.218422229</DistanceMeters>
          </Trackpoint>
          <Trackpoint>
            <Time>2019-05-08T07:50:05.000Z</Time>
            <Position>
              <LatitudeDegrees>42.91257661767303943634033203125</LatitudeDegrees>
              <LongitudeDegrees>0.63701852224767208099365234375</LongitudeDegrees>
            </Position>
            <AltitudeMeters>542.79998779296875</AltitudeMeters>
            <DistanceMeters>16397.231199023</DistanceMeters>
          </Trackpoint>
          <Trackpoint>
            <Time>2019-05-08T07:50:06.000Z</Time>
            <Position>
              <LatitudeDegrees>42.912711314857006072998046875</LatitudeDegrees>
              <LongitudeDegrees>0.63708876259624958038330078125</LongitudeDegrees>
            </Position>
            <AltitudeMeters>541.5999755859375</AltitudeMeters>
            <DistanceMeters>16413.279182702</DistanceMeters>
          </Trackpoint>
          <Trackpoint>
            <Time>2019-05-08T07:50:07.000Z</Time>
            <Position>
              <LatitudeDegrees>42.91283830069005489349365234375</LatitudeDegrees>
              <LongitudeDegrees>0.63715095631778240203857421875</LongitudeDegrees>
            </Position>
            <AltitudeMeters>540</AltitudeMeters>
            <DistanceMeters>16428.294606394</DistanceMeters>
          </Trackpoint>
          <Trackpoint>
            <Time>2019-05-08T07:50:09.000Z</Time>
            <Position>
              <LatitudeDegrees>42.9130605049431324005126953125</LatitudeDegrees>
              <LongitudeDegrees>0.63724583946168422698974609375</LongitudeDegrees>
            </Position>
            <AltitudeMeters>536.79998779296875</AltitudeMeters>
            <DistanceMeters>16454.20781817</DistanceMeters>
          </Trackpoint>
          <Trackpoint>
            <Time>2019-05-08T07:50:10.000Z</Time>
            <Position>
              <LatitudeDegrees>42.91315832175314426422119140625</LatitudeDegrees>
              <LongitudeDegrees>0.637298561632633209228515625</LongitudeDegrees>
            </Position>
            <AltitudeMeters>535.4000244140625</AltitudeMeters>
            <DistanceMeters>16465.912316866</DistanceMeters>
          </Trackpoint>
          <Trackpoint>
            <Time>2019-05-08T07:50:11.000Z</Time>
            <Position>
              <LatitudeDegrees>42.9132432304322719573974609375</LatitudeDegrees>
              <LongitudeDegrees>0.63737056218087673187255859375</LongitudeDegrees>
            </Position>
            <AltitudeMeters>533.79998779296875</AltitudeMeters>
            <DistanceMeters>16477.036938103</DistanceMeters>
          </Trackpoint>
          <Trackpoint>
            <Time>2019-05-08T07:50:12.000Z</Time>
            <Position>
              <LatitudeDegrees>42.9133096151053905487060546875</LatitudeDegrees>
              <LongitudeDegrees>0.63746712170541286468505859375</LongitudeDegrees>
            </Position>
            <AltitudeMeters>532.4000244140625</AltitudeMeters>
            <DistanceMeters>16487.832826055</DistanceMeters>
          </Trackpoint>
          <Trackpoint>
            <Time>2019-05-08T07:50:13.000Z</Time>
            <Position>
              <LatitudeDegrees>42.913360409438610076904296875</LatitudeDegrees>
              <LongitudeDegrees>0.63757642172276973724365234375</LongitudeDegrees>
            </Position>
            <AltitudeMeters>531.20001220703125</AltitudeMeters>
            <DistanceMeters>16498.384643081</DistanceMeters>
          </Trackpoint>
          <Trackpoint>
            <Time>2019-05-08T07:50:14.000Z</Time>
            <Position>
              <LatitudeDegrees>42.913408689200878143310546875</LatitudeDegrees>
              <LongitudeDegrees>0.63768446445465087890625</LongitudeDegrees>
            </Position>
            <AltitudeMeters>530</AltitudeMeters>
            <DistanceMeters>16508.701061111</DistanceMeters>
          </Trackpoint>
          <Trackpoint>
            <Time>2019-05-08T07:50:15.000Z</Time>
            <Position>
              <LatitudeDegrees>42.91347415186464786529541015625</LatitudeDegrees>
              <LongitudeDegrees>0.63778026960790157318115234375</LongitudeDegrees>
            </Position>
            <AltitudeMeters>528.79998779296875</AltitudeMeters>
            <DistanceMeters>16519.381319799</DistanceMeters>
          </Trackpoint>
          <Trackpoint>
            <Time>2019-05-08T07:50:16.000Z</Time>
            <Position>
              <LatitudeDegrees>42.91355763562023639678955078125</LatitudeDegrees>
              <LongitudeDegrees>0.637860484421253204345703125</LongitudeDegrees>
            </Position>
            <AltitudeMeters>527.5999755859375</AltitudeMeters>
            <DistanceMeters>16530.743670036</DistanceMeters>
          </Trackpoint>
          <Trackpoint>
            <Time>2019-05-08T07:50:17.000Z</Time>
            <Position>
              <LatitudeDegrees>42.91364170610904693603515625</LatitudeDegrees>
              <LongitudeDegrees>0.63793332315981388092041015625</LongitudeDegrees>
            </Position>
            <AltitudeMeters>526.4000244140625</AltitudeMeters>
            <DistanceMeters>16541.82559404</DistanceMeters>
          </Trackpoint>
          <Trackpoint>
            <Time>2019-05-08T07:50:18.000Z</Time>
            <Position>
              <LatitudeDegrees>42.91371672414243221282958984375</LatitudeDegrees>
              <LongitudeDegrees>0.63800959847867488861083984375</LongitudeDegrees>
            </Position>
            <AltitudeMeters>525.4000244140625</AltitudeMeters>
            <DistanceMeters>16552.236116481</DistanceMeters>
          </Trackpoint>
          <Trackpoint>
            <Time>2019-05-08T07:50:19.000Z</Time>
            <Position>
              <LatitudeDegrees>42.9137823544442653656005859375</LatitudeDegrees>
              <LongitudeDegrees>0.6380961835384368896484375</LongitudeDegrees>
            </Position>
            <AltitudeMeters>524.4000244140625</AltitudeMeters>
            <DistanceMeters>16562.393756632</DistanceMeters>
          </Trackpoint>
          <Trackpoint>
            <Time>2019-05-08T07:50:20.000Z</Time>
            <Position>
              <LatitudeDegrees>42.91384018957614898681640625</LatitudeDegrees>
              <LongitudeDegrees>0.6381979398429393768310546875</LongitudeDegrees>
            </Position>
            <AltitudeMeters>523.5999755859375</AltitudeMeters>
            <DistanceMeters>16572.893241059</DistanceMeters>
          </Trackpoint>
          <Trackpoint>
            <Time>2019-05-08T07:50:21.000Z</Time>
            <Position>
              <LatitudeDegrees>42.91389542631804943084716796875</LatitudeDegrees>
              <LongitudeDegrees>0.638304390013217926025390625</LongitudeDegrees>
            </Position>
            <AltitudeMeters>522.5999755859375</AltitudeMeters>
            <DistanceMeters>16583.528169712</DistanceMeters>
          </Trackpoint>
          <Trackpoint>
            <Time>2019-05-08T07:50:22.000Z</Time>
            <Position>
              <LatitudeDegrees>42.9139533452689647674560546875</LatitudeDegrees>
              <LongitudeDegrees>0.6384007818996906280517578125</LongitudeDegrees>
            </Position>
            <AltitudeMeters>521.5999755859375</AltitudeMeters>
            <DistanceMeters>16593.691586679</DistanceMeters>
          </Trackpoint>
          <Trackpoint>
            <Time>2019-05-08T07:50:23.000Z</Time>
            <Position>
              <LatitudeDegrees>42.9140152037143707275390625</LatitudeDegrees>
              <LongitudeDegrees>0.63848845660686492919921875</LongitudeDegrees>
            </Position>
            <AltitudeMeters>521</AltitudeMeters>
            <DistanceMeters>16603.614942141</DistanceMeters>
          </Trackpoint>
          <Trackpoint>
            <Time>2019-05-08T07:50:25.000Z</Time>
            <Position>
              <LatitudeDegrees>42.9141359031200408935546875</LatitudeDegrees>
              <LongitudeDegrees>0.63864394091069698333740234375</LongitudeDegrees>
            </Position>
            <AltitudeMeters>519</AltitudeMeters>
            <DistanceMeters>16622.083891965</DistanceMeters>
          </Trackpoint>
          <Trackpoint>
            <Time>2019-05-08T07:50:27.000Z</Time>
            <Position>
              <LatitudeDegrees>42.914230786263942718505859375</LatitudeDegrees>
              <LongitudeDegrees>0.63876028172671794891357421875</LongitudeDegrees>
            </Position>
            <AltitudeMeters>517.20001220703125</AltitudeMeters>
            <DistanceMeters>16636.277587941</DistanceMeters>
          </Trackpoint>
          <Trackpoint>
            <Time>2019-05-08T07:50:28.000Z</Time>
            <Position>
              <LatitudeDegrees>42.91427847929298877716064453125</LatitudeDegrees>
              <LongitudeDegrees>0.63880688510835170745849609375</LongitudeDegrees>
            </Position>
            <AltitudeMeters>516.20001220703125</AltitudeMeters>
            <DistanceMeters>16642.804754299</DistanceMeters>
          </Trackpoint>
          <Trackpoint>
            <Time>2019-05-08T07:50:29.000Z</Time>
            <Position>
              <LatitudeDegrees>42.91433581151068210601806640625</LatitudeDegrees>
              <LongitudeDegrees>0.638840831816196441650390625</LongitudeDegrees>
            </Position>
            <AltitudeMeters>515.4000244140625</AltitudeMeters>
            <DistanceMeters>16649.760554007</DistanceMeters>
          </Trackpoint>
          <Trackpoint>
            <Time>2019-05-08T07:50:30.000Z</Time>
            <Position>
              <LatitudeDegrees>42.9144029505550861358642578125</LatitudeDegrees>
              <LongitudeDegrees>0.6388634629547595977783203125</LongitudeDegrees>
            </Position>
            <AltitudeMeters>514.4000244140625</AltitudeMeters>
            <DistanceMeters>16657.457131264</DistanceMeters>
          </Trackpoint>
          <Trackpoint>
            <Time>2019-05-08T07:50:31.000Z</Time>
            <Position>
              <LatitudeDegrees>42.91447780095040798187255859375</LatitudeDegrees>
              <LongitudeDegrees>0.6388812325894832611083984375</LongitudeDegrees>
            </Position>
            <AltitudeMeters>513</AltitudeMeters>
            <DistanceMeters>16665.912907118</DistanceMeters>
          </Trackpoint>
          <Trackpoint>
            <Time>2019-05-08T07:50:33.000Z</Time>
            <Position>
              <LatitudeDegrees>42.91463538073003292083740234375</LatitudeDegrees>
              <LongitudeDegrees>0.6389124132692813873291015625</LongitudeDegrees>
            </Position>
            <AltitudeMeters>511.399993896484375</AltitudeMeters>
            <DistanceMeters>16683.635325657</DistanceMeters>
          </Trackpoint>
          <Trackpoint>
            <Time>2019-05-08T07:50:34.000Z</Time>
            <Position>
              <LatitudeDegrees>42.91471350006759166717529296875</LatitudeDegrees>
              <LongitudeDegrees>0.6389365531504154205322265625</LongitudeDegrees>
            </Position>
            <AltitudeMeters>510.399993896484375</AltitudeMeters>
            <DistanceMeters>16692.550634561</DistanceMeters>
          </Trackpoint>
          <Trackpoint>
            <Time>2019-05-08T07:50:37.000Z</Time>
            <Position>
              <LatitudeDegrees>42.91490661911666393280029296875</LatitudeDegrees>
              <LongitudeDegrees>0.6390297599136829376220703125</LongitudeDegrees>
            </Position>
            <AltitudeMeters>508.600006103515625</AltitudeMeters>
            <DistanceMeters>16715.348531611</DistanceMeters>
          </Trackpoint>
          <Trackpoint>
            <Time>2019-05-08T07:50:40.000Z</Time>
            <Position>
              <LatitudeDegrees>42.915003597736358642578125</LatitudeDegrees>
              <LongitudeDegrees>0.639080889523029327392578125</LongitudeDegrees>
            </Position>
            <AltitudeMeters>506.399993896484375</AltitudeMeters>
            <DistanceMeters>16726.919180398</DistanceMeters>
          </Trackpoint>
          <Trackpoint>
            <Time>2019-05-08T07:50:45.000Z</Time>
            <Position>
              <LatitudeDegrees>42.91513594798743724822998046875</LatitudeDegrees>
              <LongitudeDegrees>0.639109052717685699462890625</LongitudeDegrees>
            </Position>
            <AltitudeMeters>504.600006103515625</AltitudeMeters>
            <DistanceMeters>16741.827778642</DistanceMeters>
          </Trackpoint>
          <Trackpoint>
            <Time>2019-05-08T07:50:48.000Z</Time>
            <Position>
              <LatitudeDegrees>42.91523485444486141204833984375</LatitudeDegrees>
              <LongitudeDegrees>0.63916160725057125091552734375</LongitudeDegrees>
            </Position>
            <AltitudeMeters>504.399993896484375</AltitudeMeters>
            <DistanceMeters>16753.640176417</DistanceMeters>
          </Trackpoint>
          <Trackpoint>
            <Time>2019-05-08T07:50:50.000Z</Time>
            <Position>
              <LatitudeDegrees>42.915316410362720489501953125</LatitudeDegrees>
              <LongitudeDegrees>0.6392077915370464324951171875</LongitudeDegrees>
            </Position>
            <AltitudeMeters>504.20001220703125</AltitudeMeters>
            <DistanceMeters>16763.466600356</DistanceMeters>
          </Trackpoint>
          <Trackpoint>
            <Time>2019-05-08T07:50:54.000Z</Time>
            <Position>
              <LatitudeDegrees>42.9154952801764011383056640625</LatitudeDegrees>
              <LongitudeDegrees>0.63933469355106353759765625</LongitudeDegrees>
            </Position>
            <AltitudeMeters>504.20001220703125</AltitudeMeters>
            <DistanceMeters>16785.902164114</DistanceMeters>
          </Trackpoint>
          <Trackpoint>
            <Time>2019-05-08T07:50:55.000Z</Time>
            <Position>
              <LatitudeDegrees>42.91554079391062259674072265625</LatitudeDegrees>
              <LongitudeDegrees>0.6393838115036487579345703125</LongitudeDegrees>
            </Position>
            <AltitudeMeters>504</AltitudeMeters>
            <DistanceMeters>16792.358388464</DistanceMeters>
          </Trackpoint>
          <Trackpoint>
            <Time>2019-05-08T07:50:56.000Z</Time>
            <Position>
              <LatitudeDegrees>42.9155861400067806243896484375</LatitudeDegrees>
              <LongitudeDegrees>0.63943368382751941680908203125</LongitudeDegrees>
            </Position>
            <AltitudeMeters>504</AltitudeMeters>
            <DistanceMeters>16798.838346448</DistanceMeters>
          </Trackpoint>
          <Trackpoint>
            <Time>2019-05-08T07:51:00.000Z</Time>
            <Position>
              <LatitudeDegrees>42.91576802730560302734375</LatitudeDegrees>
              <LongitudeDegrees>0.6396406330168247222900390625</LongitudeDegrees>
            </Position>
            <AltitudeMeters>503.20001220703125</AltitudeMeters>
            <DistanceMeters>16825.189890017</DistanceMeters>
          </Trackpoint>
          <Trackpoint>
            <Time>2019-05-08T07:51:02.000Z</Time>
            <Position>
              <LatitudeDegrees>42.9158510081470012664794921875</LatitudeDegrees>
              <LongitudeDegrees>0.63972671516239643096923828125</LongitudeDegrees>
            </Position>
            <AltitudeMeters>503</AltitudeMeters>
            <DistanceMeters>16836.788600241</DistanceMeters>
          </Trackpoint>
          <Trackpoint>
            <Time>2019-05-08T07:51:07.000Z</Time>
            <Position>
              <LatitudeDegrees>42.91605192236602306365966796875</LatitudeDegrees>
              <LongitudeDegrees>0.6400032341480255126953125</LongitudeDegrees>
            </Position>
            <AltitudeMeters>501.399993896484375</AltitudeMeters>
            <DistanceMeters>16868.539327856</DistanceMeters>
          </Trackpoint>
          <Trackpoint>
            <Time>2019-05-08T07:51:08.000Z</Time>
            <Position>
              <LatitudeDegrees>42.9160843603312969207763671875</LatitudeDegrees>
              <LongitudeDegrees>0.6400671042501926422119140625</LongitudeDegrees>
            </Position>
            <AltitudeMeters>501.399993896484375</AltitudeMeters>
            <DistanceMeters>16874.874125384</DistanceMeters>
          </Trackpoint>
          <Trackpoint>
            <Time>2019-05-08T07:51:14.000Z</Time>
            <Position>
              <LatitudeDegrees>42.916312851011753082275390625</LatitudeDegrees>
              <LongitudeDegrees>0.6404149532318115234375</LongitudeDegrees>
            </Position>
            <AltitudeMeters>500.79998779296875</AltitudeMeters>
            <DistanceMeters>16912.962179166</DistanceMeters>
          </Trackpoint>
          <Trackpoint>
            <Time>2019-05-08T07:51:18.000Z</Time>
            <Position>
              <LatitudeDegrees>42.9164729453623294830322265625</LatitudeDegrees>
              <LongitudeDegrees>0.64063489437103271484375</LongitudeDegrees>
            </Position>
            <AltitudeMeters>500.600006103515625</AltitudeMeters>
            <DistanceMeters>16938.238927942</DistanceMeters>
          </Trackpoint>
          <Trackpoint>
            <Time>2019-05-08T07:51:20.000Z</Time>
            <Position>
              <LatitudeDegrees>42.91655332781374454498291015625</LatitudeDegrees>
              <LongitudeDegrees>0.64074008725583553314208984375</LongitudeDegrees>
            </Position>
            <AltitudeMeters>500.399993896484375</AltitudeMeters>
            <DistanceMeters>16950.631446253</DistanceMeters>
          </Trackpoint>
          <Trackpoint>
            <Time>2019-05-08T07:51:22.000Z</Time>
            <Position>
              <LatitudeDegrees>42.91662306524813175201416015625</LatitudeDegrees>
              <LongitudeDegrees>0.640850476920604705810546875</LongitudeDegrees>
            </Position>
            <AltitudeMeters>500.600006103515625</AltitudeMeters>
            <DistanceMeters>16962.514725911</DistanceMeters>
          </Trackpoint>
          <Trackpoint>
            <Time>2019-05-08T07:51:24.000Z</Time>
            <Position>
              <LatitudeDegrees>42.9166486300528049468994140625</LatitudeDegrees>
              <LongitudeDegrees>0.64096623100340366363525390625</LongitudeDegrees>
            </Position>
            <AltitudeMeters>500.399993896484375</AltitudeMeters>
            <DistanceMeters>16972.36959639</DistanceMeters>
          </Trackpoint>
          <Trackpoint>
            <Time>2019-05-08T07:51:26.000Z</Time>
            <Position>
              <LatitudeDegrees>42.91660764254629611968994140625</LatitudeDegrees>
              <LongitudeDegrees>0.64106396399438381195068359375</LongitudeDegrees>
            </Position>
            <AltitudeMeters>500.600006103515625</AltitudeMeters>
            <DistanceMeters>16981.549885244</DistanceMeters>
          </Trackpoint>
          <Trackpoint>
            <Time>2019-05-08T07:51:27.000Z</Time>
            <Position>
              <LatitudeDegrees>42.9165798984467983245849609375</LatitudeDegrees>
              <LongitudeDegrees>0.6411067955195903778076171875</LongitudeDegrees>
            </Position>
            <AltitudeMeters>500.399993896484375</AltitudeMeters>
            <DistanceMeters>16986.211040029</DistanceMeters>
          </Trackpoint>
          <Trackpoint>
            <Time>2019-05-08T07:51:31.000Z</Time>
            <Position>
              <LatitudeDegrees>42.9165579378604888916015625</LatitudeDegrees>
              <LongitudeDegrees>0.64129463396966457366943359375</LongitudeDegrees>
            </Position>
            <AltitudeMeters>500.399993896484375</AltitudeMeters>
            <DistanceMeters>17001.715835903</DistanceMeters>
          </Trackpoint>
          <Trackpoint>
            <Time>2019-05-08T07:51:34.000Z</Time>
            <Position>
              <LatitudeDegrees>42.91662055067718029022216796875</LatitudeDegrees>
              <LongitudeDegrees>0.64137208275496959686279296875</LongitudeDegrees>
            </Position>
            <AltitudeMeters>500.399993896484375</AltitudeMeters>
            <DistanceMeters>17011.118680072</DistanceMeters>
          </Trackpoint>
          <Trackpoint>
            <Time>2019-05-08T07:51:35.000Z</Time>
            <Position>
              <LatitudeDegrees>42.9166464507579803466796875</LatitudeDegrees>
              <LongitudeDegrees>0.641372166574001312255859375</LongitudeDegrees>
            </Position>
            <AltitudeMeters>500.399993896484375</AltitudeMeters>
            <DistanceMeters>17014.000983027</DistanceMeters>
          </Trackpoint>
          <Trackpoint>
            <Time>2019-05-08T07:51:39.000Z</Time>
            <Position>
              <LatitudeDegrees>42.9167156852781772613525390625</LatitudeDegrees>
              <LongitudeDegrees>0.64131558872759342193603515625</LongitudeDegrees>
            </Position>
            <AltitudeMeters>500.600006103515625</AltitudeMeters>
            <DistanceMeters>17022.981887369</DistanceMeters>
          </Trackpoint>
          <Trackpoint>
            <Time>2019-05-08T07:51:41.000Z</Time>
            <Position>
              <LatitudeDegrees>42.91671819984912872314453125</LatitudeDegrees>
              <LongitudeDegrees>0.641312487423419952392578125</LongitudeDegrees>
            </Position>
            <AltitudeMeters>500.600006103515625</AltitudeMeters>
            <DistanceMeters>17023.361994227</DistanceMeters>
          </Trackpoint>
          <Trackpoint>
            <Time>2019-05-08T07:53:17.000Z</Time>
            <Position>
              <LatitudeDegrees>42.9166995920240879058837890625</LatitudeDegrees>
              <LongitudeDegrees>0.64124803058803081512451171875</LongitudeDegrees>
            </Position>
            <AltitudeMeters>501.79998779296875</AltitudeMeters>
            <DistanceMeters>17029.009491903</DistanceMeters>
          </Trackpoint>
          <Trackpoint>
            <Time>2019-05-08T07:53:18.000Z</Time>
            <Position>
              <LatitudeDegrees>42.91669900529086589813232421875</LatitudeDegrees>
              <LongitudeDegrees>0.64121316187083721160888671875</LongitudeDegrees>
            </Position>
            <AltitudeMeters>501.600006103515625</AltitudeMeters>
            <DistanceMeters>17031.850774771</DistanceMeters>
          </Trackpoint>
          <Trackpoint>
            <Time>2019-05-08T07:53:21.000Z</Time>
            <Position>
              <LatitudeDegrees>42.91675164364278316497802734375</LatitudeDegrees>
              <LongitudeDegrees>0.641116015613079071044921875</LongitudeDegrees>
            </Position>
            <AltitudeMeters>501.600006103515625</AltitudeMeters>
            <DistanceMeters>17041.700604278</DistanceMeters>
          </Trackpoint>
          <Trackpoint>
            <Time>2019-05-08T07:53:22.000Z</Time>
            <Position>
              <LatitudeDegrees>42.91678466834127902984619140625</LatitudeDegrees>
              <LongitudeDegrees>0.6411017663776874542236328125</LongitudeDegrees>
            </Position>
            <AltitudeMeters>501.600006103515625</AltitudeMeters>
            <DistanceMeters>17045.555926032</DistanceMeters>
          </Trackpoint>
          <Trackpoint>
            <Time>2019-05-08T07:53:27.000Z</Time>
            <Position>
              <LatitudeDegrees>42.91699354536831378936767578125</LatitudeDegrees>
              <LongitudeDegrees>0.64108894206583499908447265625</LongitudeDegrees>
            </Position>
            <AltitudeMeters>501.399993896484375</AltitudeMeters>
            <DistanceMeters>17068.827578416</DistanceMeters>
          </Trackpoint>
          <Trackpoint>
            <Time>2019-05-08T07:53:32.000Z</Time>
            <Position>
              <LatitudeDegrees>42.91722471825778484344482421875</LatitudeDegrees>
              <LongitudeDegrees>0.6410739384591579437255859375</LongitudeDegrees>
            </Position>
            <AltitudeMeters>501.600006103515625</AltitudeMeters>
            <DistanceMeters>17094.586654818</DistanceMeters>
          </Trackpoint>
          <Trackpoint>
            <Time>2019-05-08T07:53:33.000Z</Time>
            <Position>
              <LatitudeDegrees>42.91727484203875064849853515625</LatitudeDegrees>
              <LongitudeDegrees>0.6410702504217624664306640625</LongitudeDegrees>
            </Position>
            <AltitudeMeters>501.399993896484375</AltitudeMeters>
            <DistanceMeters>17100.173870069</DistanceMeters>
          </Trackpoint>
          <Trackpoint>
            <Time>2019-05-08T07:53:37.000Z</Time>
            <Position>
              <LatitudeDegrees>42.91748539544641971588134765625</LatitudeDegrees>
              <LongitudeDegrees>0.641040913760662078857421875</LongitudeDegrees>
            </Position>
            <AltitudeMeters>501</AltitudeMeters>
            <DistanceMeters>17123.730530648</DistanceMeters>
          </Trackpoint>
          <Trackpoint>
            <Time>2019-05-08T07:53:40.000Z</Time>
            <Position>
              <LatitudeDegrees>42.91765294969081878662109375</LatitudeDegrees>
              <LongitudeDegrees>0.6410367228090763092041015625</LongitudeDegrees>
            </Position>
            <AltitudeMeters>501</AltitudeMeters>
            <DistanceMeters>17142.382655331</DistanceMeters>
          </Trackpoint>
          <Trackpoint>
            <Time>2019-05-08T07:53:41.000Z</Time>
            <Position>
              <LatitudeDegrees>42.91770659387111663818359375</LatitudeDegrees>
              <LongitudeDegrees>0.64103362150490283966064453125</LongitudeDegrees>
            </Position>
            <AltitudeMeters>501.20001220703125</AltitudeMeters>
            <DistanceMeters>17148.358014923</DistanceMeters>
          </Trackpoint>
          <Trackpoint>
            <Time>2019-05-08T07:53:43.000Z</Time>
            <Position>
              <LatitudeDegrees>42.91780809871852397918701171875</LatitudeDegrees>
              <LongitudeDegrees>0.64102624543011188507080078125</LongitudeDegrees>
            </Position>
            <AltitudeMeters>501</AltitudeMeters>
            <DistanceMeters>17159.671782359</DistanceMeters>
          </Trackpoint>
          <Trackpoint>
            <Time>2019-05-08T07:53:44.000Z</Time>
            <Position>
              <LatitudeDegrees>42.91785520501434803009033203125</LatitudeDegrees>
              <LongitudeDegrees>0.641023814678192138671875</LongitudeDegrees>
            </Position>
            <AltitudeMeters>501.20001220703125</AltitudeMeters>
            <DistanceMeters>17164.918083246</DistanceMeters>
          </Trackpoint>
          <Trackpoint>
            <Time>2019-05-08T07:53:48.000Z</Time>
            <Position>
              <LatitudeDegrees>42.918034158647060394287109375</LatitudeDegrees>
              <LongitudeDegrees>0.64100495539605617523193359375</LongitudeDegrees>
            </Position>
            <AltitudeMeters>501.399993896484375</AltitudeMeters>
            <DistanceMeters>17184.895175839</DistanceMeters>
          </Trackpoint>
          <Trackpoint>
            <Time>2019-05-08T07:53:49.000Z</Time>
            <Position>
              <LatitudeDegrees>42.91807665489614009857177734375</LatitudeDegrees>
              <LongitudeDegrees>0.6409988366067409515380859375</LongitudeDegrees>
            </Position>
            <AltitudeMeters>501.399993896484375</AltitudeMeters>
            <DistanceMeters>17189.650311106</DistanceMeters>
          </Trackpoint>
          <Trackpoint>
            <Time>2019-05-08T07:53:52.000Z</Time>
            <Position>
              <LatitudeDegrees>42.918191738426685333251953125</LatitudeDegrees>
              <LongitudeDegrees>0.64099363982677459716796875</LongitudeDegrees>
            </Position>
            <AltitudeMeters>501.600006103515625</AltitudeMeters>
            <DistanceMeters>17202.466593349</DistanceMeters>
          </Trackpoint>
          <Trackpoint>
            <Time>2019-05-08T07:53:53.000Z</Time>
            <Position>
              <LatitudeDegrees>42.9182281158864498138427734375</LatitudeDegrees>
              <LongitudeDegrees>0.64099405892193317413330078125</LongitudeDegrees>
            </Position>
            <AltitudeMeters>501.79998779296875</AltitudeMeters>
            <DistanceMeters>17206.516114163</DistanceMeters>
          </Trackpoint>
          <Trackpoint>
            <Time>2019-05-08T07:53:54.000Z</Time>
            <Position>
              <LatitudeDegrees>42.91826449334621429443359375</LatitudeDegrees>
              <LongitudeDegrees>0.6409917958080768585205078125</LongitudeDegrees>
            </Position>
            <AltitudeMeters>502.20001220703125</AltitudeMeters>
            <DistanceMeters>17210.570092348</DistanceMeters>
          </Trackpoint>
          <Trackpoint>
            <Time>2019-05-08T07:53:57.000Z</Time>
            <Position>
              <LatitudeDegrees>42.9183746315538883209228515625</LatitudeDegrees>
              <LongitudeDegrees>0.64098014496266841888427734375</LongitudeDegrees>
            </Position>
            <AltitudeMeters>502.600006103515625</AltitudeMeters>
            <DistanceMeters>17222.865315394</DistanceMeters>
          </Trackpoint>
          <Trackpoint>
            <Time>2019-05-08T07:54:00.000Z</Time>
            <Position>
              <LatitudeDegrees>42.91848502121865749359130859375</LatitudeDegrees>
              <LongitudeDegrees>0.64096874557435512542724609375</LongitudeDegrees>
            </Position>
            <AltitudeMeters>503.600006103515625</AltitudeMeters>
            <DistanceMeters>17235.186583396</DistanceMeters>
          </Trackpoint>
          <Trackpoint>
            <Time>2019-05-08T07:54:03.000Z</Time>
            <Position>
              <LatitudeDegrees>42.9185949079692363739013671875</LatitudeDegrees>
              <LongitudeDegrees>0.64095466397702693939208984375</LongitudeDegrees>
            </Position>
            <AltitudeMeters>504.399993896484375</AltitudeMeters>
            <DistanceMeters>17247.471152478</DistanceMeters>
          </Trackpoint>
          <Trackpoint>
            <Time>2019-05-08T07:54:04.000Z</Time>
            <Position>
              <LatitudeDegrees>42.91862793266773223876953125</LatitudeDegrees>
              <LongitudeDegrees>0.640953071415424346923828125</LongitudeDegrees>
            </Position>
            <AltitudeMeters>504.79998779296875</AltitudeMeters>
            <DistanceMeters>17251.149066902</DistanceMeters>
          </Trackpoint>
          <Trackpoint>
            <Time>2019-05-08T07:54:06.000Z</Time>
            <Position>
              <LatitudeDegrees>42.9186881147325038909912109375</LatitudeDegrees>
              <LongitudeDegrees>0.64095147885382175445556640625</LongitudeDegrees>
            </Position>
            <AltitudeMeters>505.20001220703125</AltitudeMeters>
            <DistanceMeters>17257.848955708</DistanceMeters>
          </Trackpoint>
          <Trackpoint>
            <Time>2019-05-08T07:54:08.000Z</Time>
            <Position>
              <LatitudeDegrees>42.91874653659760951995849609375</LatitudeDegrees>
              <LongitudeDegrees>0.640943013131618499755859375</LongitudeDegrees>
            </Position>
            <AltitudeMeters>506</AltitudeMeters>
            <DistanceMeters>17264.387870905</DistanceMeters>
          </Trackpoint>
          <Trackpoint>
            <Time>2019-05-08T07:54:11.000Z</Time>
            <Position>
              <LatitudeDegrees>42.91883186437189579010009765625</LatitudeDegrees>
              <LongitudeDegrees>0.64093622379004955291748046875</LongitudeDegrees>
            </Position>
            <AltitudeMeters>507.20001220703125</AltitudeMeters>
            <DistanceMeters>17273.900989538</DistanceMeters>
          </Trackpoint>
          <Trackpoint>
            <Time>2019-05-08T07:54:12.000Z</Time>
            <Position>
              <LatitudeDegrees>42.91885885410010814666748046875</LatitudeDegrees>
              <LongitudeDegrees>0.6409304402768611907958984375</LongitudeDegrees>
            </Position>
            <AltitudeMeters>507.600006103515625</AltitudeMeters>
            <DistanceMeters>17276.941844398</DistanceMeters>
          </Trackpoint>
          <Trackpoint>
            <Time>2019-05-08T07:54:17.000Z</Time>
            <Position>
              <LatitudeDegrees>42.9189861752092838287353515625</LatitudeDegrees>
              <LongitudeDegrees>0.64092415384948253631591796875</LongitudeDegrees>
            </Position>
            <AltitudeMeters>509.20001220703125</AltitudeMeters>
            <DistanceMeters>17291.122173811</DistanceMeters>
          </Trackpoint>
          <Trackpoint>
            <Time>2019-05-08T07:54:20.000Z</Time>
            <Position>
              <LatitudeDegrees>42.91906203143298625946044921875</LatitudeDegrees>
              <LongitudeDegrees>0.6409066356718540191650390625</LongitudeDegrees>
            </Position>
            <AltitudeMeters>509.79998779296875</AltitudeMeters>
            <DistanceMeters>17299.685130118</DistanceMeters>
          </Trackpoint>
          <Trackpoint>
            <Time>2019-05-08T07:54:22.000Z</Time>
            <Position>
              <LatitudeDegrees>42.91911148466169834136962890625</LatitudeDegrees>
              <LongitudeDegrees>0.640900097787380218505859375</LongitudeDegrees>
            </Position>
            <AltitudeMeters>510.20001220703125</AltitudeMeters>
            <DistanceMeters>17305.216305309</DistanceMeters>
          </Trackpoint>
          <Trackpoint>
            <Time>2019-05-08T07:54:27.000Z</Time>
            <Position>
              <LatitudeDegrees>42.91922983713448047637939453125</LatitudeDegrees>
              <LongitudeDegrees>0.64089213497936725616455078125</LongitudeDegrees>
            </Position>
            <AltitudeMeters>511.399993896484375</AltitudeMeters>
            <DistanceMeters>17318.40552032</DistanceMeters>
          </Trackpoint>
          <Trackpoint>
            <Time>2019-05-08T07:54:28.000Z</Time>
            <Position>
              <LatitudeDegrees>42.91925246827304363250732421875</LatitudeDegrees>
              <LongitudeDegrees>0.64088408835232257843017578125</LongitudeDegrees>
            </Position>
            <AltitudeMeters>511.79998779296875</AltitudeMeters>
            <DistanceMeters>17321.007934072</DistanceMeters>
          </Trackpoint>
          <Trackpoint>
            <Time>2019-05-08T07:54:33.000Z</Time>
            <Position>
              <LatitudeDegrees>42.919373922049999237060546875</LatitudeDegrees>
              <LongitudeDegrees>0.640871934592723846435546875</LongitudeDegrees>
            </Position>
            <AltitudeMeters>512.79998779296875</AltitudeMeters>
            <DistanceMeters>17334.56215501</DistanceMeters>
          </Trackpoint>
          <Trackpoint>
            <Time>2019-05-08T07:54:36.000Z</Time>
            <Position>
              <LatitudeDegrees>42.91945128701627254486083984375</LatitudeDegrees>
              <LongitudeDegrees>0.64087151549756526947021484375</LongitudeDegrees>
            </Position>
            <AltitudeMeters>513.4000244140625</AltitudeMeters>
            <DistanceMeters>17343.173484046</DistanceMeters>
          </Trackpoint>
          <Trackpoint>
            <Time>2019-05-08T07:54:39.000Z</Time>
            <Position>
              <LatitudeDegrees>42.91952588595449924468994140625</LatitudeDegrees>
              <LongitudeDegrees>0.64086330123245716094970703125</LongitudeDegrees>
            </Position>
            <AltitudeMeters>514</AltitudeMeters>
            <DistanceMeters>17351.503376446</DistanceMeters>
          </Trackpoint>
          <Trackpoint>
            <Time>2019-05-08T07:54:43.000Z</Time>
            <Position>
              <LatitudeDegrees>42.919627390801906585693359375</LatitudeDegrees>
              <LongitudeDegrees>0.6408695876598358154296875</LongitudeDegrees>
            </Position>
            <AltitudeMeters>514.79998779296875</AltitudeMeters>
            <DistanceMeters>17362.812753208</DistanceMeters>
          </Trackpoint>
          <Trackpoint>
            <Time>2019-05-08T07:54:51.000Z</Time>
            <Position>
              <LatitudeDegrees>42.91986174881458282470703125</LatitudeDegrees>
              <LongitudeDegrees>0.6409066356718540191650390625</LongitudeDegrees>
            </Position>
            <AltitudeMeters>516</AltitudeMeters>
            <DistanceMeters>17389.071438954</DistanceMeters>
          </Trackpoint>
          <Trackpoint>
            <Time>2019-05-08T07:54:54.000Z</Time>
            <Position>
              <LatitudeDegrees>42.9199591465294361114501953125</LatitudeDegrees>
              <LongitudeDegrees>0.64091895706951618194580078125</LongitudeDegrees>
            </Position>
            <AltitudeMeters>516.5999755859375</AltitudeMeters>
            <DistanceMeters>17399.958531468</DistanceMeters>
          </Trackpoint>
          <Trackpoint>
            <Time>2019-05-08T07:54:59.000Z</Time>
            <Position>
              <LatitudeDegrees>42.92013533413410186767578125</LatitudeDegrees>
              <LongitudeDegrees>0.64093488268554210662841796875</LongitudeDegrees>
            </Position>
            <AltitudeMeters>516.79998779296875</AltitudeMeters>
            <DistanceMeters>17419.611609083</DistanceMeters>
          </Trackpoint>
          <Trackpoint>
            <Time>2019-05-08T07:55:00.000Z</Time>
            <Position>
              <LatitudeDegrees>42.92017179541289806365966796875</LatitudeDegrees>
              <LongitudeDegrees>0.64093555323779582977294921875</LongitudeDegrees>
            </Position>
            <AltitudeMeters>516.79998779296875</AltitudeMeters>
            <DistanceMeters>17423.672264152</DistanceMeters>
          </Trackpoint>
          <Trackpoint>
            <Time>2019-05-08T07:55:04.000Z</Time>
            <Position>
              <LatitudeDegrees>42.9203237593173980712890625</LatitudeDegrees>
              <LongitudeDegrees>0.64093605615198612213134765625</LongitudeDegrees>
            </Position>
            <AltitudeMeters>516.79998779296875</AltitudeMeters>
            <DistanceMeters>17440.58595156</DistanceMeters>
          </Trackpoint>
          <Trackpoint>
            <Time>2019-05-08T07:55:09.000Z</Time>
            <Position>
              <LatitudeDegrees>42.9205317981541156768798828125</LatitudeDegrees>
              <LongitudeDegrees>0.64091158099472522735595703125</LongitudeDegrees>
            </Position>
            <AltitudeMeters>517</AltitudeMeters>
            <DistanceMeters>17463.826735163</DistanceMeters>
          </Trackpoint>
          <Trackpoint>
            <Time>2019-05-08T07:55:12.000Z</Time>
            <Position>
              <LatitudeDegrees>42.920663058757781982421875</LatitudeDegrees>
              <LongitudeDegrees>0.64089305698871612548828125</LongitudeDegrees>
            </Position>
            <AltitudeMeters>517</AltitudeMeters>
            <DistanceMeters>17478.514127586</DistanceMeters>
          </Trackpoint>
          <Trackpoint>
            <Time>2019-05-08T07:55:19.000Z</Time>
            <Position>
              <LatitudeDegrees>42.92097176425158977508544921875</LatitudeDegrees>
              <LongitudeDegrees>0.6408405862748622894287109375</LongitudeDegrees>
            </Position>
            <AltitudeMeters>517</AltitudeMeters>
            <DistanceMeters>17513.138816306</DistanceMeters>
          </Trackpoint>
          <Trackpoint>
            <Time>2019-05-08T07:55:21.000Z</Time>
            <Position>
              <LatitudeDegrees>42.9210586845874786376953125</LatitudeDegrees>
              <LongitudeDegrees>0.64082893542945384979248046875</LongitudeDegrees>
            </Position>
            <AltitudeMeters>516.79998779296875</AltitudeMeters>
            <DistanceMeters>17522.859914495</DistanceMeters>
          </Trackpoint>
          <Trackpoint>
            <Time>2019-05-08T07:55:23.000Z</Time>
            <Position>
              <LatitudeDegrees>42.921145521104335784912109375</LatitudeDegrees>
              <LongitudeDegrees>0.640814937651157379150390625</LongitudeDegrees>
            </Position>
            <AltitudeMeters>516.79998779296875</AltitudeMeters>
            <DistanceMeters>17532.592153282</DistanceMeters>
          </Trackpoint>
          <Trackpoint>
            <Time>2019-05-08T07:55:27.000Z</Time>
            <Position>
              <LatitudeDegrees>42.92131818830966949462890625</LatitudeDegrees>
              <LongitudeDegrees>0.64077529124915599822998046875</LongitudeDegrees>
            </Position>
            <AltitudeMeters>517</AltitudeMeters>
            <DistanceMeters>17552.080276719</DistanceMeters>
          </Trackpoint>
          <Trackpoint>
            <Time>2019-05-08T07:55:29.000Z</Time>
            <Position>
              <LatitudeDegrees>42.9214092157781124114990234375</LatitudeDegrees>
              <LongitudeDegrees>0.64075894653797149658203125</LongitudeDegrees>
            </Position>
            <AltitudeMeters>517</AltitudeMeters>
            <DistanceMeters>17562.299073321</DistanceMeters>
          </Trackpoint>
          <Trackpoint>
            <Time>2019-05-08T07:55:37.000Z</Time>
            <Position>
              <LatitudeDegrees>42.92179587297141551971435546875</LatitudeDegrees>
              <LongitudeDegrees>0.64069868065416812896728515625</LongitudeDegrees>
            </Position>
            <AltitudeMeters>517.20001220703125</AltitudeMeters>
            <DistanceMeters>17605.614163566</DistanceMeters>
          </Trackpoint>
          <Trackpoint>
            <Time>2019-05-08T07:55:39.000Z</Time>
            <Position>
              <LatitudeDegrees>42.92190131731331348419189453125</LatitudeDegrees>
              <LongitudeDegrees>0.64070270396769046783447265625</LongitudeDegrees>
            </Position>
            <AltitudeMeters>517.20001220703125</AltitudeMeters>
            <DistanceMeters>17617.355251548</DistanceMeters>
          </Trackpoint>
          <Trackpoint>
            <Time>2019-05-08T07:55:43.000Z</Time>
            <Position>
              <LatitudeDegrees>42.92212410829961299896240234375</LatitudeDegrees>
              <LongitudeDegrees>0.64075936563313007354736328125</LongitudeDegrees>
            </Position>
            <AltitudeMeters>517</AltitudeMeters>
            <DistanceMeters>17642.578714156</DistanceMeters>
          </Trackpoint>
          <Trackpoint>
            <Time>2019-05-08T07:55:44.000Z</Time>
            <Position>
              <LatitudeDegrees>42.92218663729727268218994140625</LatitudeDegrees>
              <LongitudeDegrees>0.64078484661877155303955078125</LongitudeDegrees>
            </Position>
            <AltitudeMeters>517</AltitudeMeters>
            <DistanceMeters>17649.841888846</DistanceMeters>
          </Trackpoint>
          <Trackpoint>
            <Time>2019-05-08T07:55:48.000Z</Time>
            <Position>
              <LatitudeDegrees>42.9224606417119503021240234375</LatitudeDegrees>
              <LongitudeDegrees>0.64090638421475887298583984375</LongitudeDegrees>
            </Position>
            <AltitudeMeters>516.4000244140625</AltitudeMeters>
            <DistanceMeters>17681.907456426</DistanceMeters>
          </Trackpoint>
          <Trackpoint>
            <Time>2019-05-08T07:55:50.000Z</Time>
            <Position>
              <LatitudeDegrees>42.9226031340658664703369140625</LatitudeDegrees>
              <LongitudeDegrees>0.641000680625438690185546875</LongitudeDegrees>
            </Position>
            <AltitudeMeters>516.20001220703125</AltitudeMeters>
            <DistanceMeters>17699.531261616</DistanceMeters>
          </Trackpoint>
          <Trackpoint>
            <Time>2019-05-08T07:55:53.000Z</Time>
            <Position>
              <LatitudeDegrees>42.92281310074031352996826171875</LatitudeDegrees>
              <LongitudeDegrees>0.6411751918494701385498046875</LongitudeDegrees>
            </Position>
            <AltitudeMeters>515</AltitudeMeters>
            <DistanceMeters>17726.889054947</DistanceMeters>
          </Trackpoint>
          <Trackpoint>
            <Time>2019-05-08T07:56:00.000Z</Time>
            <Position>
              <LatitudeDegrees>42.9232726804912090301513671875</LatitudeDegrees>
              <LongitudeDegrees>0.64161431975662708282470703125</LongitudeDegrees>
            </Position>
            <AltitudeMeters>512</AltitudeMeters>
            <DistanceMeters>17789.318785798</DistanceMeters>
          </Trackpoint>
          <Trackpoint>
            <Time>2019-05-08T07:56:01.000Z</Time>
            <Position>
              <LatitudeDegrees>42.92333546094596385955810546875</LatitudeDegrees>
              <LongitudeDegrees>0.6416764296591281890869140625</LongitudeDegrees>
            </Position>
            <AltitudeMeters>511.600006103515625</AltitudeMeters>
            <DistanceMeters>17797.94687656</DistanceMeters>
          </Trackpoint>
          <Trackpoint>
            <Time>2019-05-08T07:56:04.000Z</Time>
            <Position>
              <LatitudeDegrees>42.92352438904345035552978515625</LatitudeDegrees>
              <LongitudeDegrees>0.64185798168182373046875</LongitudeDegrees>
            </Position>
            <AltitudeMeters>510.399993896484375</AltitudeMeters>
            <DistanceMeters>17823.659286341</DistanceMeters>
          </Trackpoint>
          <Trackpoint>
            <Time>2019-05-08T07:56:08.000Z</Time>
            <Position>
              <LatitudeDegrees>42.9237809590995311737060546875</LatitudeDegrees>
              <LongitudeDegrees>0.64210197888314723968505859375</LongitudeDegrees>
            </Position>
            <AltitudeMeters>510</AltitudeMeters>
            <DistanceMeters>17858.458012055</DistanceMeters>
          </Trackpoint>
          <Trackpoint>
            <Time>2019-05-08T07:56:10.000Z</Time>
            <Position>
              <LatitudeDegrees>42.92391314171254634857177734375</LatitudeDegrees>
              <LongitudeDegrees>0.64222812652587890625</LongitudeDegrees>
            </Position>
            <AltitudeMeters>510</AltitudeMeters>
            <DistanceMeters>17876.406744802</DistanceMeters>
          </Trackpoint>
          <Trackpoint>
            <Time>2019-05-08T07:56:12.000Z</Time>
            <Position>
              <LatitudeDegrees>42.92404758743941783905029296875</LatitudeDegrees>
              <LongitudeDegrees>0.64235578291118144989013671875</LongitudeDegrees>
            </Position>
            <AltitudeMeters>509.20001220703125</AltitudeMeters>
            <DistanceMeters>17894.632065976</DistanceMeters>
          </Trackpoint>
          <Trackpoint>
            <Time>2019-05-08T07:56:16.000Z</Time>
            <Position>
              <LatitudeDegrees>42.9243123717606067657470703125</LatitudeDegrees>
              <LongitudeDegrees>0.64261243678629398345947265625</LongitudeDegrees>
            </Position>
            <AltitudeMeters>508.79998779296875</AltitudeMeters>
            <DistanceMeters>17930.771963551</DistanceMeters>
          </Trackpoint>
          <Trackpoint>
            <Time>2019-05-08T07:56:20.000Z</Time>
            <Position>
              <LatitudeDegrees>42.92457430623471736907958984375</LatitudeDegrees>
              <LongitudeDegrees>0.64286925829946994781494140625</LongitudeDegrees>
            </Position>
            <AltitudeMeters>507.79998779296875</AltitudeMeters>
            <DistanceMeters>17966.66137848</DistanceMeters>
          </Trackpoint>
          <Trackpoint>
            <Time>2019-05-08T07:56:21.000Z</Time>
            <Position>
              <LatitudeDegrees>42.92464119382202625274658203125</LatitudeDegrees>
              <LongitudeDegrees>0.64293421804904937744140625</LongitudeDegrees>
            </Position>
            <AltitudeMeters>507.600006103515625</AltitudeMeters>
            <DistanceMeters>17975.796802197</DistanceMeters>
          </Trackpoint>
          <Trackpoint>
            <Time>2019-05-08T07:56:23.000Z</Time>
            <Position>
              <LatitudeDegrees>42.92477631010115146636962890625</LatitudeDegrees>
              <LongitudeDegrees>0.64306573010981082916259765625</LongitudeDegrees>
            </Position>
            <AltitudeMeters>507.399993896484375</AltitudeMeters>
            <DistanceMeters>17994.264285164</DistanceMeters>
          </Trackpoint>
          <Trackpoint>
            <Time>2019-05-08T07:56:30.000Z</Time>
            <Position>
              <LatitudeDegrees>42.92524837888777256011962890625</LatitudeDegrees>
              <LongitudeDegrees>0.64351919107139110565185546875</LongitudeDegrees>
            </Position>
            <AltitudeMeters>506</AltitudeMeters>
            <DistanceMeters>18058.502273793</DistanceMeters>
          </Trackpoint>
          <Trackpoint>
            <Time>2019-05-08T07:56:31.000Z</Time>
            <Position>
              <LatitudeDegrees>42.925314344465732574462890625</LatitudeDegrees>
              <LongitudeDegrees>0.64358473755419254302978515625</LongitudeDegrees>
            </Position>
            <AltitudeMeters>505.600006103515625</AltitudeMeters>
            <DistanceMeters>18067.58167729</DistanceMeters>
          </Trackpoint>
          <Trackpoint>
            <Time>2019-05-08T07:56:33.000Z</Time>
            <Position>
              <LatitudeDegrees>42.92544719763100147247314453125</LatitudeDegrees>
              <LongitudeDegrees>0.64371868036687374114990234375</LongitudeDegrees>
            </Position>
            <AltitudeMeters>505.20001220703125</AltitudeMeters>
            <DistanceMeters>18085.961180267</DistanceMeters>
          </Trackpoint>
          <Trackpoint>
            <Time>2019-05-08T07:56:36.000Z</Time>
            <Position>
              <LatitudeDegrees>42.92565640993416309356689453125</LatitudeDegrees>
              <LongitudeDegrees>0.6439170800149440765380859375</LongitudeDegrees>
            </Position>
            <AltitudeMeters>504.79998779296875</AltitudeMeters>
            <DistanceMeters>18114.310215055</DistanceMeters>
          </Trackpoint>
          <Trackpoint>
            <Time>2019-05-08T07:56:38.000Z</Time>
            <Position>
              <LatitudeDegrees>42.9257952980697154998779296875</LatitudeDegrees>
              <LongitudeDegrees>0.64405010081827640533447265625</LongitudeDegrees>
            </Position>
            <AltitudeMeters>504.79998779296875</AltitudeMeters>
            <DistanceMeters>18133.191619082</DistanceMeters>
          </Trackpoint>
          <Trackpoint>
            <Time>2019-05-08T07:56:42.000Z</Time>
            <Position>
              <LatitudeDegrees>42.92606963776051998138427734375</LatitudeDegrees>
              <LongitudeDegrees>0.6443130411207675933837890625</LongitudeDegrees>
            </Position>
            <AltitudeMeters>504.20001220703125</AltitudeMeters>
            <DistanceMeters>18170.495384311</DistanceMeters>
          </Trackpoint>
          <Trackpoint>
            <Time>2019-05-08T07:56:45.000Z</Time>
            <Position>
              <LatitudeDegrees>42.926279604434967041015625</LatitudeDegrees>
              <LongitudeDegrees>0.64451529644429683685302734375</LongitudeDegrees>
            </Position>
            <AltitudeMeters>503</AltitudeMeters>
            <DistanceMeters>18199.093531516</DistanceMeters>
          </Trackpoint>
          <Trackpoint>
            <Time>2019-05-08T07:56:48.000Z</Time>
            <Position>
              <LatitudeDegrees>42.92649208568036556243896484375</LatitudeDegrees>
              <LongitudeDegrees>0.64471931196749210357666015625</LongitudeDegrees>
            </Position>
            <AltitudeMeters>502.600006103515625</AltitudeMeters>
            <DistanceMeters>18228.002900846</DistanceMeters>
          </Trackpoint>
          <Trackpoint>
            <Time>2019-05-08T07:56:50.000Z</Time>
            <Position>
              <LatitudeDegrees>42.9266331531107425689697265625</LatitudeDegrees>
              <LongitudeDegrees>0.6448555178940296173095703125</LongitudeDegrees>
            </Position>
            <AltitudeMeters>502</AltitudeMeters>
            <DistanceMeters>18247.231668619</DistanceMeters>
          </Trackpoint>
          <Trackpoint>
            <Time>2019-05-08T07:56:54.000Z</Time>
            <Position>
              <LatitudeDegrees>42.92690698988735675811767578125</LatitudeDegrees>
              <LongitudeDegrees>0.6451208889484405517578125</LongitudeDegrees>
            </Position>
            <AltitudeMeters>500.600006103515625</AltitudeMeters>
            <DistanceMeters>18284.603876522</DistanceMeters>
          </Trackpoint>
          <Trackpoint>
            <Time>2019-05-08T07:56:57.000Z</Time>
            <Position>
              <LatitudeDegrees>42.9271017014980316162109375</LatitudeDegrees>
              <LongitudeDegrees>0.645312331616878509521484375</LongitudeDegrees>
            </Position>
            <AltitudeMeters>499.79998779296875</AltitudeMeters>
            <DistanceMeters>18311.307904997</DistanceMeters>
          </Trackpoint>
          <Trackpoint>
            <Time>2019-05-08T07:56:59.000Z</Time>
            <Position>
              <LatitudeDegrees>42.9272272624075412750244140625</LatitudeDegrees>
              <LongitudeDegrees>0.64543009735643863677978515625</LongitudeDegrees>
            </Position>
            <AltitudeMeters>499.399993896484375</AltitudeMeters>
            <DistanceMeters>18328.261586993</DistanceMeters>
          </Trackpoint>
          <Trackpoint>
            <Time>2019-05-08T07:57:00.000Z</Time>
            <Position>
              <LatitudeDegrees>42.927288115024566650390625</LatitudeDegrees>
              <LongitudeDegrees>0.645489357411861419677734375</LongitudeDegrees>
            </Position>
            <AltitudeMeters>499.20001220703125</AltitudeMeters>
            <DistanceMeters>18336.580089009</DistanceMeters>
          </Trackpoint>
          <Trackpoint>
            <Time>2019-05-08T07:57:02.000Z</Time>
            <Position>
              <LatitudeDegrees>42.927408479154109954833984375</LatitudeDegrees>
              <LongitudeDegrees>0.645609386265277862548828125</LongitudeDegrees>
            </Position>
            <AltitudeMeters>499.20001220703125</AltitudeMeters>
            <DistanceMeters>18353.167627381</DistanceMeters>
          </Trackpoint>
          <Trackpoint>
            <Time>2019-05-08T07:57:04.000Z</Time>
            <Position>
              <LatitudeDegrees>42.92752775363624095916748046875</LatitudeDegrees>
              <LongitudeDegrees>0.6457339413464069366455078125</LongitudeDegrees>
            </Position>
            <AltitudeMeters>499</AltitudeMeters>
            <DistanceMeters>18369.879095724</DistanceMeters>
          </Trackpoint>
          <Trackpoint>
            <Time>2019-05-08T07:57:08.000Z</Time>
            <Position>
              <LatitudeDegrees>42.9277466051280498504638671875</LatitudeDegrees>
              <LongitudeDegrees>0.64599604345858097076416015625</LongitudeDegrees>
            </Position>
            <AltitudeMeters>498.79998779296875</AltitudeMeters>
            <DistanceMeters>18402.276795264</DistanceMeters>
          </Trackpoint>
          <Trackpoint>
            <Time>2019-05-08T07:57:11.000Z</Time>
            <Position>
              <LatitudeDegrees>42.927871830761432647705078125</LatitudeDegrees>
              <LongitudeDegrees>0.64621145837008953094482421875</LongitudeDegrees>
            </Position>
            <AltitudeMeters>498.20001220703125</AltitudeMeters>
            <DistanceMeters>18424.692426943</DistanceMeters>
          </Trackpoint>
          <Trackpoint>
            <Time>2019-05-08T07:57:12.000Z</Time>
            <Position>
              <LatitudeDegrees>42.92790728621184825897216796875</LatitudeDegrees>
              <LongitudeDegrees>0.64628689549863338470458984375</LongitudeDegrees>
            </Position>
            <AltitudeMeters>498.20001220703125</AltitudeMeters>
            <DistanceMeters>18431.998368488</DistanceMeters>
          </Trackpoint>
          <Trackpoint>
            <Time>2019-05-08T07:57:14.000Z</Time>
            <Position>
              <LatitudeDegrees>42.9279662109911441802978515625</LatitudeDegrees>
              <LongitudeDegrees>0.6464507617056369781494140625</LongitudeDegrees>
            </Position>
            <AltitudeMeters>498.20001220703125</AltitudeMeters>
            <DistanceMeters>18446.876651116</DistanceMeters>
          </Trackpoint>
          <Trackpoint>
            <Time>2019-05-08T07:57:15.000Z</Time>
            <Position>
              <LatitudeDegrees>42.92799395509064197540283203125</LatitudeDegrees>
              <LongitudeDegrees>0.64653600566089153289794921875</LongitudeDegrees>
            </Position>
            <AltitudeMeters>498.20001220703125</AltitudeMeters>
            <DistanceMeters>18454.479382159</DistanceMeters>
          </Trackpoint>
          <Trackpoint>
            <Time>2019-05-08T07:57:17.000Z</Time>
            <Position>
              <LatitudeDegrees>42.92803955264389514923095703125</LatitudeDegrees>
              <LongitudeDegrees>0.64671370200812816619873046875</LongitudeDegrees>
            </Position>
            <AltitudeMeters>498</AltitudeMeters>
            <DistanceMeters>18469.824357667</DistanceMeters>
          </Trackpoint>
          <Trackpoint>
            <Time>2019-05-08T07:57:18.000Z</Time>
            <Position>
              <LatitudeDegrees>42.92805564589798450469970703125</LatitudeDegrees>
              <LongitudeDegrees>0.64680791459977626800537109375</LongitudeDegrees>
            </Position>
            <AltitudeMeters>498</AltitudeMeters>
            <DistanceMeters>18477.70871219</DistanceMeters>
          </Trackpoint>
          <Trackpoint>
            <Time>2019-05-08T07:57:19.000Z</Time>
            <Position>
              <LatitudeDegrees>42.928072996437549591064453125</LatitudeDegrees>
              <LongitudeDegrees>0.64690430648624897003173828125</LongitudeDegrees>
            </Position>
            <AltitudeMeters>498</AltitudeMeters>
            <DistanceMeters>18485.798829251</DistanceMeters>
          </Trackpoint>
          <Trackpoint>
            <Time>2019-05-08T07:57:25.000Z</Time>
            <Position>
              <LatitudeDegrees>42.92814952321350574493408203125</LatitudeDegrees>
              <LongitudeDegrees>0.6475095637142658233642578125</LongitudeDegrees>
            </Position>
            <AltitudeMeters>497.20001220703125</AltitudeMeters>
            <DistanceMeters>18535.85500231</DistanceMeters>
          </Trackpoint>
          <Trackpoint>
            <Time>2019-05-08T07:57:26.000Z</Time>
            <Position>
              <LatitudeDegrees>42.9281566478312015533447265625</LatitudeDegrees>
              <LongitudeDegrees>0.647612996399402618408203125</LongitudeDegrees>
            </Position>
            <AltitudeMeters>496.79998779296875</AltitudeMeters>
            <DistanceMeters>18544.32145061</DistanceMeters>
          </Trackpoint>
          <Trackpoint>
            <Time>2019-05-08T07:57:29.000Z</Time>
            <Position>
              <LatitudeDegrees>42.92816662229597568511962890625</LatitudeDegrees>
              <LongitudeDegrees>0.6479243002831935882568359375</LongitudeDegrees>
            </Position>
            <AltitudeMeters>495.79998779296875</AltitudeMeters>
            <DistanceMeters>18569.715817686</DistanceMeters>
          </Trackpoint>
          <Trackpoint>
            <Time>2019-05-08T07:57:34.000Z</Time>
            <Position>
              <LatitudeDegrees>42.9281584918498992919921875</LatitudeDegrees>
              <LongitudeDegrees>0.64843006432056427001953125</LongitudeDegrees>
            </Position>
            <AltitudeMeters>495</AltitudeMeters>
            <DistanceMeters>18610.943615214</DistanceMeters>
          </Trackpoint>
          <Trackpoint>
            <Time>2019-05-08T07:57:39.000Z</Time>
            <Position>
              <LatitudeDegrees>42.92813678272068500518798828125</LatitudeDegrees>
              <LongitudeDegrees>0.6489234231412410736083984375</LongitudeDegrees>
            </Position>
            <AltitudeMeters>494.600006103515625</AltitudeMeters>
            <DistanceMeters>18651.222949923</DistanceMeters>
          </Trackpoint>
          <Trackpoint>
            <Time>2019-05-08T07:57:41.000Z</Time>
            <Position>
              <LatitudeDegrees>42.92812488041818141937255859375</LatitudeDegrees>
              <LongitudeDegrees>0.6491188891232013702392578125</LongitudeDegrees>
            </Position>
            <AltitudeMeters>494.600006103515625</AltitudeMeters>
            <DistanceMeters>18667.207505375</DistanceMeters>
          </Trackpoint>
          <Trackpoint>
            <Time>2019-05-08T07:57:44.000Z</Time>
            <Position>
              <LatitudeDegrees>42.92810610495507717132568359375</LatitudeDegrees>
              <LongitudeDegrees>0.6494052149355411529541015625</LongitudeDegrees>
            </Position>
            <AltitudeMeters>494.399993896484375</AltitudeMeters>
            <DistanceMeters>18690.635397009</DistanceMeters>
          </Trackpoint>
          <Trackpoint>
            <Time>2019-05-08T07:57:47.000Z</Time>
            <Position>
              <LatitudeDegrees>42.928070314228534698486328125</LatitudeDegrees>
              <LongitudeDegrees>0.649665892124176025390625</LongitudeDegrees>
            </Position>
            <AltitudeMeters>494.399993896484375</AltitudeMeters>
            <DistanceMeters>18712.249744903</DistanceMeters>
          </Trackpoint>
          <Trackpoint>
            <Time>2019-05-08T07:57:49.000Z</Time>
            <Position>
              <LatitudeDegrees>42.92803770862519741058349609375</LatitudeDegrees>
              <LongitudeDegrees>0.649832189083099365234375</LongitudeDegrees>
            </Position>
            <AltitudeMeters>494.399993896484375</AltitudeMeters>
            <DistanceMeters>18726.279949335</DistanceMeters>
          </Trackpoint>
          <Trackpoint>
            <Time>2019-05-08T07:57:52.000Z</Time>
            <Position>
              <LatitudeDegrees>42.9279947094619274139404296875</LatitudeDegrees>
              <LongitudeDegrees>0.6500700674951076507568359375</LongitudeDegrees>
            </Position>
            <AltitudeMeters>494.20001220703125</AltitudeMeters>
            <DistanceMeters>18746.248225562</DistanceMeters>
          </Trackpoint>
          <Trackpoint>
            <Time>2019-05-08T07:57:56.000Z</Time>
            <Position>
              <LatitudeDegrees>42.92793762870132923126220703125</LatitudeDegrees>
              <LongitudeDegrees>0.65035681240260601043701171875</LongitudeDegrees>
            </Position>
            <AltitudeMeters>494.20001220703125</AltitudeMeters>
            <DistanceMeters>18770.464940545</DistanceMeters>
          </Trackpoint>
          <Trackpoint>
            <Time>2019-05-08T07:57:57.000Z</Time>
            <Position>
              <LatitudeDegrees>42.9279316775500774383544921875</LatitudeDegrees>
              <LongitudeDegrees>0.6504234485328197479248046875</LongitudeDegrees>
            </Position>
            <AltitudeMeters>494.399993896484375</AltitudeMeters>
            <DistanceMeters>18775.937027303</DistanceMeters>
          </Trackpoint>
          <Trackpoint>
            <Time>2019-05-08T07:57:59.000Z</Time>
            <Position>
              <LatitudeDegrees>42.927948273718357086181640625</LatitudeDegrees>
              <LongitudeDegrees>0.650545321404933929443359375</LongitudeDegrees>
            </Position>
            <AltitudeMeters>494.399993896484375</AltitudeMeters>
            <DistanceMeters>18786.039399498</DistanceMeters>
          </Trackpoint>
          <Trackpoint>
            <Time>2019-05-08T07:58:00.000Z</Time>
            <Position>
              <LatitudeDegrees>42.9279705695807933807373046875</LatitudeDegrees>
              <LongitudeDegrees>0.65059888176620006561279296875</LongitudeDegrees>
            </Position>
            <AltitudeMeters>494.399993896484375</AltitudeMeters>
            <DistanceMeters>18791.060552098</DistanceMeters>
          </Trackpoint>
          <Trackpoint>
            <Time>2019-05-08T07:58:02.000Z</Time>
            <Position>
              <LatitudeDegrees>42.92802161537110805511474609375</LatitudeDegrees>
              <LongitudeDegrees>0.650702230632305145263671875</LongitudeDegrees>
            </Position>
            <AltitudeMeters>494.79998779296875</AltitudeMeters>
            <DistanceMeters>18801.219970081</DistanceMeters>
          </Trackpoint>
          <Trackpoint>
            <Time>2019-05-08T07:58:04.000Z</Time>
            <Position>
              <LatitudeDegrees>42.928085066378116607666015625</LatitudeDegrees>
              <LongitudeDegrees>0.650789737701416015625</LongitudeDegrees>
            </Position>
            <AltitudeMeters>494.79998779296875</AltitudeMeters>
            <DistanceMeters>18811.25687861</DistanceMeters>
          </Trackpoint>
          <Trackpoint>
            <Time>2019-05-08T07:58:05.000Z</Time>
            <Position>
              <LatitudeDegrees>42.928124964237213134765625</LatitudeDegrees>
              <LongitudeDegrees>0.6508257798850536346435546875</LongitudeDegrees>
            </Position>
            <AltitudeMeters>494.79998779296875</AltitudeMeters>
            <DistanceMeters>18816.581767344</DistanceMeters>
          </Trackpoint>
          <Trackpoint>
            <Time>2019-05-08T07:58:06.000Z</Time>
            <Position>
              <LatitudeDegrees>42.92816930450499057769775390625</LatitudeDegrees>
              <LongitudeDegrees>0.6508566252887248992919921875</LongitudeDegrees>
            </Position>
            <AltitudeMeters>495</AltitudeMeters>
            <DistanceMeters>18822.121099412</DistanceMeters>
          </Trackpoint>
          <Trackpoint>
            <Time>2019-05-08T07:58:08.000Z</Time>
            <Position>
              <LatitudeDegrees>42.92827173136174678802490234375</LatitudeDegrees>
              <LongitudeDegrees>0.65089099109172821044921875</LongitudeDegrees>
            </Position>
            <AltitudeMeters>495.399993896484375</AltitudeMeters>
            <DistanceMeters>18833.860649092</DistanceMeters>
          </Trackpoint>
          <Trackpoint>
            <Time>2019-05-08T07:58:09.000Z</Time>
            <Position>
              <LatitudeDegrees>42.92832805775105953216552734375</LatitudeDegrees>
              <LongitudeDegrees>0.6508958525955677032470703125</LongitudeDegrees>
            </Position>
            <AltitudeMeters>495.399993896484375</AltitudeMeters>
            <DistanceMeters>18840.14176396</DistanceMeters>
          </Trackpoint>
          <Trackpoint>
            <Time>2019-05-08T07:58:16.000Z</Time>
            <Position>
              <LatitudeDegrees>42.928756959736347198486328125</LatitudeDegrees>
              <LongitudeDegrees>0.65087548457086086273193359375</LongitudeDegrees>
            </Position>
            <AltitudeMeters>495.20001220703125</AltitudeMeters>
            <DistanceMeters>18887.90816863</DistanceMeters>
          </Trackpoint>
          <Trackpoint>
            <Time>2019-05-08T07:58:18.000Z</Time>
            <Position>
              <LatitudeDegrees>42.92889140546321868896484375</LatitudeDegrees>
              <LongitudeDegrees>0.65084916539490222930908203125</LongitudeDegrees>
            </Position>
            <AltitudeMeters>495.20001220703125</AltitudeMeters>
            <DistanceMeters>18903.024885022</DistanceMeters>
          </Trackpoint>
          <Trackpoint>
            <Time>2019-05-08T07:58:23.000Z</Time>
            <Position>
              <LatitudeDegrees>42.92923271656036376953125</LatitudeDegrees>
              <LongitudeDegrees>0.6507446430623531341552734375</LongitudeDegrees>
            </Position>
            <AltitudeMeters>494.600006103515625</AltitudeMeters>
            <DistanceMeters>18941.956739602</DistanceMeters>
          </Trackpoint>
          <Trackpoint>
            <Time>2019-05-08T07:58:31.000Z</Time>
            <Position>
              <LatitudeDegrees>42.92974979616701602935791015625</LatitudeDegrees>
              <LongitudeDegrees>0.650523193180561065673828125</LongitudeDegrees>
            </Position>
            <AltitudeMeters>493.399993896484375</AltitudeMeters>
            <DistanceMeters>19002.271985078</DistanceMeters>
          </Trackpoint>
          <Trackpoint>
            <Time>2019-05-08T07:58:32.000Z</Time>
            <Position>
              <LatitudeDegrees>42.9298065416514873504638671875</LatitudeDegrees>
              <LongitudeDegrees>0.65048488788306713104248046875</LongitudeDegrees>
            </Position>
            <AltitudeMeters>493.399993896484375</AltitudeMeters>
            <DistanceMeters>19009.31743256</DistanceMeters>
          </Trackpoint>
          <Trackpoint>
            <Time>2019-05-08T07:58:34.000Z</Time>
            <Position>
              <LatitudeDegrees>42.92991064488887786865234375</LatitudeDegrees>
              <LongitudeDegrees>0.65039813518524169921875</LongitudeDegrees>
            </Position>
            <AltitudeMeters>493.399993896484375</AltitudeMeters>
            <DistanceMeters>19022.891292724</DistanceMeters>
          </Trackpoint>
          <Trackpoint>
            <Time>2019-05-08T07:58:37.000Z</Time>
            <Position>
              <LatitudeDegrees>42.93004852719604969024658203125</LatitudeDegrees>
              <LongitudeDegrees>0.65024415962398052215576171875</LongitudeDegrees>
            </Position>
            <AltitudeMeters>493.399993896484375</AltitudeMeters>
            <DistanceMeters>19042.714785522</DistanceMeters>
          </Trackpoint>
          <Trackpoint>
            <Time>2019-05-08T07:58:38.000Z</Time>
            <Position>
              <LatitudeDegrees>42.93009965680539608001708984375</LatitudeDegrees>
              <LongitudeDegrees>0.65020166337490081787109375</LongitudeDegrees>
            </Position>
            <AltitudeMeters>493.399993896484375</AltitudeMeters>
            <DistanceMeters>19049.376151421</DistanceMeters>
          </Trackpoint>
          <Trackpoint>
            <Time>2019-05-08T07:58:40.000Z</Time>
            <Position>
              <LatitudeDegrees>42.93020359240472316741943359375</LatitudeDegrees>
              <LongitudeDegrees>0.65017978660762310028076171875</LongitudeDegrees>
            </Position>
            <AltitudeMeters>493.600006103515625</AltitudeMeters>
            <DistanceMeters>19061.081035863</DistanceMeters>
          </Trackpoint>
          <Trackpoint>
            <Time>2019-05-08T07:58:42.000Z</Time>
            <Position>
              <LatitudeDegrees>42.93027232401072978973388671875</LatitudeDegrees>
              <LongitudeDegrees>0.650267042219638824462890625</LongitudeDegrees>
            </Position>
            <AltitudeMeters>493.399993896484375</AltitudeMeters>
            <DistanceMeters>19071.525332079</DistanceMeters>
          </Trackpoint>
          <Trackpoint>
            <Time>2019-05-08T07:58:43.000Z</Time>
            <Position>
              <LatitudeDegrees>42.9302906803786754608154296875</LatitudeDegrees>
              <LongitudeDegrees>0.65032496117055416107177734375</LongitudeDegrees>
            </Position>
            <AltitudeMeters>493.600006103515625</AltitudeMeters>
            <DistanceMeters>19076.668200336</DistanceMeters>
          </Trackpoint>
          <Trackpoint>
            <Time>2019-05-08T07:58:45.000Z</Time>
            <Position>
              <LatitudeDegrees>42.93032638728618621826171875</LatitudeDegrees>
              <LongitudeDegrees>0.65041917376220226287841796875</LongitudeDegrees>
            </Position>
            <AltitudeMeters>493.399993896484375</AltitudeMeters>
            <DistanceMeters>19085.313542592</DistanceMeters>
          </Trackpoint>
          <Trackpoint>
            <Time>2019-05-08T07:58:47.000Z</Time>
            <Position>
              <LatitudeDegrees>42.930378019809722900390625</LatitudeDegrees>
              <LongitudeDegrees>0.65048488788306713104248046875</LongitudeDegrees>
            </Position>
            <AltitudeMeters>493.399993896484375</AltitudeMeters>
            <DistanceMeters>19093.169212036</DistanceMeters>
          </Trackpoint>
          <Trackpoint>
            <Time>2019-05-08T07:58:48.000Z</Time>
            <Position>
              <LatitudeDegrees>42.93041733093559741973876953125</LatitudeDegrees>
              <LongitudeDegrees>0.6505116261541843414306640625</LongitudeDegrees>
            </Position>
            <AltitudeMeters>493.600006103515625</AltitudeMeters>
            <DistanceMeters>19098.057318241</DistanceMeters>
          </Trackpoint>
          <Trackpoint>
            <Time>2019-05-08T07:58:49.000Z</Time>
            <Position>
              <LatitudeDegrees>42.93046041391789913177490234375</LatitudeDegrees>
              <LongitudeDegrees>0.6505253724753856658935546875</LongitudeDegrees>
            </Position>
            <AltitudeMeters>493.600006103515625</AltitudeMeters>
            <DistanceMeters>19102.981316134</DistanceMeters>
          </Trackpoint>
          <Trackpoint>
            <Time>2019-05-08T07:58:51.000Z</Time>
            <Position>
              <LatitudeDegrees>42.930556721985340118408203125</LatitudeDegrees>
              <LongitudeDegrees>0.65051372162997722625732421875</LongitudeDegrees>
            </Position>
            <AltitudeMeters>493.600006103515625</AltitudeMeters>
            <DistanceMeters>19113.742435979</DistanceMeters>
          </Trackpoint>
          <Trackpoint>
            <Time>2019-05-08T07:58:53.000Z</Time>
            <Position>
              <LatitudeDegrees>42.93065973557531833648681640625</LatitudeDegrees>
              <LongitudeDegrees>0.65047030337154865264892578125</LongitudeDegrees>
            </Position>
            <AltitudeMeters>493.600006103515625</AltitudeMeters>
            <DistanceMeters>19125.74141672</DistanceMeters>
          </Trackpoint>
          <Trackpoint>
            <Time>2019-05-08T07:58:54.000Z</Time>
            <Position>
              <LatitudeDegrees>42.93071287684142589569091796875</LatitudeDegrees>
              <LongitudeDegrees>0.65044281072914600372314453125</LongitudeDegrees>
            </Position>
            <AltitudeMeters>493.600006103515625</AltitudeMeters>
            <DistanceMeters>19132.066228073</DistanceMeters>
          </Trackpoint>
          <Trackpoint>
            <Time>2019-05-08T07:58:56.000Z</Time>
            <Position>
              <LatitudeDegrees>42.93082527816295623779296875</LatitudeDegrees>
              <LongitudeDegrees>0.65039603970944881439208984375</LongitudeDegrees>
            </Position>
            <AltitudeMeters>493.600006103515625</AltitudeMeters>
            <DistanceMeters>19145.144748937</DistanceMeters>
          </Trackpoint>
          <Trackpoint>
            <Time>2019-05-08T07:59:04.000Z</Time>
            <Position>
              <LatitudeDegrees>42.9313099198043346405029296875</LatitudeDegrees>
              <LongitudeDegrees>0.65020166337490081787109375</LongitudeDegrees>
            </Position>
            <AltitudeMeters>493.399993896484375</AltitudeMeters>
            <DistanceMeters>19201.364034117</DistanceMeters>
          </Trackpoint>
          <Trackpoint>
            <Time>2019-05-08T07:59:13.000Z</Time>
            <Position>
              <LatitudeDegrees>42.93187494389712810516357421875</LatitudeDegrees>
              <LongitudeDegrees>0.64997233450412750244140625</LongitudeDegrees>
            </Position>
            <AltitudeMeters>493.399993896484375</AltitudeMeters>
            <DistanceMeters>19266.970329067</DistanceMeters>
          </Trackpoint>
          <Trackpoint>
            <Time>2019-05-08T07:59:14.000Z</Time>
            <Position>
              <LatitudeDegrees>42.93193646706640720367431640625</LatitudeDegrees>
              <LongitudeDegrees>0.64994576387107372283935546875</LongitudeDegrees>
            </Position>
            <AltitudeMeters>493.20001220703125</AltitudeMeters>
            <DistanceMeters>19274.152236658</DistanceMeters>
          </Trackpoint>
          <Trackpoint>
            <Time>2019-05-08T07:59:23.000Z</Time>
            <Position>
              <LatitudeDegrees>42.93250693939626216888427734375</LatitudeDegrees>
              <LongitudeDegrees>0.64971609972417354583740234375</LongitudeDegrees>
            </Position>
            <AltitudeMeters>492.79998779296875</AltitudeMeters>
            <DistanceMeters>19340.347807692</DistanceMeters>
          </Trackpoint>
          <Trackpoint>
            <Time>2019-05-08T07:59:24.000Z</Time>
            <Position>
              <LatitudeDegrees>42.93257248587906360626220703125</LatitudeDegrees>
              <LongitudeDegrees>0.64968936145305633544921875</LongitudeDegrees>
            </Position>
            <AltitudeMeters>492.79998779296875</AltitudeMeters>
            <DistanceMeters>19347.961813915</DistanceMeters>
          </Trackpoint>
          <Trackpoint>
            <Time>2019-05-08T07:59:29.000Z</Time>
            <Position>
              <LatitudeDegrees>42.9329008050262928009033203125</LatitudeDegrees>
              <LongitudeDegrees>0.64955466426908969879150390625</LongitudeDegrees>
            </Position>
            <AltitudeMeters>492.79998779296875</AltitudeMeters>
            <DistanceMeters>19386.117140205</DistanceMeters>
          </Trackpoint>
          <Trackpoint>
            <Time>2019-05-08T07:59:30.000Z</Time>
            <Position>
              <LatitudeDegrees>42.932964675128459930419921875</LatitudeDegrees>
              <LongitudeDegrees>0.64952666871249675750732421875</LongitudeDegrees>
            </Position>
            <AltitudeMeters>492.399993896484375</AltitudeMeters>
            <DistanceMeters>19393.582636292</DistanceMeters>
          </Trackpoint>
          <Trackpoint>
            <Time>2019-05-08T07:59:35.000Z</Time>
            <Position>
              <LatitudeDegrees>42.93327455408871173858642578125</LatitudeDegrees>
              <LongitudeDegrees>0.64938233233988285064697265625</LongitudeDegrees>
            </Position>
            <AltitudeMeters>492.399993896484375</AltitudeMeters>
            <DistanceMeters>19430.023120116</DistanceMeters>
          </Trackpoint>
          <Trackpoint>
            <Time>2019-05-08T07:59:43.000Z</Time>
            <Position>
              <LatitudeDegrees>42.93375064618885517120361328125</LatitudeDegrees>
              <LongitudeDegrees>0.6491366587579250335693359375</LongitudeDegrees>
            </Position>
            <AltitudeMeters>492.399993896484375</AltitudeMeters>
            <DistanceMeters>19486.668766935</DistanceMeters>
          </Trackpoint>
          <Trackpoint>
            <Time>2019-05-08T07:59:52.000Z</Time>
            <Position>
              <LatitudeDegrees>42.93427417986094951629638671875</LatitudeDegrees>
              <LongitudeDegrees>0.64880280755460262298583984375</LongitudeDegrees>
            </Position>
            <AltitudeMeters>492.79998779296875</AltitudeMeters>
            <DistanceMeters>19550.976933052</DistanceMeters>
          </Trackpoint>
          <Trackpoint>
            <Time>2019-05-08T07:59:54.000Z</Time>
            <Position>
              <LatitudeDegrees>42.93438498862087726593017578125</LatitudeDegrees>
              <LongitudeDegrees>0.6487212516367435455322265625</LongitudeDegrees>
            </Position>
            <AltitudeMeters>492.79998779296875</AltitudeMeters>
            <DistanceMeters>19564.986204319</DistanceMeters>
          </Trackpoint>
          <Trackpoint>
            <Time>2019-05-08T07:59:59.000Z</Time>
            <Position>
              <LatitudeDegrees>42.934648431837558746337890625</LatitudeDegrees>
              <LongitudeDegrees>0.64851991832256317138671875</LongitudeDegrees>
            </Position>
            <AltitudeMeters>492.79998779296875</AltitudeMeters>
            <DistanceMeters>19598.58564028</DistanceMeters>
          </Trackpoint>
          <Trackpoint>
            <Time>2019-05-08T08:00:06.000Z</Time>
            <Position>
              <LatitudeDegrees>42.9350140504539012908935546875</LatitudeDegrees>
              <LongitudeDegrees>0.6482173316180706024169921875</LongitudeDegrees>
            </Position>
            <AltitudeMeters>493.20001220703125</AltitudeMeters>
            <DistanceMeters>19646.166893055</DistanceMeters>
          </Trackpoint>
          <Trackpoint>
            <Time>2019-05-08T08:00:14.000Z</Time>
            <Position>
              <LatitudeDegrees>42.93542350642383098602294921875</LatitudeDegrees>
              <LongitudeDegrees>0.64784425310790538787841796875</LongitudeDegrees>
            </Position>
            <AltitudeMeters>493.20001220703125</AltitudeMeters>
            <DistanceMeters>19700.949608451</DistanceMeters>
          </Trackpoint>
          <Trackpoint>
            <Time>2019-05-08T08:00:22.000Z</Time>
            <Position>
              <LatitudeDegrees>42.93579868040978908538818359375</LatitudeDegrees>
              <LongitudeDegrees>0.64744544215500354766845703125</LongitudeDegrees>
            </Position>
            <AltitudeMeters>493.20001220703125</AltitudeMeters>
            <DistanceMeters>19753.862681142</DistanceMeters>
          </Trackpoint>
          <Trackpoint>
            <Time>2019-05-08T08:00:23.000Z</Time>
            <Position>
              <LatitudeDegrees>42.93584494851529598236083984375</LatitudeDegrees>
              <LongitudeDegrees>0.6473985873162746429443359375</LongitudeDegrees>
            </Position>
            <AltitudeMeters>493</AltitudeMeters>
            <DistanceMeters>19760.272583467</DistanceMeters>
          </Trackpoint>
          <Trackpoint>
            <Time>2019-05-08T08:00:28.000Z</Time>
            <Position>
              <LatitudeDegrees>42.936083413660526275634765625</LatitudeDegrees>
              <LongitudeDegrees>0.64715777523815631866455078125</LongitudeDegrees>
            </Position>
            <AltitudeMeters>493.20001220703125</AltitudeMeters>
            <DistanceMeters>19793.280246414</DistanceMeters>
          </Trackpoint>
          <Trackpoint>
            <Time>2019-05-08T08:00:31.000Z</Time>
            <Position>
              <LatitudeDegrees>42.936229594051837921142578125</LatitudeDegrees>
              <LongitudeDegrees>0.6470024585723876953125</LongitudeDegrees>
            </Position>
            <AltitudeMeters>493.20001220703125</AltitudeMeters>
            <DistanceMeters>19813.892940485</DistanceMeters>
          </Trackpoint>
          <Trackpoint>
            <Time>2019-05-08T08:00:33.000Z</Time>
            <Position>
              <LatitudeDegrees>42.93632707558572292327880859375</LatitudeDegrees>
              <LongitudeDegrees>0.646903216838836669921875</LongitudeDegrees>
            </Position>
            <AltitudeMeters>493.20001220703125</AltitudeMeters>
            <DistanceMeters>19827.424824689</DistanceMeters>
          </Trackpoint>
          <Trackpoint>
            <Time>2019-05-08T08:00:38.000Z</Time>
            <Position>
              <LatitudeDegrees>42.93655975721776485443115234375</LatitudeDegrees>
              <LongitudeDegrees>0.64666860736906528472900390625</LongitudeDegrees>
            </Position>
            <AltitudeMeters>493.399993896484375</AltitudeMeters>
            <DistanceMeters>19859.614343972</DistanceMeters>
          </Trackpoint>
          <Trackpoint>
            <Time>2019-05-08T08:00:39.000Z</Time>
            <Position>
              <LatitudeDegrees>42.93660753406584262847900390625</LatitudeDegrees>
              <LongitudeDegrees>0.64662015996873378753662109375</LongitudeDegrees>
            </Position>
            <AltitudeMeters>493.399993896484375</AltitudeMeters>
            <DistanceMeters>19866.237644612</DistanceMeters>
          </Trackpoint>
          <Trackpoint>
            <Time>2019-05-08T08:00:48.000Z</Time>
            <Position>
              <LatitudeDegrees>42.93705378659069538116455078125</LatitudeDegrees>
              <LongitudeDegrees>0.6461731530725955963134765625</LongitudeDegrees>
            </Position>
            <AltitudeMeters>493.600006103515625</AltitudeMeters>
            <DistanceMeters>19927.830791273</DistanceMeters>
          </Trackpoint>
          <Trackpoint>
            <Time>2019-05-08T08:00:50.000Z</Time>
            <Position>
              <LatitudeDegrees>42.937152273952960968017578125</LatitudeDegrees>
              <LongitudeDegrees>0.6460730731487274169921875</LongitudeDegrees>
            </Position>
            <AltitudeMeters>493.600006103515625</AltitudeMeters>
            <DistanceMeters>19941.493504775</DistanceMeters>
          </Trackpoint>
          <Trackpoint>
            <Time>2019-05-08T08:00:53.000Z</Time>
            <Position>
              <LatitudeDegrees>42.9373033158481121063232421875</LatitudeDegrees>
              <LongitudeDegrees>0.6459216959774494171142578125</LongitudeDegrees>
            </Position>
            <AltitudeMeters>493.600006103515625</AltitudeMeters>
            <DistanceMeters>19962.344453446</DistanceMeters>
          </Trackpoint>
          <Trackpoint>
            <Time>2019-05-08T08:00:56.000Z</Time>
            <Position>
              <LatitudeDegrees>42.93747313320636749267578125</LatitudeDegrees>
              <LongitudeDegrees>0.6458134017884731292724609375</LongitudeDegrees>
            </Position>
            <AltitudeMeters>493.79998779296875</AltitudeMeters>
            <DistanceMeters>19983.203628966</DistanceMeters>
          </Trackpoint>
          <Trackpoint>
            <Time>2019-05-08T08:01:01.000Z</Time>
            <Position>
              <LatitudeDegrees>42.9377411864697933197021484375</LatitudeDegrees>
              <LongitudeDegrees>0.64561081118881702423095703125</LongitudeDegrees>
            </Position>
            <AltitudeMeters>493.600006103515625</AltitudeMeters>
            <DistanceMeters>20017.300877274</DistanceMeters>
          </Trackpoint>
          <Trackpoint>
            <Time>2019-05-08T08:01:03.000Z</Time>
            <Position>
              <LatitudeDegrees>42.93784989975392818450927734375</LatitudeDegrees>
              <LongitudeDegrees>0.645550377666950225830078125</LongitudeDegrees>
            </Position>
            <AltitudeMeters>493.600006103515625</AltitudeMeters>
            <DistanceMeters>20030.364199387</DistanceMeters>
          </Trackpoint>
          <Trackpoint>
            <Time>2019-05-08T08:01:04.000Z</Time>
            <Position>
              <LatitudeDegrees>42.9379031248390674591064453125</LatitudeDegrees>
              <LongitudeDegrees>0.645523555576801300048828125</LongitudeDegrees>
            </Position>
            <AltitudeMeters>493.600006103515625</AltitudeMeters>
            <DistanceMeters>20036.679008773</DistanceMeters>
          </Trackpoint>
          <Trackpoint>
            <Time>2019-05-08T08:01:06.000Z</Time>
            <Position>
              <LatitudeDegrees>42.9380080662667751312255859375</LatitudeDegrees>
              <LongitudeDegrees>0.64548005349934101104736328125</LongitudeDegrees>
            </Position>
            <AltitudeMeters>493.399993896484375</AltitudeMeters>
            <DistanceMeters>20048.885411246</DistanceMeters>
          </Trackpoint>
          <Trackpoint>
            <Time>2019-05-08T08:01:08.000Z</Time>
            <Position>
              <LatitudeDegrees>42.938112504780292510986328125</LatitudeDegrees>
              <LongitudeDegrees>0.64545641653239727020263671875</LongitudeDegrees>
            </Position>
            <AltitudeMeters>493.399993896484375</AltitudeMeters>
            <DistanceMeters>20060.667957458</DistanceMeters>
          </Trackpoint>
          <Trackpoint>
            <Time>2019-05-08T08:01:10.000Z</Time>
            <Position>
              <LatitudeDegrees>42.93821535073220729827880859375</LatitudeDegrees>
              <LongitudeDegrees>0.64545390196144580841064453125</LongitudeDegrees>
            </Position>
            <AltitudeMeters>493.399993896484375</AltitudeMeters>
            <DistanceMeters>20072.116606269</DistanceMeters>
          </Trackpoint>
          <Trackpoint>
            <Time>2019-05-08T08:01:11.000Z</Time>
            <Position>
              <LatitudeDegrees>42.938263379037380218505859375</LatitudeDegrees>
              <LongitudeDegrees>0.6454697437584400177001953125</LongitudeDegrees>
            </Position>
            <AltitudeMeters>493.399993896484375</AltitudeMeters>
            <DistanceMeters>20077.615032947</DistanceMeters>
          </Trackpoint>
          <Trackpoint>
            <Time>2019-05-08T08:01:13.000Z</Time>
            <Position>
              <LatitudeDegrees>42.93832741677761077880859375</LatitudeDegrees>
              <LongitudeDegrees>0.645562447607517242431640625</LongitudeDegrees>
            </Position>
            <AltitudeMeters>493.20001220703125</AltitudeMeters>
            <DistanceMeters>20088.001239819</DistanceMeters>
          </Trackpoint>
          <Trackpoint>
            <Time>2019-05-08T08:01:14.000Z</Time>
            <Position>
              <LatitudeDegrees>42.93834443204104900360107421875</LatitudeDegrees>
              <LongitudeDegrees>0.64562388695776462554931640625</LongitudeDegrees>
            </Position>
            <AltitudeMeters>493.20001220703125</AltitudeMeters>
            <DistanceMeters>20093.354036523</DistanceMeters>
          </Trackpoint>
          <Trackpoint>
            <Time>2019-05-08T08:01:17.000Z</Time>
            <Position>
              <LatitudeDegrees>42.93837997131049633026123046875</LatitudeDegrees>
              <LongitudeDegrees>0.6458254717290401458740234375</LongitudeDegrees>
            </Position>
            <AltitudeMeters>493</AltitudeMeters>
            <DistanceMeters>20110.24902739</DistanceMeters>
          </Trackpoint>
          <Trackpoint>
            <Time>2019-05-08T08:01:19.000Z</Time>
            <Position>
              <LatitudeDegrees>42.93840251863002777099609375</LatitudeDegrees>
              <LongitudeDegrees>0.64596402458846569061279296875</LongitudeDegrees>
            </Position>
            <AltitudeMeters>493.20001220703125</AltitudeMeters>
            <DistanceMeters>20121.81421188</DistanceMeters>
          </Trackpoint>
          <Trackpoint>
            <Time>2019-05-08T08:01:23.000Z</Time>
            <Position>
              <LatitudeDegrees>42.93843428604304790496826171875</LatitudeDegrees>
              <LongitudeDegrees>0.64617642201483249664306640625</LongitudeDegrees>
            </Position>
            <AltitudeMeters>493</AltitudeMeters>
            <DistanceMeters>20139.478448672</DistanceMeters>
          </Trackpoint>
          <Trackpoint>
            <Time>2019-05-08T08:01:25.000Z</Time>
            <Position>
              <LatitudeDegrees>42.9384385608136653900146484375</LatitudeDegrees>
              <LongitudeDegrees>0.646184384822845458984375</LongitudeDegrees>
            </Position>
            <AltitudeMeters>492.79998779296875</AltitudeMeters>
            <DistanceMeters>20140.284777082</DistanceMeters>
          </Trackpoint>
          <Trackpoint>
            <Time>2019-05-08T08:01:30.000Z</Time>
            <Position>
              <LatitudeDegrees>42.93846898712217807769775390625</LatitudeDegrees>
              <LongitudeDegrees>0.64618497155606746673583984375</LongitudeDegrees>
            </Position>
            <AltitudeMeters>493</AltitudeMeters>
            <DistanceMeters>20143.671249743</DistanceMeters>
          </Trackpoint>
          <Trackpoint>
            <Time>2019-05-08T08:01:31.000Z</Time>
            <Position>
              <LatitudeDegrees>42.9384932108223438262939453125</LatitudeDegrees>
              <LongitudeDegrees>0.6461946107447147369384765625</LongitudeDegrees>
            </Position>
            <AltitudeMeters>493.20001220703125</AltitudeMeters>
            <DistanceMeters>20146.478963535</DistanceMeters>
          </Trackpoint>
          <Trackpoint>
            <Time>2019-05-08T08:01:32.000Z</Time>
            <Position>
              <LatitudeDegrees>42.9385150037705898284912109375</LatitudeDegrees>
              <LongitudeDegrees>0.6462205946445465087890625</LongitudeDegrees>
            </Position>
            <AltitudeMeters>493.20001220703125</AltitudeMeters>
            <DistanceMeters>20149.698672801</DistanceMeters>
          </Trackpoint>
          <Trackpoint>
            <Time>2019-05-08T08:01:34.000Z</Time>
            <Position>
              <LatitudeDegrees>42.93852564878761768341064453125</LatitudeDegrees>
              <LongitudeDegrees>0.64630315639078617095947265625</LongitudeDegrees>
            </Position>
            <AltitudeMeters>493.399993896484375</AltitudeMeters>
            <DistanceMeters>20156.530029552</DistanceMeters>
          </Trackpoint>
          <Trackpoint>
            <Time>2019-05-08T08:01:37.000Z</Time>
            <Position>
              <LatitudeDegrees>42.9385485313832759857177734375</LatitudeDegrees>
              <LongitudeDegrees>0.64644933678209781646728515625</LongitudeDegrees>
            </Position>
            <AltitudeMeters>493.20001220703125</AltitudeMeters>
            <DistanceMeters>20168.710141452</DistanceMeters>
          </Trackpoint>
          <Trackpoint>
            <Time>2019-05-08T08:01:40.000Z</Time>
            <Position>
              <LatitudeDegrees>42.9385753534734249114990234375</LatitudeDegrees>
              <LongitudeDegrees>0.646618567407131195068359375</LongitudeDegrees>
            </Position>
            <AltitudeMeters>493.399993896484375</AltitudeMeters>
            <DistanceMeters>20182.818968658</DistanceMeters>
          </Trackpoint>
          <Trackpoint>
            <Time>2019-05-08T08:01:47.000Z</Time>
            <Position>
              <LatitudeDegrees>42.9386363737285137176513671875</LatitudeDegrees>
              <LongitudeDegrees>0.64703724347054958343505859375</LongitudeDegrees>
            </Position>
            <AltitudeMeters>493</AltitudeMeters>
            <DistanceMeters>20217.603159646</DistanceMeters>
          </Trackpoint>
          <Trackpoint>
            <Time>2019-05-08T08:01:56.000Z</Time>
            <Position>
              <LatitudeDegrees>42.93872446753084659576416015625</LatitudeDegrees>
              <LongitudeDegrees>0.64758374355733394622802734375</LongitudeDegrees>
            </Position>
            <AltitudeMeters>493.20001220703125</AltitudeMeters>
            <DistanceMeters>20263.199943966</DistanceMeters>
          </Trackpoint>
          <Trackpoint>
            <Time>2019-05-08T08:02:03.000Z</Time>
            <Position>
              <LatitudeDegrees>42.93880241923034191131591796875</LatitudeDegrees>
              <LongitudeDegrees>0.64800334163010120391845703125</LongitudeDegrees>
            </Position>
            <AltitudeMeters>493.399993896484375</AltitudeMeters>
            <DistanceMeters>20298.47342002</DistanceMeters>
          </Trackpoint>
          <Trackpoint>
            <Time>2019-05-08T08:02:04.000Z</Time>
            <Position>
              <LatitudeDegrees>42.9388336837291717529296875</LatitudeDegrees>
              <LongitudeDegrees>0.64803712069988250732421875</LongitudeDegrees>
            </Position>
            <AltitudeMeters>493.600006103515625</AltitudeMeters>
            <DistanceMeters>20302.910261988</DistanceMeters>
          </Trackpoint>
          <Trackpoint>
            <Time>2019-05-08T08:02:05.000Z</Time>
            <Position>
              <LatitudeDegrees>42.93887852691113948822021484375</LatitudeDegrees>
              <LongitudeDegrees>0.6480527110397815704345703125</LongitudeDegrees>
            </Position>
            <AltitudeMeters>493.399993896484375</AltitudeMeters>
            <DistanceMeters>20308.059272032</DistanceMeters>
          </Trackpoint>
          <Trackpoint>
            <Time>2019-05-08T08:02:08.000Z</Time>
            <Position>
              <LatitudeDegrees>42.9390430636703968048095703125</LatitudeDegrees>
              <LongitudeDegrees>0.64808296971023082733154296875</LongitudeDegrees>
            </Position>
            <AltitudeMeters>493.399993896484375</AltitudeMeters>
            <DistanceMeters>20326.537509245</DistanceMeters>
          </Trackpoint>
          <Trackpoint>
            <Time>2019-05-08T08:02:10.000Z</Time>
            <Position>
              <LatitudeDegrees>42.939163930714130401611328125</LatitudeDegrees>
              <LongitudeDegrees>0.6480912677943706512451171875</LongitudeDegrees>
            </Position>
            <AltitudeMeters>493.399993896484375</AltitudeMeters>
            <DistanceMeters>20340.006854658</DistanceMeters>
          </Trackpoint>
          <Trackpoint>
            <Time>2019-05-08T08:02:12.000Z</Time>
            <Position>
              <LatitudeDegrees>42.93927960097789764404296875</LatitudeDegrees>
              <LongitudeDegrees>0.648035444319248199462890625</LongitudeDegrees>
            </Position>
            <AltitudeMeters>493.20001220703125</AltitudeMeters>
            <DistanceMeters>20353.660973387</DistanceMeters>
          </Trackpoint>
          <Trackpoint>
            <Time>2019-05-08T08:02:13.000Z</Time>
            <Position>
              <LatitudeDegrees>42.9393213428556919097900390625</LatitudeDegrees>
              <LongitudeDegrees>0.6479655392467975616455078125</LongitudeDegrees>
            </Position>
            <AltitudeMeters>493</AltitudeMeters>
            <DistanceMeters>20361.011275922</DistanceMeters>
          </Trackpoint>
          <Trackpoint>
            <Time>2019-05-08T08:02:14.000Z</Time>
            <Position>
              <LatitudeDegrees>42.93934942223131656646728515625</LatitudeDegrees>
              <LongitudeDegrees>0.64788180403411388397216796875</LongitudeDegrees>
            </Position>
            <AltitudeMeters>492.79998779296875</AltitudeMeters>
            <DistanceMeters>20368.51537858</DistanceMeters>
          </Trackpoint>
          <Trackpoint>
            <Time>2019-05-08T08:02:15.000Z</Time>
            <Position>
              <LatitudeDegrees>42.93937071226537227630615234375</LatitudeDegrees>
              <LongitudeDegrees>0.647792704403400421142578125</LongitudeDegrees>
            </Position>
            <AltitudeMeters>492.600006103515625</AltitudeMeters>
            <DistanceMeters>20376.151885221</DistanceMeters>
          </Trackpoint>
          <Trackpoint>
            <Time>2019-05-08T08:02:16.000Z</Time>
            <Position>
              <LatitudeDegrees>42.93939535506069660186767578125</LatitudeDegrees>
              <LongitudeDegrees>0.6477036885917186737060546875</LongitudeDegrees>
            </Position>
            <AltitudeMeters>492.20001220703125</AltitudeMeters>
            <DistanceMeters>20383.906903539</DistanceMeters>
          </Trackpoint>
          <Trackpoint>
            <Time>2019-05-08T08:02:18.000Z</Time>
            <Position>
              <LatitudeDegrees>42.9394839517772197723388671875</LatitudeDegrees>
              <LongitudeDegrees>0.64755859784781932830810546875</LongitudeDegrees>
            </Position>
            <AltitudeMeters>491.79998779296875</AltitudeMeters>
            <DistanceMeters>20399.301817841</DistanceMeters>
          </Trackpoint>
          <Trackpoint>
            <Time>2019-05-08T08:02:20.000Z</Time>
            <Position>
              <LatitudeDegrees>42.9396167211234569549560546875</LatitudeDegrees>
              <LongitudeDegrees>0.64749925397336483001708984375</LongitudeDegrees>
            </Position>
            <AltitudeMeters>491.20001220703125</AltitudeMeters>
            <DistanceMeters>20414.850523145</DistanceMeters>
          </Trackpoint>
          <Trackpoint>
            <Time>2019-05-08T08:02:21.000Z</Time>
            <Position>
              <LatitudeDegrees>42.93968637473881244659423828125</LatitudeDegrees>
              <LongitudeDegrees>0.64748148433864116668701171875</LongitudeDegrees>
            </Position>
            <AltitudeMeters>491.20001220703125</AltitudeMeters>
            <DistanceMeters>20422.737167967</DistanceMeters>
          </Trackpoint>
          <Trackpoint>
            <Time>2019-05-08T08:02:25.000Z</Time>
            <Position>
              <LatitudeDegrees>42.9399600438773632049560546875</LatitudeDegrees>
              <LongitudeDegrees>0.64739079214632511138916015625</LongitudeDegrees>
            </Position>
            <AltitudeMeters>490.79998779296875</AltitudeMeters>
            <DistanceMeters>20454.080718127</DistanceMeters>
          </Trackpoint>
          <Trackpoint>
            <Time>2019-05-08T08:02:29.000Z</Time>
            <Position>
              <LatitudeDegrees>42.94023605994880199432373046875</LatitudeDegrees>
              <LongitudeDegrees>0.64727428369224071502685546875</LongitudeDegrees>
            </Position>
            <AltitudeMeters>490.399993896484375</AltitudeMeters>
            <DistanceMeters>20486.235152231</DistanceMeters>
          </Trackpoint>
          <Trackpoint>
            <Time>2019-05-08T08:02:35.000Z</Time>
            <Position>
              <LatitudeDegrees>42.94066823087632656097412109375</LatitudeDegrees>
              <LongitudeDegrees>0.6471716053783893585205078125</LongitudeDegrees>
            </Position>
            <AltitudeMeters>489.79998779296875</AltitudeMeters>
            <DistanceMeters>20535.058727679</DistanceMeters>
          </Trackpoint>
          <Trackpoint>
            <Time>2019-05-08T08:02:43.000Z</Time>
            <Position>
              <LatitudeDegrees>42.94123702682554721832275390625</LatitudeDegrees>
              <LongitudeDegrees>0.64705451019108295440673828125</LongitudeDegrees>
            </Position>
            <AltitudeMeters>489.399993896484375</AltitudeMeters>
            <DistanceMeters>20599.081702692</DistanceMeters>
          </Trackpoint>
          <Trackpoint>
            <Time>2019-05-08T08:02:44.000Z</Time>
            <Position>
              <LatitudeDegrees>42.9413068480789661407470703125</LatitudeDegrees>
              <LongitudeDegrees>0.64703741110861301422119140625</LongitudeDegrees>
            </Position>
            <AltitudeMeters>489.399993896484375</AltitudeMeters>
            <DistanceMeters>20606.977502067</DistanceMeters>
          </Trackpoint>
          <Trackpoint>
            <Time>2019-05-08T08:02:50.000Z</Time>
            <Position>
              <LatitudeDegrees>42.9417215846478939056396484375</LatitudeDegrees>
              <LongitudeDegrees>0.6469174660742282867431640625</LongitudeDegrees>
            </Position>
            <AltitudeMeters>489.600006103515625</AltitudeMeters>
            <DistanceMeters>20654.16178247</DistanceMeters>
          </Trackpoint>
          <Trackpoint>
            <Time>2019-05-08T08:02:53.000Z</Time>
            <Position>
              <LatitudeDegrees>42.94192685745656490325927734375</LatitudeDegrees>
              <LongitudeDegrees>0.646846555173397064208984375</LongitudeDegrees>
            </Position>
            <AltitudeMeters>489.600006103515625</AltitudeMeters>
            <DistanceMeters>20677.728407634</DistanceMeters>
          </Trackpoint>
          <Trackpoint>
            <Time>2019-05-08T08:03:01.000Z</Time>
            <Position>
              <LatitudeDegrees>42.94246497564017772674560546875</LatitudeDegrees>
              <LongitudeDegrees>0.646609179675579071044921875</LongitudeDegrees>
            </Position>
            <AltitudeMeters>489.79998779296875</AltitudeMeters>
            <DistanceMeters>20740.667305816</DistanceMeters>
          </Trackpoint>
          <Trackpoint>
            <Time>2019-05-08T08:03:03.000Z</Time>
            <Position>
              <LatitudeDegrees>42.94260009191930294036865234375</LatitudeDegrees>
              <LongitudeDegrees>0.64654740504920482635498046875</LongitudeDegrees>
            </Position>
            <AltitudeMeters>489.600006103515625</AltitudeMeters>
            <DistanceMeters>20756.525667301</DistanceMeters>
          </Trackpoint>
          <Trackpoint>
            <Time>2019-05-08T08:03:10.000Z</Time>
            <Position>
              <LatitudeDegrees>42.94307718984782695770263671875</LatitudeDegrees>
              <LongitudeDegrees>0.6463337503373622894287109375</LongitudeDegrees>
            </Position>
            <AltitudeMeters>489.79998779296875</AltitudeMeters>
            <DistanceMeters>20812.408162561</DistanceMeters>
          </Trackpoint>
          <Trackpoint>
            <Time>2019-05-08T08:03:18.000Z</Time>
            <Position>
              <LatitudeDegrees>42.943603657186031341552734375</LatitudeDegrees>
              <LongitudeDegrees>0.6460363604128360748291015625</LongitudeDegrees>
            </Position>
            <AltitudeMeters>489.600006103515625</AltitudeMeters>
            <DistanceMeters>20875.817118688</DistanceMeters>
          </Trackpoint>
          <Trackpoint>
            <Time>2019-05-08T08:03:21.000Z</Time>
            <Position>
              <LatitudeDegrees>42.94379107654094696044921875</LatitudeDegrees>
              <LongitudeDegrees>0.64589948393404483795166015625</LongitudeDegrees>
            </Position>
            <AltitudeMeters>489.79998779296875</AltitudeMeters>
            <DistanceMeters>20899.471136667</DistanceMeters>
          </Trackpoint>
          <Trackpoint>
            <Time>2019-05-08T08:03:23.000Z</Time>
            <Position>
              <LatitudeDegrees>42.94393080286681652069091796875</LatitudeDegrees>
              <LongitudeDegrees>0.6458522938191890716552734375</LongitudeDegrees>
            </Position>
            <AltitudeMeters>489.79998779296875</AltitudeMeters>
            <DistanceMeters>20915.491242865</DistanceMeters>
          </Trackpoint>
          <Trackpoint>
            <Time>2019-05-08T08:03:29.000Z</Time>
            <Position>
              <LatitudeDegrees>42.94434486888349056243896484375</LatitudeDegrees>
              <LongitudeDegrees>0.6457339413464069366455078125</LongitudeDegrees>
            </Position>
            <AltitudeMeters>489.399993896484375</AltitudeMeters>
            <DistanceMeters>20962.575613387</DistanceMeters>
          </Trackpoint>
          <Trackpoint>
            <Time>2019-05-08T08:03:36.000Z</Time>
            <Position>
              <LatitudeDegrees>42.9448202066123485565185546875</LatitudeDegrees>
              <LongitudeDegrees>0.64562304876744747161865234375</LongitudeDegrees>
            </Position>
            <AltitudeMeters>489.20001220703125</AltitudeMeters>
            <DistanceMeters>21016.247623657</DistanceMeters>
          </Trackpoint>
          <Trackpoint>
            <Time>2019-05-08T08:03:42.000Z</Time>
            <Position>
              <LatitudeDegrees>42.94522966258227825164794921875</LatitudeDegrees>
              <LongitudeDegrees>0.64551073126494884490966796875</LongitudeDegrees>
            </Position>
            <AltitudeMeters>489.20001220703125</AltitudeMeters>
            <DistanceMeters>21062.730647883</DistanceMeters>
          </Trackpoint>
          <Trackpoint>
            <Time>2019-05-08T08:03:44.000Z</Time>
            <Position>
              <LatitudeDegrees>42.9453594982624053955078125</LatitudeDegrees>
              <LongitudeDegrees>0.6454747729003429412841796875</LongitudeDegrees>
            </Position>
            <AltitudeMeters>489.20001220703125</AltitudeMeters>
            <DistanceMeters>21077.475413749</DistanceMeters>
          </Trackpoint>
          <Trackpoint>
            <Time>2019-05-08T08:03:46.000Z</Time>
            <Position>
              <LatitudeDegrees>42.945491261780261993408203125</LatitudeDegrees>
              <LongitudeDegrees>0.64544183202087879180908203125</LongitudeDegrees>
            </Position>
            <AltitudeMeters>489.20001220703125</AltitudeMeters>
            <DistanceMeters>21092.384314838</DistanceMeters>
          </Trackpoint>
          <Trackpoint>
            <Time>2019-05-08T08:03:53.000Z</Time>
            <Position>
              <LatitudeDegrees>42.94595587067306041717529296875</LatitudeDegrees>
              <LongitudeDegrees>0.64532130025327205657958984375</LongitudeDegrees>
            </Position>
            <AltitudeMeters>489.20001220703125</AltitudeMeters>
            <DistanceMeters>21145.020365925</DistanceMeters>
          </Trackpoint>
          <Trackpoint>
            <Time>2019-05-08T08:03:56.000Z</Time>
            <Position>
              <LatitudeDegrees>42.94614882208406925201416015625</LatitudeDegrees>
              <LongitudeDegrees>0.64527721144258975982666015625</LongitudeDegrees>
            </Position>
            <AltitudeMeters>489.20001220703125</AltitudeMeters>
            <DistanceMeters>21166.794550953</DistanceMeters>
          </Trackpoint>
          <Trackpoint>
            <Time>2019-05-08T08:04:02.000Z</Time>
            <Position>
              <LatitudeDegrees>42.94655886478722095489501953125</LatitudeDegrees>
              <LongitudeDegrees>0.64522692002356052398681640625</LongitudeDegrees>
            </Position>
            <AltitudeMeters>489.20001220703125</AltitudeMeters>
            <DistanceMeters>21212.61674399</DistanceMeters>
          </Trackpoint>
          <Trackpoint>
            <Time>2019-05-08T08:04:04.000Z</Time>
            <Position>
              <LatitudeDegrees>42.946690209209918975830078125</LatitudeDegrees>
              <LongitudeDegrees>0.64522759057581424713134765625</LongitudeDegrees>
            </Position>
            <AltitudeMeters>489.20001220703125</AltitudeMeters>
            <DistanceMeters>21227.236041144</DistanceMeters>
          </Trackpoint>
          <Trackpoint>
            <Time>2019-05-08T08:04:06.000Z</Time>
            <Position>
              <LatitudeDegrees>42.9468105733394622802734375</LatitudeDegrees>
              <LongitudeDegrees>0.64514460973441600799560546875</LongitudeDegrees>
            </Position>
            <AltitudeMeters>489.20001220703125</AltitudeMeters>
            <DistanceMeters>21242.241839564</DistanceMeters>
          </Trackpoint>
          <Trackpoint>
            <Time>2019-05-08T08:04:09.000Z</Time>
            <Position>
              <LatitudeDegrees>42.946969158947467803955078125</LatitudeDegrees>
              <LongitudeDegrees>0.6449537537992000579833984375</LongitudeDegrees>
            </Position>
            <AltitudeMeters>489</AltitudeMeters>
            <DistanceMeters>21265.764742535</DistanceMeters>
          </Trackpoint>
          <Trackpoint>
            <Time>2019-05-08T08:04:11.000Z</Time>
            <Position>
              <LatitudeDegrees>42.94708809815347194671630859375</LatitudeDegrees>
              <LongitudeDegrees>0.64485560171306133270263671875</LongitudeDegrees>
            </Position>
            <AltitudeMeters>489.20001220703125</AltitudeMeters>
            <DistanceMeters>21281.230468022</DistanceMeters>
          </Trackpoint>
          <Trackpoint>
            <Time>2019-05-08T08:04:13.000Z</Time>
            <Position>
              <LatitudeDegrees>42.94720259495079517364501953125</LatitudeDegrees>
              <LongitudeDegrees>0.64475703053176403045654296875</LongitudeDegrees>
            </Position>
            <AltitudeMeters>489</AltitudeMeters>
            <DistanceMeters>21296.293326341</DistanceMeters>
          </Trackpoint>
          <Trackpoint>
            <Time>2019-05-08T08:04:19.000Z</Time>
            <Position>
              <LatitudeDegrees>42.9475289024412631988525390625</LatitudeDegrees>
              <LongitudeDegrees>0.64442661590874195098876953125</LongitudeDegrees>
            </Position>
            <AltitudeMeters>488.600006103515625</AltitudeMeters>
            <DistanceMeters>21341.500481757</DistanceMeters>
          </Trackpoint>
          <Trackpoint>
            <Time>2019-05-08T08:04:22.000Z</Time>
            <Position>
              <LatitudeDegrees>42.94767483137547969818115234375</LatitudeDegrees>
              <LongitudeDegrees>0.64423752017319202423095703125</LongitudeDegrees>
            </Position>
            <AltitudeMeters>488.600006103515625</AltitudeMeters>
            <DistanceMeters>21363.886887955</DistanceMeters>
          </Trackpoint>
          <Trackpoint>
            <Time>2019-05-08T08:04:26.000Z</Time>
            <Position>
              <LatitudeDegrees>42.94787180610001087188720703125</LatitudeDegrees>
              <LongitudeDegrees>0.64399092458188533782958984375</LongitudeDegrees>
            </Position>
            <AltitudeMeters>488.600006103515625</AltitudeMeters>
            <DistanceMeters>21393.623417775</DistanceMeters>
          </Trackpoint>
          <Trackpoint>
            <Time>2019-05-08T08:04:28.000Z</Time>
            <Position>
              <LatitudeDegrees>42.9479738138616085052490234375</LatitudeDegrees>
              <LongitudeDegrees>0.64387567341327667236328125</LongitudeDegrees>
            </Position>
            <AltitudeMeters>488.600006103515625</AltitudeMeters>
            <DistanceMeters>21408.356542954</DistanceMeters>
          </Trackpoint>
          <Trackpoint>
            <Time>2019-05-08T08:04:31.000Z</Time>
            <Position>
              <LatitudeDegrees>42.94814136810600757598876953125</LatitudeDegrees>
              <LongitudeDegrees>0.6437350250780582427978515625</LongitudeDegrees>
            </Position>
            <AltitudeMeters>488.600006103515625</AltitudeMeters>
            <DistanceMeters>21430.24468371</DistanceMeters>
          </Trackpoint>
          <Trackpoint>
            <Time>2019-05-08T08:04:36.000Z</Time>
            <Position>
              <LatitudeDegrees>42.9483999498188495635986328125</LatitudeDegrees>
              <LongitudeDegrees>0.643425397574901580810546875</LongitudeDegrees>
            </Position>
            <AltitudeMeters>488.79998779296875</AltitudeMeters>
            <DistanceMeters>21468.515328843</DistanceMeters>
          </Trackpoint>
          <Trackpoint>
            <Time>2019-05-08T08:04:37.000Z</Time>
            <Position>
              <LatitudeDegrees>42.9484478943049907684326171875</LatitudeDegrees>
              <LongitudeDegrees>0.64335356466472148895263671875</LongitudeDegrees>
            </Position>
            <AltitudeMeters>488.79998779296875</AltitudeMeters>
            <DistanceMeters>21476.435108574</DistanceMeters>
          </Trackpoint>
          <Trackpoint>
            <Time>2019-05-08T08:04:43.000Z</Time>
            <Position>
              <LatitudeDegrees>42.9487685859203338623046875</LatitudeDegrees>
              <LongitudeDegrees>0.64295391552150249481201171875</LongitudeDegrees>
            </Position>
            <AltitudeMeters>488.600006103515625</AltitudeMeters>
            <DistanceMeters>21524.7479462</DistanceMeters>
          </Trackpoint>
          <Trackpoint>
            <Time>2019-05-08T08:04:48.000Z</Time>
            <Position>
              <LatitudeDegrees>42.9490540735423564910888671875</LatitudeDegrees>
              <LongitudeDegrees>0.64267194829881191253662109375</LongitudeDegrees>
            </Position>
            <AltitudeMeters>488.600006103515625</AltitudeMeters>
            <DistanceMeters>21563.957147729</DistanceMeters>
          </Trackpoint>
          <Trackpoint>
            <Time>2019-05-08T08:04:50.000Z</Time>
            <Position>
              <LatitudeDegrees>42.94915306381881237030029296875</LatitudeDegrees>
              <LongitudeDegrees>0.64253448508679866790771484375</LongitudeDegrees>
            </Position>
            <AltitudeMeters>488.600006103515625</AltitudeMeters>
            <DistanceMeters>21579.667337078</DistanceMeters>
          </Trackpoint>
          <Trackpoint>
            <Time>2019-05-08T08:04:57.000Z</Time>
            <Position>
              <LatitudeDegrees>42.94951935298740863800048828125</LatitudeDegrees>
              <LongitudeDegrees>0.64208202995359897613525390625</LongitudeDegrees>
            </Position>
            <AltitudeMeters>488.20001220703125</AltitudeMeters>
            <DistanceMeters>21634.629264015</DistanceMeters>
          </Trackpoint>
          <Trackpoint>
            <Time>2019-05-08T08:05:00.000Z</Time>
            <Position>
              <LatitudeDegrees>42.9496867395937442779541015625</LatitudeDegrees>
              <LongitudeDegrees>0.64192436635494232177734375</LongitudeDegrees>
            </Position>
            <AltitudeMeters>488</AltitudeMeters>
            <DistanceMeters>21657.258395129</DistanceMeters>
          </Trackpoint>
          <Trackpoint>
            <Time>2019-05-08T08:05:02.000Z</Time>
            <Position>
              <LatitudeDegrees>42.949801571667194366455078125</LatitudeDegrees>
              <LongitudeDegrees>0.64184297807514667510986328125</LongitudeDegrees>
            </Position>
            <AltitudeMeters>488</AltitudeMeters>
            <DistanceMeters>21671.656431972</DistanceMeters>
          </Trackpoint>
          <Trackpoint>
            <Time>2019-05-08T08:05:03.000Z</Time>
            <Position>
              <LatitudeDegrees>42.949861250817775726318359375</LatitudeDegrees>
              <LongitudeDegrees>0.64181028865277767181396484375</LongitudeDegrees>
            </Position>
            <AltitudeMeters>488</AltitudeMeters>
            <DistanceMeters>21678.813148648</DistanceMeters>
          </Trackpoint>
          <Trackpoint>
            <Time>2019-05-08T08:05:05.000Z</Time>
            <Position>
              <LatitudeDegrees>42.949988655745983123779296875</LatitudeDegrees>
              <LongitudeDegrees>0.6417659483850002288818359375</LongitudeDegrees>
            </Position>
            <AltitudeMeters>488</AltitudeMeters>
            <DistanceMeters>21693.446645592</DistanceMeters>
          </Trackpoint>
          <Trackpoint>
            <Time>2019-05-08T08:05:08.000Z</Time>
            <Position>
              <LatitudeDegrees>42.9501913301646709442138671875</LatitudeDegrees>
              <LongitudeDegrees>0.64169780351221561431884765625</LongitudeDegrees>
            </Position>
            <AltitudeMeters>487.79998779296875</AltitudeMeters>
            <DistanceMeters>21716.677907907</DistanceMeters>
          </Trackpoint>
          <Trackpoint>
            <Time>2019-05-08T08:05:11.000Z</Time>
            <Position>
              <LatitudeDegrees>42.95040280558168888092041015625</LatitudeDegrees>
              <LongitudeDegrees>0.64165337942540645599365234375</LongitudeDegrees>
            </Position>
            <AltitudeMeters>487.600006103515625</AltitudeMeters>
            <DistanceMeters>21740.492292656</DistanceMeters>
          </Trackpoint>
          <Trackpoint>
            <Time>2019-05-08T08:05:13.000Z</Time>
            <Position>
              <LatitudeDegrees>42.9505406878888607025146484375</LatitudeDegrees>
              <LongitudeDegrees>0.64165824092924594879150390625</LongitudeDegrees>
            </Position>
            <AltitudeMeters>487.600006103515625</AltitudeMeters>
            <DistanceMeters>21755.843739983</DistanceMeters>
          </Trackpoint>
          <Trackpoint>
            <Time>2019-05-08T08:05:16.000Z</Time>
            <Position>
              <LatitudeDegrees>42.9507415182888507843017578125</LatitudeDegrees>
              <LongitudeDegrees>0.64168204553425312042236328125</LongitudeDegrees>
            </Position>
            <AltitudeMeters>487.399993896484375</AltitudeMeters>
            <DistanceMeters>21778.280511177</DistanceMeters>
          </Trackpoint>
          <Trackpoint>
            <Time>2019-05-08T08:05:22.000Z</Time>
            <Position>
              <LatitudeDegrees>42.95114628039300441741943359375</LatitudeDegrees>
              <LongitudeDegrees>0.641699396073818206787109375</LongitudeDegrees>
            </Position>
            <AltitudeMeters>486.79998779296875</AltitudeMeters>
            <DistanceMeters>21823.353435846</DistanceMeters>
          </Trackpoint>
          <Trackpoint>
            <Time>2019-05-08T08:05:24.000Z</Time>
            <Position>
              <LatitudeDegrees>42.95127972029149532318115234375</LatitudeDegrees>
              <LongitudeDegrees>0.641697384417057037353515625</LongitudeDegrees>
            </Position>
            <AltitudeMeters>487</AltitudeMeters>
            <DistanceMeters>21838.206813498</DistanceMeters>
          </Trackpoint>
          <Trackpoint>
            <Time>2019-05-08T08:05:27.000Z</Time>
            <Position>
              <LatitudeDegrees>42.95147149823606014251708984375</LatitudeDegrees>
              <LongitudeDegrees>0.64174574799835681915283203125</LongitudeDegrees>
            </Position>
            <AltitudeMeters>487</AltitudeMeters>
            <DistanceMeters>21859.912670737</DistanceMeters>
          </Trackpoint>
          <Trackpoint>
            <Time>2019-05-08T08:05:30.000Z</Time>
            <Position>
              <LatitudeDegrees>42.95164768584072589874267578125</LatitudeDegrees>
              <LongitudeDegrees>0.64182068221271038055419921875</LongitudeDegrees>
            </Position>
            <AltitudeMeters>487</AltitudeMeters>
            <DistanceMeters>21880.450755624</DistanceMeters>
          </Trackpoint>
          <Trackpoint>
            <Time>2019-05-08T08:05:33.000Z</Time>
            <Position>
              <LatitudeDegrees>42.95181649737060070037841796875</LatitudeDegrees>
              <LongitudeDegrees>0.641891174018383026123046875</LongitudeDegrees>
            </Position>
            <AltitudeMeters>486.79998779296875</AltitudeMeters>
            <DistanceMeters>21900.09785917</DistanceMeters>
          </Trackpoint>
          <Trackpoint>
            <Time>2019-05-08T08:05:41.000Z</Time>
            <Position>
              <LatitudeDegrees>42.9522338323295116424560546875</LatitudeDegrees>
              <LongitudeDegrees>0.64207565970718860626220703125</LongitudeDegrees>
            </Position>
            <AltitudeMeters>486.79998779296875</AltitudeMeters>
            <DistanceMeters>21948.919030168</DistanceMeters>
          </Trackpoint>
          <Trackpoint>
            <Time>2019-05-08T08:05:44.000Z</Time>
            <Position>
              <LatitudeDegrees>42.952371798455715179443359375</LatitudeDegrees>
              <LongitudeDegrees>0.642151348292827606201171875</LongitudeDegrees>
            </Position>
            <AltitudeMeters>486.600006103515625</AltitudeMeters>
            <DistanceMeters>21965.466507559</DistanceMeters>
          </Trackpoint>
          <Trackpoint>
            <Time>2019-05-08T08:05:46.000Z</Time>
            <Position>
              <LatitudeDegrees>42.95244664885103702545166015625</LatitudeDegrees>
              <LongitudeDegrees>0.642197616398334503173828125</LongitudeDegrees>
            </Position>
            <AltitudeMeters>486.600006103515625</AltitudeMeters>
            <DistanceMeters>21974.609835603</DistanceMeters>
          </Trackpoint>
          <Trackpoint>
            <Time>2019-05-08T08:05:48.000Z</Time>
            <Position>
              <LatitudeDegrees>42.95250783674418926239013671875</LatitudeDegrees>
              <LongitudeDegrees>0.6422135420143604278564453125</LongitudeDegrees>
            </Position>
            <AltitudeMeters>486.600006103515625</AltitudeMeters>
            <DistanceMeters>21981.542228179</DistanceMeters>
          </Trackpoint>
          <Trackpoint>
            <Time>2019-05-08T08:05:49.000Z</Time>
            <Position>
              <LatitudeDegrees>42.95253180898725986480712890625</LatitudeDegrees>
              <LongitudeDegrees>0.6422085128724575042724609375</LongitudeDegrees>
            </Position>
            <AltitudeMeters>486.600006103515625</AltitudeMeters>
            <DistanceMeters>21984.243394921</DistanceMeters>
          </Trackpoint>
          <Trackpoint>
            <Time>2019-05-08T08:05:51.000Z</Time>
            <Position>
              <LatitudeDegrees>42.952543459832668304443359375</LatitudeDegrees>
              <LongitudeDegrees>0.642207004129886627197265625</LongitudeDegrees>
            </Position>
            <AltitudeMeters>486.600006103515625</AltitudeMeters>
            <DistanceMeters>21985.546335584</DistanceMeters>
          </Trackpoint>
          <Trackpoint>
            <Time>2019-05-08T08:06:47.000Z</Time>
            <Position>
              <LatitudeDegrees>42.9525831900537014007568359375</LatitudeDegrees>
              <LongitudeDegrees>0.64219820313155651092529296875</LongitudeDegrees>
            </Position>
            <AltitudeMeters>487.399993896484375</AltitudeMeters>
            <DistanceMeters>21990.025713873</DistanceMeters>
          </Trackpoint>
          <Trackpoint>
            <Time>2019-05-08T08:06:52.000Z</Time>
            <Position>
              <LatitudeDegrees>42.95270849950611591339111328125</LatitudeDegrees>
              <LongitudeDegrees>0.64220440573990345001220703125</LongitudeDegrees>
            </Position>
            <AltitudeMeters>487.399993896484375</AltitudeMeters>
            <DistanceMeters>22003.981706092</DistanceMeters>
          </Trackpoint>
          <Trackpoint>
            <Time>2019-05-08T08:06:53.000Z</Time>
            <Position>
              <LatitudeDegrees>42.95273649506270885467529296875</LatitudeDegrees>
              <LongitudeDegrees>0.642217732965946197509765625</LongitudeDegrees>
            </Position>
            <AltitudeMeters>487.20001220703125</AltitudeMeters>
            <DistanceMeters>22007.281747333</DistanceMeters>
          </Trackpoint>
          <Trackpoint>
            <Time>2019-05-08T08:06:58.000Z</Time>
            <Position>
              <LatitudeDegrees>42.95285065658390522003173828125</LatitudeDegrees>
              <LongitudeDegrees>0.64232761971652507781982421875</LongitudeDegrees>
            </Position>
            <AltitudeMeters>487.20001220703125</AltitudeMeters>
            <DistanceMeters>22022.824934432</DistanceMeters>
          </Trackpoint>
          <Trackpoint>
            <Time>2019-05-08T08:07:01.000Z</Time>
            <Position>
              <LatitudeDegrees>42.95289315283298492431640625</LatitudeDegrees>
              <LongitudeDegrees>0.6424225866794586181640625</LongitudeDegrees>
            </Position>
            <AltitudeMeters>486.79998779296875</AltitudeMeters>
            <DistanceMeters>22031.892893193</DistanceMeters>
          </Trackpoint>
          <Trackpoint>
            <Time>2019-05-08T08:07:02.000Z</Time>
            <Position>
              <LatitudeDegrees>42.9528965055942535400390625</LatitudeDegrees>
              <LongitudeDegrees>0.6424559466540813446044921875</LongitudeDegrees>
            </Position>
            <AltitudeMeters>486.79998779296875</AltitudeMeters>
            <DistanceMeters>22034.637175204</DistanceMeters>
          </Trackpoint>
          <Trackpoint>
            <Time>2019-05-08T08:07:03.000Z</Time>
            <Position>
              <LatitudeDegrees>42.95288803987205028533935546875</LatitudeDegrees>
              <LongitudeDegrees>0.642481260001659393310546875</LongitudeDegrees>
            </Position>
            <AltitudeMeters>486.79998779296875</AltitudeMeters>
            <DistanceMeters>22036.905906914</DistanceMeters>
          </Trackpoint>
          <Trackpoint>
            <Time>2019-05-08T08:07:04.000Z</Time>
            <Position>
              <LatitudeDegrees>42.952872030436992645263671875</LatitudeDegrees>
              <LongitudeDegrees>0.64249257557094097137451171875</LongitudeDegrees>
            </Position>
            <AltitudeMeters>486.79998779296875</AltitudeMeters>
            <DistanceMeters>22038.912748735</DistanceMeters>
          </Trackpoint>
          <Trackpoint>
            <Time>2019-05-08T08:07:06.000Z</Time>
            <Position>
              <LatitudeDegrees>42.9528514109551906585693359375</LatitudeDegrees>
              <LongitudeDegrees>0.642483271658420562744140625</LongitudeDegrees>
            </Position>
            <AltitudeMeters>486.79998779296875</AltitudeMeters>
            <DistanceMeters>22041.331733964</DistanceMeters>
          </Trackpoint>
          <Trackpoint>
            <Time>2019-05-08T08:07:07.000Z</Time>
            <Position>
              <LatitudeDegrees>42.9528504051268100738525390625</LatitudeDegrees>
              <LongitudeDegrees>0.6424824334681034088134765625</LongitudeDegrees>
            </Position>
            <AltitudeMeters>486.600006103515625</AltitudeMeters>
            <DistanceMeters>22041.496325061</DistanceMeters>
          </Trackpoint>
          <Trackpoint>
            <Time>2019-05-08T08:07:23.000Z</Time>
            <Position>
              <LatitudeDegrees>42.952857278287410736083984375</LatitudeDegrees>
              <LongitudeDegrees>0.642447732388973236083984375</LongitudeDegrees>
            </Position>
            <AltitudeMeters>489</AltitudeMeters>
            <DistanceMeters>22044.423703162</DistanceMeters>
          </Trackpoint>
          <Trackpoint>
            <Time>2019-05-08T08:07:24.000Z</Time>
            <Position>
              <LatitudeDegrees>42.952882088720798492431640625</LatitudeDegrees>
              <LongitudeDegrees>0.642432980239391326904296875</LongitudeDegrees>
            </Position>
            <AltitudeMeters>488.79998779296875</AltitudeMeters>
            <DistanceMeters>22047.434715741</DistanceMeters>
          </Trackpoint>
          <Trackpoint>
            <Time>2019-05-08T08:07:25.000Z</Time>
            <Position>
              <LatitudeDegrees>42.9529127664864063262939453125</LatitudeDegrees>
              <LongitudeDegrees>0.642437003552913665771484375</LongitudeDegrees>
            </Position>
            <AltitudeMeters>489</AltitudeMeters>
            <DistanceMeters>22050.866219738</DistanceMeters>
          </Trackpoint>
          <Trackpoint>
            <Time>2019-05-08T08:07:27.000Z</Time>
            <Position>
              <LatitudeDegrees>42.952965907752513885498046875</LatitudeDegrees>
              <LongitudeDegrees>0.64249341376125812530517578125</LongitudeDegrees>
            </Position>
            <AltitudeMeters>489</AltitudeMeters>
            <DistanceMeters>22058.355868252</DistanceMeters>
          </Trackpoint>
          <Trackpoint>
            <Time>2019-05-08T08:07:29.000Z</Time>
            <Position>
              <LatitudeDegrees>42.953024245798587799072265625</LatitudeDegrees>
              <LongitudeDegrees>0.64255996607244014739990234375</LongitudeDegrees>
            </Position>
            <AltitudeMeters>489</AltitudeMeters>
            <DistanceMeters>22066.815380993</DistanceMeters>
          </Trackpoint>
          <Trackpoint>
            <Time>2019-05-08T08:07:31.000Z</Time>
            <Position>
              <LatitudeDegrees>42.9531084001064300537109375</LatitudeDegrees>
              <LongitudeDegrees>0.6425981037318706512451171875</LongitudeDegrees>
            </Position>
            <AltitudeMeters>488.79998779296875</AltitudeMeters>
            <DistanceMeters>22076.68398649</DistanceMeters>
          </Trackpoint>
          <Trackpoint>
            <Time>2019-05-08T08:07:32.000Z</Time>
            <Position>
              <LatitudeDegrees>42.9531539976596832275390625</LatitudeDegrees>
              <LongitudeDegrees>0.64261394552886486053466796875</LongitudeDegrees>
            </Position>
            <AltitudeMeters>488.600006103515625</AltitudeMeters>
            <DistanceMeters>22081.919949829</DistanceMeters>
          </Trackpoint>
          <Trackpoint>
            <Time>2019-05-08T08:07:38.000Z</Time>
            <Position>
              <LatitudeDegrees>42.9534525610506534576416015625</LatitudeDegrees>
              <LongitudeDegrees>0.6427390873432159423828125</LongitudeDegrees>
            </Position>
            <AltitudeMeters>487.399993896484375</AltitudeMeters>
            <DistanceMeters>22116.679210006</DistanceMeters>
          </Trackpoint>
          <Trackpoint>
            <Time>2019-05-08T08:07:43.000Z</Time>
            <Position>
              <LatitudeDegrees>42.95373494736850261688232421875</LatitudeDegrees>
              <LongitudeDegrees>0.64286054112017154693603515625</LongitudeDegrees>
            </Position>
            <AltitudeMeters>487</AltitudeMeters>
            <DistanceMeters>22149.629783162</DistanceMeters>
          </Trackpoint>
          <Trackpoint>
            <Time>2019-05-08T08:07:45.000Z</Time>
            <Position>
              <LatitudeDegrees>42.95384659431874752044677734375</LatitudeDegrees>
              <LongitudeDegrees>0.64290379174053668975830078125</LongitudeDegrees>
            </Position>
            <AltitudeMeters>487</AltitudeMeters>
            <DistanceMeters>22162.545728045</DistanceMeters>
          </Trackpoint>
          <Trackpoint>
            <Time>2019-05-08T08:07:52.000Z</Time>
            <Position>
              <LatitudeDegrees>42.9542220197618007659912109375</LatitudeDegrees>
              <LongitudeDegrees>0.643034465610980987548828125</LongitudeDegrees>
            </Position>
            <AltitudeMeters>486.79998779296875</AltitudeMeters>
            <DistanceMeters>22205.665873224</DistanceMeters>
          </Trackpoint>
          <Trackpoint>
            <Time>2019-05-08T08:08:01.000Z</Time>
            <Position>
              <LatitudeDegrees>42.9547514207661151885986328125</LatitudeDegrees>
              <LongitudeDegrees>0.64314208924770355224609375</LongitudeDegrees>
            </Position>
            <AltitudeMeters>486.399993896484375</AltitudeMeters>
            <DistanceMeters>22265.237846857</DistanceMeters>
          </Trackpoint>
          <Trackpoint>
            <Time>2019-05-08T08:08:05.000Z</Time>
            <Position>
              <LatitudeDegrees>42.95499206520617008209228515625</LatitudeDegrees>
              <LongitudeDegrees>0.64319439232349395751953125</LongitudeDegrees>
            </Position>
            <AltitudeMeters>486.20001220703125</AltitudeMeters>
            <DistanceMeters>22292.358777459</DistanceMeters>
          </Trackpoint>
          <Trackpoint>
            <Time>2019-05-08T08:08:07.000Z</Time>
            <Position>
              <LatitudeDegrees>42.9551120102405548095703125</LatitudeDegrees>
              <LongitudeDegrees>0.643212161958217620849609375</LongitudeDegrees>
            </Position>
            <AltitudeMeters>486.20001220703125</AltitudeMeters>
            <DistanceMeters>22305.78716517</DistanceMeters>
          </Trackpoint>
          <Trackpoint>
            <Time>2019-05-08T08:08:08.000Z</Time>
            <Position>
              <LatitudeDegrees>42.9551710188388824462890625</LatitudeDegrees>
              <LongitudeDegrees>0.6432280875742435455322265625</LongitudeDegrees>
            </Position>
            <AltitudeMeters>486</AltitudeMeters>
            <DistanceMeters>22312.48098615</DistanceMeters>
          </Trackpoint>
          <Trackpoint>
            <Time>2019-05-08T08:08:14.000Z</Time>
            <Position>
              <LatitudeDegrees>42.955516017973423004150390625</LatitudeDegrees>
              <LongitudeDegrees>0.643353648483753204345703125</LongitudeDegrees>
            </Position>
            <AltitudeMeters>486.20001220703125</AltitudeMeters>
            <DistanceMeters>22352.219085727</DistanceMeters>
          </Trackpoint>
          <Trackpoint>
            <Time>2019-05-08T08:08:21.000Z</Time>
            <Position>
              <LatitudeDegrees>42.955906949937343597412109375</LatitudeDegrees>
              <LongitudeDegrees>0.64353528432548046112060546875</LongitudeDegrees>
            </Position>
            <AltitudeMeters>485.79998779296875</AltitudeMeters>
            <DistanceMeters>22398.177447323</DistanceMeters>
          </Trackpoint>
          <Trackpoint>
            <Time>2019-05-08T08:08:26.000Z</Time>
            <Position>
              <LatitudeDegrees>42.956154383718967437744140625</LatitudeDegrees>
              <LongitudeDegrees>0.64367878250777721405029296875</LongitudeDegrees>
            </Position>
            <AltitudeMeters>485.79998779296875</AltitudeMeters>
            <DistanceMeters>22428.095322202</DistanceMeters>
          </Trackpoint>
          <Trackpoint>
            <Time>2019-05-08T08:08:27.000Z</Time>
            <Position>
              <LatitudeDegrees>42.9561967961490154266357421875</LatitudeDegrees>
              <LongitudeDegrees>0.6437182612717151641845703125</LongitudeDegrees>
            </Position>
            <AltitudeMeters>485.79998779296875</AltitudeMeters>
            <DistanceMeters>22433.808000757</DistanceMeters>
          </Trackpoint>
          <Trackpoint>
            <Time>2019-05-08T08:08:28.000Z</Time>
            <Position>
              <LatitudeDegrees>42.956242226064205169677734375</LatitudeDegrees>
              <LongitudeDegrees>0.6437504477798938751220703125</LongitudeDegrees>
            </Position>
            <AltitudeMeters>485.79998779296875</AltitudeMeters>
            <DistanceMeters>22439.503264981</DistanceMeters>
          </Trackpoint>
          <Trackpoint>
            <Time>2019-05-08T08:08:30.000Z</Time>
            <Position>
              <LatitudeDegrees>42.95633920468389987945556640625</LatitudeDegrees>
              <LongitudeDegrees>0.64377701841294765472412109375</LongitudeDegrees>
            </Position>
            <AltitudeMeters>485.79998779296875</AltitudeMeters>
            <DistanceMeters>22450.512018587</DistanceMeters>
          </Trackpoint>
          <Trackpoint>
            <Time>2019-05-08T08:08:31.000Z</Time>
            <Position>
              <LatitudeDegrees>42.95638698153197765350341796875</LatitudeDegrees>
              <LongitudeDegrees>0.64378640614449977874755859375</LongitudeDegrees>
            </Position>
            <AltitudeMeters>485.79998779296875</AltitudeMeters>
            <DistanceMeters>22455.884180565</DistanceMeters>
          </Trackpoint>
          <Trackpoint>
            <Time>2019-05-08T08:08:32.000Z</Time>
            <Position>
              <LatitudeDegrees>42.956435345113277435302734375</LatitudeDegrees>
              <LongitudeDegrees>0.64380618743598461151123046875</LongitudeDegrees>
            </Position>
            <AltitudeMeters>485.79998779296875</AltitudeMeters>
            <DistanceMeters>22461.503626919</DistanceMeters>
          </Trackpoint>
          <Trackpoint>
            <Time>2019-05-08T08:08:35.000Z</Time>
            <Position>
              <LatitudeDegrees>42.9565749876201152801513671875</LatitudeDegrees>
              <LongitudeDegrees>0.64390358515083789825439453125</LongitudeDegrees>
            </Position>
            <AltitudeMeters>485.600006103515625</AltitudeMeters>
            <DistanceMeters>22478.953905938</DistanceMeters>
          </Trackpoint>
          <Trackpoint>
            <Time>2019-05-08T08:08:36.000Z</Time>
            <Position>
              <LatitudeDegrees>42.95662586577236652374267578125</LatitudeDegrees>
              <LongitudeDegrees>0.64393074251711368560791015625</LongitudeDegrees>
            </Position>
            <AltitudeMeters>485.600006103515625</AltitudeMeters>
            <DistanceMeters>22485.032645347</DistanceMeters>
          </Trackpoint>
          <Trackpoint>
            <Time>2019-05-08T08:08:40.000Z</Time>
            <Position>
              <LatitudeDegrees>42.956828959286212921142578125</LatitudeDegrees>
              <LongitudeDegrees>0.64404725097119808197021484375</LongitudeDegrees>
            </Position>
            <AltitudeMeters>485.399993896484375</AltitudeMeters>
            <DistanceMeters>22509.548801002</DistanceMeters>
          </Trackpoint>
          <Trackpoint>
            <Time>2019-05-08T08:08:46.000Z</Time>
            <Position>
              <LatitudeDegrees>42.9571305401623249053955078125</LatitudeDegrees>
              <LongitudeDegrees>0.644242130219936370849609375</LongitudeDegrees>
            </Position>
            <AltitudeMeters>485.20001220703125</AltitudeMeters>
            <DistanceMeters>22546.679813263</DistanceMeters>
          </Trackpoint>
          <Trackpoint>
            <Time>2019-05-08T08:08:52.000Z</Time>
            <Position>
              <LatitudeDegrees>42.95742365531623363494873046875</LatitudeDegrees>
              <LongitudeDegrees>0.644457042217254638671875</LongitudeDegrees>
            </Position>
            <AltitudeMeters>485.20001220703125</AltitudeMeters>
            <DistanceMeters>22583.70439678</DistanceMeters>
          </Trackpoint>
          <Trackpoint>
            <Time>2019-05-08T08:08:53.000Z</Time>
            <Position>
              <LatitudeDegrees>42.95747612603008747100830078125</LatitudeDegrees>
              <LongitudeDegrees>0.6444669328629970550537109375</LongitudeDegrees>
            </Position>
            <AltitudeMeters>485.20001220703125</AltitudeMeters>
            <DistanceMeters>22589.600649345</DistanceMeters>
          </Trackpoint>
          <Trackpoint>
            <Time>2019-05-08T08:08:54.000Z</Time>
            <Position>
              <LatitudeDegrees>42.95752775855362415313720703125</LatitudeDegrees>
              <LongitudeDegrees>0.64445561729371547698974609375</LongitudeDegrees>
            </Position>
            <AltitudeMeters>485</AltitudeMeters>
            <DistanceMeters>22595.421374972</DistanceMeters>
          </Trackpoint>
          <Trackpoint>
            <Time>2019-05-08T08:08:56.000Z</Time>
            <Position>
              <LatitudeDegrees>42.95761459507048130035400390625</LatitudeDegrees>
              <LongitudeDegrees>0.64444857649505138397216796875</LongitudeDegrees>
            </Position>
            <AltitudeMeters>485</AltitudeMeters>
            <DistanceMeters>22605.102913769</DistanceMeters>
          </Trackpoint>
          <Trackpoint>
            <Time>2019-05-08T08:08:58.000Z</Time>
            <Position>
              <LatitudeDegrees>42.957691289484500885009765625</LatitudeDegrees>
              <LongitudeDegrees>0.64446349628269672393798828125</LongitudeDegrees>
            </Position>
            <AltitudeMeters>485.20001220703125</AltitudeMeters>
            <DistanceMeters>22613.724722703</DistanceMeters>
          </Trackpoint>
          <Trackpoint>
            <Time>2019-05-08T08:08:59.000Z</Time>
            <Position>
              <LatitudeDegrees>42.95772439800202846527099609375</LatitudeDegrees>
              <LongitudeDegrees>0.64450205303728580474853515625</LongitudeDegrees>
            </Position>
            <AltitudeMeters>485.20001220703125</AltitudeMeters>
            <DistanceMeters>22618.566424722</DistanceMeters>
          </Trackpoint>
          <Trackpoint>
            <Time>2019-05-08T08:09:00.000Z</Time>
            <Position>
              <LatitudeDegrees>42.95775373466312885284423828125</LatitudeDegrees>
              <LongitudeDegrees>0.64455335028469562530517578125</LongitudeDegrees>
            </Position>
            <AltitudeMeters>485.20001220703125</AltitudeMeters>
            <DistanceMeters>22623.869221913</DistanceMeters>
          </Trackpoint>
          <Trackpoint>
            <Time>2019-05-08T08:09:02.000Z</Time>
            <Position>
              <LatitudeDegrees>42.95782296918332576751708984375</LatitudeDegrees>
              <LongitudeDegrees>0.6446644105017185211181640625</LongitudeDegrees>
            </Position>
            <AltitudeMeters>485.20001220703125</AltitudeMeters>
            <DistanceMeters>22635.752501571</DistanceMeters>
          </Trackpoint>
          <Trackpoint>
            <Time>2019-05-08T08:09:03.000Z</Time>
            <Position>
              <LatitudeDegrees>42.957868315279483795166015625</LatitudeDegrees>
              <LongitudeDegrees>0.64471361227333545684814453125</LongitudeDegrees>
            </Position>
            <AltitudeMeters>485.20001220703125</AltitudeMeters>
            <DistanceMeters>22642.197526912</DistanceMeters>
          </Trackpoint>
          <Trackpoint>
            <Time>2019-05-08T08:09:05.000Z</Time>
            <Position>
              <LatitudeDegrees>42.95796596445143222808837890625</LatitudeDegrees>
              <LongitudeDegrees>0.64480681903660297393798828125</LongitudeDegrees>
            </Position>
            <AltitudeMeters>485.20001220703125</AltitudeMeters>
            <DistanceMeters>22655.455030746</DistanceMeters>
          </Trackpoint>
          <Trackpoint>
            <Time>2019-05-08T08:09:09.000Z</Time>
            <Position>
              <LatitudeDegrees>42.9581511206924915313720703125</LatitudeDegrees>
              <LongitudeDegrees>0.644979067146778106689453125</LongitudeDegrees>
            </Position>
            <AltitudeMeters>485</AltitudeMeters>
            <DistanceMeters>22680.386281253</DistanceMeters>
          </Trackpoint>
          <Trackpoint>
            <Time>2019-05-08T08:09:15.000Z</Time>
            <Position>
              <LatitudeDegrees>42.9584340937435626983642578125</LatitudeDegrees>
              <LongitudeDegrees>0.64524385146796703338623046875</LongitudeDegrees>
            </Position>
            <AltitudeMeters>484.399993896484375</AltitudeMeters>
            <DistanceMeters>22718.559116825</DistanceMeters>
          </Trackpoint>
          <Trackpoint>
            <Time>2019-05-08T08:09:16.000Z</Time>
            <Position>
              <LatitudeDegrees>42.958477847278118133544921875</LatitudeDegrees>
              <LongitudeDegrees>0.64529531635344028472900390625</LongitudeDegrees>
            </Position>
            <AltitudeMeters>484.399993896484375</AltitudeMeters>
            <DistanceMeters>22724.985902154</DistanceMeters>
          </Trackpoint>
          <Trackpoint>
            <Time>2019-05-08T08:09:17.000Z</Time>
            <Position>
              <LatitudeDegrees>42.9585179127752780914306640625</LatitudeDegrees>
              <LongitudeDegrees>0.645349211990833282470703125</LongitudeDegrees>
            </Position>
            <AltitudeMeters>484.399993896484375</AltitudeMeters>
            <DistanceMeters>22731.24325075</DistanceMeters>
          </Trackpoint>
          <Trackpoint>
            <Time>2019-05-08T08:09:19.000Z</Time>
            <Position>
              <LatitudeDegrees>42.95856912620365619659423828125</LatitudeDegrees>
              <LongitudeDegrees>0.645463876426219940185546875</LongitudeDegrees>
            </Position>
            <AltitudeMeters>484.20001220703125</AltitudeMeters>
            <DistanceMeters>22742.184948676</DistanceMeters>
          </Trackpoint>
          <Trackpoint>
            <Time>2019-05-08T08:09:20.000Z</Time>
            <Position>
              <LatitudeDegrees>42.95858773402869701385498046875</LatitudeDegrees>
              <LongitudeDegrees>0.64551676623523235321044921875</LongitudeDegrees>
            </Position>
            <AltitudeMeters>484.20001220703125</AltitudeMeters>
            <DistanceMeters>22746.964707394</DistanceMeters>
          </Trackpoint>
          <Trackpoint>
            <Time>2019-05-08T08:09:21.000Z</Time>
            <Position>
              <LatitudeDegrees>42.95861757360398769378662109375</LatitudeDegrees>
              <LongitudeDegrees>0.64556001685559749603271484375</LongitudeDegrees>
            </Position>
            <AltitudeMeters>484.20001220703125</AltitudeMeters>
            <DistanceMeters>22751.806409414</DistanceMeters>
          </Trackpoint>
          <Trackpoint>
            <Time>2019-05-08T08:09:24.000Z</Time>
            <Position>
              <LatitudeDegrees>42.95872586779296398162841796875</LatitudeDegrees>
              <LongitudeDegrees>0.6456672213971614837646484375</LongitudeDegrees>
            </Position>
            <AltitudeMeters>484.20001220703125</AltitudeMeters>
            <DistanceMeters>22766.690760104</DistanceMeters>
          </Trackpoint>
          <Trackpoint>
            <Time>2019-05-08T08:09:28.000Z</Time>
            <Position>
              <LatitudeDegrees>42.9588805139064788818359375</LatitudeDegrees>
              <LongitudeDegrees>0.64580015838146209716796875</LongitudeDegrees>
            </Position>
            <AltitudeMeters>484.399993896484375</AltitudeMeters>
            <DistanceMeters>22787.026032924</DistanceMeters>
          </Trackpoint>
          <Trackpoint>
            <Time>2019-05-08T08:09:29.000Z</Time>
            <Position>
              <LatitudeDegrees>42.95891731046140193939208984375</LatitudeDegrees>
              <LongitudeDegrees>0.64584131352603435516357421875</LongitudeDegrees>
            </Position>
            <AltitudeMeters>484.20001220703125</AltitudeMeters>
            <DistanceMeters>22792.319455938</DistanceMeters>
          </Trackpoint>
          <Trackpoint>
            <Time>2019-05-08T08:09:30.000Z</Time>
            <Position>
              <LatitudeDegrees>42.95894689857959747314453125</LatitudeDegrees>
              <LongitudeDegrees>0.64589277841150760650634765625</LongitudeDegrees>
            </Position>
            <AltitudeMeters>484.399993896484375</AltitudeMeters>
            <DistanceMeters>22797.650276754</DistanceMeters>
          </Trackpoint>
          <Trackpoint>
            <Time>2019-05-08T08:09:31.000Z</Time>
            <Position>
              <LatitudeDegrees>42.95897061936557292938232421875</LatitudeDegrees>
              <LongitudeDegrees>0.64595245756208896636962890625</LongitudeDegrees>
            </Position>
            <AltitudeMeters>484.399993896484375</AltitudeMeters>
            <DistanceMeters>22803.182268174</DistanceMeters>
          </Trackpoint>
          <Trackpoint>
            <Time>2019-05-08T08:09:33.000Z</Time>
            <Position>
              <LatitudeDegrees>42.95901806093752384185791015625</LatitudeDegrees>
              <LongitudeDegrees>0.64607600681483745574951171875</LongitudeDegrees>
            </Position>
            <AltitudeMeters>484.399993896484375</AltitudeMeters>
            <DistanceMeters>22814.547399649</DistanceMeters>
          </Trackpoint>
          <Trackpoint>
            <Time>2019-05-08T08:09:35.000Z</Time>
            <Position>
              <LatitudeDegrees>42.9590929113328456878662109375</LatitudeDegrees>
              <LongitudeDegrees>0.64617373980581760406494140625</LongitudeDegrees>
            </Position>
            <AltitudeMeters>484.399993896484375</AltitudeMeters>
            <DistanceMeters>22826.069952056</DistanceMeters>
          </Trackpoint>
          <Trackpoint>
            <Time>2019-05-08T08:09:41.000Z</Time>
            <Position>
              <LatitudeDegrees>42.95939080417156219482421875</LatitudeDegrees>
              <LongitudeDegrees>0.6463699601590633392333984375</LongitudeDegrees>
            </Position>
            <AltitudeMeters>484.600006103515625</AltitudeMeters>
            <DistanceMeters>22862.87732046</DistanceMeters>
          </Trackpoint>
          <Trackpoint>
            <Time>2019-05-08T08:09:42.000Z</Time>
            <Position>
              <LatitudeDegrees>42.95944469980895519256591796875</LatitudeDegrees>
              <LongitudeDegrees>0.64640055410563945770263671875</LongitudeDegrees>
            </Position>
            <AltitudeMeters>484.399993896484375</AltitudeMeters>
            <DistanceMeters>22869.372589288</DistanceMeters>
          </Trackpoint>
          <Trackpoint>
            <Time>2019-05-08T08:09:47.000Z</Time>
            <Position>
              <LatitudeDegrees>42.95972499065101146697998046875</LatitudeDegrees>
              <LongitudeDegrees>0.64652862958610057830810546875</LongitudeDegrees>
            </Position>
            <AltitudeMeters>484.399993896484375</AltitudeMeters>
            <DistanceMeters>22902.267483425</DistanceMeters>
          </Trackpoint>
          <Trackpoint>
            <Time>2019-05-08T08:09:54.000Z</Time>
            <Position>
              <LatitudeDegrees>42.960093878209590911865234375</LatitudeDegrees>
              <LongitudeDegrees>0.64667589962482452392578125</LongitudeDegrees>
            </Position>
            <AltitudeMeters>484.399993896484375</AltitudeMeters>
            <DistanceMeters>22945.041962135</DistanceMeters>
          </Trackpoint>
          <Trackpoint>
            <Time>2019-05-08T08:09:59.000Z</Time>
            <Position>
              <LatitudeDegrees>42.96032798476517200469970703125</LatitudeDegrees>
              <LongitudeDegrees>0.646758042275905609130859375</LongitudeDegrees>
            </Position>
            <AltitudeMeters>484.20001220703125</AltitudeMeters>
            <DistanceMeters>22971.943922596</DistanceMeters>
          </Trackpoint>
          <Trackpoint>
            <Time>2019-05-08T08:10:00.000Z</Time>
            <Position>
              <LatitudeDegrees>42.9603719897568225860595703125</LatitudeDegrees>
              <LongitudeDegrees>0.64676919020712375640869140625</LongitudeDegrees>
            </Position>
            <AltitudeMeters>484.20001220703125</AltitudeMeters>
            <DistanceMeters>22976.924446664</DistanceMeters>
          </Trackpoint>
          <Trackpoint>
            <Time>2019-05-08T08:10:02.000Z</Time>
            <Position>
              <LatitudeDegrees>42.9604589939117431640625</LatitudeDegrees>
              <LongitudeDegrees>0.64680037088692188262939453125</LongitudeDegrees>
            </Position>
            <AltitudeMeters>484</AltitudeMeters>
            <DistanceMeters>22986.935230268</DistanceMeters>
          </Trackpoint>
          <Trackpoint>
            <Time>2019-05-08T08:10:06.000Z</Time>
            <Position>
              <LatitudeDegrees>42.96065605245530605316162109375</LatitudeDegrees>
              <LongitudeDegrees>0.64685971476137638092041015625</LongitudeDegrees>
            </Position>
            <AltitudeMeters>484</AltitudeMeters>
            <DistanceMeters>23009.394528346</DistanceMeters>
          </Trackpoint>
          <Trackpoint>
            <Time>2019-05-08T08:10:08.000Z</Time>
            <Position>
              <LatitudeDegrees>42.960765101015567779541015625</LatitudeDegrees>
              <LongitudeDegrees>0.64688821323215961456298828125</LongitudeDegrees>
            </Position>
            <AltitudeMeters>484</AltitudeMeters>
            <DistanceMeters>23021.751655547</DistanceMeters>
          </Trackpoint>
          <Trackpoint>
            <Time>2019-05-08T08:10:14.000Z</Time>
            <Position>
              <LatitudeDegrees>42.96109090559184551239013671875</LatitudeDegrees>
              <LongitudeDegrees>0.6469771452248096466064453125</LongitudeDegrees>
            </Position>
            <AltitudeMeters>483.600006103515625</AltitudeMeters>
            <DistanceMeters>23058.730846942</DistanceMeters>
          </Trackpoint>
          <Trackpoint>
            <Time>2019-05-08T08:10:19.000Z</Time>
            <Position>
              <LatitudeDegrees>42.961298860609531402587890625</LatitudeDegrees>
              <LongitudeDegrees>0.64703506417572498321533203125</LongitudeDegrees>
            </Position>
            <AltitudeMeters>483.600006103515625</AltitudeMeters>
            <DistanceMeters>23082.352584466</DistanceMeters>
          </Trackpoint>
          <Trackpoint>
            <Time>2019-05-08T08:10:22.000Z</Time>
            <Position>
              <LatitudeDegrees>42.96135124750435352325439453125</LatitudeDegrees>
              <LongitudeDegrees>0.64704763703048229217529296875</LongitudeDegrees>
            </Position>
            <AltitudeMeters>483.600006103515625</AltitudeMeters>
            <DistanceMeters>23088.272527597</DistanceMeters>
          </Trackpoint>
          <Trackpoint>
            <Time>2019-05-08T08:10:24.000Z</Time>
            <Position>
              <LatitudeDegrees>42.96135141514241695404052734375</LatitudeDegrees>
              <LongitudeDegrees>0.64704746939241886138916015625</LongitudeDegrees>
            </Position>
            <AltitudeMeters>483.600006103515625</AltitudeMeters>
            <DistanceMeters>23088.272527597</DistanceMeters>
          </Trackpoint>
          <Trackpoint>
            <Time>2019-05-08T08:11:31.000Z</Time>
            <Position>
              <LatitudeDegrees>42.96137220226228237152099609375</LatitudeDegrees>
              <LongitudeDegrees>0.64704864285886287689208984375</LongitudeDegrees>
            </Position>
            <AltitudeMeters>484.600006103515625</AltitudeMeters>
            <DistanceMeters>23090.58657931</DistanceMeters>
          </Trackpoint>
          <Trackpoint>
            <Time>2019-05-08T08:11:33.000Z</Time>
            <Position>
              <LatitudeDegrees>42.961415536701679229736328125</LatitudeDegrees>
              <LongitudeDegrees>0.64705836586654186248779296875</LongitudeDegrees>
            </Position>
            <AltitudeMeters>484.399993896484375</AltitudeMeters>
            <DistanceMeters>23095.474685515</DistanceMeters>
          </Trackpoint>
          <Trackpoint>
            <Time>2019-05-08T08:11:37.000Z</Time>
            <Position>
              <LatitudeDegrees>42.96154034323990345001220703125</LatitudeDegrees>
              <LongitudeDegrees>0.6470894627273082733154296875</LongitudeDegrees>
            </Position>
            <AltitudeMeters>484.399993896484375</AltitudeMeters>
            <DistanceMeters>23109.595028566</DistanceMeters>
          </Trackpoint>
          <Trackpoint>
            <Time>2019-05-08T08:11:39.000Z</Time>
            <Position>
              <LatitudeDegrees>42.9616202227771282196044921875</LatitudeDegrees>
              <LongitudeDegrees>0.64710312522947788238525390625</LongitudeDegrees>
            </Position>
            <AltitudeMeters>484.399993896484375</AltitudeMeters>
            <DistanceMeters>23118.554793049</DistanceMeters>
          </Trackpoint>
          <Trackpoint>
            <Time>2019-05-08T08:11:43.000Z</Time>
            <Position>
              <LatitudeDegrees>42.96181241981685161590576171875</LatitudeDegrees>
              <LongitudeDegrees>0.64714939333498477935791015625</LongitudeDegrees>
            </Position>
            <AltitudeMeters>484.399993896484375</AltitudeMeters>
            <DistanceMeters>23140.276245445</DistanceMeters>
          </Trackpoint>
          <Trackpoint>
            <Time>2019-05-08T08:11:45.000Z</Time>
            <Position>
              <LatitudeDegrees>42.9619186185300350189208984375</LatitudeDegrees>
              <LongitudeDegrees>0.647188536822795867919921875</LongitudeDegrees>
            </Position>
            <AltitudeMeters>484.20001220703125</AltitudeMeters>
            <DistanceMeters>23152.518843569</DistanceMeters>
          </Trackpoint>
          <Trackpoint>
            <Time>2019-05-08T08:11:49.000Z</Time>
            <Position>
              <LatitudeDegrees>42.96208969317376613616943359375</LatitudeDegrees>
              <LongitudeDegrees>0.6472718529403209686279296875</LongitudeDegrees>
            </Position>
            <AltitudeMeters>484</AltitudeMeters>
            <DistanceMeters>23172.732971279</DistanceMeters>
          </Trackpoint>
          <Trackpoint>
            <Time>2019-05-08T08:11:51.000Z</Time>
            <Position>
              <LatitudeDegrees>42.9621740989387035369873046875</LatitudeDegrees>
              <LongitudeDegrees>0.6473030336201190948486328125</LongitudeDegrees>
            </Position>
            <AltitudeMeters>483.79998779296875</AltitudeMeters>
            <DistanceMeters>23182.46474613</DistanceMeters>
          </Trackpoint>
          <Trackpoint>
            <Time>2019-05-08T08:11:55.000Z</Time>
            <Position>
              <LatitudeDegrees>42.96235389076173305511474609375</LatitudeDegrees>
              <LongitudeDegrees>0.64736363478004932403564453125</LongitudeDegrees>
            </Position>
            <AltitudeMeters>483.79998779296875</AltitudeMeters>
            <DistanceMeters>23203.075687793</DistanceMeters>
          </Trackpoint>
          <Trackpoint>
            <Time>2019-05-08T08:11:58.000Z</Time>
            <Position>
              <LatitudeDegrees>42.9625019989907741546630859375</LatitudeDegrees>
              <LongitudeDegrees>0.6473908759653568267822265625</LongitudeDegrees>
            </Position>
            <AltitudeMeters>483.79998779296875</AltitudeMeters>
            <DistanceMeters>23219.708891997</DistanceMeters>
          </Trackpoint>
          <Trackpoint>
            <Time>2019-05-08T08:12:01.000Z</Time>
            <Position>
              <LatitudeDegrees>42.96265639364719390869140625</LatitudeDegrees>
              <LongitudeDegrees>0.6474197097122669219970703125</LongitudeDegrees>
            </Position>
            <AltitudeMeters>484</AltitudeMeters>
            <DistanceMeters>23237.053284942</DistanceMeters>
          </Trackpoint>
          <Trackpoint>
            <Time>2019-05-08T08:12:07.000Z</Time>
            <Position>
              <LatitudeDegrees>42.9629911668598651885986328125</LatitudeDegrees>
              <LongitudeDegrees>0.64746455289423465728759765625</LongitudeDegrees>
            </Position>
            <AltitudeMeters>484</AltitudeMeters>
            <DistanceMeters>23274.492845654</DistanceMeters>
          </Trackpoint>
          <Trackpoint>
            <Time>2019-05-08T08:12:17.000Z</Time>
            <Position>
              <LatitudeDegrees>42.963576056063175201416015625</LatitudeDegrees>
              <LongitudeDegrees>0.6474597752094268798828125</LongitudeDegrees>
            </Position>
            <AltitudeMeters>483.600006103515625</AltitudeMeters>
            <DistanceMeters>23339.593358304</DistanceMeters>
          </Trackpoint>
          <Trackpoint>
            <Time>2019-05-08T08:12:26.000Z</Time>
            <Position>
              <LatitudeDegrees>42.964114844799041748046875</LatitudeDegrees>
              <LongitudeDegrees>0.64735944382846355438232421875</LongitudeDegrees>
            </Position>
            <AltitudeMeters>483.600006103515625</AltitudeMeters>
            <DistanceMeters>23400.115752579</DistanceMeters>
          </Trackpoint>
          <Trackpoint>
            <Time>2019-05-08T08:12:35.000Z</Time>
            <Position>
              <LatitudeDegrees>42.964673750102519989013671875</LatitudeDegrees>
              <LongitudeDegrees>0.64725098200142383575439453125</LongitudeDegrees>
            </Position>
            <AltitudeMeters>483.399993896484375</AltitudeMeters>
            <DistanceMeters>23462.947168924</DistanceMeters>
          </Trackpoint>
          <Trackpoint>
            <Time>2019-05-08T08:12:36.000Z</Time>
            <Position>
              <LatitudeDegrees>42.964736111462116241455078125</LatitudeDegrees>
              <LongitudeDegrees>0.6472436897456645965576171875</LongitudeDegrees>
            </Position>
            <AltitudeMeters>483.600006103515625</AltitudeMeters>
            <DistanceMeters>23469.913346557</DistanceMeters>
          </Trackpoint>
          <Trackpoint>
            <Time>2019-05-08T08:12:44.000Z</Time>
            <Position>
              <LatitudeDegrees>42.9652207531034946441650390625</LatitudeDegrees>
              <LongitudeDegrees>0.647163726389408111572265625</LongitudeDegrees>
            </Position>
            <AltitudeMeters>483.399993896484375</AltitudeMeters>
            <DistanceMeters>23524.24669351</DistanceMeters>
          </Trackpoint>
          <Trackpoint>
            <Time>2019-05-08T08:12:54.000Z</Time>
            <Position>
              <LatitudeDegrees>42.96581201255321502685546875</LatitudeDegrees>
              <LongitudeDegrees>0.64707412384450435638427734375</LongitudeDegrees>
            </Position>
            <AltitudeMeters>483.399993896484375</AltitudeMeters>
            <DistanceMeters>23590.458427762</DistanceMeters>
          </Trackpoint>
          <Trackpoint>
            <Time>2019-05-08T08:12:55.000Z</Time>
            <Position>
              <LatitudeDegrees>42.965870685875415802001953125</LatitudeDegrees>
              <LongitudeDegrees>0.64706590957939624786376953125</LongitudeDegrees>
            </Position>
            <AltitudeMeters>483.20001220703125</AltitudeMeters>
            <DistanceMeters>23597.024216743</DistanceMeters>
          </Trackpoint>
          <Trackpoint>
            <Time>2019-05-08T08:12:58.000Z</Time>
            <Position>
              <LatitudeDegrees>42.96604913659393787384033203125</LatitudeDegrees>
              <LongitudeDegrees>0.6470374949276447296142578125</LongitudeDegrees>
            </Position>
            <AltitudeMeters>483.399993896484375</AltitudeMeters>
            <DistanceMeters>23617.020511023</DistanceMeters>
          </Trackpoint>
          <Trackpoint>
            <Time>2019-05-08T08:13:04.000Z</Time>
            <Position>
              <LatitudeDegrees>42.96640251763164997100830078125</LatitudeDegrees>
              <LongitudeDegrees>0.646997429430484771728515625</LongitudeDegrees>
            </Position>
            <AltitudeMeters>482.79998779296875</AltitudeMeters>
            <DistanceMeters>23656.487612086</DistanceMeters>
          </Trackpoint>
          <Trackpoint>
            <Time>2019-05-08T08:13:07.000Z</Time>
            <Position>
              <LatitudeDegrees>42.966572754085063934326171875</LatitudeDegrees>
              <LongitudeDegrees>0.646972618997097015380859375</LongitudeDegrees>
            </Position>
            <AltitudeMeters>482.600006103515625</AltitudeMeters>
            <DistanceMeters>23675.542778677</DistanceMeters>
          </Trackpoint>
          <Trackpoint>
            <Time>2019-05-08T08:13:13.000Z</Time>
            <Position>
              <LatitudeDegrees>42.96691867522895336151123046875</LatitudeDegrees>
              <LongitudeDegrees>0.64694738946855068206787109375</LongitudeDegrees>
            </Position>
            <AltitudeMeters>482.399993896484375</AltitudeMeters>
            <DistanceMeters>23714.099158106</DistanceMeters>
          </Trackpoint>
          <Trackpoint>
            <Time>2019-05-08T08:13:14.000Z</Time>
            <Position>
              <LatitudeDegrees>42.96697282232344150543212890625</LatitudeDegrees>
              <LongitudeDegrees>0.6469359062612056732177734375</LongitudeDegrees>
            </Position>
            <AltitudeMeters>482.399993896484375</AltitudeMeters>
            <DistanceMeters>23720.197919036</DistanceMeters>
          </Trackpoint>
          <Trackpoint>
            <Time>2019-05-08T08:13:16.000Z</Time>
            <Position>
              <LatitudeDegrees>42.96706770546734333038330078125</LatitudeDegrees>
              <LongitudeDegrees>0.64687781967222690582275390625</LongitudeDegrees>
            </Position>
            <AltitudeMeters>482.399993896484375</AltitudeMeters>
            <DistanceMeters>23731.770128577</DistanceMeters>
          </Trackpoint>
          <Trackpoint>
            <Time>2019-05-08T08:13:17.000Z</Time>
            <Position>
              <LatitudeDegrees>42.9671029932796955108642578125</LatitudeDegrees>
              <LongitudeDegrees>0.6468306295573711395263671875</LongitudeDegrees>
            </Position>
            <AltitudeMeters>482.600006103515625</AltitudeMeters>
            <DistanceMeters>23737.26609125</DistanceMeters>
          </Trackpoint>
          <Trackpoint>
            <Time>2019-05-08T08:13:19.000Z</Time>
            <Position>
              <LatitudeDegrees>42.96715789474546909332275390625</LatitudeDegrees>
              <LongitudeDegrees>0.646739266812801361083984375</LongitudeDegrees>
            </Position>
            <AltitudeMeters>482.399993896484375</AltitudeMeters>
            <DistanceMeters>23746.894787675</DistanceMeters>
          </Trackpoint>
          <Trackpoint>
            <Time>2019-05-08T08:13:20.000Z</Time>
            <Position>
              <LatitudeDegrees>42.9671827889978885650634765625</LatitudeDegrees>
              <LongitudeDegrees>0.6466981954872608184814453125</LongitudeDegrees>
            </Position>
            <AltitudeMeters>482.399993896484375</AltitudeMeters>
            <DistanceMeters>23751.238038726</DistanceMeters>
          </Trackpoint>
          <Trackpoint>
            <Time>2019-05-08T08:13:21.000Z</Time>
            <Position>
              <LatitudeDegrees>42.9672042466700077056884765625</LatitudeDegrees>
              <LongitudeDegrees>0.64665234647691249847412109375</LongitudeDegrees>
            </Position>
            <AltitudeMeters>482.20001220703125</AltitudeMeters>
            <DistanceMeters>23755.670808328</DistanceMeters>
          </Trackpoint>
          <Trackpoint>
            <Time>2019-05-08T08:13:22.000Z</Time>
            <Position>
              <LatitudeDegrees>42.9672233574092388153076171875</LatitudeDegrees>
              <LongitudeDegrees>0.64660037867724895477294921875</LongitudeDegrees>
            </Position>
            <AltitudeMeters>482.20001220703125</AltitudeMeters>
            <DistanceMeters>23760.406915367</DistanceMeters>
          </Trackpoint>
          <Trackpoint>
            <Time>2019-05-08T08:13:23.000Z</Time>
            <Position>
              <LatitudeDegrees>42.967246659100055694580078125</LatitudeDegrees>
              <LongitudeDegrees>0.6465473212301731109619140625</LongitudeDegrees>
            </Position>
            <AltitudeMeters>482.20001220703125</AltitudeMeters>
            <DistanceMeters>23765.446019946</DistanceMeters>
          </Trackpoint>
          <Trackpoint>
            <Time>2019-05-08T08:13:25.000Z</Time>
            <Position>
              <LatitudeDegrees>42.96728395856916904449462890625</LatitudeDegrees>
              <LongitudeDegrees>0.646422766149044036865234375</LongitudeDegrees>
            </Position>
            <AltitudeMeters>482.20001220703125</AltitudeMeters>
            <DistanceMeters>23776.406683111</DistanceMeters>
          </Trackpoint>
          <Trackpoint>
            <Time>2019-05-08T08:13:26.000Z</Time>
            <Position>
              <LatitudeDegrees>42.96728982590138912200927734375</LatitudeDegrees>
              <LongitudeDegrees>0.64635026268661022186279296875</LongitudeDegrees>
            </Position>
            <AltitudeMeters>482</AltitudeMeters>
            <DistanceMeters>23782.347942979</DistanceMeters>
          </Trackpoint>
          <Trackpoint>
            <Time>2019-05-08T08:13:29.000Z</Time>
            <Position>
              <LatitudeDegrees>42.96728228218853473663330078125</LatitudeDegrees>
              <LongitudeDegrees>0.6461191736161708831787109375</LongitudeDegrees>
            </Position>
            <AltitudeMeters>482.20001220703125</AltitudeMeters>
            <DistanceMeters>23801.187453446</DistanceMeters>
          </Trackpoint>
          <Trackpoint>
            <Time>2019-05-08T08:13:30.000Z</Time>
            <Position>
              <LatitudeDegrees>42.96727783977985382080078125</LatitudeDegrees>
              <LongitudeDegrees>0.6460403837263584136962890625</LongitudeDegrees>
            </Position>
            <AltitudeMeters>482.20001220703125</AltitudeMeters>
            <DistanceMeters>23807.624066742</DistanceMeters>
          </Trackpoint>
          <Trackpoint>
            <Time>2019-05-08T08:13:33.000Z</Time>
            <Position>
              <LatitudeDegrees>42.9672625847160816192626953125</LatitudeDegrees>
              <LongitudeDegrees>0.6458021700382232666015625</LongitudeDegrees>
            </Position>
            <AltitudeMeters>481.79998779296875</AltitudeMeters>
            <DistanceMeters>23827.099675358</DistanceMeters>
          </Trackpoint>
          <Trackpoint>
            <Time>2019-05-08T08:13:37.000Z</Time>
            <Position>
              <LatitudeDegrees>42.96724238432943820953369140625</LatitudeDegrees>
              <LongitudeDegrees>0.6454791314899921417236328125</LongitudeDegrees>
            </Position>
            <AltitudeMeters>481.600006103515625</AltitudeMeters>
            <DistanceMeters>23853.505477423</DistanceMeters>
          </Trackpoint>
          <Trackpoint>
            <Time>2019-05-08T08:13:44.000Z</Time>
            <Position>
              <LatitudeDegrees>42.96721489168703556060791015625</LatitudeDegrees>
              <LongitudeDegrees>0.6449084915220737457275390625</LongitudeDegrees>
            </Position>
            <AltitudeMeters>481.600006103515625</AltitudeMeters>
            <DistanceMeters>23900.081559101</DistanceMeters>
          </Trackpoint>
          <Trackpoint>
            <Time>2019-05-08T08:13:52.000Z</Time>
            <Position>
              <LatitudeDegrees>42.9671871475875377655029296875</LatitudeDegrees>
              <LongitudeDegrees>0.6442587263882160186767578125</LongitudeDegrees>
            </Position>
            <AltitudeMeters>481.600006103515625</AltitudeMeters>
            <DistanceMeters>23953.091306962</DistanceMeters>
          </Trackpoint>
          <Trackpoint>
            <Time>2019-05-08T08:14:02.000Z</Time>
            <Position>
              <LatitudeDegrees>42.967156469821929931640625</LatitudeDegrees>
              <LongitudeDegrees>0.6434453465044498443603515625</LongitudeDegrees>
            </Position>
            <AltitudeMeters>481.79998779296875</AltitudeMeters>
            <DistanceMeters>24019.424582239</DistanceMeters>
          </Trackpoint>
          <Trackpoint>
            <Time>2019-05-08T08:14:03.000Z</Time>
            <Position>
              <LatitudeDegrees>42.9671529494225978851318359375</LatitudeDegrees>
              <LongitudeDegrees>0.643363036215305328369140625</LongitudeDegrees>
            </Position>
            <AltitudeMeters>481.79998779296875</AltitudeMeters>
            <DistanceMeters>24026.138607977</DistanceMeters>
          </Trackpoint>
          <Trackpoint>
            <Time>2019-05-08T08:14:12.000Z</Time>
            <Position>
              <LatitudeDegrees>42.967120595276355743408203125</LatitudeDegrees>
              <LongitudeDegrees>0.642617382109165191650390625</LongitudeDegrees>
            </Position>
            <AltitudeMeters>482.20001220703125</AltitudeMeters>
            <DistanceMeters>24086.974781765</DistanceMeters>
          </Trackpoint>
          <Trackpoint>
            <Time>2019-05-08T08:14:19.000Z</Time>
            <Position>
              <LatitudeDegrees>42.96706066466867923736572265625</LatitudeDegrees>
              <LongitudeDegrees>0.642067529261112213134765625</LongitudeDegrees>
            </Position>
            <AltitudeMeters>482.399993896484375</AltitudeMeters>
            <DistanceMeters>24132.251496134</DistanceMeters>
          </Trackpoint>
          <Trackpoint>
            <Time>2019-05-08T08:14:24.000Z</Time>
            <Position>
              <LatitudeDegrees>42.966975085437297821044921875</LatitudeDegrees>
              <LongitudeDegrees>0.6417156569659709930419921875</LongitudeDegrees>
            </Position>
            <AltitudeMeters>482.600006103515625</AltitudeMeters>
            <DistanceMeters>24162.451159389</DistanceMeters>
          </Trackpoint>
          <Trackpoint>
            <Time>2019-05-08T08:14:26.000Z</Time>
            <Position>
              <LatitudeDegrees>42.9669266380369663238525390625</LatitudeDegrees>
              <LongitudeDegrees>0.64157165586948394775390625</LongitudeDegrees>
            </Position>
            <AltitudeMeters>482.600006103515625</AltitudeMeters>
            <DistanceMeters>24175.359411422</DistanceMeters>
          </Trackpoint>
          <Trackpoint>
            <Time>2019-05-08T08:14:33.000Z</Time>
            <Position>
              <LatitudeDegrees>42.96676428057253360748291015625</LatitudeDegrees>
              <LongitudeDegrees>0.64106832258403301239013671875</LongitudeDegrees>
            </Position>
            <AltitudeMeters>483.20001220703125</AltitudeMeters>
            <DistanceMeters>24220.1596448</DistanceMeters>
          </Trackpoint>
          <Trackpoint>
            <Time>2019-05-08T08:14:39.000Z</Time>
            <Position>
              <LatitudeDegrees>42.966609299182891845703125</LatitudeDegrees>
              <LongitudeDegrees>0.64064495265483856201171875</LongitudeDegrees>
            </Position>
            <AltitudeMeters>483.399993896484375</AltitudeMeters>
            <DistanceMeters>24258.715204505</DistanceMeters>
          </Trackpoint>
          <Trackpoint>
            <Time>2019-05-08T08:14:40.000Z</Time>
            <Position>
              <LatitudeDegrees>42.96657535247504711151123046875</LatitudeDegrees>
              <LongitudeDegrees>0.64058083109557628631591796875</LongitudeDegrees>
            </Position>
            <AltitudeMeters>483.20001220703125</AltitudeMeters>
            <DistanceMeters>24265.161630786</DistanceMeters>
          </Trackpoint>
          <Trackpoint>
            <Time>2019-05-08T08:14:42.000Z</Time>
            <Position>
              <LatitudeDegrees>42.9664979875087738037109375</LatitudeDegrees>
              <LongitudeDegrees>0.64045979641377925872802734375</LongitudeDegrees>
            </Position>
            <AltitudeMeters>483.20001220703125</AltitudeMeters>
            <DistanceMeters>24278.250504317</DistanceMeters>
          </Trackpoint>
          <Trackpoint>
            <Time>2019-05-08T08:14:45.000Z</Time>
            <Position>
              <LatitudeDegrees>42.9663710854947566986083984375</LatitudeDegrees>
              <LongitudeDegrees>0.6402887217700481414794921875</LongitudeDegrees>
            </Position>
            <AltitudeMeters>483.399993896484375</AltitudeMeters>
            <DistanceMeters>24298.090616773</DistanceMeters>
          </Trackpoint>
          <Trackpoint>
            <Time>2019-05-08T08:14:53.000Z</Time>
            <Position>
              <LatitudeDegrees>42.96604980714619159698486328125</LatitudeDegrees>
              <LongitudeDegrees>0.639873482286930084228515625</LongitudeDegrees>
            </Position>
            <AltitudeMeters>483.399993896484375</AltitudeMeters>
            <DistanceMeters>24347.308951031</DistanceMeters>
          </Trackpoint>
          <Trackpoint>
            <Time>2019-05-08T08:14:54.000Z</Time>
            <Position>
              <LatitudeDegrees>42.9660086520016193389892578125</LatitudeDegrees>
              <LongitudeDegrees>0.63982143066823482513427734375</LongitudeDegrees>
            </Position>
            <AltitudeMeters>483.399993896484375</AltitudeMeters>
            <DistanceMeters>24353.549681734</DistanceMeters>
          </Trackpoint>
          <Trackpoint>
            <Time>2019-05-08T08:14:58.000Z</Time>
            <Position>
              <LatitudeDegrees>42.96584730036556720733642578125</LatitudeDegrees>
              <LongitudeDegrees>0.63958707265555858612060546875</LongitudeDegrees>
            </Position>
            <AltitudeMeters>483.20001220703125</AltitudeMeters>
            <DistanceMeters>24379.757594748</DistanceMeters>
          </Trackpoint>
          <Trackpoint>
            <Time>2019-05-08T08:15:00.000Z</Time>
            <Position>
              <LatitudeDegrees>42.9657729528844356536865234375</LatitudeDegrees>
              <LongitudeDegrees>0.63947995193302631378173828125</LongitudeDegrees>
            </Position>
            <AltitudeMeters>483.20001220703125</AltitudeMeters>
            <DistanceMeters>24391.782511134</DistanceMeters>
          </Trackpoint>
          <Trackpoint>
            <Time>2019-05-08T08:15:04.000Z</Time>
            <Position>
              <LatitudeDegrees>42.96563607640564441680908203125</LatitudeDegrees>
              <LongitudeDegrees>0.639290101826190948486328125</LongitudeDegrees>
            </Position>
            <AltitudeMeters>483.20001220703125</AltitudeMeters>
            <DistanceMeters>24413.489408399</DistanceMeters>
          </Trackpoint>
          <Trackpoint>
            <Time>2019-05-08T08:15:08.000Z</Time>
            <Position>
              <LatitudeDegrees>42.96549961902201175689697265625</LatitudeDegrees>
              <LongitudeDegrees>0.63909388147294521331787109375</LongitudeDegrees>
            </Position>
            <AltitudeMeters>483.600006103515625</AltitudeMeters>
            <DistanceMeters>24435.536630103</DistanceMeters>
          </Trackpoint>
          <Trackpoint>
            <Time>2019-05-08T08:15:13.000Z</Time>
            <Position>
              <LatitudeDegrees>42.96532829292118549346923828125</LatitudeDegrees>
              <LongitudeDegrees>0.63885399140417575836181640625</LongitudeDegrees>
            </Position>
            <AltitudeMeters>484.20001220703125</AltitudeMeters>
            <DistanceMeters>24462.838253315</DistanceMeters>
          </Trackpoint>
          <Trackpoint>
            <Time>2019-05-08T08:15:14.000Z</Time>
            <Position>
              <LatitudeDegrees>42.96529660932719707489013671875</LatitudeDegrees>
              <LongitudeDegrees>0.63879682682454586029052734375</LongitudeDegrees>
            </Position>
            <AltitudeMeters>484.20001220703125</AltitudeMeters>
            <DistanceMeters>24468.679111883</DistanceMeters>
          </Trackpoint>
          <Trackpoint>
            <Time>2019-05-08T08:15:15.000Z</Time>
            <Position>
              <LatitudeDegrees>42.9652707092463970184326171875</LatitudeDegrees>
              <LongitudeDegrees>0.6387323699891567230224609375</LongitudeDegrees>
            </Position>
            <AltitudeMeters>484.399993896484375</AltitudeMeters>
            <DistanceMeters>24474.668057001</DistanceMeters>
          </Trackpoint>
          <Trackpoint>
            <Time>2019-05-08T08:15:16.000Z</Time>
            <Position>
              <LatitudeDegrees>42.9652499221265316009521484375</LatitudeDegrees>
              <LongitudeDegrees>0.6386633031070232391357421875</LongitudeDegrees>
            </Position>
            <AltitudeMeters>484.20001220703125</AltitudeMeters>
            <DistanceMeters>24480.750509072</DistanceMeters>
          </Trackpoint>
          <Trackpoint>
            <Time>2019-05-08T08:15:17.000Z</Time>
            <Position>
              <LatitudeDegrees>42.9652355052530765533447265625</LatitudeDegrees>
              <LongitudeDegrees>0.6385910511016845703125</LongitudeDegrees>
            </Position>
            <AltitudeMeters>484.20001220703125</AltitudeMeters>
            <DistanceMeters>24486.850010277</DistanceMeters>
          </Trackpoint>
          <Trackpoint>
            <Time>2019-05-08T08:15:18.000Z</Time>
            <Position>
              <LatitudeDegrees>42.96522737480700016021728515625</LatitudeDegrees>
              <LongitudeDegrees>0.638514272868633270263671875</LongitudeDegrees>
            </Position>
            <AltitudeMeters>484.20001220703125</AltitudeMeters>
            <DistanceMeters>24493.169108158</DistanceMeters>
          </Trackpoint>
          <Trackpoint>
            <Time>2019-05-08T08:15:22.000Z</Time>
            <Position>
              <LatitudeDegrees>42.965233661234378814697265625</LatitudeDegrees>
              <LongitudeDegrees>0.638191401958465576171875</LongitudeDegrees>
            </Position>
            <AltitudeMeters>484.20001220703125</AltitudeMeters>
            <DistanceMeters>24519.475551064</DistanceMeters>
          </Trackpoint>
          <Trackpoint>
            <Time>2019-05-08T08:15:26.000Z</Time>
            <Position>
              <LatitudeDegrees>42.96528738923370838165283203125</LatitudeDegrees>
              <LongitudeDegrees>0.63787330873310565948486328125</LongitudeDegrees>
            </Position>
            <AltitudeMeters>483.600006103515625</AltitudeMeters>
            <DistanceMeters>24546.064698191</DistanceMeters>
          </Trackpoint>
          <Trackpoint>
            <Time>2019-05-08T08:15:29.000Z</Time>
            <Position>
              <LatitudeDegrees>42.96532653272151947021484375</LatitudeDegrees>
              <LongitudeDegrees>0.6376360170543193817138671875</LongitudeDegrees>
            </Position>
            <AltitudeMeters>483</AltitudeMeters>
            <DistanceMeters>24565.876343825</DistanceMeters>
          </Trackpoint>
          <Trackpoint>
            <Time>2019-05-08T08:15:30.000Z</Time>
            <Position>
              <LatitudeDegrees>42.96534036286175251007080078125</LatitudeDegrees>
              <LongitudeDegrees>0.63755781389772891998291015625</LongitudeDegrees>
            </Position>
            <AltitudeMeters>483.20001220703125</AltitudeMeters>
            <DistanceMeters>24572.429743215</DistanceMeters>
          </Trackpoint>
          <Trackpoint>
            <Time>2019-05-08T08:15:34.000Z</Time>
            <Position>
              <LatitudeDegrees>42.96539518050849437713623046875</LatitudeDegrees>
              <LongitudeDegrees>0.63723427243530750274658203125</LongitudeDegrees>
            </Position>
            <AltitudeMeters>483</AltitudeMeters>
            <DistanceMeters>24599.478492791</DistanceMeters>
          </Trackpoint>
          <Trackpoint>
            <Time>2019-05-08T08:15:39.000Z</Time>
            <Position>
              <LatitudeDegrees>42.96546307392418384552001953125</LatitudeDegrees>
              <LongitudeDegrees>0.63682825304567813873291015625</LongitudeDegrees>
            </Position>
            <AltitudeMeters>482.79998779296875</AltitudeMeters>
            <DistanceMeters>24633.399968599</DistanceMeters>
          </Trackpoint>
          <Trackpoint>
            <Time>2019-05-08T08:15:48.000Z</Time>
            <Position>
              <LatitudeDegrees>42.96559634618461132049560546875</LatitudeDegrees>
              <LongitudeDegrees>0.63609198667109012603759765625</LongitudeDegrees>
            </Position>
            <AltitudeMeters>482.600006103515625</AltitudeMeters>
            <DistanceMeters>24695.173911362</DistanceMeters>
          </Trackpoint>
          <Trackpoint>
            <Time>2019-05-08T08:15:50.000Z</Time>
            <Position>
              <LatitudeDegrees>42.9656257666647434234619140625</LatitudeDegrees>
              <LongitudeDegrees>0.6359297968447208404541015625</LongitudeDegrees>
            </Position>
            <AltitudeMeters>482.600006103515625</AltitudeMeters>
            <DistanceMeters>24708.783647877</DistanceMeters>
          </Trackpoint>
          <Trackpoint>
            <Time>2019-05-08T08:15:59.000Z</Time>
            <Position>
              <LatitudeDegrees>42.96575032174587249755859375</LatitudeDegrees>
              <LongitudeDegrees>0.635208785533905029296875</LongitudeDegrees>
            </Position>
            <AltitudeMeters>482.399993896484375</AltitudeMeters>
            <DistanceMeters>24769.121795348</DistanceMeters>
          </Trackpoint>
          <Trackpoint>
            <Time>2019-05-08T08:16:09.000Z</Time>
            <Position>
              <LatitudeDegrees>42.96589038334786891937255859375</LatitudeDegrees>
              <LongitudeDegrees>0.63443052582442760467529296875</LongitudeDegrees>
            </Position>
            <AltitudeMeters>482.399993896484375</AltitudeMeters>
            <DistanceMeters>24834.397055825</DistanceMeters>
          </Trackpoint>
          <Trackpoint>
            <Time>2019-05-08T08:16:10.000Z</Time>
            <Position>
              <LatitudeDegrees>42.96590454876422882080078125</LatitudeDegrees>
              <LongitudeDegrees>0.63435274176299571990966796875</LongitudeDegrees>
            </Position>
            <AltitudeMeters>482.399993896484375</AltitudeMeters>
            <DistanceMeters>24840.924222183</DistanceMeters>
          </Trackpoint>
          <Trackpoint>
            <Time>2019-05-08T08:16:17.000Z</Time>
            <Position>
              <LatitudeDegrees>42.96600739471614360809326171875</LatitudeDegrees>
              <LongitudeDegrees>0.6337939202785491943359375</LongitudeDegrees>
            </Position>
            <AltitudeMeters>482.399993896484375</AltitudeMeters>
            <DistanceMeters>24887.855587341</DistanceMeters>
          </Trackpoint>
          <Trackpoint>
            <Time>2019-05-08T08:16:22.000Z</Time>
            <Position>
              <LatitudeDegrees>42.9660797305405139923095703125</LatitudeDegrees>
              <LongitudeDegrees>0.633383207023143768310546875</LongitudeDegrees>
            </Position>
            <AltitudeMeters>482.399993896484375</AltitudeMeters>
            <DistanceMeters>24922.261819936</DistanceMeters>
          </Trackpoint>
          <Trackpoint>
            <Time>2019-05-08T08:16:28.000Z</Time>
            <Position>
              <LatitudeDegrees>42.96612826175987720489501953125</LatitudeDegrees>
              <LongitudeDegrees>0.6329481862485408782958984375</LongitudeDegrees>
            </Position>
            <AltitudeMeters>482.399993896484375</AltitudeMeters>
            <DistanceMeters>24958.1018857</DistanceMeters>
          </Trackpoint>
          <Trackpoint>
            <Time>2019-05-08T08:16:30.000Z</Time>
            <Position>
              <LatitudeDegrees>42.96613077633082866668701171875</LatitudeDegrees>
              <LongitudeDegrees>0.632816590368747711181640625</LongitudeDegrees>
            </Position>
            <AltitudeMeters>482.399993896484375</AltitudeMeters>
            <DistanceMeters>24968.823072344</DistanceMeters>
          </Trackpoint>
          <Trackpoint>
            <Time>2019-05-08T08:16:31.000Z</Time>
            <Position>
              <LatitudeDegrees>42.9661286808550357818603515625</LatitudeDegrees>
              <LongitudeDegrees>0.6327523849904537200927734375</LongitudeDegrees>
            </Position>
            <AltitudeMeters>482.399993896484375</AltitudeMeters>
            <DistanceMeters>24974.055585295</DistanceMeters>
          </Trackpoint>
          <Trackpoint>
            <Time>2019-05-08T08:16:36.000Z</Time>
            <Position>
              <LatitudeDegrees>42.96612507663667201995849609375</LatitudeDegrees>
              <LongitudeDegrees>0.6324345432221889495849609375</LongitudeDegrees>
            </Position>
            <AltitudeMeters>482.600006103515625</AltitudeMeters>
            <DistanceMeters>24999.945438796</DistanceMeters>
          </Trackpoint>
          <Trackpoint>
            <Time>2019-05-08T08:16:44.000Z</Time>
            <Position>
              <LatitudeDegrees>42.96611200086772441864013671875</LatitudeDegrees>
              <LongitudeDegrees>0.6319083273410797119140625</LongitudeDegrees>
            </Position>
            <AltitudeMeters>484</AltitudeMeters>
            <DistanceMeters>25042.828290234</DistanceMeters>
          </Trackpoint>
          <Trackpoint>
            <Time>2019-05-08T08:16:51.000Z</Time>
            <Position>
              <LatitudeDegrees>42.96609439887106418609619140625</LatitudeDegrees>
              <LongitudeDegrees>0.6314505077898502349853515625</LongitudeDegrees>
            </Position>
            <AltitudeMeters>484.20001220703125</AltitudeMeters>
            <DistanceMeters>25080.167138938</DistanceMeters>
          </Trackpoint>
          <Trackpoint>
            <Time>2019-05-08T08:16:53.000Z</Time>
            <Position>
              <LatitudeDegrees>42.9660928063094615936279296875</LatitudeDegrees>
              <LongitudeDegrees>0.631317906081676483154296875</LongitudeDegrees>
            </Position>
            <AltitudeMeters>484.20001220703125</AltitudeMeters>
            <DistanceMeters>25090.968462359</DistanceMeters>
          </Trackpoint>
          <Trackpoint>
            <Time>2019-05-08T08:17:03.000Z</Time>
            <Position>
              <LatitudeDegrees>42.96607813797891139984130859375</LatitudeDegrees>
              <LongitudeDegrees>0.6306508742272853851318359375</LongitudeDegrees>
            </Position>
            <AltitudeMeters>484.20001220703125</AltitudeMeters>
            <DistanceMeters>25145.320087982</DistanceMeters>
          </Trackpoint>
          <Trackpoint>
            <Time>2019-05-08T08:17:07.000Z</Time>
            <Position>
              <LatitudeDegrees>42.9660586081445217132568359375</LatitudeDegrees>
              <LongitudeDegrees>0.63042749650776386260986328125</LongitudeDegrees>
            </Position>
            <AltitudeMeters>484.20001220703125</AltitudeMeters>
            <DistanceMeters>25163.642510092</DistanceMeters>
          </Trackpoint>
          <Trackpoint>
            <Time>2019-05-08T08:17:09.000Z</Time>
            <Position>
              <LatitudeDegrees>42.9660532437264919281005859375</LatitudeDegrees>
              <LongitudeDegrees>0.6303226388990879058837890625</LongitudeDegrees>
            </Position>
            <AltitudeMeters>484.399993896484375</AltitudeMeters>
            <DistanceMeters>25172.203357037</DistanceMeters>
          </Trackpoint>
          <Trackpoint>
            <Time>2019-05-08T08:17:12.000Z</Time>
            <Position>
              <LatitudeDegrees>42.96604444272816181182861328125</LatitudeDegrees>
              <LongitudeDegrees>0.63014653511345386505126953125</LongitudeDegrees>
            </Position>
            <AltitudeMeters>484.20001220703125</AltitudeMeters>
            <DistanceMeters>25186.579740089</DistanceMeters>
          </Trackpoint>
          <Trackpoint>
            <Time>2019-05-08T08:17:14.000Z</Time>
            <Position>
              <LatitudeDegrees>42.96602298505604267120361328125</LatitudeDegrees>
              <LongitudeDegrees>0.6300259195268154144287109375</LongitudeDegrees>
            </Position>
            <AltitudeMeters>484.399993896484375</AltitudeMeters>
            <DistanceMeters>25196.690153797</DistanceMeters>
          </Trackpoint>
          <Trackpoint>
            <Time>2019-05-08T08:17:15.000Z</Time>
            <Position>
              <LatitudeDegrees>42.9660130105912685394287109375</LatitudeDegrees>
              <LongitudeDegrees>0.62996615655720233917236328125</LongitudeDegrees>
            </Position>
            <AltitudeMeters>484.399993896484375</AltitudeMeters>
            <DistanceMeters>25201.682448959</DistanceMeters>
          </Trackpoint>
          <Trackpoint>
            <Time>2019-05-08T08:17:17.000Z</Time>
            <Position>
              <LatitudeDegrees>42.96601443551480770111083984375</LatitudeDegrees>
              <LongitudeDegrees>0.6298599578440189361572265625</LongitudeDegrees>
            </Position>
            <AltitudeMeters>484.20001220703125</AltitudeMeters>
            <DistanceMeters>25210.333534068</DistanceMeters>
          </Trackpoint>
          <Trackpoint>
            <Time>2019-05-08T08:17:19.000Z</Time>
            <Position>
              <LatitudeDegrees>42.966038994491100311279296875</LatitudeDegrees>
              <LongitudeDegrees>0.62978326342999935150146484375</LongitudeDegrees>
            </Position>
            <AltitudeMeters>484.20001220703125</AltitudeMeters>
            <DistanceMeters>25217.151659436</DistanceMeters>
          </Trackpoint>
          <Trackpoint>
            <Time>2019-05-08T08:17:21.000Z</Time>
            <Position>
              <LatitudeDegrees>42.96611300669610500335693359375</LatitudeDegrees>
              <LongitudeDegrees>0.62974755652248859405517578125</LongitudeDegrees>
            </Position>
            <AltitudeMeters>484.20001220703125</AltitudeMeters>
            <DistanceMeters>25225.887917566</DistanceMeters>
          </Trackpoint>
          <Trackpoint>
            <Time>2019-05-08T08:17:23.000Z</Time>
            <Position>
              <LatitudeDegrees>42.96619934029877185821533203125</LatitudeDegrees>
              <LongitudeDegrees>0.62970413826406002044677734375</LongitudeDegrees>
            </Position>
            <AltitudeMeters>484.399993896484375</AltitudeMeters>
            <DistanceMeters>25236.127018479</DistanceMeters>
          </Trackpoint>
          <Trackpoint>
            <Time>2019-05-08T08:17:25.000Z</Time>
            <Position>
              <LatitudeDegrees>42.9662802256643772125244140625</LatitudeDegrees>
              <LongitudeDegrees>0.6296524219214916229248046875</LongitudeDegrees>
            </Position>
            <AltitudeMeters>484.20001220703125</AltitudeMeters>
            <DistanceMeters>25246.066285871</DistanceMeters>
          </Trackpoint>
          <Trackpoint>
            <Time>2019-05-08T08:17:27.000Z</Time>
            <Position>
              <LatitudeDegrees>42.9663298465311527252197265625</LatitudeDegrees>
              <LongitudeDegrees>0.62955192290246486663818359375</LongitudeDegrees>
            </Position>
            <AltitudeMeters>484.20001220703125</AltitudeMeters>
            <DistanceMeters>25255.940380025</DistanceMeters>
          </Trackpoint>
          <Trackpoint>
            <Time>2019-05-08T08:17:30.000Z</Time>
            <Position>
              <LatitudeDegrees>42.966309897601604461669921875</LatitudeDegrees>
              <LongitudeDegrees>0.62935955822467803955078125</LongitudeDegrees>
            </Position>
            <AltitudeMeters>483.79998779296875</AltitudeMeters>
            <DistanceMeters>25271.764539396</DistanceMeters>
          </Trackpoint>
          <Trackpoint>
            <Time>2019-05-08T08:17:31.000Z</Time>
            <Position>
              <LatitudeDegrees>42.9663067124783992767333984375</LatitudeDegrees>
              <LongitudeDegrees>0.629293508827686309814453125</LongitudeDegrees>
            </Position>
            <AltitudeMeters>483.79998779296875</AltitudeMeters>
            <DistanceMeters>25277.156834469</DistanceMeters>
          </Trackpoint>
          <Trackpoint>
            <Time>2019-05-08T08:17:36.000Z</Time>
            <Position>
              <LatitudeDegrees>42.9663144238293170928955078125</LatitudeDegrees>
              <LongitudeDegrees>0.6289704702794551849365234375</LongitudeDegrees>
            </Position>
            <AltitudeMeters>483.79998779296875</AltitudeMeters>
            <DistanceMeters>25303.480949577</DistanceMeters>
          </Trackpoint>
          <Trackpoint>
            <Time>2019-05-08T08:17:39.000Z</Time>
            <Position>
              <LatitudeDegrees>42.9663315229117870330810546875</LatitudeDegrees>
              <LongitudeDegrees>0.62877290882170200347900390625</LongitudeDegrees>
            </Position>
            <AltitudeMeters>483.79998779296875</AltitudeMeters>
            <DistanceMeters>25319.683492044</DistanceMeters>
          </Trackpoint>
          <Trackpoint>
            <Time>2019-05-08T08:17:48.000Z</Time>
            <Position>
              <LatitudeDegrees>42.96636848710477352142333984375</LatitudeDegrees>
              <LongitudeDegrees>0.62817712314426898956298828125</LongitudeDegrees>
            </Position>
            <AltitudeMeters>483.79998779296875</AltitudeMeters>
            <DistanceMeters>25368.381693202</DistanceMeters>
          </Trackpoint>
          <Trackpoint>
            <Time>2019-05-08T08:17:51.000Z</Time>
            <Position>
              <LatitudeDegrees>42.96636446379125118255615234375</LatitudeDegrees>
              <LongitudeDegrees>0.62798048369586467742919921875</LongitudeDegrees>
            </Position>
            <AltitudeMeters>484</AltitudeMeters>
            <DistanceMeters>25384.403490325</DistanceMeters>
          </Trackpoint>
          <Trackpoint>
            <Time>2019-05-08T08:17:55.000Z</Time>
            <Position>
              <LatitudeDegrees>42.96632473357021808624267578125</LatitudeDegrees>
              <LongitudeDegrees>0.6277222372591495513916015625</LongitudeDegrees>
            </Position>
            <AltitudeMeters>484.20001220703125</AltitudeMeters>
            <DistanceMeters>25405.89634008</DistanceMeters>
          </Trackpoint>
          <Trackpoint>
            <Time>2019-05-08T08:18:02.000Z</Time>
            <Position>
              <LatitudeDegrees>42.96626404859125614166259765625</LatitudeDegrees>
              <LongitudeDegrees>0.62725176103413105010986328125</LongitudeDegrees>
            </Position>
            <AltitudeMeters>484.399993896484375</AltitudeMeters>
            <DistanceMeters>25444.8053413</DistanceMeters>
          </Trackpoint>
          <Trackpoint>
            <Time>2019-05-08T08:18:11.000Z</Time>
            <Position>
              <LatitudeDegrees>42.96626455150544643402099609375</LatitudeDegrees>
              <LongitudeDegrees>0.62664608471095561981201171875</LongitudeDegrees>
            </Position>
            <AltitudeMeters>484.399993896484375</AltitudeMeters>
            <DistanceMeters>25494.135190583</DistanceMeters>
          </Trackpoint>
          <Trackpoint>
            <Time>2019-05-08T08:18:20.000Z</Time>
            <Position>
              <LatitudeDegrees>42.96632833778858184814453125</LatitudeDegrees>
              <LongitudeDegrees>0.6260639615356922149658203125</LongitudeDegrees>
            </Position>
            <AltitudeMeters>484.79998779296875</AltitudeMeters>
            <DistanceMeters>25542.075390998</DistanceMeters>
          </Trackpoint>
          <Trackpoint>
            <Time>2019-05-08T08:18:23.000Z</Time>
            <Position>
              <LatitudeDegrees>42.9663516394793987274169921875</LatitudeDegrees>
              <LongitudeDegrees>0.6258621253073215484619140625</LongitudeDegrees>
            </Position>
            <AltitudeMeters>485</AltitudeMeters>
            <DistanceMeters>25558.717279249</DistanceMeters>
          </Trackpoint>
          <Trackpoint>
            <Time>2019-05-08T08:18:24.000Z</Time>
            <Position>
              <LatitudeDegrees>42.9663598537445068359375</LatitudeDegrees>
              <LongitudeDegrees>0.62579364515841007232666015625</LongitudeDegrees>
            </Position>
            <AltitudeMeters>485</AltitudeMeters>
            <DistanceMeters>25564.369571745</DistanceMeters>
          </Trackpoint>
          <Trackpoint>
            <Time>2019-05-08T08:18:32.000Z</Time>
            <Position>
              <LatitudeDegrees>42.96640234999358654022216796875</LatitudeDegrees>
              <LongitudeDegrees>0.625234656035900115966796875</LongitudeDegrees>
            </Position>
            <AltitudeMeters>485.600006103515625</AltitudeMeters>
            <DistanceMeters>25610.141879487</DistanceMeters>
          </Trackpoint>
          <Trackpoint>
            <Time>2019-05-08T08:18:41.000Z</Time>
            <Position>
              <LatitudeDegrees>42.9664357937872409820556640625</LatitudeDegrees>
              <LongitudeDegrees>0.62460777349770069122314453125</LongitudeDegrees>
            </Position>
            <AltitudeMeters>486</AltitudeMeters>
            <DistanceMeters>25661.334209041</DistanceMeters>
          </Trackpoint>
          <Trackpoint>
            <Time>2019-05-08T08:18:49.000Z</Time>
            <Position>
              <LatitudeDegrees>42.96651198528707027435302734375</LatitudeDegrees>
              <LongitudeDegrees>0.62407652847468852996826171875</LongitudeDegrees>
            </Position>
            <AltitudeMeters>486.399993896484375</AltitudeMeters>
            <DistanceMeters>25705.424966086</DistanceMeters>
          </Trackpoint>
          <Trackpoint>
            <Time>2019-05-08T08:18:51.000Z</Time>
            <Position>
              <LatitudeDegrees>42.9665417410433292388916015625</LatitudeDegrees>
              <LongitudeDegrees>0.62394996173679828643798828125</LongitudeDegrees>
            </Position>
            <AltitudeMeters>486.399993896484375</AltitudeMeters>
            <DistanceMeters>25716.252591979</DistanceMeters>
          </Trackpoint>
          <Trackpoint>
            <Time>2019-05-08T08:18:53.000Z</Time>
            <Position>
              <LatitudeDegrees>42.96658448874950408935546875</LatitudeDegrees>
              <LongitudeDegrees>0.6238313578069210052490234375</LongitudeDegrees>
            </Position>
            <AltitudeMeters>486.399993896484375</AltitudeMeters>
            <DistanceMeters>25727.020422844</DistanceMeters>
          </Trackpoint>
          <Trackpoint>
            <Time>2019-05-08T08:18:55.000Z</Time>
            <Position>
              <LatitudeDegrees>42.9666463471949100494384765625</LatitudeDegrees>
              <LongitudeDegrees>0.6237280927598476409912109375</LongitudeDegrees>
            </Position>
            <AltitudeMeters>486.399993896484375</AltitudeMeters>
            <DistanceMeters>25737.88925259</DistanceMeters>
          </Trackpoint>
          <Trackpoint>
            <Time>2019-05-08T08:18:57.000Z</Time>
            <Position>
              <LatitudeDegrees>42.96672262251377105712890625</LatitudeDegrees>
              <LongitudeDegrees>0.62364536337554454803466796875</LongitudeDegrees>
            </Position>
            <AltitudeMeters>486.600006103515625</AltitudeMeters>
            <DistanceMeters>25748.727714864</DistanceMeters>
          </Trackpoint>
          <Trackpoint>
            <Time>2019-05-08T08:19:01.000Z</Time>
            <Position>
              <LatitudeDegrees>42.96687626279890537261962890625</LatitudeDegrees>
              <LongitudeDegrees>0.6235047988593578338623046875</LongitudeDegrees>
            </Position>
            <AltitudeMeters>486.600006103515625</AltitudeMeters>
            <DistanceMeters>25769.306648876</DistanceMeters>
          </Trackpoint>
          <Trackpoint>
            <Time>2019-05-08T08:19:02.000Z</Time>
            <Position>
              <LatitudeDegrees>42.96691314317286014556884765625</LatitudeDegrees>
              <LongitudeDegrees>0.6234732829034328460693359375</LongitudeDegrees>
            </Position>
            <AltitudeMeters>486.79998779296875</AltitudeMeters>
            <DistanceMeters>25774.148350895</DistanceMeters>
          </Trackpoint>
          <Trackpoint>
            <Time>2019-05-08T08:19:06.000Z</Time>
            <Position>
              <LatitudeDegrees>42.96705521643161773681640625</LatitudeDegrees>
              <LongitudeDegrees>0.62334143556654453277587890625</LongitudeDegrees>
            </Position>
            <AltitudeMeters>487.20001220703125</AltitudeMeters>
            <DistanceMeters>25793.262662102</DistanceMeters>
          </Trackpoint>
          <Trackpoint>
            <Time>2019-05-08T08:19:11.000Z</Time>
            <Position>
              <LatitudeDegrees>42.96723769046366214752197265625</LatitudeDegrees>
              <LongitudeDegrees>0.6231728754937648773193359375</LongitudeDegrees>
            </Position>
            <AltitudeMeters>488.20001220703125</AltitudeMeters>
            <DistanceMeters>25817.77697603</DistanceMeters>
          </Trackpoint>
          <Trackpoint>
            <Time>2019-05-08T08:19:12.000Z</Time>
            <Position>
              <LatitudeDegrees>42.967271469533443450927734375</LatitudeDegrees>
              <LongitudeDegrees>0.6231376715004444122314453125</LongitudeDegrees>
            </Position>
            <AltitudeMeters>488.20001220703125</AltitudeMeters>
            <DistanceMeters>25822.50449538</DistanceMeters>
          </Trackpoint>
          <Trackpoint>
            <Time>2019-05-08T08:19:19.000Z</Time>
            <Position>
              <LatitudeDegrees>42.96749233268201351165771484375</LatitudeDegrees>
              <LongitudeDegrees>0.62287590466439723968505859375</LongitudeDegrees>
            </Position>
            <AltitudeMeters>489</AltitudeMeters>
            <DistanceMeters>25855.044034612</DistanceMeters>
          </Trackpoint>
          <Trackpoint>
            <Time>2019-05-08T08:19:20.000Z</Time>
            <Position>
              <LatitudeDegrees>42.9675227589905261993408203125</LatitudeDegrees>
              <LongitudeDegrees>0.62283801846206188201904296875</LongitudeDegrees>
            </Position>
            <AltitudeMeters>489.20001220703125</AltitudeMeters>
            <DistanceMeters>25859.625071356</DistanceMeters>
          </Trackpoint>
          <Trackpoint>
            <Time>2019-05-08T08:19:29.000Z</Time>
            <Position>
              <LatitudeDegrees>42.96775518916547298431396484375</LatitudeDegrees>
              <LongitudeDegrees>0.62246066518127918243408203125</LongitudeDegrees>
            </Position>
            <AltitudeMeters>490.399993896484375</AltitudeMeters>
            <DistanceMeters>25899.796989676</DistanceMeters>
          </Trackpoint>
          <Trackpoint>
            <Time>2019-05-08T08:19:30.000Z</Time>
            <Position>
              <LatitudeDegrees>42.967771701514720916748046875</LatitudeDegrees>
              <LongitudeDegrees>0.6224124692380428314208984375</LongitudeDegrees>
            </Position>
            <AltitudeMeters>490.79998779296875</AltitudeMeters>
            <DistanceMeters>25904.130874654</DistanceMeters>
          </Trackpoint>
          <Trackpoint>
            <Time>2019-05-08T08:19:38.000Z</Time>
            <Position>
              <LatitudeDegrees>42.9678996093571186065673828125</LatitudeDegrees>
              <LongitudeDegrees>0.62204391695559024810791015625</LongitudeDegrees>
            </Position>
            <AltitudeMeters>491.399993896484375</AltitudeMeters>
            <DistanceMeters>25937.352192252</DistanceMeters>
          </Trackpoint>
          <Trackpoint>
            <Time>2019-05-08T08:19:39.000Z</Time>
            <Position>
              <LatitudeDegrees>42.96791427768766880035400390625</LatitudeDegrees>
              <LongitudeDegrees>0.62199731357395648956298828125</LongitudeDegrees>
            </Position>
            <AltitudeMeters>491.600006103515625</AltitudeMeters>
            <DistanceMeters>25941.483396009</DistanceMeters>
          </Trackpoint>
          <Trackpoint>
            <Time>2019-05-08T08:19:48.000Z</Time>
            <Position>
              <LatitudeDegrees>42.9680524952709674835205078125</LatitudeDegrees>
              <LongitudeDegrees>0.62156103551387786865234375</LongitudeDegrees>
            </Position>
            <AltitudeMeters>492.79998779296875</AltitudeMeters>
            <DistanceMeters>25980.202905064</DistanceMeters>
          </Trackpoint>
          <Trackpoint>
            <Time>2019-05-08T08:19:52.000Z</Time>
            <Position>
              <LatitudeDegrees>42.96809281222522258758544921875</LatitudeDegrees>
              <LongitudeDegrees>0.62132944352924823760986328125</LongitudeDegrees>
            </Position>
            <AltitudeMeters>493.20001220703125</AltitudeMeters>
            <DistanceMeters>25999.591149497</DistanceMeters>
          </Trackpoint>
          <Trackpoint>
            <Time>2019-05-08T08:19:56.000Z</Time>
            <Position>
              <LatitudeDegrees>42.96811376698315143585205078125</LatitudeDegrees>
              <LongitudeDegrees>0.62108871527016162872314453125</LongitudeDegrees>
            </Position>
            <AltitudeMeters>493.399993896484375</AltitudeMeters>
            <DistanceMeters>26019.335222028</DistanceMeters>
          </Trackpoint>
          <Trackpoint>
            <Time>2019-05-08T08:20:03.000Z</Time>
            <Position>
              <LatitudeDegrees>42.96815701760351657867431640625</LatitudeDegrees>
              <LongitudeDegrees>0.620666854083538055419921875</LongitudeDegrees>
            </Position>
            <AltitudeMeters>494</AltitudeMeters>
            <DistanceMeters>26054.028693307</DistanceMeters>
          </Trackpoint>
          <Trackpoint>
            <Time>2019-05-08T08:20:04.000Z</Time>
            <Position>
              <LatitudeDegrees>42.968165986239910125732421875</LatitudeDegrees>
              <LongitudeDegrees>0.62060742639005184173583984375</LongitudeDegrees>
            </Position>
            <AltitudeMeters>494.20001220703125</AltitudeMeters>
            <DistanceMeters>26058.970996088</DistanceMeters>
          </Trackpoint>
          <Trackpoint>
            <Time>2019-05-08T08:20:13.000Z</Time>
            <Position>
              <LatitudeDegrees>42.96827252022922039031982421875</LatitudeDegrees>
              <LongitudeDegrees>0.6200866587460041046142578125</LongitudeDegrees>
            </Position>
            <AltitudeMeters>494.20001220703125</AltitudeMeters>
            <DistanceMeters>26103.010316683</DistanceMeters>
          </Trackpoint>
          <Trackpoint>
            <Time>2019-05-08T08:20:15.000Z</Time>
            <Position>
              <LatitudeDegrees>42.9682982526719570159912109375</LatitudeDegrees>
              <LongitudeDegrees>0.61997693963348865509033203125</LongitudeDegrees>
            </Position>
            <AltitudeMeters>494.20001220703125</AltitudeMeters>
            <DistanceMeters>26112.393934077</DistanceMeters>
          </Trackpoint>
          <Trackpoint>
            <Time>2019-05-08T08:20:19.000Z</Time>
            <Position>
              <LatitudeDegrees>42.9683549143373966217041015625</LatitudeDegrees>
              <LongitudeDegrees>0.61975884251296520233154296875</LongitudeDegrees>
            </Position>
            <AltitudeMeters>494.399993896484375</AltitudeMeters>
            <DistanceMeters>26131.242788886</DistanceMeters>
          </Trackpoint>
          <Trackpoint>
            <Time>2019-05-08T08:20:25.000Z</Time>
            <Position>
              <LatitudeDegrees>42.96842557378113269805908203125</LatitudeDegrees>
              <LongitudeDegrees>0.61942373402416706085205078125</LongitudeDegrees>
            </Position>
            <AltitudeMeters>495</AltitudeMeters>
            <DistanceMeters>26159.645604579</DistanceMeters>
          </Trackpoint>
          <Trackpoint>
            <Time>2019-05-08T08:20:37.000Z</Time>
            <Position>
              <LatitudeDegrees>42.96854610554873943328857421875</LatitudeDegrees>
              <LongitudeDegrees>0.61875519342720508575439453125</LongitudeDegrees>
            </Position>
            <AltitudeMeters>495.79998779296875</AltitudeMeters>
            <DistanceMeters>26215.721914641</DistanceMeters>
          </Trackpoint>
          <Trackpoint>
            <Time>2019-05-08T08:20:38.000Z</Time>
            <Position>
              <LatitudeDegrees>42.968557588756084442138671875</LatitudeDegrees>
              <LongitudeDegrees>0.61870045959949493408203125</LongitudeDegrees>
            </Position>
            <AltitudeMeters>495.79998779296875</AltitudeMeters>
            <DistanceMeters>26220.359763506</DistanceMeters>
          </Trackpoint>
          <Trackpoint>
            <Time>2019-05-08T08:20:45.000Z</Time>
            <Position>
              <LatitudeDegrees>42.968640737235546112060546875</LatitudeDegrees>
              <LongitudeDegrees>0.61830374412238597869873046875</LongitudeDegrees>
            </Position>
            <AltitudeMeters>496.20001220703125</AltitudeMeters>
            <DistanceMeters>26253.968604637</DistanceMeters>
          </Trackpoint>
          <Trackpoint>
            <Time>2019-05-08T08:20:52.000Z</Time>
            <Position>
              <LatitudeDegrees>42.96873704530298709869384765625</LatitudeDegrees>
              <LongitudeDegrees>0.617938376963138580322265625</LongitudeDegrees>
            </Position>
            <AltitudeMeters>497</AltitudeMeters>
            <DistanceMeters>26285.596801525</DistanceMeters>
          </Trackpoint>
          <Trackpoint>
            <Time>2019-05-08T08:20:54.000Z</Time>
            <Position>
              <LatitudeDegrees>42.96877275221049785614013671875</LatitudeDegrees>
              <LongitudeDegrees>0.61783670447766780853271484375</LongitudeDegrees>
            </Position>
            <AltitudeMeters>497.20001220703125</AltitudeMeters>
            <DistanceMeters>26294.781515682</DistanceMeters>
          </Trackpoint>
          <Trackpoint>
            <Time>2019-05-08T08:21:04.000Z</Time>
            <Position>
              <LatitudeDegrees>42.96896226704120635986328125</LatitudeDegrees>
              <LongitudeDegrees>0.61733865179121494293212890625</LongitudeDegrees>
            </Position>
            <AltitudeMeters>497.79998779296875</AltitudeMeters>
            <DistanceMeters>26340.500723625</DistanceMeters>
          </Trackpoint>
          <Trackpoint>
            <Time>2019-05-08T08:21:07.000Z</Time>
            <Position>
              <LatitudeDegrees>42.9690206050872802734375</LatitudeDegrees>
              <LongitudeDegrees>0.617186017334461212158203125</LongitudeDegrees>
            </Position>
            <AltitudeMeters>498.20001220703125</AltitudeMeters>
            <DistanceMeters>26354.525456247</DistanceMeters>
          </Trackpoint>
          <Trackpoint>
            <Time>2019-05-08T08:21:14.000Z</Time>
            <Position>
              <LatitudeDegrees>42.969153709709644317626953125</LatitudeDegrees>
              <LongitudeDegrees>0.61683230102062225341796875</LongitudeDegrees>
            </Position>
            <AltitudeMeters>498.79998779296875</AltitudeMeters>
            <DistanceMeters>26386.918974629</DistanceMeters>
          </Trackpoint>
          <Trackpoint>
            <Time>2019-05-08T08:21:20.000Z</Time>
            <Position>
              <LatitudeDegrees>42.9692445695400238037109375</LatitudeDegrees>
              <LongitudeDegrees>0.6165206618607044219970703125</LongitudeDegrees>
            </Position>
            <AltitudeMeters>499</AltitudeMeters>
            <DistanceMeters>26414.239940002</DistanceMeters>
          </Trackpoint>
          <Trackpoint>
            <Time>2019-05-08T08:21:22.000Z</Time>
            <Position>
              <LatitudeDegrees>42.96927097253501415252685546875</LatitudeDegrees>
              <LongitudeDegrees>0.616413541138172149658203125</LongitudeDegrees>
            </Position>
            <AltitudeMeters>499.20001220703125</AltitudeMeters>
            <DistanceMeters>26423.44527744</DistanceMeters>
          </Trackpoint>
          <Trackpoint>
            <Time>2019-05-08T08:21:23.000Z</Time>
            <Position>
              <LatitudeDegrees>42.96928220428526401519775390625</LatitudeDegrees>
              <LongitudeDegrees>0.616358555853366851806640625</LongitudeDegrees>
            </Position>
            <AltitudeMeters>499.399993896484375</AltitudeMeters>
            <DistanceMeters>26428.094793867</DistanceMeters>
          </Trackpoint>
          <Trackpoint>
            <Time>2019-05-08T08:21:26.000Z</Time>
            <Position>
              <LatitudeDegrees>42.96930491924285888671875</LatitudeDegrees>
              <LongitudeDegrees>0.61620592139661312103271484375</LongitudeDegrees>
            </Position>
            <AltitudeMeters>499.79998779296875</AltitudeMeters>
            <DistanceMeters>26440.780059424</DistanceMeters>
          </Trackpoint>
          <Trackpoint>
            <Time>2019-05-08T08:21:28.000Z</Time>
            <Position>
              <LatitudeDegrees>42.9693138040602207183837890625</LatitudeDegrees>
              <LongitudeDegrees>0.6161159835755825042724609375</LongitudeDegrees>
            </Position>
            <AltitudeMeters>499.79998779296875</AltitudeMeters>
            <DistanceMeters>26448.170181367</DistanceMeters>
          </Trackpoint>
          <Trackpoint>
            <Time>2019-05-08T08:21:36.000Z</Time>
            <Position>
              <LatitudeDegrees>42.969359569251537322998046875</LatitudeDegrees>
              <LongitudeDegrees>0.61570418067276477813720703125</LongitudeDegrees>
            </Position>
            <AltitudeMeters>501</AltitudeMeters>
            <DistanceMeters>26482.092721979</DistanceMeters>
          </Trackpoint>
          <Trackpoint>
            <Time>2019-05-08T08:21:40.000Z</Time>
            <Position>
              <LatitudeDegrees>42.96940424479544162750244140625</LatitudeDegrees>
              <LongitudeDegrees>0.6155044399201869964599609375</LongitudeDegrees>
            </Position>
            <AltitudeMeters>501.20001220703125</AltitudeMeters>
            <DistanceMeters>26499.103034718</DistanceMeters>
          </Trackpoint>
          <Trackpoint>
            <Time>2019-05-08T08:21:42.000Z</Time>
            <Position>
              <LatitudeDegrees>42.96944816596806049346923828125</LatitudeDegrees>
              <LongitudeDegrees>0.61542003415524959564208984375</LongitudeDegrees>
            </Position>
            <AltitudeMeters>501.20001220703125</AltitudeMeters>
            <DistanceMeters>26507.537960462</DistanceMeters>
          </Trackpoint>
          <Trackpoint>
            <Time>2019-05-08T08:21:45.000Z</Time>
            <Position>
              <LatitudeDegrees>42.96952242963016033172607421875</LatitudeDegrees>
              <LongitudeDegrees>0.61531291343271732330322265625</LongitudeDegrees>
            </Position>
            <AltitudeMeters>501.79998779296875</AltitudeMeters>
            <DistanceMeters>26519.555740733</DistanceMeters>
          </Trackpoint>
          <Trackpoint>
            <Time>2019-05-08T08:21:48.000Z</Time>
            <Position>
              <LatitudeDegrees>42.96958311460912227630615234375</LatitudeDegrees>
              <LongitudeDegrees>0.615217275917530059814453125</LongitudeDegrees>
            </Position>
            <AltitudeMeters>502</AltitudeMeters>
            <DistanceMeters>26529.865153895</DistanceMeters>
          </Trackpoint>
          <Trackpoint>
            <Time>2019-05-08T08:21:53.000Z</Time>
            <Position>
              <LatitudeDegrees>42.969636507332324981689453125</LatitudeDegrees>
              <LongitudeDegrees>0.61499775387346744537353515625</LongitudeDegrees>
            </Position>
            <AltitudeMeters>503</AltitudeMeters>
            <DistanceMeters>26548.705143671</DistanceMeters>
          </Trackpoint>
          <Trackpoint>
            <Time>2019-05-08T08:21:57.000Z</Time>
            <Position>
              <LatitudeDegrees>42.96962535940110683441162109375</LatitudeDegrees>
              <LongitudeDegrees>0.6148248352110385894775390625</LongitudeDegrees>
            </Position>
            <AltitudeMeters>503.79998779296875</AltitudeMeters>
            <DistanceMeters>26562.84210416</DistanceMeters>
          </Trackpoint>
          <Trackpoint>
            <Time>2019-05-08T08:22:01.000Z</Time>
            <Position>
              <LatitudeDegrees>42.96959468163549900054931640625</LatitudeDegrees>
              <LongitudeDegrees>0.61467471532523632049560546875</LongitudeDegrees>
            </Position>
            <AltitudeMeters>504</AltitudeMeters>
            <DistanceMeters>26575.536264792</DistanceMeters>
          </Trackpoint>
          <Trackpoint>
            <Time>2019-05-08T08:22:02.000Z</Time>
            <Position>
              <LatitudeDegrees>42.96958386898040771484375</LatitudeDegrees>
              <LongitudeDegrees>0.61463967896997928619384765625</LongitudeDegrees>
            </Position>
            <AltitudeMeters>504</AltitudeMeters>
            <DistanceMeters>26578.633027809</DistanceMeters>
          </Trackpoint>
          <Trackpoint>
            <Time>2019-05-08T08:22:04.000Z</Time>
            <Position>
              <LatitudeDegrees>42.96957775019109249114990234375</LatitudeDegrees>
              <LongitudeDegrees>0.6145774014294147491455078125</LongitudeDegrees>
            </Position>
            <AltitudeMeters>504</AltitudeMeters>
            <DistanceMeters>26583.750372988</DistanceMeters>
          </Trackpoint>
          <Trackpoint>
            <Time>2019-05-08T08:22:05.000Z</Time>
            <Position>
              <LatitudeDegrees>42.96959116123616695404052734375</LatitudeDegrees>
              <LongitudeDegrees>0.61457597650587558746337890625</LongitudeDegrees>
            </Position>
            <AltitudeMeters>504.20001220703125</AltitudeMeters>
            <DistanceMeters>26585.246855183</DistanceMeters>
          </Trackpoint>
          <Trackpoint>
            <Time>2019-05-08T08:22:08.000Z</Time>
            <Position>
              <LatitudeDegrees>42.9696147143840789794921875</LatitudeDegrees>
              <LongitudeDegrees>0.61465392820537090301513671875</LongitudeDegrees>
            </Position>
            <AltitudeMeters>504</AltitudeMeters>
            <DistanceMeters>26592.115781549</DistanceMeters>
          </Trackpoint>
          <Trackpoint>
            <Time>2019-05-08T08:22:09.000Z</Time>
            <Position>
              <LatitudeDegrees>42.9696168936789035797119140625</LatitudeDegrees>
              <LongitudeDegrees>0.61468494124710559844970703125</LongitudeDegrees>
            </Position>
            <AltitudeMeters>504.399993896484375</AltitudeMeters>
            <DistanceMeters>26594.654969328</DistanceMeters>
          </Trackpoint>
          <Trackpoint>
            <Time>2019-05-08T08:22:12.000Z</Time>
            <Position>
              <LatitudeDegrees>42.96962284483015537261962890625</LatitudeDegrees>
              <LongitudeDegrees>0.61475819908082485198974609375</LongitudeDegrees>
            </Position>
            <AltitudeMeters>504.399993896484375</AltitudeMeters>
            <DistanceMeters>26600.657469225</DistanceMeters>
          </Trackpoint>
          <Trackpoint>
            <Time>2019-05-08T08:22:13.000Z</Time>
            <Position>
              <LatitudeDegrees>42.96962267719209194183349609375</LatitudeDegrees>
              <LongitudeDegrees>0.61475853435695171356201171875</LongitudeDegrees>
            </Position>
            <AltitudeMeters>504.399993896484375</AltitudeMeters>
            <DistanceMeters>26600.75249594</DistanceMeters>
          </Trackpoint>
          <Trackpoint>
            <Time>2019-05-08T08:23:20.000Z</Time>
            <Position>
              <LatitudeDegrees>42.96959870494902133941650390625</LatitudeDegrees>
              <LongitudeDegrees>0.6147141940891742706298828125</LongitudeDegrees>
            </Position>
            <AltitudeMeters>504.399993896484375</AltitudeMeters>
            <DistanceMeters>26605.241942523</DistanceMeters>
          </Trackpoint>
          <Trackpoint>
            <Time>2019-05-08T08:23:21.000Z</Time>
            <Position>
              <LatitudeDegrees>42.96959317289292812347412109375</LatitudeDegrees>
              <LongitudeDegrees>0.6146944127976894378662109375</LongitudeDegrees>
            </Position>
            <AltitudeMeters>504.399993896484375</AltitudeMeters>
            <DistanceMeters>26606.968188515</DistanceMeters>
          </Trackpoint>
          <Trackpoint>
            <Time>2019-05-08T08:23:23.000Z</Time>
            <Position>
              <LatitudeDegrees>42.96958194114267826080322265625</LatitudeDegrees>
              <LongitudeDegrees>0.61464185826480388641357421875</LongitudeDegrees>
            </Position>
            <AltitudeMeters>504.399993896484375</AltitudeMeters>
            <DistanceMeters>26611.427362018</DistanceMeters>
          </Trackpoint>
          <Trackpoint>
            <Time>2019-05-08T08:23:30.000Z</Time>
            <Position>
              <LatitudeDegrees>42.9695169813930988311767578125</LatitudeDegrees>
              <LongitudeDegrees>0.6143624894320964813232421875</LongitudeDegrees>
            </Position>
            <AltitudeMeters>504.600006103515625</AltitudeMeters>
            <DistanceMeters>26635.300637344</DistanceMeters>
          </Trackpoint>
          <Trackpoint>
            <Time>2019-05-08T08:23:36.000Z</Time>
            <Position>
              <LatitudeDegrees>42.9694284684956073760986328125</LatitudeDegrees>
              <LongitudeDegrees>0.6141049973666667938232421875</LongitudeDegrees>
            </Position>
            <AltitudeMeters>504.79998779296875</AltitudeMeters>
            <DistanceMeters>26658.470013348</DistanceMeters>
          </Trackpoint>
          <Trackpoint>
            <Time>2019-05-08T08:23:37.000Z</Time>
            <Position>
              <LatitudeDegrees>42.9694157280027866363525390625</LatitudeDegrees>
              <LongitudeDegrees>0.61406434513628482818603515625</LongitudeDegrees>
            </Position>
            <AltitudeMeters>504.79998779296875</AltitudeMeters>
            <DistanceMeters>26662.071011789</DistanceMeters>
          </Trackpoint>
          <Trackpoint>
            <Time>2019-05-08T08:23:39.000Z</Time>
            <Position>
              <LatitudeDegrees>42.96939251013100147247314453125</LatitudeDegrees>
              <LongitudeDegrees>0.61399460770189762115478515625</LongitudeDegrees>
            </Position>
            <AltitudeMeters>505</AltitudeMeters>
            <DistanceMeters>26668.311018971</DistanceMeters>
          </Trackpoint>
          <Trackpoint>
            <Time>2019-05-08T08:23:44.000Z</Time>
            <Position>
              <LatitudeDegrees>42.96929712407290935516357421875</LatitudeDegrees>
              <LongitudeDegrees>0.613822527229785919189453125</LongitudeDegrees>
            </Position>
            <AltitudeMeters>505.399993896484375</AltitudeMeters>
            <DistanceMeters>26685.893015641</DistanceMeters>
          </Trackpoint>
          <Trackpoint>
            <Time>2019-05-08T08:23:46.000Z</Time>
            <Position>
              <LatitudeDegrees>42.9692437313497066497802734375</LatitudeDegrees>
              <LongitudeDegrees>0.6137529574334621429443359375</LongitudeDegrees>
            </Position>
            <AltitudeMeters>505.79998779296875</AltitudeMeters>
            <DistanceMeters>26694.103895663</DistanceMeters>
          </Trackpoint>
          <Trackpoint>
            <Time>2019-05-08T08:23:50.000Z</Time>
            <Position>
              <LatitudeDegrees>42.9691351018846035003662109375</LatitudeDegrees>
              <LongitudeDegrees>0.6136154942214488983154296875</LongitudeDegrees>
            </Position>
            <AltitudeMeters>506</AltitudeMeters>
            <DistanceMeters>26710.581922504</DistanceMeters>
          </Trackpoint>
          <Trackpoint>
            <Time>2019-05-08T08:23:55.000Z</Time>
            <Position>
              <LatitudeDegrees>42.9690003208816051483154296875</LatitudeDegrees>
              <LongitudeDegrees>0.61344207264482975006103515625</LongitudeDegrees>
            </Position>
            <AltitudeMeters>506.600006103515625</AltitudeMeters>
            <DistanceMeters>26731.185853046</DistanceMeters>
          </Trackpoint>
          <Trackpoint>
            <Time>2019-05-08T08:24:02.000Z</Time>
            <Position>
              <LatitudeDegrees>42.96882455237209796905517578125</LatitudeDegrees>
              <LongitudeDegrees>0.61319950036704540252685546875</LongitudeDegrees>
            </Position>
            <AltitudeMeters>507</AltitudeMeters>
            <DistanceMeters>26758.988922372</DistanceMeters>
          </Trackpoint>
          <Trackpoint>
            <Time>2019-05-08T08:24:03.000Z</Time>
            <Position>
              <LatitudeDegrees>42.9688028432428836822509765625</LatitudeDegrees>
              <LongitudeDegrees>0.6131608597934246063232421875</LongitudeDegrees>
            </Position>
            <AltitudeMeters>507</AltitudeMeters>
            <DistanceMeters>26762.95735447</DistanceMeters>
          </Trackpoint>
          <Trackpoint>
            <Time>2019-05-08T08:24:10.000Z</Time>
            <Position>
              <LatitudeDegrees>42.96868122182786464691162109375</LatitudeDegrees>
              <LongitudeDegrees>0.61286036856472492218017578125</LongitudeDegrees>
            </Position>
            <AltitudeMeters>507.79998779296875</AltitudeMeters>
            <DistanceMeters>26790.924283176</DistanceMeters>
          </Trackpoint>
          <Trackpoint>
            <Time>2019-05-08T08:24:11.000Z</Time>
            <Position>
              <LatitudeDegrees>42.96866864897310733795166015625</LatitudeDegrees>
              <LongitudeDegrees>0.6128158606588840484619140625</LongitudeDegrees>
            </Position>
            <AltitudeMeters>508</AltitudeMeters>
            <DistanceMeters>26794.809934707</DistanceMeters>
          </Trackpoint>
          <Trackpoint>
            <Time>2019-05-08T08:24:16.000Z</Time>
            <Position>
              <LatitudeDegrees>42.96862254850566387176513671875</LatitudeDegrees>
              <LongitudeDegrees>0.612582005560398101806640625</LongitudeDegrees>
            </Position>
            <AltitudeMeters>508.600006103515625</AltitudeMeters>
            <DistanceMeters>26814.534788918</DistanceMeters>
          </Trackpoint>
          <Trackpoint>
            <Time>2019-05-08T08:24:19.000Z</Time>
            <Position>
              <LatitudeDegrees>42.96859606169164180755615234375</LatitudeDegrees>
              <LongitudeDegrees>0.61244345270097255706787109375</LongitudeDegrees>
            </Position>
            <AltitudeMeters>509</AltitudeMeters>
            <DistanceMeters>26826.197939074</DistanceMeters>
          </Trackpoint>
          <Trackpoint>
            <Time>2019-05-08T08:24:23.000Z</Time>
            <Position>
              <LatitudeDegrees>42.96856136061251163482666015625</LatitudeDegrees>
              <LongitudeDegrees>0.6122636608779430389404296875</LongitudeDegrees>
            </Position>
            <AltitudeMeters>509.600006103515625</AltitudeMeters>
            <DistanceMeters>26841.341512673</DistanceMeters>
          </Trackpoint>
          <Trackpoint>
            <Time>2019-05-08T08:24:30.000Z</Time>
            <Position>
              <LatitudeDegrees>42.968497909605503082275390625</LatitudeDegrees>
              <LongitudeDegrees>0.6119344197213649749755859375</LongitudeDegrees>
            </Position>
            <AltitudeMeters>510.79998779296875</AltitudeMeters>
            <DistanceMeters>26869.070431676</DistanceMeters>
          </Trackpoint>
          <Trackpoint>
            <Time>2019-05-08T08:24:32.000Z</Time>
            <Position>
              <LatitudeDegrees>42.96848022378981113433837890625</LatitudeDegrees>
              <LongitudeDegrees>0.611838363111019134521484375</LongitudeDegrees>
            </Position>
            <AltitudeMeters>511.20001220703125</AltitudeMeters>
            <DistanceMeters>26877.137074773</DistanceMeters>
          </Trackpoint>
          <Trackpoint>
            <Time>2019-05-08T08:24:39.000Z</Time>
            <Position>
              <LatitudeDegrees>42.96841685660183429718017578125</LatitudeDegrees>
              <LongitudeDegrees>0.61150149442255496978759765625</LongitudeDegrees>
            </Position>
            <AltitudeMeters>511.79998779296875</AltitudeMeters>
            <DistanceMeters>26905.464600488</DistanceMeters>
          </Trackpoint>
          <Trackpoint>
            <Time>2019-05-08T08:24:47.000Z</Time>
            <Position>
              <LatitudeDegrees>42.9683448560535907745361328125</LatitudeDegrees>
              <LongitudeDegrees>0.61111341230571269989013671875</LongitudeDegrees>
            </Position>
            <AltitudeMeters>513.4000244140625</AltitudeMeters>
            <DistanceMeters>26938.071366665</DistanceMeters>
          </Trackpoint>
          <Trackpoint>
            <Time>2019-05-08T08:24:48.000Z</Time>
            <Position>
              <LatitudeDegrees>42.96833605505526065826416015625</LatitudeDegrees>
              <LongitudeDegrees>0.6110648810863494873046875</LongitudeDegrees>
            </Position>
            <AltitudeMeters>513.4000244140625</AltitudeMeters>
            <DistanceMeters>26942.143125541</DistanceMeters>
          </Trackpoint>
          <Trackpoint>
            <Time>2019-05-08T08:24:57.000Z</Time>
            <Position>
              <LatitudeDegrees>42.96828039921820163726806640625</LatitudeDegrees>
              <LongitudeDegrees>0.610623992979526519775390625</LongitudeDegrees>
            </Position>
            <AltitudeMeters>514.5999755859375</AltitudeMeters>
            <DistanceMeters>26978.580759516</DistanceMeters>
          </Trackpoint>
          <Trackpoint>
            <Time>2019-05-08T08:25:01.000Z</Time>
            <Position>
              <LatitudeDegrees>42.96831090934574604034423828125</LatitudeDegrees>
              <LongitudeDegrees>0.61042584478855133056640625</LongitudeDegrees>
            </Position>
            <AltitudeMeters>515.20001220703125</AltitudeMeters>
            <DistanceMeters>26995.071933284</DistanceMeters>
          </Trackpoint>
          <Trackpoint>
            <Time>2019-05-08T08:25:04.000Z</Time>
            <Position>
              <LatitudeDegrees>42.96833018772304058074951171875</LatitudeDegrees>
              <LongitudeDegrees>0.6102982722222805023193359375</LongitudeDegrees>
            </Position>
            <AltitudeMeters>515.5999755859375</AltitudeMeters>
            <DistanceMeters>27005.681358475</DistanceMeters>
          </Trackpoint>
          <Trackpoint>
            <Time>2019-05-08T08:25:05.000Z</Time>
            <Position>
              <LatitudeDegrees>42.96833605505526065826416015625</LatitudeDegrees>
              <LongitudeDegrees>0.61025845818221569061279296875</LongitudeDegrees>
            </Position>
            <AltitudeMeters>515.5999755859375</AltitudeMeters>
            <DistanceMeters>27008.989598588</DistanceMeters>
          </Trackpoint>
          <Trackpoint>
            <Time>2019-05-08T08:25:10.000Z</Time>
            <Position>
              <LatitudeDegrees>42.96836572699248790740966796875</LatitudeDegrees>
              <LongitudeDegrees>0.61005963943898677825927734375</LongitudeDegrees>
            </Position>
            <AltitudeMeters>516.79998779296875</AltitudeMeters>
            <DistanceMeters>27025.51550649</DistanceMeters>
          </Trackpoint>
          <Trackpoint>
            <Time>2019-05-08T08:25:13.000Z</Time>
            <Position>
              <LatitudeDegrees>42.968370504677295684814453125</LatitudeDegrees>
              <LongitudeDegrees>0.60993609018623828887939453125</LongitudeDegrees>
            </Position>
            <AltitudeMeters>517.5999755859375</AltitudeMeters>
            <DistanceMeters>27035.591923489</DistanceMeters>
          </Trackpoint>
          <Trackpoint>
            <Time>2019-05-08T08:25:17.000Z</Time>
            <Position>
              <LatitudeDegrees>42.96835466288030147552490234375</LatitudeDegrees>
              <LongitudeDegrees>0.60978203080594539642333984375</LongitudeDegrees>
            </Position>
            <AltitudeMeters>518.5999755859375</AltitudeMeters>
            <DistanceMeters>27048.26223126</DistanceMeters>
          </Trackpoint>
          <Trackpoint>
            <Time>2019-05-08T08:25:20.000Z</Time>
            <Position>
              <LatitudeDegrees>42.968332953751087188720703125</LatitudeDegrees>
              <LongitudeDegrees>0.609665773808956146240234375</LongitudeDegrees>
            </Position>
            <AltitudeMeters>519.20001220703125</AltitudeMeters>
            <DistanceMeters>27058.033824187</DistanceMeters>
          </Trackpoint>
          <Trackpoint>
            <Time>2019-05-08T08:25:23.000Z</Time>
            <Position>
              <LatitudeDegrees>42.96830051578581333160400390625</LatitudeDegrees>
              <LongitudeDegrees>0.60955806635320186614990234375</LongitudeDegrees>
            </Position>
            <AltitudeMeters>519.79998779296875</AltitudeMeters>
            <DistanceMeters>27067.519851372</DistanceMeters>
          </Trackpoint>
          <Trackpoint>
            <Time>2019-05-08T08:25:28.000Z</Time>
            <Position>
              <LatitudeDegrees>42.96824972145259380340576171875</LatitudeDegrees>
              <LongitudeDegrees>0.60936796478927135467529296875</LongitudeDegrees>
            </Position>
            <AltitudeMeters>520.79998779296875</AltitudeMeters>
            <DistanceMeters>27084.002535616</DistanceMeters>
          </Trackpoint>
          <Trackpoint>
            <Time>2019-05-08T08:25:29.000Z</Time>
            <Position>
              <LatitudeDegrees>42.9682382382452487945556640625</LatitudeDegrees>
              <LongitudeDegrees>0.6093289889395236968994140625</LongitudeDegrees>
            </Position>
            <AltitudeMeters>520.79998779296875</AltitudeMeters>
            <DistanceMeters>27087.426135947</DistanceMeters>
          </Trackpoint>
          <Trackpoint>
            <Time>2019-05-08T08:25:35.000Z</Time>
            <Position>
              <LatitudeDegrees>42.968164980411529541015625</LatitudeDegrees>
              <LongitudeDegrees>0.609122626483440399169921875</LongitudeDegrees>
            </Position>
            <AltitudeMeters>521.5999755859375</AltitudeMeters>
            <DistanceMeters>27106.106560838</DistanceMeters>
          </Trackpoint>
          <Trackpoint>
            <Time>2019-05-08T08:25:40.000Z</Time>
            <Position>
              <LatitudeDegrees>42.96810890547931194305419921875</LatitudeDegrees>
              <LongitudeDegrees>0.60896093957126140594482421875</LongitudeDegrees>
            </Position>
            <AltitudeMeters>522.79998779296875</AltitudeMeters>
            <DistanceMeters>27120.678838548</DistanceMeters>
          </Trackpoint>
          <Trackpoint>
            <Time>2019-05-08T08:25:42.000Z</Time>
            <Position>
              <LatitudeDegrees>42.96808074228465557098388671875</LatitudeDegrees>
              <LongitudeDegrees>0.60889606364071369171142578125</LongitudeDegrees>
            </Position>
            <AltitudeMeters>523.20001220703125</AltitudeMeters>
            <DistanceMeters>27126.822593062</DistanceMeters>
          </Trackpoint>
          <Trackpoint>
            <Time>2019-05-08T08:25:47.000Z</Time>
            <Position>
              <LatitudeDegrees>42.968015111982822418212890625</LatitudeDegrees>
              <LongitudeDegrees>0.60872809030115604400634765625</LongitudeDegrees>
            </Position>
            <AltitudeMeters>524</AltitudeMeters>
            <DistanceMeters>27142.331174109</DistanceMeters>
          </Trackpoint>
          <Trackpoint>
            <Time>2019-05-08T08:25:49.000Z</Time>
            <Position>
              <LatitudeDegrees>42.96798284165561199188232421875</LatitudeDegrees>
              <LongitudeDegrees>0.608660615980625152587890625</LongitudeDegrees>
            </Position>
            <AltitudeMeters>524.4000244140625</AltitudeMeters>
            <DistanceMeters>27148.895587624</DistanceMeters>
          </Trackpoint>
          <Trackpoint>
            <Time>2019-05-08T08:25:53.000Z</Time>
            <Position>
              <LatitudeDegrees>42.96791486442089080810546875</LatitudeDegrees>
              <LongitudeDegrees>0.608533211052417755126953125</LongitudeDegrees>
            </Position>
            <AltitudeMeters>525</AltitudeMeters>
            <DistanceMeters>27161.73720964</DistanceMeters>
          </Trackpoint>
          <Trackpoint>
            <Time>2019-05-08T08:25:56.000Z</Time>
            <Position>
              <LatitudeDegrees>42.96786750666797161102294921875</LatitudeDegrees>
              <LongitudeDegrees>0.60843656770884990692138671875</LongitudeDegrees>
            </Position>
            <AltitudeMeters>525.5999755859375</AltitudeMeters>
            <DistanceMeters>27171.209423719</DistanceMeters>
          </Trackpoint>
          <Trackpoint>
            <Time>2019-05-08T08:25:59.000Z</Time>
            <Position>
              <LatitudeDegrees>42.96782023273408412933349609375</LatitudeDegrees>
              <LongitudeDegrees>0.6083459593355655670166015625</LongitudeDegrees>
            </Position>
            <AltitudeMeters>526.20001220703125</AltitudeMeters>
            <DistanceMeters>27180.272402</DistanceMeters>
          </Trackpoint>
          <Trackpoint>
            <Time>2019-05-08T08:26:03.000Z</Time>
            <Position>
              <LatitudeDegrees>42.967756949365139007568359375</LatitudeDegrees>
              <LongitudeDegrees>0.60823448002338409423828125</LongitudeDegrees>
            </Position>
            <AltitudeMeters>527</AltitudeMeters>
            <DistanceMeters>27191.763171242</DistanceMeters>
          </Trackpoint>
          <Trackpoint>
            <Time>2019-05-08T08:26:07.000Z</Time>
            <Position>
              <LatitudeDegrees>42.9677115194499492645263671875</LatitudeDegrees>
              <LongitudeDegrees>0.6081062369048595428466796875</LongitudeDegrees>
            </Position>
            <AltitudeMeters>528</AltitudeMeters>
            <DistanceMeters>27203.367329976</DistanceMeters>
          </Trackpoint>
          <Trackpoint>
            <Time>2019-05-08T08:26:10.000Z</Time>
            <Position>
              <LatitudeDegrees>42.96767975203692913055419921875</LatitudeDegrees>
              <LongitudeDegrees>0.608005486428737640380859375</LongitudeDegrees>
            </Position>
            <AltitudeMeters>528.4000244140625</AltitudeMeters>
            <DistanceMeters>27212.301862743</DistanceMeters>
          </Trackpoint>
          <Trackpoint>
            <Time>2019-05-08T08:26:14.000Z</Time>
            <Position>
              <LatitudeDegrees>42.9676344059407711029052734375</LatitudeDegrees>
              <LongitudeDegrees>0.60786299407482147216796875</LongitudeDegrees>
            </Position>
            <AltitudeMeters>529</AltitudeMeters>
            <DistanceMeters>27224.956838276</DistanceMeters>
          </Trackpoint>
          <Trackpoint>
            <Time>2019-05-08T08:26:18.000Z</Time>
            <Position>
              <LatitudeDegrees>42.96759727410972118377685546875</LatitudeDegrees>
              <LongitudeDegrees>0.6077421270310878753662109375</LongitudeDegrees>
            </Position>
            <AltitudeMeters>529.5999755859375</AltitudeMeters>
            <DistanceMeters>27235.632868666</DistanceMeters>
          </Trackpoint>
          <Trackpoint>
            <Time>2019-05-08T08:26:19.000Z</Time>
            <Position>
              <LatitudeDegrees>42.96758889220654964447021484375</LatitudeDegrees>
              <LongitudeDegrees>0.60770809650421142578125</LongitudeDegrees>
            </Position>
            <AltitudeMeters>530</AltitudeMeters>
            <DistanceMeters>27238.557160442</DistanceMeters>
          </Trackpoint>
          <Trackpoint>
            <Time>2019-05-08T08:26:24.000Z</Time>
            <Position>
              <LatitudeDegrees>42.96753608621656894683837890625</LatitudeDegrees>
              <LongitudeDegrees>0.60754355974495410919189453125</LongitudeDegrees>
            </Position>
            <AltitudeMeters>530.79998779296875</AltitudeMeters>
            <DistanceMeters>27253.190040289</DistanceMeters>
          </Trackpoint>
          <Trackpoint>
            <Time>2019-05-08T08:26:25.000Z</Time>
            <Position>
              <LatitudeDegrees>42.967528291046619415283203125</LatitudeDegrees>
              <LongitudeDegrees>0.6075117923319339752197265625</LongitudeDegrees>
            </Position>
            <AltitudeMeters>531</AltitudeMeters>
            <DistanceMeters>27255.919474858</DistanceMeters>
          </Trackpoint>
          <Trackpoint>
            <Time>2019-05-08T08:26:30.000Z</Time>
            <Position>
              <LatitudeDegrees>42.96747724525630474090576171875</LatitudeDegrees>
              <LongitudeDegrees>0.6073746643960475921630859375</LongitudeDegrees>
            </Position>
            <AltitudeMeters>531.79998779296875</AltitudeMeters>
            <DistanceMeters>27268.450036267</DistanceMeters>
          </Trackpoint>
          <Trackpoint>
            <Time>2019-05-08T08:26:33.000Z</Time>
            <Position>
              <LatitudeDegrees>42.9674503393471240997314453125</LatitudeDegrees>
              <LongitudeDegrees>0.607279948890209197998046875</LongitudeDegrees>
            </Position>
            <AltitudeMeters>532.20001220703125</AltitudeMeters>
            <DistanceMeters>27276.725002712</DistanceMeters>
          </Trackpoint>
          <Trackpoint>
            <Time>2019-05-08T08:26:37.000Z</Time>
            <Position>
              <LatitudeDegrees>42.9673846252262592315673828125</LatitudeDegrees>
              <LongitudeDegrees>0.60713334940373897552490234375</LongitudeDegrees>
            </Position>
            <AltitudeMeters>533</AltitudeMeters>
            <DistanceMeters>27290.7265369</DistanceMeters>
          </Trackpoint>
          <Trackpoint>
            <Time>2019-05-08T08:26:40.000Z</Time>
            <Position>
              <LatitudeDegrees>42.96733148396015167236328125</LatitudeDegrees>
              <LongitudeDegrees>0.60700728558003902435302734375</LongitudeDegrees>
            </Position>
            <AltitudeMeters>533.4000244140625</AltitudeMeters>
            <DistanceMeters>27302.57557182</DistanceMeters>
          </Trackpoint>
          <Trackpoint>
            <Time>2019-05-08T08:26:45.000Z</Time>
            <Position>
              <LatitudeDegrees>42.96725638210773468017578125</LatitudeDegrees>
              <LongitudeDegrees>0.60683780349791049957275390625</LongitudeDegrees>
            </Position>
            <AltitudeMeters>534.20001220703125</AltitudeMeters>
            <DistanceMeters>27318.712775559</DistanceMeters>
          </Trackpoint>
          <Trackpoint>
            <Time>2019-05-08T08:26:46.000Z</Time>
            <Position>
              <LatitudeDegrees>42.9672401212155818939208984375</LatitudeDegrees>
              <LongitudeDegrees>0.60680486261844635009765625</LongitudeDegrees>
            </Position>
            <AltitudeMeters>534.4000244140625</AltitudeMeters>
            <DistanceMeters>27321.949268827</DistanceMeters>
          </Trackpoint>
          <Trackpoint>
            <Time>2019-05-08T08:26:51.000Z</Time>
            <Position>
              <LatitudeDegrees>42.96715118922293186187744140625</LatitudeDegrees>
              <LongitudeDegrees>0.60664753429591655731201171875</LongitudeDegrees>
            </Position>
            <AltitudeMeters>535</AltitudeMeters>
            <DistanceMeters>27338.140660963</DistanceMeters>
          </Trackpoint>
          <Trackpoint>
            <Time>2019-05-08T08:26:52.000Z</Time>
            <Position>
              <LatitudeDegrees>42.96713341958820819854736328125</LatitudeDegrees>
              <LongitudeDegrees>0.606614090502262115478515625</LongitudeDegrees>
            </Position>
            <AltitudeMeters>535.20001220703125</AltitudeMeters>
            <DistanceMeters>27341.505733899</DistanceMeters>
          </Trackpoint>
          <Trackpoint>
            <Time>2019-05-08T08:26:57.000Z</Time>
            <Position>
              <LatitudeDegrees>42.9670516960322856903076171875</LatitudeDegrees>
              <LongitudeDegrees>0.6064556725323200225830078125</LongitudeDegrees>
            </Position>
            <AltitudeMeters>536.20001220703125</AltitudeMeters>
            <DistanceMeters>27357.292185359</DistanceMeters>
          </Trackpoint>
          <Trackpoint>
            <Time>2019-05-08T08:26:59.000Z</Time>
            <Position>
              <LatitudeDegrees>42.96702747233211994171142578125</LatitudeDegrees>
              <LongitudeDegrees>0.606381408870220184326171875</LongitudeDegrees>
            </Position>
            <AltitudeMeters>536.5999755859375</AltitudeMeters>
            <DistanceMeters>27363.914122478</DistanceMeters>
          </Trackpoint>
          <Trackpoint>
            <Time>2019-05-08T08:27:03.000Z</Time>
            <Position>
              <LatitudeDegrees>42.9670057632029056549072265625</LatitudeDegrees>
              <LongitudeDegrees>0.60623967088758945465087890625</LongitudeDegrees>
            </Position>
            <AltitudeMeters>537.20001220703125</AltitudeMeters>
            <DistanceMeters>27375.708159003</DistanceMeters>
          </Trackpoint>
          <Trackpoint>
            <Time>2019-05-08T08:27:05.000Z</Time>
            <Position>
              <LatitudeDegrees>42.96700567938387393951416015625</LatitudeDegrees>
              <LongitudeDegrees>0.60616607777774333953857421875</LongitudeDegrees>
            </Position>
            <AltitudeMeters>537.5999755859375</AltitudeMeters>
            <DistanceMeters>27381.701625787</DistanceMeters>
          </Trackpoint>
          <Trackpoint>
            <Time>2019-05-08T08:27:09.000Z</Time>
            <Position>
              <LatitudeDegrees>42.96698606573045253753662109375</LatitudeDegrees>
              <LongitudeDegrees>0.6060352362692356109619140625</LongitudeDegrees>
            </Position>
            <AltitudeMeters>538.4000244140625</AltitudeMeters>
            <DistanceMeters>27392.579590749</DistanceMeters>
          </Trackpoint>
          <Trackpoint>
            <Time>2019-05-08T08:27:14.000Z</Time>
            <Position>
              <LatitudeDegrees>42.96696125529706478118896484375</LatitudeDegrees>
              <LongitudeDegrees>0.6058971025049686431884765625</LongitudeDegrees>
            </Position>
            <AltitudeMeters>539.5999755859375</AltitudeMeters>
            <DistanceMeters>27404.164278751</DistanceMeters>
          </Trackpoint>
          <Trackpoint>
            <Time>2019-05-08T08:27:16.000Z</Time>
            <Position>
              <LatitudeDegrees>42.9669360257685184478759765625</LatitudeDegrees>
              <LongitudeDegrees>0.60584505088627338409423828125</LongitudeDegrees>
            </Position>
            <AltitudeMeters>540</AltitudeMeters>
            <DistanceMeters>27409.24798594</DistanceMeters>
          </Trackpoint>
          <Trackpoint>
            <Time>2019-05-08T08:27:20.000Z</Time>
            <Position>
              <LatitudeDegrees>42.9668907634913921356201171875</LatitudeDegrees>
              <LongitudeDegrees>0.6057406961917877197265625</LongitudeDegrees>
            </Position>
            <AltitudeMeters>541</AltitudeMeters>
            <DistanceMeters>27419.128022699</DistanceMeters>
          </Trackpoint>
          <Trackpoint>
            <Time>2019-05-08T08:27:22.000Z</Time>
            <Position>
              <LatitudeDegrees>42.96687324531376361846923828125</LatitudeDegrees>
              <LongitudeDegrees>0.60568562708795070648193359375</LongitudeDegrees>
            </Position>
            <AltitudeMeters>541.20001220703125</AltitudeMeters>
            <DistanceMeters>27424.017975912</DistanceMeters>
          </Trackpoint>
          <Trackpoint>
            <Time>2019-05-08T08:27:25.000Z</Time>
            <Position>
              <LatitudeDegrees>42.96685312874615192413330078125</LatitudeDegrees>
              <LongitudeDegrees>0.60558403842151165008544921875</LongitudeDegrees>
            </Position>
            <AltitudeMeters>541.79998779296875</AltitudeMeters>
            <DistanceMeters>27432.589364478</DistanceMeters>
          </Trackpoint>
          <Trackpoint>
            <Time>2019-05-08T08:27:28.000Z</Time>
            <Position>
              <LatitudeDegrees>42.96683955006301403045654296875</LatitudeDegrees>
              <LongitudeDegrees>0.60544875450432300567626953125</LongitudeDegrees>
            </Position>
            <AltitudeMeters>542.4000244140625</AltitudeMeters>
            <DistanceMeters>27443.710738361</DistanceMeters>
          </Trackpoint>
          <Trackpoint>
            <Time>2019-05-08T08:27:32.000Z</Time>
            <Position>
              <LatitudeDegrees>42.9668347723782062530517578125</LatitudeDegrees>
              <LongitudeDegrees>0.60527625493705272674560546875</LongitudeDegrees>
            </Position>
            <AltitudeMeters>543</AltitudeMeters>
            <DistanceMeters>27457.769875721</DistanceMeters>
          </Trackpoint>
          <Trackpoint>
            <Time>2019-05-08T08:27:35.000Z</Time>
            <Position>
              <LatitudeDegrees>42.96682613901793956756591796875</LatitudeDegrees>
              <LongitudeDegrees>0.605168044567108154296875</LongitudeDegrees>
            </Position>
            <AltitudeMeters>543.4000244140625</AltitudeMeters>
            <DistanceMeters>27466.635924189</DistanceMeters>
          </Trackpoint>
          <Trackpoint>
            <Time>2019-05-08T08:27:38.000Z</Time>
            <Position>
              <LatitudeDegrees>42.966820858418941497802734375</LatitudeDegrees>
              <LongitudeDegrees>0.6050414778292179107666015625</LongitudeDegrees>
            </Position>
            <AltitudeMeters>544</AltitudeMeters>
            <DistanceMeters>27476.961091621</DistanceMeters>
          </Trackpoint>
          <Trackpoint>
            <Time>2019-05-08T08:27:40.000Z</Time>
            <Position>
              <LatitudeDegrees>42.9668253846466541290283203125</LatitudeDegrees>
              <LongitudeDegrees>0.604968555271625518798828125</LongitudeDegrees>
            </Position>
            <AltitudeMeters>544.4000244140625</AltitudeMeters>
            <DistanceMeters>27482.921319866</DistanceMeters>
          </Trackpoint>
          <Trackpoint>
            <Time>2019-05-08T08:27:44.000Z</Time>
            <Position>
              <LatitudeDegrees>42.966812141239643096923828125</LatitudeDegrees>
              <LongitudeDegrees>0.60480393469333648681640625</LongitudeDegrees>
            </Position>
            <AltitudeMeters>545</AltitudeMeters>
            <DistanceMeters>27496.409758626</DistanceMeters>
          </Trackpoint>
          <Trackpoint>
            <Time>2019-05-08T08:27:47.000Z</Time>
            <Position>
              <LatitudeDegrees>42.9668005742132663726806640625</LatitudeDegrees>
              <LongitudeDegrees>0.60467175208032131195068359375</LongitudeDegrees>
            </Position>
            <AltitudeMeters>545.5999755859375</AltitudeMeters>
            <DistanceMeters>27507.251969432</DistanceMeters>
          </Trackpoint>
          <Trackpoint>
            <Time>2019-05-08T08:27:51.000Z</Time>
            <Position>
              <LatitudeDegrees>42.966783978044986724853515625</LatitudeDegrees>
              <LongitudeDegrees>0.6045080535113811492919921875</LongitudeDegrees>
            </Position>
            <AltitudeMeters>546.4000244140625</AltitudeMeters>
            <DistanceMeters>27520.711590289</DistanceMeters>
          </Trackpoint>
          <Trackpoint>
            <Time>2019-05-08T08:27:54.000Z</Time>
            <Position>
              <LatitudeDegrees>42.96677433885633945465087890625</LatitudeDegrees>
              <LongitudeDegrees>0.604394562542438507080078125</LongitudeDegrees>
            </Position>
            <AltitudeMeters>547</AltitudeMeters>
            <DistanceMeters>27530.017418199</DistanceMeters>
          </Trackpoint>
          <Trackpoint>
            <Time>2019-05-08T08:27:56.000Z</Time>
            <Position>
              <LatitudeDegrees>42.96676578931510448455810546875</LatitudeDegrees>
              <LongitudeDegrees>0.60431820340454578399658203125</LongitudeDegrees>
            </Position>
            <AltitudeMeters>547.20001220703125</AltitudeMeters>
            <DistanceMeters>27536.309306241</DistanceMeters>
          </Trackpoint>
          <Trackpoint>
            <Time>2019-05-08T08:28:01.000Z</Time>
            <Position>
              <LatitudeDegrees>42.9667237959802150726318359375</LatitudeDegrees>
              <LongitudeDegrees>0.60416531749069690704345703125</LongitudeDegrees>
            </Position>
            <AltitudeMeters>548.20001220703125</AltitudeMeters>
            <DistanceMeters>27549.609652008</DistanceMeters>
          </Trackpoint>
          <Trackpoint>
            <Time>2019-05-08T08:28:03.000Z</Time>
            <Position>
              <LatitudeDegrees>42.966694794595241546630859375</LatitudeDegrees>
              <LongitudeDegrees>0.60411452315747737884521484375</LongitudeDegrees>
            </Position>
            <AltitudeMeters>548.4000244140625</AltitudeMeters>
            <DistanceMeters>27554.857673841</DistanceMeters>
          </Trackpoint>
          <Trackpoint>
            <Time>2019-05-08T08:28:08.000Z</Time>
            <Position>
              <LatitudeDegrees>42.9666188545525074005126953125</LatitudeDegrees>
              <LongitudeDegrees>0.60396582819521427154541015625</LongitudeDegrees>
            </Position>
            <AltitudeMeters>549.4000244140625</AltitudeMeters>
            <DistanceMeters>27569.626305004</DistanceMeters>
          </Trackpoint>
          <Trackpoint>
            <Time>2019-05-08T08:28:15.000Z</Time>
            <Position>
              <LatitudeDegrees>42.96653889119625091552734375</LatitudeDegrees>
              <LongitudeDegrees>0.60375678353011608123779296875</LongitudeDegrees>
            </Position>
            <AltitudeMeters>550.5999755859375</AltitudeMeters>
            <DistanceMeters>27588.837689244</DistanceMeters>
          </Trackpoint>
          <Trackpoint>
            <Time>2019-05-08T08:28:21.000Z</Time>
            <Position>
              <LatitudeDegrees>42.96646420843899250030517578125</LatitudeDegrees>
              <LongitudeDegrees>0.60356114991009235382080078125</LongitudeDegrees>
            </Position>
            <AltitudeMeters>551.5999755859375</AltitudeMeters>
            <DistanceMeters>27606.809047403</DistanceMeters>
          </Trackpoint>
          <Trackpoint>
            <Time>2019-05-08T08:28:28.000Z</Time>
            <Position>
              <LatitudeDegrees>42.96634753234684467315673828125</LatitudeDegrees>
              <LongitudeDegrees>0.60335964895784854888916015625</LongitudeDegrees>
            </Position>
            <AltitudeMeters>552.5999755859375</AltitudeMeters>
            <DistanceMeters>27627.736941891</DistanceMeters>
          </Trackpoint>
          <Trackpoint>
            <Time>2019-05-08T08:28:33.000Z</Time>
            <Position>
              <LatitudeDegrees>42.96626798808574676513671875</LatitudeDegrees>
              <LongitudeDegrees>0.6032118760049343109130859375</LongitudeDegrees>
            </Position>
            <AltitudeMeters>553.5999755859375</AltitudeMeters>
            <DistanceMeters>27642.678211912</DistanceMeters>
          </Trackpoint>
          <Trackpoint>
            <Time>2019-05-08T08:28:34.000Z</Time>
            <Position>
              <LatitudeDegrees>42.9662513919174671173095703125</LatitudeDegrees>
              <LongitudeDegrees>0.6031790189445018768310546875</LongitudeDegrees>
            </Position>
            <AltitudeMeters>553.79998779296875</AltitudeMeters>
            <DistanceMeters>27645.930014415</DistanceMeters>
          </Trackpoint>
          <Trackpoint>
            <Time>2019-05-08T08:28:39.000Z</Time>
            <Position>
              <LatitudeDegrees>42.96616614796221256256103515625</LatitudeDegrees>
              <LongitudeDegrees>0.60302537865936756134033203125</LongitudeDegrees>
            </Position>
            <AltitudeMeters>554.4000244140625</AltitudeMeters>
            <DistanceMeters>27661.633879789</DistanceMeters>
          </Trackpoint>
          <Trackpoint>
            <Time>2019-05-08T08:28:45.000Z</Time>
            <Position>
              <LatitudeDegrees>42.96609473414719104766845703125</LatitudeDegrees>
              <LongitudeDegrees>0.60283980332314968109130859375</LongitudeDegrees>
            </Position>
            <AltitudeMeters>555.4000244140625</AltitudeMeters>
            <DistanceMeters>27678.710685365</DistanceMeters>
          </Trackpoint>
          <Trackpoint>
            <Time>2019-05-08T08:28:46.000Z</Time>
            <Position>
              <LatitudeDegrees>42.96608618460595607757568359375</LatitudeDegrees>
              <LongitudeDegrees>0.602812059223651885986328125</LongitudeDegrees>
            </Position>
            <AltitudeMeters>555.5999755859375</AltitudeMeters>
            <DistanceMeters>27681.163037483</DistanceMeters>
          </Trackpoint>
          <Trackpoint>
            <Time>2019-05-08T08:28:51.000Z</Time>
            <Position>
              <LatitudeDegrees>42.96603790484368801116943359375</LatitudeDegrees>
              <LongitudeDegrees>0.6026563234627246856689453125</LongitudeDegrees>
            </Position>
            <AltitudeMeters>556.4000244140625</AltitudeMeters>
            <DistanceMeters>27694.938306133</DistanceMeters>
          </Trackpoint>
          <Trackpoint>
            <Time>2019-05-08T08:28:52.000Z</Time>
            <Position>
              <LatitudeDegrees>42.96602969057857990264892578125</LatitudeDegrees>
              <LongitudeDegrees>0.60262170620262622833251953125</LongitudeDegrees>
            </Position>
            <AltitudeMeters>556.4000244140625</AltitudeMeters>
            <DistanceMeters>27697.900945886</DistanceMeters>
          </Trackpoint>
          <Trackpoint>
            <Time>2019-05-08T08:28:58.000Z</Time>
            <Position>
              <LatitudeDegrees>42.9659821651875972747802734375</LatitudeDegrees>
              <LongitudeDegrees>0.6024109013378620147705078125</LongitudeDegrees>
            </Position>
            <AltitudeMeters>557.5999755859375</AltitudeMeters>
            <DistanceMeters>27715.866273388</DistanceMeters>
          </Trackpoint>
          <Trackpoint>
            <Time>2019-05-08T08:29:03.000Z</Time>
            <Position>
              <LatitudeDegrees>42.96592391096055507659912109375</LatitudeDegrees>
              <LongitudeDegrees>0.6022620387375354766845703125</LongitudeDegrees>
            </Position>
            <AltitudeMeters>558.4000244140625</AltitudeMeters>
            <DistanceMeters>27729.615295909</DistanceMeters>
          </Trackpoint>
          <Trackpoint>
            <Time>2019-05-08T08:29:04.000Z</Time>
            <Position>
              <LatitudeDegrees>42.96590982936322689056396484375</LatitudeDegrees>
              <LongitudeDegrees>0.60223303735256195068359375</LongitudeDegrees>
            </Position>
            <AltitudeMeters>558.5999755859375</AltitudeMeters>
            <DistanceMeters>27732.450215314</DistanceMeters>
          </Trackpoint>
          <Trackpoint>
            <Time>2019-05-08T08:29:09.000Z</Time>
            <Position>
              <LatitudeDegrees>42.96586163341999053955078125</LatitudeDegrees>
              <LongitudeDegrees>0.6020481325685977935791015625</LongitudeDegrees>
            </Position>
            <AltitudeMeters>559.5999755859375</AltitudeMeters>
            <DistanceMeters>27748.437030307</DistanceMeters>
          </Trackpoint>
          <Trackpoint>
            <Time>2019-05-08T08:29:14.000Z</Time>
            <Position>
              <LatitudeDegrees>42.96581092290580272674560546875</LatitudeDegrees>
              <LongitudeDegrees>0.60187228024005889892578125</LongitudeDegrees>
            </Position>
            <AltitudeMeters>560.4000244140625</AltitudeMeters>
            <DistanceMeters>27763.831358034</DistanceMeters>
          </Trackpoint>
          <Trackpoint>
            <Time>2019-05-08T08:29:15.000Z</Time>
            <Position>
              <LatitudeDegrees>42.965802289545536041259765625</LatitudeDegrees>
              <LongitudeDegrees>0.601837076246738433837890625</LongitudeDegrees>
            </Position>
            <AltitudeMeters>560.5999755859375</AltitudeMeters>
            <DistanceMeters>27766.854342878</DistanceMeters>
          </Trackpoint>
          <Trackpoint>
            <Time>2019-05-08T08:29:20.000Z</Time>
            <Position>
              <LatitudeDegrees>42.965753339231014251708984375</LatitudeDegrees>
              <LongitudeDegrees>0.60165728442370891571044921875</LongitudeDegrees>
            </Position>
            <AltitudeMeters>561.5999755859375</AltitudeMeters>
            <DistanceMeters>27782.478653633</DistanceMeters>
          </Trackpoint>
          <Trackpoint>
            <Time>2019-05-08T08:29:21.000Z</Time>
            <Position>
              <LatitudeDegrees>42.9657414369285106658935546875</LatitudeDegrees>
              <LongitudeDegrees>0.60162409208714962005615234375</LongitudeDegrees>
            </Position>
            <AltitudeMeters>562</AltitudeMeters>
            <DistanceMeters>27785.48816633</DistanceMeters>
          </Trackpoint>
          <Trackpoint>
            <Time>2019-05-08T08:29:28.000Z</Time>
            <Position>
              <LatitudeDegrees>42.96567924320697784423828125</LatitudeDegrees>
              <LongitudeDegrees>0.60137079097330570220947265625</LongitudeDegrees>
            </Position>
            <AltitudeMeters>563</AltitudeMeters>
            <DistanceMeters>27807.249076438</DistanceMeters>
          </Trackpoint>
          <Trackpoint>
            <Time>2019-05-08T08:29:30.000Z</Time>
            <Position>
              <LatitudeDegrees>42.965659461915493011474609375</LatitudeDegrees>
              <LongitudeDegrees>0.6012991257011890411376953125</LongitudeDegrees>
            </Position>
            <AltitudeMeters>563.4000244140625</AltitudeMeters>
            <DistanceMeters>27813.487636326</DistanceMeters>
          </Trackpoint>
          <Trackpoint>
            <Time>2019-05-08T08:29:33.000Z</Time>
            <Position>
              <LatitudeDegrees>42.965623252093791961669921875</LatitudeDegrees>
              <LongitudeDegrees>0.601218827068805694580078125</LongitudeDegrees>
            </Position>
            <AltitudeMeters>563.79998779296875</AltitudeMeters>
            <DistanceMeters>27821.170121577</DistanceMeters>
          </Trackpoint>
          <Trackpoint>
            <Time>2019-05-08T08:29:35.000Z</Time>
            <Position>
              <LatitudeDegrees>42.96560280025005340576171875</LatitudeDegrees>
              <LongitudeDegrees>0.60115654952824115753173828125</LongitudeDegrees>
            </Position>
            <AltitudeMeters>564</AltitudeMeters>
            <DistanceMeters>27826.72979348</DistanceMeters>
          </Trackpoint>
          <Trackpoint>
            <Time>2019-05-08T08:29:40.000Z</Time>
            <Position>
              <LatitudeDegrees>42.9655476473271846771240234375</LatitudeDegrees>
              <LongitudeDegrees>0.60098170302808284759521484375</LongitudeDegrees>
            </Position>
            <AltitudeMeters>564.5999755859375</AltitudeMeters>
            <DistanceMeters>27842.237501107</DistanceMeters>
          </Trackpoint>
          <Trackpoint>
            <Time>2019-05-08T08:29:41.000Z</Time>
            <Position>
              <LatitudeDegrees>42.96553708612918853759765625</LatitudeDegrees>
              <LongitudeDegrees>0.60094683431088924407958984375</LongitudeDegrees>
            </Position>
            <AltitudeMeters>565</AltitudeMeters>
            <DistanceMeters>27845.310847811</DistanceMeters>
          </Trackpoint>
          <Trackpoint>
            <Time>2019-05-08T08:29:46.000Z</Time>
            <Position>
              <LatitudeDegrees>42.9655087552964687347412109375</LatitudeDegrees>
              <LongitudeDegrees>0.6007197685539722442626953125</LongitudeDegrees>
            </Position>
            <AltitudeMeters>566</AltitudeMeters>
            <DistanceMeters>27864.071345125</DistanceMeters>
          </Trackpoint>
          <Trackpoint>
            <Time>2019-05-08T08:29:48.000Z</Time>
            <Position>
              <LatitudeDegrees>42.9655090905725955963134765625</LatitudeDegrees>
              <LongitudeDegrees>0.60062999837100505828857421875</LongitudeDegrees>
            </Position>
            <AltitudeMeters>566.4000244140625</AltitudeMeters>
            <DistanceMeters>27871.382846513</DistanceMeters>
          </Trackpoint>
          <Trackpoint>
            <Time>2019-05-08T08:29:52.000Z</Time>
            <Position>
              <LatitudeDegrees>42.96550598926842212677001953125</LatitudeDegrees>
              <LongitudeDegrees>0.600456409156322479248046875</LongitudeDegrees>
            </Position>
            <AltitudeMeters>566.79998779296875</AltitudeMeters>
            <DistanceMeters>27885.525554643</DistanceMeters>
          </Trackpoint>
          <Trackpoint>
            <Time>2019-05-08T08:29:54.000Z</Time>
            <Position>
              <LatitudeDegrees>42.96551135368645191192626953125</LatitudeDegrees>
              <LongitudeDegrees>0.60037720017135143280029296875</LongitudeDegrees>
            </Position>
            <AltitudeMeters>567.20001220703125</AltitudeMeters>
            <DistanceMeters>27892.004815819</DistanceMeters>
          </Trackpoint>
          <Trackpoint>
            <Time>2019-05-08T08:29:58.000Z</Time>
            <Position>
              <LatitudeDegrees>42.9655191488564014434814453125</LatitudeDegrees>
              <LongitudeDegrees>0.60022314079105854034423828125</LongitudeDegrees>
            </Position>
            <AltitudeMeters>568</AltitudeMeters>
            <DistanceMeters>27904.582131874</DistanceMeters>
          </Trackpoint>
          <Trackpoint>
            <Time>2019-05-08T08:29:59.000Z</Time>
            <Position>
              <LatitudeDegrees>42.96551956795156002044677734375</LatitudeDegrees>
              <LongitudeDegrees>0.60018039308488368988037109375</LongitudeDegrees>
            </Position>
            <AltitudeMeters>568</AltitudeMeters>
            <DistanceMeters>27908.063275736</DistanceMeters>
          </Trackpoint>
          <Trackpoint>
            <Time>2019-05-08T08:30:07.000Z</Time>
            <Position>
              <LatitudeDegrees>42.9654913209378719329833984375</LatitudeDegrees>
              <LongitudeDegrees>0.59985735453665256500244140625</LongitudeDegrees>
            </Position>
            <AltitudeMeters>569.4000244140625</AltitudeMeters>
            <DistanceMeters>27934.56090891</DistanceMeters>
          </Trackpoint>
          <Trackpoint>
            <Time>2019-05-08T08:30:08.000Z</Time>
            <Position>
              <LatitudeDegrees>42.96548218466341495513916015625</LatitudeDegrees>
              <LongitudeDegrees>0.59982776641845703125</LongitudeDegrees>
            </Position>
            <AltitudeMeters>569.5999755859375</AltitudeMeters>
            <DistanceMeters>27937.177165385</DistanceMeters>
          </Trackpoint>
          <Trackpoint>
            <Time>2019-05-08T08:30:12.000Z</Time>
            <Position>
              <LatitudeDegrees>42.96543541364371776580810546875</LatitudeDegrees>
              <LongitudeDegrees>0.59968971647322177886962890625</LongitudeDegrees>
            </Position>
            <AltitudeMeters>570.20001220703125</AltitudeMeters>
            <DistanceMeters>27949.567497488</DistanceMeters>
          </Trackpoint>
          <Trackpoint>
            <Time>2019-05-08T08:30:14.000Z</Time>
            <Position>
              <LatitudeDegrees>42.96541093848645687103271484375</LatitudeDegrees>
              <LongitudeDegrees>0.599617548286914825439453125</LongitudeDegrees>
            </Position>
            <AltitudeMeters>570.20001220703125</AltitudeMeters>
            <DistanceMeters>27956.046061782</DistanceMeters>
          </Trackpoint>
          <Trackpoint>
            <Time>2019-05-08T08:30:18.000Z</Time>
            <Position>
              <LatitudeDegrees>42.96536819078028202056884765625</LatitudeDegrees>
              <LongitudeDegrees>0.59947170317173004150390625</LongitudeDegrees>
            </Position>
            <AltitudeMeters>570.79998779296875</AltitudeMeters>
            <DistanceMeters>27968.841894935</DistanceMeters>
          </Trackpoint>
          <Trackpoint>
            <Time>2019-05-08T08:30:19.000Z</Time>
            <Position>
              <LatitudeDegrees>42.965359725058078765869140625</LatitudeDegrees>
              <LongitudeDegrees>0.599433816969394683837890625</LongitudeDegrees>
            </Position>
            <AltitudeMeters>571.20001220703125</AltitudeMeters>
            <DistanceMeters>27972.067208573</DistanceMeters>
          </Trackpoint>
          <Trackpoint>
            <Time>2019-05-08T08:30:24.000Z</Time>
            <Position>
              <LatitudeDegrees>42.96532426960766315460205078125</LatitudeDegrees>
              <LongitudeDegrees>0.59925687499344348907470703125</LongitudeDegrees>
            </Position>
            <AltitudeMeters>571.79998779296875</AltitudeMeters>
            <DistanceMeters>27987.009082954</DistanceMeters>
          </Trackpoint>
          <Trackpoint>
            <Time>2019-05-08T08:30:26.000Z</Time>
            <Position>
              <LatitudeDegrees>42.965312115848064422607421875</LatitudeDegrees>
              <LongitudeDegrees>0.59917305596172809600830078125</LongitudeDegrees>
            </Position>
            <AltitudeMeters>572.20001220703125</AltitudeMeters>
            <DistanceMeters>27993.968776197</DistanceMeters>
          </Trackpoint>
          <Trackpoint>
            <Time>2019-05-08T08:30:31.000Z</Time>
            <Position>
              <LatitudeDegrees>42.96529526822268962860107421875</LatitudeDegrees>
              <LongitudeDegrees>0.598957724869251251220703125</LongitudeDegrees>
            </Position>
            <AltitudeMeters>572.79998779296875</AltitudeMeters>
            <DistanceMeters>28011.606922178</DistanceMeters>
          </Trackpoint>
          <Trackpoint>
            <Time>2019-05-08T08:30:34.000Z</Time>
            <Position>
              <LatitudeDegrees>42.96528336592018604278564453125</LatitudeDegrees>
              <LongitudeDegrees>0.59883610345423221588134765625</LongitudeDegrees>
            </Position>
            <AltitudeMeters>573.4000244140625</AltitudeMeters>
            <DistanceMeters>28021.600552423</DistanceMeters>
          </Trackpoint>
          <Trackpoint>
            <Time>2019-05-08T08:30:37.000Z</Time>
            <Position>
              <LatitudeDegrees>42.965275906026363372802734375</LatitudeDegrees>
              <LongitudeDegrees>0.59872495941817760467529296875</LongitudeDegrees>
            </Position>
            <AltitudeMeters>573.79998779296875</AltitudeMeters>
            <DistanceMeters>28030.691386247</DistanceMeters>
          </Trackpoint>
          <Trackpoint>
            <Time>2019-05-08T08:30:41.000Z</Time>
            <Position>
              <LatitudeDegrees>42.96526676975190639495849609375</LatitudeDegrees>
              <LongitudeDegrees>0.59856251813471317291259765625</LongitudeDegrees>
            </Position>
            <AltitudeMeters>574.4000244140625</AltitudeMeters>
            <DistanceMeters>28043.960804493</DistanceMeters>
          </Trackpoint>
          <Trackpoint>
            <Time>2019-05-08T08:30:43.000Z</Time>
            <Position>
              <LatitudeDegrees>42.96526291407644748687744140625</LatitudeDegrees>
              <LongitudeDegrees>0.598480291664600372314453125</LongitudeDegrees>
            </Position>
            <AltitudeMeters>574.5999755859375</AltitudeMeters>
            <DistanceMeters>28050.672139777</DistanceMeters>
          </Trackpoint>
          <Trackpoint>
            <Time>2019-05-08T08:30:50.000Z</Time>
            <Position>
              <LatitudeDegrees>42.96523223631083965301513671875</LatitudeDegrees>
              <LongitudeDegrees>0.59819002635776996612548828125</LongitudeDegrees>
            </Position>
            <AltitudeMeters>575.5999755859375</AltitudeMeters>
            <DistanceMeters>28074.558650199</DistanceMeters>
          </Trackpoint>
          <Trackpoint>
            <Time>2019-05-08T08:30:51.000Z</Time>
            <Position>
              <LatitudeDegrees>42.96522863209247589111328125</LatitudeDegrees>
              <LongitudeDegrees>0.5981505475938320159912109375</LongitudeDegrees>
            </Position>
            <AltitudeMeters>575.79998779296875</AltitudeMeters>
            <DistanceMeters>28077.799325885</DistanceMeters>
          </Trackpoint>
          <Trackpoint>
            <Time>2019-05-08T08:30:57.000Z</Time>
            <Position>
              <LatitudeDegrees>42.96519787050783634185791015625</LatitudeDegrees>
              <LongitudeDegrees>0.59791333973407745361328125</LongitudeDegrees>
            </Position>
            <AltitudeMeters>576.4000244140625</AltitudeMeters>
            <DistanceMeters>28097.420213965</DistanceMeters>
          </Trackpoint>
          <Trackpoint>
            <Time>2019-05-08T08:31:03.000Z</Time>
            <Position>
              <LatitudeDegrees>42.96516291797161102294921875</LatitudeDegrees>
              <LongitudeDegrees>0.59764235280454158782958984375</LongitudeDegrees>
            </Position>
            <AltitudeMeters>577</AltitudeMeters>
            <DistanceMeters>28119.831615348</DistanceMeters>
          </Trackpoint>
          <Trackpoint>
            <Time>2019-05-08T08:31:05.000Z</Time>
            <Position>
              <LatitudeDegrees>42.96515579335391521453857421875</LatitudeDegrees>
              <LongitudeDegrees>0.5975373275578022003173828125</LongitudeDegrees>
            </Position>
            <AltitudeMeters>577.5999755859375</AltitudeMeters>
            <DistanceMeters>28128.422471812</DistanceMeters>
          </Trackpoint>
          <Trackpoint>
            <Time>2019-05-08T08:31:10.000Z</Time>
            <Position>
              <LatitudeDegrees>42.96513517387211322784423828125</LatitudeDegrees>
              <LongitudeDegrees>0.59727287851274013519287109375</LongitudeDegrees>
            </Position>
            <AltitudeMeters>578.20001220703125</AltitudeMeters>
            <DistanceMeters>28150.082935375</DistanceMeters>
          </Trackpoint>
          <Trackpoint>
            <Time>2019-05-08T08:31:14.000Z</Time>
            <Position>
              <LatitudeDegrees>42.96510030515491962432861328125</LatitudeDegrees>
              <LongitudeDegrees>0.59707238338887691497802734375</LongitudeDegrees>
            </Position>
            <AltitudeMeters>578.5999755859375</AltitudeMeters>
            <DistanceMeters>28166.867461729</DistanceMeters>
          </Trackpoint>
          <Trackpoint>
            <Time>2019-05-08T08:31:18.000Z</Time>
            <Position>
              <LatitudeDegrees>42.965059988200664520263671875</LatitudeDegrees>
              <LongitudeDegrees>0.596879683434963226318359375</LongitudeDegrees>
            </Position>
            <AltitudeMeters>579.20001220703125</AltitudeMeters>
            <DistanceMeters>28183.191048825</DistanceMeters>
          </Trackpoint>
          <Trackpoint>
            <Time>2019-05-08T08:31:19.000Z</Time>
            <Position>
              <LatitudeDegrees>42.965047247707843780517578125</LatitudeDegrees>
              <LongitudeDegrees>0.59683375060558319091796875</LongitudeDegrees>
            </Position>
            <AltitudeMeters>579</AltitudeMeters>
            <DistanceMeters>28187.191210754</DistanceMeters>
          </Trackpoint>
          <Trackpoint>
            <Time>2019-05-08T08:31:24.000Z</Time>
            <Position>
              <LatitudeDegrees>42.96500257216393947601318359375</LatitudeDegrees>
              <LongitudeDegrees>0.59660978615283966064453125</LongitudeDegrees>
            </Position>
            <AltitudeMeters>579.79998779296875</AltitudeMeters>
            <DistanceMeters>28206.097945166</DistanceMeters>
          </Trackpoint>
          <Trackpoint>
            <Time>2019-05-08T08:31:25.000Z</Time>
            <Position>
              <LatitudeDegrees>42.96499670483171939849853515625</LatitudeDegrees>
              <LongitudeDegrees>0.596558153629302978515625</LongitudeDegrees>
            </Position>
            <AltitudeMeters>580</AltitudeMeters>
            <DistanceMeters>28210.352977865</DistanceMeters>
          </Trackpoint>
          <Trackpoint>
            <Time>2019-05-08T08:31:27.000Z</Time>
            <Position>
              <LatitudeDegrees>42.96498010866343975067138671875</LatitudeDegrees>
              <LongitudeDegrees>0.59646033681929111480712890625</LongitudeDegrees>
            </Position>
            <AltitudeMeters>580.20001220703125</AltitudeMeters>
            <DistanceMeters>28218.530798244</DistanceMeters>
          </Trackpoint>
          <Trackpoint>
            <Time>2019-05-08T08:31:31.000Z</Time>
            <Position>
              <LatitudeDegrees>42.96493090689182281494140625</LatitudeDegrees>
              <LongitudeDegrees>0.596295297145843505859375</LongitudeDegrees>
            </Position>
            <AltitudeMeters>581</AltitudeMeters>
            <DistanceMeters>28233.045953895</DistanceMeters>
          </Trackpoint>
          <Trackpoint>
            <Time>2019-05-08T08:31:37.000Z</Time>
            <Position>
              <LatitudeDegrees>42.9648331739008426666259765625</LatitudeDegrees>
              <LongitudeDegrees>0.59603805653750896453857421875</LongitudeDegrees>
            </Position>
            <AltitudeMeters>581.79998779296875</AltitudeMeters>
            <DistanceMeters>28256.653160376</DistanceMeters>
          </Trackpoint>
          <Trackpoint>
            <Time>2019-05-08T08:31:38.000Z</Time>
            <Position>
              <LatitudeDegrees>42.964817248284816741943359375</LatitudeDegrees>
              <LongitudeDegrees>0.5959890224039554595947265625</LongitudeDegrees>
            </Position>
            <AltitudeMeters>581.5999755859375</AltitudeMeters>
            <DistanceMeters>28261.02232295</DistanceMeters>
          </Trackpoint>
          <Trackpoint>
            <Time>2019-05-08T08:31:43.000Z</Time>
            <Position>
              <LatitudeDegrees>42.9647486843168735504150390625</LatitudeDegrees>
              <LongitudeDegrees>0.59574904851615428924560546875</LongitudeDegrees>
            </Position>
            <AltitudeMeters>582</AltitudeMeters>
            <DistanceMeters>28282.004514136</DistanceMeters>
          </Trackpoint>
          <Trackpoint>
            <Time>2019-05-08T08:31:46.000Z</Time>
            <Position>
              <LatitudeDegrees>42.9647285677492618560791015625</LatitudeDegrees>
              <LongitudeDegrees>0.5956021137535572052001953125</LongitudeDegrees>
            </Position>
            <AltitudeMeters>582.4000244140625</AltitudeMeters>
            <DistanceMeters>28294.17980612</DistanceMeters>
          </Trackpoint>
          <Trackpoint>
            <Time>2019-05-08T08:31:49.000Z</Time>
            <Position>
              <LatitudeDegrees>42.96471909619867801666259765625</LatitudeDegrees>
              <LongitudeDegrees>0.59546339325606822967529296875</LongitudeDegrees>
            </Position>
            <AltitudeMeters>583</AltitudeMeters>
            <DistanceMeters>28305.527046314</DistanceMeters>
          </Trackpoint>
          <Trackpoint>
            <Time>2019-05-08T08:31:55.000Z</Time>
            <Position>
              <LatitudeDegrees>42.9647175036370754241943359375</LatitudeDegrees>
              <LongitudeDegrees>0.5951917357742786407470703125</LongitudeDegrees>
            </Position>
            <AltitudeMeters>584.20001220703125</AltitudeMeters>
            <DistanceMeters>28327.653787706</DistanceMeters>
          </Trackpoint>
          <Trackpoint>
            <Time>2019-05-08T08:31:56.000Z</Time>
            <Position>
              <LatitudeDegrees>42.96471859328448772430419921875</LatitudeDegrees>
              <LongitudeDegrees>0.59514739550650119781494140625</LongitudeDegrees>
            </Position>
            <AltitudeMeters>584.4000244140625</AltitudeMeters>
            <DistanceMeters>28331.266052987</DistanceMeters>
          </Trackpoint>
          <Trackpoint>
            <Time>2019-05-08T08:32:03.000Z</Time>
            <Position>
              <LatitudeDegrees>42.964713983237743377685546875</LatitudeDegrees>
              <LongitudeDegrees>0.59484967030584812164306640625</LongitudeDegrees>
            </Position>
            <AltitudeMeters>585.4000244140625</AltitudeMeters>
            <DistanceMeters>28355.52058638</DistanceMeters>
          </Trackpoint>
          <Trackpoint>
            <Time>2019-05-08T08:32:07.000Z</Time>
            <Position>
              <LatitudeDegrees>42.96468841843307018280029296875</LatitudeDegrees>
              <LongitudeDegrees>0.59468823485076427459716796875</LongitudeDegrees>
            </Position>
            <AltitudeMeters>586.20001220703125</AltitudeMeters>
            <DistanceMeters>28368.973496552</DistanceMeters>
          </Trackpoint>
          <Trackpoint>
            <Time>2019-05-08T08:32:09.000Z</Time>
            <Position>
              <LatitudeDegrees>42.96467148698866367340087890625</LatitudeDegrees>
              <LongitudeDegrees>0.59461212716996669769287109375</LongitudeDegrees>
            </Position>
            <AltitudeMeters>586.4000244140625</AltitudeMeters>
            <DistanceMeters>28375.452060846</DistanceMeters>
          </Trackpoint>
          <Trackpoint>
            <Time>2019-05-08T08:32:13.000Z</Time>
            <Position>
              <LatitudeDegrees>42.9646112211048603057861328125</LatitudeDegrees>
              <LongitudeDegrees>0.5944700539112091064453125</LongitudeDegrees>
            </Position>
            <AltitudeMeters>586.79998779296875</AltitudeMeters>
            <DistanceMeters>28388.827218581</DistanceMeters>
          </Trackpoint>
          <Trackpoint>
            <Time>2019-05-08T08:32:20.000Z</Time>
            <Position>
              <LatitudeDegrees>42.96447467990219593048095703125</LatitudeDegrees>
              <LongitudeDegrees>0.594248436391353607177734375</LongitudeDegrees>
            </Position>
            <AltitudeMeters>587.79998779296875</AltitudeMeters>
            <DistanceMeters>28412.423138213</DistanceMeters>
          </Trackpoint>
          <Trackpoint>
            <Time>2019-05-08T08:32:22.000Z</Time>
            <Position>
              <LatitudeDegrees>42.96443696133792400360107421875</LatitudeDegrees>
              <LongitudeDegrees>0.59418314136564731597900390625</LongitudeDegrees>
            </Position>
            <AltitudeMeters>588</AltitudeMeters>
            <DistanceMeters>28419.198749524</DistanceMeters>
          </Trackpoint>
          <Trackpoint>
            <Time>2019-05-08T08:32:27.000Z</Time>
            <Position>
              <LatitudeDegrees>42.96437711454927921295166015625</LatitudeDegrees>
              <LongitudeDegrees>0.59397476725280284881591796875</LongitudeDegrees>
            </Position>
            <AltitudeMeters>588.5999755859375</AltitudeMeters>
            <DistanceMeters>28437.430510655</DistanceMeters>
          </Trackpoint>
          <Trackpoint>
            <Time>2019-05-08T08:32:32.000Z</Time>
            <Position>
              <LatitudeDegrees>42.96438507735729217529296875</LatitudeDegrees>
              <LongitudeDegrees>0.59373370371758937835693359375</LongitudeDegrees>
            </Position>
            <AltitudeMeters>589.4000244140625</AltitudeMeters>
            <DistanceMeters>28457.084736921</DistanceMeters>
          </Trackpoint>
          <Trackpoint>
            <Time>2019-05-08T08:32:40.000Z</Time>
            <Position>
              <LatitudeDegrees>42.964473925530910491943359375</LatitudeDegrees>
              <LongitudeDegrees>0.5933540873229503631591796875</LongitudeDegrees>
            </Position>
            <AltitudeMeters>590</AltitudeMeters>
            <DistanceMeters>28489.546758281</DistanceMeters>
          </Trackpoint>
          <Trackpoint>
            <Time>2019-05-08T08:32:41.000Z</Time>
            <Position>
              <LatitudeDegrees>42.96447903849184513092041015625</LatitudeDegrees>
              <LongitudeDegrees>0.59330387972295284271240234375</LongitudeDegrees>
            </Position>
            <AltitudeMeters>590.20001220703125</AltitudeMeters>
            <DistanceMeters>28493.675775637</DistanceMeters>
          </Trackpoint>
          <Trackpoint>
            <Time>2019-05-08T08:32:45.000Z</Time>
            <Position>
              <LatitudeDegrees>42.96445841901004314422607421875</LatitudeDegrees>
              <LongitudeDegrees>0.59310288168489933013916015625</LongitudeDegrees>
            </Position>
            <AltitudeMeters>590.4000244140625</AltitudeMeters>
            <DistanceMeters>28510.206600581</DistanceMeters>
          </Trackpoint>
          <Trackpoint>
            <Time>2019-05-08T08:32:50.000Z</Time>
            <Position>
              <LatitudeDegrees>42.9643721692264080047607421875</LatitudeDegrees>
              <LongitudeDegrees>0.5928944237530231475830078125</LongitudeDegrees>
            </Position>
            <AltitudeMeters>591</AltitudeMeters>
            <DistanceMeters>28529.710934982</DistanceMeters>
          </Trackpoint>
          <Trackpoint>
            <Time>2019-05-08T08:32:52.000Z</Time>
            <Position>
              <LatitudeDegrees>42.96431324444711208343505859375</LatitudeDegrees>
              <LongitudeDegrees>0.592838265001773834228515625</LongitudeDegrees>
            </Position>
            <AltitudeMeters>591.20001220703125</AltitudeMeters>
            <DistanceMeters>28537.707307366</DistanceMeters>
          </Trackpoint>
          <Trackpoint>
            <Time>2019-05-08T08:32:56.000Z</Time>
            <Position>
              <LatitudeDegrees>42.96419807709753513336181640625</LatitudeDegrees>
              <LongitudeDegrees>0.5927469022572040557861328125</LongitudeDegrees>
            </Position>
            <AltitudeMeters>591.79998779296875</AltitudeMeters>
            <DistanceMeters>28552.529342645</DistanceMeters>
          </Trackpoint>
          <Trackpoint>
            <Time>2019-05-08T08:33:00.000Z</Time>
            <Position>
              <LatitudeDegrees>42.9640791378915309906005859375</LatitudeDegrees>
              <LongitudeDegrees>0.59267976321280002593994140625</LongitudeDegrees>
            </Position>
            <AltitudeMeters>592.20001220703125</AltitudeMeters>
            <DistanceMeters>28566.852866541</DistanceMeters>
          </Trackpoint>
          <Trackpoint>
            <Time>2019-05-08T08:33:01.000Z</Time>
            <Position>
              <LatitudeDegrees>42.96405323781073093414306640625</LatitudeDegrees>
              <LongitudeDegrees>0.5926600657403469085693359375</LongitudeDegrees>
            </Position>
            <AltitudeMeters>592.20001220703125</AltitudeMeters>
            <DistanceMeters>28570.152907782</DistanceMeters>
          </Trackpoint>
          <Trackpoint>
            <Time>2019-05-08T08:33:08.000Z</Time>
            <Position>
              <LatitudeDegrees>42.96387336216866970062255859375</LatitudeDegrees>
              <LongitudeDegrees>0.5924424715340137481689453125</LongitudeDegrees>
            </Position>
            <AltitudeMeters>593.4000244140625</AltitudeMeters>
            <DistanceMeters>28596.890730283</DistanceMeters>
          </Trackpoint>
          <Trackpoint>
            <Time>2019-05-08T08:33:14.000Z</Time>
            <Position>
              <LatitudeDegrees>42.96377395279705524444580078125</LatitudeDegrees>
              <LongitudeDegrees>0.592189840972423553466796875</LongitudeDegrees>
            </Position>
            <AltitudeMeters>593.5999755859375</AltitudeMeters>
            <DistanceMeters>28620.25339153</DistanceMeters>
          </Trackpoint>
          <Trackpoint>
            <Time>2019-05-08T08:33:16.000Z</Time>
            <Position>
              <LatitudeDegrees>42.96376942656934261322021484375</LatitudeDegrees>
              <LongitudeDegrees>0.592091269791126251220703125</LongitudeDegrees>
            </Position>
            <AltitudeMeters>593.79998779296875</AltitudeMeters>
            <DistanceMeters>28628.297614787</DistanceMeters>
          </Trackpoint>
          <Trackpoint>
            <Time>2019-05-08T08:33:21.000Z</Time>
            <Position>
              <LatitudeDegrees>42.9637835919857025146484375</LatitudeDegrees>
              <LongitudeDegrees>0.59183067642152309417724609375</LongitudeDegrees>
            </Position>
            <AltitudeMeters>593.79998779296875</AltitudeMeters>
            <DistanceMeters>28649.580841155</DistanceMeters>
          </Trackpoint>
          <Trackpoint>
            <Time>2019-05-08T08:33:26.000Z</Time>
            <Position>
              <LatitudeDegrees>42.9637958295643329620361328125</LatitudeDegrees>
              <LongitudeDegrees>0.591578297317028045654296875</LongitudeDegrees>
            </Position>
            <AltitudeMeters>594.4000244140625</AltitudeMeters>
            <DistanceMeters>28670.181922748</DistanceMeters>
          </Trackpoint>
          <Trackpoint>
            <Time>2019-05-08T08:33:29.000Z</Time>
            <Position>
              <LatitudeDegrees>42.9638179577887058258056640625</LatitudeDegrees>
              <LongitudeDegrees>0.5914393253624439239501953125</LongitudeDegrees>
            </Position>
            <AltitudeMeters>594.5999755859375</AltitudeMeters>
            <DistanceMeters>28681.76583124</DistanceMeters>
          </Trackpoint>
          <Trackpoint>
            <Time>2019-05-08T08:33:34.000Z</Time>
            <Position>
              <LatitudeDegrees>42.96386414207518100738525390625</LatitudeDegrees>
              <LongitudeDegrees>0.59122860431671142578125</LongitudeDegrees>
            </Position>
            <AltitudeMeters>595.20001220703125</AltitudeMeters>
            <DistanceMeters>28699.682084402</DistanceMeters>
          </Trackpoint>
          <Trackpoint>
            <Time>2019-05-08T08:33:36.000Z</Time>
            <Position>
              <LatitudeDegrees>42.96385467052459716796875</LatitudeDegrees>
              <LongitudeDegrees>0.59114067815244197845458984375</LongitudeDegrees>
            </Position>
            <AltitudeMeters>595.4000244140625</AltitudeMeters>
            <DistanceMeters>28706.920974759</DistanceMeters>
          </Trackpoint>
          <Trackpoint>
            <Time>2019-05-08T08:33:41.000Z</Time>
            <Position>
              <LatitudeDegrees>42.96374863944947719573974609375</LatitudeDegrees>
              <LongitudeDegrees>0.59095812030136585235595703125</LongitudeDegrees>
            </Position>
            <AltitudeMeters>596</AltitudeMeters>
            <DistanceMeters>28725.904211065</DistanceMeters>
          </Trackpoint>
          <Trackpoint>
            <Time>2019-05-08T08:33:45.000Z</Time>
            <Position>
              <LatitudeDegrees>42.963618300855159759521484375</LatitudeDegrees>
              <LongitudeDegrees>0.59085200540721416473388671875</LongitudeDegrees>
            </Position>
            <AltitudeMeters>596.5999755859375</AltitudeMeters>
            <DistanceMeters>28742.790648047</DistanceMeters>
          </Trackpoint>
          <Trackpoint>
            <Time>2019-05-08T08:33:48.000Z</Time>
            <Position>
              <LatitudeDegrees>42.9635115154087543487548828125</LatitudeDegrees>
              <LongitudeDegrees>0.59080959297716617584228515625</LongitudeDegrees>
            </Position>
            <AltitudeMeters>597</AltitudeMeters>
            <DistanceMeters>28755.168219576</DistanceMeters>
          </Trackpoint>
          <Trackpoint>
            <Time>2019-05-08T08:33:54.000Z</Time>
            <Position>
              <LatitudeDegrees>42.96329467557370662689208984375</LatitudeDegrees>
              <LongitudeDegrees>0.590796768665313720703125</LongitudeDegrees>
            </Position>
            <AltitudeMeters>597.20001220703125</AltitudeMeters>
            <DistanceMeters>28779.325572913</DistanceMeters>
          </Trackpoint>
          <Trackpoint>
            <Time>2019-05-08T08:33:56.000Z</Time>
            <Position>
              <LatitudeDegrees>42.96322661451995372772216796875</LatitudeDegrees>
              <LongitudeDegrees>0.59079852886497974395751953125</LongitudeDegrees>
            </Position>
            <AltitudeMeters>597.79998779296875</AltitudeMeters>
            <DistanceMeters>28786.901532646</DistanceMeters>
          </Trackpoint>
          <Trackpoint>
            <Time>2019-05-08T08:34:01.000Z</Time>
            <Position>
              <LatitudeDegrees>42.96305579133331775665283203125</LatitudeDegrees>
              <LongitudeDegrees>0.5907520093023777008056640625</LongitudeDegrees>
            </Position>
            <AltitudeMeters>598.20001220703125</AltitudeMeters>
            <DistanceMeters>28806.288379779</DistanceMeters>
          </Trackpoint>
          <Trackpoint>
            <Time>2019-05-08T08:34:02.000Z</Time>
            <Position>
              <LatitudeDegrees>42.9630233533680438995361328125</LatitudeDegrees>
              <LongitudeDegrees>0.5907409451901912689208984375</LongitudeDegrees>
            </Position>
            <AltitudeMeters>598.4000244140625</AltitudeMeters>
            <DistanceMeters>28810.010225728</DistanceMeters>
          </Trackpoint>
          <Trackpoint>
            <Time>2019-05-08T08:34:06.000Z</Time>
            <Position>
              <LatitudeDegrees>42.9628929309546947479248046875</LatitudeDegrees>
              <LongitudeDegrees>0.5906735546886920928955078125</LongitudeDegrees>
            </Position>
            <AltitudeMeters>599</AltitudeMeters>
            <DistanceMeters>28825.529574906</DistanceMeters>
          </Trackpoint>
          <Trackpoint>
            <Time>2019-05-08T08:34:09.000Z</Time>
            <Position>
              <LatitudeDegrees>42.96278773806989192962646484375</LatitudeDegrees>
              <LongitudeDegrees>0.5906306393444538116455078125</LongitudeDegrees>
            </Position>
            <AltitudeMeters>599.4000244140625</AltitudeMeters>
            <DistanceMeters>28837.7485472</DistanceMeters>
          </Trackpoint>
          <Trackpoint>
            <Time>2019-05-08T08:34:11.000Z</Time>
            <Position>
              <LatitudeDegrees>42.9627118818461894989013671875</LatitudeDegrees>
              <LongitudeDegrees>0.59062619693577289581298828125</LongitudeDegrees>
            </Position>
            <AltitudeMeters>599.5999755859375</AltitudeMeters>
            <DistanceMeters>28846.199516055</DistanceMeters>
          </Trackpoint>
          <Trackpoint>
            <Time>2019-05-08T08:34:16.000Z</Time>
            <Position>
              <LatitudeDegrees>42.96254013665020465850830078125</LatitudeDegrees>
              <LongitudeDegrees>0.5906816013157367706298828125</LongitudeDegrees>
            </Position>
            <AltitudeMeters>600.4000244140625</AltitudeMeters>
            <DistanceMeters>28865.840413838</DistanceMeters>
          </Trackpoint>
          <Trackpoint>
            <Time>2019-05-08T08:34:19.000Z</Time>
            <Position>
              <LatitudeDegrees>42.9624433256685733795166015625</LatitudeDegrees>
              <LongitudeDegrees>0.590726025402545928955078125</LongitudeDegrees>
            </Position>
            <AltitudeMeters>600.79998779296875</AltitudeMeters>
            <DistanceMeters>28877.206737064</DistanceMeters>
          </Trackpoint>
          <Trackpoint>
            <Time>2019-05-08T08:34:23.000Z</Time>
            <Position>
              <LatitudeDegrees>42.96231365762650966644287109375</LatitudeDegrees>
              <LongitudeDegrees>0.5908029712736606597900390625</LongitudeDegrees>
            </Position>
            <AltitudeMeters>601.20001220703125</AltitudeMeters>
            <DistanceMeters>28892.941336069</DistanceMeters>
          </Trackpoint>
          <Trackpoint>
            <Time>2019-05-08T08:34:24.000Z</Time>
            <Position>
              <LatitudeDegrees>42.96228029765188694000244140625</LatitudeDegrees>
              <LongitudeDegrees>0.59081696905195713043212890625</LongitudeDegrees>
            </Position>
            <AltitudeMeters>601.4000244140625</AltitudeMeters>
            <DistanceMeters>28896.825825449</DistanceMeters>
          </Trackpoint>
          <Trackpoint>
            <Time>2019-05-08T08:34:31.000Z</Time>
            <Position>
              <LatitudeDegrees>42.9620389826595783233642578125</LatitudeDegrees>
              <LongitudeDegrees>0.5908767320215702056884765625</LongitudeDegrees>
            </Position>
            <AltitudeMeters>601.79998779296875</AltitudeMeters>
            <DistanceMeters>28924.122156109</DistanceMeters>
          </Trackpoint>
          <Trackpoint>
            <Time>2019-05-08T08:34:34.000Z</Time>
            <Position>
              <LatitudeDegrees>42.961928509175777435302734375</LatitudeDegrees>
              <LongitudeDegrees>0.5908435396850109100341796875</LongitudeDegrees>
            </Position>
            <AltitudeMeters>602.20001220703125</AltitudeMeters>
            <DistanceMeters>28936.711671658</DistanceMeters>
          </Trackpoint>
          <Trackpoint>
            <Time>2019-05-08T08:34:37.000Z</Time>
            <Position>
              <LatitudeDegrees>42.96183027327060699462890625</LatitudeDegrees>
              <LongitudeDegrees>0.59081328101456165313720703125</LongitudeDegrees>
            </Position>
            <AltitudeMeters>602.5999755859375</AltitudeMeters>
            <DistanceMeters>28947.919991045</DistanceMeters>
          </Trackpoint>
          <Trackpoint>
            <Time>2019-05-08T08:34:42.000Z</Time>
            <Position>
              <LatitudeDegrees>42.96171787194907665252685546875</LatitudeDegrees>
              <LongitudeDegrees>0.59076885692775249481201171875</LongitudeDegrees>
            </Position>
            <AltitudeMeters>602.79998779296875</AltitudeMeters>
            <DistanceMeters>28960.9431587</DistanceMeters>
          </Trackpoint>
          <Trackpoint>
            <Time>2019-05-08T08:34:43.000Z</Time>
            <Position>
              <LatitudeDegrees>42.961701191961765289306640625</LatitudeDegrees>
              <LongitudeDegrees>0.590763576328754425048828125</LongitudeDegrees>
            </Position>
            <AltitudeMeters>603.20001220703125</AltitudeMeters>
            <DistanceMeters>28962.848438399</DistanceMeters>
          </Trackpoint>
          <Trackpoint>
            <Time>2019-05-08T08:34:48.000Z</Time>
            <Position>
              <LatitudeDegrees>42.9615840129554271697998046875</LatitudeDegrees>
              <LongitudeDegrees>0.5907791666686534881591796875</LongitudeDegrees>
            </Position>
            <AltitudeMeters>604</AltitudeMeters>
            <DistanceMeters>28975.952481045</DistanceMeters>
          </Trackpoint>
          <Trackpoint>
            <Time>2019-05-08T08:34:57.000Z</Time>
            <Position>
              <LatitudeDegrees>42.9613017104566097259521484375</LatitudeDegrees>
              <LongitudeDegrees>0.59080355800688266754150390625</LongitudeDegrees>
            </Position>
            <AltitudeMeters>605</AltitudeMeters>
            <DistanceMeters>29007.436023271</DistanceMeters>
          </Trackpoint>
          <Trackpoint>
            <Time>2019-05-08T08:34:58.000Z</Time>
            <Position>
              <LatitudeDegrees>42.96126910485327243804931640625</LatitudeDegrees>
              <LongitudeDegrees>0.59080774895846843719482421875</LongitudeDegrees>
            </Position>
            <AltitudeMeters>605</AltitudeMeters>
            <DistanceMeters>29011.080641556</DistanceMeters>
          </Trackpoint>
          <Trackpoint>
            <Time>2019-05-08T08:35:05.000Z</Time>
            <Position>
              <LatitudeDegrees>42.96102963387966156005859375</LatitudeDegrees>
              <LongitudeDegrees>0.5908190645277500152587890625</LongitudeDegrees>
            </Position>
            <AltitudeMeters>605.5999755859375</AltitudeMeters>
            <DistanceMeters>29037.75015601</DistanceMeters>
          </Trackpoint>
          <Trackpoint>
            <Time>2019-05-08T08:35:06.000Z</Time>
            <Position>
              <LatitudeDegrees>42.9609940946102142333984375</LatitudeDegrees>
              <LongitudeDegrees>0.59082082472741603851318359375</LongitudeDegrees>
            </Position>
            <AltitudeMeters>605.5999755859375</AltitudeMeters>
            <DistanceMeters>29041.709475738</DistanceMeters>
          </Trackpoint>
          <Trackpoint>
            <Time>2019-05-08T08:35:13.000Z</Time>
            <Position>
              <LatitudeDegrees>42.9607478342950344085693359375</LatitudeDegrees>
              <LongitudeDegrees>0.5908375047147274017333984375</LongitudeDegrees>
            </Position>
            <AltitudeMeters>606.5999755859375</AltitudeMeters>
            <DistanceMeters>29069.152295845</DistanceMeters>
          </Trackpoint>
          <Trackpoint>
            <Time>2019-05-08T08:35:14.000Z</Time>
            <Position>
              <LatitudeDegrees>42.96071221120655536651611328125</LatitudeDegrees>
              <LongitudeDegrees>0.59083691798150539398193359375</LongitudeDegrees>
            </Position>
            <AltitudeMeters>606.79998779296875</AltitudeMeters>
            <DistanceMeters>29073.117313258</DistanceMeters>
          </Trackpoint>
          <Trackpoint>
            <Time>2019-05-08T08:35:19.000Z</Time>
            <Position>
              <LatitudeDegrees>42.9605285637080669403076171875</LatitudeDegrees>
              <LongitudeDegrees>0.5908048152923583984375</LongitudeDegrees>
            </Position>
            <AltitudeMeters>607.5999755859375</AltitudeMeters>
            <DistanceMeters>29093.724092356</DistanceMeters>
          </Trackpoint>
          <Trackpoint>
            <Time>2019-05-08T08:35:21.000Z</Time>
            <Position>
              <LatitudeDegrees>42.9604605026543140411376953125</LatitudeDegrees>
              <LongitudeDegrees>0.5907664261758327484130859375</LongitudeDegrees>
            </Position>
            <AltitudeMeters>607.79998779296875</AltitudeMeters>
            <DistanceMeters>29101.91956114</DistanceMeters>
          </Trackpoint>
          <Trackpoint>
            <Time>2019-05-08T08:35:27.000Z</Time>
            <Position>
              <LatitudeDegrees>42.9603089578449726104736328125</LatitudeDegrees>
              <LongitudeDegrees>0.590596608817577362060546875</LongitudeDegrees>
            </Position>
            <AltitudeMeters>609.4000244140625</AltitudeMeters>
            <DistanceMeters>29123.732901509</DistanceMeters>
          </Trackpoint>
          <Trackpoint>
            <Time>2019-05-08T08:35:32.000Z</Time>
            <Position>
              <LatitudeDegrees>42.960228659212589263916015625</LatitudeDegrees>
              <LongitudeDegrees>0.59044531546533107757568359375</LongitudeDegrees>
            </Position>
            <AltitudeMeters>609.79998779296875</AltitudeMeters>
            <DistanceMeters>29138.956169288</DistanceMeters>
          </Trackpoint>
          <Trackpoint>
            <Time>2019-05-08T08:35:39.000Z</Time>
            <Position>
              <LatitudeDegrees>42.96011223457753658294677734375</LatitudeDegrees>
              <LongitudeDegrees>0.59017759747803211212158203125</LongitudeDegrees>
            </Position>
            <AltitudeMeters>611</AltitudeMeters>
            <DistanceMeters>29164.322250913</DistanceMeters>
          </Trackpoint>
          <Trackpoint>
            <Time>2019-05-08T08:35:42.000Z</Time>
            <Position>
              <LatitudeDegrees>42.960061021149158477783203125</LatitudeDegrees>
              <LongitudeDegrees>0.59005044400691986083984375</LongitudeDegrees>
            </Position>
            <AltitudeMeters>611</AltitudeMeters>
            <DistanceMeters>29176.14381862</DistanceMeters>
          </Trackpoint>
          <Trackpoint>
            <Time>2019-05-08T08:35:47.000Z</Time>
            <Position>
              <LatitudeDegrees>42.95996370725333690643310546875</LatitudeDegrees>
              <LongitudeDegrees>0.58983813039958477020263671875</LongitudeDegrees>
            </Position>
            <AltitudeMeters>611.5999755859375</AltitudeMeters>
            <DistanceMeters>29196.549574792</DistanceMeters>
          </Trackpoint>
          <Trackpoint>
            <Time>2019-05-08T08:35:51.000Z</Time>
            <Position>
              <LatitudeDegrees>42.95989111997187137603759765625</LatitudeDegrees>
              <LongitudeDegrees>0.5896673910319805145263671875</LongitudeDegrees>
            </Position>
            <AltitudeMeters>612</AltitudeMeters>
            <DistanceMeters>29212.633530462</DistanceMeters>
          </Trackpoint>
          <Trackpoint>
            <Time>2019-05-08T08:35:56.000Z</Time>
            <Position>
              <LatitudeDegrees>42.95979858376085758209228515625</LatitudeDegrees>
              <LongitudeDegrees>0.589455328881740570068359375</LongitudeDegrees>
            </Position>
            <AltitudeMeters>612.20001220703125</AltitudeMeters>
            <DistanceMeters>29232.744649872</DistanceMeters>
          </Trackpoint>
          <Trackpoint>
            <Time>2019-05-08T08:35:58.000Z</Time>
            <Position>
              <LatitudeDegrees>42.95976019464433193206787109375</LatitudeDegrees>
              <LongitudeDegrees>0.5893684923648834228515625</LongitudeDegrees>
            </Position>
            <AltitudeMeters>612.20001220703125</AltitudeMeters>
            <DistanceMeters>29241.008696589</DistanceMeters>
          </Trackpoint>
          <Trackpoint>
            <Time>2019-05-08T08:36:02.000Z</Time>
            <Position>
              <LatitudeDegrees>42.95968425460159778594970703125</LatitudeDegrees>
              <LongitudeDegrees>0.58919205330312252044677734375</LongitudeDegrees>
            </Position>
            <AltitudeMeters>612.4000244140625</AltitudeMeters>
            <DistanceMeters>29257.681484995</DistanceMeters>
          </Trackpoint>
          <Trackpoint>
            <Time>2019-05-08T08:36:06.000Z</Time>
            <Position>
              <LatitudeDegrees>42.95960948802530765533447265625</LatitudeDegrees>
              <LongitudeDegrees>0.58903682045638561248779296875</LongitudeDegrees>
            </Position>
            <AltitudeMeters>612.79998779296875</AltitudeMeters>
            <DistanceMeters>29272.818497901</DistanceMeters>
          </Trackpoint>
          <Trackpoint>
            <Time>2019-05-08T08:36:13.000Z</Time>
            <Position>
              <LatitudeDegrees>42.9594875313341617584228515625</LatitudeDegrees>
              <LongitudeDegrees>0.5887621454894542694091796875</LongitudeDegrees>
            </Position>
            <AltitudeMeters>614.4000244140625</AltitudeMeters>
            <DistanceMeters>29298.987619731</DistanceMeters>
          </Trackpoint>
          <Trackpoint>
            <Time>2019-05-08T08:36:16.000Z</Time>
            <Position>
              <LatitudeDegrees>42.9594301991164684295654296875</LatitudeDegrees>
              <LongitudeDegrees>0.58863180689513683319091796875</LongitudeDegrees>
            </Position>
            <AltitudeMeters>614.4000244140625</AltitudeMeters>
            <DistanceMeters>29311.374671799</DistanceMeters>
          </Trackpoint>
          <Trackpoint>
            <Time>2019-05-08T08:36:23.000Z</Time>
            <Position>
              <LatitudeDegrees>42.9592672549188137054443359375</LatitudeDegrees>
              <LongitudeDegrees>0.58836459182202816009521484375</LongitudeDegrees>
            </Position>
            <AltitudeMeters>615</AltitudeMeters>
            <DistanceMeters>29339.706022542</DistanceMeters>
          </Trackpoint>
          <Trackpoint>
            <Time>2019-05-08T08:36:30.000Z</Time>
            <Position>
              <LatitudeDegrees>42.95908897183835506439208984375</LatitudeDegrees>
              <LongitudeDegrees>0.58812369592487812042236328125</LongitudeDegrees>
            </Position>
            <AltitudeMeters>616.4000244140625</AltitudeMeters>
            <DistanceMeters>29367.612830185</DistanceMeters>
          </Trackpoint>
          <Trackpoint>
            <Time>2019-05-08T08:36:34.000Z</Time>
            <Position>
              <LatitudeDegrees>42.9589904844760894775390625</LatitudeDegrees>
              <LongitudeDegrees>0.5879809521138668060302734375</LongitudeDegrees>
            </Position>
            <AltitudeMeters>617</AltitudeMeters>
            <DistanceMeters>29383.592583052</DistanceMeters>
          </Trackpoint>
          <Trackpoint>
            <Time>2019-05-08T08:36:37.000Z</Time>
            <Position>
              <LatitudeDegrees>42.95891479589045047760009765625</LatitudeDegrees>
              <LongitudeDegrees>0.587872825562953948974609375</LongitudeDegrees>
            </Position>
            <AltitudeMeters>617.4000244140625</AltitudeMeters>
            <DistanceMeters>29395.780106485</DistanceMeters>
          </Trackpoint>
          <Trackpoint>
            <Time>2019-05-08T08:36:42.000Z</Time>
            <Position>
              <LatitudeDegrees>42.958790995180606842041015625</LatitudeDegrees>
              <LongitudeDegrees>0.587689764797687530517578125</LongitudeDegrees>
            </Position>
            <AltitudeMeters>618.4000244140625</AltitudeMeters>
            <DistanceMeters>29416.083159447</DistanceMeters>
          </Trackpoint>
          <Trackpoint>
            <Time>2019-05-08T08:36:43.000Z</Time>
            <Position>
              <LatitudeDegrees>42.95876811258494853973388671875</LatitudeDegrees>
              <LongitudeDegrees>0.587654896080493927001953125</LongitudeDegrees>
            </Position>
            <AltitudeMeters>618.5999755859375</AltitudeMeters>
            <DistanceMeters>29419.898455403</DistanceMeters>
          </Trackpoint>
          <Trackpoint>
            <Time>2019-05-08T08:36:48.000Z</Time>
            <Position>
              <LatitudeDegrees>42.95865646563470363616943359375</LatitudeDegrees>
              <LongitudeDegrees>0.58748533017933368682861328125</LongitudeDegrees>
            </Position>
            <AltitudeMeters>619.5999755859375</AltitudeMeters>
            <DistanceMeters>29438.478061488</DistanceMeters>
          </Trackpoint>
          <Trackpoint>
            <Time>2019-05-08T08:36:50.000Z</Time>
            <Position>
              <LatitudeDegrees>42.9585973732173442840576171875</LatitudeDegrees>
              <LongitudeDegrees>0.587418861687183380126953125</LongitudeDegrees>
            </Position>
            <AltitudeMeters>619.79998779296875</AltitudeMeters>
            <DistanceMeters>29446.9966115</DistanceMeters>
          </Trackpoint>
          <Trackpoint>
            <Time>2019-05-08T08:36:55.000Z</Time>
            <Position>
              <LatitudeDegrees>42.95843669213354587554931640625</LatitudeDegrees>
              <LongitudeDegrees>0.58728969655930995941162109375</LongitudeDegrees>
            </Position>
            <AltitudeMeters>620.79998779296875</AltitudeMeters>
            <DistanceMeters>29467.745972567</DistanceMeters>
          </Trackpoint>
          <Trackpoint>
            <Time>2019-05-08T08:36:57.000Z</Time>
            <Position>
              <LatitudeDegrees>42.958369217813014984130859375</LatitudeDegrees>
              <LongitudeDegrees>0.587251894176006317138671875</LongitudeDegrees>
            </Position>
            <AltitudeMeters>621.20001220703125</AltitudeMeters>
            <DistanceMeters>29475.86283389</DistanceMeters>
          </Trackpoint>
          <Trackpoint>
            <Time>2019-05-08T08:37:05.000Z</Time>
            <Position>
              <LatitudeDegrees>42.95810334384441375732421875</LatitudeDegrees>
              <LongitudeDegrees>0.5871223099529743194580078125</LongitudeDegrees>
            </Position>
            <AltitudeMeters>622.79998779296875</AltitudeMeters>
            <DistanceMeters>29507.281488167</DistanceMeters>
          </Trackpoint>
          <Trackpoint>
            <Time>2019-05-08T08:37:12.000Z</Time>
            <Position>
              <LatitudeDegrees>42.95785331167280673980712890625</LatitudeDegrees>
              <LongitudeDegrees>0.58696188032627105712890625</LongitudeDegrees>
            </Position>
            <AltitudeMeters>623</AltitudeMeters>
            <DistanceMeters>29538.026118297</DistanceMeters>
          </Trackpoint>
          <Trackpoint>
            <Time>2019-05-08T08:37:13.000Z</Time>
            <Position>
              <LatitudeDegrees>42.95781743712723255157470703125</LatitudeDegrees>
              <LongitudeDegrees>0.5869322083890438079833984375</LongitudeDegrees>
            </Position>
            <AltitudeMeters>623</AltitudeMeters>
            <DistanceMeters>29542.693081376</DistanceMeters>
          </Trackpoint>
          <Trackpoint>
            <Time>2019-05-08T08:37:15.000Z</Time>
            <Position>
              <LatitudeDegrees>42.9577513039112091064453125</LatitudeDegrees>
              <LongitudeDegrees>0.58685484342277050018310546875</LongitudeDegrees>
            </Position>
            <AltitudeMeters>623</AltitudeMeters>
            <DistanceMeters>29552.383010936</DistanceMeters>
          </Trackpoint>
          <Trackpoint>
            <Time>2019-05-08T08:37:17.000Z</Time>
            <Position>
              <LatitudeDegrees>42.95769967138767242431640625</LatitudeDegrees>
              <LongitudeDegrees>0.58675509877502918243408203125</LongitudeDegrees>
            </Position>
            <AltitudeMeters>623</AltitudeMeters>
            <DistanceMeters>29562.334989555</DistanceMeters>
          </Trackpoint>
          <Trackpoint>
            <Time>2019-05-08T08:37:20.000Z</Time>
            <Position>
              <LatitudeDegrees>42.95763974077999591827392578125</LatitudeDegrees>
              <LongitudeDegrees>0.586582012474536895751953125</LongitudeDegrees>
            </Position>
            <AltitudeMeters>623</AltitudeMeters>
            <DistanceMeters>29577.932402465</DistanceMeters>
          </Trackpoint>
          <Trackpoint>
            <Time>2019-05-08T08:37:23.000Z</Time>
            <Position>
              <LatitudeDegrees>42.95758492313325405120849609375</LatitudeDegrees>
              <LongitudeDegrees>0.5863912403583526611328125</LongitudeDegrees>
            </Position>
            <AltitudeMeters>623</AltitudeMeters>
            <DistanceMeters>29594.626841041</DistanceMeters>
          </Trackpoint>
          <Trackpoint>
            <Time>2019-05-08T08:37:24.000Z</Time>
            <Position>
              <LatitudeDegrees>42.95756832696497440338134765625</LatitudeDegrees>
              <LongitudeDegrees>0.58632443659007549285888671875</LongitudeDegrees>
            </Position>
            <AltitudeMeters>622.79998779296875</AltitudeMeters>
            <DistanceMeters>29600.374189963</DistanceMeters>
          </Trackpoint>
          <Trackpoint>
            <Time>2019-05-08T08:37:26.000Z</Time>
            <Position>
              <LatitudeDegrees>42.95753345824778079986572265625</LatitudeDegrees>
              <LongitudeDegrees>0.5861962772905826568603515625</LongitudeDegrees>
            </Position>
            <AltitudeMeters>623</AltitudeMeters>
            <DistanceMeters>29611.511791146</DistanceMeters>
          </Trackpoint>
          <Trackpoint>
            <Time>2019-05-08T08:37:28.000Z</Time>
            <Position>
              <LatitudeDegrees>42.9574986733496189117431640625</LatitudeDegrees>
              <LongitudeDegrees>0.58607599698007106781005859375</LongitudeDegrees>
            </Position>
            <AltitudeMeters>622.5999755859375</AltitudeMeters>
            <DistanceMeters>29622.046478587</DistanceMeters>
          </Trackpoint>
          <Trackpoint>
            <Time>2019-05-08T08:37:31.000Z</Time>
            <Position>
              <LatitudeDegrees>42.95745290815830230712890625</LatitudeDegrees>
              <LongitudeDegrees>0.58590534143149852752685546875</LongitudeDegrees>
            </Position>
            <AltitudeMeters>622.5999755859375</AltitudeMeters>
            <DistanceMeters>29636.851750473</DistanceMeters>
          </Trackpoint>
          <Trackpoint>
            <Time>2019-05-08T08:37:34.000Z</Time>
            <Position>
              <LatitudeDegrees>42.95740655623376369476318359375</LatitudeDegrees>
              <LongitudeDegrees>0.585725046694278717041015625</LongitudeDegrees>
            </Position>
            <AltitudeMeters>622.5999755859375</AltitudeMeters>
            <DistanceMeters>29652.417578788</DistanceMeters>
          </Trackpoint>
          <Trackpoint>
            <Time>2019-05-08T08:37:36.000Z</Time>
            <Position>
              <LatitudeDegrees>42.9573690891265869140625</LatitudeDegrees>
              <LongitudeDegrees>0.58560526929795742034912109375</LongitudeDegrees>
            </Position>
            <AltitudeMeters>622.5999755859375</AltitudeMeters>
            <DistanceMeters>29663.028280608</DistanceMeters>
          </Trackpoint>
          <Trackpoint>
            <Time>2019-05-08T08:37:37.000Z</Time>
            <Position>
              <LatitudeDegrees>42.95735291205346584320068359375</LatitudeDegrees>
              <LongitudeDegrees>0.58554374612867832183837890625</LongitudeDegrees>
            </Position>
            <AltitudeMeters>622.5999755859375</AltitudeMeters>
            <DistanceMeters>29668.353169342</DistanceMeters>
          </Trackpoint>
          <Trackpoint>
            <Time>2019-05-08T08:37:38.000Z</Time>
            <Position>
              <LatitudeDegrees>42.95734017156064510345458984375</LatitudeDegrees>
              <LongitudeDegrees>0.5854804627597332000732421875</LongitudeDegrees>
            </Position>
            <AltitudeMeters>622.4000244140625</AltitudeMeters>
            <DistanceMeters>29673.699213856</DistanceMeters>
          </Trackpoint>
          <Trackpoint>
            <Time>2019-05-08T08:37:44.000Z</Time>
            <Position>
              <LatitudeDegrees>42.95725014992058277130126953125</LatitudeDegrees>
              <LongitudeDegrees>0.58510134927928447723388671875</LongitudeDegrees>
            </Position>
            <AltitudeMeters>622.4000244140625</AltitudeMeters>
            <DistanceMeters>29706.16554662</DistanceMeters>
          </Trackpoint>
          <Trackpoint>
            <Time>2019-05-08T08:37:46.000Z</Time>
            <Position>
              <LatitudeDegrees>42.95721444301307201385498046875</LatitudeDegrees>
              <LongitudeDegrees>0.58497226797044277191162109375</LongitudeDegrees>
            </Position>
            <AltitudeMeters>622.4000244140625</AltitudeMeters>
            <DistanceMeters>29717.406046147</DistanceMeters>
          </Trackpoint>
          <Trackpoint>
            <Time>2019-05-08T08:37:49.000Z</Time>
            <Position>
              <LatitudeDegrees>42.957160882651805877685546875</LatitudeDegrees>
              <LongitudeDegrees>0.5847928114235401153564453125</LongitudeDegrees>
            </Position>
            <AltitudeMeters>622.4000244140625</AltitudeMeters>
            <DistanceMeters>29733.193069611</DistanceMeters>
          </Trackpoint>
          <Trackpoint>
            <Time>2019-05-08T08:37:51.000Z</Time>
            <Position>
              <LatitudeDegrees>42.95713230036199092864990234375</LatitudeDegrees>
              <LongitudeDegrees>0.5846845172345638275146484375</LongitudeDegrees>
            </Position>
            <AltitudeMeters>622.4000244140625</AltitudeMeters>
            <DistanceMeters>29742.570911286</DistanceMeters>
          </Trackpoint>
          <Trackpoint>
            <Time>2019-05-08T08:37:53.000Z</Time>
            <Position>
              <LatitudeDegrees>42.95710983686149120330810546875</LatitudeDegrees>
              <LongitudeDegrees>0.58458007872104644775390625</LongitudeDegrees>
            </Position>
            <AltitudeMeters>622.79998779296875</AltitudeMeters>
            <DistanceMeters>29751.437978197</DistanceMeters>
          </Trackpoint>
          <Trackpoint>
            <Time>2019-05-08T08:37:54.000Z</Time>
            <Position>
              <LatitudeDegrees>42.9571007005870342254638671875</LatitudeDegrees>
              <LongitudeDegrees>0.5845271050930023193359375</LongitudeDegrees>
            </Position>
            <AltitudeMeters>623</AltitudeMeters>
            <DistanceMeters>29755.871766241</DistanceMeters>
          </Trackpoint>
          <Trackpoint>
            <Time>2019-05-08T08:38:00.000Z</Time>
            <Position>
              <LatitudeDegrees>42.95707060955464839935302734375</LatitudeDegrees>
              <LongitudeDegrees>0.58419912122189998626708984375</LongitudeDegrees>
            </Position>
            <AltitudeMeters>624.4000244140625</AltitudeMeters>
            <DistanceMeters>29782.798051496</DistanceMeters>
          </Trackpoint>
          <Trackpoint>
            <Time>2019-05-08T08:38:07.000Z</Time>
            <Position>
              <LatitudeDegrees>42.957061640918254852294921875</LatitudeDegrees>
              <LongitudeDegrees>0.5838141404092311859130859375</LongitudeDegrees>
            </Position>
            <AltitudeMeters>626.20001220703125</AltitudeMeters>
            <DistanceMeters>29814.173852263</DistanceMeters>
          </Trackpoint>
          <Trackpoint>
            <Time>2019-05-08T08:38:11.000Z</Time>
            <Position>
              <LatitudeDegrees>42.9570507444441318511962890625</LatitudeDegrees>
              <LongitudeDegrees>0.5836071074008941650390625</LongitudeDegrees>
            </Position>
            <AltitudeMeters>626.4000244140625</AltitudeMeters>
            <DistanceMeters>29831.081665844</DistanceMeters>
          </Trackpoint>
          <Trackpoint>
            <Time>2019-05-08T08:38:17.000Z</Time>
            <Position>
              <LatitudeDegrees>42.9570141993463039398193359375</LatitudeDegrees>
              <LongitudeDegrees>0.5833125673234462738037109375</LongitudeDegrees>
            </Position>
            <AltitudeMeters>626.5999755859375</AltitudeMeters>
            <DistanceMeters>29855.41666971</DistanceMeters>
          </Trackpoint>
          <Trackpoint>
            <Time>2019-05-08T08:38:18.000Z</Time>
            <Position>
              <LatitudeDegrees>42.9570091702044010162353515625</LatitudeDegrees>
              <LongitudeDegrees>0.583252049982547760009765625</LongitudeDegrees>
            </Position>
            <AltitudeMeters>626.5999755859375</AltitudeMeters>
            <DistanceMeters>29860.378119941</DistanceMeters>
          </Trackpoint>
          <Trackpoint>
            <Time>2019-05-08T08:38:20.000Z</Time>
            <Position>
              <LatitudeDegrees>42.95699265785515308380126953125</LatitudeDegrees>
              <LongitudeDegrees>0.58312104083597660064697265625</LongitudeDegrees>
            </Position>
            <AltitudeMeters>626.79998779296875</AltitudeMeters>
            <DistanceMeters>29871.206996738</DistanceMeters>
          </Trackpoint>
          <Trackpoint>
            <Time>2019-05-08T08:38:22.000Z</Time>
            <Position>
              <LatitudeDegrees>42.956981845200061798095703125</LatitudeDegrees>
              <LongitudeDegrees>0.5829715915024280548095703125</LongitudeDegrees>
            </Position>
            <AltitudeMeters>626.79998779296875</AltitudeMeters>
            <DistanceMeters>29883.440002372</DistanceMeters>
          </Trackpoint>
          <Trackpoint>
            <Time>2019-05-08T08:38:23.000Z</Time>
            <Position>
              <LatitudeDegrees>42.95697790570557117462158203125</LatitudeDegrees>
              <LongitudeDegrees>0.5828901194036006927490234375</LongitudeDegrees>
            </Position>
            <AltitudeMeters>626.5999755859375</AltitudeMeters>
            <DistanceMeters>29890.090514715</DistanceMeters>
          </Trackpoint>
          <Trackpoint>
            <Time>2019-05-08T08:38:24.000Z</Time>
            <Position>
              <LatitudeDegrees>42.95697472058236598968505859375</LatitudeDegrees>
              <LongitudeDegrees>0.58280521072447299957275390625</LongitudeDegrees>
            </Position>
            <AltitudeMeters>626.79998779296875</AltitudeMeters>
            <DistanceMeters>29897.015739332</DistanceMeters>
          </Trackpoint>
          <Trackpoint>
            <Time>2019-05-08T08:38:25.000Z</Time>
            <Position>
              <LatitudeDegrees>42.9569716192781925201416015625</LatitudeDegrees>
              <LongitudeDegrees>0.58271703310310840606689453125</LongitudeDegrees>
            </Position>
            <AltitudeMeters>626.79998779296875</AltitudeMeters>
            <DistanceMeters>29904.207698583</DistanceMeters>
          </Trackpoint>
          <Trackpoint>
            <Time>2019-05-08T08:38:27.000Z</Time>
            <Position>
              <LatitudeDegrees>42.95697337947785854339599609375</LatitudeDegrees>
              <LongitudeDegrees>0.5825317092239856719970703125</LongitudeDegrees>
            </Position>
            <AltitudeMeters>626.20001220703125</AltitudeMeters>
            <DistanceMeters>29919.30528745</DistanceMeters>
          </Trackpoint>
          <Trackpoint>
            <Time>2019-05-08T08:38:28.000Z</Time>
            <Position>
              <LatitudeDegrees>42.95698461122810840606689453125</LatitudeDegrees>
              <LongitudeDegrees>0.58243833482265472412109375</LongitudeDegrees>
            </Position>
            <AltitudeMeters>625.79998779296875</AltitudeMeters>
            <DistanceMeters>29927.013588365</DistanceMeters>
          </Trackpoint>
          <Trackpoint>
            <Time>2019-05-08T08:38:29.000Z</Time>
            <Position>
              <LatitudeDegrees>42.9570043087005615234375</LatitudeDegrees>
              <LongitudeDegrees>0.582344122231006622314453125</LongitudeDegrees>
            </Position>
            <AltitudeMeters>625.5999755859375</AltitudeMeters>
            <DistanceMeters>29934.994701022</DistanceMeters>
          </Trackpoint>
          <Trackpoint>
            <Time>2019-05-08T08:38:32.000Z</Time>
            <Position>
              <LatitudeDegrees>42.95708972029387950897216796875</LatitudeDegrees>
              <LongitudeDegrees>0.58207481168210506439208984375</LongitudeDegrees>
            </Position>
            <AltitudeMeters>624.4000244140625</AltitudeMeters>
            <DistanceMeters>29958.903505449</DistanceMeters>
          </Trackpoint>
          <Trackpoint>
            <Time>2019-05-08T08:38:34.000Z</Time>
            <Position>
              <LatitudeDegrees>42.9571540094912052154541015625</LatitudeDegrees>
              <LongitudeDegrees>0.58190801180899143218994140625</LongitudeDegrees>
            </Position>
            <AltitudeMeters>623.5999755859375</AltitudeMeters>
            <DistanceMeters>29974.25965784</DistanceMeters>
          </Trackpoint>
          <Trackpoint>
            <Time>2019-05-08T08:38:35.000Z</Time>
            <Position>
              <LatitudeDegrees>42.957185022532939910888671875</LatitudeDegrees>
              <LongitudeDegrees>0.58182637207210063934326171875</LongitudeDegrees>
            </Position>
            <AltitudeMeters>623.4000244140625</AltitudeMeters>
            <DistanceMeters>29981.752922504</DistanceMeters>
          </Trackpoint>
          <Trackpoint>
            <Time>2019-05-08T08:38:38.000Z</Time>
            <Position>
              <LatitudeDegrees>42.957279570400714874267578125</LatitudeDegrees>
              <LongitudeDegrees>0.58158681727945804595947265625</LongitudeDegrees>
            </Position>
            <AltitudeMeters>622.4000244140625</AltitudeMeters>
            <DistanceMeters>30003.92308468</DistanceMeters>
          </Trackpoint>
          <Trackpoint>
            <Time>2019-05-08T08:38:39.000Z</Time>
            <Position>
              <LatitudeDegrees>42.95731133781373500823974609375</LatitudeDegrees>
              <LongitudeDegrees>0.5815081112086772918701171875</LongitudeDegrees>
            </Position>
            <AltitudeMeters>622.20001220703125</AltitudeMeters>
            <DistanceMeters>30011.245076475</DistanceMeters>
          </Trackpoint>
          <Trackpoint>
            <Time>2019-05-08T08:38:41.000Z</Time>
            <Position>
              <LatitudeDegrees>42.9573665745556354522705078125</LatitudeDegrees>
              <LongitudeDegrees>0.58134826831519603729248046875</LongitudeDegrees>
            </Position>
            <AltitudeMeters>621.79998779296875</AltitudeMeters>
            <DistanceMeters>30025.644054049</DistanceMeters>
          </Trackpoint>
          <Trackpoint>
            <Time>2019-05-08T08:38:43.000Z</Time>
            <Position>
              <LatitudeDegrees>42.9574054665863513946533203125</LatitudeDegrees>
              <LongitudeDegrees>0.58119236491620540618896484375</LongitudeDegrees>
            </Position>
            <AltitudeMeters>621.4000244140625</AltitudeMeters>
            <DistanceMeters>30039.06100504</DistanceMeters>
          </Trackpoint>
          <Trackpoint>
            <Time>2019-05-08T08:38:44.000Z</Time>
            <Position>
              <LatitudeDegrees>42.9574168659746646881103515625</LatitudeDegrees>
              <LongitudeDegrees>0.58111676014959812164306640625</LongitudeDegrees>
            </Position>
            <AltitudeMeters>621.4000244140625</AltitudeMeters>
            <DistanceMeters>30045.348586027</DistanceMeters>
          </Trackpoint>
          <Trackpoint>
            <Time>2019-05-08T08:38:47.000Z</Time>
            <Position>
              <LatitudeDegrees>42.95742616988718509674072265625</LatitudeDegrees>
              <LongitudeDegrees>0.58089162223041057586669921875</LongitudeDegrees>
            </Position>
            <AltitudeMeters>621.20001220703125</AltitudeMeters>
            <DistanceMeters>30063.717031151</DistanceMeters>
          </Trackpoint>
          <Trackpoint>
            <Time>2019-05-08T08:38:48.000Z</Time>
            <Position>
              <LatitudeDegrees>42.957421727478504180908203125</LatitudeDegrees>
              <LongitudeDegrees>0.58081828057765960693359375</LongitudeDegrees>
            </Position>
            <AltitudeMeters>621.20001220703125</AltitudeMeters>
            <DistanceMeters>30069.711251214</DistanceMeters>
          </Trackpoint>
          <Trackpoint>
            <Time>2019-05-08T08:38:49.000Z</Time>
            <Position>
              <LatitudeDegrees>42.9574148543179035186767578125</LatitudeDegrees>
              <LongitudeDegrees>0.5807460285723209381103515625</LongitudeDegrees>
            </Position>
            <AltitudeMeters>621.20001220703125</AltitudeMeters>
            <DistanceMeters>30075.646428399</DistanceMeters>
          </Trackpoint>
          <Trackpoint>
            <Time>2019-05-08T08:38:50.000Z</Time>
            <Position>
              <LatitudeDegrees>42.95740705914795398712158203125</LatitudeDegrees>
              <LongitudeDegrees>0.580676458775997161865234375</LongitudeDegrees>
            </Position>
            <AltitudeMeters>621.20001220703125</AltitudeMeters>
            <DistanceMeters>30081.37961933</DistanceMeters>
          </Trackpoint>
          <Trackpoint>
            <Time>2019-05-08T08:38:53.000Z</Time>
            <Position>
              <LatitudeDegrees>42.9573887027800083160400390625</LatitudeDegrees>
              <LongitudeDegrees>0.5804804898798465728759765625</LongitudeDegrees>
            </Position>
            <AltitudeMeters>621.20001220703125</AltitudeMeters>
            <DistanceMeters>30097.472835991</DistanceMeters>
          </Trackpoint>
          <Trackpoint>
            <Time>2019-05-08T08:38:56.000Z</Time>
            <Position>
              <LatitudeDegrees>42.95738208107650279998779296875</LatitudeDegrees>
              <LongitudeDegrees>0.580278150737285614013671875</LongitudeDegrees>
            </Position>
            <AltitudeMeters>621.5999755859375</AltitudeMeters>
            <DistanceMeters>30113.971126637</DistanceMeters>
          </Trackpoint>
          <Trackpoint>
            <Time>2019-05-08T08:39:00.000Z</Time>
            <Position>
              <LatitudeDegrees>42.95740370638668537139892578125</LatitudeDegrees>
              <LongitudeDegrees>0.580007247626781463623046875</LongitudeDegrees>
            </Position>
            <AltitudeMeters>621.79998779296875</AltitudeMeters>
            <DistanceMeters>30136.169171853</DistanceMeters>
          </Trackpoint>
          <Trackpoint>
            <Time>2019-05-08T08:39:04.000Z</Time>
            <Position>
              <LatitudeDegrees>42.9574420116841793060302734375</LatitudeDegrees>
              <LongitudeDegrees>0.57973961345851421356201171875</LongitudeDegrees>
            </Position>
            <AltitudeMeters>622</AltitudeMeters>
            <DistanceMeters>30158.383076448</DistanceMeters>
          </Trackpoint>
          <Trackpoint>
            <Time>2019-05-08T08:39:05.000Z</Time>
            <Position>
              <LatitudeDegrees>42.95745248906314373016357421875</LatitudeDegrees>
              <LongitudeDegrees>0.57967490516602993011474609375</LongitudeDegrees>
            </Position>
            <AltitudeMeters>622</AltitudeMeters>
            <DistanceMeters>30163.781229529</DistanceMeters>
          </Trackpoint>
          <Trackpoint>
            <Time>2019-05-08T08:39:07.000Z</Time>
            <Position>
              <LatitudeDegrees>42.9574674926698207855224609375</LatitudeDegrees>
              <LongitudeDegrees>0.57954347692430019378662109375</LongitudeDegrees>
            </Position>
            <AltitudeMeters>622</AltitudeMeters>
            <DistanceMeters>30174.616775381</DistanceMeters>
          </Trackpoint>
          <Trackpoint>
            <Time>2019-05-08T08:39:10.000Z</Time>
            <Position>
              <LatitudeDegrees>42.95748936943709850311279296875</LatitudeDegrees>
              <LongitudeDegrees>0.57933677919209003448486328125</LongitudeDegrees>
            </Position>
            <AltitudeMeters>622</AltitudeMeters>
            <DistanceMeters>30191.628946025</DistanceMeters>
          </Trackpoint>
          <Trackpoint>
            <Time>2019-05-08T08:39:11.000Z</Time>
            <Position>
              <LatitudeDegrees>42.95749356038868427276611328125</LatitudeDegrees>
              <LongitudeDegrees>0.57926796376705169677734375</LongitudeDegrees>
            </Position>
            <AltitudeMeters>622.20001220703125</AltitudeMeters>
            <DistanceMeters>30197.254013835</DistanceMeters>
          </Trackpoint>
          <Trackpoint>
            <Time>2019-05-08T08:39:14.000Z</Time>
            <Position>
              <LatitudeDegrees>42.9575006850063800811767578125</LatitudeDegrees>
              <LongitudeDegrees>0.57907911948859691619873046875</LongitudeDegrees>
            </Position>
            <AltitudeMeters>622.5999755859375</AltitudeMeters>
            <DistanceMeters>30212.657430942</DistanceMeters>
          </Trackpoint>
          <Trackpoint>
            <Time>2019-05-08T08:39:17.000Z</Time>
            <Position>
              <LatitudeDegrees>42.9575067199766635894775390625</LatitudeDegrees>
              <LongitudeDegrees>0.57887778617441654205322265625</LongitudeDegrees>
            </Position>
            <AltitudeMeters>623.20001220703125</AltitudeMeters>
            <DistanceMeters>30229.07094064</DistanceMeters>
          </Trackpoint>
          <Trackpoint>
            <Time>2019-05-08T08:39:19.000Z</Time>
            <Position>
              <LatitudeDegrees>42.95750797726213932037353515625</LatitudeDegrees>
              <LongitudeDegrees>0.57874082587659358978271484375</LongitudeDegrees>
            </Position>
            <AltitudeMeters>623.4000244140625</AltitudeMeters>
            <DistanceMeters>30240.228388102</DistanceMeters>
          </Trackpoint>
          <Trackpoint>
            <Time>2019-05-08T08:39:27.000Z</Time>
            <Position>
              <LatitudeDegrees>42.95752289704978466033935546875</LatitudeDegrees>
              <LongitudeDegrees>0.578202791512012481689453125</LongitudeDegrees>
            </Position>
            <AltitudeMeters>623.5999755859375</AltitudeMeters>
            <DistanceMeters>30284.08669135</DistanceMeters>
          </Trackpoint>
          <Trackpoint>
            <Time>2019-05-08T08:39:29.000Z</Time>
            <Position>
              <LatitudeDegrees>42.95751736499369144439697265625</LatitudeDegrees>
              <LongitudeDegrees>0.5780705250799655914306640625</LongitudeDegrees>
            </Position>
            <AltitudeMeters>623.4000244140625</AltitudeMeters>
            <DistanceMeters>30294.878396308</DistanceMeters>
          </Trackpoint>
          <Trackpoint>
            <Time>2019-05-08T08:39:34.000Z</Time>
            <Position>
              <LatitudeDegrees>42.9575072228908538818359375</LatitudeDegrees>
              <LongitudeDegrees>0.577716641128063201904296875</LongitudeDegrees>
            </Position>
            <AltitudeMeters>623.20001220703125</AltitudeMeters>
            <DistanceMeters>30323.727104518</DistanceMeters>
          </Trackpoint>
          <Trackpoint>
            <Time>2019-05-08T08:39:36.000Z</Time>
            <Position>
              <LatitudeDegrees>42.9575177840888500213623046875</LatitudeDegrees>
              <LongitudeDegrees>0.5775471590459346771240234375</LongitudeDegrees>
            </Position>
            <AltitudeMeters>623</AltitudeMeters>
            <DistanceMeters>30337.582768529</DistanceMeters>
          </Trackpoint>
          <Trackpoint>
            <Time>2019-05-08T08:39:37.000Z</Time>
            <Position>
              <LatitudeDegrees>42.95753211714327335357666015625</LatitudeDegrees>
              <LongitudeDegrees>0.57745747268199920654296875</LongitudeDegrees>
            </Position>
            <AltitudeMeters>623</AltitudeMeters>
            <DistanceMeters>30345.060350581</DistanceMeters>
          </Trackpoint>
          <Trackpoint>
            <Time>2019-05-08T08:39:38.000Z</Time>
            <Position>
              <LatitudeDegrees>42.95755424536764621734619140625</LatitudeDegrees>
              <LongitudeDegrees>0.5773704685270786285400390625</LongitudeDegrees>
            </Position>
            <AltitudeMeters>622.79998779296875</AltitudeMeters>
            <DistanceMeters>30352.563249791</DistanceMeters>
          </Trackpoint>
          <Trackpoint>
            <Time>2019-05-08T08:39:39.000Z</Time>
            <Position>
              <LatitudeDegrees>42.95758324675261974334716796875</LatitudeDegrees>
              <LongitudeDegrees>0.57728623040020465850830078125</LongitudeDegrees>
            </Position>
            <AltitudeMeters>622.5999755859375</AltitudeMeters>
            <DistanceMeters>30360.146357781</DistanceMeters>
          </Trackpoint>
          <Trackpoint>
            <Time>2019-05-08T08:39:41.000Z</Time>
            <Position>
              <LatitudeDegrees>42.957655750215053558349609375</LatitudeDegrees>
              <LongitudeDegrees>0.57713518850505352020263671875</LongitudeDegrees>
            </Position>
            <AltitudeMeters>622.4000244140625</AltitudeMeters>
            <DistanceMeters>30374.86047049</DistanceMeters>
          </Trackpoint>
          <Trackpoint>
            <Time>2019-05-08T08:39:42.000Z</Time>
            <Position>
              <LatitudeDegrees>42.9576954804360866546630859375</LatitudeDegrees>
              <LongitudeDegrees>0.57706746272742748260498046875</LongitudeDegrees>
            </Position>
            <AltitudeMeters>622</AltitudeMeters>
            <DistanceMeters>30381.930866745</DistanceMeters>
          </Trackpoint>
          <Trackpoint>
            <Time>2019-05-08T08:39:43.000Z</Time>
            <Position>
              <LatitudeDegrees>42.95773546211421489715576171875</LatitudeDegrees>
              <LongitudeDegrees>0.57700552046298980712890625</LongitudeDegrees>
            </Position>
            <AltitudeMeters>621.79998779296875</AltitudeMeters>
            <DistanceMeters>30388.658328609</DistanceMeters>
          </Trackpoint>
          <Trackpoint>
            <Time>2019-05-08T08:39:44.000Z</Time>
            <Position>
              <LatitudeDegrees>42.95777385123074054718017578125</LatitudeDegrees>
              <LongitudeDegrees>0.5769443325698375701904296875</LongitudeDegrees>
            </Position>
            <AltitudeMeters>621.4000244140625</AltitudeMeters>
            <DistanceMeters>30395.222742124</DistanceMeters>
          </Trackpoint>
          <Trackpoint>
            <Time>2019-05-08T08:39:45.000Z</Time>
            <Position>
              <LatitudeDegrees>42.9578103125095367431640625</LatitudeDegrees>
              <LongitudeDegrees>0.5768876709043979644775390625</LongitudeDegrees>
            </Position>
            <AltitudeMeters>621</AltitudeMeters>
            <DistanceMeters>30401.368700939</DistanceMeters>
          </Trackpoint>
          <Trackpoint>
            <Time>2019-05-08T08:39:47.000Z</Time>
            <Position>
              <LatitudeDegrees>42.9578828997910022735595703125</LatitudeDegrees>
              <LongitudeDegrees>0.57678264565765857696533203125</LongitudeDegrees>
            </Position>
            <AltitudeMeters>620.5999755859375</AltitudeMeters>
            <DistanceMeters>30413.135141864</DistanceMeters>
          </Trackpoint>
          <Trackpoint>
            <Time>2019-05-08T08:39:48.000Z</Time>
            <Position>
              <LatitudeDegrees>42.9579191096127033233642578125</LatitudeDegrees>
              <LongitudeDegrees>0.57673168368637561798095703125</LongitudeDegrees>
            </Position>
            <AltitudeMeters>620.4000244140625</AltitudeMeters>
            <DistanceMeters>30418.92007603</DistanceMeters>
          </Trackpoint>
          <Trackpoint>
            <Time>2019-05-08T08:39:51.000Z</Time>
            <Position>
              <LatitudeDegrees>42.95801474712789058685302734375</LatitudeDegrees>
              <LongitudeDegrees>0.57659019716084003448486328125</LongitudeDegrees>
            </Position>
            <AltitudeMeters>620.4000244140625</AltitudeMeters>
            <DistanceMeters>30434.608695907</DistanceMeters>
          </Trackpoint>
          <Trackpoint>
            <Time>2019-05-08T08:39:52.000Z</Time>
            <Position>
              <LatitudeDegrees>42.95803838409483432769775390625</LatitudeDegrees>
              <LongitudeDegrees>0.57654158212244510650634765625</LongitudeDegrees>
            </Position>
            <AltitudeMeters>620.4000244140625</AltitudeMeters>
            <DistanceMeters>30439.362881572</DistanceMeters>
          </Trackpoint>
          <Trackpoint>
            <Time>2019-05-08T08:39:53.000Z</Time>
            <Position>
              <LatitudeDegrees>42.95805883593857288360595703125</LatitudeDegrees>
              <LongitudeDegrees>0.57649095542728900909423828125</LongitudeDegrees>
            </Position>
            <AltitudeMeters>620.5999755859375</AltitudeMeters>
            <DistanceMeters>30444.072219927</DistanceMeters>
          </Trackpoint>
          <Trackpoint>
            <Time>2019-05-08T08:39:55.000Z</Time>
            <Position>
              <LatitudeDegrees>42.95809152536094188690185546875</LatitudeDegrees>
              <LongitudeDegrees>0.57638132013380527496337890625</LongitudeDegrees>
            </Position>
            <AltitudeMeters>620.5999755859375</AltitudeMeters>
            <DistanceMeters>30453.715441755</DistanceMeters>
          </Trackpoint>
          <Trackpoint>
            <Time>2019-05-08T08:39:57.000Z</Time>
            <Position>
              <LatitudeDegrees>42.95811398886144161224365234375</LatitudeDegrees>
              <LongitudeDegrees>0.57625877670943737030029296875</LongitudeDegrees>
            </Position>
            <AltitudeMeters>620.79998779296875</AltitudeMeters>
            <DistanceMeters>30464.005566943</DistanceMeters>
          </Trackpoint>
          <Trackpoint>
            <Time>2019-05-08T08:39:58.000Z</Time>
            <Position>
              <LatitudeDegrees>42.95811734162271022796630859375</LatitudeDegrees>
              <LongitudeDegrees>0.576190464198589324951171875</LongitudeDegrees>
            </Position>
            <AltitudeMeters>621</AltitudeMeters>
            <DistanceMeters>30469.582266977</DistanceMeters>
          </Trackpoint>
          <Trackpoint>
            <Time>2019-05-08T08:39:59.000Z</Time>
            <Position>
              <LatitudeDegrees>42.95811943709850311279296875</LatitudeDegrees>
              <LongitudeDegrees>0.57611963711678981781005859375</LongitudeDegrees>
            </Position>
            <AltitudeMeters>620.79998779296875</AltitudeMeters>
            <DistanceMeters>30475.356264053</DistanceMeters>
          </Trackpoint>
          <Trackpoint>
            <Time>2019-05-08T08:40:01.000Z</Time>
            <Position>
              <LatitudeDegrees>42.95812287367880344390869140625</LatitudeDegrees>
              <LongitudeDegrees>0.57596239261329174041748046875</LongitudeDegrees>
            </Position>
            <AltitudeMeters>620.79998779296875</AltitudeMeters>
            <DistanceMeters>30488.170432386</DistanceMeters>
          </Trackpoint>
          <Trackpoint>
            <Time>2019-05-08T08:40:03.000Z</Time>
            <Position>
              <LatitudeDegrees>42.95811809599399566650390625</LatitudeDegrees>
              <LongitudeDegrees>0.5757876299321651458740234375</LongitudeDegrees>
            </Position>
            <AltitudeMeters>620.79998779296875</AltitudeMeters>
            <DistanceMeters>30502.416201512</DistanceMeters>
          </Trackpoint>
          <Trackpoint>
            <Time>2019-05-08T08:40:06.000Z</Time>
            <Position>
              <LatitudeDegrees>42.95810024254024028778076171875</LatitudeDegrees>
              <LongitudeDegrees>0.57549065910279750823974609375</LongitudeDegrees>
            </Position>
            <AltitudeMeters>621</AltitudeMeters>
            <DistanceMeters>30526.688040899</DistanceMeters>
          </Trackpoint>
          <Trackpoint>
            <Time>2019-05-08T08:40:08.000Z</Time>
            <Position>
              <LatitudeDegrees>42.9580981470644474029541015625</LatitudeDegrees>
              <LongitudeDegrees>0.57526870630681514739990234375</LongitudeDegrees>
            </Position>
            <AltitudeMeters>620.79998779296875</AltitudeMeters>
            <DistanceMeters>30544.769105236</DistanceMeters>
          </Trackpoint>
          <Trackpoint>
            <Time>2019-05-08T08:40:09.000Z</Time>
            <Position>
              <LatitudeDegrees>42.95810225419700145721435546875</LatitudeDegrees>
              <LongitudeDegrees>0.5751546286046504974365234375</LongitudeDegrees>
            </Position>
            <AltitudeMeters>620.20001220703125</AltitudeMeters>
            <DistanceMeters>30554.07250691</DistanceMeters>
          </Trackpoint>
          <Trackpoint>
            <Time>2019-05-08T08:40:11.000Z</Time>
            <Position>
              <LatitudeDegrees>42.95813242904841899871826171875</LatitudeDegrees>
              <LongitudeDegrees>0.5749266408383846282958984375</LongitudeDegrees>
            </Position>
            <AltitudeMeters>619.4000244140625</AltitudeMeters>
            <DistanceMeters>30572.944821954</DistanceMeters>
          </Trackpoint>
          <Trackpoint>
            <Time>2019-05-08T08:40:12.000Z</Time>
            <Position>
              <LatitudeDegrees>42.95815438963472843170166015625</LatitudeDegrees>
              <LongitudeDegrees>0.57481507770717144012451171875</LongitudeDegrees>
            </Position>
            <AltitudeMeters>618.79998779296875</AltitudeMeters>
            <DistanceMeters>30582.354866035</DistanceMeters>
          </Trackpoint>
          <Trackpoint>
            <Time>2019-05-08T08:40:14.000Z</Time>
            <Position>
              <LatitudeDegrees>42.95820719562470912933349609375</LatitudeDegrees>
              <LongitudeDegrees>0.57459832169115543365478515625</LongitudeDegrees>
            </Position>
            <AltitudeMeters>618.20001220703125</AltitudeMeters>
            <DistanceMeters>30600.963610525</DistanceMeters>
          </Trackpoint>
          <Trackpoint>
            <Time>2019-05-08T08:40:17.000Z</Time>
            <Position>
              <LatitudeDegrees>42.9582869075238704681396484375</LatitudeDegrees>
              <LongitudeDegrees>0.57428265921771526336669921875</LongitudeDegrees>
            </Position>
            <AltitudeMeters>617</AltitudeMeters>
            <DistanceMeters>30628.163835215</DistanceMeters>
          </Trackpoint>
          <Trackpoint>
            <Time>2019-05-08T08:40:19.000Z</Time>
            <Position>
              <LatitudeDegrees>42.95834298245608806610107421875</LatitudeDegrees>
              <LongitudeDegrees>0.57407998479902744293212890625</LongitudeDegrees>
            </Position>
            <AltitudeMeters>615.5999755859375</AltitudeMeters>
            <DistanceMeters>30645.812984966</DistanceMeters>
          </Trackpoint>
          <Trackpoint>
            <Time>2019-05-08T08:40:22.000Z</Time>
            <Position>
              <LatitudeDegrees>42.958425544202327728271484375</LatitudeDegrees>
              <LongitudeDegrees>0.573775134980678558349609375</LongitudeDegrees>
            </Position>
            <AltitudeMeters>614.5999755859375</AltitudeMeters>
            <DistanceMeters>30672.290674534</DistanceMeters>
          </Trackpoint>
          <Trackpoint>
            <Time>2019-05-08T08:40:24.000Z</Time>
            <Position>
              <LatitudeDegrees>42.95848195441067218780517578125</LatitudeDegrees>
              <LongitudeDegrees>0.57356617413461208343505859375</LongitudeDegrees>
            </Position>
            <AltitudeMeters>614.20001220703125</AltitudeMeters>
            <DistanceMeters>30690.43281488</DistanceMeters>
          </Trackpoint>
          <Trackpoint>
            <Time>2019-05-08T08:40:26.000Z</Time>
            <Position>
              <LatitudeDegrees>42.95853643678128719329833984375</LatitudeDegrees>
              <LongitudeDegrees>0.57335360907018184661865234375</LongitudeDegrees>
            </Position>
            <AltitudeMeters>613.4000244140625</AltitudeMeters>
            <DistanceMeters>30708.778632093</DistanceMeters>
          </Trackpoint>
          <Trackpoint>
            <Time>2019-05-08T08:40:27.000Z</Time>
            <Position>
              <LatitudeDegrees>42.95856275595724582672119140625</LatitudeDegrees>
              <LongitudeDegrees>0.57324749417603015899658203125</LongitudeDegrees>
            </Position>
            <AltitudeMeters>613</AltitudeMeters>
            <DistanceMeters>30717.90515526</DistanceMeters>
          </Trackpoint>
          <Trackpoint>
            <Time>2019-05-08T08:40:30.000Z</Time>
            <Position>
              <LatitudeDegrees>42.9586443118751049041748046875</LatitudeDegrees>
              <LongitudeDegrees>0.57293971069157123565673828125</LongitudeDegrees>
            </Position>
            <AltitudeMeters>612.4000244140625</AltitudeMeters>
            <DistanceMeters>30744.568574366</DistanceMeters>
          </Trackpoint>
          <Trackpoint>
            <Time>2019-05-08T08:40:33.000Z</Time>
            <Position>
              <LatitudeDegrees>42.95872720889747142791748046875</LatitudeDegrees>
              <LongitudeDegrees>0.57266294024884700775146484375</LongitudeDegrees>
            </Position>
            <AltitudeMeters>611.4000244140625</AltitudeMeters>
            <DistanceMeters>30768.928056776</DistanceMeters>
          </Trackpoint>
          <Trackpoint>
            <Time>2019-05-08T08:40:34.000Z</Time>
            <Position>
              <LatitudeDegrees>42.95876325108110904693603515625</LatitudeDegrees>
              <LongitudeDegrees>0.5725847370922565460205078125</LongitudeDegrees>
            </Position>
            <AltitudeMeters>610.79998779296875</AltitudeMeters>
            <DistanceMeters>30776.456188003</DistanceMeters>
          </Trackpoint>
          <Trackpoint>
            <Time>2019-05-08T08:40:35.000Z</Time>
            <Position>
              <LatitudeDegrees>42.95879476703703403472900390625</LatitudeDegrees>
              <LongitudeDegrees>0.57250477373600006103515625</LongitudeDegrees>
            </Position>
            <AltitudeMeters>609.79998779296875</AltitudeMeters>
            <DistanceMeters>30783.853637783</DistanceMeters>
          </Trackpoint>
          <Trackpoint>
            <Time>2019-05-08T08:40:37.000Z</Time>
            <Position>
              <LatitudeDegrees>42.95884522609412670135498046875</LatitudeDegrees>
              <LongitudeDegrees>0.57233713567256927490234375</LongitudeDegrees>
            </Position>
            <AltitudeMeters>609.20001220703125</AltitudeMeters>
            <DistanceMeters>30798.618599872</DistanceMeters>
          </Trackpoint>
          <Trackpoint>
            <Time>2019-05-08T08:40:38.000Z</Time>
            <Position>
              <LatitudeDegrees>42.95886685140430927276611328125</LatitudeDegrees>
              <LongitudeDegrees>0.5722548253834247589111328125</LongitudeDegrees>
            </Position>
            <AltitudeMeters>609</AltitudeMeters>
            <DistanceMeters>30805.741801367</DistanceMeters>
          </Trackpoint>
          <Trackpoint>
            <Time>2019-05-08T08:40:39.000Z</Time>
            <Position>
              <LatitudeDegrees>42.958883531391620635986328125</LatitudeDegrees>
              <LongitudeDegrees>0.572172515094280242919921875</LongitudeDegrees>
            </Position>
            <AltitudeMeters>609.20001220703125</AltitudeMeters>
            <DistanceMeters>30812.69825015</DistanceMeters>
          </Trackpoint>
          <Trackpoint>
            <Time>2019-05-08T08:40:41.000Z</Time>
            <Position>
              <LatitudeDegrees>42.95889769680798053741455078125</LatitudeDegrees>
              <LongitudeDegrees>0.57200747542083263397216796875</LongitudeDegrees>
            </Position>
            <AltitudeMeters>609</AltitudeMeters>
            <DistanceMeters>30826.233804109</DistanceMeters>
          </Trackpoint>
          <Trackpoint>
            <Time>2019-05-08T08:40:42.000Z</Time>
            <Position>
              <LatitudeDegrees>42.95890172012150287628173828125</LatitudeDegrees>
              <LongitudeDegrees>0.571926422417163848876953125</LongitudeDegrees>
            </Position>
            <AltitudeMeters>609</AltitudeMeters>
            <DistanceMeters>30832.851648981</DistanceMeters>
          </Trackpoint>
          <Trackpoint>
            <Time>2019-05-08T08:40:45.000Z</Time>
            <Position>
              <LatitudeDegrees>42.95891831628978252410888671875</LatitudeDegrees>
              <LongitudeDegrees>0.571683011949062347412109375</LongitudeDegrees>
            </Position>
            <AltitudeMeters>609</AltitudeMeters>
            <DistanceMeters>30852.764451062</DistanceMeters>
          </Trackpoint>
          <Trackpoint>
            <Time>2019-05-08T08:40:48.000Z</Time>
            <Position>
              <LatitudeDegrees>42.9589395225048065185546875</LatitudeDegrees>
              <LongitudeDegrees>0.57144437916576862335205078125</LongitudeDegrees>
            </Position>
            <AltitudeMeters>609.5999755859375</AltitudeMeters>
            <DistanceMeters>30872.345027807</DistanceMeters>
          </Trackpoint>
          <Trackpoint>
            <Time>2019-05-08T08:40:50.000Z</Time>
            <Position>
              <LatitudeDegrees>42.9589524306356906890869140625</LatitudeDegrees>
              <LongitudeDegrees>0.57127892039716243743896484375</LongitudeDegrees>
            </Position>
            <AltitudeMeters>610</AltitudeMeters>
            <DistanceMeters>30885.898915632</DistanceMeters>
          </Trackpoint>
          <Trackpoint>
            <Time>2019-05-08T08:40:53.000Z</Time>
            <Position>
              <LatitudeDegrees>42.95898302458226680755615234375</LatitudeDegrees>
              <LongitudeDegrees>0.57102779857814311981201171875</LongitudeDegrees>
            </Position>
            <AltitudeMeters>610.20001220703125</AltitudeMeters>
            <DistanceMeters>30906.635652122</DistanceMeters>
          </Trackpoint>
          <Trackpoint>
            <Time>2019-05-08T08:40:55.000Z</Time>
            <Position>
              <LatitudeDegrees>42.95901152305305004119873046875</LatitudeDegrees>
              <LongitudeDegrees>0.5708627589046955108642578125</LongitudeDegrees>
            </Position>
            <AltitudeMeters>610.4000244140625</AltitudeMeters>
            <DistanceMeters>30920.447908456</DistanceMeters>
          </Trackpoint>
          <Trackpoint>
            <Time>2019-05-08T08:41:01.000Z</Time>
            <Position>
              <LatitudeDegrees>42.9591157101094722747802734375</LatitudeDegrees>
              <LongitudeDegrees>0.5703945457935333251953125</LongitudeDegrees>
            </Position>
            <AltitudeMeters>610.4000244140625</AltitudeMeters>
            <DistanceMeters>30960.310227652</DistanceMeters>
          </Trackpoint>
          <Trackpoint>
            <Time>2019-05-08T08:41:02.000Z</Time>
            <Position>
              <LatitudeDegrees>42.95914613641798496246337890625</LatitudeDegrees>
              <LongitudeDegrees>0.57032790966331958770751953125</LongitudeDegrees>
            </Position>
            <AltitudeMeters>610.4000244140625</AltitudeMeters>
            <DistanceMeters>30966.707438485</DistanceMeters>
          </Trackpoint>
          <Trackpoint>
            <Time>2019-05-08T08:41:03.000Z</Time>
            <Position>
              <LatitudeDegrees>42.959182597696781158447265625</LatitudeDegrees>
              <LongitudeDegrees>0.57027091272175312042236328125</LongitudeDegrees>
            </Position>
            <AltitudeMeters>610.4000244140625</AltitudeMeters>
            <DistanceMeters>30972.873200549</DistanceMeters>
          </Trackpoint>
          <Trackpoint>
            <Time>2019-05-08T08:41:05.000Z</Time>
            <Position>
              <LatitudeDegrees>42.95928083360195159912109375</LatitudeDegrees>
              <LongitudeDegrees>0.5702032707631587982177734375</LongitudeDegrees>
            </Position>
            <AltitudeMeters>610.4000244140625</AltitudeMeters>
            <DistanceMeters>30985.116536246</DistanceMeters>
          </Trackpoint>
          <Trackpoint>
            <Time>2019-05-08T08:41:07.000Z</Time>
            <Position>
              <LatitudeDegrees>42.95940094627439975738525390625</LatitudeDegrees>
              <LongitudeDegrees>0.5701730959117412567138671875</LongitudeDegrees>
            </Position>
            <AltitudeMeters>610.20001220703125</AltitudeMeters>
            <DistanceMeters>30998.709342951</DistanceMeters>
          </Trackpoint>
          <Trackpoint>
            <Time>2019-05-08T08:41:09.000Z</Time>
            <Position>
              <LatitudeDegrees>42.95953966677188873291015625</LatitudeDegrees>
              <LongitudeDegrees>0.57013227604329586029052734375</LongitudeDegrees>
            </Position>
            <AltitudeMeters>610</AltitudeMeters>
            <DistanceMeters>31014.503228846</DistanceMeters>
          </Trackpoint>
          <Trackpoint>
            <Time>2019-05-08T08:41:10.000Z</Time>
            <Position>
              <LatitudeDegrees>42.95961485244333744049072265625</LatitudeDegrees>
              <LongitudeDegrees>0.5701114051043987274169921875</LongitudeDegrees>
            </Position>
            <AltitudeMeters>610</AltitudeMeters>
            <DistanceMeters>31023.042424785</DistanceMeters>
          </Trackpoint>
          <Trackpoint>
            <Time>2019-05-08T08:41:12.000Z</Time>
            <Position>
              <LatitudeDegrees>42.959780730307102203369140625</LatitudeDegrees>
              <LongitudeDegrees>0.5700624547898769378662109375</LongitudeDegrees>
            </Position>
            <AltitudeMeters>609.20001220703125</AltitudeMeters>
            <DistanceMeters>31041.930523158</DistanceMeters>
          </Trackpoint>
          <Trackpoint>
            <Time>2019-05-08T08:41:14.000Z</Time>
            <Position>
              <LatitudeDegrees>42.95996504835784435272216796875</LatitudeDegrees>
              <LongitudeDegrees>0.5700148455798625946044921875</LongitudeDegrees>
            </Position>
            <AltitudeMeters>609</AltitudeMeters>
            <DistanceMeters>31062.808954138</DistanceMeters>
          </Trackpoint>
          <Trackpoint>
            <Time>2019-05-08T08:41:15.000Z</Time>
            <Position>
              <LatitudeDegrees>42.96006076969206333160400390625</LatitudeDegrees>
              <LongitudeDegrees>0.56999146007001399993896484375</LongitudeDegrees>
            </Position>
            <AltitudeMeters>608.79998779296875</AltitudeMeters>
            <DistanceMeters>31073.631992142</DistanceMeters>
          </Trackpoint>
          <Trackpoint>
            <Time>2019-05-08T08:41:16.000Z</Time>
            <Position>
              <LatitudeDegrees>42.960153557360172271728515625</LatitudeDegrees>
              <LongitudeDegrees>0.5699605308473110198974609375</LongitudeDegrees>
            </Position>
            <AltitudeMeters>608.5999755859375</AltitudeMeters>
            <DistanceMeters>31084.262249741</DistanceMeters>
          </Trackpoint>
          <Trackpoint>
            <Time>2019-05-08T08:41:18.000Z</Time>
            <Position>
              <LatitudeDegrees>42.96032647602260112762451171875</LatitudeDegrees>
              <LongitudeDegrees>0.56985072791576385498046875</LongitudeDegrees>
            </Position>
            <AltitudeMeters>607</AltitudeMeters>
            <DistanceMeters>31105.484929894</DistanceMeters>
          </Trackpoint>
          <Trackpoint>
            <Time>2019-05-08T08:41:20.000Z</Time>
            <Position>
              <LatitudeDegrees>42.9604719020426273345947265625</LatitudeDegrees>
              <LongitudeDegrees>0.56970044039189815521240234375</LongitudeDegrees>
            </Position>
            <AltitudeMeters>605.4000244140625</AltitudeMeters>
            <DistanceMeters>31125.778863136</DistanceMeters>
          </Trackpoint>
          <Trackpoint>
            <Time>2019-05-08T08:41:22.000Z</Time>
            <Position>
              <LatitudeDegrees>42.96058732084929943084716796875</LatitudeDegrees>
              <LongitudeDegrees>0.5695129372179508209228515625</LongitudeDegrees>
            </Position>
            <AltitudeMeters>603.20001220703125</AltitudeMeters>
            <DistanceMeters>31145.735830632</DistanceMeters>
          </Trackpoint>
          <Trackpoint>
            <Time>2019-05-08T08:41:23.000Z</Time>
            <Position>
              <LatitudeDegrees>42.96063291840255260467529296875</LatitudeDegrees>
              <LongitudeDegrees>0.56940891779959201812744140625</LongitudeDegrees>
            </Position>
            <AltitudeMeters>602.20001220703125</AltitudeMeters>
            <DistanceMeters>31155.612210827</DistanceMeters>
          </Trackpoint>
          <Trackpoint>
            <Time>2019-05-08T08:41:25.000Z</Time>
            <Position>
              <LatitudeDegrees>42.96069729141891002655029296875</LatitudeDegrees>
              <LongitudeDegrees>0.5691964365541934967041015625</LongitudeDegrees>
            </Position>
            <AltitudeMeters>600.4000244140625</AltitudeMeters>
            <DistanceMeters>31174.344046839</DistanceMeters>
          </Trackpoint>
          <Trackpoint>
            <Time>2019-05-08T08:41:26.000Z</Time>
            <Position>
              <LatitudeDegrees>42.96070416457951068878173828125</LatitudeDegrees>
              <LongitudeDegrees>0.5690911598503589630126953125</LongitudeDegrees>
            </Position>
            <AltitudeMeters>599.79998779296875</AltitudeMeters>
            <DistanceMeters>31182.953278364</DistanceMeters>
          </Trackpoint>
          <Trackpoint>
            <Time>2019-05-08T08:41:27.000Z</Time>
            <Position>
              <LatitudeDegrees>42.96068689785897731781005859375</LatitudeDegrees>
              <LongitudeDegrees>0.56898915208876132965087890625</LongitudeDegrees>
            </Position>
            <AltitudeMeters>599.20001220703125</AltitudeMeters>
            <DistanceMeters>31191.481363476</DistanceMeters>
          </Trackpoint>
          <Trackpoint>
            <Time>2019-05-08T08:41:29.000Z</Time>
            <Position>
              <LatitudeDegrees>42.96062286011874675750732421875</LatitudeDegrees>
              <LongitudeDegrees>0.56881128810346126556396484375</LongitudeDegrees>
            </Position>
            <AltitudeMeters>597.79998779296875</AltitudeMeters>
            <DistanceMeters>31207.626958751</DistanceMeters>
          </Trackpoint>
          <Trackpoint>
            <Time>2019-05-08T08:41:30.000Z</Time>
            <Position>
              <LatitudeDegrees>42.96058975160121917724609375</LatitudeDegrees>
              <LongitudeDegrees>0.5687396228313446044921875</LongitudeDegrees>
            </Position>
            <AltitudeMeters>597.20001220703125</AltitudeMeters>
            <DistanceMeters>31214.530634835</DistanceMeters>
          </Trackpoint>
          <Trackpoint>
            <Time>2019-05-08T08:41:31.000Z</Time>
            <Position>
              <LatitudeDegrees>42.96055546961724758148193359375</LatitudeDegrees>
              <LongitudeDegrees>0.56867985986173152923583984375</LongitudeDegrees>
            </Position>
            <AltitudeMeters>596.79998779296875</AltitudeMeters>
            <DistanceMeters>31220.715406764</DistanceMeters>
          </Trackpoint>
          <Trackpoint>
            <Time>2019-05-08T08:41:33.000Z</Time>
            <Position>
              <LatitudeDegrees>42.96049763448536396026611328125</LatitudeDegrees>
              <LongitudeDegrees>0.56858967058360576629638671875</LongitudeDegrees>
            </Position>
            <AltitudeMeters>595.79998779296875</AltitudeMeters>
            <DistanceMeters>31230.482378022</DistanceMeters>
          </Trackpoint>
          <Trackpoint>
            <Time>2019-05-08T08:41:36.000Z</Time>
            <Position>
              <LatitudeDegrees>42.9604281485080718994140625</LatitudeDegrees>
              <LongitudeDegrees>0.56849445216357707977294921875</LongitudeDegrees>
            </Position>
            <AltitudeMeters>593.5999755859375</AltitudeMeters>
            <DistanceMeters>31241.434799466</DistanceMeters>
          </Trackpoint>
          <Trackpoint>
            <Time>2019-05-08T08:41:37.000Z</Time>
            <Position>
              <LatitudeDegrees>42.96039470471441745758056640625</LatitudeDegrees>
              <LongitudeDegrees>0.568471737205982208251953125</LongitudeDegrees>
            </Position>
            <AltitudeMeters>593</AltitudeMeters>
            <DistanceMeters>31245.592150343</DistanceMeters>
          </Trackpoint>
          <Trackpoint>
            <Time>2019-05-08T08:41:38.000Z</Time>
            <Position>
              <LatitudeDegrees>42.96035564504563808441162109375</LatitudeDegrees>
              <LongitudeDegrees>0.568456314504146575927734375</LongitudeDegrees>
            </Position>
            <AltitudeMeters>592.79998779296875</AltitudeMeters>
            <DistanceMeters>31250.117657317</DistanceMeters>
          </Trackpoint>
          <Trackpoint>
            <Time>2019-05-08T08:41:41.000Z</Time>
            <Position>
              <LatitudeDegrees>42.9602415673434734344482421875</LatitudeDegrees>
              <LongitudeDegrees>0.56843410246074199676513671875</LongitudeDegrees>
            </Position>
            <AltitudeMeters>591.79998779296875</AltitudeMeters>
            <DistanceMeters>31262.943447842</DistanceMeters>
          </Trackpoint>
          <Trackpoint>
            <Time>2019-05-08T08:41:43.000Z</Time>
            <Position>
              <LatitudeDegrees>42.96016462147235870361328125</LatitudeDegrees>
              <LongitudeDegrees>0.5684450827538967132568359375</LongitudeDegrees>
            </Position>
            <AltitudeMeters>591.5999755859375</AltitudeMeters>
            <DistanceMeters>31271.554252548</DistanceMeters>
          </Trackpoint>
          <Trackpoint>
            <Time>2019-05-08T08:41:44.000Z</Time>
            <Position>
              <LatitudeDegrees>42.96012531034648418426513671875</LatitudeDegrees>
              <LongitudeDegrees>0.5684558115899562835693359375</LongitudeDegrees>
            </Position>
            <AltitudeMeters>591.4000244140625</AltitudeMeters>
            <DistanceMeters>31276.016462601</DistanceMeters>
          </Trackpoint>
          <Trackpoint>
            <Time>2019-05-08T08:41:50.000Z</Time>
            <Position>
              <LatitudeDegrees>42.9599106498062610626220703125</LatitudeDegrees>
              <LongitudeDegrees>0.56846939027309417724609375</LongitudeDegrees>
            </Position>
            <AltitudeMeters>591.20001220703125</AltitudeMeters>
            <DistanceMeters>31299.934141057</DistanceMeters>
          </Trackpoint>
          <Trackpoint>
            <Time>2019-05-08T08:41:54.000Z</Time>
            <Position>
              <LatitudeDegrees>42.9598147608339786529541015625</LatitudeDegrees>
              <LongitudeDegrees>0.56834961287677288055419921875</LongitudeDegrees>
            </Position>
            <AltitudeMeters>591.4000244140625</AltitudeMeters>
            <DistanceMeters>31314.393822588</DistanceMeters>
          </Trackpoint>
          <Trackpoint>
            <Time>2019-05-08T08:41:58.000Z</Time>
            <Position>
              <LatitudeDegrees>42.95971258543431758880615234375</LatitudeDegrees>
              <LongitudeDegrees>0.56821080856025218963623046875</LongitudeDegrees>
            </Position>
            <AltitudeMeters>591.79998779296875</AltitudeMeters>
            <DistanceMeters>31330.429985376</DistanceMeters>
          </Trackpoint>
          <Trackpoint>
            <Time>2019-05-08T08:42:00.000Z</Time>
            <Position>
              <LatitudeDegrees>42.95966380275785923004150390625</LatitudeDegrees>
              <LongitudeDegrees>0.56813067756593227386474609375</LongitudeDegrees>
            </Position>
            <AltitudeMeters>591.79998779296875</AltitudeMeters>
            <DistanceMeters>31338.920929395</DistanceMeters>
          </Trackpoint>
          <Trackpoint>
            <Time>2019-05-08T08:42:02.000Z</Time>
            <Position>
              <LatitudeDegrees>42.9596176184713840484619140625</LatitudeDegrees>
              <LongitudeDegrees>0.568032525479793548583984375</LongitudeDegrees>
            </Position>
            <AltitudeMeters>591.5999755859375</AltitudeMeters>
            <DistanceMeters>31348.425976203</DistanceMeters>
          </Trackpoint>
          <Trackpoint>
            <Time>2019-05-08T08:42:03.000Z</Time>
            <Position>
              <LatitudeDegrees>42.95959054492413997650146484375</LatitudeDegrees>
              <LongitudeDegrees>0.5679803900420665740966796875</LongitudeDegrees>
            </Position>
            <AltitudeMeters>591.79998779296875</AltitudeMeters>
            <DistanceMeters>31353.633405469</DistanceMeters>
          </Trackpoint>
          <Trackpoint>
            <Time>2019-05-08T08:42:06.000Z</Time>
            <Position>
              <LatitudeDegrees>42.9595009423792362213134765625</LatitudeDegrees>
              <LongitudeDegrees>0.5678184516727924346923828125</LongitudeDegrees>
            </Position>
            <AltitudeMeters>591.79998779296875</AltitudeMeters>
            <DistanceMeters>31370.169965116</DistanceMeters>
          </Trackpoint>
          <Trackpoint>
            <Time>2019-05-08T08:42:10.000Z</Time>
            <Position>
              <LatitudeDegrees>42.9594077356159687042236328125</LatitudeDegrees>
              <LongitudeDegrees>0.56761099956929683685302734375</LongitudeDegrees>
            </Position>
            <AltitudeMeters>591.4000244140625</AltitudeMeters>
            <DistanceMeters>31389.998468044</DistanceMeters>
          </Trackpoint>
          <Trackpoint>
            <Time>2019-05-08T08:42:11.000Z</Time>
            <Position>
              <LatitudeDegrees>42.959400527179241180419921875</LatitudeDegrees>
              <LongitudeDegrees>0.56756104342639446258544921875</LongitudeDegrees>
            </Position>
            <AltitudeMeters>591.20001220703125</AltitudeMeters>
            <DistanceMeters>31394.147121525</DistanceMeters>
          </Trackpoint>
          <Trackpoint>
            <Time>2019-05-08T08:42:12.000Z</Time>
            <Position>
              <LatitudeDegrees>42.959407232701778411865234375</LatitudeDegrees>
              <LongitudeDegrees>0.56751477532088756561279296875</LongitudeDegrees>
            </Position>
            <AltitudeMeters>591</AltitudeMeters>
            <DistanceMeters>31397.990714253</DistanceMeters>
          </Trackpoint>
          <Trackpoint>
            <Time>2019-05-08T08:42:14.000Z</Time>
            <Position>
              <LatitudeDegrees>42.959454171359539031982421875</LatitudeDegrees>
              <LongitudeDegrees>0.56745350360870361328125</LongitudeDegrees>
            </Position>
            <AltitudeMeters>590.79998779296875</AltitudeMeters>
            <DistanceMeters>31405.215244815</DistanceMeters>
          </Trackpoint>
          <Trackpoint>
            <Time>2019-05-08T08:42:18.000Z</Time>
            <Position>
              <LatitudeDegrees>42.9595089890062808990478515625</LatitudeDegrees>
              <LongitudeDegrees>0.56741352193057537078857421875</LongitudeDegrees>
            </Position>
            <AltitudeMeters>590.5999755859375</AltitudeMeters>
            <DistanceMeters>31412.13198863</DistanceMeters>
          </Trackpoint>
          <Trackpoint>
            <Time>2019-05-08T08:42:27.000Z</Time>
            <Position>
              <LatitudeDegrees>42.95950203202664852142333984375</LatitudeDegrees>
              <LongitudeDegrees>0.5673824250698089599609375</LongitudeDegrees>
            </Position>
            <AltitudeMeters>590.79998779296875</AltitudeMeters>
            <DistanceMeters>31414.78083166</DistanceMeters>
          </Trackpoint>
          <Trackpoint>
            <Time>2019-05-08T08:42:29.000Z</Time>
            <Position>
              <LatitudeDegrees>42.95947395265102386474609375</LatitudeDegrees>
              <LongitudeDegrees>0.56735820136964321136474609375</LongitudeDegrees>
            </Position>
            <AltitudeMeters>590.79998779296875</AltitudeMeters>
            <DistanceMeters>31418.477114341</DistanceMeters>
          </Trackpoint>
          <Trackpoint>
            <Time>2019-05-08T08:42:35.000Z</Time>
            <Position>
              <LatitudeDegrees>42.95936725102365016937255859375</LatitudeDegrees>
              <LongitudeDegrees>0.567370019853115081787109375</LongitudeDegrees>
            </Position>
            <AltitudeMeters>590.79998779296875</AltitudeMeters>
            <DistanceMeters>31430.392266957</DistanceMeters>
          </Trackpoint>
          <Trackpoint>
            <Time>2019-05-08T08:42:36.000Z</Time>
            <Position>
              <LatitudeDegrees>42.95936708338558673858642578125</LatitudeDegrees>
              <LongitudeDegrees>0.56736993603408336639404296875</LongitudeDegrees>
            </Position>
            <AltitudeMeters>590.79998779296875</AltitudeMeters>
            <DistanceMeters>31430.392266957</DistanceMeters>
          </Trackpoint>
          <Trackpoint>
            <Time>2019-05-08T08:54:28.000Z</Time>
            <Position>
              <LatitudeDegrees>42.9594020359218120574951171875</LatitudeDegrees>
              <LongitudeDegrees>0.56750589050352573394775390625</LongitudeDegrees>
            </Position>
            <AltitudeMeters>591</AltitudeMeters>
            <DistanceMeters>31442.129893476</DistanceMeters>
          </Trackpoint>
          <Trackpoint>
            <Time>2019-05-08T08:54:30.000Z</Time>
            <Position>
              <LatitudeDegrees>42.95943908393383026123046875</LatitudeDegrees>
              <LongitudeDegrees>0.56751376949250698089599609375</LongitudeDegrees>
            </Position>
            <AltitudeMeters>591.20001220703125</AltitudeMeters>
            <DistanceMeters>31446.30350312</DistanceMeters>
          </Trackpoint>
          <Trackpoint>
            <Time>2019-05-08T08:54:33.000Z</Time>
            <Position>
              <LatitudeDegrees>42.9594992659986019134521484375</LatitudeDegrees>
              <LongitudeDegrees>0.56746012531220912933349609375</LongitudeDegrees>
            </Position>
            <AltitudeMeters>591.4000244140625</AltitudeMeters>
            <DistanceMeters>31454.30044012</DistanceMeters>
          </Trackpoint>
          <Trackpoint>
            <Time>2019-05-08T08:54:34.000Z</Time>
            <Position>
              <LatitudeDegrees>42.95952198095619678497314453125</LatitudeDegrees>
              <LongitudeDegrees>0.5674426071345806121826171875</LongitudeDegrees>
            </Position>
            <AltitudeMeters>591.4000244140625</AltitudeMeters>
            <DistanceMeters>31457.201479803</DistanceMeters>
          </Trackpoint>
          <Trackpoint>
            <Time>2019-05-08T08:54:38.000Z</Time>
            <Position>
              <LatitudeDegrees>42.95960362069308757781982421875</LatitudeDegrees>
              <LongitudeDegrees>0.56736775673925876617431640625</LongitudeDegrees>
            </Position>
            <AltitudeMeters>591.4000244140625</AltitudeMeters>
            <DistanceMeters>31468.144002988</DistanceMeters>
          </Trackpoint>
          <Trackpoint>
            <Time>2019-05-08T08:54:41.000Z</Time>
            <Position>
              <LatitudeDegrees>42.95966044999659061431884765625</LatitudeDegrees>
              <LongitudeDegrees>0.56729734875261783599853515625</LongitudeDegrees>
            </Position>
            <AltitudeMeters>591.5999755859375</AltitudeMeters>
            <DistanceMeters>31476.682141376</DistanceMeters>
          </Trackpoint>
          <Trackpoint>
            <Time>2019-05-08T08:54:43.000Z</Time>
            <Position>
              <LatitudeDegrees>42.9596927203238010406494140625</LatitudeDegrees>
              <LongitudeDegrees>0.56725543923676013946533203125</LongitudeDegrees>
            </Position>
            <AltitudeMeters>591.5999755859375</AltitudeMeters>
            <DistanceMeters>31481.638128455</DistanceMeters>
          </Trackpoint>
          <Trackpoint>
            <Time>2019-05-08T08:54:46.000Z</Time>
            <Position>
              <LatitudeDegrees>42.959735132753849029541015625</LatitudeDegrees>
              <LongitudeDegrees>0.5671908147633075714111328125</LongitudeDegrees>
            </Position>
            <AltitudeMeters>592</AltitudeMeters>
            <DistanceMeters>31488.708524709</DistanceMeters>
          </Trackpoint>
          <Trackpoint>
            <Time>2019-05-08T08:54:48.000Z</Time>
            <Position>
              <LatitudeDegrees>42.959760613739490509033203125</LatitudeDegrees>
              <LongitudeDegrees>0.5671489052474498748779296875</LongitudeDegrees>
            </Position>
            <AltitudeMeters>592.4000244140625</AltitudeMeters>
            <DistanceMeters>31493.147401459</DistanceMeters>
          </Trackpoint>
          <Trackpoint>
            <Time>2019-05-08T08:54:52.000Z</Time>
            <Position>
              <LatitudeDegrees>42.959804199635982513427734375</LatitudeDegrees>
              <LongitudeDegrees>0.56705326773226261138916015625</LongitudeDegrees>
            </Position>
            <AltitudeMeters>593.20001220703125</AltitudeMeters>
            <DistanceMeters>31502.324738927</DistanceMeters>
          </Trackpoint>
          <Trackpoint>
            <Time>2019-05-08T08:54:56.000Z</Time>
            <Position>
              <LatitudeDegrees>42.959856502711772918701171875</LatitudeDegrees>
              <LongitudeDegrees>0.5669611506164073944091796875</LongitudeDegrees>
            </Position>
            <AltitudeMeters>594</AltitudeMeters>
            <DistanceMeters>31511.821231619</DistanceMeters>
          </Trackpoint>
          <Trackpoint>
            <Time>2019-05-08T08:55:01.000Z</Time>
            <Position>
              <LatitudeDegrees>42.959890700876712799072265625</LatitudeDegrees>
              <LongitudeDegrees>0.56683726608753204345703125</LongitudeDegrees>
            </Position>
            <AltitudeMeters>595</AltitudeMeters>
            <DistanceMeters>31522.606240412</DistanceMeters>
          </Trackpoint>
          <Trackpoint>
            <Time>2019-05-08T08:55:02.000Z</Time>
            <Position>
              <LatitudeDegrees>42.95989665202796459197998046875</LatitudeDegrees>
              <LongitudeDegrees>0.56681178510189056396484375</LongitudeDegrees>
            </Position>
            <AltitudeMeters>595</AltitudeMeters>
            <DistanceMeters>31524.785648637</DistanceMeters>
          </Trackpoint>
          <Trackpoint>
            <Time>2019-05-08T08:55:03.000Z</Time>
            <Position>
              <LatitudeDegrees>42.9599052853882312774658203125</LatitudeDegrees>
              <LongitudeDegrees>0.5667888186872005462646484375</LongitudeDegrees>
            </Position>
            <AltitudeMeters>595.20001220703125</AltitudeMeters>
            <DistanceMeters>31526.889154629</DistanceMeters>
          </Trackpoint>
          <Trackpoint>
            <Time>2019-05-08T08:55:07.000Z</Time>
            <Position>
              <LatitudeDegrees>42.9599485360085964202880859375</LatitudeDegrees>
              <LongitudeDegrees>0.566708855330944061279296875</LongitudeDegrees>
            </Position>
            <AltitudeMeters>596</AltitudeMeters>
            <DistanceMeters>31534.988196256</DistanceMeters>
          </Trackpoint>
          <Trackpoint>
            <Time>2019-05-08T08:55:10.000Z</Time>
            <Position>
              <LatitudeDegrees>42.95997560955584049224853515625</LatitudeDegrees>
              <LongitudeDegrees>0.5666419677436351776123046875</LongitudeDegrees>
            </Position>
            <AltitudeMeters>596.5999755859375</AltitudeMeters>
            <DistanceMeters>31541.213715359</DistanceMeters>
          </Trackpoint>
          <Trackpoint>
            <Time>2019-05-08T08:55:13.000Z</Time>
            <Position>
              <LatitudeDegrees>42.96001601032912731170654296875</LatitudeDegrees>
              <LongitudeDegrees>0.5665777623653411865234375</LongitudeDegrees>
            </Position>
            <AltitudeMeters>596.79998779296875</AltitudeMeters>
            <DistanceMeters>31548.110848293</DistanceMeters>
          </Trackpoint>
          <Trackpoint>
            <Time>2019-05-08T08:55:17.000Z</Time>
            <Position>
              <LatitudeDegrees>42.9600687325000762939453125</LatitudeDegrees>
              <LongitudeDegrees>0.56648832745850086212158203125</LongitudeDegrees>
            </Position>
            <AltitudeMeters>597.5999755859375</AltitudeMeters>
            <DistanceMeters>31557.46506877</DistanceMeters>
          </Trackpoint>
          <Trackpoint>
            <Time>2019-05-08T08:55:22.000Z</Time>
            <Position>
              <LatitudeDegrees>42.96014190651476383209228515625</LatitudeDegrees>
              <LongitudeDegrees>0.56637282483279705047607421875</LongitudeDegrees>
            </Position>
            <AltitudeMeters>598.4000244140625</AltitudeMeters>
            <DistanceMeters>31569.908852393</DistanceMeters>
          </Trackpoint>
          <Trackpoint>
            <Time>2019-05-08T08:55:23.000Z</Time>
            <Position>
              <LatitudeDegrees>42.96015565283596515655517578125</LatitudeDegrees>
              <LongitudeDegrees>0.5663502775132656097412109375</LongitudeDegrees>
            </Position>
            <AltitudeMeters>598.5999755859375</AltitudeMeters>
            <DistanceMeters>31572.297786949</DistanceMeters>
          </Trackpoint>
          <Trackpoint>
            <Time>2019-05-08T08:55:28.000Z</Time>
            <Position>
              <LatitudeDegrees>42.96023838222026824951171875</LatitudeDegrees>
              <LongitudeDegrees>0.56625765748322010040283203125</LongitudeDegrees>
            </Position>
            <AltitudeMeters>599.79998779296875</AltitudeMeters>
            <DistanceMeters>31584.201566163</DistanceMeters>
          </Trackpoint>
          <Trackpoint>
            <Time>2019-05-08T08:55:29.000Z</Time>
            <Position>
              <LatitudeDegrees>42.96025581657886505126953125</LatitudeDegrees>
              <LongitudeDegrees>0.566239468753337860107421875</LongitudeDegrees>
            </Position>
            <AltitudeMeters>599.79998779296875</AltitudeMeters>
            <DistanceMeters>31586.642846657</DistanceMeters>
          </Trackpoint>
          <Trackpoint>
            <Time>2019-05-08T08:55:35.000Z</Time>
            <Position>
              <LatitudeDegrees>42.96036176383495330810546875</LatitudeDegrees>
              <LongitudeDegrees>0.5661432445049285888671875</LongitudeDegrees>
            </Position>
            <AltitudeMeters>601</AltitudeMeters>
            <DistanceMeters>31600.802145976</DistanceMeters>
          </Trackpoint>
          <Trackpoint>
            <Time>2019-05-08T08:55:37.000Z</Time>
            <Position>
              <LatitudeDegrees>42.9603951238095760345458984375</LatitudeDegrees>
              <LongitudeDegrees>0.56613025255501270294189453125</LongitudeDegrees>
            </Position>
            <AltitudeMeters>601.20001220703125</AltitudeMeters>
            <DistanceMeters>31604.662149361</DistanceMeters>
          </Trackpoint>
          <Trackpoint>
            <Time>2019-05-08T08:55:44.000Z</Time>
            <Position>
              <LatitudeDegrees>42.96053208410739898681640625</LatitudeDegrees>
              <LongitudeDegrees>0.5661092139780521392822265625</LongitudeDegrees>
            </Position>
            <AltitudeMeters>602.5999755859375</AltitudeMeters>
            <DistanceMeters>31620.002416378</DistanceMeters>
          </Trackpoint>
          <Trackpoint>
            <Time>2019-05-08T08:55:46.000Z</Time>
            <Position>
              <LatitudeDegrees>42.9605711437761783599853515625</LatitudeDegrees>
              <LongitudeDegrees>0.56610426865518093109130859375</LongitudeDegrees>
            </Position>
            <AltitudeMeters>603</AltitudeMeters>
            <DistanceMeters>31624.368477689</DistanceMeters>
          </Trackpoint>
          <Trackpoint>
            <Time>2019-05-08T08:55:51.000Z</Time>
            <Position>
              <LatitudeDegrees>42.96067331917583942413330078125</LatitudeDegrees>
              <LongitudeDegrees>0.56603017263114452362060546875</LongitudeDegrees>
            </Position>
            <AltitudeMeters>603.4000244140625</AltitudeMeters>
            <DistanceMeters>31637.243107128</DistanceMeters>
          </Trackpoint>
          <Trackpoint>
            <Time>2019-05-08T08:55:55.000Z</Time>
            <Position>
              <LatitudeDegrees>42.96075613237917423248291015625</LatitudeDegrees>
              <LongitudeDegrees>0.56594802998006343841552734375</LongitudeDegrees>
            </Position>
            <AltitudeMeters>603.79998779296875</AltitudeMeters>
            <DistanceMeters>31648.632842779</DistanceMeters>
          </Trackpoint>
          <Trackpoint>
            <Time>2019-05-08T08:55:57.000Z</Time>
            <Position>
              <LatitudeDegrees>42.960783205926418304443359375</LatitudeDegrees>
              <LongitudeDegrees>0.56590385735034942626953125</LongitudeDegrees>
            </Position>
            <AltitudeMeters>604.20001220703125</AltitudeMeters>
            <DistanceMeters>31653.325854227</DistanceMeters>
          </Trackpoint>
          <Trackpoint>
            <Time>2019-05-08T08:55:59.000Z</Time>
            <Position>
              <LatitudeDegrees>42.96081296168267726898193359375</LatitudeDegrees>
              <LongitudeDegrees>0.5658701620995998382568359375</LongitudeDegrees>
            </Position>
            <AltitudeMeters>604.20001220703125</AltitudeMeters>
            <DistanceMeters>31657.627322189</DistanceMeters>
          </Trackpoint>
          <Trackpoint>
            <Time>2019-05-08T08:56:00.000Z</Time>
            <Position>
              <LatitudeDegrees>42.9608304798603057861328125</LatitudeDegrees>
              <LongitudeDegrees>0.56586354039609432220458984375</LongitudeDegrees>
            </Position>
            <AltitudeMeters>604.20001220703125</AltitudeMeters>
            <DistanceMeters>31659.652082596</DistanceMeters>
          </Trackpoint>
          <Trackpoint>
            <Time>2019-05-08T08:56:01.000Z</Time>
            <Position>
              <LatitudeDegrees>42.9608467407524585723876953125</LatitudeDegrees>
              <LongitudeDegrees>0.5658647976815700531005859375</LongitudeDegrees>
            </Position>
            <AltitudeMeters>604.5999755859375</AltitudeMeters>
            <DistanceMeters>31661.465076757</DistanceMeters>
          </Trackpoint>
          <Trackpoint>
            <Time>2019-05-08T08:56:02.000Z</Time>
            <Position>
              <LatitudeDegrees>42.9608635045588016510009765625</LatitudeDegrees>
              <LongitudeDegrees>0.56587058119475841522216796875</LongitudeDegrees>
            </Position>
            <AltitudeMeters>604.79998779296875</AltitudeMeters>
            <DistanceMeters>31663.389221071</DistanceMeters>
          </Trackpoint>
          <Trackpoint>
            <Time>2019-05-08T08:56:06.000Z</Time>
            <Position>
              <LatitudeDegrees>42.9609362594783306121826171875</LatitudeDegrees>
              <LongitudeDegrees>0.5658792145550251007080078125</LongitudeDegrees>
            </Position>
            <AltitudeMeters>605.5999755859375</AltitudeMeters>
            <DistanceMeters>31671.518310775</DistanceMeters>
          </Trackpoint>
          <Trackpoint>
            <Time>2019-05-08T08:56:08.000Z</Time>
            <Position>
              <LatitudeDegrees>42.960972301661968231201171875</LatitudeDegrees>
              <LongitudeDegrees>0.56588801555335521697998046875</LongitudeDegrees>
            </Position>
            <AltitudeMeters>605.79998779296875</AltitudeMeters>
            <DistanceMeters>31675.592286782</DistanceMeters>
          </Trackpoint>
          <Trackpoint>
            <Time>2019-05-08T08:56:14.000Z</Time>
            <Position>
              <LatitudeDegrees>42.9611484892666339874267578125</LatitudeDegrees>
              <LongitudeDegrees>0.56596127338707447052001953125</LongitudeDegrees>
            </Position>
            <AltitudeMeters>606</AltitudeMeters>
            <DistanceMeters>31696.089881684</DistanceMeters>
          </Trackpoint>
          <Trackpoint>
            <Time>2019-05-08T08:56:17.000Z</Time>
            <Position>
              <LatitudeDegrees>42.96125334687530994415283203125</LatitudeDegrees>
              <LongitudeDegrees>0.56602966971695423126220703125</LongitudeDegrees>
            </Position>
            <AltitudeMeters>606</AltitudeMeters>
            <DistanceMeters>31709.022245962</DistanceMeters>
          </Trackpoint>
          <Trackpoint>
            <Time>2019-05-08T08:56:20.000Z</Time>
            <Position>
              <LatitudeDegrees>42.96135552227497100830078125</LatitudeDegrees>
              <LongitudeDegrees>0.5661108903586864471435546875</LongitudeDegrees>
            </Position>
            <AltitudeMeters>605.79998779296875</AltitudeMeters>
            <DistanceMeters>31722.178556436</DistanceMeters>
          </Trackpoint>
          <Trackpoint>
            <Time>2019-05-08T08:56:21.000Z</Time>
            <Position>
              <LatitudeDegrees>42.9613895528018474578857421875</LatitudeDegrees>
              <LongitudeDegrees>0.56613511405885219573974609375</LongitudeDegrees>
            </Position>
            <AltitudeMeters>605.79998779296875</AltitudeMeters>
            <DistanceMeters>31726.449476058</DistanceMeters>
          </Trackpoint>
          <Trackpoint>
            <Time>2019-05-08T08:56:23.000Z</Time>
            <Position>
              <LatitudeDegrees>42.961462475359439849853515625</LatitudeDegrees>
              <LongitudeDegrees>0.56618289090692996978759765625</LongitudeDegrees>
            </Position>
            <AltitudeMeters>605.5999755859375</AltitudeMeters>
            <DistanceMeters>31735.45046744</DistanceMeters>
          </Trackpoint>
          <Trackpoint>
            <Time>2019-05-08T08:56:27.000Z</Time>
            <Position>
              <LatitudeDegrees>42.9616017825901508331298828125</LatitudeDegrees>
              <LongitudeDegrees>0.566321946680545806884765625</LongitudeDegrees>
            </Position>
            <AltitudeMeters>605.20001220703125</AltitudeMeters>
            <DistanceMeters>31754.651978349</DistanceMeters>
          </Trackpoint>
          <Trackpoint>
            <Time>2019-05-08T08:56:29.000Z</Time>
            <Position>
              <LatitudeDegrees>42.961650900542736053466796875</LatitudeDegrees>
              <LongitudeDegrees>0.56642278097569942474365234375</LongitudeDegrees>
            </Position>
            <AltitudeMeters>605</AltitudeMeters>
            <DistanceMeters>31764.518296004</DistanceMeters>
          </Trackpoint>
          <Trackpoint>
            <Time>2019-05-08T08:56:30.000Z</Time>
            <Position>
              <LatitudeDegrees>42.96167604625225067138671875</LatitudeDegrees>
              <LongitudeDegrees>0.56647575460374355316162109375</LongitudeDegrees>
            </Position>
            <AltitudeMeters>605</AltitudeMeters>
            <DistanceMeters>31769.662042108</DistanceMeters>
          </Trackpoint>
          <Trackpoint>
            <Time>2019-05-08T08:56:33.000Z</Time>
            <Position>
              <LatitudeDegrees>42.96176380477845668792724609375</LatitudeDegrees>
              <LongitudeDegrees>0.56664138101041316986083984375</LongitudeDegrees>
            </Position>
            <AltitudeMeters>604.79998779296875</AltitudeMeters>
            <DistanceMeters>31786.317219029</DistanceMeters>
          </Trackpoint>
          <Trackpoint>
            <Time>2019-05-08T08:56:34.000Z</Time>
            <Position>
              <LatitudeDegrees>42.96180319972336292266845703125</LatitudeDegrees>
              <LongitudeDegrees>0.5666952766478061676025390625</LongitudeDegrees>
            </Position>
            <AltitudeMeters>604.79998779296875</AltitudeMeters>
            <DistanceMeters>31792.521670325</DistanceMeters>
          </Trackpoint>
          <Trackpoint>
            <Time>2019-05-08T08:56:36.000Z</Time>
            <Position>
              <LatitudeDegrees>42.96189657412469387054443359375</LatitudeDegrees>
              <LongitudeDegrees>0.56680030189454555511474609375</LongitudeDegrees>
            </Position>
            <AltitudeMeters>604.5999755859375</AltitudeMeters>
            <DistanceMeters>31805.982297496</DistanceMeters>
          </Trackpoint>
          <Trackpoint>
            <Time>2019-05-08T08:56:37.000Z</Time>
            <Position>
              <LatitudeDegrees>42.96195038594305515289306640625</LatitudeDegrees>
              <LongitudeDegrees>0.566845647990703582763671875</LongitudeDegrees>
            </Position>
            <AltitudeMeters>604.4000244140625</AltitudeMeters>
            <DistanceMeters>31813.019409064</DistanceMeters>
          </Trackpoint>
          <Trackpoint>
            <Time>2019-05-08T08:56:38.000Z</Time>
            <Position>
              <LatitudeDegrees>42.96200889162719249725341796875</LatitudeDegrees>
              <LongitudeDegrees>0.566883198916912078857421875</LongitudeDegrees>
            </Position>
            <AltitudeMeters>604.20001220703125</AltitudeMeters>
            <DistanceMeters>31820.213879036</DistanceMeters>
          </Trackpoint>
          <Trackpoint>
            <Time>2019-05-08T08:56:40.000Z</Time>
            <Position>
              <LatitudeDegrees>42.96213512308895587921142578125</LatitudeDegrees>
              <LongitudeDegrees>0.566952265799045562744140625</LongitudeDegrees>
            </Position>
            <AltitudeMeters>603.79998779296875</AltitudeMeters>
            <DistanceMeters>31835.347908867</DistanceMeters>
          </Trackpoint>
          <Trackpoint>
            <Time>2019-05-08T08:56:43.000Z</Time>
            <Position>
              <LatitudeDegrees>42.96233226545155048370361328125</LatitudeDegrees>
              <LongitudeDegrees>0.5670674331486225128173828125</LongitudeDegrees>
            </Position>
            <AltitudeMeters>602.79998779296875</AltitudeMeters>
            <DistanceMeters>31859.211347655</DistanceMeters>
          </Trackpoint>
          <Trackpoint>
            <Time>2019-05-08T08:56:45.000Z</Time>
            <Position>
              <LatitudeDegrees>42.96247475780546665191650390625</LatitudeDegrees>
              <LongitudeDegrees>0.567146725952625274658203125</LongitudeDegrees>
            </Position>
            <AltitudeMeters>602</AltitudeMeters>
            <DistanceMeters>31876.335414706</DistanceMeters>
          </Trackpoint>
          <Trackpoint>
            <Time>2019-05-08T08:56:46.000Z</Time>
            <Position>
              <LatitudeDegrees>42.96254969201982021331787109375</LatitudeDegrees>
              <LongitudeDegrees>0.567186288535594940185546875</LongitudeDegrees>
            </Position>
            <AltitudeMeters>601.5999755859375</AltitudeMeters>
            <DistanceMeters>31885.276009579</DistanceMeters>
          </Trackpoint>
          <Trackpoint>
            <Time>2019-05-08T08:56:48.000Z</Time>
            <Position>
              <LatitudeDegrees>42.9626994766294956207275390625</LatitudeDegrees>
              <LongitudeDegrees>0.5672816745936870574951171875</LongitudeDegrees>
            </Position>
            <AltitudeMeters>601</AltitudeMeters>
            <DistanceMeters>31903.668527725</DistanceMeters>
          </Trackpoint>
          <Trackpoint>
            <Time>2019-05-08T08:56:50.000Z</Time>
            <Position>
              <LatitudeDegrees>42.96284657903015613555908203125</LatitudeDegrees>
              <LongitudeDegrees>0.5673953332006931304931640625</LongitudeDegrees>
            </Position>
            <AltitudeMeters>600.79998779296875</AltitudeMeters>
            <DistanceMeters>31922.47733696</DistanceMeters>
          </Trackpoint>
          <Trackpoint>
            <Time>2019-05-08T08:56:55.000Z</Time>
            <Position>
              <LatitudeDegrees>42.96319912187755107879638671875</LatitudeDegrees>
              <LongitudeDegrees>0.567663721740245819091796875</LongitudeDegrees>
            </Position>
            <AltitudeMeters>598.4000244140625</AltitudeMeters>
            <DistanceMeters>31967.39452587</DistanceMeters>
          </Trackpoint>
          <Trackpoint>
            <Time>2019-05-08T08:56:56.000Z</Time>
            <Position>
              <LatitudeDegrees>42.96326349489390850067138671875</LatitudeDegrees>
              <LongitudeDegrees>0.56771242059767246246337890625</LongitudeDegrees>
            </Position>
            <AltitudeMeters>598.4000244140625</AltitudeMeters>
            <DistanceMeters>31975.584483612</DistanceMeters>
          </Trackpoint>
          <Trackpoint>
            <Time>2019-05-08T08:56:57.000Z</Time>
            <Position>
              <LatitudeDegrees>42.96332417987287044525146484375</LatitudeDegrees>
              <LongitudeDegrees>0.5677621252834796905517578125</LongitudeDegrees>
            </Position>
            <AltitudeMeters>597.5999755859375</AltitudeMeters>
            <DistanceMeters>31983.458523545</DistanceMeters>
          </Trackpoint>
          <Trackpoint>
            <Time>2019-05-08T08:56:58.000Z</Time>
            <Position>
              <LatitudeDegrees>42.9633790813386440277099609375</LatitudeDegrees>
              <LongitudeDegrees>0.56781652383506298065185546875</LongitudeDegrees>
            </Position>
            <AltitudeMeters>597.20001220703125</AltitudeMeters>
            <DistanceMeters>31991.005822546</DistanceMeters>
          </Trackpoint>
          <Trackpoint>
            <Time>2019-05-08T08:56:59.000Z</Time>
            <Position>
              <LatitudeDegrees>42.9634287022054195404052734375</LatitudeDegrees>
              <LongitudeDegrees>0.56787393987178802490234375</LongitudeDegrees>
            </Position>
            <AltitudeMeters>597</AltitudeMeters>
            <DistanceMeters>31998.242841502</DistanceMeters>
          </Trackpoint>
          <Trackpoint>
            <Time>2019-05-08T08:57:00.000Z</Time>
            <Position>
              <LatitudeDegrees>42.96347312629222869873046875</LatitudeDegrees>
              <LongitudeDegrees>0.56793403811752796173095703125</LongitudeDegrees>
            </Position>
            <AltitudeMeters>597.20001220703125</AltitudeMeters>
            <DistanceMeters>32005.199939298</DistanceMeters>
          </Trackpoint>
          <Trackpoint>
            <Time>2019-05-08T08:57:01.000Z</Time>
            <Position>
              <LatitudeDegrees>42.96351159922778606414794921875</LatitudeDegrees>
              <LongitudeDegrees>0.56799690239131450653076171875</LongitudeDegrees>
            </Position>
            <AltitudeMeters>597</AltitudeMeters>
            <DistanceMeters>32011.876200028</DistanceMeters>
          </Trackpoint>
          <Trackpoint>
            <Time>2019-05-08T08:57:03.000Z</Time>
            <Position>
              <LatitudeDegrees>42.963580749928951263427734375</LatitudeDegrees>
              <LongitudeDegrees>0.56812531314790248870849609375</LongitudeDegrees>
            </Position>
            <AltitudeMeters>597</AltitudeMeters>
            <DistanceMeters>32024.861870881</DistanceMeters>
          </Trackpoint>
          <Trackpoint>
            <Time>2019-05-08T08:57:04.000Z</Time>
            <Position>
              <LatitudeDegrees>42.96362022869288921356201171875</LatitudeDegrees>
              <LongitudeDegrees>0.56818080134689807891845703125</LongitudeDegrees>
            </Position>
            <AltitudeMeters>597</AltitudeMeters>
            <DistanceMeters>32031.165230014</DistanceMeters>
          </Trackpoint>
          <Trackpoint>
            <Time>2019-05-08T08:57:06.000Z</Time>
            <Position>
              <LatitudeDegrees>42.9636950790882110595703125</LatitudeDegrees>
              <LongitudeDegrees>0.5682831443846225738525390625</LongitudeDegrees>
            </Position>
            <AltitudeMeters>597</AltitudeMeters>
            <DistanceMeters>32042.950841405</DistanceMeters>
          </Trackpoint>
          <Trackpoint>
            <Time>2019-05-08T08:57:08.000Z</Time>
            <Position>
              <LatitudeDegrees>42.9637690074741840362548828125</LatitudeDegrees>
              <LongitudeDegrees>0.56837760843336582183837890625</LongitudeDegrees>
            </Position>
            <AltitudeMeters>597.4000244140625</AltitudeMeters>
            <DistanceMeters>32054.216618094</DistanceMeters>
          </Trackpoint>
          <Trackpoint>
            <Time>2019-05-08T08:57:09.000Z</Time>
            <Position>
              <LatitudeDegrees>42.963803373277187347412109375</LatitudeDegrees>
              <LongitudeDegrees>0.56842337362468242645263671875</LongitudeDegrees>
            </Position>
            <AltitudeMeters>597.79998779296875</AltitudeMeters>
            <DistanceMeters>32059.558438155</DistanceMeters>
          </Trackpoint>
          <Trackpoint>
            <Time>2019-05-08T08:57:11.000Z</Time>
            <Position>
              <LatitudeDegrees>42.96387143433094024658203125</LatitudeDegrees>
              <LongitudeDegrees>0.56848707608878612518310546875</LongitudeDegrees>
            </Position>
            <AltitudeMeters>598.20001220703125</AltitudeMeters>
            <DistanceMeters>32068.740202347</DistanceMeters>
          </Trackpoint>
          <Trackpoint>
            <Time>2019-05-08T08:57:13.000Z</Time>
            <Position>
              <LatitudeDegrees>42.9639416746795177459716796875</LatitudeDegrees>
              <LongitudeDegrees>0.5685225315392017364501953125</LongitudeDegrees>
            </Position>
            <AltitudeMeters>598.79998779296875</AltitudeMeters>
            <DistanceMeters>32077.074429846</DistanceMeters>
          </Trackpoint>
          <Trackpoint>
            <Time>2019-05-08T08:57:16.000Z</Time>
            <Position>
              <LatitudeDegrees>42.96401895582675933837890625</LatitudeDegrees>
              <LongitudeDegrees>0.56857089512050151824951171875</LongitudeDegrees>
            </Position>
            <AltitudeMeters>599.79998779296875</AltitudeMeters>
            <DistanceMeters>32086.534719886</DistanceMeters>
          </Trackpoint>
          <Trackpoint>
            <Time>2019-05-08T08:57:19.000Z</Time>
            <Position>
              <LatitudeDegrees>42.96408542431890964508056640625</LatitudeDegrees>
              <LongitudeDegrees>0.56861330755054950714111328125</LongitudeDegrees>
            </Position>
            <AltitudeMeters>601.5999755859375</AltitudeMeters>
            <DistanceMeters>32094.699278926</DistanceMeters>
          </Trackpoint>
          <Trackpoint>
            <Time>2019-05-08T08:57:22.000Z</Time>
            <Position>
              <LatitudeDegrees>42.9641565866768360137939453125</LatitudeDegrees>
              <LongitudeDegrees>0.56866812519729137420654296875</LongitudeDegrees>
            </Position>
            <AltitudeMeters>601.79998779296875</AltitudeMeters>
            <DistanceMeters>32103.791106012</DistanceMeters>
          </Trackpoint>
          <Trackpoint>
            <Time>2019-05-08T08:57:26.000Z</Time>
            <Position>
              <LatitudeDegrees>42.96422171406447887420654296875</LatitudeDegrees>
              <LongitudeDegrees>0.5687637627124786376953125</LongitudeDegrees>
            </Position>
            <AltitudeMeters>601.79998779296875</AltitudeMeters>
            <DistanceMeters>32114.431552358</DistanceMeters>
          </Trackpoint>
          <Trackpoint>
            <Time>2019-05-08T08:57:28.000Z</Time>
            <Position>
              <LatitudeDegrees>42.9642449319362640380859375</LatitudeDegrees>
              <LongitudeDegrees>0.5688081867992877960205078125</LongitudeDegrees>
            </Position>
            <AltitudeMeters>601.5999755859375</AltitudeMeters>
            <DistanceMeters>32118.878558926</DistanceMeters>
          </Trackpoint>
          <Trackpoint>
            <Time>2019-05-08T08:57:30.000Z</Time>
            <Position>
              <LatitudeDegrees>42.96426706016063690185546875</LatitudeDegrees>
              <LongitudeDegrees>0.56884012185037136077880859375</LongitudeDegrees>
            </Position>
            <AltitudeMeters>601.4000244140625</AltitudeMeters>
            <DistanceMeters>32122.4594399</DistanceMeters>
          </Trackpoint>
          <Trackpoint>
            <Time>2019-05-08T08:57:33.000Z</Time>
            <Position>
              <LatitudeDegrees>42.96429924666881561279296875</LatitudeDegrees>
              <LongitudeDegrees>0.56888781487941741943359375</LongitudeDegrees>
            </Position>
            <AltitudeMeters>601.4000244140625</AltitudeMeters>
            <DistanceMeters>32127.743472107</DistanceMeters>
          </Trackpoint>
          <Trackpoint>
            <Time>2019-05-08T08:57:34.000Z</Time>
            <Position>
              <LatitudeDegrees>42.9643146693706512451171875</LatitudeDegrees>
              <LongitudeDegrees>0.568900220096111297607421875</LongitudeDegrees>
            </Position>
            <AltitudeMeters>601.4000244140625</AltitudeMeters>
            <DistanceMeters>32129.736769284</DistanceMeters>
          </Trackpoint>
          <Trackpoint>
            <Time>2019-05-08T08:57:35.000Z</Time>
            <Position>
              <LatitudeDegrees>42.96432581730186939239501953125</LatitudeDegrees>
              <LongitudeDegrees>0.56891824118793010711669921875</LongitudeDegrees>
            </Position>
            <AltitudeMeters>601.4000244140625</AltitudeMeters>
            <DistanceMeters>32131.660913598</DistanceMeters>
          </Trackpoint>
          <Trackpoint>
            <Time>2019-05-08T08:57:37.000Z</Time>
            <Position>
              <LatitudeDegrees>42.9643228836357593536376953125</LatitudeDegrees>
              <LongitudeDegrees>0.56893986649811267852783203125</LongitudeDegrees>
            </Position>
            <AltitudeMeters>601.20001220703125</AltitudeMeters>
            <DistanceMeters>32133.453874059</DistanceMeters>
          </Trackpoint>
          <Trackpoint>
            <Time>2019-05-08T08:57:41.000Z</Time>
            <Position>
              <LatitudeDegrees>42.96428223140537738800048828125</LatitudeDegrees>
              <LongitudeDegrees>0.5688752420246601104736328125</LongitudeDegrees>
            </Position>
            <AltitudeMeters>601</AltitudeMeters>
            <DistanceMeters>32140.395378788</DistanceMeters>
          </Trackpoint>
          <Trackpoint>
            <Time>2019-05-08T08:57:45.000Z</Time>
            <Position>
              <LatitudeDegrees>42.96421953476965427398681640625</LatitudeDegrees>
              <LongitudeDegrees>0.56876066140830516815185546875</LongitudeDegrees>
            </Position>
            <AltitudeMeters>601</AltitudeMeters>
            <DistanceMeters>32152.048459478</DistanceMeters>
          </Trackpoint>
          <Trackpoint>
            <Time>2019-05-08T08:57:48.000Z</Time>
            <Position>
              <LatitudeDegrees>42.96415734104812145233154296875</LatitudeDegrees>
              <LongitudeDegrees>0.568690001964569091796875</LongitudeDegrees>
            </Position>
            <AltitudeMeters>601.20001220703125</AltitudeMeters>
            <DistanceMeters>32161.050454035</DistanceMeters>
          </Trackpoint>
          <Trackpoint>
            <Time>2019-05-08T08:57:52.000Z</Time>
            <Position>
              <LatitudeDegrees>42.96407218091189861297607421875</LatitudeDegrees>
              <LongitudeDegrees>0.56862252764403820037841796875</LongitudeDegrees>
            </Position>
            <AltitudeMeters>601.20001220703125</AltitudeMeters>
            <DistanceMeters>32172.006997114</DistanceMeters>
          </Trackpoint>
          <Trackpoint>
            <Time>2019-05-08T08:57:56.000Z</Time>
            <Position>
              <LatitudeDegrees>42.96400713734328746795654296875</LatitudeDegrees>
              <LongitudeDegrees>0.56857240386307239532470703125</LongitudeDegrees>
            </Position>
            <AltitudeMeters>601.20001220703125</AltitudeMeters>
            <DistanceMeters>32180.318440118</DistanceMeters>
          </Trackpoint>
          <Trackpoint>
            <Time>2019-05-08T08:58:02.000Z</Time>
            <Position>
              <LatitudeDegrees>42.963891215622425079345703125</LatitudeDegrees>
              <LongitudeDegrees>0.56852948851883411407470703125</LongitudeDegrees>
            </Position>
            <AltitudeMeters>601.5999755859375</AltitudeMeters>
            <DistanceMeters>32193.685831511</DistanceMeters>
          </Trackpoint>
          <Trackpoint>
            <Time>2019-05-08T08:58:08.000Z</Time>
            <Position>
              <LatitudeDegrees>42.96378619037568569183349609375</LatitudeDegrees>
              <LongitudeDegrees>0.56842647492885589599609375</LongitudeDegrees>
            </Position>
            <AltitudeMeters>602.20001220703125</AltitudeMeters>
            <DistanceMeters>32208.074771455</DistanceMeters>
          </Trackpoint>
          <Trackpoint>
            <Time>2019-05-08T08:58:09.000Z</Time>
            <Position>
              <LatitudeDegrees>42.9637847654521465301513671875</LatitudeDegrees>
              <LongitudeDegrees>0.5684031732380390167236328125</LongitudeDegrees>
            </Position>
            <AltitudeMeters>602.20001220703125</AltitudeMeters>
            <DistanceMeters>32209.980051154</DistanceMeters>
          </Trackpoint>
          <Trackpoint>
            <Time>2019-05-08T08:58:11.000Z</Time>
            <Position>
              <LatitudeDegrees>42.96380463056266307830810546875</LatitudeDegrees>
              <LongitudeDegrees>0.5683743394911289215087890625</LongitudeDegrees>
            </Position>
            <AltitudeMeters>602.20001220703125</AltitudeMeters>
            <DistanceMeters>32213.206764364</DistanceMeters>
          </Trackpoint>
          <Trackpoint>
            <Time>2019-05-08T08:58:12.000Z</Time>
            <Position>
              <LatitudeDegrees>42.963822819292545318603515625</LatitudeDegrees>
              <LongitudeDegrees>0.56836989708244800567626953125</LongitudeDegrees>
            </Position>
            <AltitudeMeters>602.20001220703125</AltitudeMeters>
            <DistanceMeters>32215.264701645</DistanceMeters>
          </Trackpoint>
          <Trackpoint>
            <Time>2019-05-08T08:58:15.000Z</Time>
            <Position>
              <LatitudeDegrees>42.9638752900063991546630859375</LatitudeDegrees>
              <LongitudeDegrees>0.56837257929146289825439453125</LongitudeDegrees>
            </Position>
            <AltitudeMeters>602.4000244140625</AltitudeMeters>
            <DistanceMeters>32221.108651432</DistanceMeters>
          </Trackpoint>
          <Trackpoint>
            <Time>2019-05-08T08:58:17.000Z</Time>
            <Position>
              <LatitudeDegrees>42.9639027826488018035888671875</LatitudeDegrees>
              <LongitudeDegrees>0.56837760843336582183837890625</LongitudeDegrees>
            </Position>
            <AltitudeMeters>602.4000244140625</AltitudeMeters>
            <DistanceMeters>32224.19665414</DistanceMeters>
          </Trackpoint>
          <Trackpoint>
            <Time>2019-05-08T08:58:18.000Z</Time>
            <Position>
              <LatitudeDegrees>42.96391778625547885894775390625</LatitudeDegrees>
              <LongitudeDegrees>0.56838079355657100677490234375</LongitudeDegrees>
            </Position>
            <AltitudeMeters>602.4000244140625</AltitudeMeters>
            <DistanceMeters>32225.885885964</DistanceMeters>
          </Trackpoint>
          <Trackpoint>
            <Time>2019-05-08T08:58:20.000Z</Time>
            <Position>
              <LatitudeDegrees>42.96394787728786468505859375</LatitudeDegrees>
              <LongitudeDegrees>0.56838129647076129913330078125</LongitudeDegrees>
            </Position>
            <AltitudeMeters>602.4000244140625</AltitudeMeters>
            <DistanceMeters>32229.234819368</DistanceMeters>
          </Trackpoint>
          <Trackpoint>
            <Time>2019-05-08T08:58:22.000Z</Time>
            <Position>
              <LatitudeDegrees>42.9639792256057262420654296875</LatitudeDegrees>
              <LongitudeDegrees>0.5683783628046512603759765625</LongitudeDegrees>
            </Position>
            <AltitudeMeters>602.79998779296875</AltitudeMeters>
            <DistanceMeters>32232.731492573</DistanceMeters>
          </Trackpoint>
          <Trackpoint>
            <Time>2019-05-08T08:58:24.000Z</Time>
            <Position>
              <LatitudeDegrees>42.96401090919971466064453125</LatitudeDegrees>
              <LongitudeDegrees>0.56837392039597034454345703125</LongitudeDegrees>
            </Position>
            <AltitudeMeters>603.4000244140625</AltitudeMeters>
            <DistanceMeters>32236.276893314</DistanceMeters>
          </Trackpoint>
          <Trackpoint>
            <Time>2019-05-08T08:58:27.000Z</Time>
            <Position>
              <LatitudeDegrees>42.964057512581348419189453125</LatitudeDegrees>
              <LongitudeDegrees>0.56836855597794055938720703125</LongitudeDegrees>
            </Position>
            <AltitudeMeters>603.79998779296875</AltitudeMeters>
            <DistanceMeters>32241.482588215</DistanceMeters>
          </Trackpoint>
          <Trackpoint>
            <Time>2019-05-08T08:58:32.000Z</Time>
            <Position>
              <LatitudeDegrees>42.964148037135601043701171875</LatitudeDegrees>
              <LongitudeDegrees>0.56835279799997806549072265625</LongitudeDegrees>
            </Position>
            <AltitudeMeters>605.5999755859375</AltitudeMeters>
            <DistanceMeters>32251.63978386</DistanceMeters>
          </Trackpoint>
          <Trackpoint>
            <Time>2019-05-08T08:58:36.000Z</Time>
            <Position>
              <LatitudeDegrees>42.9642132483422756195068359375</LatitudeDegrees>
              <LongitudeDegrees>0.568352378904819488525390625</LongitudeDegrees>
            </Position>
            <AltitudeMeters>606.5999755859375</AltitudeMeters>
            <DistanceMeters>32258.897983773</DistanceMeters>
          </Trackpoint>
          <Trackpoint>
            <Time>2019-05-08T08:58:37.000Z</Time>
            <Position>
              <LatitudeDegrees>42.96422758139669895172119140625</LatitudeDegrees>
              <LongitudeDegrees>0.56835799477994441986083984375</LongitudeDegrees>
            </Position>
            <AltitudeMeters>607</AltitudeMeters>
            <DistanceMeters>32260.557553993</DistanceMeters>
          </Trackpoint>
          <Trackpoint>
            <Time>2019-05-08T08:58:41.000Z</Time>
            <Position>
              <LatitudeDegrees>42.96428441070020198822021484375</LatitudeDegrees>
              <LongitudeDegrees>0.56838112883269786834716796875</LongitudeDegrees>
            </Position>
            <AltitudeMeters>607.5999755859375</AltitudeMeters>
            <DistanceMeters>32267.156268157</DistanceMeters>
          </Trackpoint>
          <Trackpoint>
            <Time>2019-05-08T08:58:42.000Z</Time>
            <Position>
              <LatitudeDegrees>42.96429815702140331268310546875</LatitudeDegrees>
              <LongitudeDegrees>0.56840057484805583953857421875</LongitudeDegrees>
            </Position>
            <AltitudeMeters>607.79998779296875</AltitudeMeters>
            <DistanceMeters>32269.356295651</DistanceMeters>
          </Trackpoint>
          <Trackpoint>
            <Time>2019-05-08T08:58:47.000Z</Time>
            <Position>
              <LatitudeDegrees>42.964376695454120635986328125</LatitudeDegrees>
              <LongitudeDegrees>0.5684849806129932403564453125</LongitudeDegrees>
            </Position>
            <AltitudeMeters>608.79998779296875</AltitudeMeters>
            <DistanceMeters>32280.477263548</DistanceMeters>
          </Trackpoint>
          <Trackpoint>
            <Time>2019-05-08T08:58:49.000Z</Time>
            <Position>
              <LatitudeDegrees>42.96441047452390193939208984375</LatitudeDegrees>
              <LongitudeDegrees>0.56851632893085479736328125</LongitudeDegrees>
            </Position>
            <AltitudeMeters>609.20001220703125</AltitudeMeters>
            <DistanceMeters>32285.02268046</DistanceMeters>
          </Trackpoint>
          <Trackpoint>
            <Time>2019-05-08T08:58:52.000Z</Time>
            <Position>
              <LatitudeDegrees>42.96446017920970916748046875</LatitudeDegrees>
              <LongitudeDegrees>0.56856603361666202545166015625</LongitudeDegrees>
            </Position>
            <AltitudeMeters>609.4000244140625</AltitudeMeters>
            <DistanceMeters>32291.877789344</DistanceMeters>
          </Trackpoint>
          <Trackpoint>
            <Time>2019-05-08T08:58:56.000Z</Time>
            <Position>
              <LatitudeDegrees>42.964524216949939727783203125</LatitudeDegrees>
              <LongitudeDegrees>0.56862571276724338531494140625</LongitudeDegrees>
            </Position>
            <AltitudeMeters>609.79998779296875</AltitudeMeters>
            <DistanceMeters>32300.504310079</DistanceMeters>
          </Trackpoint>
          <Trackpoint>
            <Time>2019-05-08T08:59:00.000Z</Time>
            <Position>
              <LatitudeDegrees>42.96464717946946620941162109375</LatitudeDegrees>
              <LongitudeDegrees>0.56871858425438404083251953125</LongitudeDegrees>
            </Position>
            <AltitudeMeters>609.5999755859375</AltitudeMeters>
            <DistanceMeters>32316.141619311</DistanceMeters>
          </Trackpoint>
          <Trackpoint>
            <Time>2019-05-08T08:59:05.000Z</Time>
            <Position>
              <LatitudeDegrees>42.964803837239742279052734375</LatitudeDegrees>
              <LongitudeDegrees>0.56880760006606578826904296875</LongitudeDegrees>
            </Position>
            <AltitudeMeters>609.79998779296875</AltitudeMeters>
            <DistanceMeters>32335.02517535</DistanceMeters>
          </Trackpoint>
          <Trackpoint>
            <Time>2019-05-08T08:59:08.000Z</Time>
            <Position>
              <LatitudeDegrees>42.96487600542604923248291015625</LatitudeDegrees>
              <LongitudeDegrees>0.56884213350713253021240234375</LongitudeDegrees>
            </Position>
            <AltitudeMeters>609.5999755859375</AltitudeMeters>
            <DistanceMeters>32343.535240748</DistanceMeters>
          </Trackpoint>
          <Trackpoint>
            <Time>2019-05-08T08:59:10.000Z</Time>
            <Position>
              <LatitudeDegrees>42.96493736095726490020751953125</LatitudeDegrees>
              <LongitudeDegrees>0.56887314654886722564697265625</LongitudeDegrees>
            </Position>
            <AltitudeMeters>609.5999755859375</AltitudeMeters>
            <DistanceMeters>32350.815800392</DistanceMeters>
          </Trackpoint>
          <Trackpoint>
            <Time>2019-05-08T08:59:11.000Z</Time>
            <Position>
              <LatitudeDegrees>42.964973151683807373046875</LatitudeDegrees>
              <LongitudeDegrees>0.568892173469066619873046875</LongitudeDegrees>
            </Position>
            <AltitudeMeters>609.4000244140625</AltitudeMeters>
            <DistanceMeters>32355.089890312</DistanceMeters>
          </Trackpoint>
          <Trackpoint>
            <Time>2019-05-08T08:59:15.000Z</Time>
            <Position>
              <LatitudeDegrees>42.9651553742587566375732421875</LatitudeDegrees>
              <LongitudeDegrees>0.56901765055954456329345703125</LongitudeDegrees>
            </Position>
            <AltitudeMeters>609.20001220703125</AltitudeMeters>
            <DistanceMeters>32377.800877442</DistanceMeters>
          </Trackpoint>
          <Trackpoint>
            <Time>2019-05-08T08:59:16.000Z</Time>
            <Position>
              <LatitudeDegrees>42.965200804173946380615234375</LatitudeDegrees>
              <LongitudeDegrees>0.5690596438944339752197265625</LongitudeDegrees>
            </Position>
            <AltitudeMeters>609</AltitudeMeters>
            <DistanceMeters>32383.904818415</DistanceMeters>
          </Trackpoint>
          <Trackpoint>
            <Time>2019-05-08T08:59:20.000Z</Time>
            <Position>
              <LatitudeDegrees>42.96535964123904705047607421875</LatitudeDegrees>
              <LongitudeDegrees>0.56922602467238903045654296875</LongitudeDegrees>
            </Position>
            <AltitudeMeters>608.79998779296875</AltitudeMeters>
            <DistanceMeters>32406.180020781</DistanceMeters>
          </Trackpoint>
          <Trackpoint>
            <Time>2019-05-08T08:59:23.000Z</Time>
            <Position>
              <LatitudeDegrees>42.96544664539396762847900390625</LatitudeDegrees>
              <LongitudeDegrees>0.56932643987238407135009765625</LongitudeDegrees>
            </Position>
            <AltitudeMeters>608.20001220703125</AltitudeMeters>
            <DistanceMeters>32418.855316442</DistanceMeters>
          </Trackpoint>
          <Trackpoint>
            <Time>2019-05-08T08:59:25.000Z</Time>
            <Position>
              <LatitudeDegrees>42.96549827791750431060791015625</LatitudeDegrees>
              <LongitudeDegrees>0.56937069632112979888916015625</LongitudeDegrees>
            </Position>
            <AltitudeMeters>608.20001220703125</AltitudeMeters>
            <DistanceMeters>32425.638919435</DistanceMeters>
          </Trackpoint>
          <Trackpoint>
            <Time>2019-05-08T08:59:28.000Z</Time>
            <Position>
              <LatitudeDegrees>42.965601123869419097900390625</LatitudeDegrees>
              <LongitudeDegrees>0.56944579817354679107666015625</LongitudeDegrees>
            </Position>
            <AltitudeMeters>608</AltitudeMeters>
            <DistanceMeters>32438.617982423</DistanceMeters>
          </Trackpoint>
          <Trackpoint>
            <Time>2019-05-08T08:59:30.000Z</Time>
            <Position>
              <LatitudeDegrees>42.96566524542868137359619140625</LatitudeDegrees>
              <LongitudeDegrees>0.5694971792399883270263671875</LongitudeDegrees>
            </Position>
            <AltitudeMeters>607.79998779296875</AltitudeMeters>
            <DistanceMeters>32446.891311828</DistanceMeters>
          </Trackpoint>
          <Trackpoint>
            <Time>2019-05-08T08:59:32.000Z</Time>
            <Position>
              <LatitudeDegrees>42.96572911553084850311279296875</LatitudeDegrees>
              <LongitudeDegrees>0.56957286782562732696533203125</LongitudeDegrees>
            </Position>
            <AltitudeMeters>607.79998779296875</AltitudeMeters>
            <DistanceMeters>32456.30039624</DistanceMeters>
          </Trackpoint>
          <Trackpoint>
            <Time>2019-05-08T08:59:33.000Z</Time>
            <Position>
              <LatitudeDegrees>42.9657657444477081298828125</LatitudeDegrees>
              <LongitudeDegrees>0.56962366215884685516357421875</LongitudeDegrees>
            </Position>
            <AltitudeMeters>607.79998779296875</AltitudeMeters>
            <DistanceMeters>32462.109474968</DistanceMeters>
          </Trackpoint>
          <Trackpoint>
            <Time>2019-05-08T08:59:34.000Z</Time>
            <Position>
              <LatitudeDegrees>42.96580622904002666473388671875</LatitudeDegrees>
              <LongitudeDegrees>0.56968350894749164581298828125</LongitudeDegrees>
            </Position>
            <AltitudeMeters>607.79998779296875</AltitudeMeters>
            <DistanceMeters>32468.747755848</DistanceMeters>
          </Trackpoint>
          <Trackpoint>
            <Time>2019-05-08T08:59:35.000Z</Time>
            <Position>
              <LatitudeDegrees>42.96585517935454845428466796875</LatitudeDegrees>
              <LongitudeDegrees>0.56974285282194614410400390625</LongitudeDegrees>
            </Position>
            <AltitudeMeters>607.5999755859375</AltitudeMeters>
            <DistanceMeters>32476.030795669</DistanceMeters>
          </Trackpoint>
          <Trackpoint>
            <Time>2019-05-08T08:59:37.000Z</Time>
            <Position>
              <LatitudeDegrees>42.965959198772907257080078125</LatitudeDegrees>
              <LongitudeDegrees>0.56985802017152309417724609375</LongitudeDegrees>
            </Position>
            <AltitudeMeters>607.5999755859375</AltitudeMeters>
            <DistanceMeters>32490.931517786</DistanceMeters>
          </Trackpoint>
          <Trackpoint>
            <Time>2019-05-08T08:59:38.000Z</Time>
            <Position>
              <LatitudeDegrees>42.96601225621998310089111328125</LatitudeDegrees>
              <LongitudeDegrees>0.569914095103740692138671875</LongitudeDegrees>
            </Position>
            <AltitudeMeters>607.5999755859375</AltitudeMeters>
            <DistanceMeters>32498.397013872</DistanceMeters>
          </Trackpoint>
          <Trackpoint>
            <Time>2019-05-08T08:59:39.000Z</Time>
            <Position>
              <LatitudeDegrees>42.96606137417256832122802734375</LatitudeDegrees>
              <LongitudeDegrees>0.5699595250189304351806640625</LongitudeDegrees>
            </Position>
            <AltitudeMeters>607.5999755859375</AltitudeMeters>
            <DistanceMeters>32504.998464388</DistanceMeters>
          </Trackpoint>
          <Trackpoint>
            <Time>2019-05-08T08:59:40.000Z</Time>
            <Position>
              <LatitudeDegrees>42.96610395424067974090576171875</LatitudeDegrees>
              <LongitudeDegrees>0.56999430991709232330322265625</LongitudeDegrees>
            </Position>
            <AltitudeMeters>607.5999755859375</AltitudeMeters>
            <DistanceMeters>32510.51983542</DistanceMeters>
          </Trackpoint>
          <Trackpoint>
            <Time>2019-05-08T08:59:43.000Z</Time>
            <Position>
              <LatitudeDegrees>42.9662044532597064971923828125</LatitudeDegrees>
              <LongitudeDegrees>0.57006874121725559234619140625</LongitudeDegrees>
            </Position>
            <AltitudeMeters>607.20001220703125</AltitudeMeters>
            <DistanceMeters>32523.24277338</DistanceMeters>
          </Trackpoint>
          <Trackpoint>
            <Time>2019-05-08T08:59:46.000Z</Time>
            <Position>
              <LatitudeDegrees>42.96627343632280826568603515625</LatitudeDegrees>
              <LongitudeDegrees>0.5701638758182525634765625</LongitudeDegrees>
            </Position>
            <AltitudeMeters>607</AltitudeMeters>
            <DistanceMeters>32534.150581924</DistanceMeters>
          </Trackpoint>
          <Trackpoint>
            <Time>2019-05-08T08:59:48.000Z</Time>
            <Position>
              <LatitudeDegrees>42.9663181118667125701904296875</LatitudeDegrees>
              <LongitudeDegrees>0.570206455886363983154296875</LongitudeDegrees>
            </Position>
            <AltitudeMeters>607</AltitudeMeters>
            <DistanceMeters>32540.212958614</DistanceMeters>
          </Trackpoint>
          <Trackpoint>
            <Time>2019-05-08T08:59:49.000Z</Time>
            <Position>
              <LatitudeDegrees>42.96633210964500904083251953125</LatitudeDegrees>
              <LongitudeDegrees>0.57023084722459316253662109375</LongitudeDegrees>
            </Position>
            <AltitudeMeters>607.20001220703125</AltitudeMeters>
            <DistanceMeters>32542.737881181</DistanceMeters>
          </Trackpoint>
          <Trackpoint>
            <Time>2019-05-08T08:59:51.000Z</Time>
            <Position>
              <LatitudeDegrees>42.96635088510811328887939453125</LatitudeDegrees>
              <LongitudeDegrees>0.570301674306392669677734375</LongitudeDegrees>
            </Position>
            <AltitudeMeters>607.4000244140625</AltitudeMeters>
            <DistanceMeters>32548.873546482</DistanceMeters>
          </Trackpoint>
          <Trackpoint>
            <Time>2019-05-08T08:59:55.000Z</Time>
            <Position>
              <LatitudeDegrees>42.966459430754184722900390625</LatitudeDegrees>
              <LongitudeDegrees>0.5704339407384395599365234375</LongitudeDegrees>
            </Position>
            <AltitudeMeters>608.4000244140625</AltitudeMeters>
            <DistanceMeters>32565.060197403</DistanceMeters>
          </Trackpoint>
          <Trackpoint>
            <Time>2019-05-08T09:00:00.000Z</Time>
            <Position>
              <LatitudeDegrees>42.9666175134479999542236328125</LatitudeDegrees>
              <LongitudeDegrees>0.57056310586631298065185546875</LongitudeDegrees>
            </Position>
            <AltitudeMeters>609</AltitudeMeters>
            <DistanceMeters>32585.560435394</DistanceMeters>
          </Trackpoint>
          <Trackpoint>
            <Time>2019-05-08T09:00:01.000Z</Time>
            <Position>
              <LatitudeDegrees>42.966642491519451141357421875</LatitudeDegrees>
              <LongitudeDegrees>0.570589005947113037109375</LongitudeDegrees>
            </Position>
            <AltitudeMeters>609.20001220703125</AltitudeMeters>
            <DistanceMeters>32589.051939826</DistanceMeters>
          </Trackpoint>
          <Trackpoint>
            <Time>2019-05-08T09:00:07.000Z</Time>
            <Position>
              <LatitudeDegrees>42.9667935334146022796630859375</LatitudeDegrees>
              <LongitudeDegrees>0.5707460828125476837158203125</LongitudeDegrees>
            </Position>
            <AltitudeMeters>609.5999755859375</AltitudeMeters>
            <DistanceMeters>32610.1773851</DistanceMeters>
          </Trackpoint>
          <Trackpoint>
            <Time>2019-05-08T09:00:10.000Z</Time>
            <Position>
              <LatitudeDegrees>42.96687676571309566497802734375</LatitudeDegrees>
              <LongitudeDegrees>0.57082110084593296051025390625</LongitudeDegrees>
            </Position>
            <AltitudeMeters>610.20001220703125</AltitudeMeters>
            <DistanceMeters>32621.274780405</DistanceMeters>
          </Trackpoint>
          <Trackpoint>
            <Time>2019-05-08T09:00:14.000Z</Time>
            <Position>
              <LatitudeDegrees>42.96698757447302341461181640625</LatitudeDegrees>
              <LongitudeDegrees>0.57090215384960174560546875</LongitudeDegrees>
            </Position>
            <AltitudeMeters>610.5999755859375</AltitudeMeters>
            <DistanceMeters>32635.263409949</DistanceMeters>
          </Trackpoint>
          <Trackpoint>
            <Time>2019-05-08T09:00:19.000Z</Time>
            <Position>
              <LatitudeDegrees>42.96712185256183147430419921875</LatitudeDegrees>
              <LongitudeDegrees>0.5709899961948394775390625</LongitudeDegrees>
            </Position>
            <AltitudeMeters>611.20001220703125</AltitudeMeters>
            <DistanceMeters>32651.83297374</DistanceMeters>
          </Trackpoint>
          <Trackpoint>
            <Time>2019-05-08T09:00:21.000Z</Time>
            <Position>
              <LatitudeDegrees>42.96718102879822254180908203125</LatitudeDegrees>
              <LongitudeDegrees>0.5710189975798130035400390625</LongitudeDegrees>
            </Position>
            <AltitudeMeters>611.20001220703125</AltitudeMeters>
            <DistanceMeters>32658.830192793</DistanceMeters>
          </Trackpoint>
          <Trackpoint>
            <Time>2019-05-08T09:00:27.000Z</Time>
            <Position>
              <LatitudeDegrees>42.96736107207834720611572265625</LatitudeDegrees>
              <LongitudeDegrees>0.5710971169173717498779296875</LongitudeDegrees>
            </Position>
            <AltitudeMeters>611.79998779296875</AltitudeMeters>
            <DistanceMeters>32679.8549473</DistanceMeters>
          </Trackpoint>
          <Trackpoint>
            <Time>2019-05-08T09:00:29.000Z</Time>
            <Position>
              <LatitudeDegrees>42.967435084283351898193359375</LatitudeDegrees>
              <LongitudeDegrees>0.5711323209106922149658203125</LongitudeDegrees>
            </Position>
            <AltitudeMeters>612</AltitudeMeters>
            <DistanceMeters>32688.576722576</DistanceMeters>
          </Trackpoint>
          <Trackpoint>
            <Time>2019-05-08T09:00:32.000Z</Time>
            <Position>
              <LatitudeDegrees>42.967567853629589080810546875</LatitudeDegrees>
              <LongitudeDegrees>0.571223683655261993408203125</LongitudeDegrees>
            </Position>
            <AltitudeMeters>611.79998779296875</AltitudeMeters>
            <DistanceMeters>32705.121744103</DistanceMeters>
          </Trackpoint>
          <Trackpoint>
            <Time>2019-05-08T09:00:33.000Z</Time>
            <Position>
              <LatitudeDegrees>42.96761504374444484710693359375</LatitudeDegrees>
              <LongitudeDegrees>0.5712570436298847198486328125</LongitudeDegrees>
            </Position>
            <AltitudeMeters>611.79998779296875</AltitudeMeters>
            <DistanceMeters>32711.036346046</DistanceMeters>
          </Trackpoint>
          <Trackpoint>
            <Time>2019-05-08T09:00:36.000Z</Time>
            <Position>
              <LatitudeDegrees>42.96773138456046581268310546875</LatitudeDegrees>
              <LongitudeDegrees>0.571318902075290679931640625</LongitudeDegrees>
            </Position>
            <AltitudeMeters>611.4000244140625</AltitudeMeters>
            <DistanceMeters>32724.931058507</DistanceMeters>
          </Trackpoint>
          <Trackpoint>
            <Time>2019-05-08T09:00:39.000Z</Time>
            <Position>
              <LatitudeDegrees>42.96781017445027828216552734375</LatitudeDegrees>
              <LongitudeDegrees>0.5713735520839691162109375</LongitudeDegrees>
            </Position>
            <AltitudeMeters>610.79998779296875</AltitudeMeters>
            <DistanceMeters>32734.765290491</DistanceMeters>
          </Trackpoint>
          <Trackpoint>
            <Time>2019-05-08T09:00:41.000Z</Time>
            <Position>
              <LatitudeDegrees>42.9678563587367534637451171875</LatitudeDegrees>
              <LongitudeDegrees>0.5714518390595912933349609375</LongitudeDegrees>
            </Position>
            <AltitudeMeters>610.79998779296875</AltitudeMeters>
            <DistanceMeters>32742.955248233</DistanceMeters>
          </Trackpoint>
          <Trackpoint>
            <Time>2019-05-08T09:00:42.000Z</Time>
            <Position>
              <LatitudeDegrees>42.96787488274276256561279296875</LatitudeDegrees>
              <LongitudeDegrees>0.57149651460349559783935546875</LongitudeDegrees>
            </Position>
            <AltitudeMeters>610.5999755859375</AltitudeMeters>
            <DistanceMeters>32747.136423665</DistanceMeters>
          </Trackpoint>
          <Trackpoint>
            <Time>2019-05-08T09:00:45.000Z</Time>
            <Position>
              <LatitudeDegrees>42.9679371602833271026611328125</LatitudeDegrees>
              <LongitudeDegrees>0.57164470665156841278076171875</LongitudeDegrees>
            </Position>
            <AltitudeMeters>610.20001220703125</AltitudeMeters>
            <DistanceMeters>32761.05451261</DistanceMeters>
          </Trackpoint>
          <Trackpoint>
            <Time>2019-05-08T09:00:47.000Z</Time>
            <Position>
              <LatitudeDegrees>42.96797714196145534515380859375</LatitudeDegrees>
              <LongitudeDegrees>0.5717170424759387969970703125</LongitudeDegrees>
            </Position>
            <AltitudeMeters>609.79998779296875</AltitudeMeters>
            <DistanceMeters>32768.437299443</DistanceMeters>
          </Trackpoint>
          <Trackpoint>
            <Time>2019-05-08T09:00:49.000Z</Time>
            <Position>
              <LatitudeDegrees>42.9680417664349079132080078125</LatitudeDegrees>
              <LongitudeDegrees>0.5717579461634159088134765625</LongitudeDegrees>
            </Position>
            <AltitudeMeters>609.4000244140625</AltitudeMeters>
            <DistanceMeters>32776.363917379</DistanceMeters>
          </Trackpoint>
          <Trackpoint>
            <Time>2019-05-08T09:00:50.000Z</Time>
            <Position>
              <LatitudeDegrees>42.968083508312702178955078125</LatitudeDegrees>
              <LongitudeDegrees>0.57177362032234668731689453125</LongitudeDegrees>
            </Position>
            <AltitudeMeters>609.20001220703125</AltitudeMeters>
            <DistanceMeters>32781.182249718</DistanceMeters>
          </Trackpoint>
          <Trackpoint>
            <Time>2019-05-08T09:00:54.000Z</Time>
            <Position>
              <LatitudeDegrees>42.96821334399282932281494140625</LatitudeDegrees>
              <LongitudeDegrees>0.571831203997135162353515625</LongitudeDegrees>
            </Position>
            <AltitudeMeters>607.5999755859375</AltitudeMeters>
            <DistanceMeters>32796.375532581</DistanceMeters>
          </Trackpoint>
          <Trackpoint>
            <Time>2019-05-08T09:00:56.000Z</Time>
            <Position>
              <LatitudeDegrees>42.96825424768030643463134765625</LatitudeDegrees>
              <LongitudeDegrees>0.57190127670764923095703125</LongitudeDegrees>
            </Position>
            <AltitudeMeters>607</AltitudeMeters>
            <DistanceMeters>32803.675910049</DistanceMeters>
          </Trackpoint>
          <Trackpoint>
            <Time>2019-05-08T09:00:58.000Z</Time>
            <Position>
              <LatitudeDegrees>42.96832926571369171142578125</LatitudeDegrees>
              <LongitudeDegrees>0.571965985000133514404296875</LongitudeDegrees>
            </Position>
            <AltitudeMeters>606</AltitudeMeters>
            <DistanceMeters>32813.549546931</DistanceMeters>
          </Trackpoint>
          <Trackpoint>
            <Time>2019-05-08T09:00:59.000Z</Time>
            <Position>
              <LatitudeDegrees>42.96838014386594295501708984375</LatitudeDegrees>
              <LongitudeDegrees>0.57200009934604167938232421875</LongitudeDegrees>
            </Position>
            <AltitudeMeters>605.5999755859375</AltitudeMeters>
            <DistanceMeters>32819.857202344</DistanceMeters>
          </Trackpoint>
          <Trackpoint>
            <Time>2019-05-08T09:01:02.000Z</Time>
            <Position>
              <LatitudeDegrees>42.96850251965224742889404296875</LatitudeDegrees>
              <LongitudeDegrees>0.5720935575664043426513671875</LongitudeDegrees>
            </Position>
            <AltitudeMeters>604.79998779296875</AltitudeMeters>
            <DistanceMeters>32835.460403651</DistanceMeters>
          </Trackpoint>
          <Trackpoint>
            <Time>2019-05-08T09:01:03.000Z</Time>
            <Position>
              <LatitudeDegrees>42.96852850355207920074462890625</LatitudeDegrees>
              <LongitudeDegrees>0.57214535772800445556640625</LongitudeDegrees>
            </Position>
            <AltitudeMeters>604.20001220703125</AltitudeMeters>
            <DistanceMeters>32840.575983924</DistanceMeters>
          </Trackpoint>
          <Trackpoint>
            <Time>2019-05-08T09:01:06.000Z</Time>
            <Position>
              <LatitudeDegrees>42.96862590126693248748779296875</LatitudeDegrees>
              <LongitudeDegrees>0.572225488722324371337890625</LongitudeDegrees>
            </Position>
            <AltitudeMeters>603.20001220703125</AltitudeMeters>
            <DistanceMeters>32853.229532258</DistanceMeters>
          </Trackpoint>
          <Trackpoint>
            <Time>2019-05-08T09:01:08.000Z</Time>
            <Position>
              <LatitudeDegrees>42.9686881788074970245361328125</LatitudeDegrees>
              <LongitudeDegrees>0.57225071825087070465087890625</LongitudeDegrees>
            </Position>
            <AltitudeMeters>602.4000244140625</AltitudeMeters>
            <DistanceMeters>32860.459060766</DistanceMeters>
          </Trackpoint>
          <Trackpoint>
            <Time>2019-05-08T09:01:09.000Z</Time>
            <Position>
              <LatitudeDegrees>42.9687160067260265350341796875</LatitudeDegrees>
              <LongitudeDegrees>0.5722655542194843292236328125</LongitudeDegrees>
            </Position>
            <AltitudeMeters>602.20001220703125</AltitudeMeters>
            <DistanceMeters>32863.783637968</DistanceMeters>
          </Trackpoint>
          <Trackpoint>
            <Time>2019-05-08T09:01:11.000Z</Time>
            <Position>
              <LatitudeDegrees>42.96875967644155025482177734375</LatitudeDegrees>
              <LongitudeDegrees>0.5722935497760772705078125</LongitudeDegrees>
            </Position>
            <AltitudeMeters>602.20001220703125</AltitudeMeters>
            <DistanceMeters>32869.153278001</DistanceMeters>
          </Trackpoint>
          <Trackpoint>
            <Time>2019-05-08T09:01:12.000Z</Time>
            <Position>
              <LatitudeDegrees>42.9687803797423839569091796875</LatitudeDegrees>
              <LongitudeDegrees>0.57231693528592586517333984375</LongitudeDegrees>
            </Position>
            <AltitudeMeters>602</AltitudeMeters>
            <DistanceMeters>32872.143223766</DistanceMeters>
          </Trackpoint>
          <Trackpoint>
            <Time>2019-05-08T09:01:14.000Z</Time>
            <Position>
              <LatitudeDegrees>42.96882681548595428466796875</LatitudeDegrees>
              <LongitudeDegrees>0.5723552405834197998046875</LongitudeDegrees>
            </Position>
            <AltitudeMeters>602</AltitudeMeters>
            <DistanceMeters>32878.180225383</DistanceMeters>
          </Trackpoint>
          <Trackpoint>
            <Time>2019-05-08T09:01:16.000Z</Time>
            <Position>
              <LatitudeDegrees>42.96886713244020938873291015625</LatitudeDegrees>
              <LongitudeDegrees>0.57239203713834285736083984375</LongitudeDegrees>
            </Position>
            <AltitudeMeters>602.20001220703125</AltitudeMeters>
            <DistanceMeters>32883.575868668</DistanceMeters>
          </Trackpoint>
          <Trackpoint>
            <Time>2019-05-08T09:01:18.000Z</Time>
            <Position>
              <LatitudeDegrees>42.9689205251634120941162109375</LatitudeDegrees>
              <LongitudeDegrees>0.57245037518441677093505859375</LongitudeDegrees>
            </Position>
            <AltitudeMeters>603</AltitudeMeters>
            <DistanceMeters>32891.183942669</DistanceMeters>
          </Trackpoint>
          <Trackpoint>
            <Time>2019-05-08T09:01:19.000Z</Time>
            <Position>
              <LatitudeDegrees>42.96895614825189113616943359375</LatitudeDegrees>
              <LongitudeDegrees>0.5724947154521942138671875</LongitudeDegrees>
            </Position>
            <AltitudeMeters>603.20001220703125</AltitudeMeters>
            <DistanceMeters>32896.546009752</DistanceMeters>
          </Trackpoint>
          <Trackpoint>
            <Time>2019-05-08T09:01:22.000Z</Time>
            <Position>
              <LatitudeDegrees>42.9690626822412014007568359375</LatitudeDegrees>
              <LongitudeDegrees>0.57263896800577640533447265625</LongitudeDegrees>
            </Position>
            <AltitudeMeters>603.4000244140625</AltitudeMeters>
            <DistanceMeters>32913.238284574</DistanceMeters>
          </Trackpoint>
          <Trackpoint>
            <Time>2019-05-08T09:01:23.000Z</Time>
            <Position>
              <LatitudeDegrees>42.96909495256841182708740234375</LatitudeDegrees>
              <LongitudeDegrees>0.57267702184617519378662109375</LongitudeDegrees>
            </Position>
            <AltitudeMeters>603.20001220703125</AltitudeMeters>
            <DistanceMeters>32917.98296376</DistanceMeters>
          </Trackpoint>
          <Trackpoint>
            <Time>2019-05-08T09:01:26.000Z</Time>
            <Position>
              <LatitudeDegrees>42.96917013823986053466796875</LatitudeDegrees>
              <LongitudeDegrees>0.5727882497012615203857421875</LongitudeDegrees>
            </Position>
            <AltitudeMeters>603.4000244140625</AltitudeMeters>
            <DistanceMeters>32930.315220142</DistanceMeters>
          </Trackpoint>
          <Trackpoint>
            <Time>2019-05-08T09:01:28.000Z</Time>
            <Position>
              <LatitudeDegrees>42.969211041927337646484375</LatitudeDegrees>
              <LongitudeDegrees>0.57285388000309467315673828125</LongitudeDegrees>
            </Position>
            <AltitudeMeters>603.5999755859375</AltitudeMeters>
            <DistanceMeters>32937.336916332</DistanceMeters>
          </Trackpoint>
          <Trackpoint>
            <Time>2019-05-08T09:01:30.000Z</Time>
            <Position>
              <LatitudeDegrees>42.9692584834992885589599609375</LatitudeDegrees>
              <LongitudeDegrees>0.57290148921310901641845703125</LongitudeDegrees>
            </Position>
            <AltitudeMeters>604</AltitudeMeters>
            <DistanceMeters>32943.887559297</DistanceMeters>
          </Trackpoint>
          <Trackpoint>
            <Time>2019-05-08T09:01:33.000Z</Time>
            <Position>
              <LatitudeDegrees>42.96931388787925243377685546875</LatitudeDegrees>
              <LongitudeDegrees>0.57298799045383930206298828125</LongitudeDegrees>
            </Position>
            <AltitudeMeters>604.20001220703125</AltitudeMeters>
            <DistanceMeters>32953.249981636</DistanceMeters>
          </Trackpoint>
          <Trackpoint>
            <Time>2019-05-08T09:01:37.000Z</Time>
            <Position>
              <LatitudeDegrees>42.96939074993133544921875</LatitudeDegrees>
              <LongitudeDegrees>0.57310952804982662200927734375</LongitudeDegrees>
            </Position>
            <AltitudeMeters>604.79998779296875</AltitudeMeters>
            <DistanceMeters>32966.33264455</DistanceMeters>
          </Trackpoint>
          <Trackpoint>
            <Time>2019-05-08T09:01:40.000Z</Time>
            <Position>
              <LatitudeDegrees>42.96945034526288509368896484375</LatitudeDegrees>
              <LongitudeDegrees>0.57319452054798603057861328125</LongitudeDegrees>
            </Position>
            <AltitudeMeters>605.4000244140625</AltitudeMeters>
            <DistanceMeters>32975.91904575</DistanceMeters>
          </Trackpoint>
          <Trackpoint>
            <Time>2019-05-08T09:01:42.000Z</Time>
            <Position>
              <LatitudeDegrees>42.9694727249443531036376953125</LatitudeDegrees>
              <LongitudeDegrees>0.5732242763042449951171875</LongitudeDegrees>
            </Position>
            <AltitudeMeters>606</AltitudeMeters>
            <DistanceMeters>32979.394997746</DistanceMeters>
          </Trackpoint>
          <Trackpoint>
            <Time>2019-05-08T09:01:43.000Z</Time>
            <Position>
              <LatitudeDegrees>42.96947549097239971160888671875</LatitudeDegrees>
              <LongitudeDegrees>0.57322972454130649566650390625</LongitudeDegrees>
            </Position>
            <AltitudeMeters>606</AltitudeMeters>
            <DistanceMeters>32979.949093946</DistanceMeters>
          </Trackpoint>
          <Trackpoint>
            <Time>2019-05-08T09:02:08.000Z</Time>
            <Position>
              <LatitudeDegrees>42.96953584067523479461669921875</LatitudeDegrees>
              <LongitudeDegrees>0.573299042880535125732421875</LongitudeDegrees>
            </Position>
            <AltitudeMeters>608.79998779296875</AltitudeMeters>
            <DistanceMeters>32988.723513116</DistanceMeters>
          </Trackpoint>
          <Trackpoint>
            <Time>2019-05-08T09:02:11.000Z</Time>
            <Position>
              <LatitudeDegrees>42.96958160586655139923095703125</LatitudeDegrees>
              <LongitudeDegrees>0.5733484961092472076416015625</LongitudeDegrees>
            </Position>
            <AltitudeMeters>608.79998779296875</AltitudeMeters>
            <DistanceMeters>32995.217391541</DistanceMeters>
          </Trackpoint>
          <Trackpoint>
            <Time>2019-05-08T09:02:15.000Z</Time>
            <Position>
              <LatitudeDegrees>42.96965301968157291412353515625</LatitudeDegrees>
              <LongitudeDegrees>0.57341278530657291412353515625</LongitudeDegrees>
            </Position>
            <AltitudeMeters>608.79998779296875</AltitudeMeters>
            <DistanceMeters>33004.735255108</DistanceMeters>
          </Trackpoint>
          <Trackpoint>
            <Time>2019-05-08T09:02:17.000Z</Time>
            <Position>
              <LatitudeDegrees>42.96969207935035228729248046875</LatitudeDegrees>
              <LongitudeDegrees>0.57344228960573673248291015625</LongitudeDegrees>
            </Position>
            <AltitudeMeters>609</AltitudeMeters>
            <DistanceMeters>33009.703071421</DistanceMeters>
          </Trackpoint>
          <Trackpoint>
            <Time>2019-05-08T09:02:20.000Z</Time>
            <Position>
              <LatitudeDegrees>42.969757877290248870849609375</LatitudeDegrees>
              <LongitudeDegrees>0.5734614841639995574951171875</LongitudeDegrees>
            </Position>
            <AltitudeMeters>609.79998779296875</AltitudeMeters>
            <DistanceMeters>33017.191514164</DistanceMeters>
          </Trackpoint>
          <Trackpoint>
            <Time>2019-05-08T09:02:21.000Z</Time>
            <Position>
              <LatitudeDegrees>42.969777993857860565185546875</LatitudeDegrees>
              <LongitudeDegrees>0.57346961461007595062255859375</LongitudeDegrees>
            </Position>
            <AltitudeMeters>609.79998779296875</AltitudeMeters>
            <DistanceMeters>33019.526929796</DistanceMeters>
          </Trackpoint>
          <Trackpoint>
            <Time>2019-05-08T09:02:25.000Z</Time>
            <Position>
              <LatitudeDegrees>42.9698472283780574798583984375</LatitudeDegrees>
              <LongitudeDegrees>0.5735137872397899627685546875</LongitudeDegrees>
            </Position>
            <AltitudeMeters>610.5999755859375</AltitudeMeters>
            <DistanceMeters>33028.030626178</DistanceMeters>
          </Trackpoint>
          <Trackpoint>
            <Time>2019-05-08T09:02:28.000Z</Time>
            <Position>
              <LatitudeDegrees>42.96990028582513332366943359375</LatitudeDegrees>
              <LongitudeDegrees>0.57355058379471302032470703125</LongitudeDegrees>
            </Position>
            <AltitudeMeters>611.20001220703125</AltitudeMeters>
            <DistanceMeters>33034.652563297</DistanceMeters>
          </Trackpoint>
          <Trackpoint>
            <Time>2019-05-08T09:02:33.000Z</Time>
            <Position>
              <LatitudeDegrees>42.969982512295246124267578125</LatitudeDegrees>
              <LongitudeDegrees>0.5736180581152439117431640625</LongitudeDegrees>
            </Position>
            <AltitudeMeters>612.79998779296875</AltitudeMeters>
            <DistanceMeters>33045.327747826</DistanceMeters>
          </Trackpoint>
          <Trackpoint>
            <Time>2019-05-08T09:02:34.000Z</Time>
            <Position>
              <LatitudeDegrees>42.9699964262545108795166015625</LatitudeDegrees>
              <LongitudeDegrees>0.573635660111904144287109375</LongitudeDegrees>
            </Position>
            <AltitudeMeters>613</AltitudeMeters>
            <DistanceMeters>33047.439822106</DistanceMeters>
          </Trackpoint>
          <Trackpoint>
            <Time>2019-05-08T09:02:40.000Z</Time>
            <Position>
              <LatitudeDegrees>42.970076389610767364501953125</LatitudeDegrees>
              <LongitudeDegrees>0.57373532094061374664306640625</LongitudeDegrees>
            </Position>
            <AltitudeMeters>613.79998779296875</AltitudeMeters>
            <DistanceMeters>33059.485371836</DistanceMeters>
          </Trackpoint>
          <Trackpoint>
            <Time>2019-05-08T09:02:46.000Z</Time>
            <Position>
              <LatitudeDegrees>42.97016398049890995025634765625</LatitudeDegrees>
              <LongitudeDegrees>0.5738369934260845184326171875</LongitudeDegrees>
            </Position>
            <AltitudeMeters>614.5999755859375</AltitudeMeters>
            <DistanceMeters>33072.275911111</DistanceMeters>
          </Trackpoint>
          <Trackpoint>
            <Time>2019-05-08T09:02:47.000Z</Time>
            <Position>
              <LatitudeDegrees>42.97017755918204784393310546875</LatitudeDegrees>
              <LongitudeDegrees>0.5738510750234127044677734375</LongitudeDegrees>
            </Position>
            <AltitudeMeters>614.5999755859375</AltitudeMeters>
            <DistanceMeters>33074.176445398</DistanceMeters>
          </Trackpoint>
          <Trackpoint>
            <Time>2019-05-08T09:02:53.000Z</Time>
            <Position>
              <LatitudeDegrees>42.97028535045683383941650390625</LatitudeDegrees>
              <LongitudeDegrees>0.57396247051656246185302734375</LongitudeDegrees>
            </Position>
            <AltitudeMeters>615</AltitudeMeters>
            <DistanceMeters>33089.218006663</DistanceMeters>
          </Trackpoint>
          <Trackpoint>
            <Time>2019-05-08T09:02:57.000Z</Time>
            <Position>
              <LatitudeDegrees>42.97034553252160549163818359375</LatitudeDegrees>
              <LongitudeDegrees>0.57403924874961376190185546875</LongitudeDegrees>
            </Position>
            <AltitudeMeters>615.79998779296875</AltitudeMeters>
            <DistanceMeters>33098.381558423</DistanceMeters>
          </Trackpoint>
          <Trackpoint>
            <Time>2019-05-08T09:02:58.000Z</Time>
            <Position>
              <LatitudeDegrees>42.970362715423107147216796875</LatitudeDegrees>
              <LongitudeDegrees>0.574054419994354248046875</LongitudeDegrees>
            </Position>
            <AltitudeMeters>616</AltitudeMeters>
            <DistanceMeters>33100.658236679</DistanceMeters>
          </Trackpoint>
          <Trackpoint>
            <Time>2019-05-08T09:03:01.000Z</Time>
            <Position>
              <LatitudeDegrees>42.97040537931025028228759765625</LatitudeDegrees>
              <LongitudeDegrees>0.57410730980336666107177734375</LongitudeDegrees>
            </Position>
            <AltitudeMeters>616.4000244140625</AltitudeMeters>
            <DistanceMeters>33107.07025181</DistanceMeters>
          </Trackpoint>
          <Trackpoint>
            <Time>2019-05-08T09:03:03.000Z</Time>
            <Position>
              <LatitudeDegrees>42.9704373143613338470458984375</LatitudeDegrees>
              <LongitudeDegrees>0.57412809692323207855224609375</LongitudeDegrees>
            </Position>
            <AltitudeMeters>617.5999755859375</AltitudeMeters>
            <DistanceMeters>33111.007845143</DistanceMeters>
          </Trackpoint>
          <Trackpoint>
            <Time>2019-05-08T09:03:04.000Z</Time>
            <Position>
              <LatitudeDegrees>42.97045164741575717926025390625</LatitudeDegrees>
              <LongitudeDegrees>0.574134886264801025390625</LongitudeDegrees>
            </Position>
            <AltitudeMeters>618</AltitudeMeters>
            <DistanceMeters>33112.697076967</DistanceMeters>
          </Trackpoint>
          <Trackpoint>
            <Time>2019-05-08T09:03:07.000Z</Time>
            <Position>
              <LatitudeDegrees>42.97051618807017803192138671875</LatitudeDegrees>
              <LongitudeDegrees>0.57415056042373180389404296875</LongitudeDegrees>
            </Position>
            <AltitudeMeters>618.79998779296875</AltitudeMeters>
            <DistanceMeters>33119.992505026</DistanceMeters>
          </Trackpoint>
          <Trackpoint>
            <Time>2019-05-08T09:03:08.000Z</Time>
            <Position>
              <LatitudeDegrees>42.97053496353328227996826171875</LatitudeDegrees>
              <LongitudeDegrees>0.57415877468883991241455078125</LongitudeDegrees>
            </Position>
            <AltitudeMeters>619</AltitudeMeters>
            <DistanceMeters>33122.188424155</DistanceMeters>
          </Trackpoint>
          <Trackpoint>
            <Time>2019-05-08T09:03:10.000Z</Time>
            <Position>
              <LatitudeDegrees>42.97057318501174449920654296875</LatitudeDegrees>
              <LongitudeDegrees>0.57417168281972408294677734375</LongitudeDegrees>
            </Position>
            <AltitudeMeters>619.5999755859375</AltitudeMeters>
            <DistanceMeters>33126.571000178</DistanceMeters>
          </Trackpoint>
          <Trackpoint>
            <Time>2019-05-08T09:03:13.000Z</Time>
            <Position>
              <LatitudeDegrees>42.97063336707651615142822265625</LatitudeDegrees>
              <LongitudeDegrees>0.57420236058533191680908203125</LongitudeDegrees>
            </Position>
            <AltitudeMeters>620</AltitudeMeters>
            <DistanceMeters>33133.720142272</DistanceMeters>
          </Trackpoint>
          <Trackpoint>
            <Time>2019-05-08T09:03:14.000Z</Time>
            <Position>
              <LatitudeDegrees>42.97064912505447864532470703125</LatitudeDegrees>
              <LongitudeDegrees>0.57421334087848663330078125</LongitudeDegrees>
            </Position>
            <AltitudeMeters>620.4000244140625</AltitudeMeters>
            <DistanceMeters>33135.690658161</DistanceMeters>
          </Trackpoint>
          <Trackpoint>
            <Time>2019-05-08T09:03:19.000Z</Time>
            <Position>
              <LatitudeDegrees>42.970734536647796630859375</LatitudeDegrees>
              <LongitudeDegrees>0.57426623068749904632568359375</LongitudeDegrees>
            </Position>
            <AltitudeMeters>622.20001220703125</AltitudeMeters>
            <DistanceMeters>33146.128035333</DistanceMeters>
          </Trackpoint>
          <Trackpoint>
            <Time>2019-05-08T09:03:21.000Z</Time>
            <Position>
              <LatitudeDegrees>42.97076982446014881134033203125</LatitudeDegrees>
              <LongitudeDegrees>0.5742837488651275634765625</LongitudeDegrees>
            </Position>
            <AltitudeMeters>623.20001220703125</AltitudeMeters>
            <DistanceMeters>33150.305969962</DistanceMeters>
          </Trackpoint>
          <Trackpoint>
            <Time>2019-05-08T09:03:25.000Z</Time>
            <Position>
              <LatitudeDegrees>42.97083235345780849456787109375</LatitudeDegrees>
              <LongitudeDegrees>0.57434334419667720794677734375</LongitudeDegrees>
            </Position>
            <AltitudeMeters>624</AltitudeMeters>
            <DistanceMeters>33158.790530611</DistanceMeters>
          </Trackpoint>
          <Trackpoint>
            <Time>2019-05-08T09:03:28.000Z</Time>
            <Position>
              <LatitudeDegrees>42.97088080085813999176025390625</LatitudeDegrees>
              <LongitudeDegrees>0.5743767879903316497802734375</LongitudeDegrees>
            </Position>
            <AltitudeMeters>624.20001220703125</AltitudeMeters>
            <DistanceMeters>33164.830523064</DistanceMeters>
          </Trackpoint>
          <Trackpoint>
            <Time>2019-05-08T09:03:29.000Z</Time>
            <Position>
              <LatitudeDegrees>42.9708963073790073394775390625</LatitudeDegrees>
              <LongitudeDegrees>0.5743831582367420196533203125</LongitudeDegrees>
            </Position>
            <AltitudeMeters>624.20001220703125</AltitudeMeters>
            <DistanceMeters>33166.6335282</DistanceMeters>
          </Trackpoint>
          <Trackpoint>
            <Time>2019-05-08T09:03:32.000Z</Time>
            <Position>
              <LatitudeDegrees>42.9709343612194061279296875</LatitudeDegrees>
              <LongitudeDegrees>0.57441023178398609161376953125</LongitudeDegrees>
            </Position>
            <AltitudeMeters>624.5999755859375</AltitudeMeters>
            <DistanceMeters>33171.409506958</DistanceMeters>
          </Trackpoint>
          <Trackpoint>
            <Time>2019-05-08T09:03:34.000Z</Time>
            <Position>
              <LatitudeDegrees>42.970967553555965423583984375</LatitudeDegrees>
              <LongitudeDegrees>0.574425570666790008544921875</LongitudeDegrees>
            </Position>
            <AltitudeMeters>625</AltitudeMeters>
            <DistanceMeters>33175.309077285</DistanceMeters>
          </Trackpoint>
          <Trackpoint>
            <Time>2019-05-08T09:03:37.000Z</Time>
            <Position>
              <LatitudeDegrees>42.9710180126130580902099609375</LatitudeDegrees>
              <LongitudeDegrees>0.57444744743406772613525390625</LongitudeDegrees>
            </Position>
            <AltitudeMeters>625.79998779296875</AltitudeMeters>
            <DistanceMeters>33181.200733576</DistanceMeters>
          </Trackpoint>
          <Trackpoint>
            <Time>2019-05-08T09:03:39.000Z</Time>
            <Position>
              <LatitudeDegrees>42.97104910947382450103759765625</LatitudeDegrees>
              <LongitudeDegrees>0.5744715034961700439453125</LongitudeDegrees>
            </Position>
            <AltitudeMeters>626.4000244140625</AltitudeMeters>
            <DistanceMeters>33185.178257168</DistanceMeters>
          </Trackpoint>
          <Trackpoint>
            <Time>2019-05-08T09:03:42.000Z</Time>
            <Position>
              <LatitudeDegrees>42.97109059989452362060546875</LatitudeDegrees>
              <LongitudeDegrees>0.574509389698505401611328125</LongitudeDegrees>
            </Position>
            <AltitudeMeters>627.5999755859375</AltitudeMeters>
            <DistanceMeters>33190.732241426</DistanceMeters>
          </Trackpoint>
          <Trackpoint>
            <Time>2019-05-08T09:03:43.000Z</Time>
            <Position>
              <LatitudeDegrees>42.97110711224377155303955078125</LatitudeDegrees>
              <LongitudeDegrees>0.5745233036577701568603515625</LongitudeDegrees>
            </Position>
            <AltitudeMeters>627.79998779296875</AltitudeMeters>
            <DistanceMeters>33192.890833431</DistanceMeters>
          </Trackpoint>
          <Trackpoint>
            <Time>2019-05-08T09:03:44.000Z</Time>
            <Position>
              <LatitudeDegrees>42.9711216129362583160400390625</LatitudeDegrees>
              <LongitudeDegrees>0.57454191148281097412109375</LongitudeDegrees>
            </Position>
            <AltitudeMeters>628.20001220703125</AltitudeMeters>
            <DistanceMeters>33195.103140243</DistanceMeters>
          </Trackpoint>
          <Trackpoint>
            <Time>2019-05-08T09:03:48.000Z</Time>
            <Position>
              <LatitudeDegrees>42.971166037023067474365234375</LatitudeDegrees>
              <LongitudeDegrees>0.57462631724774837493896484375</LongitudeDegrees>
            </Position>
            <AltitudeMeters>629.20001220703125</AltitudeMeters>
            <DistanceMeters>33203.570655048</DistanceMeters>
          </Trackpoint>
          <Trackpoint>
            <Time>2019-05-08T09:03:51.000Z</Time>
            <Position>
              <LatitudeDegrees>42.97120803035795688629150390625</LatitudeDegrees>
              <LongitudeDegrees>0.57471181266009807586669921875</LongitudeDegrees>
            </Position>
            <AltitudeMeters>630.4000244140625</AltitudeMeters>
            <DistanceMeters>33211.956728941</DistanceMeters>
          </Trackpoint>
          <Trackpoint>
            <Time>2019-05-08T09:03:53.000Z</Time>
            <Position>
              <LatitudeDegrees>42.97124977223575115203857421875</LatitudeDegrees>
              <LongitudeDegrees>0.5747745931148529052734375</LongitudeDegrees>
            </Position>
            <AltitudeMeters>630.4000244140625</AltitudeMeters>
            <DistanceMeters>33218.865635084</DistanceMeters>
          </Trackpoint>
          <Trackpoint>
            <Time>2019-05-08T09:03:58.000Z</Time>
            <Position>
              <LatitudeDegrees>42.97136284410953521728515625</LatitudeDegrees>
              <LongitudeDegrees>0.57487140409648418426513671875</LongitudeDegrees>
            </Position>
            <AltitudeMeters>630.4000244140625</AltitudeMeters>
            <DistanceMeters>33233.716580746</DistanceMeters>
          </Trackpoint>
          <Trackpoint>
            <Time>2019-05-08T09:04:03.000Z</Time>
            <Position>
              <LatitudeDegrees>42.97144959680736064910888671875</LatitudeDegrees>
              <LongitudeDegrees>0.57493527419865131378173828125</LongitudeDegrees>
            </Position>
            <AltitudeMeters>630.4000244140625</AltitudeMeters>
            <DistanceMeters>33244.684656164</DistanceMeters>
          </Trackpoint>
          <Trackpoint>
            <Time>2019-05-08T09:04:04.000Z</Time>
            <Position>
              <LatitudeDegrees>42.97146736644208431243896484375</LatitudeDegrees>
              <LongitudeDegrees>0.5749434046447277069091796875</LongitudeDegrees>
            </Position>
            <AltitudeMeters>630.4000244140625</AltitudeMeters>
            <DistanceMeters>33246.773083066</DistanceMeters>
          </Trackpoint>
          <Trackpoint>
            <Time>2019-05-08T09:04:08.000Z</Time>
            <Position>
              <LatitudeDegrees>42.97154313884675502777099609375</LatitudeDegrees>
              <LongitudeDegrees>0.5749950371682643890380859375</LongitudeDegrees>
            </Position>
            <AltitudeMeters>630.4000244140625</AltitudeMeters>
            <DistanceMeters>33256.19751047</DistanceMeters>
          </Trackpoint>
          <Trackpoint>
            <Time>2019-05-08T09:04:10.000Z</Time>
            <Position>
              <LatitudeDegrees>42.97158337198197841644287109375</LatitudeDegrees>
              <LongitudeDegrees>0.57501993142068386077880859375</LongitudeDegrees>
            </Position>
            <AltitudeMeters>630.5999755859375</AltitudeMeters>
            <DistanceMeters>33261.113248926</DistanceMeters>
          </Trackpoint>
          <Trackpoint>
            <Time>2019-05-08T09:04:12.000Z</Time>
            <Position>
              <LatitudeDegrees>42.971632741391658782958984375</LatitudeDegrees>
              <LongitudeDegrees>0.57503652758896350860595703125</LongitudeDegrees>
            </Position>
            <AltitudeMeters>630.79998779296875</AltitudeMeters>
            <DistanceMeters>33266.771928195</DistanceMeters>
          </Trackpoint>
          <Trackpoint>
            <Time>2019-05-08T09:04:16.000Z</Time>
            <Position>
              <LatitudeDegrees>42.97173273749649524688720703125</LatitudeDegrees>
              <LongitudeDegrees>0.57506133802235126495361328125</LongitudeDegrees>
            </Position>
            <AltitudeMeters>630.79998779296875</AltitudeMeters>
            <DistanceMeters>33278.083700082</DistanceMeters>
          </Trackpoint>
          <Trackpoint>
            <Time>2019-05-08T09:04:19.000Z</Time>
            <Position>
              <LatitudeDegrees>42.97185209579765796661376953125</LatitudeDegrees>
              <LongitudeDegrees>0.5750872381031513214111328125</LongitudeDegrees>
            </Position>
            <AltitudeMeters>630.79998779296875</AltitudeMeters>
            <DistanceMeters>33291.535267714</DistanceMeters>
          </Trackpoint>
          <Trackpoint>
            <Time>2019-05-08T09:04:20.000Z</Time>
            <Position>
              <LatitudeDegrees>42.97187983989715576171875</LatitudeDegrees>
              <LongitudeDegrees>0.57509285397827625274658203125</LongitudeDegrees>
            </Position>
            <AltitudeMeters>630.79998779296875</AltitudeMeters>
            <DistanceMeters>33294.658164216</DistanceMeters>
          </Trackpoint>
          <Trackpoint>
            <Time>2019-05-08T09:04:22.000Z</Time>
            <Position>
              <LatitudeDegrees>42.971935831010341644287109375</LatitudeDegrees>
              <LongitudeDegrees>0.57511146180331707000732421875</LongitudeDegrees>
            </Position>
            <AltitudeMeters>630.79998779296875</AltitudeMeters>
            <DistanceMeters>33301.071587499</DistanceMeters>
          </Trackpoint>
          <Trackpoint>
            <Time>2019-05-08T09:04:24.000Z</Time>
            <Position>
              <LatitudeDegrees>42.97199986875057220458984375</LatitudeDegrees>
              <LongitudeDegrees>0.575121603906154632568359375</LongitudeDegrees>
            </Position>
            <AltitudeMeters>630.4000244140625</AltitudeMeters>
            <DistanceMeters>33308.245947103</DistanceMeters>
          </Trackpoint>
          <Trackpoint>
            <Time>2019-05-08T09:04:25.000Z</Time>
            <Position>
              <LatitudeDegrees>42.97202979214489459991455078125</LatitudeDegrees>
              <LongitudeDegrees>0.57512302882969379425048828125</LongitudeDegrees>
            </Position>
            <AltitudeMeters>630</AltitudeMeters>
            <DistanceMeters>33311.580017303</DistanceMeters>
          </Trackpoint>
          <Trackpoint>
            <Time>2019-05-08T09:04:29.000Z</Time>
            <Position>
              <LatitudeDegrees>42.9721321351826190948486328125</LatitudeDegrees>
              <LongitudeDegrees>0.57515337131917476654052734375</LongitudeDegrees>
            </Position>
            <AltitudeMeters>629</AltitudeMeters>
            <DistanceMeters>33323.236197217</DistanceMeters>
          </Trackpoint>
          <Trackpoint>
            <Time>2019-05-08T09:04:30.000Z</Time>
            <Position>
              <LatitudeDegrees>42.972155101597309112548828125</LatitudeDegrees>
              <LongitudeDegrees>0.5751650221645832061767578125</LongitudeDegrees>
            </Position>
            <AltitudeMeters>628.5999755859375</AltitudeMeters>
            <DistanceMeters>33325.963977082</DistanceMeters>
          </Trackpoint>
          <Trackpoint>
            <Time>2019-05-08T09:04:35.000Z</Time>
            <Position>
              <LatitudeDegrees>42.97229290008544921875</LatitudeDegrees>
              <LongitudeDegrees>0.5751876533031463623046875</LongitudeDegrees>
            </Position>
            <AltitudeMeters>628.20001220703125</AltitudeMeters>
            <DistanceMeters>33341.411591788</DistanceMeters>
          </Trackpoint>
          <Trackpoint>
            <Time>2019-05-08T09:04:38.000Z</Time>
            <Position>
              <LatitudeDegrees>42.97237764112651348114013671875</LatitudeDegrees>
              <LongitudeDegrees>0.57516460306942462921142578125</LongitudeDegrees>
            </Position>
            <AltitudeMeters>628.4000244140625</AltitudeMeters>
            <DistanceMeters>33351.028558198</DistanceMeters>
          </Trackpoint>
          <Trackpoint>
            <Time>2019-05-08T09:04:40.000Z</Time>
            <Position>
              <LatitudeDegrees>42.97242290340363979339599609375</LatitudeDegrees>
              <LongitudeDegrees>0.575161166489124298095703125</LongitudeDegrees>
            </Position>
            <AltitudeMeters>628.20001220703125</AltitudeMeters>
            <DistanceMeters>33356.074825687</DistanceMeters>
          </Trackpoint>
          <Trackpoint>
            <Time>2019-05-08T09:04:43.000Z</Time>
            <Position>
              <LatitudeDegrees>42.97249398194253444671630859375</LatitudeDegrees>
              <LongitudeDegrees>0.5751527845859527587890625</LongitudeDegrees>
            </Position>
            <AltitudeMeters>628.4000244140625</AltitudeMeters>
            <DistanceMeters>33364.015102366</DistanceMeters>
          </Trackpoint>
          <Trackpoint>
            <Time>2019-05-08T09:04:45.000Z</Time>
            <Position>
              <LatitudeDegrees>42.972542010247707366943359375</LatitudeDegrees>
              <LongitudeDegrees>0.5751482583582401275634765625</LongitudeDegrees>
            </Position>
            <AltitudeMeters>629.20001220703125</AltitudeMeters>
            <DistanceMeters>33369.373800257</DistanceMeters>
          </Trackpoint>
          <Trackpoint>
            <Time>2019-05-08T09:04:50.000Z</Time>
            <Position>
              <LatitudeDegrees>42.97266103327274322509765625</LatitudeDegrees>
              <LongitudeDegrees>0.57512587867677211761474609375</LongitudeDegrees>
            </Position>
            <AltitudeMeters>630.5999755859375</AltitudeMeters>
            <DistanceMeters>33382.745919526</DistanceMeters>
          </Trackpoint>
          <Trackpoint>
            <Time>2019-05-08T09:04:56.000Z</Time>
            <Position>
              <LatitudeDegrees>42.97278064303100109100341796875</LatitudeDegrees>
              <LongitudeDegrees>0.57507324032485485076904296875</LongitudeDegrees>
            </Position>
            <AltitudeMeters>632</AltitudeMeters>
            <DistanceMeters>33396.731966714</DistanceMeters>
          </Trackpoint>
          <Trackpoint>
            <Time>2019-05-08T09:04:57.000Z</Time>
            <Position>
              <LatitudeDegrees>42.97280109487473964691162109375</LatitudeDegrees>
              <LongitudeDegrees>0.575057230889797210693359375</LongitudeDegrees>
            </Position>
            <AltitudeMeters>632.20001220703125</AltitudeMeters>
            <DistanceMeters>33399.355117157</DistanceMeters>
          </Trackpoint>
          <Trackpoint>
            <Time>2019-05-08T09:04:58.000Z</Time>
            <Position>
              <LatitudeDegrees>42.9728217981755733489990234375</LatitudeDegrees>
              <LongitudeDegrees>0.5750428140163421630859375</LongitudeDegrees>
            </Position>
            <AltitudeMeters>632.4000244140625</AltitudeMeters>
            <DistanceMeters>33401.940123263</DistanceMeters>
          </Trackpoint>
          <Trackpoint>
            <Time>2019-05-08T09:05:01.000Z</Time>
            <Position>
              <LatitudeDegrees>42.97287217341363430023193359375</LatitudeDegrees>
              <LongitudeDegrees>0.57501993142068386077880859375</LongitudeDegrees>
            </Position>
            <AltitudeMeters>632.79998779296875</AltitudeMeters>
            <DistanceMeters>33407.847850868</DistanceMeters>
          </Trackpoint>
          <Trackpoint>
            <Time>2019-05-08T09:05:02.000Z</Time>
            <Position>
              <LatitudeDegrees>42.972888015210628509521484375</LatitudeDegrees>
              <LongitudeDegrees>0.575018338859081268310546875</LongitudeDegrees>
            </Position>
            <AltitudeMeters>632.79998779296875</AltitudeMeters>
            <DistanceMeters>33409.615449932</DistanceMeters>
          </Trackpoint>
          <Trackpoint>
            <Time>2019-05-08T09:05:03.000Z</Time>
            <Position>
              <LatitudeDegrees>42.97290955670177936553955078125</LatitudeDegrees>
              <LongitudeDegrees>0.57501859031617641448974609375</LongitudeDegrees>
            </Position>
            <AltitudeMeters>632.79998779296875</AltitudeMeters>
            <DistanceMeters>33412.01381577</DistanceMeters>
          </Trackpoint>
          <Trackpoint>
            <Time>2019-05-08T09:05:09.000Z</Time>
            <Position>
              <LatitudeDegrees>42.973041236400604248046875</LatitudeDegrees>
              <LongitudeDegrees>0.57504189200699329376220703125</LongitudeDegrees>
            </Position>
            <AltitudeMeters>634.79998779296875</AltitudeMeters>
            <DistanceMeters>33426.792532188</DistanceMeters>
          </Trackpoint>
          <Trackpoint>
            <Time>2019-05-08T09:05:15.000Z</Time>
            <Position>
              <LatitudeDegrees>42.97318867407739162445068359375</LatitudeDegrees>
              <LongitudeDegrees>0.57506016455590724945068359375</LongitudeDegrees>
            </Position>
            <AltitudeMeters>635.5999755859375</AltitudeMeters>
            <DistanceMeters>33443.270011013</DistanceMeters>
          </Trackpoint>
          <Trackpoint>
            <Time>2019-05-08T09:05:21.000Z</Time>
            <Position>
              <LatitudeDegrees>42.9733166657388210296630859375</LatitudeDegrees>
              <LongitudeDegrees>0.5750017426908016204833984375</LongitudeDegrees>
            </Position>
            <AltitudeMeters>635.5999755859375</AltitudeMeters>
            <DistanceMeters>33458.289042592</DistanceMeters>
          </Trackpoint>
          <Trackpoint>
            <Time>2019-05-08T09:05:22.000Z</Time>
            <Position>
              <LatitudeDegrees>42.9733461700379848480224609375</LatitudeDegrees>
              <LongitudeDegrees>0.57498715817928314208984375</LongitudeDegrees>
            </Position>
            <AltitudeMeters>635.5999755859375</AltitudeMeters>
            <DistanceMeters>33461.780547024</DistanceMeters>
          </Trackpoint>
          <Trackpoint>
            <Time>2019-05-08T09:05:24.000Z</Time>
            <Position>
              <LatitudeDegrees>42.973401658236980438232421875</LatitudeDegrees>
              <LongitudeDegrees>0.574958659708499908447265625</LongitudeDegrees>
            </Position>
            <AltitudeMeters>635.4000244140625</AltitudeMeters>
            <DistanceMeters>33468.377892586</DistanceMeters>
          </Trackpoint>
          <Trackpoint>
            <Time>2019-05-08T09:05:27.000Z</Time>
            <Position>
              <LatitudeDegrees>42.97346645034849643707275390625</LatitudeDegrees>
              <LongitudeDegrees>0.574928820133209228515625</LongitudeDegrees>
            </Position>
            <AltitudeMeters>635.5999755859375</AltitudeMeters>
            <DistanceMeters>33475.987746739</DistanceMeters>
          </Trackpoint>
          <Trackpoint>
            <Time>2019-05-08T09:05:29.000Z</Time>
            <Position>
              <LatitudeDegrees>42.97351892106235027313232421875</LatitudeDegrees>
              <LongitudeDegrees>0.5749021656811237335205078125</LongitudeDegrees>
            </Position>
            <AltitudeMeters>635.5999755859375</AltitudeMeters>
            <DistanceMeters>33482.218340502</DistanceMeters>
          </Trackpoint>
          <Trackpoint>
            <Time>2019-05-08T09:05:32.000Z</Time>
            <Position>
              <LatitudeDegrees>42.9735956154763698577880859375</LatitudeDegrees>
              <LongitudeDegrees>0.5748656205832958221435546875</LongitudeDegrees>
            </Position>
            <AltitudeMeters>635.4000244140625</AltitudeMeters>
            <DistanceMeters>33491.259372079</DistanceMeters>
          </Trackpoint>
          <Trackpoint>
            <Time>2019-05-08T09:05:33.000Z</Time>
            <Position>
              <LatitudeDegrees>42.97363308258354663848876953125</LatitudeDegrees>
              <LongitudeDegrees>0.57486000470817089080810546875</LongitudeDegrees>
            </Position>
            <AltitudeMeters>635.5999755859375</AltitudeMeters>
            <DistanceMeters>33495.455638165</DistanceMeters>
          </Trackpoint>
          <Trackpoint>
            <Time>2019-05-08T09:05:35.000Z</Time>
            <Position>
              <LatitudeDegrees>42.9737050831317901611328125</LatitudeDegrees>
              <LongitudeDegrees>0.574845336377620697021484375</LongitudeDegrees>
            </Position>
            <AltitudeMeters>635.5999755859375</AltitudeMeters>
            <DistanceMeters>33503.558023971</DistanceMeters>
          </Trackpoint>
          <Trackpoint>
            <Time>2019-05-08T09:05:36.000Z</Time>
            <Position>
              <LatitudeDegrees>42.97374238260090351104736328125</LatitudeDegrees>
              <LongitudeDegrees>0.57483301497995853424072265625</LongitudeDegrees>
            </Position>
            <AltitudeMeters>635.79998779296875</AltitudeMeters>
            <DistanceMeters>33507.828943592</DistanceMeters>
          </Trackpoint>
          <Trackpoint>
            <Time>2019-05-08T09:05:39.000Z</Time>
            <Position>
              <LatitudeDegrees>42.9738400317728519439697265625</LatitudeDegrees>
              <LongitudeDegrees>0.5747553147375583648681640625</LongitudeDegrees>
            </Position>
            <AltitudeMeters>636</AltitudeMeters>
            <DistanceMeters>33520.405541662</DistanceMeters>
          </Trackpoint>
          <Trackpoint>
            <Time>2019-05-08T09:05:42.000Z</Time>
            <Position>
              <LatitudeDegrees>42.973901890218257904052734375</LatitudeDegrees>
              <LongitudeDegrees>0.57464777491986751556396484375</LongitudeDegrees>
            </Position>
            <AltitudeMeters>635.79998779296875</AltitudeMeters>
            <DistanceMeters>33531.545169595</DistanceMeters>
          </Trackpoint>
          <Trackpoint>
            <Time>2019-05-08T09:05:43.000Z</Time>
            <Position>
              <LatitudeDegrees>42.973914630711078643798828125</LatitudeDegrees>
              <LongitudeDegrees>0.57461290620267391204833984375</LongitudeDegrees>
            </Position>
            <AltitudeMeters>636</AltitudeMeters>
            <DistanceMeters>33534.719687718</DistanceMeters>
          </Trackpoint>
          <Trackpoint>
            <Time>2019-05-08T09:05:47.000Z</Time>
            <Position>
              <LatitudeDegrees>42.97396634705364704132080078125</LatitudeDegrees>
              <LongitudeDegrees>0.574504025280475616455078125</LongitudeDegrees>
            </Position>
            <AltitudeMeters>636</AltitudeMeters>
            <DistanceMeters>33545.291169453</DistanceMeters>
          </Trackpoint>
          <Trackpoint>
            <Time>2019-05-08T09:05:48.000Z</Time>
            <Position>
              <LatitudeDegrees>42.9739764891564846038818359375</LatitudeDegrees>
              <LongitudeDegrees>0.57448332197964191436767578125</LongitudeDegrees>
            </Position>
            <AltitudeMeters>636</AltitudeMeters>
            <DistanceMeters>33547.320384783</DistanceMeters>
          </Trackpoint>
          <Trackpoint>
            <Time>2019-05-08T09:05:51.000Z</Time>
            <Position>
              <LatitudeDegrees>42.9739935882389545440673828125</LatitudeDegrees>
              <LongitudeDegrees>0.57446488179266452789306640625</LongitudeDegrees>
            </Position>
            <AltitudeMeters>635.5999755859375</AltitudeMeters>
            <DistanceMeters>33549.744963049</DistanceMeters>
          </Trackpoint>
          <Trackpoint>
            <Time>2019-05-08T09:05:52.000Z</Time>
            <Position>
              <LatitudeDegrees>42.9739945940673351287841796875</LatitudeDegrees>
              <LongitudeDegrees>0.57446773163974285125732421875</LongitudeDegrees>
            </Position>
            <AltitudeMeters>635.4000244140625</AltitudeMeters>
            <DistanceMeters>33550.013739185</DistanceMeters>
          </Trackpoint>
          <Trackpoint>
            <Time>2019-05-08T09:05:53.000Z</Time>
            <Position>
              <LatitudeDegrees>42.97399551607668399810791015625</LatitudeDegrees>
              <LongitudeDegrees>0.57446806691586971282958984375</LongitudeDegrees>
            </Position>
            <AltitudeMeters>635.20001220703125</AltitudeMeters>
            <DistanceMeters>33550.1087659</DistanceMeters>
          </Trackpoint>
          <Trackpoint>
            <Time>2019-05-08T09:06:26.000Z</Time>
            <Position>
              <LatitudeDegrees>42.9740515910089015960693359375</LatitudeDegrees>
              <LongitudeDegrees>0.5745363794267177581787109375</LongitudeDegrees>
            </Position>
            <AltitudeMeters>631.5999755859375</AltitudeMeters>
            <DistanceMeters>33558.468956787</DistanceMeters>
          </Trackpoint>
          <Trackpoint>
            <Time>2019-05-08T09:06:27.000Z</Time>
            <Position>
              <LatitudeDegrees>42.97405754216015338897705078125</LatitudeDegrees>
              <LongitudeDegrees>0.574558340013027191162109375</LongitudeDegrees>
            </Position>
            <AltitudeMeters>631.5999755859375</AltitudeMeters>
            <DistanceMeters>33560.376604765</DistanceMeters>
          </Trackpoint>
          <Trackpoint>
            <Time>2019-05-08T09:06:28.000Z</Time>
            <Position>
              <LatitudeDegrees>42.97406592406332492828369140625</LatitudeDegrees>
              <LongitudeDegrees>0.57457451708614826202392578125</LongitudeDegrees>
            </Position>
            <AltitudeMeters>631.5999755859375</AltitudeMeters>
            <DistanceMeters>33561.992058909</DistanceMeters>
          </Trackpoint>
          <Trackpoint>
            <Time>2019-05-08T09:06:29.000Z</Time>
            <Position>
              <LatitudeDegrees>42.9740760661661624908447265625</LatitudeDegrees>
              <LongitudeDegrees>0.5745920352637767791748046875</LongitudeDegrees>
            </Position>
            <AltitudeMeters>631.5999755859375</AltitudeMeters>
            <DistanceMeters>33563.810027</DistanceMeters>
          </Trackpoint>
          <Trackpoint>
            <Time>2019-05-08T09:06:31.000Z</Time>
            <Position>
              <LatitudeDegrees>42.974098362028598785400390625</LatitudeDegrees>
              <LongitudeDegrees>0.5746366269886493682861328125</LongitudeDegrees>
            </Position>
            <AltitudeMeters>631.5999755859375</AltitudeMeters>
            <DistanceMeters>33568.207002513</DistanceMeters>
          </Trackpoint>
          <Trackpoint>
            <Time>2019-05-08T09:06:32.000Z</Time>
            <Position>
              <LatitudeDegrees>42.9741149581968784332275390625</LatitudeDegrees>
              <LongitudeDegrees>0.57464785873889923095703125</LongitudeDegrees>
            </Position>
            <AltitudeMeters>631.4000244140625</AltitudeMeters>
            <DistanceMeters>33570.267132589</DistanceMeters>
          </Trackpoint>
          <Trackpoint>
            <Time>2019-05-08T09:06:33.000Z</Time>
            <Position>
              <LatitudeDegrees>42.97414169646799564361572265625</LatitudeDegrees>
              <LongitudeDegrees>0.5746403150260448455810546875</LongitudeDegrees>
            </Position>
            <AltitudeMeters>631.20001220703125</AltitudeMeters>
            <DistanceMeters>33573.306502294</DistanceMeters>
          </Trackpoint>
          <Trackpoint>
            <Time>2019-05-08T09:06:34.000Z</Time>
            <Position>
              <LatitudeDegrees>42.9741717875003814697265625</LatitudeDegrees>
              <LongitudeDegrees>0.57462313212454319000244140625</LongitudeDegrees>
            </Position>
            <AltitudeMeters>631.20001220703125</AltitudeMeters>
            <DistanceMeters>33576.936224257</DistanceMeters>
          </Trackpoint>
          <Trackpoint>
            <Time>2019-05-08T09:06:35.000Z</Time>
            <Position>
              <LatitudeDegrees>42.97421160154044628143310546875</LatitudeDegrees>
              <LongitudeDegrees>0.57459647767245769500732421875</LongitudeDegrees>
            </Position>
            <AltitudeMeters>631</AltitudeMeters>
            <DistanceMeters>33581.870298242</DistanceMeters>
          </Trackpoint>
          <Trackpoint>
            <Time>2019-05-08T09:06:36.000Z</Time>
            <Position>
              <LatitudeDegrees>42.9742524214088916778564453125</LatitudeDegrees>
              <LongitudeDegrees>0.574574433267116546630859375</LongitudeDegrees>
            </Position>
            <AltitudeMeters>630.79998779296875</AltitudeMeters>
            <DistanceMeters>33586.754708336</DistanceMeters>
          </Trackpoint>
          <Trackpoint>
            <Time>2019-05-08T09:06:37.000Z</Time>
            <Position>
              <LatitudeDegrees>42.97429877333343029022216796875</LatitudeDegrees>
              <LongitudeDegrees>0.57456898503005504608154296875</LongitudeDegrees>
            </Position>
            <AltitudeMeters>630</AltitudeMeters>
            <DistanceMeters>33591.932574399</DistanceMeters>
          </Trackpoint>
          <Trackpoint>
            <Time>2019-05-08T09:06:38.000Z</Time>
            <Position>
              <LatitudeDegrees>42.9743486456573009490966796875</LatitudeDegrees>
              <LongitudeDegrees>0.574558675289154052734375</LongitudeDegrees>
            </Position>
            <AltitudeMeters>629.4000244140625</AltitudeMeters>
            <DistanceMeters>33597.546393668</DistanceMeters>
          </Trackpoint>
          <Trackpoint>
            <Time>2019-05-08T09:06:40.000Z</Time>
            <Position>
              <LatitudeDegrees>42.974424920976161956787109375</LatitudeDegrees>
              <LongitudeDegrees>0.574509389698505401611328125</LongitudeDegrees>
            </Position>
            <AltitudeMeters>628.5999755859375</AltitudeMeters>
            <DistanceMeters>33606.936264083</DistanceMeters>
          </Trackpoint>
          <Trackpoint>
            <Time>2019-05-08T09:06:42.000Z</Time>
            <Position>
              <LatitudeDegrees>42.97448283992707729339599609375</LatitudeDegrees>
              <LongitudeDegrees>0.574477203190326690673828125</LongitudeDegrees>
            </Position>
            <AltitudeMeters>627.4000244140625</AltitudeMeters>
            <DistanceMeters>33613.894659723</DistanceMeters>
          </Trackpoint>
          <Trackpoint>
            <Time>2019-05-08T09:06:44.000Z</Time>
            <Position>
              <LatitudeDegrees>42.97453950159251689910888671875</LatitudeDegrees>
              <LongitudeDegrees>0.57446571998298168182373046875</LongitudeDegrees>
            </Position>
            <AltitudeMeters>626.20001220703125</AltitudeMeters>
            <DistanceMeters>33620.270661931</DistanceMeters>
          </Trackpoint>
          <Trackpoint>
            <Time>2019-05-08T09:06:48.000Z</Time>
            <Position>
              <LatitudeDegrees>42.97466732561588287353515625</LatitudeDegrees>
              <LongitudeDegrees>0.5743811465799808502197265625</LongitudeDegrees>
            </Position>
            <AltitudeMeters>625.20001220703125</AltitudeMeters>
            <DistanceMeters>33636.077121213</DistanceMeters>
          </Trackpoint>
          <Trackpoint>
            <Time>2019-05-08T09:06:53.000Z</Time>
            <Position>
              <LatitudeDegrees>42.97482901252806186676025390625</LatitudeDegrees>
              <LongitudeDegrees>0.5743295140564441680908203125</LongitudeDegrees>
            </Position>
            <AltitudeMeters>624.5999755859375</AltitudeMeters>
            <DistanceMeters>33654.5578017</DistanceMeters>
          </Trackpoint>
          <Trackpoint>
            <Time>2019-05-08T09:06:56.000Z</Time>
            <Position>
              <LatitudeDegrees>42.97491752542555332183837890625</LatitudeDegrees>
              <LongitudeDegrees>0.57434535585343837738037109375</LongitudeDegrees>
            </Position>
            <AltitudeMeters>624.79998779296875</AltitudeMeters>
            <DistanceMeters>33664.493434327</DistanceMeters>
          </Trackpoint>
          <Trackpoint>
            <Time>2019-05-08T09:06:57.000Z</Time>
            <Position>
              <LatitudeDegrees>42.97495432198047637939453125</LatitudeDegrees>
              <LongitudeDegrees>0.57437251321971416473388671875</LongitudeDegrees>
            </Position>
            <AltitudeMeters>624.79998779296875</AltitudeMeters>
            <DistanceMeters>33669.146833441</DistanceMeters>
          </Trackpoint>
          <Trackpoint>
            <Time>2019-05-08T09:07:00.000Z</Time>
            <Position>
              <LatitudeDegrees>42.975026071071624755859375</LatitudeDegrees>
              <LongitudeDegrees>0.57444124482572078704833984375</LongitudeDegrees>
            </Position>
            <AltitudeMeters>624.79998779296875</AltitudeMeters>
            <DistanceMeters>33678.899000641</DistanceMeters>
          </Trackpoint>
          <Trackpoint>
            <Time>2019-05-08T09:07:01.000Z</Time>
            <Position>
              <LatitudeDegrees>42.9750302620232105255126953125</LatitudeDegrees>
              <LongitudeDegrees>0.57444577105343341827392578125</LongitudeDegrees>
            </Position>
            <AltitudeMeters>624.79998779296875</AltitudeMeters>
            <DistanceMeters>33679.500002353</DistanceMeters>
          </Trackpoint>
          <Trackpoint>
            <Time>2019-05-08T09:07:02.000Z</Time>
            <Position>
              <LatitudeDegrees>42.97503168694674968719482421875</LatitudeDegrees>
              <LongitudeDegrees>0.574443340301513671875</LongitudeDegrees>
            </Position>
            <AltitudeMeters>624.79998779296875</AltitudeMeters>
            <DistanceMeters>33679.751419407</DistanceMeters>
          </Trackpoint>
          <Trackpoint>
            <Time>2019-05-08T09:07:43.000Z</Time>
            <Position>
              <LatitudeDegrees>42.97536679543554782867431640625</LatitudeDegrees>
              <LongitudeDegrees>0.57428500615060329437255859375</LongitudeDegrees>
            </Position>
            <AltitudeMeters>627</AltitudeMeters>
            <DistanceMeters>33719.215317138</DistanceMeters>
          </Trackpoint>
          <Trackpoint>
            <Time>2019-05-08T09:07:44.000Z</Time>
            <Position>
              <LatitudeDegrees>42.97539445571601390838623046875</LatitudeDegrees>
              <LongitudeDegrees>0.574255920946598052978515625</LongitudeDegrees>
            </Position>
            <AltitudeMeters>627</AltitudeMeters>
            <DistanceMeters>33723.098644019</DistanceMeters>
          </Trackpoint>
          <Trackpoint>
            <Time>2019-05-08T09:07:46.000Z</Time>
            <Position>
              <LatitudeDegrees>42.97544910572469234466552734375</LatitudeDegrees>
              <LongitudeDegrees>0.574174113571643829345703125</LongitudeDegrees>
            </Position>
            <AltitudeMeters>626.79998779296875</AltitudeMeters>
            <DistanceMeters>33732.119177198</DistanceMeters>
          </Trackpoint>
          <Trackpoint>
            <Time>2019-05-08T09:07:48.000Z</Time>
            <Position>
              <LatitudeDegrees>42.9754909314215183258056640625</LatitudeDegrees>
              <LongitudeDegrees>0.5740881152451038360595703125</LongitudeDegrees>
            </Position>
            <AltitudeMeters>626.79998779296875</AltitudeMeters>
            <DistanceMeters>33740.527833366</DistanceMeters>
          </Trackpoint>
          <Trackpoint>
            <Time>2019-05-08T09:07:50.000Z</Time>
            <Position>
              <LatitudeDegrees>42.9755341820418834686279296875</LatitudeDegrees>
              <LongitudeDegrees>0.5740235745906829833984375</LongitudeDegrees>
            </Position>
            <AltitudeMeters>626.79998779296875</AltitudeMeters>
            <DistanceMeters>33747.654836944</DistanceMeters>
          </Trackpoint>
          <Trackpoint>
            <Time>2019-05-08T09:07:51.000Z</Time>
            <Position>
              <LatitudeDegrees>42.97555941157042980194091796875</LatitudeDegrees>
              <LongitudeDegrees>0.57399339973926544189453125</LongitudeDegrees>
            </Position>
            <AltitudeMeters>626.5999755859375</AltitudeMeters>
            <DistanceMeters>33751.387584987</DistanceMeters>
          </Trackpoint>
          <Trackpoint>
            <Time>2019-05-08T09:07:52.000Z</Time>
            <Position>
              <LatitudeDegrees>42.9755772650241851806640625</LatitudeDegrees>
              <LongitudeDegrees>0.57397085241973400115966796875</LongitudeDegrees>
            </Position>
            <AltitudeMeters>625.4000244140625</AltitudeMeters>
            <DistanceMeters>33754.092092691</DistanceMeters>
          </Trackpoint>
          <Trackpoint>
            <Time>2019-05-08T09:07:55.000Z</Time>
            <Position>
              <LatitudeDegrees>42.9756169952452182769775390625</LatitudeDegrees>
              <LongitudeDegrees>0.57395325042307376861572265625</LongitudeDegrees>
            </Position>
            <AltitudeMeters>623.5999755859375</AltitudeMeters>
            <DistanceMeters>33758.739666559</DistanceMeters>
          </Trackpoint>
          <Trackpoint>
            <Time>2019-05-08T09:07:56.000Z</Time>
            <Position>
              <LatitudeDegrees>42.97563292086124420166015625</LatitudeDegrees>
              <LongitudeDegrees>0.57396791875362396240234375</LongitudeDegrees>
            </Position>
            <AltitudeMeters>623.20001220703125</AltitudeMeters>
            <DistanceMeters>33760.87723964</DistanceMeters>
          </Trackpoint>
          <Trackpoint>
            <Time>2019-05-08T09:07:57.000Z</Time>
            <Position>
              <LatitudeDegrees>42.9756510257720947265625</LatitudeDegrees>
              <LongitudeDegrees>0.57397462427616119384765625</LongitudeDegrees>
            </Position>
            <AltitudeMeters>622.79998779296875</AltitudeMeters>
            <DistanceMeters>33762.963503489</DistanceMeters>
          </Trackpoint>
          <Trackpoint>
            <Time>2019-05-08T09:07:59.000Z</Time>
            <Position>
              <LatitudeDegrees>42.9757051728665828704833984375</LatitudeDegrees>
              <LongitudeDegrees>0.57396096177399158477783203125</LongitudeDegrees>
            </Position>
            <AltitudeMeters>621.5999755859375</AltitudeMeters>
            <DistanceMeters>33769.092542403</DistanceMeters>
          </Trackpoint>
          <Trackpoint>
            <Time>2019-05-08T09:08:01.000Z</Time>
            <Position>
              <LatitudeDegrees>42.97571280039846897125244140625</LatitudeDegrees>
              <LongitudeDegrees>0.5739714391529560089111328125</LongitudeDegrees>
            </Position>
            <AltitudeMeters>620.79998779296875</AltitudeMeters>
            <DistanceMeters>33770.302035017</DistanceMeters>
          </Trackpoint>
          <Trackpoint>
            <Time>2019-05-08T09:11:19.000Z</Time>
            <Position>
              <LatitudeDegrees>42.975652031600475311279296875</LatitudeDegrees>
              <LongitudeDegrees>0.57397470809519290924072265625</LongitudeDegrees>
            </Position>
            <AltitudeMeters>619</AltitudeMeters>
            <DistanceMeters>33777.070979387</DistanceMeters>
          </Trackpoint>
          <Trackpoint>
            <Time>2019-05-08T09:11:20.000Z</Time>
            <Position>
              <LatitudeDegrees>42.97564633190631866455078125</LatitudeDegrees>
              <LongitudeDegrees>0.5739605426788330078125</LongitudeDegrees>
            </Position>
            <AltitudeMeters>619</AltitudeMeters>
            <DistanceMeters>33778.387708165</DistanceMeters>
          </Trackpoint>
          <Trackpoint>
            <Time>2019-05-08T09:11:21.000Z</Time>
            <Position>
              <LatitudeDegrees>42.9756481759250164031982421875</LatitudeDegrees>
              <LongitudeDegrees>0.5739486403763294219970703125</LongitudeDegrees>
            </Position>
            <AltitudeMeters>619</AltitudeMeters>
            <DistanceMeters>33779.37525475</DistanceMeters>
          </Trackpoint>
          <Trackpoint>
            <Time>2019-05-08T09:11:24.000Z</Time>
            <Position>
              <LatitudeDegrees>42.9756713099777698516845703125</LatitudeDegrees>
              <LongitudeDegrees>0.5738514102995395660400390625</LongitudeDegrees>
            </Position>
            <AltitudeMeters>618.79998779296875</AltitudeMeters>
            <DistanceMeters>33787.700809793</DistanceMeters>
          </Trackpoint>
          <Trackpoint>
            <Time>2019-05-08T09:11:25.000Z</Time>
            <Position>
              <LatitudeDegrees>42.975680194795131683349609375</LatitudeDegrees>
              <LongitudeDegrees>0.57380966842174530029296875</LongitudeDegrees>
            </Position>
            <AltitudeMeters>619</AltitudeMeters>
            <DistanceMeters>33791.239837347</DistanceMeters>
          </Trackpoint>
          <Trackpoint>
            <Time>2019-05-08T09:11:28.000Z</Time>
            <Position>
              <LatitudeDegrees>42.975727133452892303466796875</LatitudeDegrees>
              <LongitudeDegrees>0.57371352799236774444580078125</LongitudeDegrees>
            </Position>
            <AltitudeMeters>618.79998779296875</AltitudeMeters>
            <DistanceMeters>33800.651800475</DistanceMeters>
          </Trackpoint>
          <Trackpoint>
            <Time>2019-05-08T09:11:29.000Z</Time>
            <Position>
              <LatitudeDegrees>42.97574884258210659027099609375</LatitudeDegrees>
              <LongitudeDegrees>0.5736938305199146270751953125</LongitudeDegrees>
            </Position>
            <AltitudeMeters>618.79998779296875</AltitudeMeters>
            <DistanceMeters>33803.551283389</DistanceMeters>
          </Trackpoint>
          <Trackpoint>
            <Time>2019-05-08T09:11:30.000Z</Time>
            <Position>
              <LatitudeDegrees>42.97576325945556163787841796875</LatitudeDegrees>
              <LongitudeDegrees>0.573671199381351470947265625</LongitudeDegrees>
            </Position>
            <AltitudeMeters>618.79998779296875</AltitudeMeters>
            <DistanceMeters>33805.994412638</DistanceMeters>
          </Trackpoint>
          <Trackpoint>
            <Time>2019-05-08T09:11:32.000Z</Time>
            <Position>
              <LatitudeDegrees>42.9757806099951267242431640625</LatitudeDegrees>
              <LongitudeDegrees>0.5736351571977138519287109375</LongitudeDegrees>
            </Position>
            <AltitudeMeters>618.5999755859375</AltitudeMeters>
            <DistanceMeters>33809.509116691</DistanceMeters>
          </Trackpoint>
          <Trackpoint>
            <Time>2019-05-08T09:11:34.000Z</Time>
            <Position>
              <LatitudeDegrees>42.9757972061634063720703125</LatitudeDegrees>
              <LongitudeDegrees>0.57360825128853321075439453125</LongitudeDegrees>
            </Position>
            <AltitudeMeters>618.20001220703125</AltitudeMeters>
            <DistanceMeters>33812.375712156</DistanceMeters>
          </Trackpoint>
          <Trackpoint>
            <Time>2019-05-08T09:11:38.000Z</Time>
            <Position>
              <LatitudeDegrees>42.97582092694938182830810546875</LatitudeDegrees>
              <LongitudeDegrees>0.57355276308953762054443359375</LongitudeDegrees>
            </Position>
            <AltitudeMeters>616.79998779296875</AltitudeMeters>
            <DistanceMeters>33817.609950585</DistanceMeters>
          </Trackpoint>
          <Trackpoint>
            <Time>2019-05-08T09:11:39.000Z</Time>
            <Position>
              <LatitudeDegrees>42.975827716290950775146484375</LatitudeDegrees>
              <LongitudeDegrees>0.57353834621608257293701171875</LongitudeDegrees>
            </Position>
            <AltitudeMeters>616</AltitudeMeters>
            <DistanceMeters>33819.006552358</DistanceMeters>
          </Trackpoint>
          <Trackpoint>
            <Time>2019-05-08T09:11:42.000Z</Time>
            <Position>
              <LatitudeDegrees>42.97584607265889644622802734375</LatitudeDegrees>
              <LongitudeDegrees>0.57352744974195957183837890625</LongitudeDegrees>
            </Position>
            <AltitudeMeters>614.79998779296875</AltitudeMeters>
            <DistanceMeters>33821.235126352</DistanceMeters>
          </Trackpoint>
          <Trackpoint>
            <Time>2019-05-08T09:11:44.000Z</Time>
            <Position>
              <LatitudeDegrees>42.975863255560398101806640625</LatitudeDegrees>
              <LongitudeDegrees>0.57351521216332912445068359375</LongitudeDegrees>
            </Position>
            <AltitudeMeters>613.5999755859375</AltitudeMeters>
            <DistanceMeters>33823.391625684</DistanceMeters>
          </Trackpoint>
          <Trackpoint>
            <Time>2019-05-08T09:11:46.000Z</Time>
            <Position>
              <LatitudeDegrees>42.975888065993785858154296875</LatitudeDegrees>
              <LongitudeDegrees>0.573508255183696746826171875</LongitudeDegrees>
            </Position>
            <AltitudeMeters>612.79998779296875</AltitudeMeters>
            <DistanceMeters>33826.210573585</DistanceMeters>
          </Trackpoint>
          <Trackpoint>
            <Time>2019-05-08T09:11:47.000Z</Time>
            <Position>
              <LatitudeDegrees>42.9758962802588939666748046875</LatitudeDegrees>
              <LongitudeDegrees>0.5735080875456333160400390625</LongitudeDegrees>
            </Position>
            <AltitudeMeters>612</AltitudeMeters>
            <DistanceMeters>33827.126978031</DistanceMeters>
          </Trackpoint>
          <Trackpoint>
            <Time>2019-05-08T09:11:48.000Z</Time>
            <Position>
              <LatitudeDegrees>42.97590357251465320587158203125</LatitudeDegrees>
              <LongitudeDegrees>0.5735077522695064544677734375</LongitudeDegrees>
            </Position>
            <AltitudeMeters>611.79998779296875</AltitudeMeters>
            <DistanceMeters>33827.938886635</DistanceMeters>
          </Trackpoint>
          <Trackpoint>
            <Time>2019-05-08T09:11:49.000Z</Time>
            <Position>
              <LatitudeDegrees>42.975917570292949676513671875</LatitudeDegrees>
              <LongitudeDegrees>0.5734946765005588531494140625</LongitudeDegrees>
            </Position>
            <AltitudeMeters>611.5999755859375</AltitudeMeters>
            <DistanceMeters>33829.825113058</DistanceMeters>
          </Trackpoint>
          <Trackpoint>
            <Time>2019-05-08T09:11:51.000Z</Time>
            <Position>
              <LatitudeDegrees>42.97596744261682033538818359375</LatitudeDegrees>
              <LongitudeDegrees>0.573480091989040374755859375</LongitudeDegrees>
            </Position>
            <AltitudeMeters>610.5999755859375</AltitudeMeters>
            <DistanceMeters>33835.501318899</DistanceMeters>
          </Trackpoint>
          <Trackpoint>
            <Time>2019-05-08T09:11:52.000Z</Time>
            <Position>
              <LatitudeDegrees>42.97599711455404758453369140625</LatitudeDegrees>
              <LongitudeDegrees>0.5734695307910442352294921875</LongitudeDegrees>
            </Position>
            <AltitudeMeters>610</AltitudeMeters>
            <DistanceMeters>33838.914352537</DistanceMeters>
          </Trackpoint>
          <Trackpoint>
            <Time>2019-05-08T09:11:53.000Z</Time>
            <Position>
              <LatitudeDegrees>42.97600918449461460113525390625</LatitudeDegrees>
              <LongitudeDegrees>0.57346240617334842681884765625</LongitudeDegrees>
            </Position>
            <AltitudeMeters>609.79998779296875</AltitudeMeters>
            <DistanceMeters>33840.37727021</DistanceMeters>
          </Trackpoint>
          <Trackpoint>
            <Time>2019-05-08T09:11:54.000Z</Time>
            <Position>
              <LatitudeDegrees>42.97602276317775249481201171875</LatitudeDegrees>
              <LongitudeDegrees>0.573461316525936126708984375</LongitudeDegrees>
            </Position>
            <AltitudeMeters>609.20001220703125</AltitudeMeters>
            <DistanceMeters>33841.891746824</DistanceMeters>
          </Trackpoint>
          <Trackpoint>
            <Time>2019-05-08T09:11:57.000Z</Time>
            <Position>
              <LatitudeDegrees>42.9760578833520412445068359375</LatitudeDegrees>
              <LongitudeDegrees>0.573469698429107666015625</LongitudeDegrees>
            </Position>
            <AltitudeMeters>607.20001220703125</AltitudeMeters>
            <DistanceMeters>33845.857902793</DistanceMeters>
          </Trackpoint>
          <Trackpoint>
            <Time>2019-05-08T09:11:59.000Z</Time>
            <Position>
              <LatitudeDegrees>42.97607137821614742279052734375</LatitudeDegrees>
              <LongitudeDegrees>0.57347347028553485870361328125</LongitudeDegrees>
            </Position>
            <AltitudeMeters>606</AltitudeMeters>
            <DistanceMeters>33847.390162521</DistanceMeters>
          </Trackpoint>
          <Trackpoint>
            <Time>2019-05-08T09:12:02.000Z</Time>
            <Position>
              <LatitudeDegrees>42.97612669877707958221435546875</LatitudeDegrees>
              <LongitudeDegrees>0.57348520494997501373291015625</LongitudeDegrees>
            </Position>
            <AltitudeMeters>604.20001220703125</AltitudeMeters>
            <DistanceMeters>33853.620031585</DistanceMeters>
          </Trackpoint>
          <Trackpoint>
            <Time>2019-05-08T09:12:03.000Z</Time>
            <Position>
              <LatitudeDegrees>42.9761393554508686065673828125</LatitudeDegrees>
              <LongitudeDegrees>0.57349844835698604583740234375</LongitudeDegrees>
            </Position>
            <AltitudeMeters>604</AltitudeMeters>
            <DistanceMeters>33855.392731955</DistanceMeters>
          </Trackpoint>
          <Trackpoint>
            <Time>2019-05-08T09:12:04.000Z</Time>
            <Position>
              <LatitudeDegrees>42.97615720890462398529052734375</LatitudeDegrees>
              <LongitudeDegrees>0.57351118884980678558349609375</LongitudeDegrees>
            </Position>
            <AltitudeMeters>603.5999755859375</AltitudeMeters>
            <DistanceMeters>33857.633428834</DistanceMeters>
          </Trackpoint>
          <Trackpoint>
            <Time>2019-05-08T09:12:06.000Z</Time>
            <Position>
              <LatitudeDegrees>42.97619643621146678924560546875</LatitudeDegrees>
              <LongitudeDegrees>0.5735459737479686737060546875</LongitudeDegrees>
            </Position>
            <AltitudeMeters>602.79998779296875</AltitudeMeters>
            <DistanceMeters>33862.838256337</DistanceMeters>
          </Trackpoint>
          <Trackpoint>
            <Time>2019-05-08T09:12:08.000Z</Time>
            <Position>
              <LatitudeDegrees>42.9762312211096286773681640625</LatitudeDegrees>
              <LongitudeDegrees>0.57359467260539531707763671875</LongitudeDegrees>
            </Position>
            <AltitudeMeters>601.5999755859375</AltitudeMeters>
            <DistanceMeters>33868.380033127</DistanceMeters>
          </Trackpoint>
          <Trackpoint>
            <Time>2019-05-08T09:12:09.000Z</Time>
            <Position>
              <LatitudeDegrees>42.97624714672565460205078125</LatitudeDegrees>
              <LongitudeDegrees>0.57361629791557788848876953125</LongitudeDegrees>
            </Position>
            <AltitudeMeters>601.4000244140625</AltitudeMeters>
            <DistanceMeters>33870.879795695</DistanceMeters>
          </Trackpoint>
          <Trackpoint>
            <Time>2019-05-08T09:12:11.000Z</Time>
            <Position>
              <LatitudeDegrees>42.9762892238795757293701171875</LatitudeDegrees>
              <LongitudeDegrees>0.57364429347217082977294921875</LongitudeDegrees>
            </Position>
            <AltitudeMeters>600.20001220703125</AltitudeMeters>
            <DistanceMeters>33876.088091927</DistanceMeters>
          </Trackpoint>
          <Trackpoint>
            <Time>2019-05-08T09:12:14.000Z</Time>
            <Position>
              <LatitudeDegrees>42.9763428680598735809326171875</LatitudeDegrees>
              <LongitudeDegrees>0.5736587941646575927734375</LongitudeDegrees>
            </Position>
            <AltitudeMeters>598.20001220703125</AltitudeMeters>
            <DistanceMeters>33882.174254394</DistanceMeters>
          </Trackpoint>
          <Trackpoint>
            <Time>2019-05-08T09:12:15.000Z</Time>
            <Position>
              <LatitudeDegrees>42.976357452571392059326171875</LatitudeDegrees>
              <LongitudeDegrees>0.5736552737653255462646484375</LongitudeDegrees>
            </Position>
            <AltitudeMeters>597.79998779296875</AltitudeMeters>
            <DistanceMeters>33883.820165367</DistanceMeters>
          </Trackpoint>
          <Trackpoint>
            <Time>2019-05-08T09:12:16.000Z</Time>
            <Position>
              <LatitudeDegrees>42.97636759467422962188720703125</LatitudeDegrees>
              <LongitudeDegrees>0.5736499093472957611083984375</LongitudeDegrees>
            </Position>
            <AltitudeMeters>597.20001220703125</AltitudeMeters>
            <DistanceMeters>33885.029657982</DistanceMeters>
          </Trackpoint>
          <Trackpoint>
            <Time>2019-05-08T09:12:19.000Z</Time>
            <Position>
              <LatitudeDegrees>42.97640061937272548675537109375</LatitudeDegrees>
              <LongitudeDegrees>0.57364731095731258392333984375</LongitudeDegrees>
            </Position>
            <AltitudeMeters>594.4000244140625</AltitudeMeters>
            <DistanceMeters>33888.712479566</DistanceMeters>
          </Trackpoint>
          <Trackpoint>
            <Time>2019-05-08T09:12:21.000Z</Time>
            <Position>
              <LatitudeDegrees>42.9764293693006038665771484375</LatitudeDegrees>
              <LongitudeDegrees>0.57367932982742786407470703125</LongitudeDegrees>
            </Position>
            <AltitudeMeters>593.20001220703125</AltitudeMeters>
            <DistanceMeters>33892.841496922</DistanceMeters>
          </Trackpoint>
          <Trackpoint>
            <Time>2019-05-08T09:12:22.000Z</Time>
            <Position>
              <LatitudeDegrees>42.97646448947489261627197265625</LatitudeDegrees>
              <LongitudeDegrees>0.57371067814528942108154296875</LongitudeDegrees>
            </Position>
            <AltitudeMeters>592.79998779296875</AltitudeMeters>
            <DistanceMeters>33897.510394493</DistanceMeters>
          </Trackpoint>
          <Trackpoint>
            <Time>2019-05-08T09:12:23.000Z</Time>
            <Position>
              <LatitudeDegrees>42.9764873720705509185791015625</LatitudeDegrees>
              <LongitudeDegrees>0.5737595446407794952392578125</LongitudeDegrees>
            </Position>
            <AltitudeMeters>592.4000244140625</AltitudeMeters>
            <DistanceMeters>33902.235047811</DistanceMeters>
          </Trackpoint>
          <Trackpoint>
            <Time>2019-05-08T09:12:26.000Z</Time>
            <Position>
              <LatitudeDegrees>42.97657110728323459625244140625</LatitudeDegrees>
              <LongitudeDegrees>0.5738814175128936767578125</LongitudeDegrees>
            </Position>
            <AltitudeMeters>590.79998779296875</AltitudeMeters>
            <DistanceMeters>33915.849428042</DistanceMeters>
          </Trackpoint>
          <Trackpoint>
            <Time>2019-05-08T09:12:28.000Z</Time>
            <Position>
              <LatitudeDegrees>42.97662726603448390960693359375</LatitudeDegrees>
              <LongitudeDegrees>0.57393464259803295135498046875</LongitudeDegrees>
            </Position>
            <AltitudeMeters>590.20001220703125</AltitudeMeters>
            <DistanceMeters>33923.455127859</DistanceMeters>
          </Trackpoint>
          <Trackpoint>
            <Time>2019-05-08T09:12:31.000Z</Time>
            <Position>
              <LatitudeDegrees>42.9766647331416606903076171875</LatitudeDegrees>
              <LongitudeDegrees>0.57396582327783107757568359375</LongitudeDegrees>
            </Position>
            <AltitudeMeters>586.79998779296875</AltitudeMeters>
            <DistanceMeters>33928.337688848</DistanceMeters>
          </Trackpoint>
          <Trackpoint>
            <Time>2019-05-08T09:12:35.000Z</Time>
            <Position>
              <LatitudeDegrees>42.976720221340656280517578125</LatitudeDegrees>
              <LongitudeDegrees>0.57395760901272296905517578125</LongitudeDegrees>
            </Position>
            <AltitudeMeters>585</AltitudeMeters>
            <DistanceMeters>33934.550139791</DistanceMeters>
          </Trackpoint>
          <Trackpoint>
            <Time>2019-05-08T09:12:43.000Z</Time>
            <Position>
              <LatitudeDegrees>42.976959608495235443115234375</LatitudeDegrees>
              <LongitudeDegrees>0.57398677803575992584228515625</LongitudeDegrees>
            </Position>
            <AltitudeMeters>583.79998779296875</AltitudeMeters>
            <DistanceMeters>33961.30011769</DistanceMeters>
          </Trackpoint>
          <Trackpoint>
            <Time>2019-05-08T09:12:44.000Z</Time>
            <Position>
              <LatitudeDegrees>42.97703579999506473541259765625</LatitudeDegrees>
              <LongitudeDegrees>0.5739928968250751495361328125</LongitudeDegrees>
            </Position>
            <AltitudeMeters>583.5999755859375</AltitudeMeters>
            <DistanceMeters>33969.794251594</DistanceMeters>
          </Trackpoint>
          <Trackpoint>
            <Time>2019-05-08T09:12:49.000Z</Time>
            <Position>
              <LatitudeDegrees>42.97724300064146518707275390625</LatitudeDegrees>
              <LongitudeDegrees>0.5740525759756565093994140625</LongitudeDegrees>
            </Position>
            <AltitudeMeters>583.4000244140625</AltitudeMeters>
            <DistanceMeters>33993.362409397</DistanceMeters>
          </Trackpoint>
          <Trackpoint>
            <Time>2019-05-08T09:12:51.000Z</Time>
            <Position>
              <LatitudeDegrees>42.97730988822877407073974609375</LatitudeDegrees>
              <LongitudeDegrees>0.57410144247114658355712890625</LongitudeDegrees>
            </Position>
            <AltitudeMeters>583.20001220703125</AltitudeMeters>
            <DistanceMeters>34001.804290899</DistanceMeters>
          </Trackpoint>
          <Trackpoint>
            <Time>2019-05-08T09:12:53.000Z</Time>
            <Position>
              <LatitudeDegrees>42.9773627780377864837646484375</LatitudeDegrees>
              <LongitudeDegrees>0.5741417594254016876220703125</LongitudeDegrees>
            </Position>
            <AltitudeMeters>582.4000244140625</AltitudeMeters>
            <DistanceMeters>34008.545162109</DistanceMeters>
          </Trackpoint>
          <Trackpoint>
            <Time>2019-05-08T09:12:54.000Z</Time>
            <Position>
              <LatitudeDegrees>42.9773802123963832855224609375</LatitudeDegrees>
              <LongitudeDegrees>0.57416112162172794342041015625</LongitudeDegrees>
            </Position>
            <AltitudeMeters>582.4000244140625</AltitudeMeters>
            <DistanceMeters>34011.044924677</DistanceMeters>
          </Trackpoint>
          <Trackpoint>
            <Time>2019-05-08T09:12:59.000Z</Time>
            <Position>
              <LatitudeDegrees>42.9774479381740093231201171875</LatitudeDegrees>
              <LongitudeDegrees>0.57429657317698001861572265625</LongitudeDegrees>
            </Position>
            <AltitudeMeters>581</AltitudeMeters>
            <DistanceMeters>34024.404883172</DistanceMeters>
          </Trackpoint>
          <Trackpoint>
            <Time>2019-05-08T09:13:05.000Z</Time>
            <Position>
              <LatitudeDegrees>42.97750937752425670623779296875</LatitudeDegrees>
              <LongitudeDegrees>0.57445339858531951904296875</LongitudeDegrees>
            </Position>
            <AltitudeMeters>580.20001220703125</AltitudeMeters>
            <DistanceMeters>34038.890769973</DistanceMeters>
          </Trackpoint>
          <Trackpoint>
            <Time>2019-05-08T09:13:10.000Z</Time>
            <Position>
              <LatitudeDegrees>42.9775911010801792144775390625</LatitudeDegrees>
              <LongitudeDegrees>0.5745890177786350250244140625</LongitudeDegrees>
            </Position>
            <AltitudeMeters>580.20001220703125</AltitudeMeters>
            <DistanceMeters>34053.1982087</DistanceMeters>
          </Trackpoint>
          <Trackpoint>
            <Time>2019-05-08T09:13:13.000Z</Time>
            <Position>
              <LatitudeDegrees>42.97764399088919162750244140625</LatitudeDegrees>
              <LongitudeDegrees>0.5746235512197017669677734375</LongitudeDegrees>
            </Position>
            <AltitudeMeters>580</AltitudeMeters>
            <DistanceMeters>34059.72260755</DistanceMeters>
          </Trackpoint>
          <Trackpoint>
            <Time>2019-05-08T09:13:14.000Z</Time>
            <Position>
              <LatitudeDegrees>42.97766444273293018341064453125</LatitudeDegrees>
              <LongitudeDegrees>0.57461726479232311248779296875</LongitudeDegrees>
            </Position>
            <AltitudeMeters>580.20001220703125</AltitudeMeters>
            <DistanceMeters>34062.058023181</DistanceMeters>
          </Trackpoint>
          <Trackpoint>
            <Time>2019-05-08T09:13:19.000Z</Time>
            <Position>
              <LatitudeDegrees>42.9777905903756618499755859375</LatitudeDegrees>
              <LongitudeDegrees>0.57451902888715267181396484375</LongitudeDegrees>
            </Position>
            <AltitudeMeters>579.5999755859375</AltitudeMeters>
            <DistanceMeters>34078.217594667</DistanceMeters>
          </Trackpoint>
          <Trackpoint>
            <Time>2019-05-08T09:13:23.000Z</Time>
            <Position>
              <LatitudeDegrees>42.97787985764443874359130859375</LatitudeDegrees>
              <LongitudeDegrees>0.57437335141003131866455078125</LongitudeDegrees>
            </Position>
            <AltitudeMeters>579.20001220703125</AltitudeMeters>
            <DistanceMeters>34093.691492269</DistanceMeters>
          </Trackpoint>
          <Trackpoint>
            <Time>2019-05-08T09:13:24.000Z</Time>
            <Position>
              <LatitudeDegrees>42.977905087172985076904296875</LatitudeDegrees>
              <LongitudeDegrees>0.57433395646512508392333984375</LongitudeDegrees>
            </Position>
            <AltitudeMeters>579</AltitudeMeters>
            <DistanceMeters>34097.956064224</DistanceMeters>
          </Trackpoint>
          <Trackpoint>
            <Time>2019-05-08T09:13:26.000Z</Time>
            <Position>
              <LatitudeDegrees>42.97795931808650493621826171875</LatitudeDegrees>
              <LongitudeDegrees>0.57425483129918575286865234375</LongitudeDegrees>
            </Position>
            <AltitudeMeters>578.79998779296875</AltitudeMeters>
            <DistanceMeters>34106.784859151</DistanceMeters>
          </Trackpoint>
          <Trackpoint>
            <Time>2019-05-08T09:13:31.000Z</Time>
            <Position>
              <LatitudeDegrees>42.97808982431888580322265625</LatitudeDegrees>
              <LongitudeDegrees>0.5741028673946857452392578125</LongitudeDegrees>
            </Position>
            <AltitudeMeters>578.4000244140625</AltitudeMeters>
            <DistanceMeters>34125.867018424</DistanceMeters>
          </Trackpoint>
          <Trackpoint>
            <Time>2019-05-08T09:13:32.000Z</Time>
            <Position>
              <LatitudeDegrees>42.97811052761971950531005859375</LatitudeDegrees>
              <LongitudeDegrees>0.57406975887715816497802734375</LongitudeDegrees>
            </Position>
            <AltitudeMeters>578.4000244140625</AltitudeMeters>
            <DistanceMeters>34129.414965233</DistanceMeters>
          </Trackpoint>
          <Trackpoint>
            <Time>2019-05-08T09:13:35.000Z</Time>
            <Position>
              <LatitudeDegrees>42.97817925922572612762451171875</LatitudeDegrees>
              <LongitudeDegrees>0.5739714391529560089111328125</LongitudeDegrees>
            </Position>
            <AltitudeMeters>577.79998779296875</AltitudeMeters>
            <DistanceMeters>34140.488737766</DistanceMeters>
          </Trackpoint>
          <Trackpoint>
            <Time>2019-05-08T09:13:38.000Z</Time>
            <Position>
              <LatitudeDegrees>42.97825503163039684295654296875</LatitudeDegrees>
              <LongitudeDegrees>0.57387932203710079193115234375</LongitudeDegrees>
            </Position>
            <AltitudeMeters>577.79998779296875</AltitudeMeters>
            <DistanceMeters>34151.775735528</DistanceMeters>
          </Trackpoint>
          <Trackpoint>
            <Time>2019-05-08T09:13:43.000Z</Time>
            <Position>
              <LatitudeDegrees>42.97838008962571620941162109375</LatitudeDegrees>
              <LongitudeDegrees>0.5737231671810150146484375</LongitudeDegrees>
            </Position>
            <AltitudeMeters>577.5999755859375</AltitudeMeters>
            <DistanceMeters>34170.628662062</DistanceMeters>
          </Trackpoint>
          <Trackpoint>
            <Time>2019-05-08T09:13:48.000Z</Time>
            <Position>
              <LatitudeDegrees>42.9785439558327198028564453125</LatitudeDegrees>
              <LongitudeDegrees>0.57360003702342510223388671875</LongitudeDegrees>
            </Position>
            <AltitudeMeters>577.79998779296875</AltitudeMeters>
            <DistanceMeters>34191.441681956</DistanceMeters>
          </Trackpoint>
          <Trackpoint>
            <Time>2019-05-08T09:13:49.000Z</Time>
            <Position>
              <LatitudeDegrees>42.9785801656544208526611328125</LatitudeDegrees>
              <LongitudeDegrees>0.5735731311142444610595703125</LongitudeDegrees>
            </Position>
            <AltitudeMeters>577.79998779296875</AltitudeMeters>
            <DistanceMeters>34196.029612665</DistanceMeters>
          </Trackpoint>
          <Trackpoint>
            <Time>2019-05-08T09:13:52.000Z</Time>
            <Position>
              <LatitudeDegrees>42.978681586682796478271484375</LatitudeDegrees>
              <LongitudeDegrees>0.57348109781742095947265625</LongitudeDegrees>
            </Position>
            <AltitudeMeters>577.79998779296875</AltitudeMeters>
            <DistanceMeters>34209.57916927</DistanceMeters>
          </Trackpoint>
          <Trackpoint>
            <Time>2019-05-08T09:13:54.000Z</Time>
            <Position>
              <LatitudeDegrees>42.97873229719698429107666015625</LatitudeDegrees>
              <LongitudeDegrees>0.57340708561241626739501953125</LongitudeDegrees>
            </Position>
            <AltitudeMeters>577.79998779296875</AltitudeMeters>
            <DistanceMeters>34217.836110419</DistanceMeters>
          </Trackpoint>
          <Trackpoint>
            <Time>2019-05-08T09:14:00.000Z</Time>
            <Position>
              <LatitudeDegrees>42.97887227497994899749755859375</LatitudeDegrees>
              <LongitudeDegrees>0.573159568011760711669921875</LongitudeDegrees>
            </Position>
            <AltitudeMeters>578</AltitudeMeters>
            <DistanceMeters>34243.310714906</DistanceMeters>
          </Trackpoint>
          <Trackpoint>
            <Time>2019-05-08T09:14:03.000Z</Time>
            <Position>
              <LatitudeDegrees>42.97893698327243328094482421875</LatitudeDegrees>
              <LongitudeDegrees>0.573031492531299591064453125</LongitudeDegrees>
            </Position>
            <AltitudeMeters>577.79998779296875</AltitudeMeters>
            <DistanceMeters>34255.985298131</DistanceMeters>
          </Trackpoint>
          <Trackpoint>
            <Time>2019-05-08T09:14:07.000Z</Time>
            <Position>
              <LatitudeDegrees>42.97903387807309627532958984375</LatitudeDegrees>
              <LongitudeDegrees>0.57288439013063907623291015625</LongitudeDegrees>
            </Position>
            <AltitudeMeters>578</AltitudeMeters>
            <DistanceMeters>34272.103184755</DistanceMeters>
          </Trackpoint>
          <Trackpoint>
            <Time>2019-05-08T09:14:12.000Z</Time>
            <Position>
              <LatitudeDegrees>42.97914653085172176361083984375</LatitudeDegrees>
              <LongitudeDegrees>0.5726923607289791107177734375</LongitudeDegrees>
            </Position>
            <AltitudeMeters>578.20001220703125</AltitudeMeters>
            <DistanceMeters>34292.14638911</DistanceMeters>
          </Trackpoint>
          <Trackpoint>
            <Time>2019-05-08T09:14:13.000Z</Time>
            <Position>
              <LatitudeDegrees>42.9791622050106525421142578125</LatitudeDegrees>
              <LongitudeDegrees>0.5726581625640392303466796875</LongitudeDegrees>
            </Position>
            <AltitudeMeters>578.20001220703125</AltitudeMeters>
            <DistanceMeters>34295.432720108</DistanceMeters>
          </Trackpoint>
          <Trackpoint>
            <Time>2019-05-08T09:14:17.000Z</Time>
            <Position>
              <LatitudeDegrees>42.97924560494720935821533203125</LatitudeDegrees>
              <LongitudeDegrees>0.5725103057920932769775390625</LongitudeDegrees>
            </Position>
            <AltitudeMeters>578.20001220703125</AltitudeMeters>
            <DistanceMeters>34310.635212552</DistanceMeters>
          </Trackpoint>
          <Trackpoint>
            <Time>2019-05-08T09:14:18.000Z</Time>
            <Position>
              <LatitudeDegrees>42.979263961315155029296875</LatitudeDegrees>
              <LongitudeDegrees>0.57246864773333072662353515625</LongitudeDegrees>
            </Position>
            <AltitudeMeters>578.4000244140625</AltitudeMeters>
            <DistanceMeters>34314.59453228</DistanceMeters>
          </Trackpoint>
          <Trackpoint>
            <Time>2019-05-08T09:14:23.000Z</Time>
            <Position>
              <LatitudeDegrees>42.9793469421565532684326171875</LatitudeDegrees>
              <LongitudeDegrees>0.57225809432566165924072265625</LongitudeDegrees>
            </Position>
            <AltitudeMeters>579.20001220703125</AltitudeMeters>
            <DistanceMeters>34334.069213552</DistanceMeters>
          </Trackpoint>
          <Trackpoint>
            <Time>2019-05-08T09:14:25.000Z</Time>
            <Position>
              <LatitudeDegrees>42.979375608265399932861328125</LatitudeDegrees>
              <LongitudeDegrees>0.57216807268559932708740234375</LongitudeDegrees>
            </Position>
            <AltitudeMeters>579.5999755859375</AltitudeMeters>
            <DistanceMeters>34342.063891849</DistanceMeters>
          </Trackpoint>
          <Trackpoint>
            <Time>2019-05-08T09:14:29.000Z</Time>
            <Position>
              <LatitudeDegrees>42.97944626770913600921630859375</LatitudeDegrees>
              <LongitudeDegrees>0.571982748806476593017578125</LongitudeDegrees>
            </Position>
            <AltitudeMeters>579.79998779296875</AltitudeMeters>
            <DistanceMeters>34359.080839031</DistanceMeters>
          </Trackpoint>
          <Trackpoint>
            <Time>2019-05-08T09:14:32.000Z</Time>
            <Position>
              <LatitudeDegrees>42.979510724544525146484375</LatitudeDegrees>
              <LongitudeDegrees>0.57184360921382904052734375</LongitudeDegrees>
            </Position>
            <AltitudeMeters>580</AltitudeMeters>
            <DistanceMeters>34372.491057984</DistanceMeters>
          </Trackpoint>
          <Trackpoint>
            <Time>2019-05-08T09:14:35.000Z</Time>
            <Position>
              <LatitudeDegrees>42.9795709066092967987060546875</LatitudeDegrees>
              <LongitudeDegrees>0.5717207305133342742919921875</LongitudeDegrees>
            </Position>
            <AltitudeMeters>580.5999755859375</AltitudeMeters>
            <DistanceMeters>34384.532483874</DistanceMeters>
          </Trackpoint>
          <Trackpoint>
            <Time>2019-05-08T09:14:37.000Z</Time>
            <Position>
              <LatitudeDegrees>42.979609631001949310302734375</LatitudeDegrees>
              <LongitudeDegrees>0.5716551840305328369140625</LongitudeDegrees>
            </Position>
            <AltitudeMeters>580.79998779296875</AltitudeMeters>
            <DistanceMeters>34391.392859843</DistanceMeters>
          </Trackpoint>
          <Trackpoint>
            <Time>2019-05-08T09:14:39.000Z</Time>
            <Position>
              <LatitudeDegrees>42.97964944504201412200927734375</LatitudeDegrees>
              <LongitudeDegrees>0.57159684598445892333984375</LongitudeDegrees>
            </Position>
            <AltitudeMeters>581.20001220703125</AltitudeMeters>
            <DistanceMeters>34397.88882376</DistanceMeters>
          </Trackpoint>
          <Trackpoint>
            <Time>2019-05-08T09:14:43.000Z</Time>
            <Position>
              <LatitudeDegrees>42.9797455854713916778564453125</LatitudeDegrees>
              <LongitudeDegrees>0.57148955762386322021484375</LongitudeDegrees>
            </Position>
            <AltitudeMeters>582</AltitudeMeters>
            <DistanceMeters>34411.702714429</DistanceMeters>
          </Trackpoint>
          <Trackpoint>
            <Time>2019-05-08T09:14:44.000Z</Time>
            <Position>
              <LatitudeDegrees>42.97977148555219173431396484375</LatitudeDegrees>
              <LongitudeDegrees>0.5714622326195240020751953125</LongitudeDegrees>
            </Position>
            <AltitudeMeters>582.4000244140625</AltitudeMeters>
            <DistanceMeters>34415.343614348</DistanceMeters>
          </Trackpoint>
          <Trackpoint>
            <Time>2019-05-08T09:14:51.000Z</Time>
            <Position>
              <LatitudeDegrees>42.9799702204763889312744140625</LatitudeDegrees>
              <LongitudeDegrees>0.57126768864691257476806640625</LongitudeDegrees>
            </Position>
            <AltitudeMeters>583.79998779296875</AltitudeMeters>
            <DistanceMeters>34442.550809838</DistanceMeters>
          </Trackpoint>
          <Trackpoint>
            <Time>2019-05-08T09:14:59.000Z</Time>
            <Position>
              <LatitudeDegrees>42.980188317596912384033203125</LatitudeDegrees>
              <LongitudeDegrees>0.57097725570201873779296875</LongitudeDegrees>
            </Position>
            <AltitudeMeters>584</AltitudeMeters>
            <DistanceMeters>34476.441125314</DistanceMeters>
          </Trackpoint>
          <Trackpoint>
            <Time>2019-05-08T09:15:04.000Z</Time>
            <Position>
              <LatitudeDegrees>42.9803028143942356109619140625</LatitudeDegrees>
              <LongitudeDegrees>0.570800565183162689208984375</LongitudeDegrees>
            </Position>
            <AltitudeMeters>584.5999755859375</AltitudeMeters>
            <DistanceMeters>34495.660968372</DistanceMeters>
          </Trackpoint>
          <Trackpoint>
            <Time>2019-05-08T09:15:06.000Z</Time>
            <Position>
              <LatitudeDegrees>42.980336509644985198974609375</LatitudeDegrees>
              <LongitudeDegrees>0.5707360245287418365478515625</LongitudeDegrees>
            </Position>
            <AltitudeMeters>584.5999755859375</AltitudeMeters>
            <DistanceMeters>34502.117892016</DistanceMeters>
          </Trackpoint>
          <Trackpoint>
            <Time>2019-05-08T09:15:11.000Z</Time>
            <Position>
              <LatitudeDegrees>42.98042745329439640045166015625</LatitudeDegrees>
              <LongitudeDegrees>0.57057148776948451995849609375</LongitudeDegrees>
            </Position>
            <AltitudeMeters>585.20001220703125</AltitudeMeters>
            <DistanceMeters>34518.909410913</DistanceMeters>
          </Trackpoint>
          <Trackpoint>
            <Time>2019-05-08T09:15:14.000Z</Time>
            <Position>
              <LatitudeDegrees>42.98048277385532855987548828125</LatitudeDegrees>
              <LongitudeDegrees>0.5704788677394390106201171875</LongitudeDegrees>
            </Position>
            <AltitudeMeters>585.4000244140625</AltitudeMeters>
            <DistanceMeters>34528.645360401</DistanceMeters>
          </Trackpoint>
          <Trackpoint>
            <Time>2019-05-08T09:15:17.000Z</Time>
            <Position>
              <LatitudeDegrees>42.98055033199489116668701171875</LatitudeDegrees>
              <LongitudeDegrees>0.57040192186832427978515625</LongitudeDegrees>
            </Position>
            <AltitudeMeters>585.5999755859375</AltitudeMeters>
            <DistanceMeters>34538.432189348</DistanceMeters>
          </Trackpoint>
          <Trackpoint>
            <Time>2019-05-08T09:15:21.000Z</Time>
            <Position>
              <LatitudeDegrees>42.980661056935787200927734375</LatitudeDegrees>
              <LongitudeDegrees>0.57033981196582317352294921875</LongitudeDegrees>
            </Position>
            <AltitudeMeters>586.4000244140625</AltitudeMeters>
            <DistanceMeters>34551.753226553</DistanceMeters>
          </Trackpoint>
          <Trackpoint>
            <Time>2019-05-08T09:15:25.000Z</Time>
            <Position>
              <LatitudeDegrees>42.98076909966766834259033203125</LatitudeDegrees>
              <LongitudeDegrees>0.570277534425258636474609375</LongitudeDegrees>
            </Position>
            <AltitudeMeters>587</AltitudeMeters>
            <DistanceMeters>34564.804100159</DistanceMeters>
          </Trackpoint>
          <Trackpoint>
            <Time>2019-05-08T09:15:27.000Z</Time>
            <Position>
              <LatitudeDegrees>42.9808234982192516326904296875</LatitudeDegrees>
              <LongitudeDegrees>0.57024124078452587127685546875</LongitudeDegrees>
            </Position>
            <AltitudeMeters>587.20001220703125</AltitudeMeters>
            <DistanceMeters>34571.540951368</DistanceMeters>
          </Trackpoint>
          <Trackpoint>
            <Time>2019-05-08T09:15:33.000Z</Time>
            <Position>
              <LatitudeDegrees>42.98097764141857624053955078125</LatitudeDegrees>
              <LongitudeDegrees>0.570096485316753387451171875</LongitudeDegrees>
            </Position>
            <AltitudeMeters>588.4000244140625</AltitudeMeters>
            <DistanceMeters>34592.35592357</DistanceMeters>
          </Trackpoint>
          <Trackpoint>
            <Time>2019-05-08T09:15:36.000Z</Time>
            <Position>
              <LatitudeDegrees>42.98103899694979190826416015625</LatitudeDegrees>
              <LongitudeDegrees>0.57000788860023021697998046875</LongitudeDegrees>
            </Position>
            <AltitudeMeters>588.5999755859375</AltitudeMeters>
            <DistanceMeters>34602.289283792</DistanceMeters>
          </Trackpoint>
          <Trackpoint>
            <Time>2019-05-08T09:15:39.000Z</Time>
            <Position>
              <LatitudeDegrees>42.9810860194265842437744140625</LatitudeDegrees>
              <LongitudeDegrees>0.56992121972143650054931640625</LongitudeDegrees>
            </Position>
            <AltitudeMeters>588.79998779296875</AltitudeMeters>
            <DistanceMeters>34611.075530062</DistanceMeters>
          </Trackpoint>
          <Trackpoint>
            <Time>2019-05-08T09:15:44.000Z</Time>
            <Position>
              <LatitudeDegrees>42.9811426810920238494873046875</LatitudeDegrees>
              <LongitudeDegrees>0.56978308595716953277587890625</LongitudeDegrees>
            </Position>
            <AltitudeMeters>589</AltitudeMeters>
            <DistanceMeters>34623.970483635</DistanceMeters>
          </Trackpoint>
          <Trackpoint>
            <Time>2019-05-08T09:15:46.000Z</Time>
            <Position>
              <LatitudeDegrees>42.98116807825863361358642578125</LatitudeDegrees>
              <LongitudeDegrees>0.56973145343363285064697265625</LongitudeDegrees>
            </Position>
            <AltitudeMeters>590.20001220703125</AltitudeMeters>
            <DistanceMeters>34629.036396904</DistanceMeters>
          </Trackpoint>
          <Trackpoint>
            <Time>2019-05-08T09:15:49.000Z</Time>
            <Position>
              <LatitudeDegrees>42.98120378516614437103271484375</LatitudeDegrees>
              <LongitudeDegrees>0.56964822113513946533203125</LongitudeDegrees>
            </Position>
            <AltitudeMeters>591</AltitudeMeters>
            <DistanceMeters>34636.893215762</DistanceMeters>
          </Trackpoint>
          <Trackpoint>
            <Time>2019-05-08T09:15:52.000Z</Time>
            <Position>
              <LatitudeDegrees>42.9812429286539554595947265625</LatitudeDegrees>
              <LongitudeDegrees>0.56956750340759754180908203125</LongitudeDegrees>
            </Position>
            <AltitudeMeters>591.4000244140625</AltitudeMeters>
            <DistanceMeters>34644.778715518</DistanceMeters>
          </Trackpoint>
          <Trackpoint>
            <Time>2019-05-08T09:15:53.000Z</Time>
            <Position>
              <LatitudeDegrees>42.9812586866319179534912109375</LatitudeDegrees>
              <LongitudeDegrees>0.56954219006001949310302734375</LongitudeDegrees>
            </Position>
            <AltitudeMeters>591.79998779296875</AltitudeMeters>
            <DistanceMeters>34647.484892156</DistanceMeters>
          </Trackpoint>
          <Trackpoint>
            <Time>2019-05-08T09:15:56.000Z</Time>
            <Position>
              <LatitudeDegrees>42.981299422681331634521484375</LatitudeDegrees>
              <LongitudeDegrees>0.56946306489408016204833984375</LongitudeDegrees>
            </Position>
            <AltitudeMeters>592.4000244140625</AltitudeMeters>
            <DistanceMeters>34655.363518018</DistanceMeters>
          </Trackpoint>
          <Trackpoint>
            <Time>2019-05-08T09:15:58.000Z</Time>
            <Position>
              <LatitudeDegrees>42.98132498748600482940673828125</LatitudeDegrees>
              <LongitudeDegrees>0.5694115161895751953125</LongitudeDegrees>
            </Position>
            <AltitudeMeters>593</AltitudeMeters>
            <DistanceMeters>34660.434776019</DistanceMeters>
          </Trackpoint>
          <Trackpoint>
            <Time>2019-05-08T09:15:59.000Z</Time>
            <Position>
              <LatitudeDegrees>42.9813374765217304229736328125</LatitudeDegrees>
              <LongitudeDegrees>0.56938427500426769256591796875</LongitudeDegrees>
            </Position>
            <AltitudeMeters>593</AltitudeMeters>
            <DistanceMeters>34663.052757688</DistanceMeters>
          </Trackpoint>
          <Trackpoint>
            <Time>2019-05-08T09:16:03.000Z</Time>
            <Position>
              <LatitudeDegrees>42.98137544654309749603271484375</LatitudeDegrees>
              <LongitudeDegrees>0.5692755617201328277587890625</LongitudeDegrees>
            </Position>
            <AltitudeMeters>594.20001220703125</AltitudeMeters>
            <DistanceMeters>34672.862166161</DistanceMeters>
          </Trackpoint>
          <Trackpoint>
            <Time>2019-05-08T09:16:05.000Z</Time>
            <Position>
              <LatitudeDegrees>42.98139162361621856689453125</LatitudeDegrees>
              <LongitudeDegrees>0.5692269466817378997802734375</LongitudeDegrees>
            </Position>
            <AltitudeMeters>594.79998779296875</AltitudeMeters>
            <DistanceMeters>34677.210611869</DistanceMeters>
          </Trackpoint>
          <Trackpoint>
            <Time>2019-05-08T09:16:08.000Z</Time>
            <Position>
              <LatitudeDegrees>42.9814139194786548614501953125</LatitudeDegrees>
              <LongitudeDegrees>0.56914664804935455322265625</LongitudeDegrees>
            </Position>
            <AltitudeMeters>596</AltitudeMeters>
            <DistanceMeters>34684.20395828</DistanceMeters>
          </Trackpoint>
          <Trackpoint>
            <Time>2019-05-08T09:16:13.000Z</Time>
            <Position>
              <LatitudeDegrees>42.98146479763090610504150390625</LatitudeDegrees>
              <LongitudeDegrees>0.56903072632849216461181640625</LongitudeDegrees>
            </Position>
            <AltitudeMeters>597.79998779296875</AltitudeMeters>
            <DistanceMeters>34695.211481422</DistanceMeters>
          </Trackpoint>
          <Trackpoint>
            <Time>2019-05-08T09:16:20.000Z</Time>
            <Position>
              <LatitudeDegrees>42.981576025485992431640625</LatitudeDegrees>
              <LongitudeDegrees>0.5688886530697345733642578125</LongitudeDegrees>
            </Position>
            <AltitudeMeters>599.20001220703125</AltitudeMeters>
            <DistanceMeters>34712.155306857</DistanceMeters>
          </Trackpoint>
          <Trackpoint>
            <Time>2019-05-08T09:16:27.000Z</Time>
            <Position>
              <LatitudeDegrees>42.98169479705393314361572265625</LatitudeDegrees>
              <LongitudeDegrees>0.56874607689678668975830078125</LongitudeDegrees>
            </Position>
            <AltitudeMeters>599.5999755859375</AltitudeMeters>
            <DistanceMeters>34729.748855685</DistanceMeters>
          </Trackpoint>
          <Trackpoint>
            <Time>2019-05-08T09:16:32.000Z</Time>
            <Position>
              <LatitudeDegrees>42.98179051838815212249755859375</LatitudeDegrees>
              <LongitudeDegrees>0.568647421896457672119140625</LongitudeDegrees>
            </Position>
            <AltitudeMeters>599.5999755859375</AltitudeMeters>
            <DistanceMeters>34743.092244207</DistanceMeters>
          </Trackpoint>
          <Trackpoint>
            <Time>2019-05-08T09:16:37.000Z</Time>
            <Position>
              <LatitudeDegrees>42.9818812943994998931884765625</LatitudeDegrees>
              <LongitudeDegrees>0.56853686459362506866455078125</LongitudeDegrees>
            </Position>
            <AltitudeMeters>600.4000244140625</AltitudeMeters>
            <DistanceMeters>34756.624462066</DistanceMeters>
          </Trackpoint>
          <Trackpoint>
            <Time>2019-05-08T09:16:41.000Z</Time>
            <Position>
              <LatitudeDegrees>42.98195279203355312347412109375</LatitudeDegrees>
              <LongitudeDegrees>0.568448938429355621337890625</LongitudeDegrees>
            </Position>
            <AltitudeMeters>601.20001220703125</AltitudeMeters>
            <DistanceMeters>34767.328368359</DistanceMeters>
          </Trackpoint>
          <Trackpoint>
            <Time>2019-05-08T09:16:44.000Z</Time>
            <Position>
              <LatitudeDegrees>42.9820110462605953216552734375</LatitudeDegrees>
              <LongitudeDegrees>0.5683820508420467376708984375</LongitudeDegrees>
            </Position>
            <AltitudeMeters>601.4000244140625</AltitudeMeters>
            <DistanceMeters>34775.796416366</DistanceMeters>
          </Trackpoint>
          <Trackpoint>
            <Time>2019-05-08T09:16:49.000Z</Time>
            <Position>
              <LatitudeDegrees>42.9820938594639301300048828125</LatitudeDegrees>
              <LongitudeDegrees>0.56826696731150150299072265625</LongitudeDegrees>
            </Position>
            <AltitudeMeters>602.20001220703125</AltitudeMeters>
            <DistanceMeters>34788.940366401</DistanceMeters>
          </Trackpoint>
          <Trackpoint>
            <Time>2019-05-08T09:16:53.000Z</Time>
            <Position>
              <LatitudeDegrees>42.9821578972041606903076171875</LatitudeDegrees>
              <LongitudeDegrees>0.56817074306309223175048828125</LongitudeDegrees>
            </Position>
            <AltitudeMeters>602.5999755859375</AltitudeMeters>
            <DistanceMeters>34799.531902628</DistanceMeters>
          </Trackpoint>
          <Trackpoint>
            <Time>2019-05-08T09:16:55.000Z</Time>
            <Position>
              <LatitudeDegrees>42.98218958079814910888671875</LatitudeDegrees>
              <LongitudeDegrees>0.56812397204339504241943359375</LongitudeDegrees>
            </Position>
            <AltitudeMeters>602.79998779296875</AltitudeMeters>
            <DistanceMeters>34804.721092156</DistanceMeters>
          </Trackpoint>
          <Trackpoint>
            <Time>2019-05-08T09:17:00.000Z</Time>
            <Position>
              <LatitudeDegrees>42.98226895742118358612060546875</LatitudeDegrees>
              <LongitudeDegrees>0.56801014579832553863525390625</LongitudeDegrees>
            </Position>
            <AltitudeMeters>603.5999755859375</AltitudeMeters>
            <DistanceMeters>34817.525390962</DistanceMeters>
          </Trackpoint>
          <Trackpoint>
            <Time>2019-05-08T09:17:01.000Z</Time>
            <Position>
              <LatitudeDegrees>42.9822842963039875030517578125</LatitudeDegrees>
              <LongitudeDegrees>0.56799019686877727508544921875</LongitudeDegrees>
            </Position>
            <AltitudeMeters>604</AltitudeMeters>
            <DistanceMeters>34819.881976843</DistanceMeters>
          </Trackpoint>
          <Trackpoint>
            <Time>2019-05-08T09:17:09.000Z</Time>
            <Position>
              <LatitudeDegrees>42.9824113659560680389404296875</LatitudeDegrees>
              <LongitudeDegrees>0.5678184516727924346923828125</LongitudeDegrees>
            </Position>
            <AltitudeMeters>606</AltitudeMeters>
            <DistanceMeters>34839.770956925</DistanceMeters>
          </Trackpoint>
          <Trackpoint>
            <Time>2019-05-08T09:17:15.000Z</Time>
            <Position>
              <LatitudeDegrees>42.98254069872200489044189453125</LatitudeDegrees>
              <LongitudeDegrees>0.567630864679813385009765625</LongitudeDegrees>
            </Position>
            <AltitudeMeters>606.20001220703125</AltitudeMeters>
            <DistanceMeters>34860.759602647</DistanceMeters>
          </Trackpoint>
          <Trackpoint>
            <Time>2019-05-08T09:17:17.000Z</Time>
            <Position>
              <LatitudeDegrees>42.9825927503407001495361328125</LatitudeDegrees>
              <LongitudeDegrees>0.5675633065402507781982421875</LongitudeDegrees>
            </Position>
            <AltitudeMeters>606.20001220703125</AltitudeMeters>
            <DistanceMeters>34868.748631393</DistanceMeters>
          </Trackpoint>
          <Trackpoint>
            <Time>2019-05-08T09:17:20.000Z</Time>
            <Position>
              <LatitudeDegrees>42.98267430625855922698974609375</LatitudeDegrees>
              <LongitudeDegrees>0.56746884249150753021240234375</LongitudeDegrees>
            </Position>
            <AltitudeMeters>606.20001220703125</AltitudeMeters>
            <DistanceMeters>34880.647099298</DistanceMeters>
          </Trackpoint>
          <Trackpoint>
            <Time>2019-05-08T09:17:22.000Z</Time>
            <Position>
              <LatitudeDegrees>42.98272895626723766326904296875</LatitudeDegrees>
              <LongitudeDegrees>0.56740396656095981597900390625</LongitudeDegrees>
            </Position>
            <AltitudeMeters>605.79998779296875</AltitudeMeters>
            <DistanceMeters>34888.703661188</DistanceMeters>
          </Trackpoint>
          <Trackpoint>
            <Time>2019-05-08T09:17:25.000Z</Time>
            <Position>
              <LatitudeDegrees>42.98281964845955371856689453125</LatitudeDegrees>
              <LongitudeDegrees>0.56730723939836025238037109375</LongitudeDegrees>
            </Position>
            <AltitudeMeters>605.4000244140625</AltitudeMeters>
            <DistanceMeters>34901.507254737</DistanceMeters>
          </Trackpoint>
          <Trackpoint>
            <Time>2019-05-08T09:17:26.000Z</Time>
            <Position>
              <LatitudeDegrees>42.98285200260579586029052734375</LatitudeDegrees>
              <LongitudeDegrees>0.56727052666246891021728515625</LongitudeDegrees>
            </Position>
            <AltitudeMeters>605.4000244140625</AltitudeMeters>
            <DistanceMeters>34906.187742473</DistanceMeters>
          </Trackpoint>
          <Trackpoint>
            <Time>2019-05-08T09:17:28.000Z</Time>
            <Position>
              <LatitudeDegrees>42.98292182385921478271484375</LatitudeDegrees>
              <LongitudeDegrees>0.56718989275395870208740234375</LongitudeDegrees>
            </Position>
            <AltitudeMeters>605.4000244140625</AltitudeMeters>
            <DistanceMeters>34916.361371924</DistanceMeters>
          </Trackpoint>
          <Trackpoint>
            <Time>2019-05-08T09:17:30.000Z</Time>
            <Position>
              <LatitudeDegrees>42.9829923994839191436767578125</LatitudeDegrees>
              <LongitudeDegrees>0.56710842065513134002685546875</LongitudeDegrees>
            </Position>
            <AltitudeMeters>605.4000244140625</AltitudeMeters>
            <DistanceMeters>34926.642717889</DistanceMeters>
          </Trackpoint>
          <Trackpoint>
            <Time>2019-05-08T09:17:36.000Z</Time>
            <Position>
              <LatitudeDegrees>42.9832076467573642730712890625</LatitudeDegrees>
              <LongitudeDegrees>0.56688814423978328704833984375</LongitudeDegrees>
            </Position>
            <AltitudeMeters>603.79998779296875</AltitudeMeters>
            <DistanceMeters>34956.569947998</DistanceMeters>
          </Trackpoint>
          <Trackpoint>
            <Time>2019-05-08T09:17:38.000Z</Time>
            <Position>
              <LatitudeDegrees>42.98328652046620845794677734375</LatitudeDegrees>
              <LongitudeDegrees>0.56681849062442779541015625</LongitudeDegrees>
            </Position>
            <AltitudeMeters>603.5999755859375</AltitudeMeters>
            <DistanceMeters>34967.021158678</DistanceMeters>
          </Trackpoint>
          <Trackpoint>
            <Time>2019-05-08T09:17:40.000Z</Time>
            <Position>
              <LatitudeDegrees>42.98336983658373355865478515625</LatitudeDegrees>
              <LongitudeDegrees>0.5667475797235965728759765625</LongitudeDegrees>
            </Position>
            <AltitudeMeters>603.4000244140625</AltitudeMeters>
            <DistanceMeters>34977.945098453</DistanceMeters>
          </Trackpoint>
          <Trackpoint>
            <Time>2019-05-08T09:17:46.000Z</Time>
            <Position>
              <LatitudeDegrees>42.9836431704461574554443359375</LatitudeDegrees>
              <LongitudeDegrees>0.56651850230991840362548828125</LongitudeDegrees>
            </Position>
            <AltitudeMeters>602.5999755859375</AltitudeMeters>
            <DistanceMeters>35013.630381698</DistanceMeters>
          </Trackpoint>
          <Trackpoint>
            <Time>2019-05-08T09:17:49.000Z</Time>
            <Position>
              <LatitudeDegrees>42.98377744853496551513671875</LatitudeDegrees>
              <LongitudeDegrees>0.5663915164768695831298828125</LongitudeDegrees>
            </Position>
            <AltitudeMeters>602.5999755859375</AltitudeMeters>
            <DistanceMeters>35031.803604193</DistanceMeters>
          </Trackpoint>
          <Trackpoint>
            <Time>2019-05-08T09:17:52.000Z</Time>
            <Position>
              <LatitudeDegrees>42.98391298390924930572509765625</LatitudeDegrees>
              <LongitudeDegrees>0.566234774887561798095703125</LongitudeDegrees>
            </Position>
            <AltitudeMeters>602.5999755859375</AltitudeMeters>
            <DistanceMeters>35051.56322072</DistanceMeters>
          </Trackpoint>
          <Trackpoint>
            <Time>2019-05-08T09:17:53.000Z</Time>
            <Position>
              <LatitudeDegrees>42.9839563183486461639404296875</LatitudeDegrees>
              <LongitudeDegrees>0.56617383845150470733642578125</LongitudeDegrees>
            </Position>
            <AltitudeMeters>602.4000244140625</AltitudeMeters>
            <DistanceMeters>35058.482575119</DistanceMeters>
          </Trackpoint>
          <Trackpoint>
            <Time>2019-05-08T09:17:56.000Z</Time>
            <Position>
              <LatitudeDegrees>42.98408363945782184600830078125</LatitudeDegrees>
              <LongitudeDegrees>0.56597418151795864105224609375</LongitudeDegrees>
            </Position>
            <AltitudeMeters>602.4000244140625</AltitudeMeters>
            <DistanceMeters>35080.048615258</DistanceMeters>
          </Trackpoint>
          <Trackpoint>
            <Time>2019-05-08T09:17:57.000Z</Time>
            <Position>
              <LatitudeDegrees>42.98412169329822063446044921875</LatitudeDegrees>
              <LongitudeDegrees>0.56589321233332157135009765625</LongitudeDegrees>
            </Position>
            <AltitudeMeters>602</AltitudeMeters>
            <DistanceMeters>35087.883566417</DistanceMeters>
          </Trackpoint>
          <Trackpoint>
            <Time>2019-05-08T09:18:03.000Z</Time>
            <Position>
              <LatitudeDegrees>42.98434649594128131866455078125</LatitudeDegrees>
              <LongitudeDegrees>0.56543421931564807891845703125</LongitudeDegrees>
            </Position>
            <AltitudeMeters>599.5999755859375</AltitudeMeters>
            <DistanceMeters>35132.858215535</DistanceMeters>
          </Trackpoint>
          <Trackpoint>
            <Time>2019-05-08T09:18:06.000Z</Time>
            <Position>
              <LatitudeDegrees>42.98444322310388088226318359375</LatitudeDegrees>
              <LongitudeDegrees>0.5652425251901149749755859375</LongitudeDegrees>
            </Position>
            <AltitudeMeters>599</AltitudeMeters>
            <DistanceMeters>35151.819319499</DistanceMeters>
          </Trackpoint>
          <Trackpoint>
            <Time>2019-05-08T09:18:07.000Z</Time>
            <Position>
              <LatitudeDegrees>42.98447373323142528533935546875</LatitudeDegrees>
              <LongitudeDegrees>0.56518510915338993072509765625</LongitudeDegrees>
            </Position>
            <AltitudeMeters>598.79998779296875</AltitudeMeters>
            <DistanceMeters>35157.596443571</DistanceMeters>
          </Trackpoint>
          <Trackpoint>
            <Time>2019-05-08T09:18:09.000Z</Time>
            <Position>
              <LatitudeDegrees>42.98453642986714839935302734375</LatitudeDegrees>
              <LongitudeDegrees>0.56508569978177547454833984375</LongitudeDegrees>
            </Position>
            <AltitudeMeters>598.5999755859375</AltitudeMeters>
            <DistanceMeters>35168.283041569</DistanceMeters>
          </Trackpoint>
          <Trackpoint>
            <Time>2019-05-08T09:18:10.000Z</Time>
            <Position>
              <LatitudeDegrees>42.98456341959536075592041015625</LatitudeDegrees>
              <LongitudeDegrees>0.56503959931433200836181640625</LongitudeDegrees>
            </Position>
            <AltitudeMeters>599</AltitudeMeters>
            <DistanceMeters>35173.091055265</DistanceMeters>
          </Trackpoint>
          <Trackpoint>
            <Time>2019-05-08T09:18:13.000Z</Time>
            <Position>
              <LatitudeDegrees>42.984635420143604278564453125</LatitudeDegrees>
              <LongitudeDegrees>0.5649089254438877105712890625</LongitudeDegrees>
            </Position>
            <AltitudeMeters>598.79998779296875</AltitudeMeters>
            <DistanceMeters>35186.411075609</DistanceMeters>
          </Trackpoint>
          <Trackpoint>
            <Time>2019-05-08T09:18:15.000Z</Time>
            <Position>
              <LatitudeDegrees>42.984694428741931915283203125</LatitudeDegrees>
              <LongitudeDegrees>0.56483843363821506500244140625</LongitudeDegrees>
            </Position>
            <AltitudeMeters>598.79998779296875</AltitudeMeters>
            <DistanceMeters>35195.132850885</DistanceMeters>
          </Trackpoint>
          <Trackpoint>
            <Time>2019-05-08T09:18:17.000Z</Time>
            <Position>
              <LatitudeDegrees>42.98475871793925762176513671875</LatitudeDegrees>
              <LongitudeDegrees>0.56478361599147319793701171875</LongitudeDegrees>
            </Position>
            <AltitudeMeters>599.20001220703125</AltitudeMeters>
            <DistanceMeters>35203.566170639</DistanceMeters>
          </Trackpoint>
          <Trackpoint>
            <Time>2019-05-08T09:18:19.000Z</Time>
            <Position>
              <LatitudeDegrees>42.98483155667781829833984375</LatitudeDegrees>
              <LongitudeDegrees>0.56474120356142520904541015625</LongitudeDegrees>
            </Position>
            <AltitudeMeters>599.5999755859375</AltitudeMeters>
            <DistanceMeters>35212.378073234</DistanceMeters>
          </Trackpoint>
          <Trackpoint>
            <Time>2019-05-08T09:18:21.000Z</Time>
            <Position>
              <LatitudeDegrees>42.984907664358615875244140625</LatitudeDegrees>
              <LongitudeDegrees>0.56472443975508213043212890625</LongitudeDegrees>
            </Position>
            <AltitudeMeters>600.4000244140625</AltitudeMeters>
            <DistanceMeters>35220.958938186</DistanceMeters>
          </Trackpoint>
          <Trackpoint>
            <Time>2019-05-08T09:18:24.000Z</Time>
            <Position>
              <LatitudeDegrees>42.9850295372307300567626953125</LatitudeDegrees>
              <LongitudeDegrees>0.5647282116115093231201171875</LongitudeDegrees>
            </Position>
            <AltitudeMeters>601.20001220703125</AltitudeMeters>
            <DistanceMeters>35234.527475268</DistanceMeters>
          </Trackpoint>
          <Trackpoint>
            <Time>2019-05-08T09:18:25.000Z</Time>
            <Position>
              <LatitudeDegrees>42.98507723025977611541748046875</LatitudeDegrees>
              <LongitudeDegrees>0.56471723131835460662841796875</LongitudeDegrees>
            </Position>
            <AltitudeMeters>601.20001220703125</AltitudeMeters>
            <DistanceMeters>35239.9113907</DistanceMeters>
          </Trackpoint>
          <Trackpoint>
            <Time>2019-05-08T09:18:26.000Z</Time>
            <Position>
              <LatitudeDegrees>42.98512752167880535125732421875</LatitudeDegrees>
              <LongitudeDegrees>0.5646896548569202423095703125</LongitudeDegrees>
            </Position>
            <AltitudeMeters>601.4000244140625</AltitudeMeters>
            <DistanceMeters>35245.942406196</DistanceMeters>
          </Trackpoint>
          <Trackpoint>
            <Time>2019-05-08T09:18:27.000Z</Time>
            <Position>
              <LatitudeDegrees>42.98517781309783458709716796875</LatitudeDegrees>
              <LongitudeDegrees>0.56464648805558681488037109375</LongitudeDegrees>
            </Position>
            <AltitudeMeters>601.20001220703125</AltitudeMeters>
            <DistanceMeters>35252.550692637</DistanceMeters>
          </Trackpoint>
          <Trackpoint>
            <Time>2019-05-08T09:18:28.000Z</Time>
            <Position>
              <LatitudeDegrees>42.98523028381168842315673828125</LatitudeDegrees>
              <LongitudeDegrees>0.5645924247801303863525390625</LongitudeDegrees>
            </Position>
            <AltitudeMeters>601.4000244140625</AltitudeMeters>
            <DistanceMeters>35259.863428972</DistanceMeters>
          </Trackpoint>
          <Trackpoint>
            <Time>2019-05-08T09:18:30.000Z</Time>
            <Position>
              <LatitudeDegrees>42.98533455468714237213134765625</LatitudeDegrees>
              <LongitudeDegrees>0.5644750781357288360595703125</LongitudeDegrees>
            </Position>
            <AltitudeMeters>601.4000244140625</AltitudeMeters>
            <DistanceMeters>35274.895982415</DistanceMeters>
          </Trackpoint>
          <Trackpoint>
            <Time>2019-05-08T09:18:32.000Z</Time>
            <Position>
              <LatitudeDegrees>42.98543237149715423583984375</LatitudeDegrees>
              <LongitudeDegrees>0.564358234405517578125</LongitudeDegrees>
            </Position>
            <AltitudeMeters>601.20001220703125</AltitudeMeters>
            <DistanceMeters>35289.354102611</DistanceMeters>
          </Trackpoint>
          <Trackpoint>
            <Time>2019-05-08T09:18:34.000Z</Time>
            <Position>
              <LatitudeDegrees>42.9855572618544101715087890625</LatitudeDegrees>
              <LongitudeDegrees>0.5642916820943355560302734375</LongitudeDegrees>
            </Position>
            <AltitudeMeters>600.79998779296875</AltitudeMeters>
            <DistanceMeters>35304.272994131</DistanceMeters>
          </Trackpoint>
          <Trackpoint>
            <Time>2019-05-08T09:18:35.000Z</Time>
            <Position>
              <LatitudeDegrees>42.985631525516510009765625</LatitudeDegrees>
              <LongitudeDegrees>0.56429176591336727142333984375</LongitudeDegrees>
            </Position>
            <AltitudeMeters>600.4000244140625</AltitudeMeters>
            <DistanceMeters>35312.538679727</DistanceMeters>
          </Trackpoint>
          <Trackpoint>
            <Time>2019-05-08T09:18:36.000Z</Time>
            <Position>
              <LatitudeDegrees>42.985710985958576202392578125</LatitudeDegrees>
              <LongitudeDegrees>0.56430123746395111083984375</LongitudeDegrees>
            </Position>
            <AltitudeMeters>599.5999755859375</AltitudeMeters>
            <DistanceMeters>35321.416941791</DistanceMeters>
          </Trackpoint>
          <Trackpoint>
            <Time>2019-05-08T09:18:37.000Z</Time>
            <Position>
              <LatitudeDegrees>42.98579840920865535736083984375</LatitudeDegrees>
              <LongitudeDegrees>0.56431867182254791259765625</LongitudeDegrees>
            </Position>
            <AltitudeMeters>598.79998779296875</AltitudeMeters>
            <DistanceMeters>35331.25071465</DistanceMeters>
          </Trackpoint>
          <Trackpoint>
            <Time>2019-05-08T09:18:40.000Z</Time>
            <Position>
              <LatitudeDegrees>42.98607216216623783111572265625</LatitudeDegrees>
              <LongitudeDegrees>0.56438505649566650390625</LongitudeDegrees>
            </Position>
            <AltitudeMeters>597.4000244140625</AltitudeMeters>
            <DistanceMeters>35362.19573778</DistanceMeters>
          </Trackpoint>
          <Trackpoint>
            <Time>2019-05-08T09:18:43.000Z</Time>
            <Position>
              <LatitudeDegrees>42.9863324202597141265869140625</LatitudeDegrees>
              <LongitudeDegrees>0.56442084722220897674560546875</LongitudeDegrees>
            </Position>
            <AltitudeMeters>597</AltitudeMeters>
            <DistanceMeters>35391.308982793</DistanceMeters>
          </Trackpoint>
          <Trackpoint>
            <Time>2019-05-08T09:18:44.000Z</Time>
            <Position>
              <LatitudeDegrees>42.98641137778759002685546875</LatitudeDegrees>
              <LongitudeDegrees>0.5644130520522594451904296875</LongitudeDegrees>
            </Position>
            <AltitudeMeters>596.4000244140625</AltitudeMeters>
            <DistanceMeters>35400.119860569</DistanceMeters>
          </Trackpoint>
          <Trackpoint>
            <Time>2019-05-08T09:18:46.000Z</Time>
            <Position>
              <LatitudeDegrees>42.98652143217623233795166015625</LatitudeDegrees>
              <LongitudeDegrees>0.56433132849633693695068359375</LongitudeDegrees>
            </Position>
            <AltitudeMeters>594.4000244140625</AltitudeMeters>
            <DistanceMeters>35414.059343519</DistanceMeters>
          </Trackpoint>
          <Trackpoint>
            <Time>2019-05-08T09:18:47.000Z</Time>
            <Position>
              <LatitudeDegrees>42.9865557141602039337158203125</LatitudeDegrees>
              <LongitudeDegrees>0.56428489275276660919189453125</LongitudeDegrees>
            </Position>
            <AltitudeMeters>594</AltitudeMeters>
            <DistanceMeters>35419.43066498</DistanceMeters>
          </Trackpoint>
          <Trackpoint>
            <Time>2019-05-08T09:18:48.000Z</Time>
            <Position>
              <LatitudeDegrees>42.98658614046871662139892578125</LatitudeDegrees>
              <LongitudeDegrees>0.56425387971103191375732421875</LongitudeDegrees>
            </Position>
            <AltitudeMeters>593.5999755859375</AltitudeMeters>
            <DistanceMeters>35423.65481354</DistanceMeters>
          </Trackpoint>
          <Trackpoint>
            <Time>2019-05-08T09:18:49.000Z</Time>
            <Position>
              <LatitudeDegrees>42.98661598004400730133056640625</LatitudeDegrees>
              <LongitudeDegrees>0.56424080394208431243896484375</LongitudeDegrees>
            </Position>
            <AltitudeMeters>593.5999755859375</AltitudeMeters>
            <DistanceMeters>35427.143730714</DistanceMeters>
          </Trackpoint>
          <Trackpoint>
            <Time>2019-05-08T09:18:50.000Z</Time>
            <Position>
              <LatitudeDegrees>42.98664472997188568115234375</LatitudeDegrees>
              <LongitudeDegrees>0.56424231268465518951416015625</LongitudeDegrees>
            </Position>
            <AltitudeMeters>593.5999755859375</AltitudeMeters>
            <DistanceMeters>35430.346568025</DistanceMeters>
          </Trackpoint>
          <Trackpoint>
            <Time>2019-05-08T09:18:53.000Z</Time>
            <Position>
              <LatitudeDegrees>42.98671555705368518829345703125</LatitudeDegrees>
              <LongitudeDegrees>0.564276762306690216064453125</LongitudeDegrees>
            </Position>
            <AltitudeMeters>593.4000244140625</AltitudeMeters>
            <DistanceMeters>35438.713776799</DistanceMeters>
          </Trackpoint>
          <Trackpoint>
            <Time>2019-05-08T09:18:56.000Z</Time>
            <Position>
              <LatitudeDegrees>42.98677188344299793243408203125</LatitudeDegrees>
              <LongitudeDegrees>0.56431707926094532012939453125</LongitudeDegrees>
            </Position>
            <AltitudeMeters>594.79998779296875</AltitudeMeters>
            <DistanceMeters>35445.789917971</DistanceMeters>
          </Trackpoint>
          <Trackpoint>
            <Time>2019-05-08T09:19:00.000Z</Time>
            <Position>
              <LatitudeDegrees>42.986836843192577362060546875</LatitudeDegrees>
              <LongitudeDegrees>0.5643919296562671661376953125</LongitudeDegrees>
            </Position>
            <AltitudeMeters>597</AltitudeMeters>
            <DistanceMeters>35455.245911676</DistanceMeters>
          </Trackpoint>
          <Trackpoint>
            <Time>2019-05-08T09:19:01.000Z</Time>
            <Position>
              <LatitudeDegrees>42.98685318790376186370849609375</LatitudeDegrees>
              <LongitudeDegrees>0.56441011838614940643310546875</LongitudeDegrees>
            </Position>
            <AltitudeMeters>597.5999755859375</AltitudeMeters>
            <DistanceMeters>35457.592898388</DistanceMeters>
          </Trackpoint>
          <Trackpoint>
            <Time>2019-05-08T09:19:04.000Z</Time>
            <Position>
              <LatitudeDegrees>42.98690624535083770751953125</LatitudeDegrees>
              <LongitudeDegrees>0.5644499324262142181396484375</LongitudeDegrees>
            </Position>
            <AltitudeMeters>598.79998779296875</AltitudeMeters>
            <DistanceMeters>35464.329749597</DistanceMeters>
          </Trackpoint>
          <Trackpoint>
            <Time>2019-05-08T09:19:07.000Z</Time>
            <Position>
              <LatitudeDegrees>42.986963577568531036376953125</LatitudeDegrees>
              <LongitudeDegrees>0.5644807778298854827880859375</LongitudeDegrees>
            </Position>
            <AltitudeMeters>599.5999755859375</AltitudeMeters>
            <DistanceMeters>35471.186834112</DistanceMeters>
          </Trackpoint>
          <Trackpoint>
            <Time>2019-05-08T09:19:08.000Z</Time>
            <Position>
              <LatitudeDegrees>42.9869818501174449920654296875</LatitudeDegrees>
              <LongitudeDegrees>0.56449301540851593017578125</LongitudeDegrees>
            </Position>
            <AltitudeMeters>599.5999755859375</AltitudeMeters>
            <DistanceMeters>35473.449587599</DistanceMeters>
          </Trackpoint>
          <Trackpoint>
            <Time>2019-05-08T09:19:13.000Z</Time>
            <Position>
              <LatitudeDegrees>42.98708519898355007171630859375</LatitudeDegrees>
              <LongitudeDegrees>0.5645139701664447784423828125</LongitudeDegrees>
            </Position>
            <AltitudeMeters>601</AltitudeMeters>
            <DistanceMeters>35485.077844763</DistanceMeters>
          </Trackpoint>
          <Trackpoint>
            <Time>2019-05-08T09:19:14.000Z</Time>
            <Position>
              <LatitudeDegrees>42.98710514791309833526611328125</LatitudeDegrees>
              <LongitudeDegrees>0.56451581418514251708984375</LongitudeDegrees>
            </Position>
            <AltitudeMeters>601.20001220703125</AltitudeMeters>
            <DistanceMeters>35487.304391858</DistanceMeters>
          </Trackpoint>
          <Trackpoint>
            <Time>2019-05-08T09:19:18.000Z</Time>
            <Position>
              <LatitudeDegrees>42.9871877096593379974365234375</LatitudeDegrees>
              <LongitudeDegrees>0.5645122937858104705810546875</LongitudeDegrees>
            </Position>
            <AltitudeMeters>602</AltitudeMeters>
            <DistanceMeters>35496.497950229</DistanceMeters>
          </Trackpoint>
          <Trackpoint>
            <Time>2019-05-08T09:19:21.000Z</Time>
            <Position>
              <LatitudeDegrees>42.98723992891609668731689453125</LatitudeDegrees>
              <LongitudeDegrees>0.56451053358614444732666015625</LongitudeDegrees>
            </Position>
            <AltitudeMeters>602.5999755859375</AltitudeMeters>
            <DistanceMeters>35502.31246708</DistanceMeters>
          </Trackpoint>
          <Trackpoint>
            <Time>2019-05-08T09:19:24.000Z</Time>
            <Position>
              <LatitudeDegrees>42.987295500934123992919921875</LatitudeDegrees>
              <LongitudeDegrees>0.5645112879574298858642578125</LongitudeDegrees>
            </Position>
            <AltitudeMeters>603.20001220703125</AltitudeMeters>
            <DistanceMeters>35508.498698887</DistanceMeters>
          </Trackpoint>
          <Trackpoint>
            <Time>2019-05-08T09:19:30.000Z</Time>
            <Position>
              <LatitudeDegrees>42.98739968799054622650146484375</LatitudeDegrees>
              <LongitudeDegrees>0.56450298987329006195068359375</LongitudeDegrees>
            </Position>
            <AltitudeMeters>604.4000244140625</AltitudeMeters>
            <DistanceMeters>35520.114135691</DistanceMeters>
          </Trackpoint>
          <Trackpoint>
            <Time>2019-05-08T09:19:31.000Z</Time>
            <Position>
              <LatitudeDegrees>42.98741393722593784332275390625</LatitudeDegrees>
              <LongitudeDegrees>0.5644951947033405303955078125</LongitudeDegrees>
            </Position>
            <AltitudeMeters>604.5999755859375</AltitudeMeters>
            <DistanceMeters>35521.819329115</DistanceMeters>
          </Trackpoint>
          <Trackpoint>
            <Time>2019-05-08T09:19:32.000Z</Time>
            <Position>
              <LatitudeDegrees>42.98743019811809062957763671875</LatitudeDegrees>
              <LongitudeDegrees>0.564492009580135345458984375</LongitudeDegrees>
            </Position>
            <AltitudeMeters>604.79998779296875</AltitudeMeters>
            <DistanceMeters>35523.647204462</DistanceMeters>
          </Trackpoint>
          <Trackpoint>
            <Time>2019-05-08T09:19:35.000Z</Time>
            <Position>
              <LatitudeDegrees>42.98747998662292957305908203125</LatitudeDegrees>
              <LongitudeDegrees>0.56450835429131984710693359375</LongitudeDegrees>
            </Position>
            <AltitudeMeters>605.20001220703125</AltitudeMeters>
            <DistanceMeters>35529.345638887</DistanceMeters>
          </Trackpoint>
          <Trackpoint>
            <Time>2019-05-08T09:19:37.000Z</Time>
            <Position>
              <LatitudeDegrees>42.9875157773494720458984375</LatitudeDegrees>
              <LongitudeDegrees>0.564511120319366455078125</LongitudeDegrees>
            </Position>
            <AltitudeMeters>605.5999755859375</AltitudeMeters>
            <DistanceMeters>35533.334497708</DistanceMeters>
          </Trackpoint>
          <Trackpoint>
            <Time>2019-05-08T09:19:42.000Z</Time>
            <Position>
              <LatitudeDegrees>42.98759196884930133819580078125</LatitudeDegrees>
              <LongitudeDegrees>0.56450181640684604644775390625</LongitudeDegrees>
            </Position>
            <AltitudeMeters>606.5999755859375</AltitudeMeters>
            <DistanceMeters>35541.84880647</DistanceMeters>
          </Trackpoint>
          <Trackpoint>
            <Time>2019-05-08T09:19:45.000Z</Time>
            <Position>
              <LatitudeDegrees>42.98763404600322246551513671875</LatitudeDegrees>
              <LongitudeDegrees>0.56447021663188934326171875</LongitudeDegrees>
            </Position>
            <AltitudeMeters>607.20001220703125</AltitudeMeters>
            <DistanceMeters>35547.192316713</DistanceMeters>
          </Trackpoint>
          <Trackpoint>
            <Time>2019-05-08T09:19:47.000Z</Time>
            <Position>
              <LatitudeDegrees>42.98764376901090145111083984375</LatitudeDegrees>
              <LongitudeDegrees>0.564421601593494415283203125</LongitudeDegrees>
            </Position>
            <AltitudeMeters>607.5999755859375</AltitudeMeters>
            <DistanceMeters>35551.297206802</DistanceMeters>
          </Trackpoint>
          <Trackpoint>
            <Time>2019-05-08T09:19:49.000Z</Time>
            <Position>
              <LatitudeDegrees>42.9876517318189144134521484375</LatitudeDegrees>
              <LongitudeDegrees>0.56437273509800434112548828125</LongitudeDegrees>
            </Position>
            <AltitudeMeters>608</AltitudeMeters>
            <DistanceMeters>35555.373398733</DistanceMeters>
          </Trackpoint>
          <Trackpoint>
            <Time>2019-05-08T09:19:53.000Z</Time>
            <Position>
              <LatitudeDegrees>42.987673021852970123291015625</LatitudeDegrees>
              <LongitudeDegrees>0.56427869014441967010498046875</LongitudeDegrees>
            </Position>
            <AltitudeMeters>608.5999755859375</AltitudeMeters>
            <DistanceMeters>35563.388945745</DistanceMeters>
          </Trackpoint>
          <Trackpoint>
            <Time>2019-05-08T09:19:55.000Z</Time>
            <Position>
              <LatitudeDegrees>42.9876798950135707855224609375</LatitudeDegrees>
              <LongitudeDegrees>0.56423091329634189605712890625</LongitudeDegrees>
            </Position>
            <AltitudeMeters>609</AltitudeMeters>
            <DistanceMeters>35567.352824276</DistanceMeters>
          </Trackpoint>
          <Trackpoint>
            <Time>2019-05-08T09:19:58.000Z</Time>
            <Position>
              <LatitudeDegrees>42.9876879416406154632568359375</LatitudeDegrees>
              <LongitudeDegrees>0.56415949948132038116455078125</LongitudeDegrees>
            </Position>
            <AltitudeMeters>609.79998779296875</AltitudeMeters>
            <DistanceMeters>35573.236044739</DistanceMeters>
          </Trackpoint>
          <Trackpoint>
            <Time>2019-05-08T09:20:01.000Z</Time>
            <Position>
              <LatitudeDegrees>42.98768542706966400146484375</LatitudeDegrees>
              <LongitudeDegrees>0.56408842094242572784423828125</LongitudeDegrees>
            </Position>
            <AltitudeMeters>610.5999755859375</AltitudeMeters>
            <DistanceMeters>35579.030337121</DistanceMeters>
          </Trackpoint>
          <Trackpoint>
            <Time>2019-05-08T09:20:02.000Z</Time>
            <Position>
              <LatitudeDegrees>42.9876872710883617401123046875</LatitudeDegrees>
              <LongitudeDegrees>0.5640660412609577178955078125</LongitudeDegrees>
            </Position>
            <AltitudeMeters>610.79998779296875</AltitudeMeters>
            <DistanceMeters>35580.868066315</DistanceMeters>
          </Trackpoint>
          <Trackpoint>
            <Time>2019-05-08T09:20:06.000Z</Time>
            <Position>
              <LatitudeDegrees>42.98768936656415462493896484375</LatitudeDegrees>
              <LongitudeDegrees>0.56397736072540283203125</LongitudeDegrees>
            </Position>
            <AltitudeMeters>611.5999755859375</AltitudeMeters>
            <DistanceMeters>35588.092596878</DistanceMeters>
          </Trackpoint>
          <Trackpoint>
            <Time>2019-05-08T09:20:07.000Z</Time>
            <Position>
              <LatitudeDegrees>42.987679727375507354736328125</LatitudeDegrees>
              <LongitudeDegrees>0.56395783089101314544677734375</LongitudeDegrees>
            </Position>
            <AltitudeMeters>611.79998779296875</AltitudeMeters>
            <DistanceMeters>35590.01204242</DistanceMeters>
          </Trackpoint>
          <Trackpoint>
            <Time>2019-05-08T09:20:10.000Z</Time>
            <Position>
              <LatitudeDegrees>42.98764846287667751312255859375</LatitudeDegrees>
              <LongitudeDegrees>0.5638973973691463470458984375</LongitudeDegrees>
            </Position>
            <AltitudeMeters>612.79998779296875</AltitudeMeters>
            <DistanceMeters>35596.037815182</DistanceMeters>
          </Trackpoint>
          <Trackpoint>
            <Time>2019-05-08T09:20:15.000Z</Time>
            <Position>
              <LatitudeDegrees>42.98759423196315765380859375</LatitudeDegrees>
              <LongitudeDegrees>0.56381768546998500823974609375</LongitudeDegrees>
            </Position>
            <AltitudeMeters>613.5999755859375</AltitudeMeters>
            <DistanceMeters>35604.900298181</DistanceMeters>
          </Trackpoint>
          <Trackpoint>
            <Time>2019-05-08T09:20:20.000Z</Time>
            <Position>
              <LatitudeDegrees>42.987550310790538787841796875</LatitudeDegrees>
              <LongitudeDegrees>0.563749037683010101318359375</LongitudeDegrees>
            </Position>
            <AltitudeMeters>614.5999755859375</AltitudeMeters>
            <DistanceMeters>35612.325771012</DistanceMeters>
          </Trackpoint>
          <Trackpoint>
            <Time>2019-05-08T09:20:21.000Z</Time>
            <Position>
              <LatitudeDegrees>42.98754863440990447998046875</LatitudeDegrees>
              <LongitudeDegrees>0.5637341178953647613525390625</LongitudeDegrees>
            </Position>
            <AltitudeMeters>614.5999755859375</AltitudeMeters>
            <DistanceMeters>35613.553786796</DistanceMeters>
          </Trackpoint>
          <Trackpoint>
            <Time>2019-05-08T09:20:23.000Z</Time>
            <Position>
              <LatitudeDegrees>42.98754997551441192626953125</LatitudeDegrees>
              <LongitudeDegrees>0.56374744512140750885009765625</LongitudeDegrees>
            </Position>
            <AltitudeMeters>615</AltitudeMeters>
            <DistanceMeters>35614.649688328</DistanceMeters>
          </Trackpoint>
          <Trackpoint>
            <Time>2019-05-08T09:20:24.000Z</Time>
            <Position>
              <LatitudeDegrees>42.98755123279988765716552734375</LatitudeDegrees>
              <LongitudeDegrees>0.5637693218886852264404296875</LongitudeDegrees>
            </Position>
            <AltitudeMeters>615</AltitudeMeters>
            <DistanceMeters>35616.43760529</DistanceMeters>
          </Trackpoint>
          <Trackpoint>
            <Time>2019-05-08T09:20:26.000Z</Time>
            <Position>
              <LatitudeDegrees>42.98756715841591358184814453125</LatitudeDegrees>
              <LongitudeDegrees>0.56381232105195522308349609375</LongitudeDegrees>
            </Position>
            <AltitudeMeters>615.20001220703125</AltitudeMeters>
            <DistanceMeters>35620.361414706</DistanceMeters>
          </Trackpoint>
          <Trackpoint>
            <Time>2019-05-08T09:20:28.000Z</Time>
            <Position>
              <LatitudeDegrees>42.98760253004729747772216796875</LatitudeDegrees>
              <LongitudeDegrees>0.56382925249636173248291015625</LongitudeDegrees>
            </Position>
            <AltitudeMeters>615.20001220703125</AltitudeMeters>
            <DistanceMeters>35624.531777668</DistanceMeters>
          </Trackpoint>
          <Trackpoint>
            <Time>2019-05-08T09:20:29.000Z</Time>
            <Position>
              <LatitudeDegrees>42.98761376179754734039306640625</LatitudeDegrees>
              <LongitudeDegrees>0.56382925249636173248291015625</LongitudeDegrees>
            </Position>
            <AltitudeMeters>615.20001220703125</AltitudeMeters>
            <DistanceMeters>35625.778041343</DistanceMeters>
          </Trackpoint>
          <Trackpoint>
            <Time>2019-05-08T09:20:30.000Z</Time>
            <Position>
              <LatitudeDegrees>42.987616024911403656005859375</LatitudeDegrees>
              <LongitudeDegrees>0.56382707320153713226318359375</LongitudeDegrees>
            </Position>
            <AltitudeMeters>615.20001220703125</AltitudeMeters>
            <DistanceMeters>35626.0932093</DistanceMeters>
          </Trackpoint>
          <Trackpoint>
            <Time>2019-05-08T09:21:00.000Z</Time>
            <Position>
              <LatitudeDegrees>42.98764309845864772796630859375</LatitudeDegrees>
              <LongitudeDegrees>0.56384501047432422637939453125</LongitudeDegrees>
            </Position>
            <AltitudeMeters>615</AltitudeMeters>
            <DistanceMeters>35629.442142703</DistanceMeters>
          </Trackpoint>
          <Trackpoint>
            <Time>2019-05-08T09:21:01.000Z</Time>
            <Position>
              <LatitudeDegrees>42.98764058388769626617431640625</LatitudeDegrees>
              <LongitudeDegrees>0.56386395357549190521240234375</LongitudeDegrees>
            </Position>
            <AltitudeMeters>615.20001220703125</AltitudeMeters>
            <DistanceMeters>35631.009363426</DistanceMeters>
          </Trackpoint>
          <Trackpoint>
            <Time>2019-05-08T09:21:02.000Z</Time>
            <Position>
              <LatitudeDegrees>42.987628094851970672607421875</LatitudeDegrees>
              <LongitudeDegrees>0.5638699047267436981201171875</LongitudeDegrees>
            </Position>
            <AltitudeMeters>615.20001220703125</AltitudeMeters>
            <DistanceMeters>35632.481510955</DistanceMeters>
          </Trackpoint>
          <Trackpoint>
            <Time>2019-05-08T09:21:04.000Z</Time>
            <Position>
              <LatitudeDegrees>42.98760521225631237030029296875</LatitudeDegrees>
              <LongitudeDegrees>0.5638370476663112640380859375</LongitudeDegrees>
            </Position>
            <AltitudeMeters>615.20001220703125</AltitudeMeters>
            <DistanceMeters>35636.174127294</DistanceMeters>
          </Trackpoint>
          <Trackpoint>
            <Time>2019-05-08T09:21:06.000Z</Time>
            <Position>
              <LatitudeDegrees>42.98758995719254016876220703125</LatitudeDegrees>
              <LongitudeDegrees>0.563793964684009552001953125</LongitudeDegrees>
            </Position>
            <AltitudeMeters>615.20001220703125</AltitudeMeters>
            <DistanceMeters>35640.071381273</DistanceMeters>
          </Trackpoint>
          <Trackpoint>
            <Time>2019-05-08T09:21:12.000Z</Time>
            <Position>
              <LatitudeDegrees>42.987502701580524444580078125</LatitudeDegrees>
              <LongitudeDegrees>0.563683994114398956298828125</LongitudeDegrees>
            </Position>
            <AltitudeMeters>615.4000244140625</AltitudeMeters>
            <DistanceMeters>35653.281119999</DistanceMeters>
          </Trackpoint>
          <Trackpoint>
            <Time>2019-05-08T09:21:19.000Z</Time>
            <Position>
              <LatitudeDegrees>42.987406812608242034912109375</LatitudeDegrees>
              <LongitudeDegrees>0.56352205574512481689453125</LongitudeDegrees>
            </Position>
            <AltitudeMeters>615.79998779296875</AltitudeMeters>
            <DistanceMeters>35670.244120497</DistanceMeters>
          </Trackpoint>
          <Trackpoint>
            <Time>2019-05-08T09:21:23.000Z</Time>
            <Position>
              <LatitudeDegrees>42.98734470270574092864990234375</LatitudeDegrees>
              <LongitudeDegrees>0.5634166114032268524169921875</LongitudeDegrees>
            </Position>
            <AltitudeMeters>616</AltitudeMeters>
            <DistanceMeters>35681.266400137</DistanceMeters>
          </Trackpoint>
          <Trackpoint>
            <Time>2019-05-08T09:21:26.000Z</Time>
            <Position>
              <LatitudeDegrees>42.987300194799900054931640625</LatitudeDegrees>
              <LongitudeDegrees>0.5633324570953845977783203125</LongitudeDegrees>
            </Position>
            <AltitudeMeters>616.20001220703125</AltitudeMeters>
            <DistanceMeters>35689.721642015</DistanceMeters>
          </Trackpoint>
          <Trackpoint>
            <Time>2019-05-08T09:21:33.000Z</Time>
            <Position>
              <LatitudeDegrees>42.987240850925445556640625</LatitudeDegrees>
              <LongitudeDegrees>0.56307605467736721038818359375</LongitudeDegrees>
            </Position>
            <AltitudeMeters>616.4000244140625</AltitudeMeters>
            <DistanceMeters>35711.61741372</DistanceMeters>
          </Trackpoint>
          <Trackpoint>
            <Time>2019-05-08T09:21:41.000Z</Time>
            <Position>
              <LatitudeDegrees>42.9872664995491504669189453125</LatitudeDegrees>
              <LongitudeDegrees>0.562759973108768463134765625</LongitudeDegrees>
            </Position>
            <AltitudeMeters>617</AltitudeMeters>
            <DistanceMeters>35737.509883</DistanceMeters>
          </Trackpoint>
          <Trackpoint>
            <Time>2019-05-08T09:21:49.000Z</Time>
            <Position>
              <LatitudeDegrees>42.987286113202571868896484375</LatitudeDegrees>
              <LongitudeDegrees>0.56242880411446094512939453125</LongitudeDegrees>
            </Position>
            <AltitudeMeters>617.20001220703125</AltitudeMeters>
            <DistanceMeters>35764.561303201</DistanceMeters>
          </Trackpoint>
          <Trackpoint>
            <Time>2019-05-08T09:21:51.000Z</Time>
            <Position>
              <LatitudeDegrees>42.98728653229773044586181640625</LatitudeDegrees>
              <LongitudeDegrees>0.56234632618725299835205078125</LongitudeDegrees>
            </Position>
            <AltitudeMeters>617.4000244140625</AltitudeMeters>
            <DistanceMeters>35771.277346071</DistanceMeters>
          </Trackpoint>
          <Trackpoint>
            <Time>2019-05-08T09:21:56.000Z</Time>
            <Position>
              <LatitudeDegrees>42.98728317953646183013916015625</LatitudeDegrees>
              <LongitudeDegrees>0.56215605698525905609130859375</LongitudeDegrees>
            </Position>
            <AltitudeMeters>617.79998779296875</AltitudeMeters>
            <DistanceMeters>35786.773403402</DistanceMeters>
          </Trackpoint>
          <Trackpoint>
            <Time>2019-05-08T09:22:03.000Z</Time>
            <Position>
              <LatitudeDegrees>42.98721360974013805389404296875</LatitudeDegrees>
              <LongitudeDegrees>0.56189772672951221466064453125</LongitudeDegrees>
            </Position>
            <AltitudeMeters>618.20001220703125</AltitudeMeters>
            <DistanceMeters>35809.186416421</DistanceMeters>
          </Trackpoint>
          <Trackpoint>
            <Time>2019-05-08T09:22:13.000Z</Time>
            <Position>
              <LatitudeDegrees>42.9871310479938983917236328125</LatitudeDegrees>
              <LongitudeDegrees>0.56152892298996448516845703125</LongitudeDegrees>
            </Position>
            <AltitudeMeters>619.20001220703125</AltitudeMeters>
            <DistanceMeters>35840.588396417</DistanceMeters>
          </Trackpoint>
          <Trackpoint>
            <Time>2019-05-08T09:22:14.000Z</Time>
            <Position>
              <LatitudeDegrees>42.9871243424713611602783203125</LatitudeDegrees>
              <LongitudeDegrees>0.5614927969872951507568359375</LongitudeDegrees>
            </Position>
            <AltitudeMeters>619.20001220703125</AltitudeMeters>
            <DistanceMeters>35843.623306296</DistanceMeters>
          </Trackpoint>
          <Trackpoint>
            <Time>2019-05-08T09:22:15.000Z</Time>
            <Position>
              <LatitudeDegrees>42.98711520619690418243408203125</LatitudeDegrees>
              <LongitudeDegrees>0.5614585988223552703857421875</LongitudeDegrees>
            </Position>
            <AltitudeMeters>619.4000244140625</AltitudeMeters>
            <DistanceMeters>35846.585946048</DistanceMeters>
          </Trackpoint>
          <Trackpoint>
            <Time>2019-05-08T09:22:22.000Z</Time>
            <Position>
              <LatitudeDegrees>42.98705267719924449920654296875</LatitudeDegrees>
              <LongitudeDegrees>0.56121996603906154632568359375</LongitudeDegrees>
            </Position>
            <AltitudeMeters>620</AltitudeMeters>
            <DistanceMeters>35867.223814534</DistanceMeters>
          </Trackpoint>
          <Trackpoint>
            <Time>2019-05-08T09:22:23.000Z</Time>
            <Position>
              <LatitudeDegrees>42.98704831860959529876708984375</LatitudeDegrees>
              <LongitudeDegrees>0.5611830018460750579833984375</LongitudeDegrees>
            </Position>
            <AltitudeMeters>620.20001220703125</AltitudeMeters>
            <DistanceMeters>35870.272084316</DistanceMeters>
          </Trackpoint>
          <Trackpoint>
            <Time>2019-05-08T09:22:30.000Z</Time>
            <Position>
              <LatitudeDegrees>42.9870636574923992156982421875</LatitudeDegrees>
              <LongitudeDegrees>0.56093548424541950225830078125</LongitudeDegrees>
            </Position>
            <AltitudeMeters>621.20001220703125</AltitudeMeters>
            <DistanceMeters>35890.49693049</DistanceMeters>
          </Trackpoint>
          <Trackpoint>
            <Time>2019-05-08T09:22:32.000Z</Time>
            <Position>
              <LatitudeDegrees>42.987081594765186309814453125</LatitudeDegrees>
              <LongitudeDegrees>0.56088385172188282012939453125</LongitudeDegrees>
            </Position>
            <AltitudeMeters>621.4000244140625</AltitudeMeters>
            <DistanceMeters>35895.151299769</DistanceMeters>
          </Trackpoint>
          <Trackpoint>
            <Time>2019-05-08T09:22:37.000Z</Time>
            <Position>
              <LatitudeDegrees>42.9871367476880550384521484375</LatitudeDegrees>
              <LongitudeDegrees>0.560757033526897430419921875</LongitudeDegrees>
            </Position>
            <AltitudeMeters>621.79998779296875</AltitudeMeters>
            <DistanceMeters>35907.163819137</DistanceMeters>
          </Trackpoint>
          <Trackpoint>
            <Time>2019-05-08T09:22:39.000Z</Time>
            <Position>
              <LatitudeDegrees>42.987160049378871917724609375</LatitudeDegrees>
              <LongitudeDegrees>0.5607122741639614105224609375</LongitudeDegrees>
            </Position>
            <AltitudeMeters>622.20001220703125</AltitudeMeters>
            <DistanceMeters>35911.635126468</DistanceMeters>
          </Trackpoint>
          <Trackpoint>
            <Time>2019-05-08T09:22:44.000Z</Time>
            <Position>
              <LatitudeDegrees>42.98721511848270893096923828125</LatitudeDegrees>
              <LongitudeDegrees>0.56060926057398319244384765625</LongitudeDegrees>
            </Position>
            <AltitudeMeters>622.5999755859375</AltitudeMeters>
            <DistanceMeters>35922.023072054</DistanceMeters>
          </Trackpoint>
          <Trackpoint>
            <Time>2019-05-08T09:22:50.000Z</Time>
            <Position>
              <LatitudeDegrees>42.9872923158109188079833984375</LatitudeDegrees>
              <LongitudeDegrees>0.5604856275022029876708984375</LongitudeDegrees>
            </Position>
            <AltitudeMeters>624.20001220703125</AltitudeMeters>
            <DistanceMeters>35935.257397225</DistanceMeters>
          </Trackpoint>
          <Trackpoint>
            <Time>2019-05-08T09:22:53.000Z</Time>
            <Position>
              <LatitudeDegrees>42.98733129166066646575927734375</LatitudeDegrees>
              <LongitudeDegrees>0.560423433780670166015625</LongitudeDegrees>
            </Position>
            <AltitudeMeters>625.20001220703125</AltitudeMeters>
            <DistanceMeters>35941.925537626</DistanceMeters>
          </Trackpoint>
          <Trackpoint>
            <Time>2019-05-08T09:22:54.000Z</Time>
            <Position>
              <LatitudeDegrees>42.98734487034380435943603515625</LatitudeDegrees>
              <LongitudeDegrees>0.56040507741272449493408203125</LongitudeDegrees>
            </Position>
            <AltitudeMeters>625.20001220703125</AltitudeMeters>
            <DistanceMeters>35944.050399556</DistanceMeters>
          </Trackpoint>
          <Trackpoint>
            <Time>2019-05-08T09:22:58.000Z</Time>
            <Position>
              <LatitudeDegrees>42.9874036274850368499755859375</LatitudeDegrees>
              <LongitudeDegrees>0.56032352149486541748046875</LongitudeDegrees>
            </Position>
            <AltitudeMeters>626.4000244140625</AltitudeMeters>
            <DistanceMeters>35953.370771619</DistanceMeters>
          </Trackpoint>
          <Trackpoint>
            <Time>2019-05-08T09:23:03.000Z</Time>
            <Position>
              <LatitudeDegrees>42.98747529275715351104736328125</LatitudeDegrees>
              <LongitudeDegrees>0.5602209270000457763671875</LongitudeDegrees>
            </Position>
            <AltitudeMeters>627.4000244140625</AltitudeMeters>
            <DistanceMeters>35964.920720506</DistanceMeters>
          </Trackpoint>
          <Trackpoint>
            <Time>2019-05-08T09:23:04.000Z</Time>
            <Position>
              <LatitudeDegrees>42.98749004490673542022705078125</LatitudeDegrees>
              <LongitudeDegrees>0.56020206771790981292724609375</LongitudeDegrees>
            </Position>
            <AltitudeMeters>627.5999755859375</AltitudeMeters>
            <DistanceMeters>35967.169463001</DistanceMeters>
          </Trackpoint>
          <Trackpoint>
            <Time>2019-05-08T09:23:09.000Z</Time>
            <Position>
              <LatitudeDegrees>42.98756028525531291961669921875</LatitudeDegrees>
              <LongitudeDegrees>0.5601054243743419647216796875</LongitudeDegrees>
            </Position>
            <AltitudeMeters>628.5999755859375</AltitudeMeters>
            <DistanceMeters>35978.261160864</DistanceMeters>
          </Trackpoint>
          <Trackpoint>
            <Time>2019-05-08T09:23:13.000Z</Time>
            <Position>
              <LatitudeDegrees>42.98760152421891689300537109375</LatitudeDegrees>
              <LongitudeDegrees>0.56002319790422916412353515625</LongitudeDegrees>
            </Position>
            <AltitudeMeters>629.5999755859375</AltitudeMeters>
            <DistanceMeters>35986.378022187</DistanceMeters>
          </Trackpoint>
          <Trackpoint>
            <Time>2019-05-08T09:23:17.000Z</Time>
            <Position>
              <LatitudeDegrees>42.98765466548502445220947265625</LatitudeDegrees>
              <LongitudeDegrees>0.55995781905949115753173828125</LongitudeDegrees>
            </Position>
            <AltitudeMeters>630.5999755859375</AltitudeMeters>
            <DistanceMeters>35994.335339324</DistanceMeters>
          </Trackpoint>
          <Trackpoint>
            <Time>2019-05-08T09:23:21.000Z</Time>
            <Position>
              <LatitudeDegrees>42.987711243331432342529296875</LatitudeDegrees>
              <LongitudeDegrees>0.5599002353847026824951171875</LongitudeDegrees>
            </Position>
            <AltitudeMeters>631.20001220703125</AltitudeMeters>
            <DistanceMeters>36002.18640943</DistanceMeters>
          </Trackpoint>
          <Trackpoint>
            <Time>2019-05-08T09:23:23.000Z</Time>
            <Position>
              <LatitudeDegrees>42.987734712660312652587890625</LatitudeDegrees>
              <LongitudeDegrees>0.5598663724958896636962890625</LongitudeDegrees>
            </Position>
            <AltitudeMeters>631.5999755859375</AltitudeMeters>
            <DistanceMeters>36005.985101594</DistanceMeters>
          </Trackpoint>
          <Trackpoint>
            <Time>2019-05-08T09:23:29.000Z</Time>
            <Position>
              <LatitudeDegrees>42.98780637793242931365966796875</LatitudeDegrees>
              <LongitudeDegrees>0.5597543902695178985595703125</LongitudeDegrees>
            </Position>
            <AltitudeMeters>632.79998779296875</AltitudeMeters>
            <DistanceMeters>36018.099051086</DistanceMeters>
          </Trackpoint>
          <Trackpoint>
            <Time>2019-05-08T09:23:37.000Z</Time>
            <Position>
              <LatitudeDegrees>42.98789799213409423828125</LatitudeDegrees>
              <LongitudeDegrees>0.55958163924515247344970703125</LongitudeDegrees>
            </Position>
            <AltitudeMeters>634.20001220703125</AltitudeMeters>
            <DistanceMeters>36035.471275608</DistanceMeters>
          </Trackpoint>
          <Trackpoint>
            <Time>2019-05-08T09:23:38.000Z</Time>
            <Position>
              <LatitudeDegrees>42.987911738455295562744140625</LatitudeDegrees>
              <LongitudeDegrees>0.55956018157303333282470703125</LongitudeDegrees>
            </Position>
            <AltitudeMeters>634.20001220703125</AltitudeMeters>
            <DistanceMeters>36037.793118763</DistanceMeters>
          </Trackpoint>
          <Trackpoint>
            <Time>2019-05-08T09:23:45.000Z</Time>
            <Position>
              <LatitudeDegrees>42.9879893548786640167236328125</LatitudeDegrees>
              <LongitudeDegrees>0.5594108998775482177734375</LongitudeDegrees>
            </Position>
            <AltitudeMeters>635.20001220703125</AltitudeMeters>
            <DistanceMeters>36052.704745178</DistanceMeters>
          </Trackpoint>
          <Trackpoint>
            <Time>2019-05-08T09:23:53.000Z</Time>
            <Position>
              <LatitudeDegrees>42.98808373510837554931640625</LatitudeDegrees>
              <LongitudeDegrees>0.559247620403766632080078125</LongitudeDegrees>
            </Position>
            <AltitudeMeters>636.4000244140625</AltitudeMeters>
            <DistanceMeters>36069.647771182</DistanceMeters>
          </Trackpoint>
          <Trackpoint>
            <Time>2019-05-08T09:23:57.000Z</Time>
            <Position>
              <LatitudeDegrees>42.98813159577548503875732421875</LatitudeDegrees>
              <LongitudeDegrees>0.5591614544391632080078125</LongitudeDegrees>
            </Position>
            <AltitudeMeters>637</AltitudeMeters>
            <DistanceMeters>36078.45608639</DistanceMeters>
          </Trackpoint>
          <Trackpoint>
            <Time>2019-05-08T09:23:58.000Z</Time>
            <Position>
              <LatitudeDegrees>42.98814467154443264007568359375</LatitudeDegrees>
              <LongitudeDegrees>0.5591404996812343597412109375</LongitudeDegrees>
            </Position>
            <AltitudeMeters>637.20001220703125</AltitudeMeters>
            <DistanceMeters>36080.696783269</DistanceMeters>
          </Trackpoint>
          <Trackpoint>
            <Time>2019-05-08T09:24:03.000Z</Time>
            <Position>
              <LatitudeDegrees>42.98820921219885349273681640625</LatitudeDegrees>
              <LongitudeDegrees>0.55903832428157329559326171875</LongitudeDegrees>
            </Position>
            <AltitudeMeters>638</AltitudeMeters>
            <DistanceMeters>36091.687887065</DistanceMeters>
          </Trackpoint>
          <Trackpoint>
            <Time>2019-05-08T09:24:08.000Z</Time>
            <Position>
              <LatitudeDegrees>42.9882696457207202911376953125</LatitudeDegrees>
              <LongitudeDegrees>0.55892935954034328460693359375</LongitudeDegrees>
            </Position>
            <AltitudeMeters>639</AltitudeMeters>
            <DistanceMeters>36102.821028099</DistanceMeters>
          </Trackpoint>
          <Trackpoint>
            <Time>2019-05-08T09:24:11.000Z</Time>
            <Position>
              <LatitudeDegrees>42.9883085377514362335205078125</LatitudeDegrees>
              <LongitudeDegrees>0.55886766873300075531005859375</LongitudeDegrees>
            </Position>
            <AltitudeMeters>640</AltitudeMeters>
            <DistanceMeters>36109.452503974</DistanceMeters>
          </Trackpoint>
          <Trackpoint>
            <Time>2019-05-08T09:24:15.000Z</Time>
            <Position>
              <LatitudeDegrees>42.988341562449932098388671875</LatitudeDegrees>
              <LongitudeDegrees>0.558771528303623199462890625</LongitudeDegrees>
            </Position>
            <AltitudeMeters>641</AltitudeMeters>
            <DistanceMeters>36118.099934981</DistanceMeters>
          </Trackpoint>
          <Trackpoint>
            <Time>2019-05-08T09:24:16.000Z</Time>
            <Position>
              <LatitudeDegrees>42.98834768123924732208251953125</LatitudeDegrees>
              <LongitudeDegrees>0.55874562822282314300537109375</LongitudeDegrees>
            </Position>
            <AltitudeMeters>641</AltitudeMeters>
            <DistanceMeters>36120.314281727</DistanceMeters>
          </Trackpoint>
          <Trackpoint>
            <Time>2019-05-08T09:24:21.000Z</Time>
            <Position>
              <LatitudeDegrees>42.988378442823886871337890625</LatitudeDegrees>
              <LongitudeDegrees>0.55861897766590118408203125</LongitudeDegrees>
            </Position>
            <AltitudeMeters>642.20001220703125</AltitudeMeters>
            <DistanceMeters>36131.178956562</DistanceMeters>
          </Trackpoint>
          <Trackpoint>
            <Time>2019-05-08T09:24:22.000Z</Time>
            <Position>
              <LatitudeDegrees>42.9883806221187114715576171875</LatitudeDegrees>
              <LongitudeDegrees>0.5585928261280059814453125</LongitudeDegrees>
            </Position>
            <AltitudeMeters>642.5999755859375</AltitudeMeters>
            <DistanceMeters>36133.320749931</DistanceMeters>
          </Trackpoint>
          <Trackpoint>
            <Time>2019-05-08T09:24:26.000Z</Time>
            <Position>
              <LatitudeDegrees>42.988390512764453887939453125</LatitudeDegrees>
              <LongitudeDegrees>0.55849383585155010223388671875</LongitudeDegrees>
            </Position>
            <AltitudeMeters>643.4000244140625</AltitudeMeters>
            <DistanceMeters>36141.454836856</DistanceMeters>
          </Trackpoint>
          <Trackpoint>
            <Time>2019-05-08T09:24:30.000Z</Time>
            <Position>
              <LatitudeDegrees>42.98840886913239955902099609375</LatitudeDegrees>
              <LongitudeDegrees>0.55839409120380878448486328125</LongitudeDegrees>
            </Position>
            <AltitudeMeters>644.4000244140625</AltitudeMeters>
            <DistanceMeters>36149.829057635</DistanceMeters>
          </Trackpoint>
          <Trackpoint>
            <Time>2019-05-08T09:24:34.000Z</Time>
            <Position>
              <LatitudeDegrees>42.9884456656873226165771484375</LatitudeDegrees>
              <LongitudeDegrees>0.55829577147960662841796875</LongitudeDegrees>
            </Position>
            <AltitudeMeters>645.20001220703125</AltitudeMeters>
            <DistanceMeters>36158.821015402</DistanceMeters>
          </Trackpoint>
          <Trackpoint>
            <Time>2019-05-08T09:24:36.000Z</Time>
            <Position>
              <LatitudeDegrees>42.98846318386495113372802734375</LatitudeDegrees>
              <LongitudeDegrees>0.5582513473927974700927734375</LongitudeDegrees>
            </Position>
            <AltitudeMeters>645.79998779296875</AltitudeMeters>
            <DistanceMeters>36162.929203917</DistanceMeters>
          </Trackpoint>
          <Trackpoint>
            <Time>2019-05-08T09:24:42.000Z</Time>
            <Position>
              <LatitudeDegrees>42.98850911669433116912841796875</LatitudeDegrees>
              <LongitudeDegrees>0.55810072459280490875244140625</LongitudeDegrees>
            </Position>
            <AltitudeMeters>646.5999755859375</AltitudeMeters>
            <DistanceMeters>36176.21528439</DistanceMeters>
          </Trackpoint>
          <Trackpoint>
            <Time>2019-05-08T09:24:48.000Z</Time>
            <Position>
              <LatitudeDegrees>42.98857181333005428314208984375</LatitudeDegrees>
              <LongitudeDegrees>0.5579437315464019775390625</LongitudeDegrees>
            </Position>
            <AltitudeMeters>647.5999755859375</AltitudeMeters>
            <DistanceMeters>36190.777643924</DistanceMeters>
          </Trackpoint>
          <Trackpoint>
            <Time>2019-05-08T09:24:51.000Z</Time>
            <Position>
              <LatitudeDegrees>42.988611124455928802490234375</LatitudeDegrees>
              <LongitudeDegrees>0.5578713119029998779296875</LongitudeDegrees>
            </Position>
            <AltitudeMeters>647.5999755859375</AltitudeMeters>
            <DistanceMeters>36198.119341704</DistanceMeters>
          </Trackpoint>
          <Trackpoint>
            <Time>2019-05-08T09:24:56.000Z</Time>
            <Position>
              <LatitudeDegrees>42.98869402147829532623291015625</LatitudeDegrees>
              <LongitudeDegrees>0.5577534623444080352783203125</LongitudeDegrees>
            </Position>
            <AltitudeMeters>648</AltitudeMeters>
            <DistanceMeters>36211.430206811</DistanceMeters>
          </Trackpoint>
          <Trackpoint>
            <Time>2019-05-08T09:24:59.000Z</Time>
            <Position>
              <LatitudeDegrees>42.988735847175121307373046875</LatitudeDegrees>
              <LongitudeDegrees>0.5576897598803043365478515625</LongitudeDegrees>
            </Position>
            <AltitudeMeters>648</AltitudeMeters>
            <DistanceMeters>36218.39897651</DistanceMeters>
          </Trackpoint>
          <Trackpoint>
            <Time>2019-05-08T09:25:02.000Z</Time>
            <Position>
              <LatitudeDegrees>42.98877079971134662628173828125</LatitudeDegrees>
              <LongitudeDegrees>0.5576418153941631317138671875</LongitudeDegrees>
            </Position>
            <AltitudeMeters>648</AltitudeMeters>
            <DistanceMeters>36223.909706687</DistanceMeters>
          </Trackpoint>
          <Trackpoint>
            <Time>2019-05-08T09:25:04.000Z</Time>
            <Position>
              <LatitudeDegrees>42.98878722824156284332275390625</LatitudeDegrees>
              <LongitudeDegrees>0.55762362666428089141845703125</LongitudeDegrees>
            </Position>
            <AltitudeMeters>648.20001220703125</AltitudeMeters>
            <DistanceMeters>36226.264375865</DistanceMeters>
          </Trackpoint>
          <Trackpoint>
            <Time>2019-05-08T09:25:05.000Z</Time>
            <Position>
              <LatitudeDegrees>42.9887879826128482818603515625</LatitudeDegrees>
              <LongitudeDegrees>0.5576220341026782989501953125</LongitudeDegrees>
            </Position>
            <AltitudeMeters>648.4000244140625</AltitudeMeters>
            <DistanceMeters>36226.428966962</DistanceMeters>
          </Trackpoint>
          <Trackpoint>
            <Time>2019-05-08T09:26:13.000Z</Time>
            <Position>
              <LatitudeDegrees>42.98879024572670459747314453125</LatitudeDegrees>
              <LongitudeDegrees>0.55761993862688541412353515625</LongitudeDegrees>
            </Position>
            <AltitudeMeters>649</AltitudeMeters>
            <DistanceMeters>36226.729467818</DistanceMeters>
          </Trackpoint>
          <Trackpoint>
            <Time>2019-05-08T09:26:14.000Z</Time>
            <Position>
              <LatitudeDegrees>42.98879946582019329071044921875</LatitudeDegrees>
              <LongitudeDegrees>0.557604096829891204833984375</LongitudeDegrees>
            </Position>
            <AltitudeMeters>649.20001220703125</AltitudeMeters>
            <DistanceMeters>36228.375378792</DistanceMeters>
          </Trackpoint>
          <Trackpoint>
            <Time>2019-05-08T09:26:19.000Z</Time>
            <Position>
              <LatitudeDegrees>42.98886291682720184326171875</LatitudeDegrees>
              <LongitudeDegrees>0.557482726871967315673828125</LongitudeDegrees>
            </Position>
            <AltitudeMeters>648.79998779296875</AltitudeMeters>
            <DistanceMeters>36240.520967653</DistanceMeters>
          </Trackpoint>
          <Trackpoint>
            <Time>2019-05-08T09:26:23.000Z</Time>
            <Position>
              <LatitudeDegrees>42.98891664482653141021728515625</LatitudeDegrees>
              <LongitudeDegrees>0.55737770162522792816162109375</LongitudeDegrees>
            </Position>
            <AltitudeMeters>648.79998779296875</AltitudeMeters>
            <DistanceMeters>36250.954883582</DistanceMeters>
          </Trackpoint>
          <Trackpoint>
            <Time>2019-05-08T09:26:27.000Z</Time>
            <Position>
              <LatitudeDegrees>42.98896484076976776123046875</LatitudeDegrees>
              <LongitudeDegrees>0.55726102553308010101318359375</LongitudeDegrees>
            </Position>
            <AltitudeMeters>649</AltitudeMeters>
            <DistanceMeters>36261.863933836</DistanceMeters>
          </Trackpoint>
          <Trackpoint>
            <Time>2019-05-08T09:26:33.000Z</Time>
            <Position>
              <LatitudeDegrees>42.98904262483119964599609375</LatitudeDegrees>
              <LongitudeDegrees>0.55710545741021633148193359375</LongitudeDegrees>
            </Position>
            <AltitudeMeters>649.20001220703125</AltitudeMeters>
            <DistanceMeters>36277.205672412</DistanceMeters>
          </Trackpoint>
          <Trackpoint>
            <Time>2019-05-08T09:26:34.000Z</Time>
            <Position>
              <LatitudeDegrees>42.98905561678111553192138671875</LatitudeDegrees>
              <LongitudeDegrees>0.55708500556647777557373046875</LongitudeDegrees>
            </Position>
            <AltitudeMeters>649.20001220703125</AltitudeMeters>
            <DistanceMeters>36279.413893705</DistanceMeters>
          </Trackpoint>
          <Trackpoint>
            <Time>2019-05-08T09:26:38.000Z</Time>
            <Position>
              <LatitudeDegrees>42.9891078360378742218017578125</LatitudeDegrees>
              <LongitudeDegrees>0.55699548684060573577880859375</LongitudeDegrees>
            </Position>
            <AltitudeMeters>649.79998779296875</AltitudeMeters>
            <DistanceMeters>36288.736203274</DistanceMeters>
          </Trackpoint>
          <Trackpoint>
            <Time>2019-05-08T09:26:39.000Z</Time>
            <Position>
              <LatitudeDegrees>42.98911898396909236907958984375</LatitudeDegrees>
              <LongitudeDegrees>0.5569727718830108642578125</LongitudeDegrees>
            </Position>
            <AltitudeMeters>650</AltitudeMeters>
            <DistanceMeters>36290.964777267</DistanceMeters>
          </Trackpoint>
          <Trackpoint>
            <Time>2019-05-08T09:26:41.000Z</Time>
            <Position>
              <LatitudeDegrees>42.9891406930983066558837890625</LatitudeDegrees>
              <LongitudeDegrees>0.556924827396869659423828125</LongitudeDegrees>
            </Position>
            <AltitudeMeters>650</AltitudeMeters>
            <DistanceMeters>36295.555659363</DistanceMeters>
          </Trackpoint>
          <Trackpoint>
            <Time>2019-05-08T09:26:44.000Z</Time>
            <Position>
              <LatitudeDegrees>42.98917346633970737457275390625</LatitudeDegrees>
              <LongitudeDegrees>0.5568559281527996063232421875</LongitudeDegrees>
            </Position>
            <AltitudeMeters>650.5999755859375</AltitudeMeters>
            <DistanceMeters>36302.246781766</DistanceMeters>
          </Trackpoint>
          <Trackpoint>
            <Time>2019-05-08T09:26:45.000Z</Time>
            <Position>
              <LatitudeDegrees>42.9891862906515598297119140625</LatitudeDegrees>
              <LongitudeDegrees>0.55682784877717494964599609375</LongitudeDegrees>
            </Position>
            <AltitudeMeters>650.79998779296875</AltitudeMeters>
            <DistanceMeters>36304.941254156</DistanceMeters>
          </Trackpoint>
          <Trackpoint>
            <Time>2019-05-08T09:26:48.000Z</Time>
            <Position>
              <LatitudeDegrees>42.98922141082584857940673828125</LatitudeDegrees>
              <LongitudeDegrees>0.55674520321190357208251953125</LongitudeDegrees>
            </Position>
            <AltitudeMeters>651.20001220703125</AltitudeMeters>
            <DistanceMeters>36312.723007984</DistanceMeters>
          </Trackpoint>
          <Trackpoint>
            <Time>2019-05-08T09:26:51.000Z</Time>
            <Position>
              <LatitudeDegrees>42.9892565310001373291015625</LatitudeDegrees>
              <LongitudeDegrees>0.55666205473244190216064453125</LongitudeDegrees>
            </Position>
            <AltitudeMeters>651.79998779296875</AltitudeMeters>
            <DistanceMeters>36320.539496787</DistanceMeters>
          </Trackpoint>
          <Trackpoint>
            <Time>2019-05-08T09:26:54.000Z</Time>
            <Position>
              <LatitudeDegrees>42.989291064441204071044921875</LatitudeDegrees>
              <LongitudeDegrees>0.5565840192139148712158203125</LongitudeDegrees>
            </Position>
            <AltitudeMeters>652.4000244140625</AltitudeMeters>
            <DistanceMeters>36327.964969619</DistanceMeters>
          </Trackpoint>
          <Trackpoint>
            <Time>2019-05-08T09:26:55.000Z</Time>
            <Position>
              <LatitudeDegrees>42.98930522985756397247314453125</LatitudeDegrees>
              <LongitudeDegrees>0.5565568618476390838623046875</LongitudeDegrees>
            </Position>
            <AltitudeMeters>652.79998779296875</AltitudeMeters>
            <DistanceMeters>36330.681138327</DistanceMeters>
          </Trackpoint>
          <Trackpoint>
            <Time>2019-05-08T09:27:00.000Z</Time>
            <Position>
              <LatitudeDegrees>42.9893659986555576324462890625</LatitudeDegrees>
              <LongitudeDegrees>0.55641948245465755462646484375</LongitudeDegrees>
            </Position>
            <AltitudeMeters>653.4000244140625</AltitudeMeters>
            <DistanceMeters>36343.752062025</DistanceMeters>
          </Trackpoint>
          <Trackpoint>
            <Time>2019-05-08T09:27:01.000Z</Time>
            <Position>
              <LatitudeDegrees>42.989377565681934356689453125</LatitudeDegrees>
              <LongitudeDegrees>0.55639215745031833648681640625</LongitudeDegrees>
            </Position>
            <AltitudeMeters>653.5999755859375</AltitudeMeters>
            <DistanceMeters>36346.321300411</DistanceMeters>
          </Trackpoint>
          <Trackpoint>
            <Time>2019-05-08T09:27:07.000Z</Time>
            <Position>
              <LatitudeDegrees>42.98944788984954357147216796875</LatitudeDegrees>
              <LongitudeDegrees>0.5562365055084228515625</LongitudeDegrees>
            </Position>
            <AltitudeMeters>655</AltitudeMeters>
            <DistanceMeters>36361.215961134</DistanceMeters>
          </Trackpoint>
          <Trackpoint>
            <Time>2019-05-08T09:27:08.000Z</Time>
            <Position>
              <LatitudeDegrees>42.9894595406949520111083984375</LatitudeDegrees>
              <LongitudeDegrees>0.5562091805040836334228515625</LongitudeDegrees>
            </Position>
            <AltitudeMeters>655.4000244140625</AltitudeMeters>
            <DistanceMeters>36363.790466157</DistanceMeters>
          </Trackpoint>
          <Trackpoint>
            <Time>2019-05-08T09:27:11.000Z</Time>
            <Position>
              <LatitudeDegrees>42.989490218460559844970703125</LatitudeDegrees>
              <LongitudeDegrees>0.55612745694816112518310546875</LongitudeDegrees>
            </Position>
            <AltitudeMeters>655.79998779296875</AltitudeMeters>
            <DistanceMeters>36371.269255731</DistanceMeters>
          </Trackpoint>
          <Trackpoint>
            <Time>2019-05-08T09:27:14.000Z</Time>
            <Position>
              <LatitudeDegrees>42.98952533863484859466552734375</LatitudeDegrees>
              <LongitudeDegrees>0.55606844834983348846435546875</LongitudeDegrees>
            </Position>
            <AltitudeMeters>656.20001220703125</AltitudeMeters>
            <DistanceMeters>36377.462781765</DistanceMeters>
          </Trackpoint>
          <Trackpoint>
            <Time>2019-05-08T09:27:16.000Z</Time>
            <Position>
              <LatitudeDegrees>42.98955895006656646728515625</LatitudeDegrees>
              <LongitudeDegrees>0.5560465715825557708740234375</LongitudeDegrees>
            </Position>
            <AltitudeMeters>656.5999755859375</AltitudeMeters>
            <DistanceMeters>36381.607079703</DistanceMeters>
          </Trackpoint>
          <Trackpoint>
            <Time>2019-05-08T09:27:19.000Z</Time>
            <Position>
              <LatitudeDegrees>42.98961234278976917266845703125</LatitudeDegrees>
              <LongitudeDegrees>0.55604942142963409423828125</LongitudeDegrees>
            </Position>
            <AltitudeMeters>657.5999755859375</AltitudeMeters>
            <DistanceMeters>36387.555175155</DistanceMeters>
          </Trackpoint>
          <Trackpoint>
            <Time>2019-05-08T09:27:21.000Z</Time>
            <Position>
              <LatitudeDegrees>42.98963732086122035980224609375</LatitudeDegrees>
              <LongitudeDegrees>0.55607917718589305877685546875</LongitudeDegrees>
            </Position>
            <AltitudeMeters>658.20001220703125</AltitudeMeters>
            <DistanceMeters>36391.242897368</DistanceMeters>
          </Trackpoint>
          <Trackpoint>
            <Time>2019-05-08T09:27:23.000Z</Time>
            <Position>
              <LatitudeDegrees>42.98965056426823139190673828125</LatitudeDegrees>
              <LongitudeDegrees>0.55612385272979736328125</LongitudeDegrees>
            </Position>
            <AltitudeMeters>658.5999755859375</AltitudeMeters>
            <DistanceMeters>36395.166706785</DistanceMeters>
          </Trackpoint>
          <Trackpoint>
            <Time>2019-05-08T09:27:29.000Z</Time>
            <Position>
              <LatitudeDegrees>42.98962424509227275848388671875</LatitudeDegrees>
              <LongitudeDegrees>0.5562631599605083465576171875</LongitudeDegrees>
            </Position>
            <AltitudeMeters>660</AltitudeMeters>
            <DistanceMeters>36406.880074426</DistanceMeters>
          </Trackpoint>
          <Trackpoint>
            <Time>2019-05-08T09:27:34.000Z</Time>
            <Position>
              <LatitudeDegrees>42.98958904109895229339599609375</LatitudeDegrees>
              <LongitudeDegrees>0.55637589655816555023193359375</LongitudeDegrees>
            </Position>
            <AltitudeMeters>660.79998779296875</AltitudeMeters>
            <DistanceMeters>36416.859689303</DistanceMeters>
          </Trackpoint>
          <Trackpoint>
            <Time>2019-05-08T09:27:37.000Z</Time>
            <Position>
              <LatitudeDegrees>42.989562638103961944580078125</LatitudeDegrees>
              <LongitudeDegrees>0.55644772946834564208984375</LongitudeDegrees>
            </Position>
            <AltitudeMeters>661</AltitudeMeters>
            <DistanceMeters>36423.404815937</DistanceMeters>
          </Trackpoint>
          <Trackpoint>
            <Time>2019-05-08T09:27:44.000Z</Time>
            <Position>
              <LatitudeDegrees>42.989511676132678985595703125</LatitudeDegrees>
              <LongitudeDegrees>0.556621067225933074951171875</LongitudeDegrees>
            </Position>
            <AltitudeMeters>661.79998779296875</AltitudeMeters>
            <DistanceMeters>36438.614434549</DistanceMeters>
          </Trackpoint>
          <Trackpoint>
            <Time>2019-05-08T09:27:47.000Z</Time>
            <Position>
              <LatitudeDegrees>42.9894937388598918914794921875</LatitudeDegrees>
              <LongitudeDegrees>0.5567020364105701446533203125</LongitudeDegrees>
            </Position>
            <AltitudeMeters>662.20001220703125</AltitudeMeters>
            <DistanceMeters>36445.502396631</DistanceMeters>
          </Trackpoint>
          <Trackpoint>
            <Time>2019-05-08T09:27:52.000Z</Time>
            <Position>
              <LatitudeDegrees>42.98947370611131191253662109375</LatitudeDegrees>
              <LongitudeDegrees>0.55682634003460407257080078125</LongitudeDegrees>
            </Position>
            <AltitudeMeters>662.4000244140625</AltitudeMeters>
            <DistanceMeters>36455.865538005</DistanceMeters>
          </Trackpoint>
          <Trackpoint>
            <Time>2019-05-08T09:27:56.000Z</Time>
            <Position>
              <LatitudeDegrees>42.989450991153717041015625</LatitudeDegrees>
              <LongitudeDegrees>0.55694796144962310791015625</LongitudeDegrees>
            </Position>
            <AltitudeMeters>662.5999755859375</AltitudeMeters>
            <DistanceMeters>36466.084776434</DistanceMeters>
          </Trackpoint>
          <Trackpoint>
            <Time>2019-05-08T09:27:57.000Z</Time>
            <Position>
              <LatitudeDegrees>42.9894511587917804718017578125</LatitudeDegrees>
              <LongitudeDegrees>0.55698257870972156524658203125</LongitudeDegrees>
            </Position>
            <AltitudeMeters>662.5999755859375</AltitudeMeters>
            <DistanceMeters>36468.903724336</DistanceMeters>
          </Trackpoint>
          <Trackpoint>
            <Time>2019-05-08T09:28:02.000Z</Time>
            <Position>
              <LatitudeDegrees>42.98950337804853916168212890625</LatitudeDegrees>
              <LongitudeDegrees>0.55715474300086498260498046875</LongitudeDegrees>
            </Position>
            <AltitudeMeters>662.79998779296875</AltitudeMeters>
            <DistanceMeters>36484.077678638</DistanceMeters>
          </Trackpoint>
          <Trackpoint>
            <Time>2019-05-08T09:28:06.000Z</Time>
            <Position>
              <LatitudeDegrees>42.98957730643451213836669921875</LatitudeDegrees>
              <LongitudeDegrees>0.5572800524532794952392578125</LongitudeDegrees>
            </Position>
            <AltitudeMeters>663</AltitudeMeters>
            <DistanceMeters>36497.184132933</DistanceMeters>
          </Trackpoint>
          <Trackpoint>
            <Time>2019-05-08T09:28:10.000Z</Time>
            <Position>
              <LatitudeDegrees>42.9896414279937744140625</LatitudeDegrees>
              <LongitudeDegrees>0.55741977877914905548095703125</LongitudeDegrees>
            </Position>
            <AltitudeMeters>663.20001220703125</AltitudeMeters>
            <DistanceMeters>36510.613193089</DistanceMeters>
          </Trackpoint>
          <Trackpoint>
            <Time>2019-05-08T09:28:12.000Z</Time>
            <Position>
              <LatitudeDegrees>42.98965475521981716156005859375</LatitudeDegrees>
              <LongitudeDegrees>0.55751415900886058807373046875</LongitudeDegrees>
            </Position>
            <AltitudeMeters>663.20001220703125</AltitudeMeters>
            <DistanceMeters>36518.438918515</DistanceMeters>
          </Trackpoint>
          <Trackpoint>
            <Time>2019-05-08T09:28:15.000Z</Time>
            <Position>
              <LatitudeDegrees>42.9896529950201511383056640625</LatitudeDegrees>
              <LongitudeDegrees>0.557651035487651824951171875</LongitudeDegrees>
            </Position>
            <AltitudeMeters>663.20001220703125</AltitudeMeters>
            <DistanceMeters>36529.584219389</DistanceMeters>
          </Trackpoint>
          <Trackpoint>
            <Time>2019-05-08T09:28:18.000Z</Time>
            <Position>
              <LatitudeDegrees>42.9896332137286663055419921875</LatitudeDegrees>
              <LongitudeDegrees>0.557785816490650177001953125</LongitudeDegrees>
            </Position>
            <AltitudeMeters>663.4000244140625</AltitudeMeters>
            <DistanceMeters>36540.776010593</DistanceMeters>
          </Trackpoint>
          <Trackpoint>
            <Time>2019-05-08T09:28:22.000Z</Time>
            <Position>
              <LatitudeDegrees>42.98958753235638141632080078125</LatitudeDegrees>
              <LongitudeDegrees>0.557950437068939208984375</LongitudeDegrees>
            </Position>
            <AltitudeMeters>664.20001220703125</AltitudeMeters>
            <DistanceMeters>36555.110247908</DistanceMeters>
          </Trackpoint>
          <Trackpoint>
            <Time>2019-05-08T09:28:24.000Z</Time>
            <Position>
              <LatitudeDegrees>42.98955517821013927459716796875</LatitudeDegrees>
              <LongitudeDegrees>0.55802880786359310150146484375</LongitudeDegrees>
            </Position>
            <AltitudeMeters>664.79998779296875</AltitudeMeters>
            <DistanceMeters>36562.436554916</DistanceMeters>
          </Trackpoint>
          <Trackpoint>
            <Time>2019-05-08T09:28:30.000Z</Time>
            <Position>
              <LatitudeDegrees>42.98945032060146331787109375</LatitudeDegrees>
              <LongitudeDegrees>0.55825428105890750885009765625</LongitudeDegrees>
            </Position>
            <AltitudeMeters>665.79998779296875</AltitudeMeters>
            <DistanceMeters>36584.189164085</DistanceMeters>
          </Trackpoint>
          <Trackpoint>
            <Time>2019-05-08T09:28:38.000Z</Time>
            <Position>
              <LatitudeDegrees>42.98937924206256866455078125</LatitudeDegrees>
              <LongitudeDegrees>0.558600537478923797607421875</LongitudeDegrees>
            </Position>
            <AltitudeMeters>666.4000244140625</AltitudeMeters>
            <DistanceMeters>36613.468805433</DistanceMeters>
          </Trackpoint>
          <Trackpoint>
            <Time>2019-05-08T09:28:41.000Z</Time>
            <Position>
              <LatitudeDegrees>42.98939776606857776641845703125</LatitudeDegrees>
              <LongitudeDegrees>0.5587274394929409027099609375</LongitudeDegrees>
            </Position>
            <AltitudeMeters>666.5999755859375</AltitudeMeters>
            <DistanceMeters>36624.004350015</DistanceMeters>
          </Trackpoint>
          <Trackpoint>
            <Time>2019-05-08T09:28:44.000Z</Time>
            <Position>
              <LatitudeDegrees>42.98942090012133121490478515625</LatitudeDegrees>
              <LongitudeDegrees>0.558848641812801361083984375</LongitudeDegrees>
            </Position>
            <AltitudeMeters>666.5999755859375</AltitudeMeters>
            <DistanceMeters>36634.202359155</DistanceMeters>
          </Trackpoint>
          <Trackpoint>
            <Time>2019-05-08T09:28:48.000Z</Time>
            <Position>
              <LatitudeDegrees>42.98946264199912548065185546875</LatitudeDegrees>
              <LongitudeDegrees>0.559002868831157684326171875</LongitudeDegrees>
            </Position>
            <AltitudeMeters>667</AltitudeMeters>
            <DistanceMeters>36647.590675606</DistanceMeters>
          </Trackpoint>
          <Trackpoint>
            <Time>2019-05-08T09:28:54.000Z</Time>
            <Position>
              <LatitudeDegrees>42.989524416625499725341796875</LatitudeDegrees>
              <LongitudeDegrees>0.55924250744283199310302734375</LongitudeDegrees>
            </Position>
            <AltitudeMeters>667.79998779296875</AltitudeMeters>
            <DistanceMeters>36668.276836742</DistanceMeters>
          </Trackpoint>
          <Trackpoint>
            <Time>2019-05-08T09:28:56.000Z</Time>
            <Position>
              <LatitudeDegrees>42.989535145461559295654296875</LatitudeDegrees>
              <LongitudeDegrees>0.5593218840658664703369140625</LongitudeDegrees>
            </Position>
            <AltitudeMeters>668.4000244140625</AltitudeMeters>
            <DistanceMeters>36674.848811759</DistanceMeters>
          </Trackpoint>
          <Trackpoint>
            <Time>2019-05-08T09:29:03.000Z</Time>
            <Position>
              <LatitudeDegrees>42.9896105825901031494140625</LatitudeDegrees>
              <LongitudeDegrees>0.55958800949156284332275390625</LongitudeDegrees>
            </Position>
            <AltitudeMeters>669.20001220703125</AltitudeMeters>
            <DistanceMeters>36698.085320981</DistanceMeters>
          </Trackpoint>
          <Trackpoint>
            <Time>2019-05-08T09:29:05.000Z</Time>
            <Position>
              <LatitudeDegrees>42.98965441994369029998779296875</LatitudeDegrees>
              <LongitudeDegrees>0.55964400060474872589111328125</LongitudeDegrees>
            </Position>
            <AltitudeMeters>669.5999755859375</AltitudeMeters>
            <DistanceMeters>36704.762934139</DistanceMeters>
          </Trackpoint>
          <Trackpoint>
            <Time>2019-05-08T09:29:08.000Z</Time>
            <Position>
              <LatitudeDegrees>42.98972717486321926116943359375</LatitudeDegrees>
              <LongitudeDegrees>0.55969328619539737701416015625</LongitudeDegrees>
            </Position>
            <AltitudeMeters>669.79998779296875</AltitudeMeters>
            <DistanceMeters>36713.80046928</DistanceMeters>
          </Trackpoint>
          <Trackpoint>
            <Time>2019-05-08T09:29:09.000Z</Time>
            <Position>
              <LatitudeDegrees>42.98975047655403614044189453125</LatitudeDegrees>
              <LongitudeDegrees>0.5597004108130931854248046875</LongitudeDegrees>
            </Position>
            <AltitudeMeters>670</AltitudeMeters>
            <DistanceMeters>36716.456121686</DistanceMeters>
          </Trackpoint>
          <Trackpoint>
            <Time>2019-05-08T09:29:13.000Z</Time>
            <Position>
              <LatitudeDegrees>42.98984301276504993438720703125</LatitudeDegrees>
              <LongitudeDegrees>0.55968783795833587646484375</LongitudeDegrees>
            </Position>
            <AltitudeMeters>670.5999755859375</AltitudeMeters>
            <DistanceMeters>36726.806184336</DistanceMeters>
          </Trackpoint>
          <Trackpoint>
            <Time>2019-05-08T09:29:14.000Z</Time>
            <Position>
              <LatitudeDegrees>42.98986614681780338287353515625</LatitudeDegrees>
              <LongitudeDegrees>0.5596799589693546295166015625</LongitudeDegrees>
            </Position>
            <AltitudeMeters>670.79998779296875</AltitudeMeters>
            <DistanceMeters>36729.460136036</DistanceMeters>
          </Trackpoint>
          <Trackpoint>
            <Time>2019-05-08T09:29:16.000Z</Time>
            <Position>
              <LatitudeDegrees>42.9899121634662151336669921875</LatitudeDegrees>
              <LongitudeDegrees>0.5596685595810413360595703125</LongitudeDegrees>
            </Position>
            <AltitudeMeters>671.5999755859375</AltitudeMeters>
            <DistanceMeters>36734.664963539</DistanceMeters>
          </Trackpoint>
          <Trackpoint>
            <Time>2019-05-08T09:29:20.000Z</Time>
            <Position>
              <LatitudeDegrees>42.98999774269759654998779296875</LatitudeDegrees>
              <LongitudeDegrees>0.55961181409657001495361328125</LongitudeDegrees>
            </Position>
            <AltitudeMeters>672.5999755859375</AltitudeMeters>
            <DistanceMeters>36745.251383082</DistanceMeters>
          </Trackpoint>
          <Trackpoint>
            <Time>2019-05-08T09:29:21.000Z</Time>
            <Position>
              <LatitudeDegrees>42.99001484178006649017333984375</LatitudeDegrees>
              <LongitudeDegrees>0.5595907755196094512939453125</LongitudeDegrees>
            </Position>
            <AltitudeMeters>673</AltitudeMeters>
            <DistanceMeters>36747.811819666</DistanceMeters>
          </Trackpoint>
          <Trackpoint>
            <Time>2019-05-08T09:29:26.000Z</Time>
            <Position>
              <LatitudeDegrees>42.99008189700543880462646484375</LatitudeDegrees>
              <LongitudeDegrees>0.559475608170032501220703125</LongitudeDegrees>
            </Position>
            <AltitudeMeters>674.4000244140625</AltitudeMeters>
            <DistanceMeters>36759.795739549</DistanceMeters>
          </Trackpoint>
          <Trackpoint>
            <Time>2019-05-08T09:29:31.000Z</Time>
            <Position>
              <LatitudeDegrees>42.9901274107396602630615234375</LatitudeDegrees>
              <LongitudeDegrees>0.5593745224177837371826171875</LongitudeDegrees>
            </Position>
            <AltitudeMeters>675.79998779296875</AltitudeMeters>
            <DistanceMeters>36769.459540591</DistanceMeters>
          </Trackpoint>
          <Trackpoint>
            <Time>2019-05-08T09:29:32.000Z</Time>
            <Position>
              <LatitudeDegrees>42.99013428390026092529296875</LatitudeDegrees>
              <LongitudeDegrees>0.55935163982212543487548828125</LongitudeDegrees>
            </Position>
            <AltitudeMeters>676.20001220703125</AltitudeMeters>
            <DistanceMeters>36771.475361615</DistanceMeters>
          </Trackpoint>
          <Trackpoint>
            <Time>2019-05-08T09:29:38.000Z</Time>
            <Position>
              <LatitudeDegrees>42.99019220285117626190185546875</LatitudeDegrees>
              <LongitudeDegrees>0.55921870283782482147216796875</LongitudeDegrees>
            </Position>
            <AltitudeMeters>677.5999755859375</AltitudeMeters>
            <DistanceMeters>36784.072764658</DistanceMeters>
          </Trackpoint>
          <Trackpoint>
            <Time>2019-05-08T09:29:46.000Z</Time>
            <Position>
              <LatitudeDegrees>42.99030326306819915771484375</LatitudeDegrees>
              <LongitudeDegrees>0.559053160250186920166015625</LongitudeDegrees>
            </Position>
            <AltitudeMeters>679.20001220703125</AltitudeMeters>
            <DistanceMeters>36802.360408333</DistanceMeters>
          </Trackpoint>
          <Trackpoint>
            <Time>2019-05-08T09:29:54.000Z</Time>
            <Position>
              <LatitudeDegrees>42.9904271475970745086669921875</LatitudeDegrees>
              <LongitudeDegrees>0.558910667896270751953125</LongitudeDegrees>
            </Position>
            <AltitudeMeters>680.4000244140625</AltitudeMeters>
            <DistanceMeters>36820.380440212</DistanceMeters>
          </Trackpoint>
          <Trackpoint>
            <Time>2019-05-08T09:29:55.000Z</Time>
            <Position>
              <LatitudeDegrees>42.99044332467019557952880859375</LatitudeDegrees>
              <LongitudeDegrees>0.558892227709293365478515625</LongitudeDegrees>
            </Position>
            <AltitudeMeters>680.5999755859375</AltitudeMeters>
            <DistanceMeters>36822.723576247</DistanceMeters>
          </Trackpoint>
          <Trackpoint>
            <Time>2019-05-08T09:30:03.000Z</Time>
            <Position>
              <LatitudeDegrees>42.99057994969189167022705078125</LatitudeDegrees>
              <LongitudeDegrees>0.5587537586688995361328125</LongitudeDegrees>
            </Position>
            <AltitudeMeters>681.79998779296875</AltitudeMeters>
            <DistanceMeters>36841.653222135</DistanceMeters>
          </Trackpoint>
          <Trackpoint>
            <Time>2019-05-08T09:30:05.000Z</Time>
            <Position>
              <LatitudeDegrees>42.99061867408454418182373046875</LatitudeDegrees>
              <LongitudeDegrees>0.55871830321848392486572265625</LongitudeDegrees>
            </Position>
            <AltitudeMeters>681.79998779296875</AltitudeMeters>
            <DistanceMeters>36846.8406712</DistanceMeters>
          </Trackpoint>
          <Trackpoint>
            <Time>2019-05-08T09:30:11.000Z</Time>
            <Position>
              <LatitudeDegrees>42.9907302372157573699951171875</LatitudeDegrees>
              <LongitudeDegrees>0.5586070753633975982666015625</LongitudeDegrees>
            </Position>
            <AltitudeMeters>682.4000244140625</AltitudeMeters>
            <DistanceMeters>36862.209167531</DistanceMeters>
          </Trackpoint>
          <Trackpoint>
            <Time>2019-05-08T09:30:14.000Z</Time>
            <Position>
              <LatitudeDegrees>42.9907822050154209136962890625</LatitudeDegrees>
              <LongitudeDegrees>0.55854395963251590728759765625</LongitudeDegrees>
            </Position>
            <AltitudeMeters>683</AltitudeMeters>
            <DistanceMeters>36869.946699878</DistanceMeters>
          </Trackpoint>
          <Trackpoint>
            <Time>2019-05-08T09:30:15.000Z</Time>
            <Position>
              <LatitudeDegrees>42.9907999746501445770263671875</LatitudeDegrees>
              <LongitudeDegrees>0.55852434597909450531005859375</LongitudeDegrees>
            </Position>
            <AltitudeMeters>683</AltitudeMeters>
            <DistanceMeters>36872.489441456</DistanceMeters>
          </Trackpoint>
          <Trackpoint>
            <Time>2019-05-08T09:30:22.000Z</Time>
            <Position>
              <LatitudeDegrees>42.9909074306488037109375</LatitudeDegrees>
              <LongitudeDegrees>0.55837933905422687530517578125</LongitudeDegrees>
            </Position>
            <AltitudeMeters>683.5999755859375</AltitudeMeters>
            <DistanceMeters>36889.294668047</DistanceMeters>
          </Trackpoint>
          <Trackpoint>
            <Time>2019-05-08T09:30:24.000Z</Time>
            <Position>
              <LatitudeDegrees>42.9909354262053966522216796875</LatitudeDegrees>
              <LongitudeDegrees>0.55833709426224231719970703125</LongitudeDegrees>
            </Position>
            <AltitudeMeters>684.4000244140625</AltitudeMeters>
            <DistanceMeters>36893.935436552</DistanceMeters>
          </Trackpoint>
          <Trackpoint>
            <Time>2019-05-08T09:30:28.000Z</Time>
            <Position>
              <LatitudeDegrees>42.9909877292811870574951171875</LatitudeDegrees>
              <LongitudeDegrees>0.558243803679943084716796875</LongitudeDegrees>
            </Position>
            <AltitudeMeters>684.5999755859375</AltitudeMeters>
            <DistanceMeters>36903.50439549</DistanceMeters>
          </Trackpoint>
          <Trackpoint>
            <Time>2019-05-08T09:30:32.000Z</Time>
            <Position>
              <LatitudeDegrees>42.99104397185146808624267578125</LatitudeDegrees>
              <LongitudeDegrees>0.55814288556575775146484375</LongitudeDegrees>
            </Position>
            <AltitudeMeters>685.5999755859375</AltitudeMeters>
            <DistanceMeters>36913.833934843</DistanceMeters>
          </Trackpoint>
          <Trackpoint>
            <Time>2019-05-08T09:30:37.000Z</Time>
            <Position>
              <LatitudeDegrees>42.99112443812191486358642578125</LatitudeDegrees>
              <LongitudeDegrees>0.5580371059477329254150390625</LongitudeDegrees>
            </Position>
            <AltitudeMeters>686.20001220703125</AltitudeMeters>
            <DistanceMeters>36926.25883673</DistanceMeters>
          </Trackpoint>
          <Trackpoint>
            <Time>2019-05-08T09:30:39.000Z</Time>
            <Position>
              <LatitudeDegrees>42.991150505840778350830078125</LatitudeDegrees>
              <LongitudeDegrees>0.55798103101551532745361328125</LongitudeDegrees>
            </Position>
            <AltitudeMeters>686.5999755859375</AltitudeMeters>
            <DistanceMeters>36931.667852137</DistanceMeters>
          </Trackpoint>
          <Trackpoint>
            <Time>2019-05-08T09:30:44.000Z</Time>
            <Position>
              <LatitudeDegrees>42.9912267811596393585205078125</LatitudeDegrees>
              <LongitudeDegrees>0.557856895029544830322265625</LongitudeDegrees>
            </Position>
            <AltitudeMeters>687.20001220703125</AltitudeMeters>
            <DistanceMeters>36944.866648854</DistanceMeters>
          </Trackpoint>
          <Trackpoint>
            <Time>2019-05-08T09:30:47.000Z</Time>
            <Position>
              <LatitudeDegrees>42.9912703670561313629150390625</LatitudeDegrees>
              <LongitudeDegrees>0.5577854812145233154296875</LongitudeDegrees>
            </Position>
            <AltitudeMeters>687.5999755859375</AltitudeMeters>
            <DistanceMeters>36952.439031928</DistanceMeters>
          </Trackpoint>
          <Trackpoint>
            <Time>2019-05-08T09:30:48.000Z</Time>
            <Position>
              <LatitudeDegrees>42.99128553830087184906005859375</LatitudeDegrees>
              <LongitudeDegrees>0.55776058696210384368896484375</LongitudeDegrees>
            </Position>
            <AltitudeMeters>688</AltitudeMeters>
            <DistanceMeters>36955.075916237</DistanceMeters>
          </Trackpoint>
          <Trackpoint>
            <Time>2019-05-08T09:30:54.000Z</Time>
            <Position>
              <LatitudeDegrees>42.99136030487716197967529296875</LatitudeDegrees>
              <LongitudeDegrees>0.55761859752237796783447265625</LongitudeDegrees>
            </Position>
            <AltitudeMeters>688.79998779296875</AltitudeMeters>
            <DistanceMeters>36969.319149627</DistanceMeters>
          </Trackpoint>
          <Trackpoint>
            <Time>2019-05-08T09:31:00.000Z</Time>
            <Position>
              <LatitudeDegrees>42.99143138341605663299560546875</LatitudeDegrees>
              <LongitudeDegrees>0.55748180486261844635009765625</LongitudeDegrees>
            </Position>
            <AltitudeMeters>689.79998779296875</AltitudeMeters>
            <DistanceMeters>36982.9798802</DistanceMeters>
          </Trackpoint>
          <Trackpoint>
            <Time>2019-05-08T09:31:03.000Z</Time>
            <Position>
              <LatitudeDegrees>42.991462983191013336181640625</LatitudeDegrees>
              <LongitudeDegrees>0.557415671646595001220703125</LongitudeDegrees>
            </Position>
            <AltitudeMeters>690.5999755859375</AltitudeMeters>
            <DistanceMeters>36989.410879353</DistanceMeters>
          </Trackpoint>
          <Trackpoint>
            <Time>2019-05-08T09:31:06.000Z</Time>
            <Position>
              <LatitudeDegrees>42.99150631763041019439697265625</LatitudeDegrees>
              <LongitudeDegrees>0.55736261419951915740966796875</LongitudeDegrees>
            </Position>
            <AltitudeMeters>691</AltitudeMeters>
            <DistanceMeters>36995.88526078</DistanceMeters>
          </Trackpoint>
          <Trackpoint>
            <Time>2019-05-08T09:31:09.000Z</Time>
            <Position>
              <LatitudeDegrees>42.99155308865010738372802734375</LatitudeDegrees>
              <LongitudeDegrees>0.5573212914168834686279296875</LongitudeDegrees>
            </Position>
            <AltitudeMeters>692</AltitudeMeters>
            <DistanceMeters>37002.083887665</DistanceMeters>
          </Trackpoint>
          <Trackpoint>
            <Time>2019-05-08T09:31:15.000Z</Time>
            <Position>
              <LatitudeDegrees>42.9916716925799846649169921875</LatitudeDegrees>
              <LongitudeDegrees>0.557289607822895050048828125</LongitudeDegrees>
            </Position>
            <AltitudeMeters>693.20001220703125</AltitudeMeters>
            <DistanceMeters>37015.534448306</DistanceMeters>
          </Trackpoint>
          <Trackpoint>
            <Time>2019-05-08T09:31:16.000Z</Time>
            <Position>
              <LatitudeDegrees>42.9916918091475963592529296875</LatitudeDegrees>
              <LongitudeDegrees>0.5572944693267345428466796875</LongitudeDegrees>
            </Position>
            <AltitudeMeters>693.4000244140625</AltitudeMeters>
            <DistanceMeters>37017.809142528</DistanceMeters>
          </Trackpoint>
          <Trackpoint>
            <Time>2019-05-08T09:31:24.000Z</Time>
            <Position>
              <LatitudeDegrees>42.9918597824871540069580078125</LatitudeDegrees>
              <LongitudeDegrees>0.55731274187564849853515625</LongitudeDegrees>
            </Position>
            <AltitudeMeters>695</AltitudeMeters>
            <DistanceMeters>37036.564344414</DistanceMeters>
          </Trackpoint>
          <Trackpoint>
            <Time>2019-05-08T09:31:26.000Z</Time>
            <Position>
              <LatitudeDegrees>42.9919037036597728729248046875</LatitudeDegrees>
              <LongitudeDegrees>0.55731835775077342987060546875</LongitudeDegrees>
            </Position>
            <AltitudeMeters>695.20001220703125</AltitudeMeters>
            <DistanceMeters>37041.473649256</DistanceMeters>
          </Trackpoint>
          <Trackpoint>
            <Time>2019-05-08T09:31:31.000Z</Time>
            <Position>
              <LatitudeDegrees>42.99200722016394138336181640625</LatitudeDegrees>
              <LongitudeDegrees>0.5573410727083683013916015625</LongitudeDegrees>
            </Position>
            <AltitudeMeters>695.5999755859375</AltitudeMeters>
            <DistanceMeters>37053.142991687</DistanceMeters>
          </Trackpoint>
          <Trackpoint>
            <Time>2019-05-08T09:31:38.000Z</Time>
            <Position>
              <LatitudeDegrees>42.99215407110750675201416015625</LatitudeDegrees>
              <LongitudeDegrees>0.55739781819283962249755859375</LongitudeDegrees>
            </Position>
            <AltitudeMeters>696.20001220703125</AltitudeMeters>
            <DistanceMeters>37070.128335732</DistanceMeters>
          </Trackpoint>
          <Trackpoint>
            <Time>2019-05-08T09:31:41.000Z</Time>
            <Position>
              <LatitudeDegrees>42.99221375025808811187744140625</LatitudeDegrees>
              <LongitudeDegrees>0.5574346147477626800537109375</LongitudeDegrees>
            </Position>
            <AltitudeMeters>696.4000244140625</AltitudeMeters>
            <DistanceMeters>37077.415094235</DistanceMeters>
          </Trackpoint>
          <Trackpoint>
            <Time>2019-05-08T09:31:45.000Z</Time>
            <Position>
              <LatitudeDegrees>42.99229404889047145843505859375</LatitudeDegrees>
              <LongitudeDegrees>0.5574770271778106689453125</LongitudeDegrees>
            </Position>
            <AltitudeMeters>696.5999755859375</AltitudeMeters>
            <DistanceMeters>37086.995841965</DistanceMeters>
          </Trackpoint>
          <Trackpoint>
            <Time>2019-05-08T09:31:47.000Z</Time>
            <Position>
              <LatitudeDegrees>42.99233495257794857025146484375</LatitudeDegrees>
              <LongitudeDegrees>0.557496808469295501708984375</LongitudeDegrees>
            </Position>
            <AltitudeMeters>696.79998779296875</AltitudeMeters>
            <DistanceMeters>37091.824470898</DistanceMeters>
          </Trackpoint>
          <Trackpoint>
            <Time>2019-05-08T09:31:53.000Z</Time>
            <Position>
              <LatitudeDegrees>42.99245028756558895111083984375</LatitudeDegrees>
              <LongitudeDegrees>0.55757501162588596343994140625</LongitudeDegrees>
            </Position>
            <AltitudeMeters>697.79998779296875</AltitudeMeters>
            <DistanceMeters>37106.153667602</DistanceMeters>
          </Trackpoint>
          <Trackpoint>
            <Time>2019-05-08T09:31:58.000Z</Time>
            <Position>
              <LatitudeDegrees>42.99255807884037494659423828125</LatitudeDegrees>
              <LongitudeDegrees>0.557618848979473114013671875</LongitudeDegrees>
            </Position>
            <AltitudeMeters>698.5999755859375</AltitudeMeters>
            <DistanceMeters>37118.670529282</DistanceMeters>
          </Trackpoint>
          <Trackpoint>
            <Time>2019-05-08T09:32:00.000Z</Time>
            <Position>
              <LatitudeDegrees>42.99260166473686695098876953125</LatitudeDegrees>
              <LongitudeDegrees>0.55763117037713527679443359375</LongitudeDegrees>
            </Position>
            <AltitudeMeters>698.5999755859375</AltitudeMeters>
            <DistanceMeters>37123.623782526</DistanceMeters>
          </Trackpoint>
          <Trackpoint>
            <Time>2019-05-08T09:32:05.000Z</Time>
            <Position>
              <LatitudeDegrees>42.99270777963101863861083984375</LatitudeDegrees>
              <LongitudeDegrees>0.55764290504157543182373046875</LongitudeDegrees>
            </Position>
            <AltitudeMeters>699</AltitudeMeters>
            <DistanceMeters>37135.473579516</DistanceMeters>
          </Trackpoint>
          <Trackpoint>
            <Time>2019-05-08T09:32:07.000Z</Time>
            <Position>
              <LatitudeDegrees>42.992743737995624542236328125</LatitudeDegrees>
              <LongitudeDegrees>0.557614825665950775146484375</LongitudeDegrees>
            </Position>
            <AltitudeMeters>699.4000244140625</AltitudeMeters>
            <DistanceMeters>37140.084089243</DistanceMeters>
          </Trackpoint>
          <Trackpoint>
            <Time>2019-05-08T09:32:10.000Z</Time>
            <Position>
              <LatitudeDegrees>42.99275890924036502838134765625</LatitudeDegrees>
              <LongitudeDegrees>0.55753662250936031341552734375</LongitudeDegrees>
            </Position>
            <AltitudeMeters>700</AltitudeMeters>
            <DistanceMeters>37146.670475752</DistanceMeters>
          </Trackpoint>
          <Trackpoint>
            <Time>2019-05-08T09:32:12.000Z</Time>
            <Position>
              <LatitudeDegrees>42.992747090756893157958984375</LatitudeDegrees>
              <LongitudeDegrees>0.557487420737743377685546875</LongitudeDegrees>
            </Position>
            <AltitudeMeters>700.4000244140625</AltitudeMeters>
            <DistanceMeters>37150.888206254</DistanceMeters>
          </Trackpoint>
          <Trackpoint>
            <Time>2019-05-08T09:32:15.000Z</Time>
            <Position>
              <LatitudeDegrees>42.99270794726908206939697265625</LatitudeDegrees>
              <LongitudeDegrees>0.5574295856058597564697265625</LongitudeDegrees>
            </Position>
            <AltitudeMeters>701</AltitudeMeters>
            <DistanceMeters>37157.303741184</DistanceMeters>
          </Trackpoint>
          <Trackpoint>
            <Time>2019-05-08T09:32:19.000Z</Time>
            <Position>
              <LatitudeDegrees>42.992637455463409423828125</LatitudeDegrees>
              <LongitudeDegrees>0.5573735944926738739013671875</LongitudeDegrees>
            </Position>
            <AltitudeMeters>702</AltitudeMeters>
            <DistanceMeters>37166.377672913</DistanceMeters>
          </Trackpoint>
          <Trackpoint>
            <Time>2019-05-08T09:32:26.000Z</Time>
            <Position>
              <LatitudeDegrees>42.99252253957092761993408203125</LatitudeDegrees>
              <LongitudeDegrees>0.5572646297514438629150390625</LongitudeDegrees>
            </Position>
            <AltitudeMeters>703.20001220703125</AltitudeMeters>
            <DistanceMeters>37181.943501228</DistanceMeters>
          </Trackpoint>
          <Trackpoint>
            <Time>2019-05-08T09:32:28.000Z</Time>
            <Position>
              <LatitudeDegrees>42.99249320290982723236083984375</LatitudeDegrees>
              <LongitudeDegrees>0.55722397752106189727783203125</LongitudeDegrees>
            </Position>
            <AltitudeMeters>703.4000244140625</AltitudeMeters>
            <DistanceMeters>37186.593017655</DistanceMeters>
          </Trackpoint>
          <Trackpoint>
            <Time>2019-05-08T09:32:31.000Z</Time>
            <Position>
              <LatitudeDegrees>42.99244643189013004302978515625</LatitudeDegrees>
              <LongitudeDegrees>0.55715088732540607452392578125</LongitudeDegrees>
            </Position>
            <AltitudeMeters>703.79998779296875</AltitudeMeters>
            <DistanceMeters>37194.499103232</DistanceMeters>
          </Trackpoint>
          <Trackpoint>
            <Time>2019-05-08T09:32:36.000Z</Time>
            <Position>
              <LatitudeDegrees>42.992373593151569366455078125</LatitudeDegrees>
              <LongitudeDegrees>0.55704426951706409454345703125</LongitudeDegrees>
            </Position>
            <AltitudeMeters>704.5999755859375</AltitudeMeters>
            <DistanceMeters>37206.375922003</DistanceMeters>
          </Trackpoint>
          <Trackpoint>
            <Time>2019-05-08T09:32:43.000Z</Time>
            <Position>
              <LatitudeDegrees>42.99227041192352771759033203125</LatitudeDegrees>
              <LongitudeDegrees>0.55688836611807346343994140625</LongitudeDegrees>
            </Position>
            <AltitudeMeters>705.79998779296875</AltitudeMeters>
            <DistanceMeters>37223.492341026</DistanceMeters>
          </Trackpoint>
          <Trackpoint>
            <Time>2019-05-08T09:32:44.000Z</Time>
            <Position>
              <LatitudeDegrees>42.99225565977394580841064453125</LatitudeDegrees>
              <LongitudeDegrees>0.5568656511604785919189453125</LongitudeDegrees>
            </Position>
            <AltitudeMeters>705.79998779296875</AltitudeMeters>
            <DistanceMeters>37225.964862361</DistanceMeters>
          </Trackpoint>
          <Trackpoint>
            <Time>2019-05-08T09:32:51.000Z</Time>
            <Position>
              <LatitudeDegrees>42.9921538196504116058349609375</LatitudeDegrees>
              <LongitudeDegrees>0.5567104183137416839599609375</LongitudeDegrees>
            </Position>
            <AltitudeMeters>706.5999755859375</AltitudeMeters>
            <DistanceMeters>37242.940900168</DistanceMeters>
          </Trackpoint>
          <Trackpoint>
            <Time>2019-05-08T09:32:54.000Z</Time>
            <Position>
              <LatitudeDegrees>42.99210797064006328582763671875</LatitudeDegrees>
              <LongitudeDegrees>0.5566483922302722930908203125</LongitudeDegrees>
            </Position>
            <AltitudeMeters>707</AltitudeMeters>
            <DistanceMeters>37250.120292645</DistanceMeters>
          </Trackpoint>
          <Trackpoint>
            <Time>2019-05-08T09:32:58.000Z</Time>
            <Position>
              <LatitudeDegrees>42.992047704756259918212890625</LatitudeDegrees>
              <LongitudeDegrees>0.5565696023404598236083984375</LongitudeDegrees>
            </Position>
            <AltitudeMeters>707.5999755859375</AltitudeMeters>
            <DistanceMeters>37259.400856697</DistanceMeters>
          </Trackpoint>
          <Trackpoint>
            <Time>2019-05-08T09:33:03.000Z</Time>
            <Position>
              <LatitudeDegrees>42.99196832813322544097900390625</LatitudeDegrees>
              <LongitudeDegrees>0.55647932924330234527587890625</LongitudeDegrees>
            </Position>
            <AltitudeMeters>708.5999755859375</AltitudeMeters>
            <DistanceMeters>37270.89280466</DistanceMeters>
          </Trackpoint>
          <Trackpoint>
            <Time>2019-05-08T09:33:08.000Z</Time>
            <Position>
              <LatitudeDegrees>42.9918906278908252716064453125</LatitudeDegrees>
              <LongitudeDegrees>0.5563865415751934051513671875</LongitudeDegrees>
            </Position>
            <AltitudeMeters>709.4000244140625</AltitudeMeters>
            <DistanceMeters>37282.375712665</DistanceMeters>
          </Trackpoint>
          <Trackpoint>
            <Time>2019-05-08T09:33:09.000Z</Time>
            <Position>
              <LatitudeDegrees>42.99188031814992427825927734375</LatitudeDegrees>
              <LongitudeDegrees>0.556364916265010833740234375</LongitudeDegrees>
            </Position>
            <AltitudeMeters>709.4000244140625</AltitudeMeters>
            <DistanceMeters>37284.474921398</DistanceMeters>
          </Trackpoint>
          <Trackpoint>
            <Time>2019-05-08T09:33:10.000Z</Time>
            <Position>
              <LatitudeDegrees>42.99186908639967441558837890625</LatitudeDegrees>
              <LongitudeDegrees>0.55634270422160625457763671875</LongitudeDegrees>
            </Position>
            <AltitudeMeters>709.5999755859375</AltitudeMeters>
            <DistanceMeters>37286.672895669</DistanceMeters>
          </Trackpoint>
          <Trackpoint>
            <Time>2019-05-08T09:33:12.000Z</Time>
            <Position>
              <LatitudeDegrees>42.9918510653078556060791015625</LatitudeDegrees>
              <LongitudeDegrees>0.55629593320190906524658203125</LongitudeDegrees>
            </Position>
            <AltitudeMeters>710</AltitudeMeters>
            <DistanceMeters>37290.977511432</DistanceMeters>
          </Trackpoint>
          <Trackpoint>
            <Time>2019-05-08T09:33:17.000Z</Time>
            <Position>
              <LatitudeDegrees>42.991840839385986328125</LatitudeDegrees>
              <LongitudeDegrees>0.556164085865020751953125</LongitudeDegrees>
            </Position>
            <AltitudeMeters>711.20001220703125</AltitudeMeters>
            <DistanceMeters>37301.771308089</DistanceMeters>
          </Trackpoint>
          <Trackpoint>
            <Time>2019-05-08T09:33:23.000Z</Time>
            <Position>
              <LatitudeDegrees>42.99190797843039035797119140625</LatitudeDegrees>
              <LongitudeDegrees>0.55601857602596282958984375</LongitudeDegrees>
            </Position>
            <AltitudeMeters>713.20001220703125</AltitudeMeters>
            <DistanceMeters>37315.777356092</DistanceMeters>
          </Trackpoint>
          <Trackpoint>
            <Time>2019-05-08T09:33:28.000Z</Time>
            <Position>
              <LatitudeDegrees>42.99201526679098606109619140625</LatitudeDegrees>
              <LongitudeDegrees>0.55599083192646503448486328125</LongitudeDegrees>
            </Position>
            <AltitudeMeters>714.20001220703125</AltitudeMeters>
            <DistanceMeters>37327.93037754</DistanceMeters>
          </Trackpoint>
          <Trackpoint>
            <Time>2019-05-08T09:33:29.000Z</Time>
            <Position>
              <LatitudeDegrees>42.99203622154891490936279296875</LatitudeDegrees>
              <LongitudeDegrees>0.55599334649741649627685546875</LongitudeDegrees>
            </Position>
            <AltitudeMeters>714.5999755859375</AltitudeMeters>
            <DistanceMeters>37330.273513575</DistanceMeters>
          </Trackpoint>
          <Trackpoint>
            <Time>2019-05-08T09:33:36.000Z</Time>
            <Position>
              <LatitudeDegrees>42.992176115512847900390625</LatitudeDegrees>
              <LongitudeDegrees>0.5560018122196197509765625</LongitudeDegrees>
            </Position>
            <AltitudeMeters>716</AltitudeMeters>
            <DistanceMeters>37345.859053551</DistanceMeters>
          </Trackpoint>
          <Trackpoint>
            <Time>2019-05-08T09:33:37.000Z</Time>
            <Position>
              <LatitudeDegrees>42.992194555699825286865234375</LatitudeDegrees>
              <LongitudeDegrees>0.5560046620666980743408203125</LongitudeDegrees>
            </Position>
            <AltitudeMeters>716.20001220703125</AltitudeMeters>
            <DistanceMeters>37347.923562229</DistanceMeters>
          </Trackpoint>
          <Trackpoint>
            <Time>2019-05-08T09:33:43.000Z</Time>
            <Position>
              <LatitudeDegrees>42.9923040233552455902099609375</LatitudeDegrees>
              <LongitudeDegrees>0.55603064596652984619140625</LongitudeDegrees>
            </Position>
            <AltitudeMeters>716.79998779296875</AltitudeMeters>
            <DistanceMeters>37360.289455424</DistanceMeters>
          </Trackpoint>
          <Trackpoint>
            <Time>2019-05-08T09:33:45.000Z</Time>
            <Position>
              <LatitudeDegrees>42.99234149046242237091064453125</LatitudeDegrees>
              <LongitudeDegrees>0.55604129098355770111083984375</LongitudeDegrees>
            </Position>
            <AltitudeMeters>717</AltitudeMeters>
            <DistanceMeters>37364.54873043</DistanceMeters>
          </Trackpoint>
          <Trackpoint>
            <Time>2019-05-08T09:33:50.000Z</Time>
            <Position>
              <LatitudeDegrees>42.99242564477026462554931640625</LatitudeDegrees>
              <LongitudeDegrees>0.5560935102403163909912109375</LongitudeDegrees>
            </Position>
            <AltitudeMeters>718.4000244140625</AltitudeMeters>
            <DistanceMeters>37374.834905895</DistanceMeters>
          </Trackpoint>
          <Trackpoint>
            <Time>2019-05-08T09:33:52.000Z</Time>
            <Position>
              <LatitudeDegrees>42.9924589209258556365966796875</LatitudeDegrees>
              <LongitudeDegrees>0.55611723102629184722900390625</LongitudeDegrees>
            </Position>
            <AltitudeMeters>718.5999755859375</AltitudeMeters>
            <DistanceMeters>37379.011759697</DistanceMeters>
          </Trackpoint>
          <Trackpoint>
            <Time>2019-05-08T09:33:56.000Z</Time>
            <Position>
              <LatitudeDegrees>42.99252706579864025115966796875</LatitudeDegrees>
              <LongitudeDegrees>0.5561682768166065216064453125</LongitudeDegrees>
            </Position>
            <AltitudeMeters>719.4000244140625</AltitudeMeters>
            <DistanceMeters>37387.660756938</DistanceMeters>
          </Trackpoint>
          <Trackpoint>
            <Time>2019-05-08T09:34:03.000Z</Time>
            <Position>
              <LatitudeDegrees>42.99264893867075443267822265625</LatitudeDegrees>
              <LongitudeDegrees>0.5562646687030792236328125</LongitudeDegrees>
            </Position>
            <AltitudeMeters>720</AltitudeMeters>
            <DistanceMeters>37403.332099862</DistanceMeters>
          </Trackpoint>
          <Trackpoint>
            <Time>2019-05-08T09:34:05.000Z</Time>
            <Position>
              <LatitudeDegrees>42.99268246628344058990478515625</LatitudeDegrees>
              <LongitudeDegrees>0.55629006586968898773193359375</LongitudeDegrees>
            </Position>
            <AltitudeMeters>720.4000244140625</AltitudeMeters>
            <DistanceMeters>37407.596671817</DistanceMeters>
          </Trackpoint>
          <Trackpoint>
            <Time>2019-05-08T09:34:10.000Z</Time>
            <Position>
              <LatitudeDegrees>42.9927703924477100372314453125</LatitudeDegrees>
              <LongitudeDegrees>0.556349493563175201416015625</LongitudeDegrees>
            </Position>
            <AltitudeMeters>721.4000244140625</AltitudeMeters>
            <DistanceMeters>37418.51358296</DistanceMeters>
          </Trackpoint>
          <Trackpoint>
            <Time>2019-05-08T09:34:11.000Z</Time>
            <Position>
              <LatitudeDegrees>42.9927878268063068389892578125</LatitudeDegrees>
              <LongitudeDegrees>0.5563652515411376953125</LongitudeDegrees>
            </Position>
            <AltitudeMeters>721.4000244140625</AltitudeMeters>
            <DistanceMeters>37420.839312047</DistanceMeters>
          </Trackpoint>
          <Trackpoint>
            <Time>2019-05-08T09:34:19.000Z</Time>
            <Position>
              <LatitudeDegrees>42.99294481985270977020263671875</LatitudeDegrees>
              <LongitudeDegrees>0.55644102394580841064453125</LongitudeDegrees>
            </Position>
            <AltitudeMeters>722.5999755859375</AltitudeMeters>
            <DistanceMeters>37439.369765006</DistanceMeters>
          </Trackpoint>
          <Trackpoint>
            <Time>2019-05-08T09:34:24.000Z</Time>
            <Position>
              <LatitudeDegrees>42.99304204992949962615966796875</LatitudeDegrees>
              <LongitudeDegrees>0.55637790821492671966552734375</LongitudeDegrees>
            </Position>
            <AltitudeMeters>723.5999755859375</AltitudeMeters>
            <DistanceMeters>37451.349539834</DistanceMeters>
          </Trackpoint>
          <Trackpoint>
            <Time>2019-05-08T09:34:27.000Z</Time>
            <Position>
              <LatitudeDegrees>42.99306669272482395172119140625</LatitudeDegrees>
              <LongitudeDegrees>0.55630297400057315826416015625</LongitudeDegrees>
            </Position>
            <AltitudeMeters>724</AltitudeMeters>
            <DistanceMeters>37458.037962571</DistanceMeters>
          </Trackpoint>
          <Trackpoint>
            <Time>2019-05-08T09:34:28.000Z</Time>
            <Position>
              <LatitudeDegrees>42.99306535162031650543212890625</LatitudeDegrees>
              <LongitudeDegrees>0.5562769062817096710205078125</LongitudeDegrees>
            </Position>
            <AltitudeMeters>724.20001220703125</AltitudeMeters>
            <DistanceMeters>37460.167069983</DistanceMeters>
          </Trackpoint>
          <Trackpoint>
            <Time>2019-05-08T09:34:29.000Z</Time>
            <Position>
              <LatitudeDegrees>42.99305998720228672027587890625</LatitudeDegrees>
              <LongitudeDegrees>0.55625318549573421478271484375</LongitudeDegrees>
            </Position>
            <AltitudeMeters>724.20001220703125</AltitudeMeters>
            <DistanceMeters>37462.187365643</DistanceMeters>
          </Trackpoint>
          <Trackpoint>
            <Time>2019-05-08T09:34:32.000Z</Time>
            <Position>
              <LatitudeDegrees>42.9930386133491992950439453125</LatitudeDegrees>
              <LongitudeDegrees>0.55618353188037872314453125</LongitudeDegrees>
            </Position>
            <AltitudeMeters>724.5999755859375</AltitudeMeters>
            <DistanceMeters>37468.336996538</DistanceMeters>
          </Trackpoint>
          <Trackpoint>
            <Time>2019-05-08T09:34:35.000Z</Time>
            <Position>
              <LatitudeDegrees>42.993006594479084014892578125</LatitudeDegrees>
              <LongitudeDegrees>0.55612854659557342529296875</LongitudeDegrees>
            </Position>
            <AltitudeMeters>725</AltitudeMeters>
            <DistanceMeters>37474.058362381</DistanceMeters>
          </Trackpoint>
          <Trackpoint>
            <Time>2019-05-08T09:34:39.000Z</Time>
            <Position>
              <LatitudeDegrees>42.992963679134845733642578125</LatitudeDegrees>
              <LongitudeDegrees>0.55605386383831501007080078125</LongitudeDegrees>
            </Position>
            <AltitudeMeters>726.20001220703125</AltitudeMeters>
            <DistanceMeters>37481.790057283</DistanceMeters>
          </Trackpoint>
          <Trackpoint>
            <Time>2019-05-08T09:34:42.000Z</Time>
            <Position>
              <LatitudeDegrees>42.99293694086372852325439453125</LatitudeDegrees>
              <LongitudeDegrees>0.5559912510216236114501953125</LongitudeDegrees>
            </Position>
            <AltitudeMeters>727.20001220703125</AltitudeMeters>
            <DistanceMeters>37487.692432646</DistanceMeters>
          </Trackpoint>
          <Trackpoint>
            <Time>2019-05-08T09:34:48.000Z</Time>
            <Position>
              <LatitudeDegrees>42.9928867332637310028076171875</LatitudeDegrees>
              <LongitudeDegrees>0.55585487745702266693115234375</LongitudeDegrees>
            </Position>
            <AltitudeMeters>728.4000244140625</AltitudeMeters>
            <DistanceMeters>37500.121694402</DistanceMeters>
          </Trackpoint>
          <Trackpoint>
            <Time>2019-05-08T09:34:52.000Z</Time>
            <Position>
              <LatitudeDegrees>42.9928646050393581390380859375</LatitudeDegrees>
              <LongitudeDegrees>0.55575496517121791839599609375</LongitudeDegrees>
            </Position>
            <AltitudeMeters>729</AltitudeMeters>
            <DistanceMeters>37508.620079625</DistanceMeters>
          </Trackpoint>
          <Trackpoint>
            <Time>2019-05-08T09:34:54.000Z</Time>
            <Position>
              <LatitudeDegrees>42.99286100082099437713623046875</LatitudeDegrees>
              <LongitudeDegrees>0.5557029135525226593017578125</LongitudeDegrees>
            </Position>
            <AltitudeMeters>729.20001220703125</AltitudeMeters>
            <DistanceMeters>37512.876173297</DistanceMeters>
          </Trackpoint>
          <Trackpoint>
            <Time>2019-05-08T09:34:59.000Z</Time>
            <Position>
              <LatitudeDegrees>42.99287675879895687103271484375</LatitudeDegrees>
              <LongitudeDegrees>0.5555820465087890625</LongitudeDegrees>
            </Position>
            <AltitudeMeters>730.20001220703125</AltitudeMeters>
            <DistanceMeters>37522.870707084</DistanceMeters>
          </Trackpoint>
          <Trackpoint>
            <Time>2019-05-08T09:35:02.000Z</Time>
            <Position>
              <LatitudeDegrees>42.99289670772850513458251953125</LatitudeDegrees>
              <LongitudeDegrees>0.555519349873065948486328125</LongitudeDegrees>
            </Position>
            <AltitudeMeters>730.5999755859375</AltitudeMeters>
            <DistanceMeters>37528.43606082</DistanceMeters>
          </Trackpoint>
          <Trackpoint>
            <Time>2019-05-08T09:35:04.000Z</Time>
            <Position>
              <LatitudeDegrees>42.99292403273284435272216796875</LatitudeDegrees>
              <LongitudeDegrees>0.55548657663166522979736328125</LongitudeDegrees>
            </Position>
            <AltitudeMeters>731.20001220703125</AltitudeMeters>
            <DistanceMeters>37532.482235383</DistanceMeters>
          </Trackpoint>
          <Trackpoint>
            <Time>2019-05-08T09:35:05.000Z</Time>
            <Position>
              <LatitudeDegrees>42.9929365217685699462890625</LatitudeDegrees>
              <LongitudeDegrees>0.5554680526256561279296875</LongitudeDegrees>
            </Position>
            <AltitudeMeters>731.4000244140625</AltitudeMeters>
            <DistanceMeters>37534.533580216</DistanceMeters>
          </Trackpoint>
          <Trackpoint>
            <Time>2019-05-08T09:35:10.000Z</Time>
            <Position>
              <LatitudeDegrees>42.99299326725304126739501953125</LatitudeDegrees>
              <LongitudeDegrees>0.55538532324135303497314453125</LongitudeDegrees>
            </Position>
            <AltitudeMeters>732.4000244140625</AltitudeMeters>
            <DistanceMeters>37543.766343704</DistanceMeters>
          </Trackpoint>
          <Trackpoint>
            <Time>2019-05-08T09:35:17.000Z</Time>
            <Position>
              <LatitudeDegrees>42.99307105131447315216064453125</LatitudeDegrees>
              <LongitudeDegrees>0.555273257195949554443359375</LongitudeDegrees>
            </Position>
            <AltitudeMeters>734</AltitudeMeters>
            <DistanceMeters>37556.343659759</DistanceMeters>
          </Trackpoint>
          <Trackpoint>
            <Time>2019-05-08T09:35:21.000Z</Time>
            <Position>
              <LatitudeDegrees>42.993113212287425994873046875</LatitudeDegrees>
              <LongitudeDegrees>0.55519974790513515472412109375</LongitudeDegrees>
            </Position>
            <AltitudeMeters>734.79998779296875</AltitudeMeters>
            <DistanceMeters>37563.948172205</DistanceMeters>
          </Trackpoint>
          <Trackpoint>
            <Time>2019-05-08T09:35:26.000Z</Time>
            <Position>
              <LatitudeDegrees>42.99317582510411739349365234375</LatitudeDegrees>
              <LongitudeDegrees>0.55511559359729290008544921875</LongitudeDegrees>
            </Position>
            <AltitudeMeters>735.79998779296875</AltitudeMeters>
            <DistanceMeters>37573.720689203</DistanceMeters>
          </Trackpoint>
          <Trackpoint>
            <Time>2019-05-08T09:35:33.000Z</Time>
            <Position>
              <LatitudeDegrees>42.99325905740261077880859375</LatitudeDegrees>
              <LongitudeDegrees>0.55500143207609653472900390625</LongitudeDegrees>
            </Position>
            <AltitudeMeters>737.4000244140625</AltitudeMeters>
            <DistanceMeters>37586.842636377</DistanceMeters>
          </Trackpoint>
          <Trackpoint>
            <Time>2019-05-08T09:35:35.000Z</Time>
            <Position>
              <LatitudeDegrees>42.99328076653182506561279296875</LatitudeDegrees>
              <LongitudeDegrees>0.5549626238644123077392578125</LongitudeDegrees>
            </Position>
            <AltitudeMeters>738</AltitudeMeters>
            <DistanceMeters>37590.82015997</DistanceMeters>
          </Trackpoint>
          <Trackpoint>
            <Time>2019-05-08T09:35:40.000Z</Time>
            <Position>
              <LatitudeDegrees>42.99333776347339153289794921875</LatitudeDegrees>
              <LongitudeDegrees>0.55486212484538555145263671875</LongitudeDegrees>
            </Position>
            <AltitudeMeters>738.79998779296875</AltitudeMeters>
            <DistanceMeters>37601.1732758</DistanceMeters>
          </Trackpoint>
          <Trackpoint>
            <Time>2019-05-08T09:35:41.000Z</Time>
            <Position>
              <LatitudeDegrees>42.9933494143187999725341796875</LatitudeDegrees>
              <LongitudeDegrees>0.554842092096805572509765625</LongitudeDegrees>
            </Position>
            <AltitudeMeters>739</AltitudeMeters>
            <DistanceMeters>37603.255206801</DistanceMeters>
          </Trackpoint>
          <Trackpoint>
            <Time>2019-05-08T09:35:47.000Z</Time>
            <Position>
              <LatitudeDegrees>42.99341856501996517181396484375</LatitudeDegrees>
              <LongitudeDegrees>0.55470420978963375091552734375</LongitudeDegrees>
            </Position>
            <AltitudeMeters>740.4000244140625</AltitudeMeters>
            <DistanceMeters>37616.864943316</DistanceMeters>
          </Trackpoint>
          <Trackpoint>
            <Time>2019-05-08T09:35:50.000Z</Time>
            <Position>
              <LatitudeDegrees>42.9934493266046047210693359375</LatitudeDegrees>
              <LongitudeDegrees>0.55463430471718311309814453125</LongitudeDegrees>
            </Position>
            <AltitudeMeters>740.79998779296875</AltitudeMeters>
            <DistanceMeters>37623.507303853</DistanceMeters>
          </Trackpoint>
          <Trackpoint>
            <Time>2019-05-08T09:35:58.000Z</Time>
            <Position>
              <LatitudeDegrees>42.99352384172379970550537109375</LatitudeDegrees>
              <LongitudeDegrees>0.55443498305976390838623046875</LongitudeDegrees>
            </Position>
            <AltitudeMeters>742</AltitudeMeters>
            <DistanceMeters>37641.730643045</DistanceMeters>
          </Trackpoint>
          <Trackpoint>
            <Time>2019-05-08T09:35:59.000Z</Time>
            <Position>
              <LatitudeDegrees>42.993530295789241790771484375</LatitudeDegrees>
              <LongitudeDegrees>0.55441101081669330596923828125</LongitudeDegrees>
            </Position>
            <AltitudeMeters>742.20001220703125</AltitudeMeters>
            <DistanceMeters>37643.808232162</DistanceMeters>
          </Trackpoint>
          <Trackpoint>
            <Time>2019-05-08T09:36:05.000Z</Time>
            <Position>
              <LatitudeDegrees>42.99358134157955646514892578125</LatitudeDegrees>
              <LongitudeDegrees>0.55426038801670074462890625</LongitudeDegrees>
            </Position>
            <AltitudeMeters>742.79998779296875</AltitudeMeters>
            <DistanceMeters>37657.322754949</DistanceMeters>
          </Trackpoint>
          <Trackpoint>
            <Time>2019-05-08T09:36:06.000Z</Time>
            <Position>
              <LatitudeDegrees>42.99359039403498172760009765625</LatitudeDegrees>
              <LongitudeDegrees>0.55423465557396411895751953125</LongitudeDegrees>
            </Position>
            <AltitudeMeters>742.79998779296875</AltitudeMeters>
            <DistanceMeters>37659.646541883</DistanceMeters>
          </Trackpoint>
          <Trackpoint>
            <Time>2019-05-08T09:36:12.000Z</Time>
            <Position>
              <LatitudeDegrees>42.9936484806239604949951171875</LatitudeDegrees>
              <LongitudeDegrees>0.554068274796009063720703125</LongitudeDegrees>
            </Position>
            <AltitudeMeters>743.4000244140625</AltitudeMeters>
            <DistanceMeters>37674.654747199</DistanceMeters>
          </Trackpoint>
          <Trackpoint>
            <Time>2019-05-08T09:36:13.000Z</Time>
            <Position>
              <LatitudeDegrees>42.9936608858406543731689453125</LatitudeDegrees>
              <LongitudeDegrees>0.5540419556200504302978515625</LongitudeDegrees>
            </Position>
            <AltitudeMeters>743.4000244140625</AltitudeMeters>
            <DistanceMeters>37677.201037616</DistanceMeters>
          </Trackpoint>
          <Trackpoint>
            <Time>2019-05-08T09:36:20.000Z</Time>
            <Position>
              <LatitudeDegrees>42.9937534220516681671142578125</LatitudeDegrees>
              <LongitudeDegrees>0.55388580076396465301513671875</LongitudeDegrees>
            </Position>
            <AltitudeMeters>744</AltitudeMeters>
            <DistanceMeters>37693.561922556</DistanceMeters>
          </Trackpoint>
          <Trackpoint>
            <Time>2019-05-08T09:36:23.000Z</Time>
            <Position>
              <LatitudeDegrees>42.99379340372979640960693359375</LatitudeDegrees>
              <LongitudeDegrees>0.55383752100169658660888671875</LongitudeDegrees>
            </Position>
            <AltitudeMeters>744.4000244140625</AltitudeMeters>
            <DistanceMeters>37699.499381477</DistanceMeters>
          </Trackpoint>
          <Trackpoint>
            <Time>2019-05-08T09:36:25.000Z</Time>
            <Position>
              <LatitudeDegrees>42.99381787888705730438232421875</LatitudeDegrees>
              <LongitudeDegrees>0.5537911690771579742431640625</LongitudeDegrees>
            </Position>
            <AltitudeMeters>744.4000244140625</AltitudeMeters>
            <DistanceMeters>37704.152780591</DistanceMeters>
          </Trackpoint>
          <Trackpoint>
            <Time>2019-05-08T09:36:29.000Z</Time>
            <Position>
              <LatitudeDegrees>42.993878982961177825927734375</LatitudeDegrees>
              <LongitudeDegrees>0.553710199892520904541015625</LongitudeDegrees>
            </Position>
            <AltitudeMeters>744.79998779296875</AltitudeMeters>
            <DistanceMeters>37713.624041299</DistanceMeters>
          </Trackpoint>
          <Trackpoint>
            <Time>2019-05-08T09:36:33.000Z</Time>
            <Position>
              <LatitudeDegrees>42.993943355977535247802734375</LatitudeDegrees>
              <LongitudeDegrees>0.55362847633659839630126953125</LongitudeDegrees>
            </Position>
            <AltitudeMeters>745</AltitudeMeters>
            <DistanceMeters>37723.401177343</DistanceMeters>
          </Trackpoint>
          <Trackpoint>
            <Time>2019-05-08T09:36:36.000Z</Time>
            <Position>
              <LatitudeDegrees>42.9939906299114227294921875</LatitudeDegrees>
              <LongitudeDegrees>0.553565360605716705322265625</LongitudeDegrees>
            </Position>
            <AltitudeMeters>745.4000244140625</AltitudeMeters>
            <DistanceMeters>37730.755778481</DistanceMeters>
          </Trackpoint>
          <Trackpoint>
            <Time>2019-05-08T09:36:44.000Z</Time>
            <Position>
              <LatitudeDegrees>42.99412214197218418121337890625</LatitudeDegrees>
              <LongitudeDegrees>0.55339428596198558807373046875</LongitudeDegrees>
            </Position>
            <AltitudeMeters>745.5999755859375</AltitudeMeters>
            <DistanceMeters>37750.960299406</DistanceMeters>
          </Trackpoint>
          <Trackpoint>
            <Time>2019-05-08T09:36:49.000Z</Time>
            <Position>
              <LatitudeDegrees>42.994214594364166259765625</LatitudeDegrees>
              <LongitudeDegrees>0.553299486637115478515625</LongitudeDegrees>
            </Position>
            <AltitudeMeters>746</AltitudeMeters>
            <DistanceMeters>37763.822648746</DistanceMeters>
          </Trackpoint>
          <Trackpoint>
            <Time>2019-05-08T09:36:52.000Z</Time>
            <Position>
              <LatitudeDegrees>42.99426580779254436492919921875</LatitudeDegrees>
              <LongitudeDegrees>0.55325028486549854278564453125</LongitudeDegrees>
            </Position>
            <AltitudeMeters>746</AltitudeMeters>
            <DistanceMeters>37770.788826378</DistanceMeters>
          </Trackpoint>
          <Trackpoint>
            <Time>2019-05-08T09:36:57.000Z</Time>
            <Position>
              <LatitudeDegrees>42.994369827210903167724609375</LatitudeDegrees>
              <LongitudeDegrees>0.5532027594745159149169921875</LongitudeDegrees>
            </Position>
            <AltitudeMeters>746.5999755859375</AltitudeMeters>
            <DistanceMeters>37782.995968611</DistanceMeters>
          </Trackpoint>
          <Trackpoint>
            <Time>2019-05-08T09:36:58.000Z</Time>
            <Position>
              <LatitudeDegrees>42.99439002759754657745361328125</LatitudeDegrees>
              <LongitudeDegrees>0.55319429375231266021728515625</LongitudeDegrees>
            </Position>
            <AltitudeMeters>746.4000244140625</AltitudeMeters>
            <DistanceMeters>37785.346799694</DistanceMeters>
          </Trackpoint>
          <Trackpoint>
            <Time>2019-05-08T09:37:02.000Z</Time>
            <Position>
              <LatitudeDegrees>42.99445892684161663055419921875</LatitudeDegrees>
              <LongitudeDegrees>0.5531581677496433258056640625</LongitudeDegrees>
            </Position>
            <AltitudeMeters>747</AltitudeMeters>
            <DistanceMeters>37793.559878961</DistanceMeters>
          </Trackpoint>
          <Trackpoint>
            <Time>2019-05-08T09:37:05.000Z</Time>
            <Position>
              <LatitudeDegrees>42.99451022408902645111083984375</LatitudeDegrees>
              <LongitudeDegrees>0.5531323514878749847412109375</LongitudeDegrees>
            </Position>
            <AltitudeMeters>747.5999755859375</AltitudeMeters>
            <DistanceMeters>37799.643815461</DistanceMeters>
          </Trackpoint>
          <Trackpoint>
            <Time>2019-05-08T09:37:07.000Z</Time>
            <Position>
              <LatitudeDegrees>42.9945443384349346160888671875</LatitudeDegrees>
              <LongitudeDegrees>0.55311483331024646759033203125</LongitudeDegrees>
            </Position>
            <AltitudeMeters>747.79998779296875</AltitudeMeters>
            <DistanceMeters>37803.700020496</DistanceMeters>
          </Trackpoint>
          <Trackpoint>
            <Time>2019-05-08T09:37:12.000Z</Time>
            <Position>
              <LatitudeDegrees>42.9946308396756649017333984375</LatitudeDegrees>
              <LongitudeDegrees>0.553059764206409454345703125</LongitudeDegrees>
            </Position>
            <AltitudeMeters>748.79998779296875</AltitudeMeters>
            <DistanceMeters>37814.320079572</DistanceMeters>
          </Trackpoint>
          <Trackpoint>
            <Time>2019-05-08T09:37:15.000Z</Time>
            <Position>
              <LatitudeDegrees>42.99467568285763263702392578125</LatitudeDegrees>
              <LongitudeDegrees>0.55301986634731292724609375</LongitudeDegrees>
            </Position>
            <AltitudeMeters>749.5999755859375</AltitudeMeters>
            <DistanceMeters>37820.275002762</DistanceMeters>
          </Trackpoint>
          <Trackpoint>
            <Time>2019-05-08T09:37:17.000Z</Time>
            <Position>
              <LatitudeDegrees>42.99470049329102039337158203125</LatitudeDegrees>
              <LongitudeDegrees>0.5529851652681827545166015625</LongitudeDegrees>
            </Position>
            <AltitudeMeters>749.79998779296875</AltitudeMeters>
            <DistanceMeters>37824.225189098</DistanceMeters>
          </Trackpoint>
          <Trackpoint>
            <Time>2019-05-08T09:37:18.000Z</Time>
            <Position>
              <LatitudeDegrees>42.9947092942893505096435546875</LatitudeDegrees>
              <LongitudeDegrees>0.55296731181442737579345703125</LongitudeDegrees>
            </Position>
            <AltitudeMeters>750.20001220703125</AltitudeMeters>
            <DistanceMeters>37825.977395134</DistanceMeters>
          </Trackpoint>
          <Trackpoint>
            <Time>2019-05-08T09:37:21.000Z</Time>
            <Position>
              <LatitudeDegrees>42.994737960398197174072265625</LatitudeDegrees>
              <LongitudeDegrees>0.552906878292560577392578125</LongitudeDegrees>
            </Position>
            <AltitudeMeters>751.20001220703125</AltitudeMeters>
            <DistanceMeters>37831.841398127</DistanceMeters>
          </Trackpoint>
          <Trackpoint>
            <Time>2019-05-08T09:37:26.000Z</Time>
            <Position>
              <LatitudeDegrees>42.99479822628200054168701171875</LatitudeDegrees>
              <LongitudeDegrees>0.5527850054204463958740234375</LongitudeDegrees>
            </Position>
            <AltitudeMeters>752.5999755859375</AltitudeMeters>
            <DistanceMeters>37843.817780478</DistanceMeters>
          </Trackpoint>
          <Trackpoint>
            <Time>2019-05-08T09:37:28.000Z</Time>
            <Position>
              <LatitudeDegrees>42.9948112182319164276123046875</LatitudeDegrees>
              <LongitudeDegrees>0.5527471192181110382080078125</LongitudeDegrees>
            </Position>
            <AltitudeMeters>752.79998779296875</AltitudeMeters>
            <DistanceMeters>37847.224193288</DistanceMeters>
          </Trackpoint>
          <Trackpoint>
            <Time>2019-05-08T09:37:34.000Z</Time>
            <Position>
              <LatitudeDegrees>42.9948316700756549835205078125</LatitudeDegrees>
              <LongitudeDegrees>0.552611164748668670654296875</LongitudeDegrees>
            </Position>
            <AltitudeMeters>753.79998779296875</AltitudeMeters>
            <DistanceMeters>37858.523584902</DistanceMeters>
          </Trackpoint>
          <Trackpoint>
            <Time>2019-05-08T09:37:35.000Z</Time>
            <Position>
              <LatitudeDegrees>42.99483963288366794586181640625</LatitudeDegrees>
              <LongitudeDegrees>0.55258844979107379913330078125</LongitudeDegrees>
            </Position>
            <AltitudeMeters>754</AltitudeMeters>
            <DistanceMeters>37860.574929735</DistanceMeters>
          </Trackpoint>
          <Trackpoint>
            <Time>2019-05-08T09:37:39.000Z</Time>
            <Position>
              <LatitudeDegrees>42.9948514513671398162841796875</LatitudeDegrees>
              <LongitudeDegrees>0.55249457247555255889892578125</LongitudeDegrees>
            </Position>
            <AltitudeMeters>754.5999755859375</AltitudeMeters>
            <DistanceMeters>37868.329948053</DistanceMeters>
          </Trackpoint>
          <Trackpoint>
            <Time>2019-05-08T09:37:40.000Z</Time>
            <Position>
              <LatitudeDegrees>42.9948568157851696014404296875</LatitudeDegrees>
              <LongitudeDegrees>0.5524768866598606109619140625</LongitudeDegrees>
            </Position>
            <AltitudeMeters>754.79998779296875</AltitudeMeters>
            <DistanceMeters>37869.891396304</DistanceMeters>
          </Trackpoint>
          <Trackpoint>
            <Time>2019-05-08T09:37:48.000Z</Time>
            <Position>
              <LatitudeDegrees>42.994908280670642852783203125</LatitudeDegrees>
              <LongitudeDegrees>0.55229030549526214599609375</LongitudeDegrees>
            </Position>
            <AltitudeMeters>755.4000244140625</AltitudeMeters>
            <DistanceMeters>37886.12511895</DistanceMeters>
          </Trackpoint>
          <Trackpoint>
            <Time>2019-05-08T09:37:52.000Z</Time>
            <Position>
              <LatitudeDegrees>42.994936443865299224853515625</LatitudeDegrees>
              <LongitudeDegrees>0.552186034619808197021484375</LongitudeDegrees>
            </Position>
            <AltitudeMeters>755.79998779296875</AltitudeMeters>
            <DistanceMeters>37895.174137305</DistanceMeters>
          </Trackpoint>
          <Trackpoint>
            <Time>2019-05-08T09:37:56.000Z</Time>
            <Position>
              <LatitudeDegrees>42.99496628344058990478515625</LatitudeDegrees>
              <LongitudeDegrees>0.55207815952599048614501953125</LongitudeDegrees>
            </Position>
            <AltitudeMeters>756.20001220703125</AltitudeMeters>
            <DistanceMeters>37904.563045987</DistanceMeters>
          </Trackpoint>
          <Trackpoint>
            <Time>2019-05-08T09:38:00.000Z</Time>
            <Position>
              <LatitudeDegrees>42.99499788321554660797119140625</LatitudeDegrees>
              <LongitudeDegrees>0.5519739724695682525634765625</LongitudeDegrees>
            </Position>
            <AltitudeMeters>756.5999755859375</AltitudeMeters>
            <DistanceMeters>37913.745301906</DistanceMeters>
          </Trackpoint>
          <Trackpoint>
            <Time>2019-05-08T09:38:03.000Z</Time>
            <Position>
              <LatitudeDegrees>42.9950204305350780487060546875</LatitudeDegrees>
              <LongitudeDegrees>0.55189375765621662139892578125</LongitudeDegrees>
            </Position>
            <AltitudeMeters>756.79998779296875</AltitudeMeters>
            <DistanceMeters>37920.741230317</DistanceMeters>
          </Trackpoint>
          <Trackpoint>
            <Time>2019-05-08T09:38:09.000Z</Time>
            <Position>
              <LatitudeDegrees>42.995047084987163543701171875</LatitudeDegrees>
              <LongitudeDegrees>0.5517258681356906890869140625</LongitudeDegrees>
            </Position>
            <AltitudeMeters>757.5999755859375</AltitudeMeters>
            <DistanceMeters>37934.727277504</DistanceMeters>
          </Trackpoint>
          <Trackpoint>
            <Time>2019-05-08T09:38:10.000Z</Time>
            <Position>
              <LatitudeDegrees>42.99505068920552730560302734375</LatitudeDegrees>
              <LongitudeDegrees>0.55169845931231975555419921875</LongitudeDegrees>
            </Position>
            <AltitudeMeters>757.79998779296875</AltitudeMeters>
            <DistanceMeters>37936.996009214</DistanceMeters>
          </Trackpoint>
          <Trackpoint>
            <Time>2019-05-08T09:38:16.000Z</Time>
            <Position>
              <LatitudeDegrees>42.995089329779148101806640625</LatitudeDegrees>
              <LongitudeDegrees>0.55153216235339641571044921875</LongitudeDegrees>
            </Position>
            <AltitudeMeters>758.20001220703125</AltitudeMeters>
            <DistanceMeters>37951.200516529</DistanceMeters>
          </Trackpoint>
          <Trackpoint>
            <Time>2019-05-08T09:38:21.000Z</Time>
            <Position>
              <LatitudeDegrees>42.995102405548095703125</LatitudeDegrees>
              <LongitudeDegrees>0.5513895861804485321044921875</LongitudeDegrees>
            </Position>
            <AltitudeMeters>759</AltitudeMeters>
            <DistanceMeters>37962.898455597</DistanceMeters>
          </Trackpoint>
          <Trackpoint>
            <Time>2019-05-08T09:38:24.000Z</Time>
            <Position>
              <LatitudeDegrees>42.9951082728803157806396484375</LatitudeDegrees>
              <LongitudeDegrees>0.55130618624389171600341796875</LongitudeDegrees>
            </Position>
            <AltitudeMeters>759.20001220703125</AltitudeMeters>
            <DistanceMeters>37969.719229295</DistanceMeters>
          </Trackpoint>
          <Trackpoint>
            <Time>2019-05-08T09:38:29.000Z</Time>
            <Position>
              <LatitudeDegrees>42.995140962302684783935546875</LatitudeDegrees>
              <LongitudeDegrees>0.55117593146860599517822265625</LongitudeDegrees>
            </Position>
            <AltitudeMeters>759.5999755859375</AltitudeMeters>
            <DistanceMeters>37980.929965397</DistanceMeters>
          </Trackpoint>
          <Trackpoint>
            <Time>2019-05-08T09:38:31.000Z</Time>
            <Position>
              <LatitudeDegrees>42.99517909996211528778076171875</LatitudeDegrees>
              <LongitudeDegrees>0.55116117931902408599853515625</LongitudeDegrees>
            </Position>
            <AltitudeMeters>760</AltitudeMeters>
            <DistanceMeters>37985.34026977</DistanceMeters>
          </Trackpoint>
          <Trackpoint>
            <Time>2019-05-08T09:38:32.000Z</Time>
            <Position>
              <LatitudeDegrees>42.99519670195877552032470703125</LatitudeDegrees>
              <LongitudeDegrees>0.5511703155934810638427734375</LongitudeDegrees>
            </Position>
            <AltitudeMeters>760.20001220703125</AltitudeMeters>
            <DistanceMeters>37987.435172429</DistanceMeters>
          </Trackpoint>
          <Trackpoint>
            <Time>2019-05-08T09:38:35.000Z</Time>
            <Position>
              <LatitudeDegrees>42.99523006193339824676513671875</LatitudeDegrees>
              <LongitudeDegrees>0.55123619735240936279296875</LongitudeDegrees>
            </Position>
            <AltitudeMeters>760.4000244140625</AltitudeMeters>
            <DistanceMeters>37993.958187085</DistanceMeters>
          </Trackpoint>
          <Trackpoint>
            <Time>2019-05-08T09:38:36.000Z</Time>
            <Position>
              <LatitudeDegrees>42.9952350072562694549560546875</LatitudeDegrees>
              <LongitudeDegrees>0.5512631870806217193603515625</LongitudeDegrees>
            </Position>
            <AltitudeMeters>760.4000244140625</AltitudeMeters>
            <DistanceMeters>37996.220940572</DistanceMeters>
          </Trackpoint>
          <Trackpoint>
            <Time>2019-05-08T09:38:42.000Z</Time>
            <Position>
              <LatitudeDegrees>42.99524581991136074066162109375</LatitudeDegrees>
              <LongitudeDegrees>0.55143912322819232940673828125</LongitudeDegrees>
            </Position>
            <AltitudeMeters>760.79998779296875</AltitudeMeters>
            <DistanceMeters>38010.593554417</DistanceMeters>
          </Trackpoint>
          <Trackpoint>
            <Time>2019-05-08T09:38:45.000Z</Time>
            <Position>
              <LatitudeDegrees>42.99524833448231220245361328125</LatitudeDegrees>
              <LongitudeDegrees>0.5515260435640811920166015625</LongitudeDegrees>
            </Position>
            <AltitudeMeters>761.20001220703125</AltitudeMeters>
            <DistanceMeters>38017.675435846</DistanceMeters>
          </Trackpoint>
          <Trackpoint>
            <Time>2019-05-08T09:38:49.000Z</Time>
            <Position>
              <LatitudeDegrees>42.99525051377713680267333984375</LatitudeDegrees>
              <LongitudeDegrees>0.55164079181849956512451171875</LongitudeDegrees>
            </Position>
            <AltitudeMeters>761.79998779296875</AltitudeMeters>
            <DistanceMeters>38027.019997859</DistanceMeters>
          </Trackpoint>
          <Trackpoint>
            <Time>2019-05-08T09:38:54.000Z</Time>
            <Position>
              <LatitudeDegrees>42.99525504000484943389892578125</LatitudeDegrees>
              <LongitudeDegrees>0.551783703267574310302734375</LongitudeDegrees>
            </Position>
            <AltitudeMeters>762.79998779296875</AltitudeMeters>
            <DistanceMeters>38038.66455143</DistanceMeters>
          </Trackpoint>
          <Trackpoint>
            <Time>2019-05-08T09:38:56.000Z</Time>
            <Position>
              <LatitudeDegrees>42.9952539503574371337890625</LatitudeDegrees>
              <LongitudeDegrees>0.55183776654303073883056640625</LongitudeDegrees>
            </Position>
            <AltitudeMeters>763</AltitudeMeters>
            <DistanceMeters>38043.067683739</DistanceMeters>
          </Trackpoint>
          <Trackpoint>
            <Time>2019-05-08T09:39:01.000Z</Time>
            <Position>
              <LatitudeDegrees>42.9952574707567691802978515625</LatitudeDegrees>
              <LongitudeDegrees>0.55197187699377536773681640625</LongitudeDegrees>
            </Position>
            <AltitudeMeters>763.79998779296875</AltitudeMeters>
            <DistanceMeters>38053.992036822</DistanceMeters>
          </Trackpoint>
          <Trackpoint>
            <Time>2019-05-08T09:39:02.000Z</Time>
            <Position>
              <LatitudeDegrees>42.99525772221386432647705078125</LatitudeDegrees>
              <LongitudeDegrees>0.551998950541019439697265625</LongitudeDegrees>
            </Position>
            <AltitudeMeters>764</AltitudeMeters>
            <DistanceMeters>38056.196165023</DistanceMeters>
          </Trackpoint>
          <Trackpoint>
            <Time>2019-05-08T09:39:07.000Z</Time>
            <Position>
              <LatitudeDegrees>42.99526534974575042724609375</LatitudeDegrees>
              <LongitudeDegrees>0.552127361297607421875</LongitudeDegrees>
            </Position>
            <AltitudeMeters>764.79998779296875</AltitudeMeters>
            <DistanceMeters>38066.684032354</DistanceMeters>
          </Trackpoint>
          <Trackpoint>
            <Time>2019-05-08T09:39:10.000Z</Time>
            <Position>
              <LatitudeDegrees>42.995272390544414520263671875</LatitudeDegrees>
              <LongitudeDegrees>0.55220288224518299102783203125</LongitudeDegrees>
            </Position>
            <AltitudeMeters>765.4000244140625</AltitudeMeters>
            <DistanceMeters>38072.883387591</DistanceMeters>
          </Trackpoint>
          <Trackpoint>
            <Time>2019-05-08T09:39:15.000Z</Time>
            <Position>
              <LatitudeDegrees>42.9952807724475860595703125</LatitudeDegrees>
              <LongitudeDegrees>0.552334226667881011962890625</LongitudeDegrees>
            </Position>
            <AltitudeMeters>766</AltitudeMeters>
            <DistanceMeters>38083.616780124</DistanceMeters>
          </Trackpoint>
          <Trackpoint>
            <Time>2019-05-08T09:39:18.000Z</Time>
            <Position>
              <LatitudeDegrees>42.99528705887496471405029296875</LatitudeDegrees>
              <LongitudeDegrees>0.55241167545318603515625</LongitudeDegrees>
            </Position>
            <AltitudeMeters>766.79998779296875</AltitudeMeters>
            <DistanceMeters>38089.960836453</DistanceMeters>
          </Trackpoint>
          <Trackpoint>
            <Time>2019-05-08T09:39:20.000Z</Time>
            <Position>
              <LatitudeDegrees>42.995289824903011322021484375</LatitudeDegrees>
              <LongitudeDegrees>0.55246464908123016357421875</LongitudeDegrees>
            </Position>
            <AltitudeMeters>767</AltitudeMeters>
            <DistanceMeters>38094.284290887</DistanceMeters>
          </Trackpoint>
          <Trackpoint>
            <Time>2019-05-08T09:39:26.000Z</Time>
            <Position>
              <LatitudeDegrees>42.9953007213771343231201171875</LatitudeDegrees>
              <LongitudeDegrees>0.55263035930693149566650390625</LongitudeDegrees>
            </Position>
            <AltitudeMeters>768.4000244140625</AltitudeMeters>
            <DistanceMeters>38107.828848208</DistanceMeters>
          </Trackpoint>
          <Trackpoint>
            <Time>2019-05-08T09:39:29.000Z</Time>
            <Position>
              <LatitudeDegrees>42.99530717544257640838623046875</LatitudeDegrees>
              <LongitudeDegrees>0.5527048744261264801025390625</LongitudeDegrees>
            </Position>
            <AltitudeMeters>768.79998779296875</AltitudeMeters>
            <DistanceMeters>38113.937225723</DistanceMeters>
          </Trackpoint>
          <Trackpoint>
            <Time>2019-05-08T09:39:34.000Z</Time>
            <Position>
              <LatitudeDegrees>42.9953178204596042633056640625</LatitudeDegrees>
              <LongitudeDegrees>0.55283705703914165496826171875</LongitudeDegrees>
            </Position>
            <AltitudeMeters>769.5999755859375</AltitudeMeters>
            <DistanceMeters>38124.762766453</DistanceMeters>
          </Trackpoint>
          <Trackpoint>
            <Time>2019-05-08T09:39:40.000Z</Time>
            <Position>
              <LatitudeDegrees>42.995325364172458648681640625</LatitudeDegrees>
              <LongitudeDegrees>0.5530022643506526947021484375</LongitudeDegrees>
            </Position>
            <AltitudeMeters>770.4000244140625</AltitudeMeters>
            <DistanceMeters>38138.237809204</DistanceMeters>
          </Trackpoint>
          <Trackpoint>
            <Time>2019-05-08T09:39:47.000Z</Time>
            <Position>
              <LatitudeDegrees>42.995332069694995880126953125</LatitudeDegrees>
              <LongitudeDegrees>0.55319379083812236785888671875</LongitudeDegrees>
            </Position>
            <AltitudeMeters>771.79998779296875</AltitudeMeters>
            <DistanceMeters>38153.847086016</DistanceMeters>
          </Trackpoint>
          <Trackpoint>
            <Time>2019-05-08T09:39:49.000Z</Time>
            <Position>
              <LatitudeDegrees>42.99533332698047161102294921875</LatitudeDegrees>
              <LongitudeDegrees>0.55324693210422992706298828125</LongitudeDegrees>
            </Position>
            <AltitudeMeters>771.79998779296875</AltitudeMeters>
            <DistanceMeters>38158.174715684</DistanceMeters>
          </Trackpoint>
          <Trackpoint>
            <Time>2019-05-08T09:39:51.000Z</Time>
            <Position>
              <LatitudeDegrees>42.9953335784375667572021484375</LatitudeDegrees>
              <LongitudeDegrees>0.5533009953796863555908203125</LongitudeDegrees>
            </Position>
            <AltitudeMeters>772.20001220703125</AltitudeMeters>
            <DistanceMeters>38162.574770672</DistanceMeters>
          </Trackpoint>
          <Trackpoint>
            <Time>2019-05-08T09:39:58.000Z</Time>
            <Position>
              <LatitudeDegrees>42.99534874968230724334716796875</LatitudeDegrees>
              <LongitudeDegrees>0.5534833855926990509033203125</LongitudeDegrees>
            </Position>
            <AltitudeMeters>773.5999755859375</AltitudeMeters>
            <DistanceMeters>38177.518457984</DistanceMeters>
          </Trackpoint>
          <Trackpoint>
            <Time>2019-05-08T09:39:59.000Z</Time>
            <Position>
              <LatitudeDegrees>42.99535411410033702850341796875</LatitudeDegrees>
              <LongitudeDegrees>0.5535105429589748382568359375</LongitudeDegrees>
            </Position>
            <AltitudeMeters>773.79998779296875</AltitudeMeters>
            <DistanceMeters>38179.807004321</DistanceMeters>
          </Trackpoint>
          <Trackpoint>
            <Time>2019-05-08T09:40:04.000Z</Time>
            <Position>
              <LatitudeDegrees>42.99535428173840045928955078125</LatitudeDegrees>
              <LongitudeDegrees>0.55363685823976993560791015625</LongitudeDegrees>
            </Position>
            <AltitudeMeters>774.79998779296875</AltitudeMeters>
            <DistanceMeters>38190.09010673</DistanceMeters>
          </Trackpoint>
          <Trackpoint>
            <Time>2019-05-08T09:40:07.000Z</Time>
            <Position>
              <LatitudeDegrees>42.99536190927028656005859375</LatitudeDegrees>
              <LongitudeDegrees>0.5537177436053752899169921875</LongitudeDegrees>
            </Position>
            <AltitudeMeters>775.4000244140625</AltitudeMeters>
            <DistanceMeters>38196.72838761</DistanceMeters>
          </Trackpoint>
          <Trackpoint>
            <Time>2019-05-08T09:40:12.000Z</Time>
            <Position>
              <LatitudeDegrees>42.99536635167896747589111328125</LatitudeDegrees>
              <LongitudeDegrees>0.5538515187799930572509765625</LongitudeDegrees>
            </Position>
            <AltitudeMeters>775.79998779296875</AltitudeMeters>
            <DistanceMeters>38207.629571308</DistanceMeters>
          </Trackpoint>
          <Trackpoint>
            <Time>2019-05-08T09:40:13.000Z</Time>
            <Position>
              <LatitudeDegrees>42.99536727368831634521484375</LatitudeDegrees>
              <LongitudeDegrees>0.5538776703178882598876953125</LongitudeDegrees>
            </Position>
            <AltitudeMeters>775.79998779296875</AltitudeMeters>
            <DistanceMeters>38209.762915754</DistanceMeters>
          </Trackpoint>
          <Trackpoint>
            <Time>2019-05-08T09:40:21.000Z</Time>
            <Position>
              <LatitudeDegrees>42.99537557177245616912841796875</LatitudeDegrees>
              <LongitudeDegrees>0.55408981628715991973876953125</LongitudeDegrees>
            </Position>
            <AltitudeMeters>777.4000244140625</AltitudeMeters>
            <DistanceMeters>38227.05777777</DistanceMeters>
          </Trackpoint>
          <Trackpoint>
            <Time>2019-05-08T09:40:23.000Z</Time>
            <Position>
              <LatitudeDegrees>42.99537339247763156890869140625</LatitudeDegrees>
              <LongitudeDegrees>0.554141364991664886474609375</LongitudeDegrees>
            </Position>
            <AltitudeMeters>777.79998779296875</AltitudeMeters>
            <DistanceMeters>38231.262642771</DistanceMeters>
          </Trackpoint>
          <Trackpoint>
            <Time>2019-05-08T09:40:28.000Z</Time>
            <Position>
              <LatitudeDegrees>42.99536115489900112152099609375</LatitudeDegrees>
              <LongitudeDegrees>0.5542726255953311920166015625</LongitudeDegrees>
            </Position>
            <AltitudeMeters>778.20001220703125</AltitudeMeters>
            <DistanceMeters>38242.0346659</DistanceMeters>
          </Trackpoint>
          <Trackpoint>
            <Time>2019-05-08T09:40:32.000Z</Time>
            <Position>
              <LatitudeDegrees>42.99536786042153835296630859375</LatitudeDegrees>
              <LongitudeDegrees>0.55435753427445888519287109375</LongitudeDegrees>
            </Position>
            <AltitudeMeters>778.5999755859375</AltitudeMeters>
            <DistanceMeters>38248.986569893</DistanceMeters>
          </Trackpoint>
          <Trackpoint>
            <Time>2019-05-08T09:40:35.000Z</Time>
            <Position>
              <LatitudeDegrees>42.9953681118786334991455078125</LatitudeDegrees>
              <LongitudeDegrees>0.55436767637729644775390625</LongitudeDegrees>
            </Position>
            <AltitudeMeters>779</AltitudeMeters>
            <DistanceMeters>38249.804020599</DistanceMeters>
          </Trackpoint>
          <Trackpoint>
            <Time>2019-05-08T09:43:22.000Z</Time>
            <Position>
              <LatitudeDegrees>42.9953905753791332244873046875</LatitudeDegrees>
              <LongitudeDegrees>0.55437429808080196380615234375</LongitudeDegrees>
            </Position>
            <AltitudeMeters>779.79998779296875</AltitudeMeters>
            <DistanceMeters>38252.360927978</DistanceMeters>
          </Trackpoint>
          <Trackpoint>
            <Time>2019-05-08T09:43:23.000Z</Time>
            <Position>
              <LatitudeDegrees>42.995405159890651702880859375</LatitudeDegrees>
              <LongitudeDegrees>0.55438251234591007232666015625</LongitudeDegrees>
            </Position>
            <AltitudeMeters>780</AltitudeMeters>
            <DistanceMeters>38254.118280005</DistanceMeters>
          </Trackpoint>
          <Trackpoint>
            <Time>2019-05-08T09:43:24.000Z</Time>
            <Position>
              <LatitudeDegrees>42.9954200796782970428466796875</LatitudeDegrees>
              <LongitudeDegrees>0.554377734661102294921875</LongitudeDegrees>
            </Position>
            <AltitudeMeters>780.20001220703125</AltitudeMeters>
            <DistanceMeters>38255.826119192</DistanceMeters>
          </Trackpoint>
          <Trackpoint>
            <Time>2019-05-08T09:43:26.000Z</Time>
            <Position>
              <LatitudeDegrees>42.99543944187462329864501953125</LatitudeDegrees>
              <LongitudeDegrees>0.55433490313589572906494140625</LongitudeDegrees>
            </Position>
            <AltitudeMeters>780.20001220703125</AltitudeMeters>
            <DistanceMeters>38259.926607253</DistanceMeters>
          </Trackpoint>
          <Trackpoint>
            <Time>2019-05-08T09:43:30.000Z</Time>
            <Position>
              <LatitudeDegrees>42.99545788206160068511962890625</LatitudeDegrees>
              <LongitudeDegrees>0.554230213165283203125</LongitudeDegrees>
            </Position>
            <AltitudeMeters>780.4000244140625</AltitudeMeters>
            <DistanceMeters>38268.693819507</DistanceMeters>
          </Trackpoint>
          <Trackpoint>
            <Time>2019-05-08T09:43:32.000Z</Time>
            <Position>
              <LatitudeDegrees>42.995462156832218170166015625</LatitudeDegrees>
              <LongitudeDegrees>0.55417480878531932830810546875</LongitudeDegrees>
            </Position>
            <AltitudeMeters>780.4000244140625</AltitudeMeters>
            <DistanceMeters>38273.23028776</DistanceMeters>
          </Trackpoint>
          <Trackpoint>
            <Time>2019-05-08T09:43:34.000Z</Time>
            <Position>
              <LatitudeDegrees>42.9954760707914829254150390625</LatitudeDegrees>
              <LongitudeDegrees>0.55412250570952892303466796875</LongitudeDegrees>
            </Position>
            <AltitudeMeters>780.79998779296875</AltitudeMeters>
            <DistanceMeters>38277.761776901</DistanceMeters>
          </Trackpoint>
          <Trackpoint>
            <Time>2019-05-08T09:43:37.000Z</Time>
            <Position>
              <LatitudeDegrees>42.99548906274139881134033203125</LatitudeDegrees>
              <LongitudeDegrees>0.55404287762939929962158203125</LongitudeDegrees>
            </Position>
            <AltitudeMeters>781</AltitudeMeters>
            <DistanceMeters>38284.404137438</DistanceMeters>
          </Trackpoint>
          <Trackpoint>
            <Time>2019-05-08T09:43:39.000Z</Time>
            <Position>
              <LatitudeDegrees>42.995497696101665496826171875</LatitudeDegrees>
              <LongitudeDegrees>0.5539923347532749176025390625</LongitudeDegrees>
            </Position>
            <AltitudeMeters>781.4000244140625</AltitudeMeters>
            <DistanceMeters>38288.630423184</DistanceMeters>
          </Trackpoint>
          <Trackpoint>
            <Time>2019-05-08T09:43:42.000Z</Time>
            <Position>
              <LatitudeDegrees>42.99551211297512054443359375</LatitudeDegrees>
              <LongitudeDegrees>0.55391916073858737945556640625</LongitudeDegrees>
            </Position>
            <AltitudeMeters>781.79998779296875</AltitudeMeters>
            <DistanceMeters>38294.800577338</DistanceMeters>
          </Trackpoint>
          <Trackpoint>
            <Time>2019-05-08T09:43:46.000Z</Time>
            <Position>
              <LatitudeDegrees>42.99553499557077884674072265625</LatitudeDegrees>
              <LongitudeDegrees>0.553815476596355438232421875</LongitudeDegrees>
            </Position>
            <AltitudeMeters>782.4000244140625</AltitudeMeters>
            <DistanceMeters>38303.617090143</DistanceMeters>
          </Trackpoint>
          <Trackpoint>
            <Time>2019-05-08T09:43:50.000Z</Time>
            <Position>
              <LatitudeDegrees>42.9955598898231983184814453125</LatitudeDegrees>
              <LongitudeDegrees>0.55371765978634357452392578125</LongitudeDegrees>
            </Position>
            <AltitudeMeters>783.20001220703125</AltitudeMeters>
            <DistanceMeters>38312.048268101</DistanceMeters>
          </Trackpoint>
          <Trackpoint>
            <Time>2019-05-08T09:43:53.000Z</Time>
            <Position>
              <LatitudeDegrees>42.99558059312403202056884765625</LatitudeDegrees>
              <LongitudeDegrees>0.553644485771656036376953125</LongitudeDegrees>
            </Position>
            <AltitudeMeters>783.79998779296875</AltitudeMeters>
            <DistanceMeters>38318.435590339</DistanceMeters>
          </Trackpoint>
          <Trackpoint>
            <Time>2019-05-08T09:43:59.000Z</Time>
            <Position>
              <LatitudeDegrees>42.99561462365090847015380859375</LatitudeDegrees>
              <LongitudeDegrees>0.55348380468785762786865234375</LongitudeDegrees>
            </Position>
            <AltitudeMeters>784.4000244140625</AltitudeMeters>
            <DistanceMeters>38332.053286541</DistanceMeters>
          </Trackpoint>
          <Trackpoint>
            <Time>2019-05-08T09:44:01.000Z</Time>
            <Position>
              <LatitudeDegrees>42.99562619067728519439697265625</LatitudeDegrees>
              <LongitudeDegrees>0.553429909050464630126953125</LongitudeDegrees>
            </Position>
            <AltitudeMeters>784.5999755859375</AltitudeMeters>
            <DistanceMeters>38336.626431744</DistanceMeters>
          </Trackpoint>
          <Trackpoint>
            <Time>2019-05-08T09:44:07.000Z</Time>
            <Position>
              <LatitudeDegrees>42.995662651956081390380859375</LatitudeDegrees>
              <LongitudeDegrees>0.5532721616327762603759765625</LongitudeDegrees>
            </Position>
            <AltitudeMeters>785.79998779296875</AltitudeMeters>
            <DistanceMeters>38350.09410101</DistanceMeters>
          </Trackpoint>
          <Trackpoint>
            <Time>2019-05-08T09:44:10.000Z</Time>
            <Position>
              <LatitudeDegrees>42.9956846125423908233642578125</LatitudeDegrees>
              <LongitudeDegrees>0.55319597013294696807861328125</LongitudeDegrees>
            </Position>
            <AltitudeMeters>786.20001220703125</AltitudeMeters>
            <DistanceMeters>38356.760887061</DistanceMeters>
          </Trackpoint>
          <Trackpoint>
            <Time>2019-05-08T09:44:15.000Z</Time>
            <Position>
              <LatitudeDegrees>42.9957208223640918731689453125</LatitudeDegrees>
              <LongitudeDegrees>0.55306470952928066253662109375</LongitudeDegrees>
            </Position>
            <AltitudeMeters>787</AltitudeMeters>
            <DistanceMeters>38368.181105714</DistanceMeters>
          </Trackpoint>
          <Trackpoint>
            <Time>2019-05-08T09:44:20.000Z</Time>
            <Position>
              <LatitudeDegrees>42.99575778655707836151123046875</LatitudeDegrees>
              <LongitudeDegrees>0.55293914861977100372314453125</LongitudeDegrees>
            </Position>
            <AltitudeMeters>787.5999755859375</AltitudeMeters>
            <DistanceMeters>38379.19928831</DistanceMeters>
          </Trackpoint>
          <Trackpoint>
            <Time>2019-05-08T09:44:23.000Z</Time>
            <Position>
              <LatitudeDegrees>42.99578025005757808685302734375</LatitudeDegrees>
              <LongitudeDegrees>0.5528607778251171112060546875</LongitudeDegrees>
            </Position>
            <AltitudeMeters>788</AltitudeMeters>
            <DistanceMeters>38386.051762134</DistanceMeters>
          </Trackpoint>
          <Trackpoint>
            <Time>2019-05-08T09:44:30.000Z</Time>
            <Position>
              <LatitudeDegrees>42.99583255313336849212646484375</LatitudeDegrees>
              <LongitudeDegrees>0.55267780087888240814208984375</LongitudeDegrees>
            </Position>
            <AltitudeMeters>788.79998779296875</AltitudeMeters>
            <DistanceMeters>38402.044506901</DistanceMeters>
          </Trackpoint>
          <Trackpoint>
            <Time>2019-05-08T09:44:37.000Z</Time>
            <Position>
              <LatitudeDegrees>42.99587211571633815765380859375</LatitudeDegrees>
              <LongitudeDegrees>0.55249306373298168182373046875</LongitudeDegrees>
            </Position>
            <AltitudeMeters>790.20001220703125</AltitudeMeters>
            <DistanceMeters>38417.714985478</DistanceMeters>
          </Trackpoint>
          <Trackpoint>
            <Time>2019-05-08T09:44:39.000Z</Time>
            <Position>
              <LatitudeDegrees>42.9958861134946346282958984375</LatitudeDegrees>
              <LongitudeDegrees>0.55244293995201587677001953125</LongitudeDegrees>
            </Position>
            <AltitudeMeters>790.4000244140625</AltitudeMeters>
            <DistanceMeters>38422.082080788</DistanceMeters>
          </Trackpoint>
          <Trackpoint>
            <Time>2019-05-08T09:44:44.000Z</Time>
            <Position>
              <LatitudeDegrees>42.99592575989663600921630859375</LatitudeDegrees>
              <LongitudeDegrees>0.5523204803466796875</LongitudeDegrees>
            </Position>
            <AltitudeMeters>791.20001220703125</AltitudeMeters>
            <DistanceMeters>38432.984092812</DistanceMeters>
          </Trackpoint>
          <Trackpoint>
            <Time>2019-05-08T09:44:48.000Z</Time>
            <Position>
              <LatitudeDegrees>42.99595274962484836578369140625</LatitudeDegrees>
              <LongitudeDegrees>0.5522198975086212158203125</LongitudeDegrees>
            </Position>
            <AltitudeMeters>791.5999755859375</AltitudeMeters>
            <DistanceMeters>38441.706385746</DistanceMeters>
          </Trackpoint>
          <Trackpoint>
            <Time>2019-05-08T09:44:50.000Z</Time>
            <Position>
              <LatitudeDegrees>42.99596465192735195159912109375</LatitudeDegrees>
              <LongitudeDegrees>0.55216826498508453369140625</LongitudeDegrees>
            </Position>
            <AltitudeMeters>792</AltitudeMeters>
            <DistanceMeters>38446.112593226</DistanceMeters>
          </Trackpoint>
          <Trackpoint>
            <Time>2019-05-08T09:44:52.000Z</Time>
            <Position>
              <LatitudeDegrees>42.9959808290004730224609375</LatitudeDegrees>
              <LongitudeDegrees>0.5521168000996112823486328125</LongitudeDegrees>
            </Position>
            <AltitudeMeters>792.20001220703125</AltitudeMeters>
            <DistanceMeters>38450.673875516</DistanceMeters>
          </Trackpoint>
          <Trackpoint>
            <Time>2019-05-08T09:44:55.000Z</Time>
            <Position>
              <LatitudeDegrees>42.99600320868194103240966796875</LatitudeDegrees>
              <LongitudeDegrees>0.5520403571426868438720703125</LongitudeDegrees>
            </Position>
            <AltitudeMeters>792.79998779296875</AltitudeMeters>
            <DistanceMeters>38457.377132962</DistanceMeters>
          </Trackpoint>
          <Trackpoint>
            <Time>2019-05-08T09:44:58.000Z</Time>
            <Position>
              <LatitudeDegrees>42.99602684564888477325439453125</LatitudeDegrees>
              <LongitudeDegrees>0.55196550674736499786376953125</LongitudeDegrees>
            </Position>
            <AltitudeMeters>793.5999755859375</AltitudeMeters>
            <DistanceMeters>38464.014733656</DistanceMeters>
          </Trackpoint>
          <Trackpoint>
            <Time>2019-05-08T09:45:02.000Z</Time>
            <Position>
              <LatitudeDegrees>42.996059618890285491943359375</LatitudeDegrees>
              <LongitudeDegrees>0.55186391808092594146728515625</LongitudeDegrees>
            </Position>
            <AltitudeMeters>794.20001220703125</AltitudeMeters>
            <DistanceMeters>38473.052768371</DistanceMeters>
          </Trackpoint>
          <Trackpoint>
            <Time>2019-05-08T09:45:08.000Z</Time>
            <Position>
              <LatitudeDegrees>42.9961104132235050201416015625</LatitudeDegrees>
              <LongitudeDegrees>0.5517111159861087799072265625</LongitudeDegrees>
            </Position>
            <AltitudeMeters>795.20001220703125</AltitudeMeters>
            <DistanceMeters>38486.716142786</DistanceMeters>
          </Trackpoint>
          <Trackpoint>
            <Time>2019-05-08T09:45:09.000Z</Time>
            <Position>
              <LatitudeDegrees>42.99611963331699371337890625</LatitudeDegrees>
              <LongitudeDegrees>0.55168638937175273895263671875</LongitudeDegrees>
            </Position>
            <AltitudeMeters>795.4000244140625</AltitudeMeters>
            <DistanceMeters>38488.976900019</DistanceMeters>
          </Trackpoint>
          <Trackpoint>
            <Time>2019-05-08T09:45:16.000Z</Time>
            <Position>
              <LatitudeDegrees>42.9961873590946197509765625</LatitudeDegrees>
              <LongitudeDegrees>0.55151523090898990631103515625</LongitudeDegrees>
            </Position>
            <AltitudeMeters>796.4000244140625</AltitudeMeters>
            <DistanceMeters>38504.818739701</DistanceMeters>
          </Trackpoint>
          <Trackpoint>
            <Time>2019-05-08T09:45:23.000Z</Time>
            <Position>
              <LatitudeDegrees>42.996261455118656158447265625</LatitudeDegrees>
              <LongitudeDegrees>0.5513401329517364501953125</LongitudeDegrees>
            </Position>
            <AltitudeMeters>797.79998779296875</AltitudeMeters>
            <DistanceMeters>38521.28662529</DistanceMeters>
          </Trackpoint>
          <Trackpoint>
            <Time>2019-05-08T09:45:25.000Z</Time>
            <Position>
              <LatitudeDegrees>42.99628651700913906097412109375</LatitudeDegrees>
              <LongitudeDegrees>0.55129227228462696075439453125</LongitudeDegrees>
            </Position>
            <AltitudeMeters>798.20001220703125</AltitudeMeters>
            <DistanceMeters>38526.078648286</DistanceMeters>
          </Trackpoint>
          <Trackpoint>
            <Time>2019-05-08T09:45:29.000Z</Time>
            <Position>
              <LatitudeDegrees>42.996331192553043365478515625</LatitudeDegrees>
              <LongitudeDegrees>0.551200993359088897705078125</LongitudeDegrees>
            </Position>
            <AltitudeMeters>798.5999755859375</AltitudeMeters>
            <DistanceMeters>38535.019243159</DistanceMeters>
          </Trackpoint>
          <Trackpoint>
            <Time>2019-05-08T09:45:32.000Z</Time>
            <Position>
              <LatitudeDegrees>42.996355332434177398681640625</LatitudeDegrees>
              <LongitudeDegrees>0.5511307530105113983154296875</LongitudeDegrees>
            </Position>
            <AltitudeMeters>799</AltitudeMeters>
            <DistanceMeters>38541.336911866</DistanceMeters>
          </Trackpoint>
          <Trackpoint>
            <Time>2019-05-08T09:45:35.000Z</Time>
            <Position>
              <LatitudeDegrees>42.99637846648693084716796875</LatitudeDegrees>
              <LongitudeDegrees>0.5510590039193630218505859375</LongitudeDegrees>
            </Position>
            <AltitudeMeters>799.79998779296875</AltitudeMeters>
            <DistanceMeters>38547.719991445</DistanceMeters>
          </Trackpoint>
          <Trackpoint>
            <Time>2019-05-08T09:45:41.000Z</Time>
            <Position>
              <LatitudeDegrees>42.99641928635537624359130859375</LatitudeDegrees>
              <LongitudeDegrees>0.55091223679482936859130859375</LongitudeDegrees>
            </Position>
            <AltitudeMeters>801</AltitudeMeters>
            <DistanceMeters>38560.502409181</DistanceMeters>
          </Trackpoint>
          <Trackpoint>
            <Time>2019-05-08T09:45:42.000Z</Time>
            <Position>
              <LatitudeDegrees>42.9964265786111354827880859375</LatitudeDegrees>
              <LongitudeDegrees>0.55088742636144161224365234375</LongitudeDegrees>
            </Position>
            <AltitudeMeters>801.20001220703125</AltitudeMeters>
            <DistanceMeters>38562.677670098</DistanceMeters>
          </Trackpoint>
          <Trackpoint>
            <Time>2019-05-08T09:45:49.000Z</Time>
            <Position>
              <LatitudeDegrees>42.99646890722215175628662109375</LatitudeDegrees>
              <LongitudeDegrees>0.5507042817771434783935546875</LongitudeDegrees>
            </Position>
            <AltitudeMeters>802.4000244140625</AltitudeMeters>
            <DistanceMeters>38578.313246824</DistanceMeters>
          </Trackpoint>
          <Trackpoint>
            <Time>2019-05-08T09:45:51.000Z</Time>
            <Position>
              <LatitudeDegrees>42.99647661857306957244873046875</LatitudeDegrees>
              <LongitudeDegrees>0.55065021850168704986572265625</LongitudeDegrees>
            </Position>
            <AltitudeMeters>802.5999755859375</AltitudeMeters>
            <DistanceMeters>38582.796655144</DistanceMeters>
          </Trackpoint>
          <Trackpoint>
            <Time>2019-05-08T09:45:59.000Z</Time>
            <Position>
              <LatitudeDegrees>42.9965234734117984771728515625</LatitudeDegrees>
              <LongitudeDegrees>0.5504347197711467742919921875</LongitudeDegrees>
            </Position>
            <AltitudeMeters>803.79998779296875</AltitudeMeters>
            <DistanceMeters>38601.097872737</DistanceMeters>
          </Trackpoint>
          <Trackpoint>
            <Time>2019-05-08T09:46:00.000Z</Time>
            <Position>
              <LatitudeDegrees>42.99652942456305027008056640625</LatitudeDegrees>
              <LongitudeDegrees>0.5504082329571247100830078125</LongitudeDegrees>
            </Position>
            <AltitudeMeters>804</AltitudeMeters>
            <DistanceMeters>38603.352630604</DistanceMeters>
          </Trackpoint>
          <Trackpoint>
            <Time>2019-05-08T09:46:07.000Z</Time>
            <Position>
              <LatitudeDegrees>42.99657770432531833648681640625</LatitudeDegrees>
              <LongitudeDegrees>0.550215952098369598388671875</LongitudeDegrees>
            </Position>
            <AltitudeMeters>804.5999755859375</AltitudeMeters>
            <DistanceMeters>38619.902563495</DistanceMeters>
          </Trackpoint>
          <Trackpoint>
            <Time>2019-05-08T09:46:11.000Z</Time>
            <Position>
              <LatitudeDegrees>42.9966046102344989776611328125</LatitudeDegrees>
              <LongitudeDegrees>0.5501054786145687103271484375</LongitudeDegrees>
            </Position>
            <AltitudeMeters>805.20001220703125</AltitudeMeters>
            <DistanceMeters>38629.380972145</DistanceMeters>
          </Trackpoint>
          <Trackpoint>
            <Time>2019-05-08T09:46:17.000Z</Time>
            <Position>
              <LatitudeDegrees>42.996650375425815582275390625</LatitudeDegrees>
              <LongitudeDegrees>0.54994429461658000946044921875</LongitudeDegrees>
            </Position>
            <AltitudeMeters>806.20001220703125</AltitudeMeters>
            <DistanceMeters>38643.45583687</DistanceMeters>
          </Trackpoint>
          <Trackpoint>
            <Time>2019-05-08T09:46:20.000Z</Time>
            <Position>
              <LatitudeDegrees>42.99667158164083957672119140625</LatitudeDegrees>
              <LongitudeDegrees>0.54985913448035717010498046875</LongitudeDegrees>
            </Position>
            <AltitudeMeters>806.20001220703125</AltitudeMeters>
            <DistanceMeters>38650.779061843</DistanceMeters>
          </Trackpoint>
          <Trackpoint>
            <Time>2019-05-08T09:46:23.000Z</Time>
            <Position>
              <LatitudeDegrees>42.9966941289603710174560546875</LatitudeDegrees>
              <LongitudeDegrees>0.54977707564830780029296875</LongitudeDegrees>
            </Position>
            <AltitudeMeters>806.5999755859375</AltitudeMeters>
            <DistanceMeters>38657.915561765</DistanceMeters>
          </Trackpoint>
          <Trackpoint>
            <Time>2019-05-08T09:46:29.000Z</Time>
            <Position>
              <LatitudeDegrees>42.9967398941516876220703125</LatitudeDegrees>
              <LongitudeDegrees>0.54961672984063625335693359375</LongitudeDegrees>
            </Position>
            <AltitudeMeters>807.79998779296875</AltitudeMeters>
            <DistanceMeters>38671.92741111</DistanceMeters>
          </Trackpoint>
          <Trackpoint>
            <Time>2019-05-08T09:46:30.000Z</Time>
            <Position>
              <LatitudeDegrees>42.9967484436929225921630859375</LatitudeDegrees>
              <LongitudeDegrees>0.5495904944837093353271484375</LongitudeDegrees>
            </Position>
            <AltitudeMeters>807.79998779296875</AltitudeMeters>
            <DistanceMeters>38674.266690128</DistanceMeters>
          </Trackpoint>
          <Trackpoint>
            <Time>2019-05-08T09:46:37.000Z</Time>
            <Position>
              <LatitudeDegrees>42.99680091440677642822265625</LatitudeDegrees>
              <LongitudeDegrees>0.5494000576436519622802734375</LongitudeDegrees>
            </Position>
            <AltitudeMeters>809</AltitudeMeters>
            <DistanceMeters>38690.832983717</DistanceMeters>
          </Trackpoint>
          <Trackpoint>
            <Time>2019-05-08T09:46:45.000Z</Time>
            <Position>
              <LatitudeDegrees>42.9968785308301448822021484375</LatitudeDegrees>
              <LongitudeDegrees>0.54918522946536540985107421875</LongitudeDegrees>
            </Position>
            <AltitudeMeters>810.4000244140625</AltitudeMeters>
            <DistanceMeters>38710.338475529</DistanceMeters>
          </Trackpoint>
          <Trackpoint>
            <Time>2019-05-08T09:46:46.000Z</Time>
            <Position>
              <LatitudeDegrees>42.99688783474266529083251953125</LatitudeDegrees>
              <LongitudeDegrees>0.54915924556553363800048828125</LongitudeDegrees>
            </Position>
            <AltitudeMeters>810.5999755859375</AltitudeMeters>
            <DistanceMeters>38712.693144706</DistanceMeters>
          </Trackpoint>
          <Trackpoint>
            <Time>2019-05-08T09:46:53.000Z</Time>
            <Position>
              <LatitudeDegrees>42.9969462566077709197998046875</LatitudeDegrees>
              <LongitudeDegrees>0.5489759333431720733642578125</LongitudeDegrees>
            </Position>
            <AltitudeMeters>811.4000244140625</AltitudeMeters>
            <DistanceMeters>38728.970752117</DistanceMeters>
          </Trackpoint>
          <Trackpoint>
            <Time>2019-05-08T09:46:54.000Z</Time>
            <Position>
              <LatitudeDegrees>42.99695455469191074371337890625</LatitudeDegrees>
              <LongitudeDegrees>0.54894902743399143218994140625</LongitudeDegrees>
            </Position>
            <AltitudeMeters>811.79998779296875</AltitudeMeters>
            <DistanceMeters>38731.346419976</DistanceMeters>
          </Trackpoint>
          <Trackpoint>
            <Time>2019-05-08T09:47:00.000Z</Time>
            <Position>
              <LatitudeDegrees>42.99700233153998851776123046875</LatitudeDegrees>
              <LongitudeDegrees>0.54879295639693737030029296875</LongitudeDegrees>
            </Position>
            <AltitudeMeters>812.5999755859375</AltitudeMeters>
            <DistanceMeters>38745.119394087</DistanceMeters>
          </Trackpoint>
          <Trackpoint>
            <Time>2019-05-08T09:47:02.000Z</Time>
            <Position>
              <LatitudeDegrees>42.997019849717617034912109375</LatitudeDegrees>
              <LongitudeDegrees>0.54874249733984470367431640625</LongitudeDegrees>
            </Position>
            <AltitudeMeters>812.79998779296875</AltitudeMeters>
            <DistanceMeters>38749.666797199</DistanceMeters>
          </Trackpoint>
          <Trackpoint>
            <Time>2019-05-08T09:47:08.000Z</Time>
            <Position>
              <LatitudeDegrees>42.99707575701177120208740234375</LatitudeDegrees>
              <LongitudeDegrees>0.548591874539852142333984375</LongitudeDegrees>
            </Position>
            <AltitudeMeters>813.79998779296875</AltitudeMeters>
            <DistanceMeters>38763.416804853</DistanceMeters>
          </Trackpoint>
          <Trackpoint>
            <Time>2019-05-08T09:47:09.000Z</Time>
            <Position>
              <LatitudeDegrees>42.997082881629467010498046875</LatitudeDegrees>
              <LongitudeDegrees>0.54856480099260807037353515625</LongitudeDegrees>
            </Position>
            <AltitudeMeters>814</AltitudeMeters>
            <DistanceMeters>38765.759940888</DistanceMeters>
          </Trackpoint>
          <Trackpoint>
            <Time>2019-05-08T09:47:14.000Z</Time>
            <Position>
              <LatitudeDegrees>42.99712051637470722198486328125</LatitudeDegrees>
              <LongitudeDegrees>0.548428930342197418212890625</LongitudeDegrees>
            </Position>
            <AltitudeMeters>814.79998779296875</AltitudeMeters>
            <DistanceMeters>38777.586854438</DistanceMeters>
          </Trackpoint>
          <Trackpoint>
            <Time>2019-05-08T09:47:19.000Z</Time>
            <Position>
              <LatitudeDegrees>42.997155971825122833251953125</LatitudeDegrees>
              <LongitudeDegrees>0.54829389788210391998291015625</LongitudeDegrees>
            </Position>
            <AltitudeMeters>815.5999755859375</AltitudeMeters>
            <DistanceMeters>38789.265479126</DistanceMeters>
          </Trackpoint>
          <Trackpoint>
            <Time>2019-05-08T09:47:20.000Z</Time>
            <Position>
              <LatitudeDegrees>42.99716443754732608795166015625</LatitudeDegrees>
              <LongitudeDegrees>0.54826623760163784027099609375</LongitudeDegrees>
            </Position>
            <AltitudeMeters>815.79998779296875</AltitudeMeters>
            <DistanceMeters>38791.704909465</DistanceMeters>
          </Trackpoint>
          <Trackpoint>
            <Time>2019-05-08T09:47:26.000Z</Time>
            <Position>
              <LatitudeDegrees>42.9972094483673572540283203125</LatitudeDegrees>
              <LongitudeDegrees>0.5481000244617462158203125</LongitudeDegrees>
            </Position>
            <AltitudeMeters>816.79998779296875</AltitudeMeters>
            <DistanceMeters>38806.132706323</DistanceMeters>
          </Trackpoint>
          <Trackpoint>
            <Time>2019-05-08T09:47:30.000Z</Time>
            <Position>
              <LatitudeDegrees>42.99724213778972625732421875</LatitudeDegrees>
              <LongitudeDegrees>0.54799114353954792022705078125</LongitudeDegrees>
            </Position>
            <AltitudeMeters>817.5999755859375</AltitudeMeters>
            <DistanceMeters>38815.713925303</DistanceMeters>
          </Trackpoint>
          <Trackpoint>
            <Time>2019-05-08T09:47:32.000Z</Time>
            <Position>
              <LatitudeDegrees>42.99725647084414958953857421875</LatitudeDegrees>
              <LongitudeDegrees>0.5479375831782817840576171875</LongitudeDegrees>
            </Position>
            <AltitudeMeters>818</AltitudeMeters>
            <DistanceMeters>38820.356639215</DistanceMeters>
          </Trackpoint>
          <Trackpoint>
            <Time>2019-05-08T09:47:38.000Z</Time>
            <Position>
              <LatitudeDegrees>42.99729569815099239349365234375</LatitudeDegrees>
              <LongitudeDegrees>0.5477702803909778594970703125</LongitudeDegrees>
            </Position>
            <AltitudeMeters>819</AltitudeMeters>
            <DistanceMeters>38834.658712198</DistanceMeters>
          </Trackpoint>
          <Trackpoint>
            <Time>2019-05-08T09:47:39.000Z</Time>
            <Position>
              <LatitudeDegrees>42.99729955382645130157470703125</LatitudeDegrees>
              <LongitudeDegrees>0.547741614282131195068359375</LongitudeDegrees>
            </Position>
            <AltitudeMeters>819.20001220703125</AltitudeMeters>
            <DistanceMeters>38837.030575943</DistanceMeters>
          </Trackpoint>
          <Trackpoint>
            <Time>2019-05-08T09:47:42.000Z</Time>
            <Position>
              <LatitudeDegrees>42.99730843864381313323974609375</LatitudeDegrees>
              <LongitudeDegrees>0.54765838198363780975341796875</LongitudeDegrees>
            </Position>
            <AltitudeMeters>819.79998779296875</AltitudeMeters>
            <DistanceMeters>38843.877776604</DistanceMeters>
          </Trackpoint>
          <Trackpoint>
            <Time>2019-05-08T09:47:47.000Z</Time>
            <Position>
              <LatitudeDegrees>42.9973261244595050811767578125</LatitudeDegrees>
              <LongitudeDegrees>0.5475111119449138641357421875</LongitudeDegrees>
            </Position>
            <AltitudeMeters>820.20001220703125</AltitudeMeters>
            <DistanceMeters>38856.026710692</DistanceMeters>
          </Trackpoint>
          <Trackpoint>
            <Time>2019-05-08T09:47:56.000Z</Time>
            <Position>
              <LatitudeDegrees>42.99736820161342620849609375</LatitudeDegrees>
              <LongitudeDegrees>0.547247417271137237548828125</LongitudeDegrees>
            </Position>
            <AltitudeMeters>821.5999755859375</AltitudeMeters>
            <DistanceMeters>38877.99761865</DistanceMeters>
          </Trackpoint>
          <Trackpoint>
            <Time>2019-05-08T09:47:58.000Z</Time>
            <Position>
              <LatitudeDegrees>42.99737817607820034027099609375</LatitudeDegrees>
              <LongitudeDegrees>0.5471880733966827392578125</LongitudeDegrees>
            </Position>
            <AltitudeMeters>821.79998779296875</AltitudeMeters>
            <DistanceMeters>38882.953605729</DistanceMeters>
          </Trackpoint>
          <Trackpoint>
            <Time>2019-05-08T09:48:04.000Z</Time>
            <Position>
              <LatitudeDegrees>42.9974032379686832427978515625</LatitudeDegrees>
              <LongitudeDegrees>0.5470065213739871978759765625</LongitudeDegrees>
            </Position>
            <AltitudeMeters>822.5999755859375</AltitudeMeters>
            <DistanceMeters>38897.993966263</DistanceMeters>
          </Trackpoint>
          <Trackpoint>
            <Time>2019-05-08T09:48:08.000Z</Time>
            <Position>
              <LatitudeDegrees>42.99741975031793117523193359375</LatitudeDegrees>
              <LongitudeDegrees>0.54688557051122188568115234375</LongitudeDegrees>
            </Position>
            <AltitudeMeters>823.20001220703125</AltitudeMeters>
            <DistanceMeters>38908.009259026</DistanceMeters>
          </Trackpoint>
          <Trackpoint>
            <Time>2019-05-08T09:48:16.000Z</Time>
            <Position>
              <LatitudeDegrees>42.9974438063800334930419921875</LatitudeDegrees>
              <LongitudeDegrees>0.54663796909153461456298828125</LongitudeDegrees>
            </Position>
            <AltitudeMeters>824.20001220703125</AltitudeMeters>
            <DistanceMeters>38928.342311427</DistanceMeters>
          </Trackpoint>
          <Trackpoint>
            <Time>2019-05-08T09:48:18.000Z</Time>
            <Position>
              <LatitudeDegrees>42.99745009280741214752197265625</LatitudeDegrees>
              <LongitudeDegrees>0.5465753562748432159423828125</LongitudeDegrees>
            </Position>
            <AltitudeMeters>824.4000244140625</AltitudeMeters>
            <DistanceMeters>38933.487812776</DistanceMeters>
          </Trackpoint>
          <Trackpoint>
            <Time>2019-05-08T09:48:25.000Z</Time>
            <Position>
              <LatitudeDegrees>42.99746870063245296478271484375</LatitudeDegrees>
              <LongitudeDegrees>0.5463554151356220245361328125</LongitudeDegrees>
            </Position>
            <AltitudeMeters>825.20001220703125</AltitudeMeters>
            <DistanceMeters>38951.511352106</DistanceMeters>
          </Trackpoint>
          <Trackpoint>
            <Time>2019-05-08T09:48:26.000Z</Time>
            <Position>
              <LatitudeDegrees>42.9974734783172607421875</LatitudeDegrees>
              <LongitudeDegrees>0.5463244020938873291015625</LongitudeDegrees>
            </Position>
            <AltitudeMeters>825.20001220703125</AltitudeMeters>
            <DistanceMeters>38954.092862597</DistanceMeters>
          </Trackpoint>
          <Trackpoint>
            <Time>2019-05-08T09:48:34.000Z</Time>
            <Position>
              <LatitudeDegrees>42.9974940977990627288818359375</LatitudeDegrees>
              <LongitudeDegrees>0.54607638157904148101806640625</LongitudeDegrees>
            </Position>
            <AltitudeMeters>826</AltitudeMeters>
            <DistanceMeters>38974.413031776</DistanceMeters>
          </Trackpoint>
          <Trackpoint>
            <Time>2019-05-08T09:48:35.000Z</Time>
            <Position>
              <LatitudeDegrees>42.997496612370014190673828125</LatitudeDegrees>
              <LongitudeDegrees>0.5460454523563385009765625</LongitudeDegrees>
            </Position>
            <AltitudeMeters>826.20001220703125</AltitudeMeters>
            <DistanceMeters>38976.945096996</DistanceMeters>
          </Trackpoint>
          <Trackpoint>
            <Time>2019-05-08T09:48:42.000Z</Time>
            <Position>
              <LatitudeDegrees>42.9975182376801967620849609375</LatitudeDegrees>
              <LongitudeDegrees>0.5458276905119419097900390625</LongitudeDegrees>
            </Position>
            <AltitudeMeters>827</AltitudeMeters>
            <DistanceMeters>38994.834364985</DistanceMeters>
          </Trackpoint>
          <Trackpoint>
            <Time>2019-05-08T09:48:43.000Z</Time>
            <Position>
              <LatitudeDegrees>42.99752234481275081634521484375</LatitudeDegrees>
              <LongitudeDegrees>0.5457975156605243682861328125</LongitudeDegrees>
            </Position>
            <AltitudeMeters>827.20001220703125</AltitudeMeters>
            <DistanceMeters>38997.330512566</DistanceMeters>
          </Trackpoint>
          <Trackpoint>
            <Time>2019-05-08T09:48:50.000Z</Time>
            <Position>
              <LatitudeDegrees>42.99753449857234954833984375</LatitudeDegrees>
              <LongitudeDegrees>0.54558034054934978485107421875</LongitudeDegrees>
            </Position>
            <AltitudeMeters>828.20001220703125</AltitudeMeters>
            <DistanceMeters>39015.061336331</DistanceMeters>
          </Trackpoint>
          <Trackpoint>
            <Time>2019-05-08T09:48:52.000Z</Time>
            <Position>
              <LatitudeDegrees>42.99753843806684017181396484375</LatitudeDegrees>
              <LongitudeDegrees>0.54552066139876842498779296875</LongitudeDegrees>
            </Position>
            <AltitudeMeters>828.5999755859375</AltitudeMeters>
            <DistanceMeters>39019.940197008</DistanceMeters>
          </Trackpoint>
          <Trackpoint>
            <Time>2019-05-08T09:48:53.000Z</Time>
            <Position>
              <LatitudeDegrees>42.9975390248000621795654296875</LatitudeDegrees>
              <LongitudeDegrees>0.545490570366382598876953125</LongitudeDegrees>
            </Position>
            <AltitudeMeters>828.4000244140625</AltitudeMeters>
            <DistanceMeters>39022.390707329</DistanceMeters>
          </Trackpoint>
          <Trackpoint>
            <Time>2019-05-08T09:48:57.000Z</Time>
            <Position>
              <LatitudeDegrees>42.9975453950464725494384765625</LatitudeDegrees>
              <LongitudeDegrees>0.54536618292331695556640625</LongitudeDegrees>
            </Position>
            <AltitudeMeters>829</AltitudeMeters>
            <DistanceMeters>39032.541233041</DistanceMeters>
          </Trackpoint>
          <Trackpoint>
            <Time>2019-05-08T09:49:01.000Z</Time>
            <Position>
              <LatitudeDegrees>42.9975396953523159027099609375</LatitudeDegrees>
              <LongitudeDegrees>0.5452379398047924041748046875</LongitudeDegrees>
            </Position>
            <AltitudeMeters>829.5999755859375</AltitudeMeters>
            <DistanceMeters>39042.999785329</DistanceMeters>
          </Trackpoint>
          <Trackpoint>
            <Time>2019-05-08T09:49:04.000Z</Time>
            <Position>
              <LatitudeDegrees>42.99753449857234954833984375</LatitudeDegrees>
              <LongitudeDegrees>0.5451447330415248870849609375</LongitudeDegrees>
            </Position>
            <AltitudeMeters>830.4000244140625</AltitudeMeters>
            <DistanceMeters>39050.609046145</DistanceMeters>
          </Trackpoint>
          <Trackpoint>
            <Time>2019-05-08T09:49:09.000Z</Time>
            <Position>
              <LatitudeDegrees>42.99753961153328418731689453125</LatitudeDegrees>
              <LongitudeDegrees>0.54498757235705852508544921875</LongitudeDegrees>
            </Position>
            <AltitudeMeters>831</AltitudeMeters>
            <DistanceMeters>39063.41546049</DistanceMeters>
          </Trackpoint>
          <Trackpoint>
            <Time>2019-05-08T09:49:11.000Z</Time>
            <Position>
              <LatitudeDegrees>42.99754145555198192596435546875</LatitudeDegrees>
              <LongitudeDegrees>0.54492671974003314971923828125</LongitudeDegrees>
            </Position>
            <AltitudeMeters>831.4000244140625</AltitudeMeters>
            <DistanceMeters>39068.373269288</DistanceMeters>
          </Trackpoint>
          <Trackpoint>
            <Time>2019-05-08T09:49:19.000Z</Time>
            <Position>
              <LatitudeDegrees>42.9975527711212635040283203125</LatitudeDegrees>
              <LongitudeDegrees>0.54468699730932712554931640625</LongitudeDegrees>
            </Position>
            <AltitudeMeters>832.5999755859375</AltitudeMeters>
            <DistanceMeters>39087.928464947</DistanceMeters>
          </Trackpoint>
          <Trackpoint>
            <Time>2019-05-08T09:49:29.000Z</Time>
            <Position>
              <LatitudeDegrees>42.99755268730223178863525390625</LatitudeDegrees>
              <LongitudeDegrees>0.54436177946627140045166015625</LongitudeDegrees>
            </Position>
            <AltitudeMeters>834.20001220703125</AltitudeMeters>
            <DistanceMeters>39114.402573303</DistanceMeters>
          </Trackpoint>
          <Trackpoint>
            <Time>2019-05-08T09:49:31.000Z</Time>
            <Position>
              <LatitudeDegrees>42.99755922518670558929443359375</LatitudeDegrees>
              <LongitudeDegrees>0.54429673589766025543212890625</LongitudeDegrees>
            </Position>
            <AltitudeMeters>834.4000244140625</AltitudeMeters>
            <DistanceMeters>39119.747773194</DistanceMeters>
          </Trackpoint>
          <Trackpoint>
            <Time>2019-05-08T09:49:37.000Z</Time>
            <Position>
              <LatitudeDegrees>42.99756391905248165130615234375</LatitudeDegrees>
              <LongitudeDegrees>0.54410755634307861328125</LongitudeDegrees>
            </Position>
            <AltitudeMeters>835</AltitudeMeters>
            <DistanceMeters>39135.15675856</DistanceMeters>
          </Trackpoint>
          <Trackpoint>
            <Time>2019-05-08T09:49:39.000Z</Time>
            <Position>
              <LatitudeDegrees>42.9975591413676738739013671875</LatitudeDegrees>
              <LongitudeDegrees>0.5440477095544338226318359375</LongitudeDegrees>
            </Position>
            <AltitudeMeters>835</AltitudeMeters>
            <DistanceMeters>39140.057779203</DistanceMeters>
          </Trackpoint>
          <Trackpoint>
            <Time>2019-05-08T09:49:45.000Z</Time>
            <Position>
              <LatitudeDegrees>42.99751983024179935455322265625</LatitudeDegrees>
              <LongitudeDegrees>0.54388334043323993682861328125</LongitudeDegrees>
            </Position>
            <AltitudeMeters>835.79998779296875</AltitudeMeters>
            <DistanceMeters>39154.135209993</DistanceMeters>
          </Trackpoint>
          <Trackpoint>
            <Time>2019-05-08T09:49:46.000Z</Time>
            <Position>
              <LatitudeDegrees>42.99751463346183300018310546875</LatitudeDegrees>
              <LongitudeDegrees>0.54385517723858356475830078125</LongitudeDegrees>
            </Position>
            <AltitudeMeters>836.20001220703125</AltitudeMeters>
            <DistanceMeters>39156.499447146</DistanceMeters>
          </Trackpoint>
          <Trackpoint>
            <Time>2019-05-08T09:49:51.000Z</Time>
            <Position>
              <LatitudeDegrees>42.997477166354656219482421875</LatitudeDegrees>
              <LongitudeDegrees>0.5437231622636318206787109375</LongitudeDegrees>
            </Position>
            <AltitudeMeters>837.20001220703125</AltitudeMeters>
            <DistanceMeters>39168.027092394</DistanceMeters>
          </Trackpoint>
          <Trackpoint>
            <Time>2019-05-08T09:49:53.000Z</Time>
            <Position>
              <LatitudeDegrees>42.99746476113796234130859375</LatitudeDegrees>
              <LongitudeDegrees>0.543668679893016815185546875</LongitudeDegrees>
            </Position>
            <AltitudeMeters>837.4000244140625</AltitudeMeters>
            <DistanceMeters>39172.672722889</DistanceMeters>
          </Trackpoint>
          <Trackpoint>
            <Time>2019-05-08T09:49:58.000Z</Time>
            <Position>
              <LatitudeDegrees>42.997446991503238677978515625</LatitudeDegrees>
              <LongitudeDegrees>0.54352291859686374664306640625</LongitudeDegrees>
            </Position>
            <AltitudeMeters>838.79998779296875</AltitudeMeters>
            <DistanceMeters>39184.701768776</DistanceMeters>
          </Trackpoint>
          <Trackpoint>
            <Time>2019-05-08T09:50:02.000Z</Time>
            <Position>
              <LatitudeDegrees>42.997428216040134429931640625</LatitudeDegrees>
              <LongitudeDegrees>0.54341194219887256622314453125</LongitudeDegrees>
            </Position>
            <AltitudeMeters>839.79998779296875</AltitudeMeters>
            <DistanceMeters>39193.973571607</DistanceMeters>
          </Trackpoint>
          <Trackpoint>
            <Time>2019-05-08T09:50:03.000Z</Time>
            <Position>
              <LatitudeDegrees>42.9974226839840412139892578125</LatitudeDegrees>
              <LongitudeDegrees>0.54338403046131134033203125</LongitudeDegrees>
            </Position>
            <AltitudeMeters>840</AltitudeMeters>
            <DistanceMeters>39196.328240785</DistanceMeters>
          </Trackpoint>
          <Trackpoint>
            <Time>2019-05-08T09:50:10.000Z</Time>
            <Position>
              <LatitudeDegrees>42.99739644862711429595947265625</LatitudeDegrees>
              <LongitudeDegrees>0.54318496026098728179931640625</LongitudeDegrees>
            </Position>
            <AltitudeMeters>841</AltitudeMeters>
            <DistanceMeters>39212.794481258</DistanceMeters>
          </Trackpoint>
          <Trackpoint>
            <Time>2019-05-08T09:50:12.000Z</Time>
            <Position>
              <LatitudeDegrees>42.99739007838070392608642578125</LatitudeDegrees>
              <LongitudeDegrees>0.5431263707578182220458984375</LongitudeDegrees>
            </Position>
            <AltitudeMeters>841.5999755859375</AltitudeMeters>
            <DistanceMeters>39217.61562394</DistanceMeters>
          </Trackpoint>
          <Trackpoint>
            <Time>2019-05-08T09:50:18.000Z</Time>
            <Position>
              <LatitudeDegrees>42.9973797686398029327392578125</LatitudeDegrees>
              <LongitudeDegrees>0.54295026697218418121337890625</LongitudeDegrees>
            </Position>
            <AltitudeMeters>842.5999755859375</AltitudeMeters>
            <DistanceMeters>39231.997031065</DistanceMeters>
          </Trackpoint>
          <Trackpoint>
            <Time>2019-05-08T09:50:21.000Z</Time>
            <Position>
              <LatitudeDegrees>42.997372560203075408935546875</LatitudeDegrees>
              <LongitudeDegrees>0.542859323322772979736328125</LongitudeDegrees>
            </Position>
            <AltitudeMeters>843</AltitudeMeters>
            <DistanceMeters>39239.443148802</DistanceMeters>
          </Trackpoint>
          <Trackpoint>
            <Time>2019-05-08T09:50:26.000Z</Time>
            <Position>
              <LatitudeDegrees>42.9973541200160980224609375</LatitudeDegrees>
              <LongitudeDegrees>0.54270752705633640289306640625</LongitudeDegrees>
            </Position>
            <AltitudeMeters>843.79998779296875</AltitudeMeters>
            <DistanceMeters>39251.968664685</DistanceMeters>
          </Trackpoint>
          <Trackpoint>
            <Time>2019-05-08T09:50:29.000Z</Time>
            <Position>
              <LatitudeDegrees>42.9973532818257808685302734375</LatitudeDegrees>
              <LongitudeDegrees>0.54261817596852779388427734375</LongitudeDegrees>
            </Position>
            <AltitudeMeters>844</AltitudeMeters>
            <DistanceMeters>39259.243020187</DistanceMeters>
          </Trackpoint>
          <Trackpoint>
            <Time>2019-05-08T09:50:31.000Z</Time>
            <Position>
              <LatitudeDegrees>42.99735470674932003021240234375</LatitudeDegrees>
              <LongitudeDegrees>0.54255732335150241851806640625</LongitudeDegrees>
            </Position>
            <AltitudeMeters>844.4000244140625</AltitudeMeters>
            <DistanceMeters>39264.199007266</DistanceMeters>
          </Trackpoint>
          <Trackpoint>
            <Time>2019-05-08T09:50:36.000Z</Time>
            <Position>
              <LatitudeDegrees>42.99736090935766696929931640625</LatitudeDegrees>
              <LongitudeDegrees>0.54241114296019077301025390625</LongitudeDegrees>
            </Position>
            <AltitudeMeters>845.20001220703125</AltitudeMeters>
            <DistanceMeters>39276.118706204</DistanceMeters>
          </Trackpoint>
          <Trackpoint>
            <Time>2019-05-08T09:50:39.000Z</Time>
            <Position>
              <LatitudeDegrees>42.9973546229302883148193359375</LatitudeDegrees>
              <LongitudeDegrees>0.5423240549862384796142578125</LongitudeDegrees>
            </Position>
            <AltitudeMeters>845.5999755859375</AltitudeMeters>
            <DistanceMeters>39283.24254152</DistanceMeters>
          </Trackpoint>
          <Trackpoint>
            <Time>2019-05-08T09:50:43.000Z</Time>
            <Position>
              <LatitudeDegrees>42.99736057408154010772705078125</LatitudeDegrees>
              <LongitudeDegrees>0.5422077141702175140380859375</LongitudeDegrees>
            </Position>
            <AltitudeMeters>846.5999755859375</AltitudeMeters>
            <DistanceMeters>39292.736656701</DistanceMeters>
          </Trackpoint>
          <Trackpoint>
            <Time>2019-05-08T09:50:47.000Z</Time>
            <Position>
              <LatitudeDegrees>42.99737834371626377105712890625</LatitudeDegrees>
              <LongitudeDegrees>0.5420950613915920257568359375</LongitudeDegrees>
            </Position>
            <AltitudeMeters>847.20001220703125</AltitudeMeters>
            <DistanceMeters>39302.117867978</DistanceMeters>
          </Trackpoint>
          <Trackpoint>
            <Time>2019-05-08T09:50:48.000Z</Time>
            <Position>
              <LatitudeDegrees>42.9973871447145938873291015625</LatitudeDegrees>
              <LongitudeDegrees>0.54206916131079196929931640625</LongitudeDegrees>
            </Position>
            <AltitudeMeters>847.4000244140625</AltitudeMeters>
            <DistanceMeters>39304.441654912</DistanceMeters>
          </Trackpoint>
          <Trackpoint>
            <Time>2019-05-08T09:50:49.000Z</Time>
            <Position>
              <LatitudeDegrees>42.99739301204681396484375</LatitudeDegrees>
              <LongitudeDegrees>0.5420427583158016204833984375</LongitudeDegrees>
            </Position>
            <AltitudeMeters>847.5999755859375</AltitudeMeters>
            <DistanceMeters>39306.686378203</DistanceMeters>
          </Trackpoint>
          <Trackpoint>
            <Time>2019-05-08T09:50:52.000Z</Time>
            <Position>
              <LatitudeDegrees>42.99739510752260684967041015625</LatitudeDegrees>
              <LongitudeDegrees>0.5419565923511981964111328125</LongitudeDegrees>
            </Position>
            <AltitudeMeters>848</AltitudeMeters>
            <DistanceMeters>39313.704858594</DistanceMeters>
          </Trackpoint>
          <Trackpoint>
            <Time>2019-05-08T09:50:53.000Z</Time>
            <Position>
              <LatitudeDegrees>42.99739896319806575775146484375</LatitudeDegrees>
              <LongitudeDegrees>0.5419274233281612396240234375</LongitudeDegrees>
            </Position>
            <AltitudeMeters>848.20001220703125</AltitudeMeters>
            <DistanceMeters>39316.116366262</DistanceMeters>
          </Trackpoint>
          <Trackpoint>
            <Time>2019-05-08T09:50:57.000Z</Time>
            <Position>
              <LatitudeDegrees>42.99741455353796482086181640625</LatitudeDegrees>
              <LongitudeDegrees>0.54181200452148914337158203125</LongitudeDegrees>
            </Position>
            <AltitudeMeters>849.20001220703125</AltitudeMeters>
            <DistanceMeters>39325.670686895</DistanceMeters>
          </Trackpoint>
          <Trackpoint>
            <Time>2019-05-08T09:51:01.000Z</Time>
            <Position>
              <LatitudeDegrees>42.9974270425736904144287109375</LatitudeDegrees>
              <LongitudeDegrees>0.541699938476085662841796875</LongitudeDegrees>
            </Position>
            <AltitudeMeters>850</AltitudeMeters>
            <DistanceMeters>39334.898558853</DistanceMeters>
          </Trackpoint>
          <Trackpoint>
            <Time>2019-05-08T09:51:02.000Z</Time>
            <Position>
              <LatitudeDegrees>42.9974300600588321685791015625</LatitudeDegrees>
              <LongitudeDegrees>0.5416729487478733062744140625</LongitudeDegrees>
            </Position>
            <AltitudeMeters>850.20001220703125</AltitudeMeters>
            <DistanceMeters>39337.119014153</DistanceMeters>
          </Trackpoint>
          <Trackpoint>
            <Time>2019-05-08T09:51:05.000Z</Time>
            <Position>
              <LatitudeDegrees>42.997442297637462615966796875</LatitudeDegrees>
              <LongitudeDegrees>0.541592650115489959716796875</LongitudeDegrees>
            </Position>
            <AltitudeMeters>851.20001220703125</AltitudeMeters>
            <DistanceMeters>39343.79662731</DistanceMeters>
          </Trackpoint>
          <Trackpoint>
            <Time>2019-05-08T09:51:11.000Z</Time>
            <Position>
              <LatitudeDegrees>42.99746920354664325714111328125</LatitudeDegrees>
              <LongitudeDegrees>0.5414342321455478668212890625</LongitudeDegrees>
            </Position>
            <AltitudeMeters>852.4000244140625</AltitudeMeters>
            <DistanceMeters>39357.035727876</DistanceMeters>
          </Trackpoint>
          <Trackpoint>
            <Time>2019-05-08T09:51:19.000Z</Time>
            <Position>
              <LatitudeDegrees>42.99750055186450481414794921875</LatitudeDegrees>
              <LongitudeDegrees>0.54121538065373897552490234375</LongitudeDegrees>
            </Position>
            <AltitudeMeters>854.20001220703125</AltitudeMeters>
            <DistanceMeters>39375.189561352</DistanceMeters>
          </Trackpoint>
          <Trackpoint>
            <Time>2019-05-08T09:51:20.000Z</Time>
            <Position>
              <LatitudeDegrees>42.99750708974897861480712890625</LatitudeDegrees>
              <LongitudeDegrees>0.541186966001987457275390625</LongitudeDegrees>
            </Position>
            <AltitudeMeters>854.4000244140625</AltitudeMeters>
            <DistanceMeters>39377.616001098</DistanceMeters>
          </Trackpoint>
          <Trackpoint>
            <Time>2019-05-08T09:51:28.000Z</Time>
            <Position>
              <LatitudeDegrees>42.99755067564547061920166015625</LatitudeDegrees>
              <LongitudeDegrees>0.54097113199532032012939453125</LongitudeDegrees>
            </Position>
            <AltitudeMeters>855.4000244140625</AltitudeMeters>
            <DistanceMeters>39395.84330404</DistanceMeters>
          </Trackpoint>
          <Trackpoint>
            <Time>2019-05-08T09:51:30.000Z</Time>
            <Position>
              <LatitudeDegrees>42.99755536951124668121337890625</LatitudeDegrees>
              <LongitudeDegrees>0.54091413505375385284423828125</LongitudeDegrees>
            </Position>
            <AltitudeMeters>855.5999755859375</AltitudeMeters>
            <DistanceMeters>39400.512201612</DistanceMeters>
          </Trackpoint>
          <Trackpoint>
            <Time>2019-05-08T09:51:37.000Z</Time>
            <Position>
              <LatitudeDegrees>42.9975698702037334442138671875</LatitudeDegrees>
              <LongitudeDegrees>0.540712885558605194091796875</LongitudeDegrees>
            </Position>
            <AltitudeMeters>856.20001220703125</AltitudeMeters>
            <DistanceMeters>39416.974054305</DistanceMeters>
          </Trackpoint>
          <Trackpoint>
            <Time>2019-05-08T09:51:38.000Z</Time>
            <Position>
              <LatitudeDegrees>42.99757339060306549072265625</LatitudeDegrees>
              <LongitudeDegrees>0.5406842194497585296630859375</LongitudeDegrees>
            </Position>
            <AltitudeMeters>856.4000244140625</AltitudeMeters>
            <DistanceMeters>39419.340200411</DistanceMeters>
          </Trackpoint>
          <Trackpoint>
            <Time>2019-05-08T09:51:40.000Z</Time>
            <Position>
              <LatitudeDegrees>42.9975745640695095062255859375</LatitudeDegrees>
              <LongitudeDegrees>0.5406278930604457855224609375</LongitudeDegrees>
            </Position>
            <AltitudeMeters>856.5999755859375</AltitudeMeters>
            <DistanceMeters>39423.927146902</DistanceMeters>
          </Trackpoint>
          <Trackpoint>
            <Time>2019-05-08T09:51:48.000Z</Time>
            <Position>
              <LatitudeDegrees>42.99761622212827205657958984375</LatitudeDegrees>
              <LongitudeDegrees>0.5404079519212245941162109375</LongitudeDegrees>
            </Position>
            <AltitudeMeters>858</AltitudeMeters>
            <DistanceMeters>39442.421992014</DistanceMeters>
          </Trackpoint>
          <Trackpoint>
            <Time>2019-05-08T09:51:51.000Z</Time>
            <Position>
              <LatitudeDegrees>42.9976288788020610809326171875</LatitudeDegrees>
              <LongitudeDegrees>0.54032471962273120880126953125</LongitudeDegrees>
            </Position>
            <AltitudeMeters>858.20001220703125</AltitudeMeters>
            <DistanceMeters>39449.342651336</DistanceMeters>
          </Trackpoint>
          <Trackpoint>
            <Time>2019-05-08T09:51:52.000Z</Time>
            <Position>
              <LatitudeDegrees>42.9976312257349491119384765625</LatitudeDegrees>
              <LongitudeDegrees>0.54029571823775768280029296875</LongitudeDegrees>
            </Position>
            <AltitudeMeters>858.4000244140625</AltitudeMeters>
            <DistanceMeters>39451.718319195</DistanceMeters>
          </Trackpoint>
          <Trackpoint>
            <Time>2019-05-08T09:51:56.000Z</Time>
            <Position>
              <LatitudeDegrees>42.9976416192948818206787109375</LatitudeDegrees>
              <LongitudeDegrees>0.540179796516895294189453125</LongitudeDegrees>
            </Position>
            <AltitudeMeters>858.5999755859375</AltitudeMeters>
            <DistanceMeters>39461.225740781</DistanceMeters>
          </Trackpoint>
          <Trackpoint>
            <Time>2019-05-08T09:51:57.000Z</Time>
            <Position>
              <LatitudeDegrees>42.997642457485198974609375</LatitudeDegrees>
              <LongitudeDegrees>0.54015004076063632965087890625</LongitudeDegrees>
            </Position>
            <AltitudeMeters>858.79998779296875</AltitudeMeters>
            <DistanceMeters>39463.652180527</DistanceMeters>
          </Trackpoint>
          <Trackpoint>
            <Time>2019-05-08T09:52:06.000Z</Time>
            <Position>
              <LatitudeDegrees>42.99769685603678226470947265625</LatitudeDegrees>
              <LongitudeDegrees>0.5398728512227535247802734375</LongitudeDegrees>
            </Position>
            <AltitudeMeters>859</AltitudeMeters>
            <DistanceMeters>39487.014841775</DistanceMeters>
          </Trackpoint>
          <Trackpoint>
            <Time>2019-05-08T09:52:07.000Z</Time>
            <Position>
              <LatitudeDegrees>42.99770414829254150390625</LatitudeDegrees>
              <LongitudeDegrees>0.53984192200005054473876953125</LongitudeDegrees>
            </Position>
            <AltitudeMeters>859.20001220703125</AltitudeMeters>
            <DistanceMeters>39489.658566263</DistanceMeters>
          </Trackpoint>
          <Trackpoint>
            <Time>2019-05-08T09:52:11.000Z</Time>
            <Position>
              <LatitudeDegrees>42.9977539367973804473876953125</LatitudeDegrees>
              <LongitudeDegrees>0.53970647044479846954345703125</LongitudeDegrees>
            </Position>
            <AltitudeMeters>859.4000244140625</AltitudeMeters>
            <DistanceMeters>39501.998874571</DistanceMeters>
          </Trackpoint>
          <Trackpoint>
            <Time>2019-05-08T09:52:15.000Z</Time>
            <Position>
              <LatitudeDegrees>42.9978422820568084716796875</LatitudeDegrees>
              <LongitudeDegrees>0.53957127034664154052734375</LongitudeDegrees>
            </Position>
            <AltitudeMeters>859.79998779296875</AltitudeMeters>
            <DistanceMeters>39516.757719512</DistanceMeters>
          </Trackpoint>
          <Trackpoint>
            <Time>2019-05-08T09:52:19.000Z</Time>
            <Position>
              <LatitudeDegrees>42.9979078285396099090576171875</LatitudeDegrees>
              <LongitudeDegrees>0.5394467152655124664306640625</LongitudeDegrees>
            </Position>
            <AltitudeMeters>860.20001220703125</AltitudeMeters>
            <DistanceMeters>39529.249305518</DistanceMeters>
          </Trackpoint>
          <Trackpoint>
            <Time>2019-05-08T09:52:20.000Z</Time>
            <Position>
              <LatitudeDegrees>42.9979200661182403564453125</LatitudeDegrees>
              <LongitudeDegrees>0.539414025843143463134765625</LongitudeDegrees>
            </Position>
            <AltitudeMeters>860.4000244140625</AltitudeMeters>
            <DistanceMeters>39532.237740828</DistanceMeters>
          </Trackpoint>
          <Trackpoint>
            <Time>2019-05-08T09:52:22.000Z</Time>
            <Position>
              <LatitudeDegrees>42.9979494027793407440185546875</LatitudeDegrees>
              <LongitudeDegrees>0.53935124538838863372802734375</LongitudeDegrees>
            </Position>
            <AltitudeMeters>860.4000244140625</AltitudeMeters>
            <DistanceMeters>39538.301606862</DistanceMeters>
          </Trackpoint>
          <Trackpoint>
            <Time>2019-05-08T09:52:24.000Z</Time>
            <Position>
              <LatitudeDegrees>42.997988127171993255615234375</LatitudeDegrees>
              <LongitudeDegrees>0.5392889678478240966796875</LongitudeDegrees>
            </Position>
            <AltitudeMeters>860.4000244140625</AltitudeMeters>
            <DistanceMeters>39544.956191363</DistanceMeters>
          </Trackpoint>
          <Trackpoint>
            <Time>2019-05-08T09:52:29.000Z</Time>
            <Position>
              <LatitudeDegrees>42.9980804957449436187744140625</LatitudeDegrees>
              <LongitudeDegrees>0.53908688016235828399658203125</LongitudeDegrees>
            </Position>
            <AltitudeMeters>860.20001220703125</AltitudeMeters>
            <DistanceMeters>39564.355145091</DistanceMeters>
          </Trackpoint>
          <Trackpoint>
            <Time>2019-05-08T09:52:31.000Z</Time>
            <Position>
              <LatitudeDegrees>42.9981217347085475921630859375</LatitudeDegrees>
              <LongitudeDegrees>0.5389947630465030670166015625</LongitudeDegrees>
            </Position>
            <AltitudeMeters>860.20001220703125</AltitudeMeters>
            <DistanceMeters>39573.147042176</DistanceMeters>
          </Trackpoint>
          <Trackpoint>
            <Time>2019-05-08T09:52:33.000Z</Time>
            <Position>
              <LatitudeDegrees>42.99817043356597423553466796875</LatitudeDegrees>
              <LongitudeDegrees>0.5388946831226348876953125</LongitudeDegrees>
            </Position>
            <AltitudeMeters>860</AltitudeMeters>
            <DistanceMeters>39582.932487011</DistanceMeters>
          </Trackpoint>
          <Trackpoint>
            <Time>2019-05-08T09:52:34.000Z</Time>
            <Position>
              <LatitudeDegrees>42.99819943495094776153564453125</LatitudeDegrees>
              <LongitudeDegrees>0.5388469062745571136474609375</LongitudeDegrees>
            </Position>
            <AltitudeMeters>860</AltitudeMeters>
            <DistanceMeters>39587.985907257</DistanceMeters>
          </Trackpoint>
          <Trackpoint>
            <Time>2019-05-08T09:52:36.000Z</Time>
            <Position>
              <LatitudeDegrees>42.99826598726212978363037109375</LatitudeDegrees>
              <LongitudeDegrees>0.538774989545345306396484375</LongitudeDegrees>
            </Position>
            <AltitudeMeters>860</AltitudeMeters>
            <DistanceMeters>39597.427087511</DistanceMeters>
          </Trackpoint>
          <Trackpoint>
            <Time>2019-05-08T09:52:39.000Z</Time>
            <Position>
              <LatitudeDegrees>42.9983277618885040283203125</LatitudeDegrees>
              <LongitudeDegrees>0.5387337505817413330078125</LongitudeDegrees>
            </Position>
            <AltitudeMeters>859.4000244140625</AltitudeMeters>
            <DistanceMeters>39605.077770847</DistanceMeters>
          </Trackpoint>
          <Trackpoint>
            <Time>2019-05-08T09:52:44.000Z</Time>
            <Position>
              <LatitudeDegrees>42.99844284541904926300048828125</LatitudeDegrees>
              <LongitudeDegrees>0.53869728930294513702392578125</LongitudeDegrees>
            </Position>
            <AltitudeMeters>858.79998779296875</AltitudeMeters>
            <DistanceMeters>39618.225842319</DistanceMeters>
          </Trackpoint>
          <Trackpoint>
            <Time>2019-05-08T09:52:51.000Z</Time>
            <Position>
              <LatitudeDegrees>42.998660691082477569580078125</LatitudeDegrees>
              <LongitudeDegrees>0.53864163346588611602783203125</LongitudeDegrees>
            </Position>
            <AltitudeMeters>858.4000244140625</AltitudeMeters>
            <DistanceMeters>39642.891819504</DistanceMeters>
          </Trackpoint>
          <Trackpoint>
            <Time>2019-05-08T09:52:52.000Z</Time>
            <Position>
              <LatitudeDegrees>42.99868860282003879547119140625</LatitudeDegrees>
              <LongitudeDegrees>0.53863115608692169189453125</LongitudeDegrees>
            </Position>
            <AltitudeMeters>858.4000244140625</AltitudeMeters>
            <DistanceMeters>39646.114332174</DistanceMeters>
          </Trackpoint>
          <Trackpoint>
            <Time>2019-05-08T09:52:57.000Z</Time>
            <Position>
              <LatitudeDegrees>42.99880276434123516082763671875</LatitudeDegrees>
              <LongitudeDegrees>0.5385701358318328857421875</LongitudeDegrees>
            </Position>
            <AltitudeMeters>858.5999755859375</AltitudeMeters>
            <DistanceMeters>39659.757203414</DistanceMeters>
          </Trackpoint>
          <Trackpoint>
            <Time>2019-05-08T09:52:58.000Z</Time>
            <Position>
              <LatitudeDegrees>42.9988224618136882781982421875</LatitudeDegrees>
              <LongitudeDegrees>0.538551025092601776123046875</LongitudeDegrees>
            </Position>
            <AltitudeMeters>858.79998779296875</AltitudeMeters>
            <DistanceMeters>39662.444964779</DistanceMeters>
          </Trackpoint>
          <Trackpoint>
            <Time>2019-05-08T09:53:04.000Z</Time>
            <Position>
              <LatitudeDegrees>42.99891457892954349517822265625</LatitudeDegrees>
              <LongitudeDegrees>0.5384754203259944915771484375</LongitudeDegrees>
            </Position>
            <AltitudeMeters>859.5999755859375</AltitudeMeters>
            <DistanceMeters>39674.403237671</DistanceMeters>
          </Trackpoint>
          <Trackpoint>
            <Time>2019-05-08T09:53:05.000Z</Time>
            <Position>
              <LatitudeDegrees>42.9989143274724483489990234375</LatitudeDegrees>
              <LongitudeDegrees>0.53847332485020160675048828125</LongitudeDegrees>
            </Position>
            <AltitudeMeters>859.79998779296875</AltitudeMeters>
            <DistanceMeters>39674.5932911</DistanceMeters>
          </Trackpoint>
          <Trackpoint>
            <Time>2019-05-08T09:53:18.000Z</Time>
            <Position>
              <LatitudeDegrees>42.99894844181835651397705078125</LatitudeDegrees>
              <LongitudeDegrees>0.53844465874135494232177734375</LongitudeDegrees>
            </Position>
            <AltitudeMeters>860.20001220703125</AltitudeMeters>
            <DistanceMeters>39679.050439087</DistanceMeters>
          </Trackpoint>
          <Trackpoint>
            <Time>2019-05-08T09:53:20.000Z</Time>
            <Position>
              <LatitudeDegrees>42.998985908925533294677734375</LatitudeDegrees>
              <LongitudeDegrees>0.5384144000709056854248046875</LongitudeDegrees>
            </Position>
            <AltitudeMeters>860</AltitudeMeters>
            <DistanceMeters>39683.89400581</DistanceMeters>
          </Trackpoint>
          <Trackpoint>
            <Time>2019-05-08T09:53:22.000Z</Time>
            <Position>
              <LatitudeDegrees>42.9990356974303722381591796875</LatitudeDegrees>
              <LongitudeDegrees>0.5383724905550479888916015625</LongitudeDegrees>
            </Position>
            <AltitudeMeters>860</AltitudeMeters>
            <DistanceMeters>39690.4017749</DistanceMeters>
          </Trackpoint>
          <Trackpoint>
            <Time>2019-05-08T09:53:25.000Z</Time>
            <Position>
              <LatitudeDegrees>42.999120689928531646728515625</LatitudeDegrees>
              <LongitudeDegrees>0.53827308118343353271484375</LongitudeDegrees>
            </Position>
            <AltitudeMeters>860</AltitudeMeters>
            <DistanceMeters>39702.850637174</DistanceMeters>
          </Trackpoint>
          <Trackpoint>
            <Time>2019-05-08T09:53:27.000Z</Time>
            <Position>
              <LatitudeDegrees>42.99918967299163341522216796875</LatitudeDegrees>
              <LongitudeDegrees>0.53817157633602619171142578125</LongitudeDegrees>
            </Position>
            <AltitudeMeters>860</AltitudeMeters>
            <DistanceMeters>39714.130432256</DistanceMeters>
          </Trackpoint>
          <Trackpoint>
            <Time>2019-05-08T09:53:28.000Z</Time>
            <Position>
              <LatitudeDegrees>42.99922839738428592681884765625</LatitudeDegrees>
              <LongitudeDegrees>0.538110472261905670166015625</LongitudeDegrees>
            </Position>
            <AltitudeMeters>859.79998779296875</AltitudeMeters>
            <DistanceMeters>39720.712704415</DistanceMeters>
          </Trackpoint>
          <Trackpoint>
            <Time>2019-05-08T09:53:29.000Z</Time>
            <Position>
              <LatitudeDegrees>42.9992680437862873077392578125</LatitudeDegrees>
              <LongitudeDegrees>0.53804568015038967132568359375</LongitudeDegrees>
            </Position>
            <AltitudeMeters>860</AltitudeMeters>
            <DistanceMeters>39727.588857429</DistanceMeters>
          </Trackpoint>
          <Trackpoint>
            <Time>2019-05-08T09:53:31.000Z</Time>
            <Position>
              <LatitudeDegrees>42.99937139265239238739013671875</LatitudeDegrees>
              <LongitudeDegrees>0.53791291080415248870849609375</LongitudeDegrees>
            </Position>
            <AltitudeMeters>859.79998779296875</AltitudeMeters>
            <DistanceMeters>39743.372448558</DistanceMeters>
          </Trackpoint>
          <Trackpoint>
            <Time>2019-05-08T09:53:32.000Z</Time>
            <Position>
              <LatitudeDegrees>42.9994328320026397705078125</LatitudeDegrees>
              <LongitudeDegrees>0.5378461070358753204345703125</LongitudeDegrees>
            </Position>
            <AltitudeMeters>859.4000244140625</AltitudeMeters>
            <DistanceMeters>39752.109740258</DistanceMeters>
          </Trackpoint>
          <Trackpoint>
            <Time>2019-05-08T09:53:33.000Z</Time>
            <Position>
              <LatitudeDegrees>42.9994972050189971923828125</LatitudeDegrees>
              <LongitudeDegrees>0.5377780459821224212646484375</LongitudeDegrees>
            </Position>
            <AltitudeMeters>859.4000244140625</AltitudeMeters>
            <DistanceMeters>39761.166738349</DistanceMeters>
          </Trackpoint>
          <Trackpoint>
            <Time>2019-05-08T09:53:35.000Z</Time>
            <Position>
              <LatitudeDegrees>42.9996361769735813140869140625</LatitudeDegrees>
              <LongitudeDegrees>0.5376375652849674224853515625</LongitudeDegrees>
            </Position>
            <AltitudeMeters>859</AltitudeMeters>
            <DistanceMeters>39780.40301846</DistanceMeters>
          </Trackpoint>
          <Trackpoint>
            <Time>2019-05-08T09:53:36.000Z</Time>
            <Position>
              <LatitudeDegrees>42.99970851279795169830322265625</LatitudeDegrees>
              <LongitudeDegrees>0.53756606765091419219970703125</LongitudeDegrees>
            </Position>
            <AltitudeMeters>858.5999755859375</AltitudeMeters>
            <DistanceMeters>39790.337287707</DistanceMeters>
          </Trackpoint>
          <Trackpoint>
            <Time>2019-05-08T09:53:38.000Z</Time>
            <Position>
              <LatitudeDegrees>42.999865673482418060302734375</LatitudeDegrees>
              <LongitudeDegrees>0.5374248325824737548828125</LongitudeDegrees>
            </Position>
            <AltitudeMeters>856.20001220703125</AltitudeMeters>
            <DistanceMeters>39811.269496601</DistanceMeters>
          </Trackpoint>
          <Trackpoint>
            <Time>2019-05-08T09:53:39.000Z</Time>
            <Position>
              <LatitudeDegrees>42.999948821961879730224609375</LatitudeDegrees>
              <LongitudeDegrees>0.53735467605292797088623046875</LongitudeDegrees>
            </Position>
            <AltitudeMeters>855.5999755859375</AltitudeMeters>
            <DistanceMeters>39822.144140555</DistanceMeters>
          </Trackpoint>
          <Trackpoint>
            <Time>2019-05-08T09:53:40.000Z</Time>
            <Position>
              <LatitudeDegrees>43.0000344850122928619384765625</LatitudeDegrees>
              <LongitudeDegrees>0.53728611208498477935791015625</LongitudeDegrees>
            </Position>
            <AltitudeMeters>854.4000244140625</AltitudeMeters>
            <DistanceMeters>39833.191379266</DistanceMeters>
          </Trackpoint>
          <Trackpoint>
            <Time>2019-05-08T09:53:42.000Z</Time>
            <Position>
              <LatitudeDegrees>43.0002105049788951873779296875</LatitudeDegrees>
              <LongitudeDegrees>0.53715216927230358123779296875</LongitudeDegrees>
            </Position>
            <AltitudeMeters>853.20001220703125</AltitudeMeters>
            <DistanceMeters>39855.61204597</DistanceMeters>
          </Trackpoint>
          <Trackpoint>
            <Time>2019-05-08T09:53:43.000Z</Time>
            <Position>
              <LatitudeDegrees>43.000302873551845550537109375</LatitudeDegrees>
              <LongitudeDegrees>0.5370857007801532745361328125</LongitudeDegrees>
            </Position>
            <AltitudeMeters>852.20001220703125</AltitudeMeters>
            <DistanceMeters>39867.229426163</DistanceMeters>
          </Trackpoint>
          <Trackpoint>
            <Time>2019-05-08T09:53:46.000Z</Time>
            <Position>
              <LatitudeDegrees>43.0005819909274578094482421875</LatitudeDegrees>
              <LongitudeDegrees>0.536892078816890716552734375</LongitudeDegrees>
            </Position>
            <AltitudeMeters>849</AltitudeMeters>
            <DistanceMeters>39902.064980601</DistanceMeters>
          </Trackpoint>
          <Trackpoint>
            <Time>2019-05-08T09:53:47.000Z</Time>
            <Position>
              <LatitudeDegrees>43.0006745271384716033935546875</LatitudeDegrees>
              <LongitudeDegrees>0.53682192228734493255615234375</LongitudeDegrees>
            </Position>
            <AltitudeMeters>848.20001220703125</AltitudeMeters>
            <DistanceMeters>39913.841394063</DistanceMeters>
          </Trackpoint>
          <Trackpoint>
            <Time>2019-05-08T09:53:48.000Z</Time>
            <Position>
              <LatitudeDegrees>43.00076731480658054351806640625</LatitudeDegrees>
              <LongitudeDegrees>0.53674967028200626373291015625</LongitudeDegrees>
            </Position>
            <AltitudeMeters>847.79998779296875</AltitudeMeters>
            <DistanceMeters>39925.726573313</DistanceMeters>
          </Trackpoint>
          <Trackpoint>
            <Time>2019-05-08T09:53:49.000Z</Time>
            <Position>
              <LatitudeDegrees>43.0008575879037380218505859375</LatitudeDegrees>
              <LongitudeDegrees>0.5366686172783374786376953125</LongitudeDegrees>
            </Position>
            <AltitudeMeters>847.4000244140625</AltitudeMeters>
            <DistanceMeters>39937.746983172</DistanceMeters>
          </Trackpoint>
          <Trackpoint>
            <Time>2019-05-08T09:53:51.000Z</Time>
            <Position>
              <LatitudeDegrees>43.0010289140045642852783203125</LatitudeDegrees>
              <LongitudeDegrees>0.53647390566766262054443359375</LongitudeDegrees>
            </Position>
            <AltitudeMeters>845.79998779296875</AltitudeMeters>
            <DistanceMeters>39962.542765371</DistanceMeters>
          </Trackpoint>
          <Trackpoint>
            <Time>2019-05-08T09:53:52.000Z</Time>
            <Position>
              <LatitudeDegrees>43.00111080519855022430419921875</LatitudeDegrees>
              <LongitudeDegrees>0.5363712273538112640380859375</LongitudeDegrees>
            </Position>
            <AltitudeMeters>844</AltitudeMeters>
            <DistanceMeters>39974.909388784</DistanceMeters>
          </Trackpoint>
          <Trackpoint>
            <Time>2019-05-08T09:53:53.000Z</Time>
            <Position>
              <LatitudeDegrees>43.0011950433254241943359375</LatitudeDegrees>
              <LongitudeDegrees>0.5362632684409618377685546875</LongitudeDegrees>
            </Position>
            <AltitudeMeters>843.20001220703125</AltitudeMeters>
            <DistanceMeters>39987.760148995</DistanceMeters>
          </Trackpoint>
          <Trackpoint>
            <Time>2019-05-08T09:53:54.000Z</Time>
            <Position>
              <LatitudeDegrees>43.00127861090004444122314453125</LatitudeDegrees>
              <LongitudeDegrees>0.53614902310073375701904296875</LongitudeDegrees>
            </Position>
            <AltitudeMeters>842.5999755859375</AltitudeMeters>
            <DistanceMeters>40000.913027179</DistanceMeters>
          </Trackpoint>
          <Trackpoint>
            <Time>2019-05-08T09:53:55.000Z</Time>
            <Position>
              <LatitudeDegrees>43.00136192701756954193115234375</LatitudeDegrees>
              <LongitudeDegrees>0.5360274016857147216796875</LongitudeDegrees>
            </Position>
            <AltitudeMeters>841.79998779296875</AltitudeMeters>
            <DistanceMeters>40014.477570578</DistanceMeters>
          </Trackpoint>
          <Trackpoint>
            <Time>2019-05-08T09:53:56.000Z</Time>
            <Position>
              <LatitudeDegrees>43.0014429800212383270263671875</LatitudeDegrees>
              <LongitudeDegrees>0.535902343690395355224609375</LongitudeDegrees>
            </Position>
            <AltitudeMeters>840.79998779296875</AltitudeMeters>
            <DistanceMeters>40028.079342749</DistanceMeters>
          </Trackpoint>
          <Trackpoint>
            <Time>2019-05-08T09:53:57.000Z</Time>
            <Position>
              <LatitudeDegrees>43.0015153996646404266357421875</LatitudeDegrees>
              <LongitudeDegrees>0.53577066399157047271728515625</LongitudeDegrees>
            </Position>
            <AltitudeMeters>839.5999755859375</AltitudeMeters>
            <DistanceMeters>40041.490571723</DistanceMeters>
          </Trackpoint>
          <Trackpoint>
            <Time>2019-05-08T09:53:58.000Z</Time>
            <Position>
              <LatitudeDegrees>43.0015812814235687255859375</LatitudeDegrees>
              <LongitudeDegrees>0.535635463893413543701171875</LongitudeDegrees>
            </Position>
            <AltitudeMeters>838.79998779296875</AltitudeMeters>
            <DistanceMeters>40054.714658097</DistanceMeters>
          </Trackpoint>
          <Trackpoint>
            <Time>2019-05-08T09:54:00.000Z</Time>
            <Position>
              <LatitudeDegrees>43.00170742906630039215087890625</LatitudeDegrees>
              <LongitudeDegrees>0.53536397404968738555908203125</LongitudeDegrees>
            </Position>
            <AltitudeMeters>837.79998779296875</AltitudeMeters>
            <DistanceMeters>40080.896889155</DistanceMeters>
          </Trackpoint>
          <Trackpoint>
            <Time>2019-05-08T09:54:01.000Z</Time>
            <Position>
              <LatitudeDegrees>43.00176744349300861358642578125</LatitudeDegrees>
              <LongitudeDegrees>0.535222403705120086669921875</LongitudeDegrees>
            </Position>
            <AltitudeMeters>836.4000244140625</AltitudeMeters>
            <DistanceMeters>40094.216909499</DistanceMeters>
          </Trackpoint>
          <Trackpoint>
            <Time>2019-05-08T09:54:03.000Z</Time>
            <Position>
              <LatitudeDegrees>43.00188361667096614837646484375</LatitudeDegrees>
              <LongitudeDegrees>0.53492526523768901824951171875</LongitudeDegrees>
            </Position>
            <AltitudeMeters>833.4000244140625</AltitudeMeters>
            <DistanceMeters>40121.642942891</DistanceMeters>
          </Trackpoint>
          <Trackpoint>
            <Time>2019-05-08T09:54:04.000Z</Time>
            <Position>
              <LatitudeDegrees>43.00194002687931060791015625</LatitudeDegrees>
              <LongitudeDegrees>0.53477472625672817230224609375</LongitudeDegrees>
            </Position>
            <AltitudeMeters>832.4000244140625</AltitudeMeters>
            <DistanceMeters>40135.411326776</DistanceMeters>
          </Trackpoint>
          <Trackpoint>
            <Time>2019-05-08T09:54:05.000Z</Time>
            <Position>
              <LatitudeDegrees>43.00199308432638645172119140625</LatitudeDegrees>
              <LongitudeDegrees>0.53462368436157703399658203125</LongitudeDegrees>
            </Position>
            <AltitudeMeters>831.4000244140625</AltitudeMeters>
            <DistanceMeters>40149.050557136</DistanceMeters>
          </Trackpoint>
          <Trackpoint>
            <Time>2019-05-08T09:54:07.000Z</Time>
            <Position>
              <LatitudeDegrees>43.00208888947963714599609375</LatitudeDegrees>
              <LongitudeDegrees>0.5343349277973175048828125</LongitudeDegrees>
            </Position>
            <AltitudeMeters>829.79998779296875</AltitudeMeters>
            <DistanceMeters>40174.860414541</DistanceMeters>
          </Trackpoint>
          <Trackpoint>
            <Time>2019-05-08T09:54:09.000Z</Time>
            <Position>
              <LatitudeDegrees>43.0021598003804683685302734375</LatitudeDegrees>
              <LongitudeDegrees>0.53411523811519145965576171875</LongitudeDegrees>
            </Position>
            <AltitudeMeters>828.20001220703125</AltitudeMeters>
            <DistanceMeters>40194.407296505</DistanceMeters>
          </Trackpoint>
          <Trackpoint>
            <Time>2019-05-08T09:54:10.000Z</Time>
            <Position>
              <LatitudeDegrees>43.00218972377479076385498046875</LatitudeDegrees>
              <LongitudeDegrees>0.5340336821973323822021484375</LongitudeDegrees>
            </Position>
            <AltitudeMeters>826.4000244140625</AltitudeMeters>
            <DistanceMeters>40201.834593253</DistanceMeters>
          </Trackpoint>
          <Trackpoint>
            <Time>2019-05-08T09:54:11.000Z</Time>
            <Position>
              <LatitudeDegrees>43.00222434103488922119140625</LatitudeDegrees>
              <LongitudeDegrees>0.5339649505913257598876953125</LongitudeDegrees>
            </Position>
            <AltitudeMeters>825</AltitudeMeters>
            <DistanceMeters>40208.628172627</DistanceMeters>
          </Trackpoint>
          <Trackpoint>
            <Time>2019-05-08T09:54:12.000Z</Time>
            <Position>
              <LatitudeDegrees>43.0022647418081760406494140625</LatitudeDegrees>
              <LongitudeDegrees>0.53391180932521820068359375</LongitudeDegrees>
            </Position>
            <AltitudeMeters>824.20001220703125</AltitudeMeters>
            <DistanceMeters>40214.868179809</DistanceMeters>
          </Trackpoint>
          <Trackpoint>
            <Time>2019-05-08T09:54:14.000Z</Time>
            <Position>
              <LatitudeDegrees>43.0023462139070034027099609375</LatitudeDegrees>
              <LongitudeDegrees>0.53386210463941097259521484375</LongitudeDegrees>
            </Position>
            <AltitudeMeters>822.20001220703125</AltitudeMeters>
            <DistanceMeters>40224.798357791</DistanceMeters>
          </Trackpoint>
          <Trackpoint>
            <Time>2019-05-08T09:54:15.000Z</Time>
            <Position>
              <LatitudeDegrees>43.00238921307027339935302734375</LatitudeDegrees>
              <LongitudeDegrees>0.53386914543807506561279296875</LongitudeDegrees>
            </Position>
            <AltitudeMeters>821.4000244140625</AltitudeMeters>
            <DistanceMeters>40229.619500474</DistanceMeters>
          </Trackpoint>
          <Trackpoint>
            <Time>2019-05-08T09:54:16.000Z</Time>
            <Position>
              <LatitudeDegrees>43.00242810510098934173583984375</LatitudeDegrees>
              <LongitudeDegrees>0.53389814682304859161376953125</LongitudeDegrees>
            </Position>
            <AltitudeMeters>821.20001220703125</AltitudeMeters>
            <DistanceMeters>40234.549912808</DistanceMeters>
          </Trackpoint>
          <Trackpoint>
            <Time>2019-05-08T09:54:18.000Z</Time>
            <Position>
              <LatitudeDegrees>43.002487532794475555419921875</LatitudeDegrees>
              <LongitudeDegrees>0.5340035073459148406982421875</LongitudeDegrees>
            </Position>
            <AltitudeMeters>821</AltitudeMeters>
            <DistanceMeters>40245.380457255</DistanceMeters>
          </Trackpoint>
          <Trackpoint>
            <Time>2019-05-08T09:54:20.000Z</Time>
            <Position>
              <LatitudeDegrees>43.002545200288295745849609375</LatitudeDegrees>
              <LongitudeDegrees>0.5341630987823009490966796875</LongitudeDegrees>
            </Position>
            <AltitudeMeters>820</AltitudeMeters>
            <DistanceMeters>40259.870395398</DistanceMeters>
          </Trackpoint>
          <Trackpoint>
            <Time>2019-05-08T09:54:22.000Z</Time>
            <Position>
              <LatitudeDegrees>43.00259239040315151214599609375</LatitudeDegrees>
              <LongitudeDegrees>0.5343525297939777374267578125</LongitudeDegrees>
            </Position>
            <AltitudeMeters>819.5999755859375</AltitudeMeters>
            <DistanceMeters>40276.159648488</DistanceMeters>
          </Trackpoint>
          <Trackpoint>
            <Time>2019-05-08T09:54:23.000Z</Time>
            <Position>
              <LatitudeDegrees>43.00261099822819232940673828125</LatitudeDegrees>
              <LongitudeDegrees>0.53446124307811260223388671875</LongitudeDegrees>
            </Position>
            <AltitudeMeters>819.4000244140625</AltitudeMeters>
            <DistanceMeters>40285.247998681</DistanceMeters>
          </Trackpoint>
          <Trackpoint>
            <Time>2019-05-08T09:54:26.000Z</Time>
            <Position>
              <LatitudeDegrees>43.0026677437126636505126953125</LatitudeDegrees>
              <LongitudeDegrees>0.53482451476156711578369140625</LongitudeDegrees>
            </Position>
            <AltitudeMeters>817.79998779296875</AltitudeMeters>
            <DistanceMeters>40315.484418104</DistanceMeters>
          </Trackpoint>
          <Trackpoint>
            <Time>2019-05-08T09:54:27.000Z</Time>
            <Position>
              <LatitudeDegrees>43.002689369022846221923828125</LatitudeDegrees>
              <LongitudeDegrees>0.5349523387849330902099609375</LongitudeDegrees>
            </Position>
            <AltitudeMeters>817.4000244140625</AltitudeMeters>
            <DistanceMeters>40326.163831266</DistanceMeters>
          </Trackpoint>
          <Trackpoint>
            <Time>2019-05-08T09:54:28.000Z</Time>
            <Position>
              <LatitudeDegrees>43.00271376036107540130615234375</LatitudeDegrees>
              <LongitudeDegrees>0.53508653305470943450927734375</LongitudeDegrees>
            </Position>
            <AltitudeMeters>817</AltitudeMeters>
            <DistanceMeters>40337.41918299</DistanceMeters>
          </Trackpoint>
          <Trackpoint>
            <Time>2019-05-08T09:54:30.000Z</Time>
            <Position>
              <LatitudeDegrees>43.0027783848345279693603515625</LatitudeDegrees>
              <LongitudeDegrees>0.535349138081073760986328125</LongitudeDegrees>
            </Position>
            <AltitudeMeters>815</AltitudeMeters>
            <DistanceMeters>40359.972367819</DistanceMeters>
          </Trackpoint>
          <Trackpoint>
            <Time>2019-05-08T09:54:31.000Z</Time>
            <Position>
              <LatitudeDegrees>43.00281618721783161163330078125</LatitudeDegrees>
              <LongitudeDegrees>0.53547126241028308868408203125</LongitudeDegrees>
            </Position>
            <AltitudeMeters>814.4000244140625</AltitudeMeters>
            <DistanceMeters>40370.767001043</DistanceMeters>
          </Trackpoint>
          <Trackpoint>
            <Time>2019-05-08T09:54:32.000Z</Time>
            <Position>
              <LatitudeDegrees>43.00285675562918186187744140625</LatitudeDegrees>
              <LongitudeDegrees>0.53558978252112865447998046875</LongitudeDegrees>
            </Position>
            <AltitudeMeters>813.20001220703125</AltitudeMeters>
            <DistanceMeters>40381.418898081</DistanceMeters>
          </Trackpoint>
          <Trackpoint>
            <Time>2019-05-08T09:54:33.000Z</Time>
            <Position>
              <LatitudeDegrees>43.00289548002183437347412109375</LatitudeDegrees>
              <LongitudeDegrees>0.53571383468806743621826171875</LongitudeDegrees>
            </Position>
            <AltitudeMeters>812.20001220703125</AltitudeMeters>
            <DistanceMeters>40392.398082498</DistanceMeters>
          </Trackpoint>
          <Trackpoint>
            <Time>2019-05-08T09:54:34.000Z</Time>
            <Position>
              <LatitudeDegrees>43.00293512642383575439453125</LatitudeDegrees>
              <LongitudeDegrees>0.53583855740725994110107421875</LongitudeDegrees>
            </Position>
            <AltitudeMeters>811.5999755859375</AltitudeMeters>
            <DistanceMeters>40403.46818491</DistanceMeters>
          </Trackpoint>
          <Trackpoint>
            <Time>2019-05-08T09:54:35.000Z</Time>
            <Position>
              <LatitudeDegrees>43.0029815621674060821533203125</LatitudeDegrees>
              <LongitudeDegrees>0.5359645374119281768798828125</LongitudeDegrees>
            </Position>
            <AltitudeMeters>811.20001220703125</AltitudeMeters>
            <DistanceMeters>40414.95187928</DistanceMeters>
          </Trackpoint>
          <Trackpoint>
            <Time>2019-05-08T09:54:36.000Z</Time>
            <Position>
              <LatitudeDegrees>43.00302724353969097137451171875</LatitudeDegrees>
              <LongitudeDegrees>0.53608934395015239715576171875</LongitudeDegrees>
            </Position>
            <AltitudeMeters>809.4000244140625</AltitudeMeters>
            <DistanceMeters>40426.312242502</DistanceMeters>
          </Trackpoint>
          <Trackpoint>
            <Time>2019-05-08T09:54:37.000Z</Time>
            <Position>
              <LatitudeDegrees>43.00307284109294414520263671875</LatitudeDegrees>
              <LongitudeDegrees>0.536206103861331939697265625</LongitudeDegrees>
            </Position>
            <AltitudeMeters>807.5999755859375</AltitudeMeters>
            <DistanceMeters>40437.086361152</DistanceMeters>
          </Trackpoint>
          <Trackpoint>
            <Time>2019-05-08T09:54:38.000Z</Time>
            <Position>
              <LatitudeDegrees>43.0031274072825908660888671875</LatitudeDegrees>
              <LongitudeDegrees>0.53631984628736972808837890625</LongitudeDegrees>
            </Position>
            <AltitudeMeters>806.5999755859375</AltitudeMeters>
            <DistanceMeters>40448.158910447</DistanceMeters>
          </Trackpoint>
          <Trackpoint>
            <Time>2019-05-08T09:54:39.000Z</Time>
            <Position>
              <LatitudeDegrees>43.00318985246121883392333984375</LatitudeDegrees>
              <LongitudeDegrees>0.53642042912542819976806640625</LongitudeDegrees>
            </Position>
            <AltitudeMeters>805.5999755859375</AltitudeMeters>
            <DistanceMeters>40458.898610928</DistanceMeters>
          </Trackpoint>
          <Trackpoint>
            <Time>2019-05-08T09:54:40.000Z</Time>
            <Position>
              <LatitudeDegrees>43.003259338438510894775390625</LatitudeDegrees>
              <LongitudeDegrees>0.53650525398552417755126953125</LongitudeDegrees>
            </Position>
            <AltitudeMeters>804.79998779296875</AltitudeMeters>
            <DistanceMeters>40469.266543701</DistanceMeters>
          </Trackpoint>
          <Trackpoint>
            <Time>2019-05-08T09:54:41.000Z</Time>
            <Position>
              <LatitudeDegrees>43.0033329315483570098876953125</LatitudeDegrees>
              <LongitudeDegrees>0.53657867945730686187744140625</LongitudeDegrees>
            </Position>
            <AltitudeMeters>804</AltitudeMeters>
            <DistanceMeters>40479.406388394</DistanceMeters>
          </Trackpoint>
          <Trackpoint>
            <Time>2019-05-08T09:54:42.000Z</Time>
            <Position>
              <LatitudeDegrees>43.00341398455202579498291015625</LatitudeDegrees>
              <LongitudeDegrees>0.53663617931306362152099609375</LongitudeDegrees>
            </Position>
            <AltitudeMeters>803.4000244140625</AltitudeMeters>
            <DistanceMeters>40489.569361107</DistanceMeters>
          </Trackpoint>
          <Trackpoint>
            <Time>2019-05-08T09:54:43.000Z</Time>
            <Position>
              <LatitudeDegrees>43.0034988932311534881591796875</LatitudeDegrees>
              <LongitudeDegrees>0.5366816930472850799560546875</LongitudeDegrees>
            </Position>
            <AltitudeMeters>802.79998779296875</AltitudeMeters>
            <DistanceMeters>40499.719886818</DistanceMeters>
          </Trackpoint>
          <Trackpoint>
            <Time>2019-05-08T09:54:44.000Z</Time>
            <Position>
              <LatitudeDegrees>43.0035837180912494659423828125</LatitudeDegrees>
              <LongitudeDegrees>0.5367175675928592681884765625</LongitudeDegrees>
            </Position>
            <AltitudeMeters>801.4000244140625</AltitudeMeters>
            <DistanceMeters>40509.602665113</DistanceMeters>
          </Trackpoint>
          <Trackpoint>
            <Time>2019-05-08T09:54:45.000Z</Time>
            <Position>
              <LatitudeDegrees>43.00366736948490142822265625</LatitudeDegrees>
              <LongitudeDegrees>0.53674346767365932464599609375</LongitudeDegrees>
            </Position>
            <AltitudeMeters>799.79998779296875</AltitudeMeters>
            <DistanceMeters>40519.14894876</DistanceMeters>
          </Trackpoint>
          <Trackpoint>
            <Time>2019-05-08T09:54:48.000Z</Time>
            <Position>
              <LatitudeDegrees>43.00387716852128505706787109375</LatitudeDegrees>
              <LongitudeDegrees>0.536789484322071075439453125</LongitudeDegrees>
            </Position>
            <AltitudeMeters>796.4000244140625</AltitudeMeters>
            <DistanceMeters>40542.798576131</DistanceMeters>
          </Trackpoint>
          <Trackpoint>
            <Time>2019-05-08T09:54:51.000Z</Time>
            <Position>
              <LatitudeDegrees>43.00401228480041027069091796875</LatitudeDegrees>
              <LongitudeDegrees>0.53683944046497344970703125</LongitudeDegrees>
            </Position>
            <AltitudeMeters>794</AltitudeMeters>
            <DistanceMeters>40558.377161898</DistanceMeters>
          </Trackpoint>
          <Trackpoint>
            <Time>2019-05-08T09:54:52.000Z</Time>
            <Position>
              <LatitudeDegrees>43.0040353350341320037841796875</LatitudeDegrees>
              <LongitudeDegrees>0.536884032189846038818359375</LongitudeDegrees>
            </Position>
            <AltitudeMeters>793</AltitudeMeters>
            <DistanceMeters>40562.822137405</DistanceMeters>
          </Trackpoint>
          <Trackpoint>
            <Time>2019-05-08T09:54:53.000Z</Time>
            <Position>
              <LatitudeDegrees>43.00404363311827182769775390625</LatitudeDegrees>
              <LongitudeDegrees>0.5369500815868377685546875</LongitudeDegrees>
            </Position>
            <AltitudeMeters>792</AltitudeMeters>
            <DistanceMeters>40568.276869469</DistanceMeters>
          </Trackpoint>
          <Trackpoint>
            <Time>2019-05-08T09:54:55.000Z</Time>
            <Position>
              <LatitudeDegrees>43.0040658451616764068603515625</LatitudeDegrees>
              <LongitudeDegrees>0.5371148698031902313232421875</LongitudeDegrees>
            </Position>
            <AltitudeMeters>790.79998779296875</AltitudeMeters>
            <DistanceMeters>40581.915768792</DistanceMeters>
          </Trackpoint>
          <Trackpoint>
            <Time>2019-05-08T09:54:56.000Z</Time>
            <Position>
              <LatitudeDegrees>43.00409526564180850982666015625</LatitudeDegrees>
              <LongitudeDegrees>0.5372064001858234405517578125</LongitudeDegrees>
            </Position>
            <AltitudeMeters>790.4000244140625</AltitudeMeters>
            <DistanceMeters>40590.054295115</DistanceMeters>
          </Trackpoint>
          <Trackpoint>
            <Time>2019-05-08T09:54:57.000Z</Time>
            <Position>
              <LatitudeDegrees>43.00414136610925197601318359375</LatitudeDegrees>
              <LongitudeDegrees>0.53729541599750518798828125</LongitudeDegrees>
            </Position>
            <AltitudeMeters>789.79998779296875</AltitudeMeters>
            <DistanceMeters>40598.932048615</DistanceMeters>
          </Trackpoint>
          <Trackpoint>
            <Time>2019-05-08T09:54:58.000Z</Time>
            <Position>
              <LatitudeDegrees>43.00420188345015048980712890625</LatitudeDegrees>
              <LongitudeDegrees>0.53737881593406200408935546875</LongitudeDegrees>
            </Position>
            <AltitudeMeters>789.4000244140625</AltitudeMeters>
            <DistanceMeters>40608.49534377</DistanceMeters>
          </Trackpoint>
          <Trackpoint>
            <Time>2019-05-08T09:54:59.000Z</Time>
            <Position>
              <LatitudeDegrees>43.00426818430423736572265625</LatitudeDegrees>
              <LongitudeDegrees>0.5374568514525890350341796875</LongitudeDegrees>
            </Position>
            <AltitudeMeters>789</AltitudeMeters>
            <DistanceMeters>40618.231756996</DistanceMeters>
          </Trackpoint>
          <Trackpoint>
            <Time>2019-05-08T09:55:00.000Z</Time>
            <Position>
              <LatitudeDegrees>43.00433968193829059600830078125</LatitudeDegrees>
              <LongitudeDegrees>0.53753145039081573486328125</LongitudeDegrees>
            </Position>
            <AltitudeMeters>788.4000244140625</AltitudeMeters>
            <DistanceMeters>40628.241638525</DistanceMeters>
          </Trackpoint>
          <Trackpoint>
            <Time>2019-05-08T09:55:02.000Z</Time>
            <Position>
              <LatitudeDegrees>43.004485778510570526123046875</LatitudeDegrees>
              <LongitudeDegrees>0.53765759803354740142822265625</LongitudeDegrees>
            </Position>
            <AltitudeMeters>786.5999755859375</AltitudeMeters>
            <DistanceMeters>40647.472754219</DistanceMeters>
          </Trackpoint>
          <Trackpoint>
            <Time>2019-05-08T09:55:03.000Z</Time>
            <Position>
              <LatitudeDegrees>43.0045593716204166412353515625</LatitudeDegrees>
              <LongitudeDegrees>0.537716187536716461181640625</LongitudeDegrees>
            </Position>
            <AltitudeMeters>786</AltitudeMeters>
            <DistanceMeters>40656.950686508</DistanceMeters>
          </Trackpoint>
          <Trackpoint>
            <Time>2019-05-08T09:55:04.000Z</Time>
            <Position>
              <LatitudeDegrees>43.00463338382542133331298828125</LatitudeDegrees>
              <LongitudeDegrees>0.537773855030536651611328125</LongitudeDegrees>
            </Position>
            <AltitudeMeters>785.20001220703125</AltitudeMeters>
            <DistanceMeters>40666.43242902</DistanceMeters>
          </Trackpoint>
          <Trackpoint>
            <Time>2019-05-08T09:55:07.000Z</Time>
            <Position>
              <LatitudeDegrees>43.00481510348618030548095703125</LatitudeDegrees>
              <LongitudeDegrees>0.5379168502986431121826171875</LongitudeDegrees>
            </Position>
            <AltitudeMeters>782.20001220703125</AltitudeMeters>
            <DistanceMeters>40689.768018361</DistanceMeters>
          </Trackpoint>
          <Trackpoint>
            <Time>2019-05-08T09:55:08.000Z</Time>
            <Position>
              <LatitudeDegrees>43.00487126223742961883544921875</LatitudeDegrees>
              <LongitudeDegrees>0.537971667945384979248046875</LongitudeDegrees>
            </Position>
            <AltitudeMeters>781.5999755859375</AltitudeMeters>
            <DistanceMeters>40697.44697657</DistanceMeters>
          </Trackpoint>
          <Trackpoint>
            <Time>2019-05-08T09:55:10.000Z</Time>
            <Position>
              <LatitudeDegrees>43.0049573443830013275146484375</LatitudeDegrees>
              <LongitudeDegrees>0.53810946643352508544921875</LongitudeDegrees>
            </Position>
            <AltitudeMeters>780</AltitudeMeters>
            <DistanceMeters>40712.197865425</DistanceMeters>
          </Trackpoint>
          <Trackpoint>
            <Time>2019-05-08T09:55:12.000Z</Time>
            <Position>
              <LatitudeDegrees>43.0050106532871723175048828125</LatitudeDegrees>
              <LongitudeDegrees>0.53825086914002895355224609375</LongitudeDegrees>
            </Position>
            <AltitudeMeters>778.4000244140625</AltitudeMeters>
            <DistanceMeters>40725.146279588</DistanceMeters>
          </Trackpoint>
          <Trackpoint>
            <Time>2019-05-08T09:55:14.000Z</Time>
            <Position>
              <LatitudeDegrees>43.00502984784543514251708984375</LatitudeDegrees>
              <LongitudeDegrees>0.538410879671573638916015625</LongitudeDegrees>
            </Position>
            <AltitudeMeters>777</AltitudeMeters>
            <DistanceMeters>40738.344392127</DistanceMeters>
          </Trackpoint>
          <Trackpoint>
            <Time>2019-05-08T09:55:15.000Z</Time>
            <Position>
              <LatitudeDegrees>43.00504066050052642822265625</LatitudeDegrees>
              <LongitudeDegrees>0.53849612362682819366455078125</LongitudeDegrees>
            </Position>
            <AltitudeMeters>776.4000244140625</AltitudeMeters>
            <DistanceMeters>40745.385352266</DistanceMeters>
          </Trackpoint>
          <Trackpoint>
            <Time>2019-05-08T09:55:16.000Z</Time>
            <Position>
              <LatitudeDegrees>43.00505541265010833740234375</LatitudeDegrees>
              <LongitudeDegrees>0.538589246571063995361328125</LongitudeDegrees>
            </Position>
            <AltitudeMeters>776.20001220703125</AltitudeMeters>
            <DistanceMeters>40753.140370584</DistanceMeters>
          </Trackpoint>
          <Trackpoint>
            <Time>2019-05-08T09:55:18.000Z</Time>
            <Position>
              <LatitudeDegrees>43.005089946091175079345703125</LatitudeDegrees>
              <LongitudeDegrees>0.53879150189459323883056640625</LongitudeDegrees>
            </Position>
            <AltitudeMeters>773.79998779296875</AltitudeMeters>
            <DistanceMeters>40770.045513568</DistanceMeters>
          </Trackpoint>
          <Trackpoint>
            <Time>2019-05-08T09:55:19.000Z</Time>
            <Position>
              <LatitudeDegrees>43.00511182285845279693603515625</LatitudeDegrees>
              <LongitudeDegrees>0.538903065025806427001953125</LongitudeDegrees>
            </Position>
            <AltitudeMeters>773.20001220703125</AltitudeMeters>
            <DistanceMeters>40779.447397332</DistanceMeters>
          </Trackpoint>
          <Trackpoint>
            <Time>2019-05-08T09:55:20.000Z</Time>
            <Position>
              <LatitudeDegrees>43.0051293410360813140869140625</LatitudeDegrees>
              <LongitudeDegrees>0.53902267478406429290771484375</LongitudeDegrees>
            </Position>
            <AltitudeMeters>773</AltitudeMeters>
            <DistanceMeters>40789.376665916</DistanceMeters>
          </Trackpoint>
          <Trackpoint>
            <Time>2019-05-08T09:55:22.000Z</Time>
            <Position>
              <LatitudeDegrees>43.00516446121037006378173828125</LatitudeDegrees>
              <LongitudeDegrees>0.5392636545002460479736328125</LongitudeDegrees>
            </Position>
            <AltitudeMeters>770.79998779296875</AltitudeMeters>
            <DistanceMeters>40809.37657257</DistanceMeters>
          </Trackpoint>
          <Trackpoint>
            <Time>2019-05-08T09:55:23.000Z</Time>
            <Position>
              <LatitudeDegrees>43.00516965799033641815185546875</LatitudeDegrees>
              <LongitudeDegrees>0.5393920652568340301513671875</LongitudeDegrees>
            </Position>
            <AltitudeMeters>769.79998779296875</AltitudeMeters>
            <DistanceMeters>40819.844186795</DistanceMeters>
          </Trackpoint>
          <Trackpoint>
            <Time>2019-05-08T09:55:24.000Z</Time>
            <Position>
              <LatitudeDegrees>43.00517267547547817230224609375</LatitudeDegrees>
              <LongitudeDegrees>0.539526678621768951416015625</LongitudeDegrees>
            </Position>
            <AltitudeMeters>768.5999755859375</AltitudeMeters>
            <DistanceMeters>40830.805673791</DistanceMeters>
          </Trackpoint>
          <Trackpoint>
            <Time>2019-05-08T09:55:25.000Z</Time>
            <Position>
              <LatitudeDegrees>43.00518256612122058868408203125</LatitudeDegrees>
              <LongitudeDegrees>0.539658777415752410888671875</LongitudeDegrees>
            </Position>
            <AltitudeMeters>768</AltitudeMeters>
            <DistanceMeters>40841.613683269</DistanceMeters>
          </Trackpoint>
          <Trackpoint>
            <Time>2019-05-08T09:55:27.000Z</Time>
            <Position>
              <LatitudeDegrees>43.00521475262939929962158203125</LatitudeDegrees>
              <LongitudeDegrees>0.5399083904922008514404296875</LongitudeDegrees>
            </Position>
            <AltitudeMeters>766.79998779296875</AltitudeMeters>
            <DistanceMeters>40862.244112083</DistanceMeters>
          </Trackpoint>
          <Trackpoint>
            <Time>2019-05-08T09:55:28.000Z</Time>
            <Position>
              <LatitudeDegrees>43.0052411556243896484375</LatitudeDegrees>
              <LongitudeDegrees>0.5400337837636470794677734375</LongitudeDegrees>
            </Position>
            <AltitudeMeters>765.79998779296875</AltitudeMeters>
            <DistanceMeters>40872.86502141</DistanceMeters>
          </Trackpoint>
          <Trackpoint>
            <Time>2019-05-08T09:55:29.000Z</Time>
            <Position>
              <LatitudeDegrees>43.00527267158031463623046875</LatitudeDegrees>
              <LongitudeDegrees>0.54015205241739749908447265625</LongitudeDegrees>
            </Position>
            <AltitudeMeters>765.20001220703125</AltitudeMeters>
            <DistanceMeters>40883.110293909</DistanceMeters>
          </Trackpoint>
          <Trackpoint>
            <Time>2019-05-08T09:55:30.000Z</Time>
            <Position>
              <LatitudeDegrees>43.00530016422271728515625</LatitudeDegrees>
              <LongitudeDegrees>0.54026520811021327972412109375</LongitudeDegrees>
            </Position>
            <AltitudeMeters>765</AltitudeMeters>
            <DistanceMeters>40892.815122466</DistanceMeters>
          </Trackpoint>
          <Trackpoint>
            <Time>2019-05-08T09:55:32.000Z</Time>
            <Position>
              <LatitudeDegrees>43.0053643696010112762451171875</LatitudeDegrees>
              <LongitudeDegrees>0.54045639932155609130859375</LongitudeDegrees>
            </Position>
            <AltitudeMeters>763.20001220703125</AltitudeMeters>
            <DistanceMeters>40909.939453181</DistanceMeters>
          </Trackpoint>
          <Trackpoint>
            <Time>2019-05-08T09:55:33.000Z</Time>
            <Position>
              <LatitudeDegrees>43.00539513118565082550048828125</LatitudeDegrees>
              <LongitudeDegrees>0.5405281484127044677734375</LongitudeDegrees>
            </Position>
            <AltitudeMeters>762.4000244140625</AltitudeMeters>
            <DistanceMeters>40916.709731464</DistanceMeters>
          </Trackpoint>
          <Trackpoint>
            <Time>2019-05-08T09:55:34.000Z</Time>
            <Position>
              <LatitudeDegrees>43.00543284974992275238037109375</LatitudeDegrees>
              <LongitudeDegrees>0.540584810078144073486328125</LongitudeDegrees>
            </Position>
            <AltitudeMeters>761.4000244140625</AltitudeMeters>
            <DistanceMeters>40922.946843722</DistanceMeters>
          </Trackpoint>
          <Trackpoint>
            <Time>2019-05-08T09:55:36.000Z</Time>
            <Position>
              <LatitudeDegrees>43.005521781742572784423828125</LatitudeDegrees>
              <LongitudeDegrees>0.5406406335532665252685546875</LongitudeDegrees>
            </Position>
            <AltitudeMeters>759.5999755859375</AltitudeMeters>
            <DistanceMeters>40933.838082594</DistanceMeters>
          </Trackpoint>
          <Trackpoint>
            <Time>2019-05-08T09:55:37.000Z</Time>
            <Position>
              <LatitudeDegrees>43.005562685430049896240234375</LatitudeDegrees>
              <LongitudeDegrees>0.5406332574784755706787109375</LongitudeDegrees>
            </Position>
            <AltitudeMeters>758.5999755859375</AltitudeMeters>
            <DistanceMeters>40938.430931228</DistanceMeters>
          </Trackpoint>
          <Trackpoint>
            <Time>2019-05-08T09:55:38.000Z</Time>
            <Position>
              <LatitudeDegrees>43.00560534931719303131103515625</LatitudeDegrees>
              <LongitudeDegrees>0.54059964604675769805908203125</LongitudeDegrees>
            </Position>
            <AltitudeMeters>757.79998779296875</AltitudeMeters>
            <DistanceMeters>40943.912086611</DistanceMeters>
          </Trackpoint>
          <Trackpoint>
            <Time>2019-05-08T09:55:39.000Z</Time>
            <Position>
              <LatitudeDegrees>43.00564759410917758941650390625</LatitudeDegrees>
              <LongitudeDegrees>0.54054734297096729278564453125</LongitudeDegrees>
            </Position>
            <AltitudeMeters>756.5999755859375</AltitudeMeters>
            <DistanceMeters>40950.255431204</DistanceMeters>
          </Trackpoint>
          <Trackpoint>
            <Time>2019-05-08T09:55:40.000Z</Time>
            <Position>
              <LatitudeDegrees>43.00569721497595310211181640625</LatitudeDegrees>
              <LongitudeDegrees>0.54048699326813220977783203125</LongitudeDegrees>
            </Position>
            <AltitudeMeters>756</AltitudeMeters>
            <DistanceMeters>40957.646774958</DistanceMeters>
          </Trackpoint>
          <Trackpoint>
            <Time>2019-05-08T09:55:43.000Z</Time>
            <Position>
              <LatitudeDegrees>43.005885221064090728759765625</LatitudeDegrees>
              <LongitudeDegrees>0.5403043515980243682861328125</LongitudeDegrees>
            </Position>
            <AltitudeMeters>754.5999755859375</AltitudeMeters>
            <DistanceMeters>40983.315247792</DistanceMeters>
          </Trackpoint>
          <Trackpoint>
            <Time>2019-05-08T09:55:44.000Z</Time>
            <Position>
              <LatitudeDegrees>43.0059625022113323211669921875</LatitudeDegrees>
              <LongitudeDegrees>0.54024592973291873931884765625</LongitudeDegrees>
            </Position>
            <AltitudeMeters>754</AltitudeMeters>
            <DistanceMeters>40993.143509476</DistanceMeters>
          </Trackpoint>
          <Trackpoint>
            <Time>2019-05-08T09:55:45.000Z</Time>
            <Position>
              <LatitudeDegrees>43.0060446448624134063720703125</LatitudeDegrees>
              <LongitudeDegrees>0.5401861667633056640625</LongitudeDegrees>
            </Position>
            <AltitudeMeters>753.20001220703125</AltitudeMeters>
            <DistanceMeters>41003.499241601</DistanceMeters>
          </Trackpoint>
          <Trackpoint>
            <Time>2019-05-08T09:55:46.000Z</Time>
            <Position>
              <LatitudeDegrees>43.006134666502475738525390625</LatitudeDegrees>
              <LongitudeDegrees>0.54012455977499485015869140625</LongitudeDegrees>
            </Position>
            <AltitudeMeters>752.5999755859375</AltitudeMeters>
            <DistanceMeters>41014.703934939</DistanceMeters>
          </Trackpoint>
          <Trackpoint>
            <Time>2019-05-08T09:55:47.000Z</Time>
            <Position>
              <LatitudeDegrees>43.0062149651348590850830078125</LatitudeDegrees>
              <LongitudeDegrees>0.54005549289286136627197265625</LongitudeDegrees>
            </Position>
            <AltitudeMeters>752</AltitudeMeters>
            <DistanceMeters>41025.262168395</DistanceMeters>
          </Trackpoint>
          <Trackpoint>
            <Time>2019-05-08T09:55:50.000Z</Time>
            <Position>
              <LatitudeDegrees>43.00640732981264591217041015625</LatitudeDegrees>
              <LongitudeDegrees>0.53988399915397167205810546875</LongitudeDegrees>
            </Position>
            <AltitudeMeters>749.4000244140625</AltitudeMeters>
            <DistanceMeters>41050.82064507</DistanceMeters>
          </Trackpoint>
          <Trackpoint>
            <Time>2019-05-08T09:55:51.000Z</Time>
            <Position>
              <LatitudeDegrees>43.0064778216183185577392578125</LatitudeDegrees>
              <LongitudeDegrees>0.53983923979103565216064453125</LongitudeDegrees>
            </Position>
            <AltitudeMeters>748.79998779296875</AltitudeMeters>
            <DistanceMeters>41059.470686308</DistanceMeters>
          </Trackpoint>
          <Trackpoint>
            <Time>2019-05-08T09:55:52.000Z</Time>
            <Position>
              <LatitudeDegrees>43.00655518658459186553955078125</LatitudeDegrees>
              <LongitudeDegrees>0.53981007076799869537353515625</LongitudeDegrees>
            </Position>
            <AltitudeMeters>747.20001220703125</AltitudeMeters>
            <DistanceMeters>41068.403197459</DistanceMeters>
          </Trackpoint>
          <Trackpoint>
            <Time>2019-05-08T09:55:53.000Z</Time>
            <Position>
              <LatitudeDegrees>43.0066203139722347259521484375</LatitudeDegrees>
              <LongitudeDegrees>0.539812333881855010986328125</LongitudeDegrees>
            </Position>
            <AltitudeMeters>745.79998779296875</AltitudeMeters>
            <DistanceMeters>41075.653928805</DistanceMeters>
          </Trackpoint>
          <Trackpoint>
            <Time>2019-05-08T09:55:54.000Z</Time>
            <Position>
              <LatitudeDegrees>43.00669533200562000274658203125</LatitudeDegrees>
              <LongitudeDegrees>0.53983253426849842071533203125</LongitudeDegrees>
            </Position>
            <AltitudeMeters>744.20001220703125</AltitudeMeters>
            <DistanceMeters>41084.163463634</DistanceMeters>
          </Trackpoint>
          <Trackpoint>
            <Time>2019-05-08T09:55:55.000Z</Time>
            <Position>
              <LatitudeDegrees>43.0067721940577030181884765625</LatitudeDegrees>
              <LongitudeDegrees>0.53986622951924800872802734375</LongitudeDegrees>
            </Position>
            <AltitudeMeters>743.4000244140625</AltitudeMeters>
            <DistanceMeters>41093.147383895</DistanceMeters>
          </Trackpoint>
          <Trackpoint>
            <Time>2019-05-08T09:55:57.000Z</Time>
            <Position>
              <LatitudeDegrees>43.0069458670914173126220703125</LatitudeDegrees>
              <LongitudeDegrees>0.53995407186448574066162109375</LongitudeDegrees>
            </Position>
            <AltitudeMeters>742</AltitudeMeters>
            <DistanceMeters>41113.757449298</DistanceMeters>
          </Trackpoint>
          <Trackpoint>
            <Time>2019-05-08T09:55:58.000Z</Time>
            <Position>
              <LatitudeDegrees>43.0070320330560207366943359375</LatitudeDegrees>
              <LongitudeDegrees>0.53999749012291431427001953125</LongitudeDegrees>
            </Position>
            <AltitudeMeters>741</AltitudeMeters>
            <DistanceMeters>41123.978454844</DistanceMeters>
          </Trackpoint>
          <Trackpoint>
            <Time>2019-05-08T09:55:59.000Z</Time>
            <Position>
              <LatitudeDegrees>43.0071208812296390533447265625</LatitudeDegrees>
              <LongitudeDegrees>0.54003705270588397979736328125</LongitudeDegrees>
            </Position>
            <AltitudeMeters>740.5999755859375</AltitudeMeters>
            <DistanceMeters>41134.378563288</DistanceMeters>
          </Trackpoint>
          <Trackpoint>
            <Time>2019-05-08T09:56:00.000Z</Time>
            <Position>
              <LatitudeDegrees>43.00722054205834865570068359375</LatitudeDegrees>
              <LongitudeDegrees>0.54008013568818569183349609375</LongitudeDegrees>
            </Position>
            <AltitudeMeters>740.20001220703125</AltitudeMeters>
            <DistanceMeters>41146.012255125</DistanceMeters>
          </Trackpoint>
          <Trackpoint>
            <Time>2019-05-08T09:56:01.000Z</Time>
            <Position>
              <LatitudeDegrees>43.0073225498199462890625</LatitudeDegrees>
              <LongitudeDegrees>0.5401150882244110107421875</LongitudeDegrees>
            </Position>
            <AltitudeMeters>739.5999755859375</AltitudeMeters>
            <DistanceMeters>41157.716368062</DistanceMeters>
          </Trackpoint>
          <Trackpoint>
            <Time>2019-05-08T09:56:03.000Z</Time>
            <Position>
              <LatitudeDegrees>43.00751768052577972412109375</LatitudeDegrees>
              <LongitudeDegrees>0.54017342627048492431640625</LongitudeDegrees>
            </Position>
            <AltitudeMeters>737.20001220703125</AltitudeMeters>
            <DistanceMeters>41179.947745526</DistanceMeters>
          </Trackpoint>
          <Trackpoint>
            <Time>2019-05-08T09:56:05.000Z</Time>
            <Position>
              <LatitudeDegrees>43.0077059380710124969482421875</LatitudeDegrees>
              <LongitudeDegrees>0.5402143299579620361328125</LongitudeDegrees>
            </Position>
            <AltitudeMeters>735.5999755859375</AltitudeMeters>
            <DistanceMeters>41201.164042342</DistanceMeters>
          </Trackpoint>
          <Trackpoint>
            <Time>2019-05-08T09:56:06.000Z</Time>
            <Position>
              <LatitudeDegrees>43.00779419951140880584716796875</LatitudeDegrees>
              <LongitudeDegrees>0.54023000411689281463623046875</LongitudeDegrees>
            </Position>
            <AltitudeMeters>734.79998779296875</AltitudeMeters>
            <DistanceMeters>41211.070548829</DistanceMeters>
          </Trackpoint>
          <Trackpoint>
            <Time>2019-05-08T09:56:07.000Z</Time>
            <Position>
              <LatitudeDegrees>43.00787231884896755218505859375</LatitudeDegrees>
              <LongitudeDegrees>0.54024961777031421661376953125</LongitudeDegrees>
            </Position>
            <AltitudeMeters>734</AltitudeMeters>
            <DistanceMeters>41219.910587378</DistanceMeters>
          </Trackpoint>
          <Trackpoint>
            <Time>2019-05-08T09:56:10.000Z</Time>
            <Position>
              <LatitudeDegrees>43.0080878175795078277587890625</LatitudeDegrees>
              <LongitudeDegrees>0.54031147621572017669677734375</LongitudeDegrees>
            </Position>
            <AltitudeMeters>730.4000244140625</AltitudeMeters>
            <DistanceMeters>41244.418638397</DistanceMeters>
          </Trackpoint>
          <Trackpoint>
            <Time>2019-05-08T09:56:11.000Z</Time>
            <Position>
              <LatitudeDegrees>43.00814942456781864166259765625</LatitudeDegrees>
              <LongitudeDegrees>0.54031231440603733062744140625</LongitudeDegrees>
            </Position>
            <AltitudeMeters>729.79998779296875</AltitudeMeters>
            <DistanceMeters>41251.277039683</DistanceMeters>
          </Trackpoint>
          <Trackpoint>
            <Time>2019-05-08T09:56:13.000Z</Time>
            <Position>
              <LatitudeDegrees>43.00825671292841434478759765625</LatitudeDegrees>
              <LongitudeDegrees>0.5402302555739879608154296875</LongitudeDegrees>
            </Position>
            <AltitudeMeters>729</AltitudeMeters>
            <DistanceMeters>41264.959566673</DistanceMeters>
          </Trackpoint>
          <Trackpoint>
            <Time>2019-05-08T09:56:14.000Z</Time>
            <Position>
              <LatitudeDegrees>43.00829149782657623291015625</LatitudeDegrees>
              <LongitudeDegrees>0.5401553213596343994140625</LongitudeDegrees>
            </Position>
            <AltitudeMeters>728</AltitudeMeters>
            <DistanceMeters>41272.184097236</DistanceMeters>
          </Trackpoint>
          <Trackpoint>
            <Time>2019-05-08T09:56:15.000Z</Time>
            <Position>
              <LatitudeDegrees>43.00831697881221771240234375</LatitudeDegrees>
              <LongitudeDegrees>0.5400606058537960052490234375</LongitudeDegrees>
            </Position>
            <AltitudeMeters>727</AltitudeMeters>
            <DistanceMeters>41280.397726221</DistanceMeters>
          </Trackpoint>
          <Trackpoint>
            <Time>2019-05-08T09:56:17.000Z</Time>
            <Position>
              <LatitudeDegrees>43.00836081616580486297607421875</LatitudeDegrees>
              <LongitudeDegrees>0.53988081403076648712158203125</LongitudeDegrees>
            </Position>
            <AltitudeMeters>725</AltitudeMeters>
            <DistanceMeters>41295.822818902</DistanceMeters>
          </Trackpoint>
          <Trackpoint>
            <Time>2019-05-08T09:56:18.000Z</Time>
            <Position>
              <LatitudeDegrees>43.0083855427801609039306640625</LatitudeDegrees>
              <LongitudeDegrees>0.53981711156666278839111328125</LongitudeDegrees>
            </Position>
            <AltitudeMeters>724.5999755859375</AltitudeMeters>
            <DistanceMeters>41301.69297833</DistanceMeters>
          </Trackpoint>
          <Trackpoint>
            <Time>2019-05-08T09:56:19.000Z</Time>
            <Position>
              <LatitudeDegrees>43.008414208889007568359375</LatitudeDegrees>
              <LongitudeDegrees>0.53977620787918567657470703125</LongitudeDegrees>
            </Position>
            <AltitudeMeters>723.79998779296875</AltitudeMeters>
            <DistanceMeters>41306.303488058</DistanceMeters>
          </Trackpoint>
          <Trackpoint>
            <Time>2019-05-08T09:56:20.000Z</Time>
            <Position>
              <LatitudeDegrees>43.00844631157815456390380859375</LatitudeDegrees>
              <LongitudeDegrees>0.539754666388034820556640625</LongitudeDegrees>
            </Position>
            <AltitudeMeters>723.4000244140625</AltitudeMeters>
            <DistanceMeters>41310.285549614</DistanceMeters>
          </Trackpoint>
          <Trackpoint>
            <Time>2019-05-08T09:56:22.000Z</Time>
            <Position>
              <LatitudeDegrees>43.0085335671901702880859375</LatitudeDegrees>
              <LongitudeDegrees>0.53977771662175655364990234375</LongitudeDegrees>
            </Position>
            <AltitudeMeters>722</AltitudeMeters>
            <DistanceMeters>41320.176547956</DistanceMeters>
          </Trackpoint>
          <Trackpoint>
            <Time>2019-05-08T09:56:23.000Z</Time>
            <Position>
              <LatitudeDegrees>43.00858545117080211639404296875</LatitudeDegrees>
              <LongitudeDegrees>0.53981878794729709625244140625</LongitudeDegrees>
            </Position>
            <AltitudeMeters>721.4000244140625</AltitudeMeters>
            <DistanceMeters>41326.848749756</DistanceMeters>
          </Trackpoint>
          <Trackpoint>
            <Time>2019-05-08T09:56:24.000Z</Time>
            <Position>
              <LatitudeDegrees>43.00863775424659252166748046875</LatitudeDegrees>
              <LongitudeDegrees>0.539875365793704986572265625</LongitudeDegrees>
            </Position>
            <AltitudeMeters>720.79998779296875</AltitudeMeters>
            <DistanceMeters>41334.271181729</DistanceMeters>
          </Trackpoint>
          <Trackpoint>
            <Time>2019-05-08T09:56:25.000Z</Time>
            <Position>
              <LatitudeDegrees>43.00869374535977840423583984375</LatitudeDegrees>
              <LongitudeDegrees>0.539939738810062408447265625</LongitudeDegrees>
            </Position>
            <AltitudeMeters>720.5999755859375</AltitudeMeters>
            <DistanceMeters>41342.412481447</DistanceMeters>
          </Trackpoint>
          <Trackpoint>
            <Time>2019-05-08T09:56:27.000Z</Time>
            <Position>
              <LatitudeDegrees>43.00881712697446346282958984375</LatitudeDegrees>
              <LongitudeDegrees>0.5400968156754970550537109375</LongitudeDegrees>
            </Position>
            <AltitudeMeters>719.79998779296875</AltitudeMeters>
            <DistanceMeters>41361.174904</DistanceMeters>
          </Trackpoint>
          <Trackpoint>
            <Time>2019-05-08T09:56:28.000Z</Time>
            <Position>
              <LatitudeDegrees>43.00887580029666423797607421875</LatitudeDegrees>
              <LongitudeDegrees>0.5401880107820034027099609375</LongitudeDegrees>
            </Position>
            <AltitudeMeters>719.20001220703125</AltitudeMeters>
            <DistanceMeters>41371.061336493</DistanceMeters>
          </Trackpoint>
          <Trackpoint>
            <Time>2019-05-08T09:56:30.000Z</Time>
            <Position>
              <LatitudeDegrees>43.00898828543722629547119140625</LatitudeDegrees>
              <LongitudeDegrees>0.5403992347419261932373046875</LongitudeDegrees>
            </Position>
            <AltitudeMeters>718</AltitudeMeters>
            <DistanceMeters>41392.328434058</DistanceMeters>
          </Trackpoint>
          <Trackpoint>
            <Time>2019-05-08T09:56:31.000Z</Time>
            <Position>
              <LatitudeDegrees>43.009039498865604400634765625</LatitudeDegrees>
              <LongitudeDegrees>0.5405162461102008819580078125</LongitudeDegrees>
            </Position>
            <AltitudeMeters>717.5999755859375</AltitudeMeters>
            <DistanceMeters>41403.427456666</DistanceMeters>
          </Trackpoint>
          <Trackpoint>
            <Time>2019-05-08T09:56:34.000Z</Time>
            <Position>
              <LatitudeDegrees>43.00916547887027263641357421875</LatitudeDegrees>
              <LongitudeDegrees>0.54088328965008258819580078125</LongitudeDegrees>
            </Position>
            <AltitudeMeters>715</AltitudeMeters>
            <DistanceMeters>41436.427869075</DistanceMeters>
          </Trackpoint>
          <Trackpoint>
            <Time>2019-05-08T09:56:35.000Z</Time>
            <Position>
              <LatitudeDegrees>43.009195066988468170166015625</LatitudeDegrees>
              <LongitudeDegrees>0.5410151369869709014892578125</LongitudeDegrees>
            </Position>
            <AltitudeMeters>714.20001220703125</AltitudeMeters>
            <DistanceMeters>41447.652692308</DistanceMeters>
          </Trackpoint>
          <Trackpoint>
            <Time>2019-05-08T09:56:36.000Z</Time>
            <Position>
              <LatitudeDegrees>43.009219206869602203369140625</LatitudeDegrees>
              <LongitudeDegrees>0.5411462299525737762451171875</LongitudeDegrees>
            </Position>
            <AltitudeMeters>713.4000244140625</AltitudeMeters>
            <DistanceMeters>41458.655292219</DistanceMeters>
          </Trackpoint>
          <Trackpoint>
            <Time>2019-05-08T09:56:38.000Z</Time>
            <Position>
              <LatitudeDegrees>43.00925843417644500732421875</LatitudeDegrees>
              <LongitudeDegrees>0.5414020456373691558837890625</LongitudeDegrees>
            </Position>
            <AltitudeMeters>711.5999755859375</AltitudeMeters>
            <DistanceMeters>41479.928757878</DistanceMeters>
          </Trackpoint>
          <Trackpoint>
            <Time>2019-05-08T09:56:39.000Z</Time>
            <Position>
              <LatitudeDegrees>43.00927595235407352447509765625</LatitudeDegrees>
              <LongitudeDegrees>0.54153355769813060760498046875</LongitudeDegrees>
            </Position>
            <AltitudeMeters>710</AltitudeMeters>
            <DistanceMeters>41490.808382965</DistanceMeters>
          </Trackpoint>
          <Trackpoint>
            <Time>2019-05-08T09:56:40.000Z</Time>
            <Position>
              <LatitudeDegrees>43.00928852520883083343505859375</LatitudeDegrees>
              <LongitudeDegrees>0.54166163317859172821044921875</LongitudeDegrees>
            </Position>
            <AltitudeMeters>709</AltitudeMeters>
            <DistanceMeters>41501.325912924</DistanceMeters>
          </Trackpoint>
          <Trackpoint>
            <Time>2019-05-08T09:56:42.000Z</Time>
            <Position>
              <LatitudeDegrees>43.009292967617511749267578125</LatitudeDegrees>
              <LongitudeDegrees>0.54192700423300266265869140625</LongitudeDegrees>
            </Position>
            <AltitudeMeters>707.4000244140625</AltitudeMeters>
            <DistanceMeters>41522.929813754</DistanceMeters>
          </Trackpoint>
          <Trackpoint>
            <Time>2019-05-08T09:56:44.000Z</Time>
            <Position>
              <LatitudeDegrees>43.0092696659266948699951171875</LatitudeDegrees>
              <LongitudeDegrees>0.5422046966850757598876953125</LongitudeDegrees>
            </Position>
            <AltitudeMeters>704.4000244140625</AltitudeMeters>
            <DistanceMeters>41545.679137726</DistanceMeters>
          </Trackpoint>
          <Trackpoint>
            <Time>2019-05-08T09:56:45.000Z</Time>
            <Position>
              <LatitudeDegrees>43.0092438496649265289306640625</LatitudeDegrees>
              <LongitudeDegrees>0.5423495359718799591064453125</LongitudeDegrees>
            </Position>
            <AltitudeMeters>703.20001220703125</AltitudeMeters>
            <DistanceMeters>41557.812824978</DistanceMeters>
          </Trackpoint>
          <Trackpoint>
            <Time>2019-05-08T09:56:46.000Z</Time>
            <Position>
              <LatitudeDegrees>43.00921342335641384124755859375</LatitudeDegrees>
              <LongitudeDegrees>0.542497225105762481689453125</LongitudeDegrees>
            </Position>
            <AltitudeMeters>702.5999755859375</AltitudeMeters>
            <DistanceMeters>41570.300795998</DistanceMeters>
          </Trackpoint>
          <Trackpoint>
            <Time>2019-05-08T09:56:47.000Z</Time>
            <Position>
              <LatitudeDegrees>43.00917268730700016021728515625</LatitudeDegrees>
              <LongitudeDegrees>0.542635023593902587890625</LongitudeDegrees>
            </Position>
            <AltitudeMeters>701.4000244140625</AltitudeMeters>
            <DistanceMeters>41582.397961734</DistanceMeters>
          </Trackpoint>
          <Trackpoint>
            <Time>2019-05-08T09:56:48.000Z</Time>
            <Position>
              <LatitudeDegrees>43.009133376181125640869140625</LatitudeDegrees>
              <LongitudeDegrees>0.54276485927402973175048828125</LongitudeDegrees>
            </Position>
            <AltitudeMeters>700</AltitudeMeters>
            <DistanceMeters>41593.835168009</DistanceMeters>
          </Trackpoint>
          <Trackpoint>
            <Time>2019-05-08T09:56:50.000Z</Time>
            <Position>
              <LatitudeDegrees>43.00906456075608730316162109375</LatitudeDegrees>
              <LongitudeDegrees>0.54302729666233062744140625</LongitudeDegrees>
            </Position>
            <AltitudeMeters>698</AltitudeMeters>
            <DistanceMeters>41616.526663969</DistanceMeters>
          </Trackpoint>
          <Trackpoint>
            <Time>2019-05-08T09:56:51.000Z</Time>
            <Position>
              <LatitudeDegrees>43.00903287716209888458251953125</LatitudeDegrees>
              <LongitudeDegrees>0.543167106807231903076171875</LongitudeDegrees>
            </Position>
            <AltitudeMeters>697.4000244140625</AltitudeMeters>
            <DistanceMeters>41628.439542773</DistanceMeters>
          </Trackpoint>
          <Trackpoint>
            <Time>2019-05-08T09:56:53.000Z</Time>
            <Position>
              <LatitudeDegrees>43.00897973589599132537841796875</LatitudeDegrees>
              <LongitudeDegrees>0.54341462440788745880126953125</LongitudeDegrees>
            </Position>
            <AltitudeMeters>695</AltitudeMeters>
            <DistanceMeters>41649.435071146</DistanceMeters>
          </Trackpoint>
          <Trackpoint>
            <Time>2019-05-08T09:56:55.000Z</Time>
            <Position>
              <LatitudeDegrees>43.0089119262993335723876953125</LatitudeDegrees>
              <LongitudeDegrees>0.543617717921733856201171875</LongitudeDegrees>
            </Position>
            <AltitudeMeters>692.4000244140625</AltitudeMeters>
            <DistanceMeters>41667.606305976</DistanceMeters>
          </Trackpoint>
          <Trackpoint>
            <Time>2019-05-08T09:56:56.000Z</Time>
            <Position>
              <LatitudeDegrees>43.0088834278285503387451171875</LatitudeDegrees>
              <LongitudeDegrees>0.54372022859752178192138671875</LongitudeDegrees>
            </Position>
            <AltitudeMeters>691.20001220703125</AltitudeMeters>
            <DistanceMeters>41676.532243712</DistanceMeters>
          </Trackpoint>
          <Trackpoint>
            <Time>2019-05-08T09:56:57.000Z</Time>
            <Position>
              <LatitudeDegrees>43.00886951386928558349609375</LatitudeDegrees>
              <LongitudeDegrees>0.54383975453674793243408203125</LongitudeDegrees>
            </Position>
            <AltitudeMeters>690.79998779296875</AltitudeMeters>
            <DistanceMeters>41686.382989951</DistanceMeters>
          </Trackpoint>
          <Trackpoint>
            <Time>2019-05-08T09:57:00.000Z</Time>
            <Position>
              <LatitudeDegrees>43.00883598625659942626953125</LatitudeDegrees>
              <LongitudeDegrees>0.54422917775809764862060546875</LongitudeDegrees>
            </Position>
            <AltitudeMeters>688.20001220703125</AltitudeMeters>
            <DistanceMeters>41718.296973127</DistanceMeters>
          </Trackpoint>
          <Trackpoint>
            <Time>2019-05-08T09:57:01.000Z</Time>
            <Position>
              <LatitudeDegrees>43.0088297836482524871826171875</LatitudeDegrees>
              <LongitudeDegrees>0.54436630569398403167724609375</LongitudeDegrees>
            </Position>
            <AltitudeMeters>687.4000244140625</AltitudeMeters>
            <DistanceMeters>41729.47867418</DistanceMeters>
          </Trackpoint>
          <Trackpoint>
            <Time>2019-05-08T09:57:04.000Z</Time>
            <Position>
              <LatitudeDegrees>43.00881109200417995452880859375</LatitudeDegrees>
              <LongitudeDegrees>0.544790513813495635986328125</LongitudeDegrees>
            </Position>
            <AltitudeMeters>685.4000244140625</AltitudeMeters>
            <DistanceMeters>41764.067353945</DistanceMeters>
          </Trackpoint>
          <Trackpoint>
            <Time>2019-05-08T09:57:05.000Z</Time>
            <Position>
              <LatitudeDegrees>43.00880572758615016937255859375</LatitudeDegrees>
              <LongitudeDegrees>0.54491448216140270233154296875</LongitudeDegrees>
            </Position>
            <AltitudeMeters>684.79998779296875</AltitudeMeters>
            <DistanceMeters>41774.17508786</DistanceMeters>
          </Trackpoint>
          <Trackpoint>
            <Time>2019-05-08T09:57:06.000Z</Time>
            <Position>
              <LatitudeDegrees>43.0088016204535961151123046875</LatitudeDegrees>
              <LongitudeDegrees>0.5450347624719142913818359375</LongitudeDegrees>
            </Position>
            <AltitudeMeters>684.20001220703125</AltitudeMeters>
            <DistanceMeters>41783.975286483</DistanceMeters>
          </Trackpoint>
          <Trackpoint>
            <Time>2019-05-08T09:57:09.000Z</Time>
            <Position>
              <LatitudeDegrees>43.00881058908998966217041015625</LatitudeDegrees>
              <LongitudeDegrees>0.54537364281713962554931640625</LongitudeDegrees>
            </Position>
            <AltitudeMeters>681.79998779296875</AltitudeMeters>
            <DistanceMeters>41811.574617424</DistanceMeters>
          </Trackpoint>
          <Trackpoint>
            <Time>2019-05-08T09:57:10.000Z</Time>
            <Position>
              <LatitudeDegrees>43.00884210504591464996337890625</LatitudeDegrees>
              <LongitudeDegrees>0.54547959007322788238525390625</LongitudeDegrees>
            </Position>
            <AltitudeMeters>680</AltitudeMeters>
            <DistanceMeters>41820.883355982</DistanceMeters>
          </Trackpoint>
          <Trackpoint>
            <Time>2019-05-08T09:57:11.000Z</Time>
            <Position>
              <LatitudeDegrees>43.00888468511402606964111328125</LatitudeDegrees>
              <LongitudeDegrees>0.5455785803496837615966796875</LongitudeDegrees>
            </Position>
            <AltitudeMeters>678.79998779296875</AltitudeMeters>
            <DistanceMeters>41830.230816583</DistanceMeters>
          </Trackpoint>
          <Trackpoint>
            <Time>2019-05-08T09:57:12.000Z</Time>
            <Position>
              <LatitudeDegrees>43.00895006395876407623291015625</LatitudeDegrees>
              <LongitudeDegrees>0.54566524922847747802734375</LongitudeDegrees>
            </Position>
            <AltitudeMeters>678.4000244140625</AltitudeMeters>
            <DistanceMeters>41840.365316544</DistanceMeters>
          </Trackpoint>
          <Trackpoint>
            <Time>2019-05-08T09:57:14.000Z</Time>
            <Position>
              <LatitudeDegrees>43.00908098928630352020263671875</LatitudeDegrees>
              <LongitudeDegrees>0.5458219908177852630615234375</LongitudeDegrees>
            </Position>
            <AltitudeMeters>677</AltitudeMeters>
            <DistanceMeters>41859.732590883</DistanceMeters>
          </Trackpoint>
          <Trackpoint>
            <Time>2019-05-08T09:57:16.000Z</Time>
            <Position>
              <LatitudeDegrees>43.009239993989467620849609375</LatitudeDegrees>
              <LongitudeDegrees>0.54597345180809497833251953125</LongitudeDegrees>
            </Position>
            <AltitudeMeters>674.79998779296875</AltitudeMeters>
            <DistanceMeters>41881.300096483</DistanceMeters>
          </Trackpoint>
          <Trackpoint>
            <Time>2019-05-08T09:57:17.000Z</Time>
            <Position>
              <LatitudeDegrees>43.00933110527694225311279296875</LatitudeDegrees>
              <LongitudeDegrees>0.54604117758572101593017578125</LongitudeDegrees>
            </Position>
            <AltitudeMeters>674.4000244140625</AltitudeMeters>
            <DistanceMeters>41892.841833254</DistanceMeters>
          </Trackpoint>
          <Trackpoint>
            <Time>2019-05-08T09:57:18.000Z</Time>
            <Position>
              <LatitudeDegrees>43.00941626541316509246826171875</LatitudeDegrees>
              <LongitudeDegrees>0.54609037935733795166015625</LongitudeDegrees>
            </Position>
            <AltitudeMeters>673.20001220703125</AltitudeMeters>
            <DistanceMeters>41903.131958442</DistanceMeters>
          </Trackpoint>
          <Trackpoint>
            <Time>2019-05-08T09:57:19.000Z</Time>
            <Position>
              <LatitudeDegrees>43.00949513912200927734375</LatitudeDegrees>
              <LongitudeDegrees>0.5461348034441471099853515625</LongitudeDegrees>
            </Position>
            <AltitudeMeters>671.79998779296875</AltitudeMeters>
            <DistanceMeters>41912.626073623</DistanceMeters>
          </Trackpoint>
          <Trackpoint>
            <Time>2019-05-08T09:57:22.000Z</Time>
            <Position>
              <LatitudeDegrees>43.00969588570296764373779296875</LatitudeDegrees>
              <LongitudeDegrees>0.5462645553052425384521484375</LongitudeDegrees>
            </Position>
            <AltitudeMeters>669.5999755859375</AltitudeMeters>
            <DistanceMeters>41937.339597256</DistanceMeters>
          </Trackpoint>
          <Trackpoint>
            <Time>2019-05-08T09:57:23.000Z</Time>
            <Position>
              <LatitudeDegrees>43.00974869169294834136962890625</LatitudeDegrees>
              <LongitudeDegrees>0.54632046259939670562744140625</LongitudeDegrees>
            </Position>
            <AltitudeMeters>669.20001220703125</AltitudeMeters>
            <DistanceMeters>41944.772363072</DistanceMeters>
          </Trackpoint>
          <Trackpoint>
            <Time>2019-05-08T09:57:24.000Z</Time>
            <Position>
              <LatitudeDegrees>43.00980560481548309326171875</LatitudeDegrees>
              <LongitudeDegrees>0.54636128246784210205078125</LongitudeDegrees>
            </Position>
            <AltitudeMeters>668.4000244140625</AltitudeMeters>
            <DistanceMeters>41951.92529346</DistanceMeters>
          </Trackpoint>
          <Trackpoint>
            <Time>2019-05-08T09:57:25.000Z</Time>
            <Position>
              <LatitudeDegrees>43.00986268557608127593994140625</LatitudeDegrees>
              <LongitudeDegrees>0.546388439834117889404296875</LongitudeDegrees>
            </Position>
            <AltitudeMeters>667.79998779296875</AltitudeMeters>
            <DistanceMeters>41958.652755325</DistanceMeters>
          </Trackpoint>
          <Trackpoint>
            <Time>2019-05-08T09:57:26.000Z</Time>
            <Position>
              <LatitudeDegrees>43.00992102362215518951416015625</LatitudeDegrees>
              <LongitudeDegrees>0.5463882721960544586181640625</LongitudeDegrees>
            </Position>
            <AltitudeMeters>667</AltitudeMeters>
            <DistanceMeters>41965.146633749</DistanceMeters>
          </Trackpoint>
          <Trackpoint>
            <Time>2019-05-08T09:57:27.000Z</Time>
            <Position>
              <LatitudeDegrees>43.00997869111597537994384765625</LatitudeDegrees>
              <LongitudeDegrees>0.54635725915431976318359375</LongitudeDegrees>
            </Position>
            <AltitudeMeters>666.20001220703125</AltitudeMeters>
            <DistanceMeters>41972.042457308</DistanceMeters>
          </Trackpoint>
          <Trackpoint>
            <Time>2019-05-08T09:57:28.000Z</Time>
            <Position>
              <LatitudeDegrees>43.010015152394771575927734375</LatitudeDegrees>
              <LongitudeDegrees>0.5462930537760257720947265625</LongitudeDegrees>
            </Position>
            <AltitudeMeters>665.20001220703125</AltitudeMeters>
            <DistanceMeters>41978.658937535</DistanceMeters>
          </Trackpoint>
          <Trackpoint>
            <Time>2019-05-08T09:57:30.000Z</Time>
            <Position>
              <LatitudeDegrees>43.01005303859710693359375</LatitudeDegrees>
              <LongitudeDegrees>0.54610806517302989959716796875</LongitudeDegrees>
            </Position>
            <AltitudeMeters>664</AltitudeMeters>
            <DistanceMeters>41994.294225492</DistanceMeters>
          </Trackpoint>
          <Trackpoint>
            <Time>2019-05-08T09:57:31.000Z</Time>
            <Position>
              <LatitudeDegrees>43.01007005386054515838623046875</LatitudeDegrees>
              <LongitudeDegrees>0.54599423892796039581298828125</LongitudeDegrees>
            </Position>
            <AltitudeMeters>663.79998779296875</AltitudeMeters>
            <DistanceMeters>42003.749741706</DistanceMeters>
          </Trackpoint>
          <Trackpoint>
            <Time>2019-05-08T09:57:33.000Z</Time>
            <Position>
              <LatitudeDegrees>43.0101051740348339080810546875</LatitudeDegrees>
              <LongitudeDegrees>0.54579860530793666839599609375</LongitudeDegrees>
            </Position>
            <AltitudeMeters>662</AltitudeMeters>
            <DistanceMeters>42020.144810645</DistanceMeters>
          </Trackpoint>
          <Trackpoint>
            <Time>2019-05-08T09:57:34.000Z</Time>
            <Position>
              <LatitudeDegrees>43.01013459451496601104736328125</LatitudeDegrees>
              <LongitudeDegrees>0.54572082124650478363037109375</LongitudeDegrees>
            </Position>
            <AltitudeMeters>661.20001220703125</AltitudeMeters>
            <DistanceMeters>42027.271814223</DistanceMeters>
          </Trackpoint>
          <Trackpoint>
            <Time>2019-05-08T09:57:35.000Z</Time>
            <Position>
              <LatitudeDegrees>43.01017415709793567657470703125</LatitudeDegrees>
              <LongitudeDegrees>0.5456526763737201690673828125</LongitudeDegrees>
            </Position>
            <AltitudeMeters>661</AltitudeMeters>
            <DistanceMeters>42034.353695651</DistanceMeters>
          </Trackpoint>
          <Trackpoint>
            <Time>2019-05-08T09:57:36.000Z</Time>
            <Position>
              <LatitudeDegrees>43.0102241970598697662353515625</LatitudeDegrees>
              <LongitudeDegrees>0.5455997027456760406494140625</LongitudeDegrees>
            </Position>
            <AltitudeMeters>660</AltitudeMeters>
            <DistanceMeters>42041.397220336</DistanceMeters>
          </Trackpoint>
          <Trackpoint>
            <Time>2019-05-08T09:57:38.000Z</Time>
            <Position>
              <LatitudeDegrees>43.0103480815887451171875</LatitudeDegrees>
              <LongitudeDegrees>0.5455095134675502777099609375</LongitudeDegrees>
            </Position>
            <AltitudeMeters>658.79998779296875</AltitudeMeters>
            <DistanceMeters>42057.018063004</DistanceMeters>
          </Trackpoint>
          <Trackpoint>
            <Time>2019-05-08T09:57:41.000Z</Time>
            <Position>
              <LatitudeDegrees>43.01056601107120513916015625</LatitudeDegrees>
              <LongitudeDegrees>0.54538604803383350372314453125</LongitudeDegrees>
            </Position>
            <AltitudeMeters>657.20001220703125</AltitudeMeters>
            <DistanceMeters>42083.273309634</DistanceMeters>
          </Trackpoint>
          <Trackpoint>
            <Time>2019-05-08T09:57:43.000Z</Time>
            <Position>
              <LatitudeDegrees>43.0107311345636844635009765625</LatitudeDegrees>
              <LongitudeDegrees>0.545318238437175750732421875</LongitudeDegrees>
            </Position>
            <AltitudeMeters>656.5999755859375</AltitudeMeters>
            <DistanceMeters>42102.46282467</DistanceMeters>
          </Trackpoint>
          <Trackpoint>
            <Time>2019-05-08T09:57:45.000Z</Time>
            <Position>
              <LatitudeDegrees>43.01090128719806671142578125</LatitudeDegrees>
              <LongitudeDegrees>0.54524548351764678955078125</LongitudeDegrees>
            </Position>
            <AltitudeMeters>655.4000244140625</AltitudeMeters>
            <DistanceMeters>42122.305440251</DistanceMeters>
          </Trackpoint>
          <Trackpoint>
            <Time>2019-05-08T09:57:47.000Z</Time>
            <Position>
              <LatitudeDegrees>43.0110630579292774200439453125</LatitudeDegrees>
              <LongitudeDegrees>0.5451926775276660919189453125</LongitudeDegrees>
            </Position>
            <AltitudeMeters>653.20001220703125</AltitudeMeters>
            <DistanceMeters>42140.816390544</DistanceMeters>
          </Trackpoint>
          <Trackpoint>
            <Time>2019-05-08T09:57:48.000Z</Time>
            <Position>
              <LatitudeDegrees>43.0111435241997241973876953125</LatitudeDegrees>
              <LongitudeDegrees>0.54517230950295925140380859375</LongitudeDegrees>
            </Position>
            <AltitudeMeters>652</AltitudeMeters>
            <DistanceMeters>42149.924095096</DistanceMeters>
          </Trackpoint>
          <Trackpoint>
            <Time>2019-05-08T09:57:49.000Z</Time>
            <Position>
              <LatitudeDegrees>43.0112291872501373291015625</LatitudeDegrees>
              <LongitudeDegrees>0.54516233503818511962890625</LongitudeDegrees>
            </Position>
            <AltitudeMeters>651.4000244140625</AltitudeMeters>
            <DistanceMeters>42159.493054033</DistanceMeters>
          </Trackpoint>
          <Trackpoint>
            <Time>2019-05-08T09:57:50.000Z</Time>
            <Position>
              <LatitudeDegrees>43.0113150179386138916015625</LatitudeDegrees>
              <LongitudeDegrees>0.54515671916306018829345703125</LongitudeDegrees>
            </Position>
            <AltitudeMeters>650.4000244140625</AltitudeMeters>
            <DistanceMeters>42169.057293385</DistanceMeters>
          </Trackpoint>
          <Trackpoint>
            <Time>2019-05-08T09:57:52.000Z</Time>
            <Position>
              <LatitudeDegrees>43.01146924495697021484375</LatitudeDegrees>
              <LongitudeDegrees>0.54515370167791843414306640625</LongitudeDegrees>
            </Position>
            <AltitudeMeters>648.5999755859375</AltitudeMeters>
            <DistanceMeters>42186.22454724</DistanceMeters>
          </Trackpoint>
          <Trackpoint>
            <Time>2019-05-08T09:57:53.000Z</Time>
            <Position>
              <LatitudeDegrees>43.01154677756130695343017578125</LatitudeDegrees>
              <LongitudeDegrees>0.5451353453099727630615234375</LongitudeDegrees>
            </Position>
            <AltitudeMeters>648</AltitudeMeters>
            <DistanceMeters>42194.981969191</DistanceMeters>
          </Trackpoint>
          <Trackpoint>
            <Time>2019-05-08T09:57:56.000Z</Time>
            <Position>
              <LatitudeDegrees>43.0117517150938510894775390625</LatitudeDegrees>
              <LongitudeDegrees>0.5450260452926158905029296875</LongitudeDegrees>
            </Position>
            <AltitudeMeters>646</AltitudeMeters>
            <DistanceMeters>42219.464952554</DistanceMeters>
          </Trackpoint>
          <Trackpoint>
            <Time>2019-05-08T09:57:57.000Z</Time>
            <Position>
              <LatitudeDegrees>43.01180292852222919464111328125</LatitudeDegrees>
              <LongitudeDegrees>0.5449784360826015472412109375</LongitudeDegrees>
            </Position>
            <AltitudeMeters>644.20001220703125</AltitudeMeters>
            <DistanceMeters>42226.357501587</DistanceMeters>
          </Trackpoint>
          <Trackpoint>
            <Time>2019-05-08T09:57:58.000Z</Time>
            <Position>
              <LatitudeDegrees>43.01185254938900470733642578125</LatitudeDegrees>
              <LongitudeDegrees>0.54492940194904804229736328125</LongitudeDegrees>
            </Position>
            <AltitudeMeters>643</AltitudeMeters>
            <DistanceMeters>42233.170327207</DistanceMeters>
          </Trackpoint>
          <Trackpoint>
            <Time>2019-05-08T09:58:00.000Z</Time>
            <Position>
              <LatitudeDegrees>43.01196553744375705718994140625</LatitudeDegrees>
              <LongitudeDegrees>0.54484784603118896484375</LongitudeDegrees>
            </Position>
            <AltitudeMeters>642.20001220703125</AltitudeMeters>
            <DistanceMeters>42247.39040111</DistanceMeters>
          </Trackpoint>
          <Trackpoint>
            <Time>2019-05-08T09:58:04.000Z</Time>
            <Position>
              <LatitudeDegrees>43.0122133903205394744873046875</LatitudeDegrees>
              <LongitudeDegrees>0.54471180774271488189697265625</LongitudeDegrees>
            </Position>
            <AltitudeMeters>641.5999755859375</AltitudeMeters>
            <DistanceMeters>42277.115693035</DistanceMeters>
          </Trackpoint>
          <Trackpoint>
            <Time>2019-05-08T09:58:07.000Z</Time>
            <Position>
              <LatitudeDegrees>43.012385554611682891845703125</LatitudeDegrees>
              <LongitudeDegrees>0.5446250550448894500732421875</LongitudeDegrees>
            </Position>
            <AltitudeMeters>641.20001220703125</AltitudeMeters>
            <DistanceMeters>42297.537152836</DistanceMeters>
          </Trackpoint>
          <Trackpoint>
            <Time>2019-05-08T09:58:08.000Z</Time>
            <Position>
              <LatitudeDegrees>43.0124442279338836669921875</LatitudeDegrees>
              <LongitudeDegrees>0.54458021186292171478271484375</LongitudeDegrees>
            </Position>
            <AltitudeMeters>641.4000244140625</AltitudeMeters>
            <DistanceMeters>42305.01835687</DistanceMeters>
          </Trackpoint>
          <Trackpoint>
            <Time>2019-05-08T09:58:10.000Z</Time>
            <Position>
              <LatitudeDegrees>43.012555204331874847412109375</LatitudeDegrees>
              <LongitudeDegrees>0.54451189935207366943359375</LongitudeDegrees>
            </Position>
            <AltitudeMeters>641</AltitudeMeters>
            <DistanceMeters>42318.563580869</DistanceMeters>
          </Trackpoint>
          <Trackpoint>
            <Time>2019-05-08T09:58:12.000Z</Time>
            <Position>
              <LatitudeDegrees>43.012658469378948211669921875</LatitudeDegrees>
              <LongitudeDegrees>0.54445230402052402496337890625</LongitudeDegrees>
            </Position>
            <AltitudeMeters>641.20001220703125</AltitudeMeters>
            <DistanceMeters>42331.038529263</DistanceMeters>
          </Trackpoint>
          <Trackpoint>
            <Time>2019-05-08T09:58:16.000Z</Time>
            <Position>
              <LatitudeDegrees>43.01284278742969036102294921875</LatitudeDegrees>
              <LongitudeDegrees>0.54434149526059627532958984375</LongitudeDegrees>
            </Position>
            <AltitudeMeters>641</AltitudeMeters>
            <DistanceMeters>42353.448318896</DistanceMeters>
          </Trackpoint>
          <Trackpoint>
            <Time>2019-05-08T09:58:18.000Z</Time>
            <Position>
              <LatitudeDegrees>43.012922666966915130615234375</LatitudeDegrees>
              <LongitudeDegrees>0.544289611279964447021484375</LongitudeDegrees>
            </Position>
            <AltitudeMeters>641</AltitudeMeters>
            <DistanceMeters>42363.290811471</DistanceMeters>
          </Trackpoint>
          <Trackpoint>
            <Time>2019-05-08T09:58:20.000Z</Time>
            <Position>
              <LatitudeDegrees>43.0130160413682460784912109375</LatitudeDegrees>
              <LongitudeDegrees>0.544253401458263397216796875</LongitudeDegrees>
            </Position>
            <AltitudeMeters>641.4000244140625</AltitudeMeters>
            <DistanceMeters>42374.093388843</DistanceMeters>
          </Trackpoint>
          <Trackpoint>
            <Time>2019-05-08T09:58:21.000Z</Time>
            <Position>
              <LatitudeDegrees>43.013060130178928375244140625</LatitudeDegrees>
              <LongitudeDegrees>0.54423705674707889556884765625</LongitudeDegrees>
            </Position>
            <AltitudeMeters>641.20001220703125</AltitudeMeters>
            <DistanceMeters>42379.177096032</DistanceMeters>
          </Trackpoint>
          <Trackpoint>
            <Time>2019-05-08T09:58:23.000Z</Time>
            <Position>
              <LatitudeDegrees>43.01314101554453372955322265625</LatitudeDegrees>
              <LongitudeDegrees>0.5441985838115215301513671875</LongitudeDegrees>
            </Position>
            <AltitudeMeters>641.4000244140625</AltitudeMeters>
            <DistanceMeters>42388.708706552</DistanceMeters>
          </Trackpoint>
          <Trackpoint>
            <Time>2019-05-08T09:58:24.000Z</Time>
            <Position>
              <LatitudeDegrees>43.01318384706974029541015625</LatitudeDegrees>
              <LongitudeDegrees>0.54417972452938556671142578125</LongitudeDegrees>
            </Position>
            <AltitudeMeters>641.4000244140625</AltitudeMeters>
            <DistanceMeters>42393.717254481</DistanceMeters>
          </Trackpoint>
          <Trackpoint>
            <Time>2019-05-08T09:58:27.000Z</Time>
            <Position>
              <LatitudeDegrees>43.01332005299627780914306640625</LatitudeDegrees>
              <LongitudeDegrees>0.54413546808063983917236328125</LongitudeDegrees>
            </Position>
            <AltitudeMeters>641.4000244140625</AltitudeMeters>
            <DistanceMeters>42409.299317741</DistanceMeters>
          </Trackpoint>
          <Trackpoint>
            <Time>2019-05-08T09:58:28.000Z</Time>
            <Position>
              <LatitudeDegrees>43.01336623728275299072265625</LatitudeDegrees>
              <LongitudeDegrees>0.5441231466829776763916015625</LongitudeDegrees>
            </Position>
            <AltitudeMeters>641.4000244140625</AltitudeMeters>
            <DistanceMeters>42414.536143321</DistanceMeters>
          </Trackpoint>
          <Trackpoint>
            <Time>2019-05-08T09:58:30.000Z</Time>
            <Position>
              <LatitudeDegrees>43.0134554207324981689453125</LatitudeDegrees>
              <LongitudeDegrees>0.544105879962444305419921875</LongitudeDegrees>
            </Position>
            <AltitudeMeters>641.5999755859375</AltitudeMeters>
            <DistanceMeters>42424.561349096</DistanceMeters>
          </Trackpoint>
          <Trackpoint>
            <Time>2019-05-08T09:58:33.000Z</Time>
            <Position>
              <LatitudeDegrees>43.01359129138290882110595703125</LatitudeDegrees>
              <LongitudeDegrees>0.54408836178481578826904296875</LongitudeDegrees>
            </Position>
            <AltitudeMeters>641.79998779296875</AltitudeMeters>
            <DistanceMeters>42439.7513627</DistanceMeters>
          </Trackpoint>
          <Trackpoint>
            <Time>2019-05-08T09:58:37.000Z</Time>
            <Position>
              <LatitudeDegrees>43.01377032883465290069580078125</LatitudeDegrees>
              <LongitudeDegrees>0.54406623356044292449951171875</LongitudeDegrees>
            </Position>
            <AltitudeMeters>642</AltitudeMeters>
            <DistanceMeters>42459.75962047</DistanceMeters>
          </Trackpoint>
          <Trackpoint>
            <Time>2019-05-08T09:58:38.000Z</Time>
            <Position>
              <LatitudeDegrees>43.01381173543632030487060546875</LatitudeDegrees>
              <LongitudeDegrees>0.54407092742621898651123046875</LongitudeDegrees>
            </Position>
            <AltitudeMeters>642</AltitudeMeters>
            <DistanceMeters>42464.38381997</DistanceMeters>
          </Trackpoint>
          <Trackpoint>
            <Time>2019-05-08T09:58:39.000Z</Time>
            <Position>
              <LatitudeDegrees>43.01385280676186084747314453125</LatitudeDegrees>
              <LongitudeDegrees>0.54407469928264617919921875</LongitudeDegrees>
            </Position>
            <AltitudeMeters>641.79998779296875</AltitudeMeters>
            <DistanceMeters>42468.966827477</DistanceMeters>
          </Trackpoint>
          <Trackpoint>
            <Time>2019-05-08T09:58:45.000Z</Time>
            <Position>
              <LatitudeDegrees>43.0141246318817138671875</LatitudeDegrees>
              <LongitudeDegrees>0.54415290243923664093017578125</LongitudeDegrees>
            </Position>
            <AltitudeMeters>641.79998779296875</AltitudeMeters>
            <DistanceMeters>42499.883678089</DistanceMeters>
          </Trackpoint>
          <Trackpoint>
            <Time>2019-05-08T09:58:47.000Z</Time>
            <Position>
              <LatitudeDegrees>43.0142109654843807220458984375</LatitudeDegrees>
              <LongitudeDegrees>0.5442170239984989166259765625</LongitudeDegrees>
            </Position>
            <AltitudeMeters>642</AltitudeMeters>
            <DistanceMeters>42510.818771699</DistanceMeters>
          </Trackpoint>
          <Trackpoint>
            <Time>2019-05-08T09:58:49.000Z</Time>
            <Position>
              <LatitudeDegrees>43.01428330130875110626220703125</LatitudeDegrees>
              <LongitudeDegrees>0.5442944727838039398193359375</LongitudeDegrees>
            </Position>
            <AltitudeMeters>641.79998779296875</AltitudeMeters>
            <DistanceMeters>42521.043752143</DistanceMeters>
          </Trackpoint>
          <Trackpoint>
            <Time>2019-05-08T09:58:50.000Z</Time>
            <Position>
              <LatitudeDegrees>43.01431112922728061676025390625</LatitudeDegrees>
              <LongitudeDegrees>0.5443393997848033905029296875</LongitudeDegrees>
            </Position>
            <AltitudeMeters>641.79998779296875</AltitudeMeters>
            <DistanceMeters>42525.834832848</DistanceMeters>
          </Trackpoint>
          <Trackpoint>
            <Time>2019-05-08T09:58:51.000Z</Time>
            <Position>
              <LatitudeDegrees>43.014336861670017242431640625</LatitudeDegrees>
              <LongitudeDegrees>0.5443893559277057647705078125</LongitudeDegrees>
            </Position>
            <AltitudeMeters>641.79998779296875</AltitudeMeters>
            <DistanceMeters>42530.808099318</DistanceMeters>
          </Trackpoint>
          <Trackpoint>
            <Time>2019-05-08T09:58:52.000Z</Time>
            <Position>
              <LatitudeDegrees>43.01435605622828006744384765625</LatitudeDegrees>
              <LongitudeDegrees>0.5444466881453990936279296875</LongitudeDegrees>
            </Position>
            <AltitudeMeters>642</AltitudeMeters>
            <DistanceMeters>42535.940421695</DistanceMeters>
          </Trackpoint>
          <Trackpoint>
            <Time>2019-05-08T09:58:55.000Z</Time>
            <Position>
              <LatitudeDegrees>43.0144097842276096343994140625</LatitudeDegrees>
              <LongitudeDegrees>0.54460988380014896392822265625</LongitudeDegrees>
            </Position>
            <AltitudeMeters>642</AltitudeMeters>
            <DistanceMeters>42550.505881385</DistanceMeters>
          </Trackpoint>
          <Trackpoint>
            <Time>2019-05-08T09:59:00.000Z</Time>
            <Position>
              <LatitudeDegrees>43.01446300931274890899658203125</LatitudeDegrees>
              <LongitudeDegrees>0.54487793706357479095458984375</LongitudeDegrees>
            </Position>
            <AltitudeMeters>642.20001220703125</AltitudeMeters>
            <DistanceMeters>42573.110457815</DistanceMeters>
          </Trackpoint>
          <Trackpoint>
            <Time>2019-05-08T09:59:04.000Z</Time>
            <Position>
              <LatitudeDegrees>43.01452201791107654571533203125</LatitudeDegrees>
              <LongitudeDegrees>0.54508212022483348846435546875</LongitudeDegrees>
            </Position>
            <AltitudeMeters>642.5999755859375</AltitudeMeters>
            <DistanceMeters>42590.978007244</DistanceMeters>
          </Trackpoint>
          <Trackpoint>
            <Time>2019-05-08T09:59:05.000Z</Time>
            <Position>
              <LatitudeDegrees>43.01454649306833744049072265625</LatitudeDegrees>
              <LongitudeDegrees>0.54513953626155853271484375</LongitudeDegrees>
            </Position>
            <AltitudeMeters>642.79998779296875</AltitudeMeters>
            <DistanceMeters>42596.387022651</DistanceMeters>
          </Trackpoint>
          <Trackpoint>
            <Time>2019-05-08T09:59:08.000Z</Time>
            <Position>
              <LatitudeDegrees>43.01464757882058620452880859375</LatitudeDegrees>
              <LongitudeDegrees>0.54530507884919643402099609375</LongitudeDegrees>
            </Position>
            <AltitudeMeters>642.79998779296875</AltitudeMeters>
            <DistanceMeters>42613.939462599</DistanceMeters>
          </Trackpoint>
          <Trackpoint>
            <Time>2019-05-08T09:59:10.000Z</Time>
            <Position>
              <LatitudeDegrees>43.014721758663654327392578125</LatitudeDegrees>
              <LongitudeDegrees>0.54542024619877338409423828125</LongitudeDegrees>
            </Position>
            <AltitudeMeters>642.79998779296875</AltitudeMeters>
            <DistanceMeters>42626.429602736</DistanceMeters>
          </Trackpoint>
          <Trackpoint>
            <Time>2019-05-08T09:59:11.000Z</Time>
            <Position>
              <LatitudeDegrees>43.014757968485355377197265625</LatitudeDegrees>
              <LongitudeDegrees>0.54548612795770168304443359375</LongitudeDegrees>
            </Position>
            <AltitudeMeters>642.79998779296875</AltitudeMeters>
            <DistanceMeters>42633.136900318</DistanceMeters>
          </Trackpoint>
          <Trackpoint>
            <Time>2019-05-08T09:59:14.000Z</Time>
            <Position>
              <LatitudeDegrees>43.0148500017821788787841796875</LatitudeDegrees>
              <LongitudeDegrees>0.54569986648857593536376953125</LongitudeDegrees>
            </Position>
            <AltitudeMeters>642.20001220703125</AltitudeMeters>
            <DistanceMeters>42653.323312322</DistanceMeters>
          </Trackpoint>
          <Trackpoint>
            <Time>2019-05-08T09:59:16.000Z</Time>
            <Position>
              <LatitudeDegrees>43.01492585800588130950927734375</LatitudeDegrees>
              <LongitudeDegrees>0.54583950899541378021240234375</LongitudeDegrees>
            </Position>
            <AltitudeMeters>641.5999755859375</AltitudeMeters>
            <DistanceMeters>42667.480698265</DistanceMeters>
          </Trackpoint>
          <Trackpoint>
            <Time>2019-05-08T09:59:17.000Z</Time>
            <Position>
              <LatitudeDegrees>43.01497883163392543792724609375</LatitudeDegrees>
              <LongitudeDegrees>0.5459121800959110260009765625</LongitudeDegrees>
            </Position>
            <AltitudeMeters>640.79998779296875</AltitudeMeters>
            <DistanceMeters>42675.831162342</DistanceMeters>
          </Trackpoint>
          <Trackpoint>
            <Time>2019-05-08T09:59:19.000Z</Time>
            <Position>
              <LatitudeDegrees>43.01506533287465572357177734375</LatitudeDegrees>
              <LongitudeDegrees>0.54604520089924335479736328125</LongitudeDegrees>
            </Position>
            <AltitudeMeters>640.4000244140625</AltitudeMeters>
            <DistanceMeters>42690.318295831</DistanceMeters>
          </Trackpoint>
          <Trackpoint>
            <Time>2019-05-08T09:59:20.000Z</Time>
            <Position>
              <LatitudeDegrees>43.0150984413921833038330078125</LatitudeDegrees>
              <LongitudeDegrees>0.54611963219940662384033203125</LongitudeDegrees>
            </Position>
            <AltitudeMeters>640.4000244140625</AltitudeMeters>
            <DistanceMeters>42697.409097311</DistanceMeters>
          </Trackpoint>
          <Trackpoint>
            <Time>2019-05-08T09:59:21.000Z</Time>
            <Position>
              <LatitudeDegrees>43.01513389684259891510009765625</LatitudeDegrees>
              <LongitudeDegrees>0.54619054310023784637451171875</LongitudeDegrees>
            </Position>
            <AltitudeMeters>640</AltitudeMeters>
            <DistanceMeters>42704.399860769</DistanceMeters>
          </Trackpoint>
          <Trackpoint>
            <Time>2019-05-08T09:59:23.000Z</Time>
            <Position>
              <LatitudeDegrees>43.0152184702455997467041015625</LatitudeDegrees>
              <LongitudeDegrees>0.5463326163589954376220703125</LongitudeDegrees>
            </Position>
            <AltitudeMeters>639.79998779296875</AltitudeMeters>
            <DistanceMeters>42719.309367528</DistanceMeters>
          </Trackpoint>
          <Trackpoint>
            <Time>2019-05-08T09:59:25.000Z</Time>
            <Position>
              <LatitudeDegrees>43.01533070392906665802001953125</LatitudeDegrees>
              <LongitudeDegrees>0.546446777880191802978515625</LongitudeDegrees>
            </Position>
            <AltitudeMeters>639.20001220703125</AltitudeMeters>
            <DistanceMeters>42734.877226138</DistanceMeters>
          </Trackpoint>
          <Trackpoint>
            <Time>2019-05-08T09:59:26.000Z</Time>
            <Position>
              <LatitudeDegrees>43.0153914727270603179931640625</LatitudeDegrees>
              <LongitudeDegrees>0.546488352119922637939453125</LongitudeDegrees>
            </Position>
            <AltitudeMeters>639</AltitudeMeters>
            <DistanceMeters>42742.440063185</DistanceMeters>
          </Trackpoint>
          <Trackpoint>
            <Time>2019-05-08T09:59:29.000Z</Time>
            <Position>
              <LatitudeDegrees>43.0155832506716251373291015625</LatitudeDegrees>
              <LongitudeDegrees>0.5466206185519695281982421875</LongitudeDegrees>
            </Position>
            <AltitudeMeters>638</AltitudeMeters>
            <DistanceMeters>42766.345657045</DistanceMeters>
          </Trackpoint>
          <Trackpoint>
            <Time>2019-05-08T09:59:30.000Z</Time>
            <Position>
              <LatitudeDegrees>43.01564787514507770538330078125</LatitudeDegrees>
              <LongitudeDegrees>0.5466705746948719024658203125</LongitudeDegrees>
            </Position>
            <AltitudeMeters>637.79998779296875</AltitudeMeters>
            <DistanceMeters>42774.608064559</DistanceMeters>
          </Trackpoint>
          <Trackpoint>
            <Time>2019-05-08T09:59:31.000Z</Time>
            <Position>
              <LatitudeDegrees>43.01570889540016651153564453125</LatitudeDegrees>
              <LongitudeDegrees>0.5467309243977069854736328125</LongitudeDegrees>
            </Position>
            <AltitudeMeters>637.79998779296875</AltitudeMeters>
            <DistanceMeters>42782.989291477</DistanceMeters>
          </Trackpoint>
          <Trackpoint>
            <Time>2019-05-08T09:59:32.000Z</Time>
            <Position>
              <LatitudeDegrees>43.01576773636043071746826171875</LatitudeDegrees>
              <LongitudeDegrees>0.54678984917700290679931640625</LongitudeDegrees>
            </Position>
            <AltitudeMeters>637.5999755859375</AltitudeMeters>
            <DistanceMeters>42791.1061528</DistanceMeters>
          </Trackpoint>
          <Trackpoint>
            <Time>2019-05-08T09:59:33.000Z</Time>
            <Position>
              <LatitudeDegrees>43.0158233083784580230712890625</LatitudeDegrees>
              <LongitudeDegrees>0.5468553118407726287841796875</LongitudeDegrees>
            </Position>
            <AltitudeMeters>637.20001220703125</AltitudeMeters>
            <DistanceMeters>42799.269605755</DistanceMeters>
          </Trackpoint>
          <Trackpoint>
            <Time>2019-05-08T09:59:34.000Z</Time>
            <Position>
              <LatitudeDegrees>43.01588105969130992889404296875</LatitudeDegrees>
              <LongitudeDegrees>0.54692395962774753570556640625</LongitudeDegrees>
            </Position>
            <AltitudeMeters>636.79998779296875</AltitudeMeters>
            <DistanceMeters>42807.786035406</DistanceMeters>
          </Trackpoint>
          <Trackpoint>
            <Time>2019-05-08T09:59:35.000Z</Time>
            <Position>
              <LatitudeDegrees>43.01593445241451263427734375</LatitudeDegrees>
              <LongitudeDegrees>0.54699294269084930419921875</LongitudeDegrees>
            </Position>
            <AltitudeMeters>636.5999755859375</AltitudeMeters>
            <DistanceMeters>42815.96109478</DistanceMeters>
          </Trackpoint>
          <Trackpoint>
            <Time>2019-05-08T09:59:36.000Z</Time>
            <Position>
              <LatitudeDegrees>43.01598482765257358551025390625</LatitudeDegrees>
              <LongitudeDegrees>0.54705203510820865631103515625</LongitudeDegrees>
            </Position>
            <AltitudeMeters>636.5999755859375</AltitudeMeters>
            <DistanceMeters>42823.347550078</DistanceMeters>
          </Trackpoint>
          <Trackpoint>
            <Time>2019-05-08T09:59:39.000Z</Time>
            <Position>
              <LatitudeDegrees>43.01614458672702312469482421875</LatitudeDegrees>
              <LongitudeDegrees>0.5471972934901714324951171875</LongitudeDegrees>
            </Position>
            <AltitudeMeters>635.20001220703125</AltitudeMeters>
            <DistanceMeters>42844.699822313</DistanceMeters>
          </Trackpoint>
          <Trackpoint>
            <Time>2019-05-08T09:59:40.000Z</Time>
            <Position>
              <LatitudeDegrees>43.01619839854538440704345703125</LatitudeDegrees>
              <LongitudeDegrees>0.54721212945878505706787109375</LongitudeDegrees>
            </Position>
            <AltitudeMeters>635</AltitudeMeters>
            <DistanceMeters>42850.809677959</DistanceMeters>
          </Trackpoint>
          <Trackpoint>
            <Time>2019-05-08T09:59:41.000Z</Time>
            <Position>
              <LatitudeDegrees>43.01625304855406284332275390625</LatitudeDegrees>
              <LongitudeDegrees>0.5472013168036937713623046875</LongitudeDegrees>
            </Position>
            <AltitudeMeters>634.79998779296875</AltitudeMeters>
            <DistanceMeters>42856.956371366</DistanceMeters>
          </Trackpoint>
          <Trackpoint>
            <Time>2019-05-08T09:59:43.000Z</Time>
            <Position>
              <LatitudeDegrees>43.0163423158228397369384765625</LatitudeDegrees>
              <LongitudeDegrees>0.547138117253780364990234375</LongitudeDegrees>
            </Position>
            <AltitudeMeters>634.20001220703125</AltitudeMeters>
            <DistanceMeters>42868.144531164</DistanceMeters>
          </Trackpoint>
          <Trackpoint>
            <Time>2019-05-08T09:59:45.000Z</Time>
            <Position>
              <LatitudeDegrees>43.016435019671916961669921875</LatitudeDegrees>
              <LongitudeDegrees>0.54708279669284820556640625</LongitudeDegrees>
            </Position>
            <AltitudeMeters>634.20001220703125</AltitudeMeters>
            <DistanceMeters>42879.401888439</DistanceMeters>
          </Trackpoint>
          <Trackpoint>
            <Time>2019-05-08T09:59:48.000Z</Time>
            <Position>
              <LatitudeDegrees>43.0165706388652324676513671875</LatitudeDegrees>
              <LongitudeDegrees>0.547006689012050628662109375</LongitudeDegrees>
            </Position>
            <AltitudeMeters>634</AltitudeMeters>
            <DistanceMeters>42895.717729011</DistanceMeters>
          </Trackpoint>
          <Trackpoint>
            <Time>2019-05-08T09:59:50.000Z</Time>
            <Position>
              <LatitudeDegrees>43.01666409708559513092041015625</LatitudeDegrees>
              <LongitudeDegrees>0.54693921469151973724365234375</LongitudeDegrees>
            </Position>
            <AltitudeMeters>634.20001220703125</AltitudeMeters>
            <DistanceMeters>42907.480332093</DistanceMeters>
          </Trackpoint>
          <Trackpoint>
            <Time>2019-05-08T09:59:51.000Z</Time>
            <Position>
              <LatitudeDegrees>43.01670969463884830474853515625</LatitudeDegrees>
              <LongitudeDegrees>0.5468921922147274017333984375</LongitudeDegrees>
            </Position>
            <AltitudeMeters>634</AltitudeMeters>
            <DistanceMeters>42913.835765354</DistanceMeters>
          </Trackpoint>
          <Trackpoint>
            <Time>2019-05-08T09:59:53.000Z</Time>
            <Position>
              <LatitudeDegrees>43.0167885683476924896240234375</LatitudeDegrees>
              <LongitudeDegrees>0.5467989854514598846435546875</LongitudeDegrees>
            </Position>
            <AltitudeMeters>633.79998779296875</AltitudeMeters>
            <DistanceMeters>42925.437589326</DistanceMeters>
          </Trackpoint>
          <Trackpoint>
            <Time>2019-05-08T09:59:57.000Z</Time>
            <Position>
              <LatitudeDegrees>43.0169706232845783233642578125</LatitudeDegrees>
              <LongitudeDegrees>0.54653956554830074310302734375</LongitudeDegrees>
            </Position>
            <AltitudeMeters>633.79998779296875</AltitudeMeters>
            <DistanceMeters>42954.699954727</DistanceMeters>
          </Trackpoint>
          <Trackpoint>
            <Time>2019-05-08T09:59:58.000Z</Time>
            <Position>
              <LatitudeDegrees>43.017018735408782958984375</LatitudeDegrees>
              <LongitudeDegrees>0.54646999575197696685791015625</LongitudeDegrees>
            </Position>
            <AltitudeMeters>633.79998779296875</AltitudeMeters>
            <DistanceMeters>42962.492724715</DistanceMeters>
          </Trackpoint>
          <Trackpoint>
            <Time>2019-05-08T09:59:59.000Z</Time>
            <Position>
              <LatitudeDegrees>43.0170710384845733642578125</LatitudeDegrees>
              <LongitudeDegrees>0.54639657028019428253173828125</LongitudeDegrees>
            </Position>
            <AltitudeMeters>633.5999755859375</AltitudeMeters>
            <DistanceMeters>42970.835615655</DistanceMeters>
          </Trackpoint>
          <Trackpoint>
            <Time>2019-05-08T10:00:01.000Z</Time>
            <Position>
              <LatitudeDegrees>43.017181344330310821533203125</LatitudeDegrees>
              <LongitudeDegrees>0.54625508375465869903564453125</LongitudeDegrees>
            </Position>
            <AltitudeMeters>633.4000244140625</AltitudeMeters>
            <DistanceMeters>42987.667419431</DistanceMeters>
          </Trackpoint>
          <Trackpoint>
            <Time>2019-05-08T10:00:03.000Z</Time>
            <Position>
              <LatitudeDegrees>43.01729978062212467193603515625</LatitudeDegrees>
              <LongitudeDegrees>0.54611359722912311553955078125</LongitudeDegrees>
            </Position>
            <AltitudeMeters>632.79998779296875</AltitudeMeters>
            <DistanceMeters>43005.169885351</DistanceMeters>
          </Trackpoint>
          <Trackpoint>
            <Time>2019-05-08T10:00:04.000Z</Time>
            <Position>
              <LatitudeDegrees>43.01736616529524326324462890625</LatitudeDegrees>
              <LongitudeDegrees>0.546052493155002593994140625</LongitudeDegrees>
            </Position>
            <AltitudeMeters>632.79998779296875</AltitudeMeters>
            <DistanceMeters>43014.076073732</DistanceMeters>
          </Trackpoint>
          <Trackpoint>
            <Time>2019-05-08T10:00:05.000Z</Time>
            <Position>
              <LatitudeDegrees>43.01743791438639163970947265625</LatitudeDegrees>
              <LongitudeDegrees>0.54600044153630733489990234375</LongitudeDegrees>
            </Position>
            <AltitudeMeters>632.4000244140625</AltitudeMeters>
            <DistanceMeters>43023.115107512</DistanceMeters>
          </Trackpoint>
          <Trackpoint>
            <Time>2019-05-08T10:00:07.000Z</Time>
            <Position>
              <LatitudeDegrees>43.01758669316768646240234375</LatitudeDegrees>
              <LongitudeDegrees>0.5459208972752094268798828125</LongitudeDegrees>
            </Position>
            <AltitudeMeters>631.79998779296875</AltitudeMeters>
            <DistanceMeters>43040.894501652</DistanceMeters>
          </Trackpoint>
          <Trackpoint>
            <Time>2019-05-08T10:00:08.000Z</Time>
            <Position>
              <LatitudeDegrees>43.017666153609752655029296875</LatitudeDegrees>
              <LongitudeDegrees>0.545911006629467010498046875</LongitudeDegrees>
            </Position>
            <AltitudeMeters>631.4000244140625</AltitudeMeters>
            <DistanceMeters>43049.775306101</DistanceMeters>
          </Trackpoint>
          <Trackpoint>
            <Time>2019-05-08T10:00:09.000Z</Time>
            <Position>
              <LatitudeDegrees>43.01774603314697742462158203125</LatitudeDegrees>
              <LongitudeDegrees>0.54591125808656215667724609375</LongitudeDegrees>
            </Position>
            <AltitudeMeters>631</AltitudeMeters>
            <DistanceMeters>43058.66627282</DistanceMeters>
          </Trackpoint>
          <Trackpoint>
            <Time>2019-05-08T10:00:13.000Z</Time>
            <Position>
              <LatitudeDegrees>43.0180673114955425262451171875</LatitudeDegrees>
              <LongitudeDegrees>0.5459011159837245941162109375</LongitudeDegrees>
            </Position>
            <AltitudeMeters>628.4000244140625</AltitudeMeters>
            <DistanceMeters>43094.434585619</DistanceMeters>
          </Trackpoint>
          <Trackpoint>
            <Time>2019-05-08T10:00:14.000Z</Time>
            <Position>
              <LatitudeDegrees>43.01814031787216663360595703125</LatitudeDegrees>
              <LongitudeDegrees>0.5458796583116054534912109375</LongitudeDegrees>
            </Position>
            <AltitudeMeters>628.20001220703125</AltitudeMeters>
            <DistanceMeters>43102.746028622</DistanceMeters>
          </Trackpoint>
          <Trackpoint>
            <Time>2019-05-08T10:00:15.000Z</Time>
            <Position>
              <LatitudeDegrees>43.018209300935268402099609375</LatitudeDegrees>
              <LongitudeDegrees>0.5458416044712066650390625</LongitudeDegrees>
            </Position>
            <AltitudeMeters>628</AltitudeMeters>
            <DistanceMeters>43111.025358926</DistanceMeters>
          </Trackpoint>
          <Trackpoint>
            <Time>2019-05-08T10:00:18.000Z</Time>
            <Position>
              <LatitudeDegrees>43.01841859705746173858642578125</LatitudeDegrees>
              <LongitudeDegrees>0.54570774547755718231201171875</LongitudeDegrees>
            </Position>
            <AltitudeMeters>626.79998779296875</AltitudeMeters>
            <DistanceMeters>43136.741631566</DistanceMeters>
          </Trackpoint>
          <Trackpoint>
            <Time>2019-05-08T10:00:20.000Z</Time>
            <Position>
              <LatitudeDegrees>43.0185645259916782379150390625</LatitudeDegrees>
              <LongitudeDegrees>0.54567589424550533294677734375</LongitudeDegrees>
            </Position>
            <AltitudeMeters>626.5999755859375</AltitudeMeters>
            <DistanceMeters>43153.189490398</DistanceMeters>
          </Trackpoint>
          <Trackpoint>
            <Time>2019-05-08T10:00:21.000Z</Time>
            <Position>
              <LatitudeDegrees>43.01863032393157482147216796875</LatitudeDegrees>
              <LongitudeDegrees>0.54568997584283351898193359375</LongitudeDegrees>
            </Position>
            <AltitudeMeters>626.4000244140625</AltitudeMeters>
            <DistanceMeters>43160.601574119</DistanceMeters>
          </Trackpoint>
          <Trackpoint>
            <Time>2019-05-08T10:00:22.000Z</Time>
            <Position>
              <LatitudeDegrees>43.01868648268282413482666015625</LatitudeDegrees>
              <LongitudeDegrees>0.54574437439441680908203125</LongitudeDegrees>
            </Position>
            <AltitudeMeters>626.4000244140625</AltitudeMeters>
            <DistanceMeters>43168.260515076</DistanceMeters>
          </Trackpoint>
          <Trackpoint>
            <Time>2019-05-08T10:00:23.000Z</Time>
            <Position>
              <LatitudeDegrees>43.01872805692255496978759765625</LatitudeDegrees>
              <LongitudeDegrees>0.5458273552358150482177734375</LongitudeDegrees>
            </Position>
            <AltitudeMeters>626</AltitudeMeters>
            <DistanceMeters>43176.446061314</DistanceMeters>
          </Trackpoint>
          <Trackpoint>
            <Time>2019-05-08T10:00:24.000Z</Time>
            <Position>
              <LatitudeDegrees>43.01874649710953235626220703125</LatitudeDegrees>
              <LongitudeDegrees>0.545923076570034027099609375</LongitudeDegrees>
            </Position>
            <AltitudeMeters>625.4000244140625</AltitudeMeters>
            <DistanceMeters>43184.500941776</DistanceMeters>
          </Trackpoint>
          <Trackpoint>
            <Time>2019-05-08T10:00:25.000Z</Time>
            <Position>
              <LatitudeDegrees>43.0187599919736385345458984375</LatitudeDegrees>
              <LongitudeDegrees>0.5460238270461559295654296875</LongitudeDegrees>
            </Position>
            <AltitudeMeters>625</AltitudeMeters>
            <DistanceMeters>43192.836252697</DistanceMeters>
          </Trackpoint>
          <Trackpoint>
            <Time>2019-05-08T10:00:26.000Z</Time>
            <Position>
              <LatitudeDegrees>43.01878421567380428314208984375</LatitudeDegrees>
              <LongitudeDegrees>0.54612264968454837799072265625</LongitudeDegrees>
            </Position>
            <AltitudeMeters>624.5999755859375</AltitudeMeters>
            <DistanceMeters>43201.318684489</DistanceMeters>
          </Trackpoint>
          <Trackpoint>
            <Time>2019-05-08T10:00:29.000Z</Time>
            <Position>
              <LatitudeDegrees>43.018881864845752716064453125</LatitudeDegrees>
              <LongitudeDegrees>0.54639506153762340545654296875</LongitudeDegrees>
            </Position>
            <AltitudeMeters>622.79998779296875</AltitudeMeters>
            <DistanceMeters>43226.007531972</DistanceMeters>
          </Trackpoint>
          <Trackpoint>
            <Time>2019-05-08T10:00:30.000Z</Time>
            <Position>
              <LatitudeDegrees>43.01892586983740329742431640625</LatitudeDegrees>
              <LongitudeDegrees>0.546458177268505096435546875</LongitudeDegrees>
            </Position>
            <AltitudeMeters>622.20001220703125</AltitudeMeters>
            <DistanceMeters>43233.104698055</DistanceMeters>
          </Trackpoint>
          <Trackpoint>
            <Time>2019-05-08T10:00:32.000Z</Time>
            <Position>
              <LatitudeDegrees>43.019031397998332977294921875</LatitudeDegrees>
              <LongitudeDegrees>0.546520538628101348876953125</LongitudeDegrees>
            </Position>
            <AltitudeMeters>621.79998779296875</AltitudeMeters>
            <DistanceMeters>43245.899472607</DistanceMeters>
          </Trackpoint>
          <Trackpoint>
            <Time>2019-05-08T10:00:33.000Z</Time>
            <Position>
              <LatitudeDegrees>43.01908671855926513671875</LatitudeDegrees>
              <LongitudeDegrees>0.54651425220072269439697265625</LongitudeDegrees>
            </Position>
            <AltitudeMeters>621.4000244140625</AltitudeMeters>
            <DistanceMeters>43252.077670818</DistanceMeters>
          </Trackpoint>
          <Trackpoint>
            <Time>2019-05-08T10:00:34.000Z</Time>
            <Position>
              <LatitudeDegrees>43.01913944073021411895751953125</LatitudeDegrees>
              <LongitudeDegrees>0.54648625664412975311279296875</LongitudeDegrees>
            </Position>
            <AltitudeMeters>621</AltitudeMeters>
            <DistanceMeters>43258.372428592</DistanceMeters>
          </Trackpoint>
          <Trackpoint>
            <Time>2019-05-08T10:00:35.000Z</Time>
            <Position>
              <LatitudeDegrees>43.0191873013973236083984375</LatitudeDegrees>
              <LongitudeDegrees>0.54644937627017498016357421875</LongitudeDegrees>
            </Position>
            <AltitudeMeters>620.5999755859375</AltitudeMeters>
            <DistanceMeters>43264.486716488</DistanceMeters>
          </Trackpoint>
          <Trackpoint>
            <Time>2019-05-08T10:00:36.000Z</Time>
            <Position>
              <LatitudeDegrees>43.01924002356827259063720703125</LatitudeDegrees>
              <LongitudeDegrees>0.54640696384012699127197265625</LongitudeDegrees>
            </Position>
            <AltitudeMeters>620</AltitudeMeters>
            <DistanceMeters>43271.294238234</DistanceMeters>
          </Trackpoint>
          <Trackpoint>
            <Time>2019-05-08T10:00:37.000Z</Time>
            <Position>
              <LatitudeDegrees>43.019301630556583404541015625</LatitudeDegrees>
              <LongitudeDegrees>0.5463651381433010101318359375</LongitudeDegrees>
            </Position>
            <AltitudeMeters>619.79998779296875</AltitudeMeters>
            <DistanceMeters>43278.949641301</DistanceMeters>
          </Trackpoint>
          <Trackpoint>
            <Time>2019-05-08T10:00:38.000Z</Time>
            <Position>
              <LatitudeDegrees>43.01935887895524501800537109375</LatitudeDegrees>
              <LongitudeDegrees>0.54631308652460575103759765625</LongitudeDegrees>
            </Position>
            <AltitudeMeters>619</AltitudeMeters>
            <DistanceMeters>43286.600324637</DistanceMeters>
          </Trackpoint>
          <Trackpoint>
            <Time>2019-05-08T10:00:39.000Z</Time>
            <Position>
              <LatitudeDegrees>43.01941352896392345428466796875</LatitudeDegrees>
              <LongitudeDegrees>0.54623949341475963592529296875</LongitudeDegrees>
            </Position>
            <AltitudeMeters>618.20001220703125</AltitudeMeters>
            <DistanceMeters>43295.136876453</DistanceMeters>
          </Trackpoint>
          <Trackpoint>
            <Time>2019-05-08T10:00:40.000Z</Time>
            <Position>
              <LatitudeDegrees>43.0194741301238536834716796875</LatitudeDegrees>
              <LongitudeDegrees>0.5461607873439788818359375</LongitudeDegrees>
            </Position>
            <AltitudeMeters>617.5999755859375</AltitudeMeters>
            <DistanceMeters>43304.438822082</DistanceMeters>
          </Trackpoint>
          <Trackpoint>
            <Time>2019-05-08T10:00:42.000Z</Time>
            <Position>
              <LatitudeDegrees>43.01960782147943973541259765625</LatitudeDegrees>
              <LongitudeDegrees>0.54600848816335201263427734375</LongitudeDegrees>
            </Position>
            <AltitudeMeters>617</AltitudeMeters>
            <DistanceMeters>43323.804231314</DistanceMeters>
          </Trackpoint>
          <Trackpoint>
            <Time>2019-05-08T10:00:43.000Z</Time>
            <Position>
              <LatitudeDegrees>43.019683845341205596923828125</LatitudeDegrees>
              <LongitudeDegrees>0.5459369905292987823486328125</LongitudeDegrees>
            </Position>
            <AltitudeMeters>616.79998779296875</AltitudeMeters>
            <DistanceMeters>43334.073273757</DistanceMeters>
          </Trackpoint>
          <Trackpoint>
            <Time>2019-05-08T10:00:44.000Z</Time>
            <Position>
              <LatitudeDegrees>43.01976372487843036651611328125</LatitudeDegrees>
              <LongitudeDegrees>0.5458669178187847137451171875</LongitudeDegrees>
            </Position>
            <AltitudeMeters>616.20001220703125</AltitudeMeters>
            <DistanceMeters>43344.636210117</DistanceMeters>
          </Trackpoint>
          <Trackpoint>
            <Time>2019-05-08T10:00:47.000Z</Time>
            <Position>
              <LatitudeDegrees>43.02001417614519596099853515625</LatitudeDegrees>
              <LongitudeDegrees>0.54568544961512088775634765625</LongitudeDegrees>
            </Position>
            <AltitudeMeters>614</AltitudeMeters>
            <DistanceMeters>43376.181644401</DistanceMeters>
          </Trackpoint>
          <Trackpoint>
            <Time>2019-05-08T10:00:48.000Z</Time>
            <Position>
              <LatitudeDegrees>43.02010252140462398529052734375</LatitudeDegrees>
              <LongitudeDegrees>0.54563079960644245147705078125</LongitudeDegrees>
            </Position>
            <AltitudeMeters>613.5999755859375</AltitudeMeters>
            <DistanceMeters>43386.973349358</DistanceMeters>
          </Trackpoint>
          <Trackpoint>
            <Time>2019-05-08T10:00:49.000Z</Time>
            <Position>
              <LatitudeDegrees>43.02018986083567142486572265625</LatitudeDegrees>
              <LongitudeDegrees>0.5455862917006015777587890625</LongitudeDegrees>
            </Position>
            <AltitudeMeters>613</AltitudeMeters>
            <DistanceMeters>43397.347377075</DistanceMeters>
          </Trackpoint>
          <Trackpoint>
            <Time>2019-05-08T10:00:50.000Z</Time>
            <Position>
              <LatitudeDegrees>43.02027569152414798736572265625</LatitudeDegrees>
              <LongitudeDegrees>0.54555368609726428985595703125</LongitudeDegrees>
            </Position>
            <AltitudeMeters>612.5999755859375</AltitudeMeters>
            <DistanceMeters>43407.261628539</DistanceMeters>
          </Trackpoint>
          <Trackpoint>
            <Time>2019-05-08T10:00:51.000Z</Time>
            <Position>
              <LatitudeDegrees>43.0203693173825740814208984375</LatitudeDegrees>
              <LongitudeDegrees>0.545538850128650665283203125</LongitudeDegrees>
            </Position>
            <AltitudeMeters>612</AltitudeMeters>
            <DistanceMeters>43417.751648155</DistanceMeters>
          </Trackpoint>
          <Trackpoint>
            <Time>2019-05-08T10:00:52.000Z</Time>
            <Position>
              <LatitudeDegrees>43.02046881057322025299072265625</LatitudeDegrees>
              <LongitudeDegrees>0.54553474299609661102294921875</LongitudeDegrees>
            </Position>
            <AltitudeMeters>611.4000244140625</AltitudeMeters>
            <DistanceMeters>43428.83031229</DistanceMeters>
          </Trackpoint>
          <Trackpoint>
            <Time>2019-05-08T10:00:53.000Z</Time>
            <Position>
              <LatitudeDegrees>43.02056537009775638580322265625</LatitudeDegrees>
              <LongitudeDegrees>0.5455396883189678192138671875</LongitudeDegrees>
            </Position>
            <AltitudeMeters>611</AltitudeMeters>
            <DistanceMeters>43439.584716927</DistanceMeters>
          </Trackpoint>
          <Trackpoint>
            <Time>2019-05-08T10:00:55.000Z</Time>
            <Position>
              <LatitudeDegrees>43.020758740603923797607421875</LatitudeDegrees>
              <LongitudeDegrees>0.54554932750761508941650390625</LongitudeDegrees>
            </Position>
            <AltitudeMeters>610.20001220703125</AltitudeMeters>
            <DistanceMeters>43461.121636545</DistanceMeters>
          </Trackpoint>
          <Trackpoint>
            <Time>2019-05-08T10:00:57.000Z</Time>
            <Position>
              <LatitudeDegrees>43.02095278166234493255615234375</LatitudeDegrees>
              <LongitudeDegrees>0.5455862917006015777587890625</LongitudeDegrees>
            </Position>
            <AltitudeMeters>606.5999755859375</AltitudeMeters>
            <DistanceMeters>43482.927110059</DistanceMeters>
          </Trackpoint>
          <Trackpoint>
            <Time>2019-05-08T10:01:00.000Z</Time>
            <Position>
              <LatitudeDegrees>43.02126928232610225677490234375</LatitudeDegrees>
              <LongitudeDegrees>0.54570288397371768951416015625</LongitudeDegrees>
            </Position>
            <AltitudeMeters>602.79998779296875</AltitudeMeters>
            <DistanceMeters>43519.409448625</DistanceMeters>
          </Trackpoint>
          <Trackpoint>
            <Time>2019-05-08T10:01:01.000Z</Time>
            <Position>
              <LatitudeDegrees>43.02137724123895168304443359375</LatitudeDegrees>
              <LongitudeDegrees>0.545717887580394744873046875</LongitudeDegrees>
            </Position>
            <AltitudeMeters>601.5999755859375</AltitudeMeters>
            <DistanceMeters>43531.487190751</DistanceMeters>
          </Trackpoint>
          <Trackpoint>
            <Time>2019-05-08T10:01:03.000Z</Time>
            <Position>
              <LatitudeDegrees>43.0215756408870220184326171875</LatitudeDegrees>
              <LongitudeDegrees>0.54574144072830677032470703125</LongitudeDegrees>
            </Position>
            <AltitudeMeters>600.5999755859375</AltitudeMeters>
            <DistanceMeters>43553.652668395</DistanceMeters>
          </Trackpoint>
          <Trackpoint>
            <Time>2019-05-08T10:01:05.000Z</Time>
            <Position>
              <LatitudeDegrees>43.021763898432254791259765625</LatitudeDegrees>
              <LongitudeDegrees>0.54579273797571659088134765625</LongitudeDegrees>
            </Position>
            <AltitudeMeters>600</AltitudeMeters>
            <DistanceMeters>43575.018046798</DistanceMeters>
          </Trackpoint>
          <Trackpoint>
            <Time>2019-05-08T10:01:06.000Z</Time>
            <Position>
              <LatitudeDegrees>43.02185735665261745452880859375</LatitudeDegrees>
              <LongitudeDegrees>0.54581956006586551666259765625</LongitudeDegrees>
            </Position>
            <AltitudeMeters>599</AltitudeMeters>
            <DistanceMeters>43585.646605323</DistanceMeters>
          </Trackpoint>
          <Trackpoint>
            <Time>2019-05-08T10:01:07.000Z</Time>
            <Position>
              <LatitudeDegrees>43.02195542491972446441650390625</LatitudeDegrees>
              <LongitudeDegrees>0.5458628945052623748779296875</LongitudeDegrees>
            </Position>
            <AltitudeMeters>598.20001220703125</AltitudeMeters>
            <DistanceMeters>43597.117317762</DistanceMeters>
          </Trackpoint>
          <Trackpoint>
            <Time>2019-05-08T10:01:10.000Z</Time>
            <Position>
              <LatitudeDegrees>43.02225717343389987945556640625</LatitudeDegrees>
              <LongitudeDegrees>0.5460084043443202972412109375</LongitudeDegrees>
            </Position>
            <AltitudeMeters>594.4000244140625</AltitudeMeters>
            <DistanceMeters>43632.728634441</DistanceMeters>
          </Trackpoint>
          <Trackpoint>
            <Time>2019-05-08T10:01:11.000Z</Time>
            <Position>
              <LatitudeDegrees>43.0223598517477512359619140625</LatitudeDegrees>
              <LongitudeDegrees>0.54605014622211456298828125</LongitudeDegrees>
            </Position>
            <AltitudeMeters>593.4000244140625</AltitudeMeters>
            <DistanceMeters>43644.65060589</DistanceMeters>
          </Trackpoint>
          <Trackpoint>
            <Time>2019-05-08T10:01:12.000Z</Time>
            <Position>
              <LatitudeDegrees>43.0224678106606006622314453125</LatitudeDegrees>
              <LongitudeDegrees>0.54607956670224666595458984375</LongitudeDegrees>
            </Position>
            <AltitudeMeters>592.79998779296875</AltitudeMeters>
            <DistanceMeters>43656.902420479</DistanceMeters>
          </Trackpoint>
          <Trackpoint>
            <Time>2019-05-08T10:01:14.000Z</Time>
            <Position>
              <LatitudeDegrees>43.02270392887294292449951171875</LatitudeDegrees>
              <LongitudeDegrees>0.54610957391560077667236328125</LongitudeDegrees>
            </Position>
            <AltitudeMeters>591.79998779296875</AltitudeMeters>
            <DistanceMeters>43683.295908638</DistanceMeters>
          </Trackpoint>
          <Trackpoint>
            <Time>2019-05-08T10:01:15.000Z</Time>
            <Position>
              <LatitudeDegrees>43.0228243768215179443359375</LatitudeDegrees>
              <LongitudeDegrees>0.54613505490124225616455078125</LongitudeDegrees>
            </Position>
            <AltitudeMeters>590.79998779296875</AltitudeMeters>
            <DistanceMeters>43696.861450568</DistanceMeters>
          </Trackpoint>
          <Trackpoint>
            <Time>2019-05-08T10:01:16.000Z</Time>
            <Position>
              <LatitudeDegrees>43.0229423940181732177734375</LatitudeDegrees>
              <LongitudeDegrees>0.54616606794297695159912109375</LongitudeDegrees>
            </Position>
            <AltitudeMeters>590</AltitudeMeters>
            <DistanceMeters>43710.236945868</DistanceMeters>
          </Trackpoint>
          <Trackpoint>
            <Time>2019-05-08T10:01:18.000Z</Time>
            <Position>
              <LatitudeDegrees>43.02319024689495563507080078125</LatitudeDegrees>
              <LongitudeDegrees>0.54623831994831562042236328125</LongitudeDegrees>
            </Position>
            <AltitudeMeters>588.20001220703125</AltitudeMeters>
            <DistanceMeters>43738.443077382</DistanceMeters>
          </Trackpoint>
          <Trackpoint>
            <Time>2019-05-08T10:01:19.000Z</Time>
            <Position>
              <LatitudeDegrees>43.02331530489027500152587890625</LatitudeDegrees>
              <LongitudeDegrees>0.5462801456451416015625</LongitudeDegrees>
            </Position>
            <AltitudeMeters>587</AltitudeMeters>
            <DistanceMeters>43752.772274086</DistanceMeters>
          </Trackpoint>
          <Trackpoint>
            <Time>2019-05-08T10:01:20.000Z</Time>
            <Position>
              <LatitudeDegrees>43.02343231625854969024658203125</LatitudeDegrees>
              <LongitudeDegrees>0.54633043706417083740234375</LongitudeDegrees>
            </Position>
            <AltitudeMeters>585.79998779296875</AltitudeMeters>
            <DistanceMeters>43766.423747181</DistanceMeters>
          </Trackpoint>
          <Trackpoint>
            <Time>2019-05-08T10:01:22.000Z</Time>
            <Position>
              <LatitudeDegrees>43.02364655770361423492431640625</LatitudeDegrees>
              <LongitudeDegrees>0.54643596522510051727294921875</LongitudeDegrees>
            </Position>
            <AltitudeMeters>584</AltitudeMeters>
            <DistanceMeters>43791.768282248</DistanceMeters>
          </Trackpoint>
          <Trackpoint>
            <Time>2019-05-08T10:01:24.000Z</Time>
            <Position>
              <LatitudeDegrees>43.02385057322680950164794921875</LatitudeDegrees>
              <LongitudeDegrees>0.546540319919586181640625</LongitudeDegrees>
            </Position>
            <AltitudeMeters>582.5999755859375</AltitudeMeters>
            <DistanceMeters>43816.011457688</DistanceMeters>
          </Trackpoint>
          <Trackpoint>
            <Time>2019-05-08T10:01:25.000Z</Time>
            <Position>
              <LatitudeDegrees>43.02395048551261425018310546875</LatitudeDegrees>
              <LongitudeDegrees>0.5465911142528057098388671875</LongitudeDegrees>
            </Position>
            <AltitudeMeters>580.5999755859375</AltitudeMeters>
            <DistanceMeters>43827.874963555</DistanceMeters>
          </Trackpoint>
          <Trackpoint>
            <Time>2019-05-08T10:01:27.000Z</Time>
            <Position>
              <LatitudeDegrees>43.02415953017771244049072265625</LatitudeDegrees>
              <LongitudeDegrees>0.5467262305319309234619140625</LongitudeDegrees>
            </Position>
            <AltitudeMeters>578.4000244140625</AltitudeMeters>
            <DistanceMeters>43853.60878733</DistanceMeters>
          </Trackpoint>
          <Trackpoint>
            <Time>2019-05-08T10:01:28.000Z</Time>
            <Position>
              <LatitudeDegrees>43.024259023368358612060546875</LatitudeDegrees>
              <LongitudeDegrees>0.54681533016264438629150390625</LongitudeDegrees>
            </Position>
            <AltitudeMeters>577.79998779296875</AltitudeMeters>
            <DistanceMeters>43866.844818197</DistanceMeters>
          </Trackpoint>
          <Trackpoint>
            <Time>2019-05-08T10:01:30.000Z</Time>
            <Position>
              <LatitudeDegrees>43.02445306442677974700927734375</LatitudeDegrees>
              <LongitudeDegrees>0.5469978041946887969970703125</LongitudeDegrees>
            </Position>
            <AltitudeMeters>575.4000244140625</AltitudeMeters>
            <DistanceMeters>43893.053592585</DistanceMeters>
          </Trackpoint>
          <Trackpoint>
            <Time>2019-05-08T10:01:31.000Z</Time>
            <Position>
              <LatitudeDegrees>43.0245357938110828399658203125</LatitudeDegrees>
              <LongitudeDegrees>0.5470812879502773284912109375</LongitudeDegrees>
            </Position>
            <AltitudeMeters>574.5999755859375</AltitudeMeters>
            <DistanceMeters>43904.496324271</DistanceMeters>
          </Trackpoint>
          <Trackpoint>
            <Time>2019-05-08T10:01:32.000Z</Time>
            <Position>
              <LatitudeDegrees>43.02461567334830760955810546875</LatitudeDegrees>
              <LongitudeDegrees>0.54716804064810276031494140625</LongitudeDegrees>
            </Position>
            <AltitudeMeters>574.20001220703125</AltitudeMeters>
            <DistanceMeters>43915.84833823</DistanceMeters>
          </Trackpoint>
          <Trackpoint>
            <Time>2019-05-08T10:01:33.000Z</Time>
            <Position>
              <LatitudeDegrees>43.0246994085609912872314453125</LatitudeDegrees>
              <LongitudeDegrees>0.54725219495594501495361328125</LongitudeDegrees>
            </Position>
            <AltitudeMeters>573.4000244140625</AltitudeMeters>
            <DistanceMeters>43927.41352272</DistanceMeters>
          </Trackpoint>
          <Trackpoint>
            <Time>2019-05-08T10:01:34.000Z</Time>
            <Position>
              <LatitudeDegrees>43.02477207966148853302001953125</LatitudeDegrees>
              <LongitudeDegrees>0.547333918511867523193359375</LongitudeDegrees>
            </Position>
            <AltitudeMeters>571.5999755859375</AltitudeMeters>
            <DistanceMeters>43937.884587049</DistanceMeters>
          </Trackpoint>
          <Trackpoint>
            <Time>2019-05-08T10:01:36.000Z</Time>
            <Position>
              <LatitudeDegrees>43.02489780820906162261962890625</LatitudeDegrees>
              <LongitudeDegrees>0.54749057628214359283447265625</LongitudeDegrees>
            </Position>
            <AltitudeMeters>568.79998779296875</AltitudeMeters>
            <DistanceMeters>43956.813755898</DistanceMeters>
          </Trackpoint>
          <Trackpoint>
            <Time>2019-05-08T10:01:37.000Z</Time>
            <Position>
              <LatitudeDegrees>43.0249481834471225738525390625</LatitudeDegrees>
              <LongitudeDegrees>0.54757942445576190948486328125</LongitudeDegrees>
            </Position>
            <AltitudeMeters>567</AltitudeMeters>
            <DistanceMeters>43965.962020678</DistanceMeters>
          </Trackpoint>
          <Trackpoint>
            <Time>2019-05-08T10:01:39.000Z</Time>
            <Position>
              <LatitudeDegrees>43.0250259675085544586181640625</LatitudeDegrees>
              <LongitudeDegrees>0.54779383353888988494873046875</LongitudeDegrees>
            </Position>
            <AltitudeMeters>564.5999755859375</AltitudeMeters>
            <DistanceMeters>43985.438092949</DistanceMeters>
          </Trackpoint>
          <Trackpoint>
            <Time>2019-05-08T10:01:41.000Z</Time>
            <Position>
              <LatitudeDegrees>43.02510467357933521270751953125</LatitudeDegrees>
              <LongitudeDegrees>0.5479932390153408050537109375</LongitudeDegrees>
            </Position>
            <AltitudeMeters>562.5999755859375</AltitudeMeters>
            <DistanceMeters>44003.877193747</DistanceMeters>
          </Trackpoint>
          <Trackpoint>
            <Time>2019-05-08T10:01:42.000Z</Time>
            <Position>
              <LatitudeDegrees>43.02513702772557735443115234375</LatitudeDegrees>
              <LongitudeDegrees>0.54807479493319988250732421875</LongitudeDegrees>
            </Position>
            <AltitudeMeters>562.20001220703125</AltitudeMeters>
            <DistanceMeters>44011.428081289</DistanceMeters>
          </Trackpoint>
          <Trackpoint>
            <Time>2019-05-08T10:01:45.000Z</Time>
            <Position>
              <LatitudeDegrees>43.02521162666380405426025390625</LatitudeDegrees>
              <LongitudeDegrees>0.54827730171382427215576171875</LongitudeDegrees>
            </Position>
            <AltitudeMeters>559.20001220703125</AltitudeMeters>
            <DistanceMeters>44029.879421135</DistanceMeters>
          </Trackpoint>
          <Trackpoint>
            <Time>2019-05-08T10:01:46.000Z</Time>
            <Position>
              <LatitudeDegrees>43.0252395384013652801513671875</LatitudeDegrees>
              <LongitudeDegrees>0.54832189343869686126708984375</LongitudeDegrees>
            </Position>
            <AltitudeMeters>558.20001220703125</AltitudeMeters>
            <DistanceMeters>44034.655399893</DistanceMeters>
          </Trackpoint>
          <Trackpoint>
            <Time>2019-05-08T10:01:47.000Z</Time>
            <Position>
              <LatitudeDegrees>43.02527097053825855255126953125</LatitudeDegrees>
              <LongitudeDegrees>0.54835307411849498748779296875</LongitudeDegrees>
            </Position>
            <AltitudeMeters>557.20001220703125</AltitudeMeters>
            <DistanceMeters>44038.977809887</DistanceMeters>
          </Trackpoint>
          <Trackpoint>
            <Time>2019-05-08T10:01:49.000Z</Time>
            <Position>
              <LatitudeDegrees>43.02534162998199462890625</LatitudeDegrees>
              <LongitudeDegrees>0.5484019406139850616455078125</LongitudeDegrees>
            </Position>
            <AltitudeMeters>556.20001220703125</AltitudeMeters>
            <DistanceMeters>44047.790224847</DistanceMeters>
          </Trackpoint>
          <Trackpoint>
            <Time>2019-05-08T10:01:50.000Z</Time>
            <Position>
              <LatitudeDegrees>43.025366775691509246826171875</LatitudeDegrees>
              <LongitudeDegrees>0.5484406650066375732421875</LongitudeDegrees>
            </Position>
            <AltitudeMeters>555.79998779296875</AltitudeMeters>
            <DistanceMeters>44052.004742656</DistanceMeters>
          </Trackpoint>
          <Trackpoint>
            <Time>2019-05-08T10:01:53.000Z</Time>
            <Position>
              <LatitudeDegrees>43.02541715092957019805908203125</LatitudeDegrees>
              <LongitudeDegrees>0.54855088703334331512451171875</LongitudeDegrees>
            </Position>
            <AltitudeMeters>554.79998779296875</AltitudeMeters>
            <DistanceMeters>44062.581775183</DistanceMeters>
          </Trackpoint>
          <Trackpoint>
            <Time>2019-05-08T10:01:54.000Z</Time>
            <Position>
              <LatitudeDegrees>43.025419749319553375244140625</LatitudeDegrees>
              <LongitudeDegrees>0.54859078489243984222412109375</LongitudeDegrees>
            </Position>
            <AltitudeMeters>554.5999755859375</AltitudeMeters>
            <DistanceMeters>44065.840512652</DistanceMeters>
          </Trackpoint>
          <Trackpoint>
            <Time>2019-05-08T10:01:56.000Z</Time>
            <Position>
              <LatitudeDegrees>43.0254236049950122833251953125</LatitudeDegrees>
              <LongitudeDegrees>0.5486788786947727203369140625</LongitudeDegrees>
            </Position>
            <AltitudeMeters>554.20001220703125</AltitudeMeters>
            <DistanceMeters>44073.021162797</DistanceMeters>
          </Trackpoint>
          <Trackpoint>
            <Time>2019-05-08T10:01:59.000Z</Time>
            <Position>
              <LatitudeDegrees>43.02543039433658123016357421875</LatitudeDegrees>
              <LongitudeDegrees>0.54880469106137752532958984375</LongitudeDegrees>
            </Position>
            <AltitudeMeters>554.20001220703125</AltitudeMeters>
            <DistanceMeters>44083.286247406</DistanceMeters>
          </Trackpoint>
          <Trackpoint>
            <Time>2019-05-08T10:02:02.000Z</Time>
            <Position>
              <LatitudeDegrees>43.02544154226779937744140625</LatitudeDegrees>
              <LongitudeDegrees>0.5489004962146282196044921875</LongitudeDegrees>
            </Position>
            <AltitudeMeters>554.20001220703125</AltitudeMeters>
            <DistanceMeters>44091.18033111</DistanceMeters>
          </Trackpoint>
          <Trackpoint>
            <Time>2019-05-08T10:02:04.000Z</Time>
            <Position>
              <LatitudeDegrees>43.025439195334911346435546875</LatitudeDegrees>
              <LongitudeDegrees>0.54896394722163677215576171875</LongitudeDegrees>
            </Position>
            <AltitudeMeters>554.20001220703125</AltitudeMeters>
            <DistanceMeters>44096.349469936</DistanceMeters>
          </Trackpoint>
          <Trackpoint>
            <Time>2019-05-08T10:02:06.000Z</Time>
            <Position>
              <LatitudeDegrees>43.02544028498232364654541015625</LatitudeDegrees>
              <LongitudeDegrees>0.54903301410377025604248046875</LongitudeDegrees>
            </Position>
            <AltitudeMeters>554.5999755859375</AltitudeMeters>
            <DistanceMeters>44101.969719699</DistanceMeters>
          </Trackpoint>
          <Trackpoint>
            <Time>2019-05-08T10:02:08.000Z</Time>
            <Position>
              <LatitudeDegrees>43.02543894387781620025634765625</LatitudeDegrees>
              <LongitudeDegrees>0.54910861887037754058837890625</LongitudeDegrees>
            </Position>
            <AltitudeMeters>554.79998779296875</AltitudeMeters>
            <DistanceMeters>44108.123754197</DistanceMeters>
          </Trackpoint>
          <Trackpoint>
            <Time>2019-05-08T10:02:09.000Z</Time>
            <Position>
              <LatitudeDegrees>43.02543886005878448486328125</LatitudeDegrees>
              <LongitudeDegrees>0.54914918728172779083251953125</LongitudeDegrees>
            </Position>
            <AltitudeMeters>554.79998779296875</AltitudeMeters>
            <DistanceMeters>44111.423795438</DistanceMeters>
          </Trackpoint>
          <Trackpoint>
            <Time>2019-05-08T10:02:12.000Z</Time>
            <Position>
              <LatitudeDegrees>43.02543349564075469970703125</LatitudeDegrees>
              <LongitudeDegrees>0.54924725554883480072021484375</LongitudeDegrees>
            </Position>
            <AltitudeMeters>555.5999755859375</AltitudeMeters>
            <DistanceMeters>44119.425247931</DistanceMeters>
          </Trackpoint>
          <Trackpoint>
            <Time>2019-05-08T10:02:13.000Z</Time>
            <Position>
              <LatitudeDegrees>43.025431819260120391845703125</LatitudeDegrees>
              <LongitudeDegrees>0.54927474819123744964599609375</LongitudeDegrees>
            </Position>
            <AltitudeMeters>555.79998779296875</AltitudeMeters>
            <DistanceMeters>44121.669971222</DistanceMeters>
          </Trackpoint>
          <Trackpoint>
            <Time>2019-05-08T10:02:15.000Z</Time>
            <Position>
              <LatitudeDegrees>43.0254303105175495147705078125</LatitudeDegrees>
              <LongitudeDegrees>0.54932470433413982391357421875</LongitudeDegrees>
            </Position>
            <AltitudeMeters>556</AltitudeMeters>
            <DistanceMeters>44125.738402139</DistanceMeters>
          </Trackpoint>
          <Trackpoint>
            <Time>2019-05-08T10:02:16.000Z</Time>
            <Position>
              <LatitudeDegrees>43.02543357945978641510009765625</LatitudeDegrees>
              <LongitudeDegrees>0.54934783838689327239990234375</LongitudeDegrees>
            </Position>
            <AltitudeMeters>556.20001220703125</AltitudeMeters>
            <DistanceMeters>44127.653137378</DistanceMeters>
          </Trackpoint>
          <Trackpoint>
            <Time>2019-05-08T10:02:20.000Z</Time>
            <Position>
              <LatitudeDegrees>43.0254423804581165313720703125</LatitudeDegrees>
              <LongitudeDegrees>0.5494520254433155059814453125</LongitudeDegrees>
            </Position>
            <AltitudeMeters>557</AltitudeMeters>
            <DistanceMeters>44136.187044251</DistanceMeters>
          </Trackpoint>
          <Trackpoint>
            <Time>2019-05-08T10:02:24.000Z</Time>
            <Position>
              <LatitudeDegrees>43.025461994111537933349609375</LatitudeDegrees>
              <LongitudeDegrees>0.54956660605967044830322265625</LongitudeDegrees>
            </Position>
            <AltitudeMeters>558.4000244140625</AltitudeMeters>
            <DistanceMeters>44145.7626067</DistanceMeters>
          </Trackpoint>
          <Trackpoint>
            <Time>2019-05-08T10:02:26.000Z</Time>
            <Position>
              <LatitudeDegrees>43.02546660415828227996826171875</LatitudeDegrees>
              <LongitudeDegrees>0.54960784502327442169189453125</LongitudeDegrees>
            </Position>
            <AltitudeMeters>558.79998779296875</AltitudeMeters>
            <DistanceMeters>44149.157069477</DistanceMeters>
          </Trackpoint>
          <Trackpoint>
            <Time>2019-05-08T10:02:27.000Z</Time>
            <Position>
              <LatitudeDegrees>43.02546777762472629547119140625</LatitudeDegrees>
              <LongitudeDegrees>0.54962594993412494659423828125</LongitudeDegrees>
            </Position>
            <AltitudeMeters>558.79998779296875</AltitudeMeters>
            <DistanceMeters>44150.635338227</DistanceMeters>
          </Trackpoint>
          <Trackpoint>
            <Time>2019-05-08T10:02:32.000Z</Time>
            <Position>
              <LatitudeDegrees>43.02547716535627841949462890625</LatitudeDegrees>
              <LongitudeDegrees>0.5497495830059051513671875</LongitudeDegrees>
            </Position>
            <AltitudeMeters>559.20001220703125</AltitudeMeters>
            <DistanceMeters>44160.748877464</DistanceMeters>
          </Trackpoint>
          <Trackpoint>
            <Time>2019-05-08T10:02:38.000Z</Time>
            <Position>
              <LatitudeDegrees>43.025498203933238983154296875</LatitudeDegrees>
              <LongitudeDegrees>0.5499133653938770294189453125</LongitudeDegrees>
            </Position>
            <AltitudeMeters>559.79998779296875</AltitudeMeters>
            <DistanceMeters>44174.279426965</DistanceMeters>
          </Trackpoint>
          <Trackpoint>
            <Time>2019-05-08T10:02:43.000Z</Time>
            <Position>
              <LatitudeDegrees>43.02551354281604290008544921875</LatitudeDegrees>
              <LongitudeDegrees>0.55005627684295177459716796875</LongitudeDegrees>
            </Position>
            <AltitudeMeters>560</AltitudeMeters>
            <DistanceMeters>44186.032814113</DistanceMeters>
          </Trackpoint>
          <Trackpoint>
            <Time>2019-05-08T10:02:45.000Z</Time>
            <Position>
              <LatitudeDegrees>43.0255226790904998779296875</LatitudeDegrees>
              <LongitudeDegrees>0.55010774172842502593994140625</LongitudeDegrees>
            </Position>
            <AltitudeMeters>560</AltitudeMeters>
            <DistanceMeters>44190.34371858</DistanceMeters>
          </Trackpoint>
          <Trackpoint>
            <Time>2019-05-08T10:02:49.000Z</Time>
            <Position>
              <LatitudeDegrees>43.0255092680454254150390625</LatitudeDegrees>
              <LongitudeDegrees>0.550207905471324920654296875</LongitudeDegrees>
            </Position>
            <AltitudeMeters>560.20001220703125</AltitudeMeters>
            <DistanceMeters>44198.629045437</DistanceMeters>
          </Trackpoint>
          <Trackpoint>
            <Time>2019-05-08T10:02:53.000Z</Time>
            <Position>
              <LatitudeDegrees>43.025514297187328338623046875</LatitudeDegrees>
              <LongitudeDegrees>0.550333969295024871826171875</LongitudeDegrees>
            </Position>
            <AltitudeMeters>560.4000244140625</AltitudeMeters>
            <DistanceMeters>44208.901604676</DistanceMeters>
          </Trackpoint>
          <Trackpoint>
            <Time>2019-05-08T10:02:56.000Z</Time>
            <Position>
              <LatitudeDegrees>43.0255111120641231536865234375</LatitudeDegrees>
              <LongitudeDegrees>0.55043287575244903564453125</LongitudeDegrees>
            </Position>
            <AltitudeMeters>560.79998779296875</AltitudeMeters>
            <DistanceMeters>44216.957045653</DistanceMeters>
          </Trackpoint>
          <Trackpoint>
            <Time>2019-05-08T10:02:59.000Z</Time>
            <Position>
              <LatitudeDegrees>43.0255003832280635833740234375</LatitudeDegrees>
              <LongitudeDegrees>0.55052348412573337554931640625</LongitudeDegrees>
            </Position>
            <AltitudeMeters>561</AltitudeMeters>
            <DistanceMeters>44224.425565064</DistanceMeters>
          </Trackpoint>
          <Trackpoint>
            <Time>2019-05-08T10:03:02.000Z</Time>
            <Position>
              <LatitudeDegrees>43.02547984756529331207275390625</LatitudeDegrees>
              <LongitudeDegrees>0.5506150983273983001708984375</LongitudeDegrees>
            </Position>
            <AltitudeMeters>561</AltitudeMeters>
            <DistanceMeters>44232.222389714</DistanceMeters>
          </Trackpoint>
          <Trackpoint>
            <Time>2019-05-08T10:03:07.000Z</Time>
            <Position>
              <LatitudeDegrees>43.025445230305194854736328125</LatitudeDegrees>
              <LongitudeDegrees>0.55078156292438507080078125</LongitudeDegrees>
            </Position>
            <AltitudeMeters>561.79998779296875</AltitudeMeters>
            <DistanceMeters>44246.304309991</DistanceMeters>
          </Trackpoint>
          <Trackpoint>
            <Time>2019-05-08T10:03:09.000Z</Time>
            <Position>
              <LatitudeDegrees>43.02543592639267444610595703125</LatitudeDegrees>
              <LongitudeDegrees>0.55087032727897167205810546875</LongitudeDegrees>
            </Position>
            <AltitudeMeters>561.79998779296875</AltitudeMeters>
            <DistanceMeters>44253.600975717</DistanceMeters>
          </Trackpoint>
          <Trackpoint>
            <Time>2019-05-08T10:03:10.000Z</Time>
            <Position>
              <LatitudeDegrees>43.0254390276968479156494140625</LatitudeDegrees>
              <LongitudeDegrees>0.55091944523155689239501953125</LongitudeDegrees>
            </Position>
            <AltitudeMeters>561.79998779296875</AltitudeMeters>
            <DistanceMeters>44257.612408905</DistanceMeters>
          </Trackpoint>
          <Trackpoint>
            <Time>2019-05-08T10:03:12.000Z</Time>
            <Position>
              <LatitudeDegrees>43.025453947484493255615234375</LatitudeDegrees>
              <LongitudeDegrees>0.551019273698329925537109375</LongitudeDegrees>
            </Position>
            <AltitudeMeters>561.79998779296875</AltitudeMeters>
            <DistanceMeters>44265.90318341</DistanceMeters>
          </Trackpoint>
          <Trackpoint>
            <Time>2019-05-08T10:03:14.000Z</Time>
            <Position>
              <LatitudeDegrees>43.02547951228916645050048828125</LatitudeDegrees>
              <LongitudeDegrees>0.55110200308263301849365234375</LongitudeDegrees>
            </Position>
            <AltitudeMeters>561.79998779296875</AltitudeMeters>
            <DistanceMeters>44273.210978706</DistanceMeters>
          </Trackpoint>
          <Trackpoint>
            <Time>2019-05-08T10:03:18.000Z</Time>
            <Position>
              <LatitudeDegrees>43.02554547786712646484375</LatitudeDegrees>
              <LongitudeDegrees>0.55124734528362751007080078125</LongitudeDegrees>
            </Position>
            <AltitudeMeters>561.79998779296875</AltitudeMeters>
            <DistanceMeters>44287.131013919</DistanceMeters>
          </Trackpoint>
          <Trackpoint>
            <Time>2019-05-08T10:03:20.000Z</Time>
            <Position>
              <LatitudeDegrees>43.02556718699634075164794921875</LatitudeDegrees>
              <LongitudeDegrees>0.55131532251834869384765625</LongitudeDegrees>
            </Position>
            <AltitudeMeters>561.79998779296875</AltitudeMeters>
            <DistanceMeters>44293.166519563</DistanceMeters>
          </Trackpoint>
          <Trackpoint>
            <Time>2019-05-08T10:03:22.000Z</Time>
            <Position>
              <LatitudeDegrees>43.02557565271854400634765625</LatitudeDegrees>
              <LongitudeDegrees>0.55141079239547252655029296875</LongitudeDegrees>
            </Position>
            <AltitudeMeters>561.79998779296875</AltitudeMeters>
            <DistanceMeters>44300.992244989</DistanceMeters>
          </Trackpoint>
          <Trackpoint>
            <Time>2019-05-08T10:03:23.000Z</Time>
            <Position>
              <LatitudeDegrees>43.0255798436701297760009765625</LatitudeDegrees>
              <LongitudeDegrees>0.5514554679393768310546875</LongitudeDegrees>
            </Position>
            <AltitudeMeters>561.79998779296875</AltitudeMeters>
            <DistanceMeters>44304.657862774</DistanceMeters>
          </Trackpoint>
          <Trackpoint>
            <Time>2019-05-08T10:03:24.000Z</Time>
            <Position>
              <LatitudeDegrees>43.02557640708982944488525390625</LatitudeDegrees>
              <LongitudeDegrees>0.55149637162685394287109375</LongitudeDegrees>
            </Position>
            <AltitudeMeters>561.79998779296875</AltitudeMeters>
            <DistanceMeters>44308.009491497</DistanceMeters>
          </Trackpoint>
          <Trackpoint>
            <Time>2019-05-08T10:03:25.000Z</Time>
            <Position>
              <LatitudeDegrees>43.0255654267966747283935546875</LatitudeDegrees>
              <LongitudeDegrees>0.551534928381443023681640625</LongitudeDegrees>
            </Position>
            <AltitudeMeters>562</AltitudeMeters>
            <DistanceMeters>44311.377246835</DistanceMeters>
          </Trackpoint>
          <Trackpoint>
            <Time>2019-05-08T10:03:26.000Z</Time>
            <Position>
              <LatitudeDegrees>43.02555394358932971954345703125</LatitudeDegrees>
              <LongitudeDegrees>0.55157172493636608123779296875</LongitudeDegrees>
            </Position>
            <AltitudeMeters>561.79998779296875</AltitudeMeters>
            <DistanceMeters>44314.63321209</DistanceMeters>
          </Trackpoint>
          <Trackpoint>
            <Time>2019-05-08T10:03:29.000Z</Time>
            <Position>
              <LatitudeDegrees>43.0255188234150409698486328125</LatitudeDegrees>
              <LongitudeDegrees>0.55164515040814876556396484375</LongitudeDegrees>
            </Position>
            <AltitudeMeters>562</AltitudeMeters>
            <DistanceMeters>44321.773507014</DistanceMeters>
          </Trackpoint>
          <Trackpoint>
            <Time>2019-05-08T10:03:30.000Z</Time>
            <Position>
              <LatitudeDegrees>43.02550968714058399200439453125</LatitudeDegrees>
              <LongitudeDegrees>0.5516655184328556060791015625</LongitudeDegrees>
            </Position>
            <AltitudeMeters>561.79998779296875</AltitudeMeters>
            <DistanceMeters>44323.718655346</DistanceMeters>
          </Trackpoint>
          <Trackpoint>
            <Time>2019-05-08T10:03:31.000Z</Time>
            <Position>
              <LatitudeDegrees>43.025502897799015045166015625</LatitudeDegrees>
              <LongitudeDegrees>0.55168773047626018524169921875</LongitudeDegrees>
            </Position>
            <AltitudeMeters>561.79998779296875</AltitudeMeters>
            <DistanceMeters>44325.679984631</DistanceMeters>
          </Trackpoint>
          <Trackpoint>
            <Time>2019-05-08T10:03:34.000Z</Time>
            <Position>
              <LatitudeDegrees>43.02548219449818134307861328125</LatitudeDegrees>
              <LongitudeDegrees>0.55173148401081562042236328125</LongitudeDegrees>
            </Position>
            <AltitudeMeters>562</AltitudeMeters>
            <DistanceMeters>44329.921200527</DistanceMeters>
          </Trackpoint>
          <Trackpoint>
            <Time>2019-05-08T10:03:35.000Z</Time>
            <Position>
              <LatitudeDegrees>43.02547909319400787353515625</LatitudeDegrees>
              <LongitudeDegrees>0.55173601023852825164794921875</LongitudeDegrees>
            </Position>
            <AltitudeMeters>562.4000244140625</AltitudeMeters>
            <DistanceMeters>44330.424034635</DistanceMeters>
          </Trackpoint>
          <Trackpoint>
            <Time>2019-05-08T10:04:54.000Z</Time>
            <Position>
              <LatitudeDegrees>43.025624267756938934326171875</LatitudeDegrees>
              <LongitudeDegrees>0.55218142457306385040283203125</LongitudeDegrees>
            </Position>
            <AltitudeMeters>566</AltitudeMeters>
            <DistanceMeters>44370.104942255</DistanceMeters>
          </Trackpoint>
          <Trackpoint>
            <Time>2019-05-08T10:04:56.000Z</Time>
            <Position>
              <LatitudeDegrees>43.0256713740527629852294921875</LatitudeDegrees>
              <LongitudeDegrees>0.55217991583049297332763671875</LongitudeDegrees>
            </Position>
            <AltitudeMeters>566</AltitudeMeters>
            <DistanceMeters>44375.349521633</DistanceMeters>
          </Trackpoint>
          <Trackpoint>
            <Time>2019-05-08T10:04:57.000Z</Time>
            <Position>
              <LatitudeDegrees>43.02569844760000705718994140625</LatitudeDegrees>
              <LongitudeDegrees>0.55217689834535121917724609375</LongitudeDegrees>
            </Position>
            <AltitudeMeters>566</AltitudeMeters>
            <DistanceMeters>44378.372506476</DistanceMeters>
          </Trackpoint>
          <Trackpoint>
            <Time>2019-05-08T10:04:59.000Z</Time>
            <Position>
              <LatitudeDegrees>43.025761730968952178955078125</LatitudeDegrees>
              <LongitudeDegrees>0.5521744675934314727783203125</LongitudeDegrees>
            </Position>
            <AltitudeMeters>565.79998779296875</AltitudeMeters>
            <DistanceMeters>44385.41923553</DistanceMeters>
          </Trackpoint>
          <Trackpoint>
            <Time>2019-05-08T10:05:01.000Z</Time>
            <Position>
              <LatitudeDegrees>43.02581797353923320770263671875</LatitudeDegrees>
              <LongitudeDegrees>0.5521637387573719024658203125</LongitudeDegrees>
            </Position>
            <AltitudeMeters>565.79998779296875</AltitudeMeters>
            <DistanceMeters>44391.739762263</DistanceMeters>
          </Trackpoint>
          <Trackpoint>
            <Time>2019-05-08T10:05:02.000Z</Time>
            <Position>
              <LatitudeDegrees>43.025837838649749755859375</LatitudeDegrees>
              <LongitudeDegrees>0.55215996690094470977783203125</LongitudeDegrees>
            </Position>
            <AltitudeMeters>565.5999755859375</AltitudeMeters>
            <DistanceMeters>44393.976425481</DistanceMeters>
          </Trackpoint>
          <Trackpoint>
            <Time>2019-05-08T10:05:05.000Z</Time>
            <Position>
              <LatitudeDegrees>43.025902211666107177734375</LatitudeDegrees>
              <LongitudeDegrees>0.5521560274064540863037109375</LongitudeDegrees>
            </Position>
            <AltitudeMeters>564.5999755859375</AltitudeMeters>
            <DistanceMeters>44401.148267324</DistanceMeters>
          </Trackpoint>
          <Trackpoint>
            <Time>2019-05-08T10:05:07.000Z</Time>
            <Position>
              <LatitudeDegrees>43.02596499212086200714111328125</LatitudeDegrees>
              <LongitudeDegrees>0.552162230014801025390625</LongitudeDegrees>
            </Position>
            <AltitudeMeters>563.20001220703125</AltitudeMeters>
            <DistanceMeters>44408.154514219</DistanceMeters>
          </Trackpoint>
          <Trackpoint>
            <Time>2019-05-08T10:05:10.000Z</Time>
            <Position>
              <LatitudeDegrees>43.02607982419431209564208984375</LatitudeDegrees>
              <LongitudeDegrees>0.5521794967353343963623046875</LongitudeDegrees>
            </Position>
            <AltitudeMeters>561.20001220703125</AltitudeMeters>
            <DistanceMeters>44421.012650539</DistanceMeters>
          </Trackpoint>
          <Trackpoint>
            <Time>2019-05-08T10:05:11.000Z</Time>
            <Position>
              <LatitudeDegrees>43.02612148225307464599609375</LatitudeDegrees>
              <LongitudeDegrees>0.552196092903614044189453125</LongitudeDegrees>
            </Position>
            <AltitudeMeters>561.20001220703125</AltitudeMeters>
            <DistanceMeters>44425.842214438</DistanceMeters>
          </Trackpoint>
          <Trackpoint>
            <Time>2019-05-08T10:05:12.000Z</Time>
            <Position>
              <LatitudeDegrees>43.0261659063398838043212890625</LatitudeDegrees>
              <LongitudeDegrees>0.5522093363106250762939453125</LongitudeDegrees>
            </Position>
            <AltitudeMeters>560.5999755859375</AltitudeMeters>
            <DistanceMeters>44430.902777331</DistanceMeters>
          </Trackpoint>
          <Trackpoint>
            <Time>2019-05-08T10:05:13.000Z</Time>
            <Position>
              <LatitudeDegrees>43.02621510811150074005126953125</LatitudeDegrees>
              <LongitudeDegrees>0.5522120185196399688720703125</LongitudeDegrees>
            </Position>
            <AltitudeMeters>560.4000244140625</AltitudeMeters>
            <DistanceMeters>44436.383108913</DistanceMeters>
          </Trackpoint>
          <Trackpoint>
            <Time>2019-05-08T10:05:14.000Z</Time>
            <Position>
              <LatitudeDegrees>43.02627302706241607666015625</LatitudeDegrees>
              <LongitudeDegrees>0.5522039718925952911376953125</LongitudeDegrees>
            </Position>
            <AltitudeMeters>559.79998779296875</AltitudeMeters>
            <DistanceMeters>44442.863066896</DistanceMeters>
          </Trackpoint>
          <Trackpoint>
            <Time>2019-05-08T10:05:15.000Z</Time>
            <Position>
              <LatitudeDegrees>43.02632994018495082855224609375</LatitudeDegrees>
              <LongitudeDegrees>0.55218561552464962005615234375</LongitudeDegrees>
            </Position>
            <AltitudeMeters>559.5999755859375</AltitudeMeters>
            <DistanceMeters>44449.372223422</DistanceMeters>
          </Trackpoint>
          <Trackpoint>
            <Time>2019-05-08T10:05:16.000Z</Time>
            <Position>
              <LatitudeDegrees>43.02638291381299495697021484375</LatitudeDegrees>
              <LongitudeDegrees>0.5521680973470211029052734375</LongitudeDegrees>
            </Position>
            <AltitudeMeters>559.4000244140625</AltitudeMeters>
            <DistanceMeters>44455.438322787</DistanceMeters>
          </Trackpoint>
          <Trackpoint>
            <Time>2019-05-08T10:05:19.000Z</Time>
            <Position>
              <LatitudeDegrees>43.02649254910647869110107421875</LatitudeDegrees>
              <LongitudeDegrees>0.5521305464208126068115234375</LongitudeDegrees>
            </Position>
            <AltitudeMeters>558.79998779296875</AltitudeMeters>
            <DistanceMeters>44468.017433627</DistanceMeters>
          </Trackpoint>
          <Trackpoint>
            <Time>2019-05-08T10:05:23.000Z</Time>
            <Position>
              <LatitudeDegrees>43.02653588354587554931640625</LatitudeDegrees>
              <LongitudeDegrees>0.55212593637406826019287109375</LongitudeDegrees>
            </Position>
            <AltitudeMeters>556.5999755859375</AltitudeMeters>
            <DistanceMeters>44472.853537223</DistanceMeters>
          </Trackpoint>
          <Trackpoint>
            <Time>2019-05-08T10:09:55.000Z</Time>
            <Position>
              <LatitudeDegrees>43.02651886828243732452392578125</LatitudeDegrees>
              <LongitudeDegrees>0.5522217415273189544677734375</LongitudeDegrees>
            </Position>
            <AltitudeMeters>555</AltitudeMeters>
            <DistanceMeters>44480.875277978</DistanceMeters>
          </Trackpoint>
          <Trackpoint>
            <Time>2019-05-08T10:09:56.000Z</Time>
            <Position>
              <LatitudeDegrees>43.02655340172350406646728515625</LatitudeDegrees>
              <LongitudeDegrees>0.5522036366164684295654296875</LongitudeDegrees>
            </Position>
            <AltitudeMeters>555</AltitudeMeters>
            <DistanceMeters>44484.99115254</DistanceMeters>
          </Trackpoint>
          <Trackpoint>
            <Time>2019-05-08T10:09:58.000Z</Time>
            <Position>
              <LatitudeDegrees>43.02663420327007770538330078125</LatitudeDegrees>
              <LongitudeDegrees>0.5521895550191402435302734375</LongitudeDegrees>
            </Position>
            <AltitudeMeters>555</AltitudeMeters>
            <DistanceMeters>44494.057119438</DistanceMeters>
          </Trackpoint>
          <Trackpoint>
            <Time>2019-05-08T10:10:00.000Z</Time>
            <Position>
              <LatitudeDegrees>43.026709221303462982177734375</LatitudeDegrees>
              <LongitudeDegrees>0.55224278010427951812744140625</LongitudeDegrees>
            </Position>
            <AltitudeMeters>555</AltitudeMeters>
            <DistanceMeters>44503.463324252</DistanceMeters>
          </Trackpoint>
          <Trackpoint>
            <Time>2019-05-08T10:10:03.000Z</Time>
            <Position>
              <LatitudeDegrees>43.026757501065731048583984375</LatitudeDegrees>
              <LongitudeDegrees>0.5522971786558628082275390625</LongitudeDegrees>
            </Position>
            <AltitudeMeters>554.79998779296875</AltitudeMeters>
            <DistanceMeters>44510.425611976</DistanceMeters>
          </Trackpoint>
          <Trackpoint>
            <Time>2019-05-08T10:10:05.000Z</Time>
            <Position>
              <LatitudeDegrees>43.02675984799861907958984375</LatitudeDegrees>
              <LongitudeDegrees>0.55230229161679744720458984375</LongitudeDegrees>
            </Position>
            <AltitudeMeters>552.79998779296875</AltitudeMeters>
            <DistanceMeters>44510.919385268</DistanceMeters>
          </Trackpoint>
          <Trackpoint>
            <Time>2019-05-08T10:12:32.000Z</Time>
            <Position>
              <LatitudeDegrees>43.02673294208943843841552734375</LatitudeDegrees>
              <LongitudeDegrees>0.55224294774234294891357421875</LongitudeDegrees>
            </Position>
            <AltitudeMeters>550</AltitudeMeters>
            <DistanceMeters>44516.601951005</DistanceMeters>
          </Trackpoint>
          <Trackpoint>
            <Time>2019-05-08T10:12:33.000Z</Time>
            <Position>
              <LatitudeDegrees>43.02671835757791996002197265625</LatitudeDegrees>
              <LongitudeDegrees>0.55223397910594940185546875</LongitudeDegrees>
            </Position>
            <AltitudeMeters>550</AltitudeMeters>
            <DistanceMeters>44518.3848102</DistanceMeters>
          </Trackpoint>
          <Trackpoint>
            <Time>2019-05-08T10:12:34.000Z</Time>
            <Position>
              <LatitudeDegrees>43.02670377306640148162841796875</LatitudeDegrees>
              <LongitudeDegrees>0.55222400464117527008056640625</LongitudeDegrees>
            </Position>
            <AltitudeMeters>550</AltitudeMeters>
            <DistanceMeters>44520.200293029</DistanceMeters>
          </Trackpoint>
          <Trackpoint>
            <Time>2019-05-08T10:12:35.000Z</Time>
            <Position>
              <LatitudeDegrees>43.02668935619294643402099609375</LatitudeDegrees>
              <LongitudeDegrees>0.55221646092832088470458984375</LongitudeDegrees>
            </Position>
            <AltitudeMeters>550.20001220703125</AltitudeMeters>
            <DistanceMeters>44521.921300023</DistanceMeters>
          </Trackpoint>
          <Trackpoint>
            <Time>2019-05-08T10:12:37.000Z</Time>
            <Position>
              <LatitudeDegrees>43.02666940726339817047119140625</LatitudeDegrees>
              <LongitudeDegrees>0.5522016249597072601318359375</LongitudeDegrees>
            </Position>
            <AltitudeMeters>550.20001220703125</AltitudeMeters>
            <DistanceMeters>44524.449796438</DistanceMeters>
          </Trackpoint>
          <Trackpoint>
            <Time>2019-05-08T10:12:40.000Z</Time>
            <Position>
              <LatitudeDegrees>43.02665750496089458465576171875</LatitudeDegrees>
              <LongitudeDegrees>0.55220405571162700653076171875</LongitudeDegrees>
            </Position>
            <AltitudeMeters>550.20001220703125</AltitudeMeters>
            <DistanceMeters>44525.786940835</DistanceMeters>
          </Trackpoint>
          <Trackpoint>
            <Time>2019-05-08T10:12:47.000Z</Time>
            <Position>
              <LatitudeDegrees>43.0265736021101474761962890625</LatitudeDegrees>
              <LongitudeDegrees>0.55225501768290996551513671875</LongitudeDegrees>
            </Position>
            <AltitudeMeters>551.79998779296875</AltitudeMeters>
            <DistanceMeters>44536.004853725</DistanceMeters>
          </Trackpoint>
          <Trackpoint>
            <Time>2019-05-08T10:12:49.000Z</Time>
            <Position>
              <LatitudeDegrees>43.026540912687778472900390625</LatitudeDegrees>
              <LongitudeDegrees>0.55226750671863555908203125</LongitudeDegrees>
            </Position>
            <AltitudeMeters>552.20001220703125</AltitudeMeters>
            <DistanceMeters>44539.782090914</DistanceMeters>
          </Trackpoint>
          <Trackpoint>
            <Time>2019-05-08T10:12:50.000Z</Time>
            <Position>
              <LatitudeDegrees>43.02652255631983280181884765625</LatitudeDegrees>
              <LongitudeDegrees>0.55227245204150676727294921875</LongitudeDegrees>
            </Position>
            <AltitudeMeters>552</AltitudeMeters>
            <DistanceMeters>44541.866189465</DistanceMeters>
          </Trackpoint>
          <Trackpoint>
            <Time>2019-05-08T10:12:52.000Z</Time>
            <Position>
              <LatitudeDegrees>43.026492297649383544921875</LatitudeDegrees>
              <LongitudeDegrees>0.55228686891496181488037109375</LongitudeDegrees>
            </Position>
            <AltitudeMeters>552.20001220703125</AltitudeMeters>
            <DistanceMeters>44545.431907855</DistanceMeters>
          </Trackpoint>
          <Trackpoint>
            <Time>2019-05-08T10:12:55.000Z</Time>
            <Position>
              <LatitudeDegrees>43.02647226490080356597900390625</LatitudeDegrees>
              <LongitudeDegrees>0.55229432880878448486328125</LongitudeDegrees>
            </Position>
            <AltitudeMeters>552.5999755859375</AltitudeMeters>
            <DistanceMeters>44547.744007605</DistanceMeters>
          </Trackpoint>
          <Trackpoint>
            <Time>2019-05-08T10:12:56.000Z</Time>
            <Position>
              <LatitudeDegrees>43.02646958269178867340087890625</LatitudeDegrees>
              <LongitudeDegrees>0.552295334637165069580078125</LongitudeDegrees>
            </Position>
            <AltitudeMeters>553</AltitudeMeters>
            <DistanceMeters>44548.044508461</DistanceMeters>
          </Trackpoint>
          <Trackpoint>
            <Time>2019-05-08T10:13:11.000Z</Time>
            <Position>
              <LatitudeDegrees>43.026556335389614105224609375</LatitudeDegrees>
              <LongitudeDegrees>0.55225082673132419586181640625</LongitudeDegrees>
            </Position>
            <AltitudeMeters>555.79998779296875</AltitudeMeters>
            <DistanceMeters>44558.357424651</DistanceMeters>
          </Trackpoint>
          <Trackpoint>
            <Time>2019-05-08T10:13:12.000Z</Time>
            <Position>
              <LatitudeDegrees>43.02659883163869380950927734375</LatitudeDegrees>
              <LongitudeDegrees>0.55223590694367885589599609375</LongitudeDegrees>
            </Position>
            <AltitudeMeters>555.79998779296875</AltitudeMeters>
            <DistanceMeters>44563.24091028</DistanceMeters>
          </Trackpoint>
          <Trackpoint>
            <Time>2019-05-08T10:13:13.000Z</Time>
            <Position>
              <LatitudeDegrees>43.02664057351648807525634765625</LatitudeDegrees>
              <LongitudeDegrees>0.55222727358341217041015625</LongitudeDegrees>
            </Position>
            <AltitudeMeters>555.79998779296875</AltitudeMeters>
            <DistanceMeters>44567.940651442</DistanceMeters>
          </Trackpoint>
          <Trackpoint>
            <Time>2019-05-08T10:13:15.000Z</Time>
            <Position>
              <LatitudeDegrees>43.02672724239528179168701171875</LatitudeDegrees>
              <LongitudeDegrees>0.552253760397434234619140625</LongitudeDegrees>
            </Position>
            <AltitudeMeters>555.5999755859375</AltitudeMeters>
            <DistanceMeters>44577.824343412</DistanceMeters>
          </Trackpoint>
          <Trackpoint>
            <Time>2019-05-08T10:13:16.000Z</Time>
            <Position>
              <LatitudeDegrees>43.02676546387374401092529296875</LatitudeDegrees>
              <LongitudeDegrees>0.55228418670594692230224609375</LongitudeDegrees>
            </Position>
            <AltitudeMeters>555.5999755859375</AltitudeMeters>
            <DistanceMeters>44582.747424274</DistanceMeters>
          </Trackpoint>
          <Trackpoint>
            <Time>2019-05-08T10:13:19.000Z</Time>
            <Position>
              <LatitudeDegrees>43.0268119834363460540771484375</LatitudeDegrees>
              <LongitudeDegrees>0.552346967160701751708984375</LongitudeDegrees>
            </Position>
            <AltitudeMeters>554.20001220703125</AltitudeMeters>
            <DistanceMeters>44590.021779776</DistanceMeters>
          </Trackpoint>
          <Trackpoint>
            <Time>2019-05-08T10:13:22.000Z</Time>
            <Position>
              <LatitudeDegrees>43.02680854685604572296142578125</LatitudeDegrees>
              <LongitudeDegrees>0.5523432791233062744140625</LongitudeDegrees>
            </Position>
            <AltitudeMeters>551</AltitudeMeters>
            <DistanceMeters>44590.506322847</DistanceMeters>
          </Trackpoint>
          <Trackpoint>
            <Time>2019-05-08T10:16:39.000Z</Time>
            <Position>
              <LatitudeDegrees>43.02660671062767505645751953125</LatitudeDegrees>
              <LongitudeDegrees>0.5522547662258148193359375</LongitudeDegrees>
            </Position>
            <AltitudeMeters>552.5999755859375</AltitudeMeters>
            <DistanceMeters>44614.097075511</DistanceMeters>
          </Trackpoint>
          <Trackpoint>
            <Time>2019-05-08T10:16:40.000Z</Time>
            <Position>
              <LatitudeDegrees>43.0265900306403636932373046875</LatitudeDegrees>
              <LongitudeDegrees>0.5522579513490200042724609375</LongitudeDegrees>
            </Position>
            <AltitudeMeters>552.5999755859375</AltitudeMeters>
            <DistanceMeters>44615.968884705</DistanceMeters>
          </Trackpoint>
          <Trackpoint>
            <Time>2019-05-08T10:16:43.000Z</Time>
            <Position>
              <LatitudeDegrees>43.02653730846941471099853515625</LatitudeDegrees>
              <LongitudeDegrees>0.55227429606020450592041015625</LongitudeDegrees>
            </Position>
            <AltitudeMeters>552.79998779296875</AltitudeMeters>
            <DistanceMeters>44621.984908839</DistanceMeters>
          </Trackpoint>
          <Trackpoint>
            <Time>2019-05-08T10:16:44.000Z</Time>
            <Position>
              <LatitudeDegrees>43.0265179462730884552001953125</LatitudeDegrees>
              <LongitudeDegrees>0.55227756500244140625</LongitudeDegrees>
            </Position>
            <AltitudeMeters>552.79998779296875</AltitudeMeters>
            <DistanceMeters>44624.156014526</DistanceMeters>
          </Trackpoint>
          <Trackpoint>
            <Time>2019-05-08T10:16:46.000Z</Time>
            <Position>
              <LatitudeDegrees>43.02647595293819904327392578125</LatitudeDegrees>
              <LongitudeDegrees>0.55228251032531261444091796875</LongitudeDegrees>
            </Position>
            <AltitudeMeters>553</AltitudeMeters>
            <DistanceMeters>44628.848063798</DistanceMeters>
          </Trackpoint>
          <Trackpoint>
            <Time>2019-05-08T10:16:49.000Z</Time>
            <Position>
              <LatitudeDegrees>43.02641979418694972991943359375</LatitudeDegrees>
              <LongitudeDegrees>0.5522965081036090850830078125</LongitudeDegrees>
            </Position>
            <AltitudeMeters>553.5999755859375</AltitudeMeters>
            <DistanceMeters>44635.201365436</DistanceMeters>
          </Trackpoint>
          <Trackpoint>
            <Time>2019-05-08T10:16:51.000Z</Time>
            <Position>
              <LatitudeDegrees>43.02637897431850433349609375</LatitudeDegrees>
              <LongitudeDegrees>0.55230212397873401641845703125</LongitudeDegrees>
            </Position>
            <AltitudeMeters>553.79998779296875</AltitudeMeters>
            <DistanceMeters>44639.767594352</DistanceMeters>
          </Trackpoint>
          <Trackpoint>
            <Time>2019-05-08T10:16:52.000Z</Time>
            <Position>
              <LatitudeDegrees>43.02635726518929004669189453125</LatitudeDegrees>
              <LongitudeDegrees>0.55230631493031978607177734375</LongitudeDegrees>
            </Position>
            <AltitudeMeters>554</AltitudeMeters>
            <DistanceMeters>44642.208874847</DistanceMeters>
          </Trackpoint>
          <Trackpoint>
            <Time>2019-05-08T10:16:53.000Z</Time>
            <Position>
              <LatitudeDegrees>43.02634268067777156829833984375</LatitudeDegrees>
              <LongitudeDegrees>0.55230530910193920135498046875</LongitudeDegrees>
            </Position>
            <AltitudeMeters>554.20001220703125</AltitudeMeters>
            <DistanceMeters>44643.835470186</DistanceMeters>
          </Trackpoint>
          <Trackpoint>
            <Time>2019-05-08T10:16:56.000Z</Time>
            <Position>
              <LatitudeDegrees>43.02633631043136119842529296875</LatitudeDegrees>
              <LongitudeDegrees>0.55229860357940196990966796875</LongitudeDegrees>
            </Position>
            <AltitudeMeters>555.5999755859375</AltitudeMeters>
            <DistanceMeters>44644.726899783</DistanceMeters>
          </Trackpoint>
          <Trackpoint>
            <Time>2019-05-08T10:16:57.000Z</Time>
            <Position>
              <LatitudeDegrees>43.02634008228778839111328125</LatitudeDegrees>
              <LongitudeDegrees>0.55230162106454372406005859375</LongitudeDegrees>
            </Position>
            <AltitudeMeters>556</AltitudeMeters>
            <DistanceMeters>44645.202033355</DistanceMeters>
          </Trackpoint>
          <Trackpoint>
            <Time>2019-05-08T10:17:04.000Z</Time>
            <Position>
              <LatitudeDegrees>43.02641577087342739105224609375</LatitudeDegrees>
              <LongitudeDegrees>0.55226356722414493560791015625</LongitudeDegrees>
            </Position>
            <AltitudeMeters>557.4000244140625</AltitudeMeters>
            <DistanceMeters>44654.176902818</DistanceMeters>
          </Trackpoint>
          <Trackpoint>
            <Time>2019-05-08T10:17:05.000Z</Time>
            <Position>
              <LatitudeDegrees>43.02644913084805011749267578125</LatitudeDegrees>
              <LongitudeDegrees>0.55224831216037273406982421875</LongitudeDegrees>
            </Position>
            <AltitudeMeters>557.5999755859375</AltitudeMeters>
            <DistanceMeters>44658.090342437</DistanceMeters>
          </Trackpoint>
          <Trackpoint>
            <Time>2019-05-08T10:17:06.000Z</Time>
            <Position>
              <LatitudeDegrees>43.02649221383035182952880859375</LatitudeDegrees>
              <LongitudeDegrees>0.552235655486583709716796875</LongitudeDegrees>
            </Position>
            <AltitudeMeters>557.4000244140625</AltitudeMeters>
            <DistanceMeters>44662.995046673</DistanceMeters>
          </Trackpoint>
          <Trackpoint>
            <Time>2019-05-08T10:17:07.000Z</Time>
            <Position>
              <LatitudeDegrees>43.02654535509645938873291015625</LatitudeDegrees>
              <LongitudeDegrees>0.5522237531840801239013671875</LongitudeDegrees>
            </Position>
            <AltitudeMeters>557.4000244140625</AltitudeMeters>
            <DistanceMeters>44668.988513458</DistanceMeters>
          </Trackpoint>
          <Trackpoint>
            <Time>2019-05-08T10:17:08.000Z</Time>
            <Position>
              <LatitudeDegrees>43.02659296430647373199462890625</LatitudeDegrees>
              <LongitudeDegrees>0.55221646092832088470458984375</LongitudeDegrees>
            </Position>
            <AltitudeMeters>557.4000244140625</AltitudeMeters>
            <DistanceMeters>44674.320181175</DistanceMeters>
          </Trackpoint>
          <Trackpoint>
            <Time>2019-05-08T10:17:09.000Z</Time>
            <Position>
              <LatitudeDegrees>43.0266336165368556976318359375</LatitudeDegrees>
              <LongitudeDegrees>0.5522204004228115081787109375</LongitudeDegrees>
            </Position>
            <AltitudeMeters>557.4000244140625</AltitudeMeters>
            <DistanceMeters>44678.855654043</DistanceMeters>
          </Trackpoint>
          <Trackpoint>
            <Time>2019-05-08T10:17:11.000Z</Time>
            <Position>
              <LatitudeDegrees>43.02670125849545001983642578125</LatitudeDegrees>
              <LongitudeDegrees>0.55224982090294361114501953125</LongitudeDegrees>
            </Position>
            <AltitudeMeters>557.4000244140625</AltitudeMeters>
            <DistanceMeters>44686.755455199</DistanceMeters>
          </Trackpoint>
          <Trackpoint>
            <Time>2019-05-08T10:17:12.000Z</Time>
            <Position>
              <LatitudeDegrees>43.02673394791781902313232421875</LatitudeDegrees>
              <LongitudeDegrees>0.55228049866855144500732421875</LongitudeDegrees>
            </Position>
            <AltitudeMeters>557.20001220703125</AltitudeMeters>
            <DistanceMeters>44691.1667832</DistanceMeters>
          </Trackpoint>
          <Trackpoint>
            <Time>2019-05-08T10:17:15.000Z</Time>
            <Position>
              <LatitudeDegrees>43.0267744325101375579833984375</LatitudeDegrees>
              <LongitudeDegrees>0.55232894606888294219970703125</LongitudeDegrees>
            </Position>
            <AltitudeMeters>554.4000244140625</AltitudeMeters>
            <DistanceMeters>44697.152711978</DistanceMeters>
          </Trackpoint>
          <Trackpoint>
            <Time>2019-05-08T10:17:16.000Z</Time>
            <Position>
              <LatitudeDegrees>43.02678088657557964324951171875</LatitudeDegrees>
              <LongitudeDegrees>0.5523384176194667816162109375</LongitudeDegrees>
            </Position>
            <AltitudeMeters>553.5999755859375</AltitudeMeters>
            <DistanceMeters>44698.206609223</DistanceMeters>
          </Trackpoint>
          <Trackpoint>
            <Time>2019-05-08T10:19:56.000Z</Time>
            <Position>
              <LatitudeDegrees>43.026798404753208160400390625</LatitudeDegrees>
              <LongitudeDegrees>0.5523079074919223785400390625</LongitudeDegrees>
            </Position>
            <AltitudeMeters>550.20001220703125</AltitudeMeters>
            <DistanceMeters>44701.362583608</DistanceMeters>
          </Trackpoint>
          <Trackpoint>
            <Time>2019-05-08T10:19:57.000Z</Time>
            <Position>
              <LatitudeDegrees>43.02677862346172332763671875</LatitudeDegrees>
              <LongitudeDegrees>0.5522931553423404693603515625</LongitudeDegrees>
            </Position>
            <AltitudeMeters>550.20001220703125</AltitudeMeters>
            <DistanceMeters>44703.871360856</DistanceMeters>
          </Trackpoint>
          <Trackpoint>
            <Time>2019-05-08T10:19:58.000Z</Time>
            <Position>
              <LatitudeDegrees>43.0267564952373504638671875</LatitudeDegrees>
              <LongitudeDegrees>0.55228116922080516815185546875</LongitudeDegrees>
            </Position>
            <AltitudeMeters>550.4000244140625</AltitudeMeters>
            <DistanceMeters>44706.520203886</DistanceMeters>
          </Trackpoint>
          <Trackpoint>
            <Time>2019-05-08T10:20:00.000Z</Time>
            <Position>
              <LatitudeDegrees>43.02672120742499828338623046875</LatitudeDegrees>
              <LongitudeDegrees>0.552267841994762420654296875</LongitudeDegrees>
            </Position>
            <AltitudeMeters>550.4000244140625</AltitudeMeters>
            <DistanceMeters>44710.594179893</DistanceMeters>
          </Trackpoint>
          <Trackpoint>
            <Time>2019-05-08T10:20:02.000Z</Time>
            <Position>
              <LatitudeDegrees>43.02669136784970760345458984375</LatitudeDegrees>
              <LongitudeDegrees>0.552268512547016143798828125</LongitudeDegrees>
            </Position>
            <AltitudeMeters>550.5999755859375</AltitudeMeters>
            <DistanceMeters>44713.916039826</DistanceMeters>
          </Trackpoint>
          <Trackpoint>
            <Time>2019-05-08T10:20:03.000Z</Time>
            <Position>
              <LatitudeDegrees>43.0266718380153179168701171875</LatitudeDegrees>
              <LongitudeDegrees>0.552274882793426513671875</LongitudeDegrees>
            </Position>
            <AltitudeMeters>550.79998779296875</AltitudeMeters>
            <DistanceMeters>44716.150683483</DistanceMeters>
          </Trackpoint>
          <Trackpoint>
            <Time>2019-05-08T10:20:06.000Z</Time>
            <Position>
              <LatitudeDegrees>43.0266071297228336334228515625</LatitudeDegrees>
              <LongitudeDegrees>0.5522923171520233154296875</LongitudeDegrees>
            </Position>
            <AltitudeMeters>550.79998779296875</AltitudeMeters>
            <DistanceMeters>44723.491151188</DistanceMeters>
          </Trackpoint>
          <Trackpoint>
            <Time>2019-05-08T10:20:07.000Z</Time>
            <Position>
              <LatitudeDegrees>43.02658709697425365447998046875</LatitudeDegrees>
              <LongitudeDegrees>0.5522958375513553619384765625</LongitudeDegrees>
            </Position>
            <AltitudeMeters>551.20001220703125</AltitudeMeters>
            <DistanceMeters>44725.73788498</DistanceMeters>
          </Trackpoint>
          <Trackpoint>
            <Time>2019-05-08T10:20:10.000Z</Time>
            <Position>
              <LatitudeDegrees>43.02652381360530853271484375</LatitudeDegrees>
              <LongitudeDegrees>0.552305392920970916748046875</LongitudeDegrees>
            </Position>
            <AltitudeMeters>552</AltitudeMeters>
            <DistanceMeters>44732.824864956</DistanceMeters>
          </Trackpoint>
          <Trackpoint>
            <Time>2019-05-08T10:20:11.000Z</Time>
            <Position>
              <LatitudeDegrees>43.02650176919996738433837890625</LatitudeDegrees>
              <LongitudeDegrees>0.552310757339000701904296875</LongitudeDegrees>
            </Position>
            <AltitudeMeters>552.20001220703125</AltitudeMeters>
            <DistanceMeters>44735.317392307</DistanceMeters>
          </Trackpoint>
          <Trackpoint>
            <Time>2019-05-08T10:20:13.000Z</Time>
            <Position>
              <LatitudeDegrees>43.02646287716925144195556640625</LatitudeDegrees>
              <LongitudeDegrees>0.5523233301937580108642578125</LongitudeDegrees>
            </Position>
            <AltitudeMeters>553</AltitudeMeters>
            <DistanceMeters>44739.765414057</DistanceMeters>
          </Trackpoint>
          <Trackpoint>
            <Time>2019-05-08T10:20:15.000Z</Time>
            <Position>
              <LatitudeDegrees>43.0264552496373653411865234375</LatitudeDegrees>
              <LongitudeDegrees>0.55231846868991851806640625</LongitudeDegrees>
            </Position>
            <AltitudeMeters>553.79998779296875</AltitudeMeters>
            <DistanceMeters>44740.696481906</DistanceMeters>
          </Trackpoint>
          <Trackpoint>
            <Time>2019-05-08T10:20:16.000Z</Time>
            <Position>
              <LatitudeDegrees>43.02645700983703136444091796875</LatitudeDegrees>
              <LongitudeDegrees>0.5523149482905864715576171875</LongitudeDegrees>
            </Position>
            <AltitudeMeters>554.20001220703125</AltitudeMeters>
            <DistanceMeters>44741.052039313</DistanceMeters>
          </Trackpoint>
          <Trackpoint>
            <Time>2019-05-08T10:20:28.000Z</Time>
            <Position>
              <LatitudeDegrees>43.02657837979495525360107421875</LatitudeDegrees>
              <LongitudeDegrees>0.5522747151553630828857421875</LongitudeDegrees>
            </Position>
            <AltitudeMeters>556.20001220703125</AltitudeMeters>
            <DistanceMeters>44754.951949946</DistanceMeters>
          </Trackpoint>
          <Trackpoint>
            <Time>2019-05-08T10:20:29.000Z</Time>
            <Position>
              <LatitudeDegrees>43.02661844529211521148681640625</LatitudeDegrees>
              <LongitudeDegrees>0.5522619746625423431396484375</LongitudeDegrees>
            </Position>
            <AltitudeMeters>556.20001220703125</AltitudeMeters>
            <DistanceMeters>44759.53101508</DistanceMeters>
          </Trackpoint>
          <Trackpoint>
            <Time>2019-05-08T10:20:30.000Z</Time>
            <Position>
              <LatitudeDegrees>43.02665281109511852264404296875</LatitudeDegrees>
              <LongitudeDegrees>0.55225837044417858123779296875</LongitudeDegrees>
            </Position>
            <AltitudeMeters>556</AltitudeMeters>
            <DistanceMeters>44763.367553182</DistanceMeters>
          </Trackpoint>
          <Trackpoint>
            <Time>2019-05-08T10:20:32.000Z</Time>
            <Position>
              <LatitudeDegrees>43.0267117358744144439697265625</LatitudeDegrees>
              <LongitudeDegrees>0.5522763915359973907470703125</LongitudeDegrees>
            </Position>
            <AltitudeMeters>555.79998779296875</AltitudeMeters>
            <DistanceMeters>44770.086956594</DistanceMeters>
          </Trackpoint>
          <Trackpoint>
            <Time>2019-05-08T10:20:33.000Z</Time>
            <Position>
              <LatitudeDegrees>43.026749789714813232421875</LatitudeDegrees>
              <LongitudeDegrees>0.55230480618774890899658203125</LongitudeDegrees>
            </Position>
            <AltitudeMeters>555.5999755859375</AltitudeMeters>
            <DistanceMeters>44774.911843854</DistanceMeters>
          </Trackpoint>
          <Trackpoint>
            <Time>2019-05-08T10:20:36.000Z</Time>
            <Position>
              <LatitudeDegrees>43.0268042720854282379150390625</LatitudeDegrees>
              <LongitudeDegrees>0.5523692630231380462646484375</LongitudeDegrees>
            </Position>
            <AltitudeMeters>555.20001220703125</AltitudeMeters>
            <DistanceMeters>44782.929080543</DistanceMeters>
          </Trackpoint>
          <Trackpoint>
            <Time>2019-05-08T10:20:37.000Z</Time>
            <Position>
              <LatitudeDegrees>43.0268019251525402069091796875</LatitudeDegrees>
              <LongitudeDegrees>0.55236968211829662322998046875</LongitudeDegrees>
            </Position>
            <AltitudeMeters>554</AltitudeMeters>
            <DistanceMeters>44783.19785668</DistanceMeters>
          </Trackpoint>
          <Trackpoint>
            <Time>2019-05-08T10:22:39.000Z</Time>
            <Position>
              <LatitudeDegrees>43.02685506641864776611328125</LatitudeDegrees>
              <LongitudeDegrees>0.55238460190594196319580078125</LongitudeDegrees>
            </Position>
            <AltitudeMeters>550</AltitudeMeters>
            <DistanceMeters>44789.235606145</DistanceMeters>
          </Trackpoint>
          <Trackpoint>
            <Time>2019-05-08T10:22:40.000Z</Time>
            <Position>
              <LatitudeDegrees>43.02687644027173519134521484375</LatitudeDegrees>
              <LongitudeDegrees>0.552400611340999603271484375</LongitudeDegrees>
            </Position>
            <AltitudeMeters>550</AltitudeMeters>
            <DistanceMeters>44791.946783422</DistanceMeters>
          </Trackpoint>
          <Trackpoint>
            <Time>2019-05-08T10:22:41.000Z</Time>
            <Position>
              <LatitudeDegrees>43.0269001610577106475830078125</LatitudeDegrees>
              <LongitudeDegrees>0.552416034042835235595703125</LongitudeDegrees>
            </Position>
            <AltitudeMeters>550</AltitudeMeters>
            <DistanceMeters>44794.869530813</DistanceMeters>
          </Trackpoint>
          <Trackpoint>
            <Time>2019-05-08T10:22:44.000Z</Time>
            <Position>
              <LatitudeDegrees>43.026957325637340545654296875</LatitudeDegrees>
              <LongitudeDegrees>0.552441179752349853515625</LongitudeDegrees>
            </Position>
            <AltitudeMeters>550.20001220703125</AltitudeMeters>
            <DistanceMeters>44801.552550946</DistanceMeters>
          </Trackpoint>
          <Trackpoint>
            <Time>2019-05-08T10:22:46.000Z</Time>
            <Position>
              <LatitudeDegrees>43.026999570429325103759765625</LatitudeDegrees>
              <LongitudeDegrees>0.5524410121142864227294921875</LongitudeDegrees>
            </Position>
            <AltitudeMeters>550.20001220703125</AltitudeMeters>
            <DistanceMeters>44806.254213113</DistanceMeters>
          </Trackpoint>
          <Trackpoint>
            <Time>2019-05-08T10:22:50.000Z</Time>
            <Position>
              <LatitudeDegrees>43.02708984352648258209228515625</LatitudeDegrees>
              <LongitudeDegrees>0.55245216004550457000732421875</LongitudeDegrees>
            </Position>
            <AltitudeMeters>550</AltitudeMeters>
            <DistanceMeters>44816.343168543</DistanceMeters>
          </Trackpoint>
          <Trackpoint>
            <Time>2019-05-08T10:22:52.000Z</Time>
            <Position>
              <LatitudeDegrees>43.0271261371672153472900390625</LatitudeDegrees>
              <LongitudeDegrees>0.5524644814431667327880859375</LongitudeDegrees>
            </Position>
            <AltitudeMeters>550.20001220703125</AltitudeMeters>
            <DistanceMeters>44820.504861302</DistanceMeters>
          </Trackpoint>
          <Trackpoint>
            <Time>2019-05-08T10:22:54.000Z</Time>
            <Position>
              <LatitudeDegrees>43.0271623469889163970947265625</LatitudeDegrees>
              <LongitudeDegrees>0.5524822510778903961181640625</LongitudeDegrees>
            </Position>
            <AltitudeMeters>550.20001220703125</AltitudeMeters>
            <DistanceMeters>44824.786339456</DistanceMeters>
          </Trackpoint>
          <Trackpoint>
            <Time>2019-05-08T10:22:56.000Z</Time>
            <Position>
              <LatitudeDegrees>43.0271965451538562774658203125</LatitudeDegrees>
              <LongitudeDegrees>0.5525043793022632598876953125</LongitudeDegrees>
            </Position>
            <AltitudeMeters>550.20001220703125</AltitudeMeters>
            <DistanceMeters>44828.996569861</DistanceMeters>
          </Trackpoint>
          <Trackpoint>
            <Time>2019-05-08T10:22:59.000Z</Time>
            <Position>
              <LatitudeDegrees>43.02725278772413730621337890625</LatitudeDegrees>
              <LongitudeDegrees>0.552532039582729339599609375</LongitudeDegrees>
            </Position>
            <AltitudeMeters>551</AltitudeMeters>
            <DistanceMeters>44835.648439867</DistanceMeters>
          </Trackpoint>
          <Trackpoint>
            <Time>2019-05-08T10:23:03.000Z</Time>
            <Position>
              <LatitudeDegrees>43.02732981741428375244140625</LatitudeDegrees>
              <LongitudeDegrees>0.55255022831261157989501953125</LongitudeDegrees>
            </Position>
            <AltitudeMeters>551.5999755859375</AltitudeMeters>
            <DistanceMeters>44844.348964611</DistanceMeters>
          </Trackpoint>
          <Trackpoint>
            <Time>2019-05-08T10:23:04.000Z</Time>
            <Position>
              <LatitudeDegrees>43.02734800614416599273681640625</LatitudeDegrees>
              <LongitudeDegrees>0.552553497254848480224609375</LongitudeDegrees>
            </Position>
            <AltitudeMeters>551.79998779296875</AltitudeMeters>
            <DistanceMeters>44846.391486414</DistanceMeters>
          </Trackpoint>
          <Trackpoint>
            <Time>2019-05-08T10:23:06.000Z</Time>
            <Position>
              <LatitudeDegrees>43.027388155460357666015625</LatitudeDegrees>
              <LongitudeDegrees>0.55256581865251064300537109375</LongitudeDegrees>
            </Position>
            <AltitudeMeters>552</AltitudeMeters>
            <DistanceMeters>44850.970551549</DistanceMeters>
          </Trackpoint>
          <Trackpoint>
            <Time>2019-05-08T10:23:11.000Z</Time>
            <Position>
              <LatitudeDegrees>43.0274811945855617523193359375</LatitudeDegrees>
              <LongitudeDegrees>0.552594400942325592041015625</LongitudeDegrees>
            </Position>
            <AltitudeMeters>552.4000244140625</AltitudeMeters>
            <DistanceMeters>44861.584231572</DistanceMeters>
          </Trackpoint>
          <Trackpoint>
            <Time>2019-05-08T10:23:12.000Z</Time>
            <Position>
              <LatitudeDegrees>43.02749837748706340789794921875</LatitudeDegrees>
              <LongitudeDegrees>0.55259968154132366180419921875</LongitudeDegrees>
            </Position>
            <AltitudeMeters>552.4000244140625</AltitudeMeters>
            <DistanceMeters>44863.545560857</DistanceMeters>
          </Trackpoint>
          <Trackpoint>
            <Time>2019-05-08T10:23:19.000Z</Time>
            <Position>
              <LatitudeDegrees>43.02764363586902618408203125</LatitudeDegrees>
              <LongitudeDegrees>0.552657432854175567626953125</LongitudeDegrees>
            </Position>
            <AltitudeMeters>553.79998779296875</AltitudeMeters>
            <DistanceMeters>44880.382192341</DistanceMeters>
          </Trackpoint>
          <Trackpoint>
            <Time>2019-05-08T10:23:26.000Z</Time>
            <Position>
              <LatitudeDegrees>43.02781705744564533233642578125</LatitudeDegrees>
              <LongitudeDegrees>0.5527280084788799285888671875</LongitudeDegrees>
            </Position>
            <AltitudeMeters>554</AltitudeMeters>
            <DistanceMeters>44900.520234279</DistanceMeters>
          </Trackpoint>
          <Trackpoint>
            <Time>2019-05-08T10:23:32.000Z</Time>
            <Position>
              <LatitudeDegrees>43.02800464443862438201904296875</LatitudeDegrees>
              <LongitudeDegrees>0.55281467735767364501953125</LongitudeDegrees>
            </Position>
            <AltitudeMeters>554.20001220703125</AltitudeMeters>
            <DistanceMeters>44922.557419017</DistanceMeters>
          </Trackpoint>
          <Trackpoint>
            <Time>2019-05-08T10:23:33.000Z</Time>
            <Position>
              <LatitudeDegrees>43.028036244213581085205078125</LatitudeDegrees>
              <LongitudeDegrees>0.55282968096435070037841796875</LongitudeDegrees>
            </Position>
            <AltitudeMeters>554.20001220703125</AltitudeMeters>
            <DistanceMeters>44926.280477886</DistanceMeters>
          </Trackpoint>
          <Trackpoint>
            <Time>2019-05-08T10:23:34.000Z</Time>
            <Position>
              <LatitudeDegrees>43.02807086147367954254150390625</LatitudeDegrees>
              <LongitudeDegrees>0.55284476839005947113037109375</LongitudeDegrees>
            </Position>
            <AltitudeMeters>554.20001220703125</AltitudeMeters>
            <DistanceMeters>44930.324420076</DistanceMeters>
          </Trackpoint>
          <Trackpoint>
            <Time>2019-05-08T10:23:39.000Z</Time>
            <Position>
              <LatitudeDegrees>43.0282610468566417694091796875</LatitudeDegrees>
              <LongitudeDegrees>0.55292590521275997161865234375</LongitudeDegrees>
            </Position>
            <AltitudeMeters>554.20001220703125</AltitudeMeters>
            <DistanceMeters>44952.498044097</DistanceMeters>
          </Trackpoint>
          <Trackpoint>
            <Time>2019-05-08T10:23:45.000Z</Time>
            <Position>
              <LatitudeDegrees>43.02848911844193935394287109375</LatitudeDegrees>
              <LongitudeDegrees>0.5529848299920558929443359375</LongitudeDegrees>
            </Position>
            <AltitudeMeters>553.5999755859375</AltitudeMeters>
            <DistanceMeters>44978.331681659</DistanceMeters>
          </Trackpoint>
          <Trackpoint>
            <Time>2019-05-08T10:23:46.000Z</Time>
            <Position>
              <LatitudeDegrees>43.0285282619297504425048828125</LatitudeDegrees>
              <LongitudeDegrees>0.552991367876529693603515625</LongitudeDegrees>
            </Position>
            <AltitudeMeters>553.79998779296875</AltitudeMeters>
            <DistanceMeters>44982.721463331</DistanceMeters>
          </Trackpoint>
          <Trackpoint>
            <Time>2019-05-08T10:23:50.000Z</Time>
            <Position>
              <LatitudeDegrees>43.0286613665521144866943359375</LatitudeDegrees>
              <LongitudeDegrees>0.55303034372627735137939453125</LongitudeDegrees>
            </Position>
            <AltitudeMeters>553.4000244140625</AltitudeMeters>
            <DistanceMeters>44997.872190812</DistanceMeters>
          </Trackpoint>
          <Trackpoint>
            <Time>2019-05-08T10:23:51.000Z</Time>
            <Position>
              <LatitudeDegrees>43.028695397078990936279296875</LatitudeDegrees>
              <LongitudeDegrees>0.55303872562944889068603515625</LongitudeDegrees>
            </Position>
            <AltitudeMeters>553.5999755859375</AltitudeMeters>
            <DistanceMeters>45001.720479441</DistanceMeters>
          </Trackpoint>
          <Trackpoint>
            <Time>2019-05-08T10:23:57.000Z</Time>
            <Position>
              <LatitudeDegrees>43.02890402264893054962158203125</LatitudeDegrees>
              <LongitudeDegrees>0.5530406534671783447265625</LongitudeDegrees>
            </Position>
            <AltitudeMeters>553.5999755859375</AltitudeMeters>
            <DistanceMeters>45024.941438824</DistanceMeters>
          </Trackpoint>
          <Trackpoint>
            <Time>2019-05-08T10:23:59.000Z</Time>
            <Position>
              <LatitudeDegrees>43.02897174842655658721923828125</LatitudeDegrees>
              <LongitudeDegrees>0.5530270747840404510498046875</LongitudeDegrees>
            </Position>
            <AltitudeMeters>553.4000244140625</AltitudeMeters>
            <DistanceMeters>45032.5601875</DistanceMeters>
          </Trackpoint>
          <Trackpoint>
            <Time>2019-05-08T10:24:02.000Z</Time>
            <Position>
              <LatitudeDegrees>43.029080964624881744384765625</LatitudeDegrees>
              <LongitudeDegrees>0.5530052818357944488525390625</LongitudeDegrees>
            </Position>
            <AltitudeMeters>553.5999755859375</AltitudeMeters>
            <DistanceMeters>45044.844756582</DistanceMeters>
          </Trackpoint>
          <Trackpoint>
            <Time>2019-05-08T10:24:04.000Z</Time>
            <Position>
              <LatitudeDegrees>43.0291505344212055206298828125</LatitudeDegrees>
              <LongitudeDegrees>0.552988685667514801025390625</LongitudeDegrees>
            </Position>
            <AltitudeMeters>553.5999755859375</AltitudeMeters>
            <DistanceMeters>45052.70444824</DistanceMeters>
          </Trackpoint>
          <Trackpoint>
            <Time>2019-05-08T10:24:06.000Z</Time>
            <Position>
              <LatitudeDegrees>43.02922622300684452056884765625</LatitudeDegrees>
              <LongitudeDegrees>0.5529762804508209228515625</LongitudeDegrees>
            </Position>
            <AltitudeMeters>553.5999755859375</AltitudeMeters>
            <DistanceMeters>45061.189008889</DistanceMeters>
          </Trackpoint>
          <Trackpoint>
            <Time>2019-05-08T10:24:12.000Z</Time>
            <Position>
              <LatitudeDegrees>43.0294257961213588714599609375</LatitudeDegrees>
              <LongitudeDegrees>0.55291526019573211669921875</LongitudeDegrees>
            </Position>
            <AltitudeMeters>553.79998779296875</AltitudeMeters>
            <DistanceMeters>45083.950039526</DistanceMeters>
          </Trackpoint>
          <Trackpoint>
            <Time>2019-05-08T10:24:17.000Z</Time>
            <Position>
              <LatitudeDegrees>43.0295334197580814361572265625</LatitudeDegrees>
              <LongitudeDegrees>0.5528889410197734832763671875</LongitudeDegrees>
            </Position>
            <AltitudeMeters>553.79998779296875</AltitudeMeters>
            <DistanceMeters>45096.118654629</DistanceMeters>
          </Trackpoint>
          <Trackpoint>
            <Time>2019-05-08T10:24:18.000Z</Time>
            <Position>
              <LatitudeDegrees>43.02953383885324001312255859375</LatitudeDegrees>
              <LongitudeDegrees>0.55289053358137607574462890625</LongitudeDegrees>
            </Position>
            <AltitudeMeters>554</AltitudeMeters>
            <DistanceMeters>45096.283245727</DistanceMeters>
          </Trackpoint>
          <Trackpoint>
            <Time>2019-05-08T10:24:30.000Z</Time>
            <Position>
              <LatitudeDegrees>43.0296222679316997528076171875</LatitudeDegrees>
              <LongitudeDegrees>0.55288977921009063720703125</LongitudeDegrees>
            </Position>
            <AltitudeMeters>554</AltitudeMeters>
            <DistanceMeters>45106.126655717</DistanceMeters>
          </Trackpoint>
          <Trackpoint>
            <Time>2019-05-08T10:24:32.000Z</Time>
            <Position>
              <LatitudeDegrees>43.02968680858612060546875</LatitudeDegrees>
              <LongitudeDegrees>0.55289153940975666046142578125</LongitudeDegrees>
            </Position>
            <AltitudeMeters>554</AltitudeMeters>
            <DistanceMeters>45113.311077542</DistanceMeters>
          </Trackpoint>
          <Trackpoint>
            <Time>2019-05-08T10:24:35.000Z</Time>
            <Position>
              <LatitudeDegrees>43.02979988045990467071533203125</LatitudeDegrees>
              <LongitudeDegrees>0.552909560501575469970703125</LongitudeDegrees>
            </Position>
            <AltitudeMeters>553.79998779296875</AltitudeMeters>
            <DistanceMeters>45125.981385313</DistanceMeters>
          </Trackpoint>
          <Trackpoint>
            <Time>2019-05-08T10:24:37.000Z</Time>
            <Position>
              <LatitudeDegrees>43.02987095899879932403564453125</LatitudeDegrees>
              <LongitudeDegrees>0.55293881334364414215087890625</LongitudeDegrees>
            </Position>
            <AltitudeMeters>554</AltitudeMeters>
            <DistanceMeters>45134.242699843</DistanceMeters>
          </Trackpoint>
          <Trackpoint>
            <Time>2019-05-08T10:24:38.000Z</Time>
            <Position>
              <LatitudeDegrees>43.02990130148828029632568359375</LatitudeDegrees>
              <LongitudeDegrees>0.5529586784541606903076171875</LongitudeDegrees>
            </Position>
            <AltitudeMeters>553.79998779296875</AltitudeMeters>
            <DistanceMeters>45137.986318232</DistanceMeters>
          </Trackpoint>
          <Trackpoint>
            <Time>2019-05-08T10:24:43.000Z</Time>
            <Position>
              <LatitudeDegrees>43.0300504155457019805908203125</LatitudeDegrees>
              <LongitudeDegrees>0.55309287272393703460693359375</LongitudeDegrees>
            </Position>
            <AltitudeMeters>552.79998779296875</AltitudeMeters>
            <DistanceMeters>45157.85212959</DistanceMeters>
          </Trackpoint>
          <Trackpoint>
            <Time>2019-05-08T10:24:46.000Z</Time>
            <Position>
              <LatitudeDegrees>43.03016080521047115325927734375</LatitudeDegrees>
              <LongitudeDegrees>0.55319094099104404449462890625</LongitudeDegrees>
            </Position>
            <AltitudeMeters>552</AltitudeMeters>
            <DistanceMeters>45172.502278289</DistanceMeters>
          </Trackpoint>
          <Trackpoint>
            <Time>2019-05-08T10:24:48.000Z</Time>
            <Position>
              <LatitudeDegrees>43.0302334763109683990478515625</LatitudeDegrees>
              <LongitudeDegrees>0.55324777029454708099365234375</LongitudeDegrees>
            </Position>
            <AltitudeMeters>551.5999755859375</AltitudeMeters>
            <DistanceMeters>45181.819743338</DistanceMeters>
          </Trackpoint>
          <Trackpoint>
            <Time>2019-05-08T10:24:49.000Z</Time>
            <Position>
              <LatitudeDegrees>43.03026549518108367919921875</LatitudeDegrees>
              <LongitudeDegrees>0.553272664546966552734375</LongitudeDegrees>
            </Position>
            <AltitudeMeters>551.5999755859375</AltitudeMeters>
            <DistanceMeters>45185.919130153</DistanceMeters>
          </Trackpoint>
          <Trackpoint>
            <Time>2019-05-08T10:24:53.000Z</Time>
            <Position>
              <LatitudeDegrees>43.030387200415134429931640625</LatitudeDegrees>
              <LongitudeDegrees>0.55334064178168773651123046875</LongitudeDegrees>
            </Position>
            <AltitudeMeters>551</AltitudeMeters>
            <DistanceMeters>45200.550775732</DistanceMeters>
          </Trackpoint>
          <Trackpoint>
            <Time>2019-05-08T10:24:57.000Z</Time>
            <Position>
              <LatitudeDegrees>43.030500523746013641357421875</LatitudeDegrees>
              <LongitudeDegrees>0.5533035099506378173828125</LongitudeDegrees>
            </Position>
            <AltitudeMeters>550.79998779296875</AltitudeMeters>
            <DistanceMeters>45213.521139033</DistanceMeters>
          </Trackpoint>
          <Trackpoint>
            <Time>2019-05-08T10:25:02.000Z</Time>
            <Position>
              <LatitudeDegrees>43.0306549184024333953857421875</LatitudeDegrees>
              <LongitudeDegrees>0.55322949774563312530517578125</LongitudeDegrees>
            </Position>
            <AltitudeMeters>550.5999755859375</AltitudeMeters>
            <DistanceMeters>45231.730350354</DistanceMeters>
          </Trackpoint>
          <Trackpoint>
            <Time>2019-05-08T10:25:04.000Z</Time>
            <Position>
              <LatitudeDegrees>43.03073798306286334991455078125</LatitudeDegrees>
              <LongitudeDegrees>0.5532041005790233612060546875</LongitudeDegrees>
            </Position>
            <AltitudeMeters>550.5999755859375</AltitudeMeters>
            <DistanceMeters>45241.203994308</DistanceMeters>
          </Trackpoint>
          <Trackpoint>
            <Time>2019-05-08T10:25:07.000Z</Time>
            <Position>
              <LatitudeDegrees>43.03082699887454509735107421875</LatitudeDegrees>
              <LongitudeDegrees>0.5531685613095760345458984375</LongitudeDegrees>
            </Position>
            <AltitudeMeters>550.79998779296875</AltitudeMeters>
            <DistanceMeters>45251.524787967</DistanceMeters>
          </Trackpoint>
          <Trackpoint>
            <Time>2019-05-08T10:25:10.000Z</Time>
            <Position>
              <LatitudeDegrees>43.03089288063347339630126953125</LatitudeDegrees>
              <LongitudeDegrees>0.55314995348453521728515625</LongitudeDegrees>
            </Position>
            <AltitudeMeters>550.79998779296875</AltitudeMeters>
            <DistanceMeters>45259.012024744</DistanceMeters>
          </Trackpoint>
          <Trackpoint>
            <Time>2019-05-08T10:25:12.000Z</Time>
            <Position>
              <LatitudeDegrees>43.030956499278545379638671875</LatitudeDegrees>
              <LongitudeDegrees>0.55316881276667118072509765625</LongitudeDegrees>
            </Position>
            <AltitudeMeters>550.5999755859375</AltitudeMeters>
            <DistanceMeters>45266.257772769</DistanceMeters>
          </Trackpoint>
          <Trackpoint>
            <Time>2019-05-08T10:25:15.000Z</Time>
            <Position>
              <LatitudeDegrees>43.03105029277503490447998046875</LatitudeDegrees>
              <LongitudeDegrees>0.55323620326817035675048828125</LongitudeDegrees>
            </Position>
            <AltitudeMeters>549.5999755859375</AltitudeMeters>
            <DistanceMeters>45278.049512127</DistanceMeters>
          </Trackpoint>
          <Trackpoint>
            <Time>2019-05-08T10:25:17.000Z</Time>
            <Position>
              <LatitudeDegrees>43.0311165936291217803955078125</LatitudeDegrees>
              <LongitudeDegrees>0.553277693688869476318359375</LongitudeDegrees>
            </Position>
            <AltitudeMeters>549.4000244140625</AltitudeMeters>
            <DistanceMeters>45286.164704516</DistanceMeters>
          </Trackpoint>
          <Trackpoint>
            <Time>2019-05-08T10:25:21.000Z</Time>
            <Position>
              <LatitudeDegrees>43.0311903543770313262939453125</LatitudeDegrees>
              <LongitudeDegrees>0.55332086049020290374755859375</LongitudeDegrees>
            </Position>
            <AltitudeMeters>549</AltitudeMeters>
            <DistanceMeters>45295.094182384</DistanceMeters>
          </Trackpoint>
          <Trackpoint>
            <Time>2019-05-08T10:25:22.000Z</Time>
            <Position>
              <LatitudeDegrees>43.03120519034564495086669921875</LatitudeDegrees>
              <LongitudeDegrees>0.55333259515464305877685546875</LongitudeDegrees>
            </Position>
            <AltitudeMeters>549</AltitudeMeters>
            <DistanceMeters>45296.999462083</DistanceMeters>
          </Trackpoint>
          <Trackpoint>
            <Time>2019-05-08T10:25:26.000Z</Time>
            <Position>
              <LatitudeDegrees>43.03126989863812923431396484375</LatitudeDegrees>
              <LongitudeDegrees>0.55334617383778095245361328125</LongitudeDegrees>
            </Position>
            <AltitudeMeters>548.79998779296875</AltitudeMeters>
            <DistanceMeters>45304.286220587</DistanceMeters>
          </Trackpoint>
          <Trackpoint>
            <Time>2019-05-08T10:25:29.000Z</Time>
            <Position>
              <LatitudeDegrees>43.03132806904613971710205078125</LatitudeDegrees>
              <LongitudeDegrees>0.5533573217689990997314453125</LongitudeDegrees>
            </Position>
            <AltitudeMeters>548.79998779296875</AltitudeMeters>
            <DistanceMeters>45310.82444526</DistanceMeters>
          </Trackpoint>
          <Trackpoint>
            <Time>2019-05-08T10:25:30.000Z</Time>
            <Position>
              <LatitudeDegrees>43.0313484370708465576171875</LatitudeDegrees>
              <LongitudeDegrees>0.5533677153289318084716796875</LongitudeDegrees>
            </Position>
            <AltitudeMeters>548.79998779296875</AltitudeMeters>
            <DistanceMeters>45313.243430489</DistanceMeters>
          </Trackpoint>
          <Trackpoint>
            <Time>2019-05-08T10:25:35.000Z</Time>
            <Position>
              <LatitudeDegrees>43.03142747841775417327880859375</LatitudeDegrees>
              <LongitudeDegrees>0.55340870283544063568115234375</LongitudeDegrees>
            </Position>
            <AltitudeMeters>548.79998779296875</AltitudeMeters>
            <DistanceMeters>45322.651555132</DistanceMeters>
          </Trackpoint>
          <Trackpoint>
            <Time>2019-05-08T10:25:40.000Z</Time>
            <Position>
              <LatitudeDegrees>43.0315387062728404998779296875</LatitudeDegrees>
              <LongitudeDegrees>0.55344608612358570098876953125</LongitudeDegrees>
            </Position>
            <AltitudeMeters>548.79998779296875</AltitudeMeters>
            <DistanceMeters>45335.39931006</DistanceMeters>
          </Trackpoint>
          <Trackpoint>
            <Time>2019-05-08T10:25:42.000Z</Time>
            <Position>
              <LatitudeDegrees>43.0315978825092315673828125</LatitudeDegrees>
              <LongitudeDegrees>0.55346377193927764892578125</LongitudeDegrees>
            </Position>
            <AltitudeMeters>548.79998779296875</AltitudeMeters>
            <DistanceMeters>45342.140851036</DistanceMeters>
          </Trackpoint>
          <Trackpoint>
            <Time>2019-05-08T10:25:45.000Z</Time>
            <Position>
              <LatitudeDegrees>43.03169921971857547760009765625</LatitudeDegrees>
              <LongitudeDegrees>0.55347709916532039642333984375</LongitudeDegrees>
            </Position>
            <AltitudeMeters>548.79998779296875</AltitudeMeters>
            <DistanceMeters>45353.47176569</DistanceMeters>
          </Trackpoint>
          <Trackpoint>
            <Time>2019-05-08T10:25:46.000Z</Time>
            <Position>
              <LatitudeDegrees>43.03172838874161243438720703125</LatitudeDegrees>
              <LongitudeDegrees>0.55347978137433528900146484375</LongitudeDegrees>
            </Position>
            <AltitudeMeters>548.79998779296875</AltitudeMeters>
            <DistanceMeters>45356.724956368</DistanceMeters>
          </Trackpoint>
          <Trackpoint>
            <Time>2019-05-08T10:25:50.000Z</Time>
            <Position>
              <LatitudeDegrees>43.0318397842347621917724609375</LatitudeDegrees>
              <LongitudeDegrees>0.5534803681075572967529296875</LongitudeDegrees>
            </Position>
            <AltitudeMeters>549</AltitudeMeters>
            <DistanceMeters>45369.123666841</DistanceMeters>
          </Trackpoint>
          <Trackpoint>
            <Time>2019-05-08T10:25:52.000Z</Time>
            <Position>
              <LatitudeDegrees>43.03189753554761409759521484375</LatitudeDegrees>
              <LongitudeDegrees>0.55346603505313396453857421875</LongitudeDegrees>
            </Position>
            <AltitudeMeters>549.4000244140625</AltitudeMeters>
            <DistanceMeters>45375.657055805</DistanceMeters>
          </Trackpoint>
          <Trackpoint>
            <Time>2019-05-08T10:25:55.000Z</Time>
            <Position>
              <LatitudeDegrees>43.03202569484710693359375</LatitudeDegrees>
              <LongitudeDegrees>0.55344675667583942413330078125</LongitudeDegrees>
            </Position>
            <AltitudeMeters>549.5999755859375</AltitudeMeters>
            <DistanceMeters>45390.007662878</DistanceMeters>
          </Trackpoint>
          <Trackpoint>
            <Time>2019-05-08T10:25:56.000Z</Time>
            <Position>
              <LatitudeDegrees>43.032072968780994415283203125</LatitudeDegrees>
              <LongitudeDegrees>0.5534414760768413543701171875</LongitudeDegrees>
            </Position>
            <AltitudeMeters>549.79998779296875</AltitudeMeters>
            <DistanceMeters>45395.285710418</DistanceMeters>
          </Trackpoint>
          <Trackpoint>
            <Time>2019-05-08T10:26:00.000Z</Time>
            <Position>
              <LatitudeDegrees>43.03224421106278896331787109375</LatitudeDegrees>
              <LongitudeDegrees>0.55342429317533969879150390625</LongitudeDegrees>
            </Position>
            <AltitudeMeters>549.79998779296875</AltitudeMeters>
            <DistanceMeters>45414.39647811</DistanceMeters>
          </Trackpoint>
          <Trackpoint>
            <Time>2019-05-08T10:26:01.000Z</Time>
            <Position>
              <LatitudeDegrees>43.0322893895208835601806640625</LatitudeDegrees>
              <LongitudeDegrees>0.55342043749988079071044921875</LongitudeDegrees>
            </Position>
            <AltitudeMeters>549.5999755859375</AltitudeMeters>
            <DistanceMeters>45419.434686609</DistanceMeters>
          </Trackpoint>
          <Trackpoint>
            <Time>2019-05-08T10:26:02.000Z</Time>
            <Position>
              <LatitudeDegrees>43.0323314666748046875</LatitudeDegrees>
              <LongitudeDegrees>0.55341607891023159027099609375</LongitudeDegrees>
            </Position>
            <AltitudeMeters>549.5999755859375</AltitudeMeters>
            <DistanceMeters>45424.130583401</DistanceMeters>
          </Trackpoint>
          <Trackpoint>
            <Time>2019-05-08T10:26:05.000Z</Time>
            <Position>
              <LatitudeDegrees>43.03245325572788715362548828125</LatitudeDegrees>
              <LongitudeDegrees>0.55339411832392215728759765625</LongitudeDegrees>
            </Position>
            <AltitudeMeters>549.20001220703125</AltitudeMeters>
            <DistanceMeters>45437.803537457</DistanceMeters>
          </Trackpoint>
          <Trackpoint>
            <Time>2019-05-08T10:26:07.000Z</Time>
            <Position>
              <LatitudeDegrees>43.0324902199208736419677734375</LatitudeDegrees>
              <LongitudeDegrees>0.55337718687951564788818359375</LongitudeDegrees>
            </Position>
            <AltitudeMeters>548.4000244140625</AltitudeMeters>
            <DistanceMeters>45442.143668729</DistanceMeters>
          </Trackpoint>
          <Trackpoint>
            <Time>2019-05-08T10:26:09.000Z</Time>
            <Position>
              <LatitudeDegrees>43.0325103364884853363037109375</LatitudeDegrees>
              <LongitudeDegrees>0.553375594317913055419921875</LongitudeDegrees>
            </Position>
            <AltitudeMeters>547.79998779296875</AltitudeMeters>
            <DistanceMeters>45444.386379718</DistanceMeters>
          </Trackpoint>
          <Trackpoint>
            <Time>2019-05-08T10:26:16.000Z</Time>
            <Position>
              <LatitudeDegrees>43.03259432315826416015625</LatitudeDegrees>
              <LongitudeDegrees>0.55340744554996490478515625</LongitudeDegrees>
            </Position>
            <AltitudeMeters>545.20001220703125</AltitudeMeters>
            <DistanceMeters>45454.087020244</DistanceMeters>
          </Trackpoint>
          <Trackpoint>
            <Time>2019-05-08T10:26:17.000Z</Time>
            <Position>
              <LatitudeDegrees>43.03261452354490756988525390625</LatitudeDegrees>
              <LongitudeDegrees>0.55341742001473903656005859375</LongitudeDegrees>
            </Position>
            <AltitudeMeters>545.20001220703125</AltitudeMeters>
            <DistanceMeters>45456.477844033</DistanceMeters>
          </Trackpoint>
          <Trackpoint>
            <Time>2019-05-08T10:26:19.000Z</Time>
            <Position>
              <LatitudeDegrees>43.0326591990888118743896484375</LatitudeDegrees>
              <LongitudeDegrees>0.5534558929502964019775390625</LongitudeDegrees>
            </Position>
            <AltitudeMeters>545</AltitudeMeters>
            <DistanceMeters>45462.35338505</DistanceMeters>
          </Trackpoint>
          <Trackpoint>
            <Time>2019-05-08T10:26:21.000Z</Time>
            <Position>
              <LatitudeDegrees>43.03271301090717315673828125</LatitudeDegrees>
              <LongitudeDegrees>0.553508363664150238037109375</LongitudeDegrees>
            </Position>
            <AltitudeMeters>544.79998779296875</AltitudeMeters>
            <DistanceMeters>45469.707986188</DistanceMeters>
          </Trackpoint>
          <Trackpoint>
            <Time>2019-05-08T10:26:22.000Z</Time>
            <Position>
              <LatitudeDegrees>43.03273103199899196624755859375</LatitudeDegrees>
              <LongitudeDegrees>0.55353946052491664886474609375</LongitudeDegrees>
            </Position>
            <AltitudeMeters>544.5999755859375</AltitudeMeters>
            <DistanceMeters>45472.936098364</DistanceMeters>
          </Trackpoint>
          <Trackpoint>
            <Time>2019-05-08T10:26:27.000Z</Time>
            <Position>
              <LatitudeDegrees>43.03279213607311248779296875</LatitudeDegrees>
              <LongitudeDegrees>0.55371212773025035858154296875</LongitudeDegrees>
            </Position>
            <AltitudeMeters>543.5999755859375</AltitudeMeters>
            <DistanceMeters>45488.543639559</DistanceMeters>
          </Trackpoint>
          <Trackpoint>
            <Time>2019-05-08T10:26:31.000Z</Time>
            <Position>
              <LatitudeDegrees>43.03281962871551513671875</LatitudeDegrees>
              <LongitudeDegrees>0.55385076440870761871337890625</LongitudeDegrees>
            </Position>
            <AltitudeMeters>543</AltitudeMeters>
            <DistanceMeters>45500.230766506</DistanceMeters>
          </Trackpoint>
          <Trackpoint>
            <Time>2019-05-08T10:26:36.000Z</Time>
            <Position>
              <LatitudeDegrees>43.0328724347054958343505859375</LatitudeDegrees>
              <LongitudeDegrees>0.55405394174158573150634765625</LongitudeDegrees>
            </Position>
            <AltitudeMeters>542.5999755859375</AltitudeMeters>
            <DistanceMeters>45517.774458407</DistanceMeters>
          </Trackpoint>
          <Trackpoint>
            <Time>2019-05-08T10:26:39.000Z</Time>
            <Position>
              <LatitudeDegrees>43.03290554322302341461181640625</LatitudeDegrees>
              <LongitudeDegrees>0.5541938357055187225341796875</LongitudeDegrees>
            </Position>
            <AltitudeMeters>542.4000244140625</AltitudeMeters>
            <DistanceMeters>45529.737261235</DistanceMeters>
          </Trackpoint>
          <Trackpoint>
            <Time>2019-05-08T10:26:42.000Z</Time>
            <Position>
              <LatitudeDegrees>43.03294099867343902587890625</LatitudeDegrees>
              <LongitudeDegrees>0.5543396808207035064697265625</LongitudeDegrees>
            </Position>
            <AltitudeMeters>542.4000244140625</AltitudeMeters>
            <DistanceMeters>45542.241852539</DistanceMeters>
          </Trackpoint>
          <Trackpoint>
            <Time>2019-05-08T10:26:46.000Z</Time>
            <Position>
              <LatitudeDegrees>43.03301350213587284088134765625</LatitudeDegrees>
              <LongitudeDegrees>0.554545037448406219482421875</LongitudeDegrees>
            </Position>
            <AltitudeMeters>542.20001220703125</AltitudeMeters>
            <DistanceMeters>45560.796168327</DistanceMeters>
          </Trackpoint>
          <Trackpoint>
            <Time>2019-05-08T10:26:47.000Z</Time>
            <Position>
              <LatitudeDegrees>43.03304250352084636688232421875</LatitudeDegrees>
              <LongitudeDegrees>0.55460060946643352508544921875</LongitudeDegrees>
            </Position>
            <AltitudeMeters>542.20001220703125</AltitudeMeters>
            <DistanceMeters>45566.35177822</DistanceMeters>
          </Trackpoint>
          <Trackpoint>
            <Time>2019-05-08T10:26:48.000Z</Time>
            <Position>
              <LatitudeDegrees>43.03306144662201404571533203125</LatitudeDegrees>
              <LongitudeDegrees>0.55465199053287506103515625</LongitudeDegrees>
            </Position>
            <AltitudeMeters>542.20001220703125</AltitudeMeters>
            <DistanceMeters>45571.034194862</DistanceMeters>
          </Trackpoint>
          <Trackpoint>
            <Time>2019-05-08T10:26:49.000Z</Time>
            <Position>
              <LatitudeDegrees>43.03307904861867427825927734375</LatitudeDegrees>
              <LongitudeDegrees>0.55470588617026805877685546875</LongitudeDegrees>
            </Position>
            <AltitudeMeters>542</AltitudeMeters>
            <DistanceMeters>45575.836570861</DistanceMeters>
          </Trackpoint>
          <Trackpoint>
            <Time>2019-05-08T10:26:50.000Z</Time>
            <Position>
              <LatitudeDegrees>43.03309857845306396484375</LatitudeDegrees>
              <LongitudeDegrees>0.55475793778896331787109375</LongitudeDegrees>
            </Position>
            <AltitudeMeters>541.79998779296875</AltitudeMeters>
            <DistanceMeters>45580.597399767</DistanceMeters>
          </Trackpoint>
          <Trackpoint>
            <Time>2019-05-08T10:26:51.000Z</Time>
            <Position>
              <LatitudeDegrees>43.03312917239964008331298828125</LatitudeDegrees>
              <LongitudeDegrees>0.55479741655290126800537109375</LongitudeDegrees>
            </Position>
            <AltitudeMeters>541.5999755859375</AltitudeMeters>
            <DistanceMeters>45585.277887504</DistanceMeters>
          </Trackpoint>
          <Trackpoint>
            <Time>2019-05-08T10:26:52.000Z</Time>
            <Position>
              <LatitudeDegrees>43.0331540666520595550537109375</LatitudeDegrees>
              <LongitudeDegrees>0.554836057126522064208984375</LongitudeDegrees>
            </Position>
            <AltitudeMeters>541.4000244140625</AltitudeMeters>
            <DistanceMeters>45589.468770309</DistanceMeters>
          </Trackpoint>
          <Trackpoint>
            <Time>2019-05-08T10:26:54.000Z</Time>
            <Position>
              <LatitudeDegrees>43.03318767808377742767333984375</LatitudeDegrees>
              <LongitudeDegrees>0.55492021143436431884765625</LongitudeDegrees>
            </Position>
            <AltitudeMeters>540.5999755859375</AltitudeMeters>
            <DistanceMeters>45597.271383678</DistanceMeters>
          </Trackpoint>
          <Trackpoint>
            <Time>2019-05-08T10:26:55.000Z</Time>
            <Position>
              <LatitudeDegrees>43.0332033522427082061767578125</LatitudeDegrees>
              <LongitudeDegrees>0.55496538989245891571044921875</LongitudeDegrees>
            </Position>
            <AltitudeMeters>540</AltitudeMeters>
            <DistanceMeters>45601.339814594</DistanceMeters>
          </Trackpoint>
          <Trackpoint>
            <Time>2019-05-08T10:26:56.000Z</Time>
            <Position>
              <LatitudeDegrees>43.03322170861065387725830078125</LatitudeDegrees>
              <LongitudeDegrees>0.55501719005405902862548828125</LongitudeDegrees>
            </Position>
            <AltitudeMeters>539.4000244140625</AltitudeMeters>
            <DistanceMeters>45606.02319539</DistanceMeters>
          </Trackpoint>
          <Trackpoint>
            <Time>2019-05-08T10:26:57.000Z</Time>
            <Position>
              <LatitudeDegrees>43.03324081934988498687744140625</LatitudeDegrees>
              <LongitudeDegrees>0.55506597273051738739013671875</LongitudeDegrees>
            </Position>
            <AltitudeMeters>538.5999755859375</AltitudeMeters>
            <DistanceMeters>45610.524694201</DistanceMeters>
          </Trackpoint>
          <Trackpoint>
            <Time>2019-05-08T10:26:58.000Z</Time>
            <Position>
              <LatitudeDegrees>43.03325624205172061920166015625</LatitudeDegrees>
              <LongitudeDegrees>0.55512129329144954681396484375</LongitudeDegrees>
            </Position>
            <AltitudeMeters>538.20001220703125</AltitudeMeters>
            <DistanceMeters>45615.340214558</DistanceMeters>
          </Trackpoint>
          <Trackpoint>
            <Time>2019-05-08T10:26:59.000Z</Time>
            <Position>
              <LatitudeDegrees>43.03326915018260478973388671875</LatitudeDegrees>
              <LongitudeDegrees>0.55516806431114673614501953125</LongitudeDegrees>
            </Position>
            <AltitudeMeters>537.5999755859375</AltitudeMeters>
            <DistanceMeters>45619.406425321</DistanceMeters>
          </Trackpoint>
          <Trackpoint>
            <Time>2019-05-08T10:27:02.000Z</Time>
            <Position>
              <LatitudeDegrees>43.03330921567976474761962890625</LatitudeDegrees>
              <LongitudeDegrees>0.55530552752315998077392578125</LongitudeDegrees>
            </Position>
            <AltitudeMeters>536</AltitudeMeters>
            <DistanceMeters>45631.446726282</DistanceMeters>
          </Trackpoint>
          <Trackpoint>
            <Time>2019-05-08T10:27:06.000Z</Time>
            <Position>
              <LatitudeDegrees>43.033332265913486480712890625</LatitudeDegrees>
              <LongitudeDegrees>0.5554128997027873992919921875</LongitudeDegrees>
            </Position>
            <AltitudeMeters>533.79998779296875</AltitudeMeters>
            <DistanceMeters>45640.551455918</DistanceMeters>
          </Trackpoint>
          <Trackpoint>
            <Time>2019-05-08T10:27:07.000Z</Time>
            <Position>
              <LatitudeDegrees>43.03333067335188388824462890625</LatitudeDegrees>
              <LongitudeDegrees>0.55545154027640819549560546875</LongitudeDegrees>
            </Position>
            <AltitudeMeters>533</AltitudeMeters>
            <DistanceMeters>45643.700269018</DistanceMeters>
          </Trackpoint>
          <Trackpoint>
            <Time>2019-05-08T10:27:11.000Z</Time>
            <Position>
              <LatitudeDegrees>43.0332871712744235992431640625</LatitudeDegrees>
              <LongitudeDegrees>0.55559051223099231719970703125</LongitudeDegrees>
            </Position>
            <AltitudeMeters>529.79998779296875</AltitudeMeters>
            <DistanceMeters>45655.999530808</DistanceMeters>
          </Trackpoint>
          <Trackpoint>
            <Time>2019-05-08T10:27:12.000Z</Time>
            <Position>
              <LatitudeDegrees>43.03328742273151874542236328125</LatitudeDegrees>
              <LongitudeDegrees>0.55564331822097301483154296875</LongitudeDegrees>
            </Position>
            <AltitudeMeters>529.5999755859375</AltitudeMeters>
            <DistanceMeters>45660.295747313</DistanceMeters>
          </Trackpoint>
          <Trackpoint>
            <Time>2019-05-08T10:27:13.000Z</Time>
            <Position>
              <LatitudeDegrees>43.03329010494053363800048828125</LatitudeDegrees>
              <LongitudeDegrees>0.5556945316493511199951171875</LongitudeDegrees>
            </Position>
            <AltitudeMeters>529.4000244140625</AltitudeMeters>
            <DistanceMeters>45664.472601115</DistanceMeters>
          </Trackpoint>
          <Trackpoint>
            <Time>2019-05-08T10:27:14.000Z</Time>
            <Position>
              <LatitudeDegrees>43.03330100141465663909912109375</LatitudeDegrees>
              <LongitudeDegrees>0.5557545460760593414306640625</LongitudeDegrees>
            </Position>
            <AltitudeMeters>529.20001220703125</AltitudeMeters>
            <DistanceMeters>45669.503635231</DistanceMeters>
          </Trackpoint>
          <Trackpoint>
            <Time>2019-05-08T10:27:18.000Z</Time>
            <Position>
              <LatitudeDegrees>43.03334425203502178192138671875</LatitudeDegrees>
              <LongitudeDegrees>0.55602536536753177642822265625</LongitudeDegrees>
            </Position>
            <AltitudeMeters>528.4000244140625</AltitudeMeters>
            <DistanceMeters>45692.056419666</DistanceMeters>
          </Trackpoint>
          <Trackpoint>
            <Time>2019-05-08T10:27:20.000Z</Time>
            <Position>
              <LatitudeDegrees>43.03336487151682376861572265625</LatitudeDegrees>
              <LongitudeDegrees>0.5561796762049198150634765625</LongitudeDegrees>
            </Position>
            <AltitudeMeters>528</AltitudeMeters>
            <DistanceMeters>45704.819041611</DistanceMeters>
          </Trackpoint>
          <Trackpoint>
            <Time>2019-05-08T10:27:23.000Z</Time>
            <Position>
              <LatitudeDegrees>43.03337392397224903106689453125</LatitudeDegrees>
              <LongitudeDegrees>0.5563962645828723907470703125</LongitudeDegrees>
            </Position>
            <AltitudeMeters>527.4000244140625</AltitudeMeters>
            <DistanceMeters>45722.468702998</DistanceMeters>
          </Trackpoint>
          <Trackpoint>
            <Time>2019-05-08T10:27:25.000Z</Time>
            <Position>
              <LatitudeDegrees>43.033390939235687255859375</LatitudeDegrees>
              <LongitudeDegrees>0.55654169060289859771728515625</LongitudeDegrees>
            </Position>
            <AltitudeMeters>527.20001220703125</AltitudeMeters>
            <DistanceMeters>45734.450738943</DistanceMeters>
          </Trackpoint>
          <Trackpoint>
            <Time>2019-05-08T10:27:28.000Z</Time>
            <Position>
              <LatitudeDegrees>43.03344047628343105316162109375</LatitudeDegrees>
              <LongitudeDegrees>0.5567930638790130615234375</LongitudeDegrees>
            </Position>
            <AltitudeMeters>526.20001220703125</AltitudeMeters>
            <DistanceMeters>45755.631893018</DistanceMeters>
          </Trackpoint>
          <Trackpoint>
            <Time>2019-05-08T10:27:29.000Z</Time>
            <Position>
              <LatitudeDegrees>43.03345330059528350830078125</LatitudeDegrees>
              <LongitudeDegrees>0.55689356289803981781005859375</LongitudeDegrees>
            </Position>
            <AltitudeMeters>525.79998779296875</AltitudeMeters>
            <DistanceMeters>45763.931376322</DistanceMeters>
          </Trackpoint>
          <Trackpoint>
            <Time>2019-05-08T10:27:30.000Z</Time>
            <Position>
              <LatitudeDegrees>43.03346478380262851715087890625</LatitudeDegrees>
              <LongitudeDegrees>0.55700470693409442901611328125</LongitudeDegrees>
            </Position>
            <AltitudeMeters>525.5999755859375</AltitudeMeters>
            <DistanceMeters>45773.063834153</DistanceMeters>
          </Trackpoint>
          <Trackpoint>
            <Time>2019-05-08T10:27:32.000Z</Time>
            <Position>
              <LatitudeDegrees>43.033466376364231109619140625</LatitudeDegrees>
              <LongitudeDegrees>0.55720947682857513427734375</LongitudeDegrees>
            </Position>
            <AltitudeMeters>525.4000244140625</AltitudeMeters>
            <DistanceMeters>45789.724160973</DistanceMeters>
          </Trackpoint>
          <Trackpoint>
            <Time>2019-05-08T10:27:33.000Z</Time>
            <Position>
              <LatitudeDegrees>43.0334715731441974639892578125</LatitudeDegrees>
              <LongitudeDegrees>0.55731785483658313751220703125</LongitudeDegrees>
            </Position>
            <AltitudeMeters>525</AltitudeMeters>
            <DistanceMeters>45798.560623558</DistanceMeters>
          </Trackpoint>
          <Trackpoint>
            <Time>2019-05-08T10:27:38.000Z</Time>
            <Position>
              <LatitudeDegrees>43.03349898196756839752197265625</LatitudeDegrees>
              <LongitudeDegrees>0.5578620918095111846923828125</LongitudeDegrees>
            </Position>
            <AltitudeMeters>521.5999755859375</AltitudeMeters>
            <DistanceMeters>45842.942880769</DistanceMeters>
          </Trackpoint>
          <Trackpoint>
            <Time>2019-05-08T10:27:42.000Z</Time>
            <Position>
              <LatitudeDegrees>43.03350023925304412841796875</LatitudeDegrees>
              <LongitudeDegrees>0.55816526524722576141357421875</LongitudeDegrees>
            </Position>
            <AltitudeMeters>519.79998779296875</AltitudeMeters>
            <DistanceMeters>45867.608491857</DistanceMeters>
          </Trackpoint>
          <Trackpoint>
            <Time>2019-05-08T10:27:43.000Z</Time>
            <Position>
              <LatitudeDegrees>43.03350501693785190582275390625</LatitudeDegrees>
              <LongitudeDegrees>0.5582433007657527923583984375</LongitudeDegrees>
            </Position>
            <AltitudeMeters>519.79998779296875</AltitudeMeters>
            <DistanceMeters>45873.979535226</DistanceMeters>
          </Trackpoint>
          <Trackpoint>
            <Time>2019-05-08T10:27:45.000Z</Time>
            <Position>
              <LatitudeDegrees>43.0335134826600551605224609375</LatitudeDegrees>
              <LongitudeDegrees>0.5583864636719226837158203125</LongitudeDegrees>
            </Position>
            <AltitudeMeters>519.5999755859375</AltitudeMeters>
            <DistanceMeters>45885.664343989</DistanceMeters>
          </Trackpoint>
          <Trackpoint>
            <Time>2019-05-08T10:27:46.000Z</Time>
            <Position>
              <LatitudeDegrees>43.0335181765258312225341796875</LatitudeDegrees>
              <LongitudeDegrees>0.55846164934337139129638671875</LongitudeDegrees>
            </Position>
            <AltitudeMeters>519.5999755859375</AltitudeMeters>
            <DistanceMeters>45891.802952057</DistanceMeters>
          </Trackpoint>
          <Trackpoint>
            <Time>2019-05-08T10:27:48.000Z</Time>
            <Position>
              <LatitudeDegrees>43.0335399694740772247314453125</LatitudeDegrees>
              <LongitudeDegrees>0.5585950054228305816650390625</LongitudeDegrees>
            </Position>
            <AltitudeMeters>519.5999755859375</AltitudeMeters>
            <DistanceMeters>45902.91985928</DistanceMeters>
          </Trackpoint>
          <Trackpoint>
            <Time>2019-05-08T10:27:49.000Z</Time>
            <Position>
              <LatitudeDegrees>43.03355832584202289581298828125</LatitudeDegrees>
              <LongitudeDegrees>0.55865175090730190277099609375</LongitudeDegrees>
            </Position>
            <AltitudeMeters>520</AltitudeMeters>
            <DistanceMeters>45907.969704414</DistanceMeters>
          </Trackpoint>
          <Trackpoint>
            <Time>2019-05-08T10:27:52.000Z</Time>
            <Position>
              <LatitudeDegrees>43.03364231251180171966552734375</LatitudeDegrees>
              <LongitudeDegrees>0.5587784014642238616943359375</LongitudeDegrees>
            </Position>
            <AltitudeMeters>520</AltitudeMeters>
            <DistanceMeters>45921.88195292</DistanceMeters>
          </Trackpoint>
          <Trackpoint>
            <Time>2019-05-08T10:27:53.000Z</Time>
            <Position>
              <LatitudeDegrees>43.0336821265518665313720703125</LatitudeDegrees>
              <LongitudeDegrees>0.55881519801914691925048828125</LongitudeDegrees>
            </Position>
            <AltitudeMeters>520</AltitudeMeters>
            <DistanceMeters>45927.229686281</DistanceMeters>
          </Trackpoint>
          <Trackpoint>
            <Time>2019-05-08T10:27:55.000Z</Time>
            <Position>
              <LatitudeDegrees>43.0337464995682239532470703125</LatitudeDegrees>
              <LongitudeDegrees>0.55889717303216457366943359375</LongitudeDegrees>
            </Position>
            <AltitudeMeters>520</AltitudeMeters>
            <DistanceMeters>45937.017899145</DistanceMeters>
          </Trackpoint>
          <Trackpoint>
            <Time>2019-05-08T10:27:57.000Z</Time>
            <Position>
              <LatitudeDegrees>43.0337612517178058624267578125</LatitudeDegrees>
              <LongitudeDegrees>0.55900328792631626129150390625</LongitudeDegrees>
            </Position>
            <AltitudeMeters>519.79998779296875</AltitudeMeters>
            <DistanceMeters>45945.805686907</DistanceMeters>
          </Trackpoint>
          <Trackpoint>
            <Time>2019-05-08T10:27:59.000Z</Time>
            <Position>
              <LatitudeDegrees>43.033739961683750152587890625</LatitudeDegrees>
              <LongitudeDegrees>0.55911107920110225677490234375</LongitudeDegrees>
            </Position>
            <AltitudeMeters>520</AltitudeMeters>
            <DistanceMeters>45954.889564853</DistanceMeters>
          </Trackpoint>
          <Trackpoint>
            <Time>2019-05-08T10:28:00.000Z</Time>
            <Position>
              <LatitudeDegrees>43.03373216651380062103271484375</LatitudeDegrees>
              <LongitudeDegrees>0.5591549165546894073486328125</LongitudeDegrees>
            </Position>
            <AltitudeMeters>520</AltitudeMeters>
            <DistanceMeters>45958.558875957</DistanceMeters>
          </Trackpoint>
          <Trackpoint>
            <Time>2019-05-08T10:28:01.000Z</Time>
            <Position>
              <LatitudeDegrees>43.0337250418961048126220703125</LatitudeDegrees>
              <LongitudeDegrees>0.55919623933732509613037109375</LongitudeDegrees>
            </Position>
            <AltitudeMeters>520</AltitudeMeters>
            <DistanceMeters>45962.012675457</DistanceMeters>
          </Trackpoint>
          <Trackpoint>
            <Time>2019-05-08T10:28:03.000Z</Time>
            <Position>
              <LatitudeDegrees>43.0337082780897617340087890625</LatitudeDegrees>
              <LongitudeDegrees>0.55927737616002559661865234375</LongitudeDegrees>
            </Position>
            <AltitudeMeters>519.79998779296875</AltitudeMeters>
            <DistanceMeters>45968.871735033</DistanceMeters>
          </Trackpoint>
          <Trackpoint>
            <Time>2019-05-08T10:28:04.000Z</Time>
            <Position>
              <LatitudeDegrees>43.03370199166238307952880859375</LatitudeDegrees>
              <LongitudeDegrees>0.559311993420124053955078125</LongitudeDegrees>
            </Position>
            <AltitudeMeters>519.5999755859375</AltitudeMeters>
            <DistanceMeters>45971.774330651</DistanceMeters>
          </Trackpoint>
          <Trackpoint>
            <Time>2019-05-08T10:28:07.000Z</Time>
            <Position>
              <LatitudeDegrees>43.0336754210293292999267578125</LatitudeDegrees>
              <LongitudeDegrees>0.5594010092318058013916015625</LongitudeDegrees>
            </Position>
            <AltitudeMeters>519.4000244140625</AltitudeMeters>
            <DistanceMeters>45979.597170804</DistanceMeters>
          </Trackpoint>
          <Trackpoint>
            <Time>2019-05-08T10:28:08.000Z</Time>
            <Position>
              <LatitudeDegrees>43.03366519510746002197265625</LatitudeDegrees>
              <LongitudeDegrees>0.55942741222679615020751953125</LongitudeDegrees>
            </Position>
            <AltitudeMeters>519.4000244140625</AltitudeMeters>
            <DistanceMeters>45982.027329234</DistanceMeters>
          </Trackpoint>
          <Trackpoint>
            <Time>2019-05-08T10:28:10.000Z</Time>
            <Position>
              <LatitudeDegrees>43.0336546339094638824462890625</LatitudeDegrees>
              <LongitudeDegrees>0.55944568477571010589599609375</LongitudeDegrees>
            </Position>
            <AltitudeMeters>519.5999755859375</AltitudeMeters>
            <DistanceMeters>45983.923106232</DistanceMeters>
          </Trackpoint>
          <Trackpoint>
            <Time>2019-05-08T10:28:27.000Z</Time>
            <Position>
              <LatitudeDegrees>43.03362588398158550262451171875</LatitudeDegrees>
              <LongitudeDegrees>0.55952866561710834503173828125</LongitudeDegrees>
            </Position>
            <AltitudeMeters>519.5999755859375</AltitudeMeters>
            <DistanceMeters>45991.394043422</DistanceMeters>
          </Trackpoint>
          <Trackpoint>
            <Time>2019-05-08T10:28:28.000Z</Time>
            <Position>
              <LatitudeDegrees>43.0336130596697330474853515625</LatitudeDegrees>
              <LongitudeDegrees>0.5595569126307964324951171875</LongitudeDegrees>
            </Position>
            <AltitudeMeters>519.5999755859375</AltitudeMeters>
            <DistanceMeters>45994.101887966</DistanceMeters>
          </Trackpoint>
          <Trackpoint>
            <Time>2019-05-08T10:28:32.000Z</Time>
            <Position>
              <LatitudeDegrees>43.03353988565504550933837890625</LatitudeDegrees>
              <LongitudeDegrees>0.559700913727283477783203125</LongitudeDegrees>
            </Position>
            <AltitudeMeters>519.5999755859375</AltitudeMeters>
            <DistanceMeters>46008.370458444</DistanceMeters>
          </Trackpoint>
          <Trackpoint>
            <Time>2019-05-08T10:28:39.000Z</Time>
            <Position>
              <LatitudeDegrees>43.0334507860243320465087890625</LatitudeDegrees>
              <LongitudeDegrees>0.55995899252593517303466796875</LongitudeDegrees>
            </Position>
            <AltitudeMeters>519.5999755859375</AltitudeMeters>
            <DistanceMeters>46031.591223389</DistanceMeters>
          </Trackpoint>
          <Trackpoint>
            <Time>2019-05-08T10:28:41.000Z</Time>
            <Position>
              <LatitudeDegrees>43.03341717459261417388916015625</LatitudeDegrees>
              <LongitudeDegrees>0.56003384292125701904296875</LongitudeDegrees>
            </Position>
            <AltitudeMeters>519.5999755859375</AltitudeMeters>
            <DistanceMeters>46038.737838837</DistanceMeters>
          </Trackpoint>
          <Trackpoint>
            <Time>2019-05-08T10:28:44.000Z</Time>
            <Position>
              <LatitudeDegrees>43.03336487151682376861572265625</LatitudeDegrees>
              <LongitudeDegrees>0.56012637913227081298828125</LongitudeDegrees>
            </Position>
            <AltitudeMeters>519.79998779296875</AltitudeMeters>
            <DistanceMeters>46048.254279173</DistanceMeters>
          </Trackpoint>
          <Trackpoint>
            <Time>2019-05-08T10:28:45.000Z</Time>
            <Position>
              <LatitudeDegrees>43.03334735333919525146484375</LatitudeDegrees>
              <LongitudeDegrees>0.56015563197433948516845703125</LongitudeDegrees>
            </Position>
            <AltitudeMeters>520</AltitudeMeters>
            <DistanceMeters>46051.330562663</DistanceMeters>
          </Trackpoint>
          <Trackpoint>
            <Time>2019-05-08T10:28:48.000Z</Time>
            <Position>
              <LatitudeDegrees>43.03331742994487285614013671875</LatitudeDegrees>
              <LongitudeDegrees>0.560244061052799224853515625</LongitudeDegrees>
            </Position>
            <AltitudeMeters>520.4000244140625</AltitudeMeters>
            <DistanceMeters>46059.258319726</DistanceMeters>
          </Trackpoint>
          <Trackpoint>
            <Time>2019-05-08T10:28:50.000Z</Time>
            <Position>
              <LatitudeDegrees>43.0333059467375278472900390625</LatitudeDegrees>
              <LongitudeDegrees>0.56031740270555019378662109375</LongitudeDegrees>
            </Position>
            <AltitudeMeters>520.79998779296875</AltitudeMeters>
            <DistanceMeters>46065.360781136</DistanceMeters>
          </Trackpoint>
          <Trackpoint>
            <Time>2019-05-08T10:28:51.000Z</Time>
            <Position>
              <LatitudeDegrees>43.033296726644039154052734375</LatitudeDegrees>
              <LongitudeDegrees>0.560351349413394927978515625</LongitudeDegrees>
            </Position>
            <AltitudeMeters>521</AltitudeMeters>
            <DistanceMeters>46068.308141572</DistanceMeters>
          </Trackpoint>
          <Trackpoint>
            <Time>2019-05-08T10:28:54.000Z</Time>
            <Position>
              <LatitudeDegrees>43.033272922039031982421875</LatitudeDegrees>
              <LongitudeDegrees>0.56049115955829620361328125</LongitudeDegrees>
            </Position>
            <AltitudeMeters>522.20001220703125</AltitudeMeters>
            <DistanceMeters>46079.987539448</DistanceMeters>
          </Trackpoint>
          <Trackpoint>
            <Time>2019-05-08T10:28:56.000Z</Time>
            <Position>
              <LatitudeDegrees>43.03324216045439243316650390625</LatitudeDegrees>
              <LongitudeDegrees>0.56057807989418506622314453125</LongitudeDegrees>
            </Position>
            <AltitudeMeters>522.5999755859375</AltitudeMeters>
            <DistanceMeters>46087.844358307</DistanceMeters>
          </Trackpoint>
          <Trackpoint>
            <Time>2019-05-08T10:28:59.000Z</Time>
            <Position>
              <LatitudeDegrees>43.03320393897593021392822265625</LatitudeDegrees>
              <LongitudeDegrees>0.56065611541271209716796875</LongitudeDegrees>
            </Position>
            <AltitudeMeters>523</AltitudeMeters>
            <DistanceMeters>46095.4867751</DistanceMeters>
          </Trackpoint>
          <Trackpoint>
            <Time>2019-05-08T10:29:04.000Z</Time>
            <Position>
              <LatitudeDegrees>43.03314828313887119293212890625</LatitudeDegrees>
              <LongitudeDegrees>0.56080975569784641265869140625</LongitudeDegrees>
            </Position>
            <AltitudeMeters>524.20001220703125</AltitudeMeters>
            <DistanceMeters>46109.43791368</DistanceMeters>
          </Trackpoint>
          <Trackpoint>
            <Time>2019-05-08T10:29:06.000Z</Time>
            <Position>
              <LatitudeDegrees>43.03312850184738636016845703125</LatitudeDegrees>
              <LongitudeDegrees>0.5608678422868251800537109375</LongitudeDegrees>
            </Position>
            <AltitudeMeters>524.5999755859375</AltitudeMeters>
            <DistanceMeters>46114.651408678</DistanceMeters>
          </Trackpoint>
          <Trackpoint>
            <Time>2019-05-08T10:29:09.000Z</Time>
            <Position>
              <LatitudeDegrees>43.03308474831283092498779296875</LatitudeDegrees>
              <LongitudeDegrees>0.5609345622360706329345703125</LongitudeDegrees>
            </Position>
            <AltitudeMeters>524.79998779296875</AltitudeMeters>
            <DistanceMeters>46121.944360772</DistanceMeters>
          </Trackpoint>
          <Trackpoint>
            <Time>2019-05-08T10:29:11.000Z</Time>
            <Position>
              <LatitudeDegrees>43.0330571718513965606689453125</LatitudeDegrees>
              <LongitudeDegrees>0.560986362397670745849609375</LongitudeDegrees>
            </Position>
            <AltitudeMeters>525</AltitudeMeters>
            <DistanceMeters>46127.157855771</DistanceMeters>
          </Trackpoint>
          <Trackpoint>
            <Time>2019-05-08T10:29:15.000Z</Time>
            <Position>
              <LatitudeDegrees>43.032986260950565338134765625</LatitudeDegrees>
              <LongitudeDegrees>0.561080239713191986083984375</LongitudeDegrees>
            </Position>
            <AltitudeMeters>525</AltitudeMeters>
            <DistanceMeters>46138.140740689</DistanceMeters>
          </Trackpoint>
          <Trackpoint>
            <Time>2019-05-08T10:29:17.000Z</Time>
            <Position>
              <LatitudeDegrees>43.03296673111617565155029296875</LatitudeDegrees>
              <LongitudeDegrees>0.561134554445743560791015625</LongitudeDegrees>
            </Position>
            <AltitudeMeters>525.4000244140625</AltitudeMeters>
            <DistanceMeters>46143.064738582</DistanceMeters>
          </Trackpoint>
          <Trackpoint>
            <Time>2019-05-08T10:29:21.000Z</Time>
            <Position>
              <LatitudeDegrees>43.03292515687644481658935546875</LatitudeDegrees>
              <LongitudeDegrees>0.5612668208777904510498046875</LongitudeDegrees>
            </Position>
            <AltitudeMeters>526.79998779296875</AltitudeMeters>
            <DistanceMeters>46154.778106223</DistanceMeters>
          </Trackpoint>
          <Trackpoint>
            <Time>2019-05-08T10:29:24.000Z</Time>
            <Position>
              <LatitudeDegrees>43.032887689769268035888671875</LatitudeDegrees>
              <LongitudeDegrees>0.56135642342269420623779296875</LongitudeDegrees>
            </Position>
            <AltitudeMeters>527.20001220703125</AltitudeMeters>
            <DistanceMeters>46163.176016501</DistanceMeters>
          </Trackpoint>
          <Trackpoint>
            <Time>2019-05-08T10:29:30.000Z</Time>
            <Position>
              <LatitudeDegrees>43.03281485103070735931396484375</LatitudeDegrees>
              <LongitudeDegrees>0.561501681804656982421875</LongitudeDegrees>
            </Position>
            <AltitudeMeters>527.5999755859375</AltitudeMeters>
            <DistanceMeters>46177.507733732</DistanceMeters>
          </Trackpoint>
          <Trackpoint>
            <Time>2019-05-08T10:29:34.000Z</Time>
            <Position>
              <LatitudeDegrees>43.03275349549949169158935546875</LatitudeDegrees>
              <LongitudeDegrees>0.56158591993153095245361328125</LongitudeDegrees>
            </Position>
            <AltitudeMeters>528.20001220703125</AltitudeMeters>
            <DistanceMeters>46187.18274135</DistanceMeters>
          </Trackpoint>
          <Trackpoint>
            <Time>2019-05-08T10:29:35.000Z</Time>
            <Position>
              <LatitudeDegrees>43.03274712525308132171630859375</LatitudeDegrees>
              <LongitudeDegrees>0.56159086525440216064453125</LongitudeDegrees>
            </Position>
            <AltitudeMeters>528</AltitudeMeters>
            <DistanceMeters>46188.000192056</DistanceMeters>
          </Trackpoint>
          <Trackpoint>
            <Time>2019-05-08T10:30:35.000Z</Time>
            <Position>
              <LatitudeDegrees>43.0323239229619503021240234375</LatitudeDegrees>
              <LongitudeDegrees>0.56215203367173671722412109375</LongitudeDegrees>
            </Position>
            <AltitudeMeters>534</AltitudeMeters>
            <DistanceMeters>46253.598641035</DistanceMeters>
          </Trackpoint>
          <Trackpoint>
            <Time>2019-05-08T10:30:36.000Z</Time>
            <Position>
              <LatitudeDegrees>43.03231160156428813934326171875</LatitudeDegrees>
              <LongitudeDegrees>0.56218019686639308929443359375</LongitudeDegrees>
            </Position>
            <AltitudeMeters>534.20001220703125</AltitudeMeters>
            <DistanceMeters>46256.269551065</DistanceMeters>
          </Trackpoint>
          <Trackpoint>
            <Time>2019-05-08T10:30:37.000Z</Time>
            <Position>
              <LatitudeDegrees>43.03229751996695995330810546875</LatitudeDegrees>
              <LongitudeDegrees>0.562211461365222930908203125</LongitudeDegrees>
            </Position>
            <AltitudeMeters>534.20001220703125</AltitudeMeters>
            <DistanceMeters>46259.257986375</DistanceMeters>
          </Trackpoint>
          <Trackpoint>
            <Time>2019-05-08T10:30:42.000Z</Time>
            <Position>
              <LatitudeDegrees>43.03218721412122249603271484375</LatitudeDegrees>
              <LongitudeDegrees>0.5623237788677215576171875</LongitudeDegrees>
            </Position>
            <AltitudeMeters>534.4000244140625</AltitudeMeters>
            <DistanceMeters>46274.562303505</DistanceMeters>
          </Trackpoint>
          <Trackpoint>
            <Time>2019-05-08T10:30:45.000Z</Time>
            <Position>
              <LatitudeDegrees>43.03209668956696987152099609375</LatitudeDegrees>
              <LongitudeDegrees>0.5624096095561981201171875</LongitudeDegrees>
            </Position>
            <AltitudeMeters>534.20001220703125</AltitudeMeters>
            <DistanceMeters>46286.821117974</DistanceMeters>
          </Trackpoint>
          <Trackpoint>
            <Time>2019-05-08T10:30:46.000Z</Time>
            <Position>
              <LatitudeDegrees>43.0320619046688079833984375</LatitudeDegrees>
              <LongitudeDegrees>0.56244623847305774688720703125</LongitudeDegrees>
            </Position>
            <AltitudeMeters>534.20001220703125</AltitudeMeters>
            <DistanceMeters>46291.707376472</DistanceMeters>
          </Trackpoint>
          <Trackpoint>
            <Time>2019-05-08T10:30:47.000Z</Time>
            <Position>
              <LatitudeDegrees>43.03202779032289981842041015625</LatitudeDegrees>
              <LongitudeDegrees>0.56247993372380733489990234375</LongitudeDegrees>
            </Position>
            <AltitudeMeters>534.20001220703125</AltitudeMeters>
            <DistanceMeters>46296.389793114</DistanceMeters>
          </Trackpoint>
          <Trackpoint>
            <Time>2019-05-08T10:30:49.000Z</Time>
            <Position>
              <LatitudeDegrees>43.031963668763637542724609375</LatitudeDegrees>
              <LongitudeDegrees>0.56254665367305278778076171875</LongitudeDegrees>
            </Position>
            <AltitudeMeters>534.20001220703125</AltitudeMeters>
            <DistanceMeters>46305.356609754</DistanceMeters>
          </Trackpoint>
          <Trackpoint>
            <Time>2019-05-08T10:30:51.000Z</Time>
            <Position>
              <LatitudeDegrees>43.03189485333859920501708984375</LatitudeDegrees>
              <LongitudeDegrees>0.5626035667955875396728515625</LongitudeDegrees>
            </Position>
            <AltitudeMeters>534</AltitudeMeters>
            <DistanceMeters>46314.307299013</DistanceMeters>
          </Trackpoint>
          <Trackpoint>
            <Time>2019-05-08T10:30:52.000Z</Time>
            <Position>
              <LatitudeDegrees>43.031869120895862579345703125</LatitudeDegrees>
              <LongitudeDegrees>0.5626337416470050811767578125</LongitudeDegrees>
            </Position>
            <AltitudeMeters>533.79998779296875</AltitudeMeters>
            <DistanceMeters>46318.077357411</DistanceMeters>
          </Trackpoint>
          <Trackpoint>
            <Time>2019-05-08T10:30:55.000Z</Time>
            <Position>
              <LatitudeDegrees>43.03178496658802032470703125</LatitudeDegrees>
              <LongitudeDegrees>0.562715716660022735595703125</LongitudeDegrees>
            </Position>
            <AltitudeMeters>532</AltitudeMeters>
            <DistanceMeters>46329.57558985</DistanceMeters>
          </Trackpoint>
          <Trackpoint>
            <Time>2019-05-08T10:30:57.000Z</Time>
            <Position>
              <LatitudeDegrees>43.03172922693192958831787109375</LatitudeDegrees>
              <LongitudeDegrees>0.56276625953614711761474609375</LongitudeDegrees>
            </Position>
            <AltitudeMeters>530.79998779296875</AltitudeMeters>
            <DistanceMeters>46337.018675163</DistanceMeters>
          </Trackpoint>
          <Trackpoint>
            <Time>2019-05-08T10:31:02.000Z</Time>
            <Position>
              <LatitudeDegrees>43.0316407978534698486328125</LatitudeDegrees>
              <LongitudeDegrees>0.56290690787136554718017578125</LongitudeDegrees>
            </Position>
            <AltitudeMeters>529</AltitudeMeters>
            <DistanceMeters>46352.112674921</DistanceMeters>
          </Trackpoint>
          <Trackpoint>
            <Time>2019-05-08T10:31:03.000Z</Time>
            <Position>
              <LatitudeDegrees>43.03163769654929637908935546875</LatitudeDegrees>
              <LongitudeDegrees>0.562928617000579833984375</LongitudeDegrees>
            </Position>
            <AltitudeMeters>528.79998779296875</AltitudeMeters>
            <DistanceMeters>46353.913174141</DistanceMeters>
          </Trackpoint>
          <Trackpoint>
            <Time>2019-05-08T10:31:04.000Z</Time>
            <Position>
              <LatitudeDegrees>43.03164557553827762603759765625</LatitudeDegrees>
              <LongitudeDegrees>0.56295610964298248291015625</LongitudeDegrees>
            </Position>
            <AltitudeMeters>528.79998779296875</AltitudeMeters>
            <DistanceMeters>46356.315302125</DistanceMeters>
          </Trackpoint>
          <Trackpoint>
            <Time>2019-05-08T10:31:05.000Z</Time>
            <Position>
              <LatitudeDegrees>43.03166066296398639678955078125</LatitudeDegrees>
              <LongitudeDegrees>0.5629901401698589324951171875</LongitudeDegrees>
            </Position>
            <AltitudeMeters>528.79998779296875</AltitudeMeters>
            <DistanceMeters>46359.554584272</DistanceMeters>
          </Trackpoint>
          <Trackpoint>
            <Time>2019-05-08T10:31:08.000Z</Time>
            <Position>
              <LatitudeDegrees>43.03171849809587001800537109375</LatitudeDegrees>
              <LongitudeDegrees>0.56310539133846759796142578125</LongitudeDegrees>
            </Position>
            <AltitudeMeters>528.5999755859375</AltitudeMeters>
            <DistanceMeters>46370.92805538</DistanceMeters>
          </Trackpoint>
          <Trackpoint>
            <Time>2019-05-08T10:31:11.000Z</Time>
            <Position>
              <LatitudeDegrees>43.03177868016064167022705078125</LatitudeDegrees>
              <LongitudeDegrees>0.56320781819522380828857421875</LongitudeDegrees>
            </Position>
            <AltitudeMeters>528.5999755859375</AltitudeMeters>
            <DistanceMeters>46381.620144408</DistanceMeters>
          </Trackpoint>
          <Trackpoint>
            <Time>2019-05-08T10:31:18.000Z</Time>
            <Position>
              <LatitudeDegrees>43.03193525411188602447509765625</LatitudeDegrees>
              <LongitudeDegrees>0.56340135633945465087890625</LongitudeDegrees>
            </Position>
            <AltitudeMeters>528.4000244140625</AltitudeMeters>
            <DistanceMeters>46405.107318993</DistanceMeters>
          </Trackpoint>
          <Trackpoint>
            <Time>2019-05-08T10:31:20.000Z</Time>
            <Position>
              <LatitudeDegrees>43.03197138011455535888671875</LatitudeDegrees>
              <LongitudeDegrees>0.56343647651374340057373046875</LongitudeDegrees>
            </Position>
            <AltitudeMeters>528.4000244140625</AltitudeMeters>
            <DistanceMeters>46410.041392978</DistanceMeters>
          </Trackpoint>
          <Trackpoint>
            <Time>2019-05-08T10:31:22.000Z</Time>
            <Position>
              <LatitudeDegrees>43.0319745652377605438232421875</LatitudeDegrees>
              <LongitudeDegrees>0.56344552896916866302490234375</LongitudeDegrees>
            </Position>
            <AltitudeMeters>528.4000244140625</AltitudeMeters>
            <DistanceMeters>46410.858843684</DistanceMeters>
          </Trackpoint>
          <Trackpoint>
            <Time>2019-05-08T10:31:30.000Z</Time>
            <Position>
              <LatitudeDegrees>43.0319360084831714630126953125</LatitudeDegrees>
              <LongitudeDegrees>0.5635175295174121856689453125</LongitudeDegrees>
            </Position>
            <AltitudeMeters>529.5999755859375</AltitudeMeters>
            <DistanceMeters>46418.119531412</DistanceMeters>
          </Trackpoint>
          <Trackpoint>
            <Time>2019-05-08T10:31:31.000Z</Time>
            <Position>
              <LatitudeDegrees>43.0319115333259105682373046875</LatitudeDegrees>
              <LongitudeDegrees>0.56354979984462261199951171875</LongitudeDegrees>
            </Position>
            <AltitudeMeters>529.5999755859375</AltitudeMeters>
            <DistanceMeters>46421.902740521</DistanceMeters>
          </Trackpoint>
          <Trackpoint>
            <Time>2019-05-08T10:31:32.000Z</Time>
            <Position>
              <LatitudeDegrees>43.03187959827482700347900390625</LatitudeDegrees>
              <LongitudeDegrees>0.563586764037609100341796875</LongitudeDegrees>
            </Position>
            <AltitudeMeters>529.4000244140625</AltitudeMeters>
            <DistanceMeters>46426.558079764</DistanceMeters>
          </Trackpoint>
          <Trackpoint>
            <Time>2019-05-08T10:31:34.000Z</Time>
            <Position>
              <LatitudeDegrees>43.0318015627562999725341796875</LatitudeDegrees>
              <LongitudeDegrees>0.56367418728768825531005859375</LongitudeDegrees>
            </Position>
            <AltitudeMeters>529.4000244140625</AltitudeMeters>
            <DistanceMeters>46437.784109643</DistanceMeters>
          </Trackpoint>
          <Trackpoint>
            <Time>2019-05-08T10:31:35.000Z</Time>
            <Position>
              <LatitudeDegrees>43.0317552946507930755615234375</LatitudeDegrees>
              <LongitudeDegrees>0.56371919810771942138671875</LongitudeDegrees>
            </Position>
            <AltitudeMeters>529.5999755859375</AltitudeMeters>
            <DistanceMeters>46444.103207525</DistanceMeters>
          </Trackpoint>
          <Trackpoint>
            <Time>2019-05-08T10:31:36.000Z</Time>
            <Position>
              <LatitudeDegrees>43.03171212784945964813232421875</LatitudeDegrees>
              <LongitudeDegrees>0.563761107623577117919921875</LongitudeDegrees>
            </Position>
            <AltitudeMeters>529.5999755859375</AltitudeMeters>
            <DistanceMeters>46449.994863815</DistanceMeters>
          </Trackpoint>
          <Trackpoint>
            <Time>2019-05-08T10:31:37.000Z</Time>
            <Position>
              <LatitudeDegrees>43.03166585974395275115966796875</LatitudeDegrees>
              <LongitudeDegrees>0.56378298439085483551025390625</LongitudeDegrees>
            </Position>
            <AltitudeMeters>529.5999755859375</AltitudeMeters>
            <DistanceMeters>46455.443798697</DistanceMeters>
          </Trackpoint>
          <Trackpoint>
            <Time>2019-05-08T10:31:39.000Z</Time>
            <Position>
              <LatitudeDegrees>43.03159511648118495941162109375</LatitudeDegrees>
              <LongitudeDegrees>0.56384149007499217987060546875</LongitudeDegrees>
            </Position>
            <AltitudeMeters>529.4000244140625</AltitudeMeters>
            <DistanceMeters>46464.644230023</DistanceMeters>
          </Trackpoint>
          <Trackpoint>
            <Time>2019-05-08T10:31:40.000Z</Time>
            <Position>
              <LatitudeDegrees>43.03156292997300624847412109375</LatitudeDegrees>
              <LongitudeDegrees>0.56386831216514110565185546875</LongitudeDegrees>
            </Position>
            <AltitudeMeters>529.20001220703125</AltitudeMeters>
            <DistanceMeters>46468.838343626</DistanceMeters>
          </Trackpoint>
          <Trackpoint>
            <Time>2019-05-08T10:31:45.000Z</Time>
            <Position>
              <LatitudeDegrees>43.03143401630222797393798828125</LatitudeDegrees>
              <LongitudeDegrees>0.56398096494376659393310546875</LongitudeDegrees>
            </Position>
            <AltitudeMeters>527.4000244140625</AltitudeMeters>
            <DistanceMeters>46485.864309502</DistanceMeters>
          </Trackpoint>
          <Trackpoint>
            <Time>2019-05-08T10:31:48.000Z</Time>
            <Position>
              <LatitudeDegrees>43.03137182258069515228271484375</LatitudeDegrees>
              <LongitudeDegrees>0.56405925191938877105712890625</LongitudeDegrees>
            </Position>
            <AltitudeMeters>527.20001220703125</AltitudeMeters>
            <DistanceMeters>46495.27147428</DistanceMeters>
          </Trackpoint>
          <Trackpoint>
            <Time>2019-05-08T10:31:50.000Z</Time>
            <Position>
              <LatitudeDegrees>43.03133703768253326416015625</LatitudeDegrees>
              <LongitudeDegrees>0.56410267017781734466552734375</LongitudeDegrees>
            </Position>
            <AltitudeMeters>527.20001220703125</AltitudeMeters>
            <DistanceMeters>46500.512608941</DistanceMeters>
          </Trackpoint>
          <Trackpoint>
            <Time>2019-05-08T10:31:51.000Z</Time>
            <Position>
              <LatitudeDegrees>43.031319938600063323974609375</LatitudeDegrees>
              <LongitudeDegrees>0.56412421166896820068359375</LongitudeDegrees>
            </Position>
            <AltitudeMeters>527.20001220703125</AltitudeMeters>
            <DistanceMeters>46503.099361083</DistanceMeters>
          </Trackpoint>
          <Trackpoint>
            <Time>2019-05-08T10:31:54.000Z</Time>
            <Position>
              <LatitudeDegrees>43.031270317733287811279296875</LatitudeDegrees>
              <LongitudeDegrees>0.564184896647930145263671875</LongitudeDegrees>
            </Position>
            <AltitudeMeters>527.20001220703125</AltitudeMeters>
            <DistanceMeters>46510.507179558</DistanceMeters>
          </Trackpoint>
          <Trackpoint>
            <Time>2019-05-08T10:31:56.000Z</Time>
            <Position>
              <LatitudeDegrees>43.03124877624213695526123046875</LatitudeDegrees>
              <LongitudeDegrees>0.56423611007630825042724609375</LongitudeDegrees>
            </Position>
            <AltitudeMeters>527.4000244140625</AltitudeMeters>
            <DistanceMeters>46515.315193253</DistanceMeters>
          </Trackpoint>
          <Trackpoint>
            <Time>2019-05-08T10:31:57.000Z</Time>
            <Position>
              <LatitudeDegrees>43.03123536519706249237060546875</LatitudeDegrees>
              <LongitudeDegrees>0.56426502764225006103515625</LongitudeDegrees>
            </Position>
            <AltitudeMeters>527.5999755859375</AltitudeMeters>
            <DistanceMeters>46518.101923549</DistanceMeters>
          </Trackpoint>
          <Trackpoint>
            <Time>2019-05-08T10:31:59.000Z</Time>
            <Position>
              <LatitudeDegrees>43.03120334632694721221923828125</LatitudeDegrees>
              <LongitudeDegrees>0.5643131397664546966552734375</LongitudeDegrees>
            </Position>
            <AltitudeMeters>529.4000244140625</AltitudeMeters>
            <DistanceMeters>46523.396199447</DistanceMeters>
          </Trackpoint>
          <Trackpoint>
            <Time>2019-05-08T10:32:01.000Z</Time>
            <Position>
              <LatitudeDegrees>43.0311621911823749542236328125</LatitudeDegrees>
              <LongitudeDegrees>0.56433870457112789154052734375</LongitudeDegrees>
            </Position>
            <AltitudeMeters>530.4000244140625</AltitudeMeters>
            <DistanceMeters>46528.427233563</DistanceMeters>
          </Trackpoint>
          <Trackpoint>
            <Time>2019-05-08T10:32:02.000Z</Time>
            <Position>
              <LatitudeDegrees>43.031138889491558074951171875</LatitudeDegrees>
              <LongitudeDegrees>0.5643396265804767608642578125</LongitudeDegrees>
            </Position>
            <AltitudeMeters>530.79998779296875</AltitudeMeters>
            <DistanceMeters>46531.022698266</DistanceMeters>
          </Trackpoint>
          <Trackpoint>
            <Time>2019-05-08T10:32:06.000Z</Time>
            <Position>
              <LatitudeDegrees>43.031025230884552001953125</LatitudeDegrees>
              <LongitudeDegrees>0.56434406898915767669677734375</LongitudeDegrees>
            </Position>
            <AltitudeMeters>531.4000244140625</AltitudeMeters>
            <DistanceMeters>46543.678030574</DistanceMeters>
          </Trackpoint>
          <Trackpoint>
            <Time>2019-05-08T10:32:08.000Z</Time>
            <Position>
              <LatitudeDegrees>43.03097200579941272735595703125</LatitudeDegrees>
              <LongitudeDegrees>0.56435245089232921600341796875</LongitudeDegrees>
            </Position>
            <AltitudeMeters>531.5999755859375</AltitudeMeters>
            <DistanceMeters>46549.641288159</DistanceMeters>
          </Trackpoint>
          <Trackpoint>
            <Time>2019-05-08T10:32:11.000Z</Time>
            <Position>
              <LatitudeDegrees>43.03090260364115238189697265625</LatitudeDegrees>
              <LongitudeDegrees>0.56435060687363147735595703125</LongitudeDegrees>
            </Position>
            <AltitudeMeters>531.5999755859375</AltitudeMeters>
            <DistanceMeters>46557.367141206</DistanceMeters>
          </Trackpoint>
          <Trackpoint>
            <Time>2019-05-08T10:32:15.000Z</Time>
            <Position>
              <LatitudeDegrees>43.03082146681845188140869140625</LatitudeDegrees>
              <LongitudeDegrees>0.5643506906926631927490234375</LongitudeDegrees>
            </Position>
            <AltitudeMeters>531.79998779296875</AltitudeMeters>
            <DistanceMeters>46566.398179377</DistanceMeters>
          </Trackpoint>
          <Trackpoint>
            <Time>2019-05-08T10:32:17.000Z</Time>
            <Position>
              <LatitudeDegrees>43.0307839997112751007080078125</LatitudeDegrees>
              <LongitudeDegrees>0.56434524245560169219970703125</LongitudeDegrees>
            </Position>
            <AltitudeMeters>532</AltitudeMeters>
            <DistanceMeters>46570.592292979</DistanceMeters>
          </Trackpoint>
          <Trackpoint>
            <Time>2019-05-08T10:32:22.000Z</Time>
            <Position>
              <LatitudeDegrees>43.03069456480443477630615234375</LatitudeDegrees>
              <LongitudeDegrees>0.56434792466461658477783203125</LongitudeDegrees>
            </Position>
            <AltitudeMeters>533.20001220703125</AltitudeMeters>
            <DistanceMeters>46580.54880739</DistanceMeters>
          </Trackpoint>
          <Trackpoint>
            <Time>2019-05-08T10:32:23.000Z</Time>
            <Position>
              <LatitudeDegrees>43.0306752026081085205078125</LatitudeDegrees>
              <LongitudeDegrees>0.5643547140061855316162109375</LongitudeDegrees>
            </Position>
            <AltitudeMeters>533.5999755859375</AltitudeMeters>
            <DistanceMeters>46582.777381383</DistanceMeters>
          </Trackpoint>
          <Trackpoint>
            <Time>2019-05-08T10:32:26.000Z</Time>
            <Position>
              <LatitudeDegrees>43.0306170322000980377197265625</LatitudeDegrees>
              <LongitudeDegrees>0.5643677897751331329345703125</LongitudeDegrees>
            </Position>
            <AltitudeMeters>534.5999755859375</AltitudeMeters>
            <DistanceMeters>46589.3390431</DistanceMeters>
          </Trackpoint>
          <Trackpoint>
            <Time>2019-05-08T10:32:27.000Z</Time>
            <Position>
              <LatitudeDegrees>43.0305955745279788970947265625</LatitudeDegrees>
              <LongitudeDegrees>0.56437759660184383392333984375</LongitudeDegrees>
            </Position>
            <AltitudeMeters>535.20001220703125</AltitudeMeters>
            <DistanceMeters>46591.856802752</DistanceMeters>
          </Trackpoint>
          <Trackpoint>
            <Time>2019-05-08T10:32:28.000Z</Time>
            <Position>
              <LatitudeDegrees>43.03057621233165264129638671875</LatitudeDegrees>
              <LongitudeDegrees>0.56438463740050792694091796875</LongitudeDegrees>
            </Position>
            <AltitudeMeters>535.5999755859375</AltitudeMeters>
            <DistanceMeters>46594.085376745</DistanceMeters>
          </Trackpoint>
          <Trackpoint>
            <Time>2019-05-08T10:32:32.000Z</Time>
            <Position>
              <LatitudeDegrees>43.03051418624818325042724609375</LatitudeDegrees>
              <LongitudeDegrees>0.5644073523581027984619140625</LongitudeDegrees>
            </Position>
            <AltitudeMeters>536.5999755859375</AltitudeMeters>
            <DistanceMeters>46601.231992193</DistanceMeters>
          </Trackpoint>
          <Trackpoint>
            <Time>2019-05-08T10:32:34.000Z</Time>
            <Position>
              <LatitudeDegrees>43.03048518486320972442626953125</LatitudeDegrees>
              <LongitudeDegrees>0.56441766209900379180908203125</LongitudeDegrees>
            </Position>
            <AltitudeMeters>536.79998779296875</AltitudeMeters>
            <DistanceMeters>46604.567416331</DistanceMeters>
          </Trackpoint>
          <Trackpoint>
            <Time>2019-05-08T10:32:35.000Z</Time>
            <Position>
              <LatitudeDegrees>43.03047068417072296142578125</LatitudeDegrees>
              <LongitudeDegrees>0.56442034430801868438720703125</LongitudeDegrees>
            </Position>
            <AltitudeMeters>537.4000244140625</AltitudeMeters>
            <DistanceMeters>46606.196785066</DistanceMeters>
          </Trackpoint>
          <Trackpoint>
            <Time>2019-05-08T10:32:40.000Z</Time>
            <Position>
              <LatitudeDegrees>43.03040807135403156280517578125</LatitudeDegrees>
              <LongitudeDegrees>0.56446057744324207305908203125</LongitudeDegrees>
            </Position>
            <AltitudeMeters>539.79998779296875</AltitudeMeters>
            <DistanceMeters>46613.896294911</DistanceMeters>
          </Trackpoint>
          <Trackpoint>
            <Time>2019-05-08T10:32:41.000Z</Time>
            <Position>
              <LatitudeDegrees>43.03039533086121082305908203125</LatitudeDegrees>
              <LongitudeDegrees>0.56446946226060390472412109375</LongitudeDegrees>
            </Position>
            <AltitudeMeters>540.20001220703125</AltitudeMeters>
            <DistanceMeters>46615.489232914</DistanceMeters>
          </Trackpoint>
          <Trackpoint>
            <Time>2019-05-08T10:32:43.000Z</Time>
            <Position>
              <LatitudeDegrees>43.03037554956972599029541015625</LatitudeDegrees>
              <LongitudeDegrees>0.5644834600389003753662109375</LongitudeDegrees>
            </Position>
            <AltitudeMeters>540.79998779296875</AltitudeMeters>
            <DistanceMeters>46617.969047838</DistanceMeters>
          </Trackpoint>
          <Trackpoint>
            <Time>2019-05-08T10:32:45.000Z</Time>
            <Position>
              <LatitudeDegrees>43.03035476244986057281494140625</LatitudeDegrees>
              <LongitudeDegrees>0.56450081057846546173095703125</LongitudeDegrees>
            </Position>
            <AltitudeMeters>541.4000244140625</AltitudeMeters>
            <DistanceMeters>46620.680225115</DistanceMeters>
          </Trackpoint>
          <Trackpoint>
            <Time>2019-05-08T10:32:47.000Z</Time>
            <Position>
              <LatitudeDegrees>43.03033196367323398590087890625</LatitudeDegrees>
              <LongitudeDegrees>0.5645139701664447784423828125</LongitudeDegrees>
            </Position>
            <AltitudeMeters>541.79998779296875</AltitudeMeters>
            <DistanceMeters>46623.435999832</DistanceMeters>
          </Trackpoint>
          <Trackpoint>
            <Time>2019-05-08T10:32:49.000Z</Time>
            <Position>
              <LatitudeDegrees>43.03030933253467082977294921875</LatitudeDegrees>
              <LongitudeDegrees>0.5645377747714519500732421875</LongitudeDegrees>
            </Position>
            <AltitudeMeters>542</AltitudeMeters>
            <DistanceMeters>46626.613361231</DistanceMeters>
          </Trackpoint>
          <Trackpoint>
            <Time>2019-05-08T10:32:53.000Z</Time>
            <Position>
              <LatitudeDegrees>43.03026222623884677886962890625</LatitudeDegrees>
              <LongitudeDegrees>0.56458245031535625457763671875</LongitudeDegrees>
            </Position>
            <AltitudeMeters>543.20001220703125</AltitudeMeters>
            <DistanceMeters>46632.992903106</DistanceMeters>
          </Trackpoint>
          <Trackpoint>
            <Time>2019-05-08T10:32:54.000Z</Time>
            <Position>
              <LatitudeDegrees>43.03025074303150177001953125</LatitudeDegrees>
              <LongitudeDegrees>0.5645880661904811859130859375</LongitudeDegrees>
            </Position>
            <AltitudeMeters>543.4000244140625</AltitudeMeters>
            <DistanceMeters>46634.350156065</DistanceMeters>
          </Trackpoint>
          <Trackpoint>
            <Time>2019-05-08T10:33:00.000Z</Time>
            <Position>
              <LatitudeDegrees>43.0301862023770809173583984375</LatitudeDegrees>
              <LongitudeDegrees>0.56467582471668720245361328125</LongitudeDegrees>
            </Position>
            <AltitudeMeters>545</AltitudeMeters>
            <DistanceMeters>46644.478416943</DistanceMeters>
          </Trackpoint>
          <Trackpoint>
            <Time>2019-05-08T10:33:01.000Z</Time>
            <Position>
              <LatitudeDegrees>43.03017488680779933929443359375</LatitudeDegrees>
              <LongitudeDegrees>0.56469124741852283477783203125</LongitudeDegrees>
            </Position>
            <AltitudeMeters>545.20001220703125</AltitudeMeters>
            <DistanceMeters>46646.256203981</DistanceMeters>
          </Trackpoint>
          <Trackpoint>
            <Time>2019-05-08T10:33:07.000Z</Time>
            <Position>
              <LatitudeDegrees>43.0300886370241641998291015625</LatitudeDegrees>
              <LongitudeDegrees>0.56478001177310943603515625</LongitudeDegrees>
            </Position>
            <AltitudeMeters>546.20001220703125</AltitudeMeters>
            <DistanceMeters>46658.269475048</DistanceMeters>
          </Trackpoint>
          <Trackpoint>
            <Time>2019-05-08T10:33:09.000Z</Time>
            <Position>
              <LatitudeDegrees>43.03005695343017578125</LatitudeDegrees>
              <LongitudeDegrees>0.56480071507394313812255859375</LongitudeDegrees>
            </Position>
            <AltitudeMeters>546.4000244140625</AltitudeMeters>
            <DistanceMeters>46662.178297037</DistanceMeters>
          </Trackpoint>
          <Trackpoint>
            <Time>2019-05-08T10:33:14.000Z</Time>
            <Position>
              <LatitudeDegrees>43.0299840308725833892822265625</LatitudeDegrees>
              <LongitudeDegrees>0.564870871603488922119140625</LongitudeDegrees>
            </Position>
            <AltitudeMeters>548</AltitudeMeters>
            <DistanceMeters>46672.101197498</DistanceMeters>
          </Trackpoint>
          <Trackpoint>
            <Time>2019-05-08T10:33:16.000Z</Time>
            <Position>
              <LatitudeDegrees>43.02996299229562282562255859375</LatitudeDegrees>
              <LongitudeDegrees>0.56490146555006504058837890625</LongitudeDegrees>
            </Position>
            <AltitudeMeters>548.4000244140625</AltitudeMeters>
            <DistanceMeters>46675.519518565</DistanceMeters>
          </Trackpoint>
          <Trackpoint>
            <Time>2019-05-08T10:33:21.000Z</Time>
            <Position>
              <LatitudeDegrees>43.02989895455539226531982421875</LatitudeDegrees>
              <LongitudeDegrees>0.56496642529964447021484375</LongitudeDegrees>
            </Position>
            <AltitudeMeters>549.4000244140625</AltitudeMeters>
            <DistanceMeters>46684.392184818</DistanceMeters>
          </Trackpoint>
          <Trackpoint>
            <Time>2019-05-08T10:33:27.000Z</Time>
            <Position>
              <LatitudeDegrees>43.02983768284320831298828125</LatitudeDegrees>
              <LongitudeDegrees>0.56504295207560062408447265625</LongitudeDegrees>
            </Position>
            <AltitudeMeters>550.20001220703125</AltitudeMeters>
            <DistanceMeters>46693.626904193</DistanceMeters>
          </Trackpoint>
          <Trackpoint>
            <Time>2019-05-08T10:33:28.000Z</Time>
            <Position>
              <LatitudeDegrees>43.029824607074260711669921875</LatitudeDegrees>
              <LongitudeDegrees>0.5650541000068187713623046875</LongitudeDegrees>
            </Position>
            <AltitudeMeters>550.4000244140625</AltitudeMeters>
            <DistanceMeters>46695.340022649</DistanceMeters>
          </Trackpoint>
          <Trackpoint>
            <Time>2019-05-08T10:33:34.000Z</Time>
            <Position>
              <LatitudeDegrees>43.02975579164922237396240234375</LatitudeDegrees>
              <LongitudeDegrees>0.5651271902024745941162109375</LongitudeDegrees>
            </Position>
            <AltitudeMeters>550.5999755859375</AltitudeMeters>
            <DistanceMeters>46705.036473337</DistanceMeters>
          </Trackpoint>
          <Trackpoint>
            <Time>2019-05-08T10:33:36.000Z</Time>
            <Position>
              <LatitudeDegrees>43.0297298915684223175048828125</LatitudeDegrees>
              <LongitudeDegrees>0.5651526711881160736083984375</LongitudeDegrees>
            </Position>
            <AltitudeMeters>550.79998779296875</AltitudeMeters>
            <DistanceMeters>46708.586964389</DistanceMeters>
          </Trackpoint>
          <Trackpoint>
            <Time>2019-05-08T10:33:42.000Z</Time>
            <Position>
              <LatitudeDegrees>43.0296192504465579986572265625</LatitudeDegrees>
              <LongitudeDegrees>0.5652190558612346649169921875</LongitudeDegrees>
            </Position>
            <AltitudeMeters>551.20001220703125</AltitudeMeters>
            <DistanceMeters>46722.033832081</DistanceMeters>
          </Trackpoint>
          <Trackpoint>
            <Time>2019-05-08T10:33:43.000Z</Time>
            <Position>
              <LatitudeDegrees>43.0295974574983119964599609375</LatitudeDegrees>
              <LongitudeDegrees>0.565230958163738250732421875</LongitudeDegrees>
            </Position>
            <AltitudeMeters>551.4000244140625</AltitudeMeters>
            <DistanceMeters>46724.644906135</DistanceMeters>
          </Trackpoint>
          <Trackpoint>
            <Time>2019-05-08T10:33:49.000Z</Time>
            <Position>
              <LatitudeDegrees>43.0294854752719402313232421875</LatitudeDegrees>
              <LongitudeDegrees>0.565303377807140350341796875</LongitudeDegrees>
            </Position>
            <AltitudeMeters>551.5999755859375</AltitudeMeters>
            <DistanceMeters>46738.43131426</DistanceMeters>
          </Trackpoint>
          <Trackpoint>
            <Time>2019-05-08T10:33:50.000Z</Time>
            <Position>
              <LatitudeDegrees>43.02948337979614734649658203125</LatitudeDegrees>
              <LongitudeDegrees>0.56530346162617206573486328125</LongitudeDegrees>
            </Position>
            <AltitudeMeters>551.79998779296875</AltitudeMeters>
            <DistanceMeters>46738.664081222</DistanceMeters>
          </Trackpoint>
          <Trackpoint>
            <Time>2019-05-08T10:35:46.000Z</Time>
            <Position>
              <LatitudeDegrees>43.02943560294806957244873046875</LatitudeDegrees>
              <LongitudeDegrees>0.565338246524333953857421875</LongitudeDegrees>
            </Position>
            <AltitudeMeters>551.4000244140625</AltitudeMeters>
            <DistanceMeters>46744.688355222</DistanceMeters>
          </Trackpoint>
          <Trackpoint>
            <Time>2019-05-08T10:35:47.000Z</Time>
            <Position>
              <LatitudeDegrees>43.029412887990474700927734375</LatitudeDegrees>
              <LongitudeDegrees>0.565357021987438201904296875</LongitudeDegrees>
            </Position>
            <AltitudeMeters>551.5999755859375</AltitudeMeters>
            <DistanceMeters>46747.644892724</DistanceMeters>
          </Trackpoint>
          <Trackpoint>
            <Time>2019-05-08T10:35:48.000Z</Time>
            <Position>
              <LatitudeDegrees>43.0293855629861354827880859375</LatitudeDegrees>
              <LongitudeDegrees>0.56537135504186153411865234375</LongitudeDegrees>
            </Position>
            <AltitudeMeters>551.4000244140625</AltitudeMeters>
            <DistanceMeters>46750.903630194</DistanceMeters>
          </Trackpoint>
          <Trackpoint>
            <Time>2019-05-08T10:35:51.000Z</Time>
            <Position>
              <LatitudeDegrees>43.02927886135876178741455078125</LatitudeDegrees>
              <LongitudeDegrees>0.565405301749706268310546875</LongitudeDegrees>
            </Position>
            <AltitudeMeters>551.4000244140625</AltitudeMeters>
            <DistanceMeters>46763.09670932</DistanceMeters>
          </Trackpoint>
          <Trackpoint>
            <Time>2019-05-08T10:35:52.000Z</Time>
            <Position>
              <LatitudeDegrees>43.02923024632036685943603515625</LatitudeDegrees>
              <LongitudeDegrees>0.56541946716606616973876953125</LongitudeDegrees>
            </Position>
            <AltitudeMeters>551.4000244140625</AltitudeMeters>
            <DistanceMeters>46768.629516848</DistanceMeters>
          </Trackpoint>
          <Trackpoint>
            <Time>2019-05-08T10:35:53.000Z</Time>
            <Position>
              <LatitudeDegrees>43.0291760154068470001220703125</LatitudeDegrees>
              <LongitudeDegrees>0.56543103419244289398193359375</LongitudeDegrees>
            </Position>
            <AltitudeMeters>551.20001220703125</AltitudeMeters>
            <DistanceMeters>46774.738633473</DistanceMeters>
          </Trackpoint>
          <Trackpoint>
            <Time>2019-05-08T10:35:54.000Z</Time>
            <Position>
              <LatitudeDegrees>43.02911910228431224822998046875</LatitudeDegrees>
              <LongitudeDegrees>0.56543958373367786407470703125</LongitudeDegrees>
            </Position>
            <AltitudeMeters>551.20001220703125</AltitudeMeters>
            <DistanceMeters>46781.110385485</DistanceMeters>
          </Trackpoint>
          <Trackpoint>
            <Time>2019-05-08T10:35:58.000Z</Time>
            <Position>
              <LatitudeDegrees>43.02892036736011505126953125</LatitudeDegrees>
              <LongitudeDegrees>0.5654581077396869659423828125</LongitudeDegrees>
            </Position>
            <AltitudeMeters>550.20001220703125</AltitudeMeters>
            <DistanceMeters>46803.281158614</DistanceMeters>
          </Trackpoint>
          <Trackpoint>
            <Time>2019-05-08T10:36:00.000Z</Time>
            <Position>
              <LatitudeDegrees>43.02882087416946887969970703125</LatitudeDegrees>
              <LongitudeDegrees>0.565475039184093475341796875</LongitudeDegrees>
            </Position>
            <AltitudeMeters>549.4000244140625</AltitudeMeters>
            <DistanceMeters>46814.440224621</DistanceMeters>
          </Trackpoint>
          <Trackpoint>
            <Time>2019-05-08T10:36:01.000Z</Time>
            <Position>
              <LatitudeDegrees>43.02876287139952182769775390625</LatitudeDegrees>
              <LongitudeDegrees>0.56548836641013622283935546875</LongitudeDegrees>
            </Position>
            <AltitudeMeters>548.4000244140625</AltitudeMeters>
            <DistanceMeters>46820.986041051</DistanceMeters>
          </Trackpoint>
          <Trackpoint>
            <Time>2019-05-08T10:36:02.000Z</Time>
            <Position>
              <LatitudeDegrees>43.02870067767798900604248046875</LatitudeDegrees>
              <LongitudeDegrees>0.56549775414168834686279296875</LongitudeDegrees>
            </Position>
            <AltitudeMeters>547</AltitudeMeters>
            <DistanceMeters>46827.949625652</DistanceMeters>
          </Trackpoint>
          <Trackpoint>
            <Time>2019-05-08T10:36:03.000Z</Time>
            <Position>
              <LatitudeDegrees>43.0286308564245700836181640625</LatitudeDegrees>
              <LongitudeDegrees>0.5655067227780818939208984375</LongitudeDegrees>
            </Position>
            <AltitudeMeters>547</AltitudeMeters>
            <DistanceMeters>46835.755131771</DistanceMeters>
          </Trackpoint>
          <Trackpoint>
            <Time>2019-05-08T10:36:04.000Z</Time>
            <Position>
              <LatitudeDegrees>43.02855583839118480682373046875</LatitudeDegrees>
              <LongitudeDegrees>0.5655164457857608795166015625</LongitudeDegrees>
            </Position>
            <AltitudeMeters>546.5999755859375</AltitudeMeters>
            <DistanceMeters>46844.14228239</DistanceMeters>
          </Trackpoint>
          <Trackpoint>
            <Time>2019-05-08T10:36:08.000Z</Time>
            <Position>
              <LatitudeDegrees>43.0283086560666561126708984375</LatitudeDegrees>
              <LongitudeDegrees>0.56555843912065029144287109375</LongitudeDegrees>
            </Position>
            <AltitudeMeters>545.20001220703125</AltitudeMeters>
            <DistanceMeters>46871.865664695</DistanceMeters>
          </Trackpoint>
          <Trackpoint>
            <Time>2019-05-08T10:36:11.000Z</Time>
            <Position>
              <LatitudeDegrees>43.02815459668636322021484375</LatitudeDegrees>
              <LongitudeDegrees>0.56554134003818035125732421875</LongitudeDegrees>
            </Position>
            <AltitudeMeters>543</AltitudeMeters>
            <DistanceMeters>46889.068912219</DistanceMeters>
          </Trackpoint>
          <Trackpoint>
            <Time>2019-05-08T10:36:12.000Z</Time>
            <Position>
              <LatitudeDegrees>43.02811612375080585479736328125</LatitudeDegrees>
              <LongitudeDegrees>0.5655184574425220489501953125</LongitudeDegrees>
            </Position>
            <AltitudeMeters>541.79998779296875</AltitudeMeters>
            <DistanceMeters>46893.738776737</DistanceMeters>
          </Trackpoint>
          <Trackpoint>
            <Time>2019-05-08T10:36:16.000Z</Time>
            <Position>
              <LatitudeDegrees>43.02795954979956150054931640625</LatitudeDegrees>
              <LongitudeDegrees>0.56540094316005706787109375</LongitudeDegrees>
            </Position>
            <AltitudeMeters>539</AltitudeMeters>
            <DistanceMeters>46913.616630116</DistanceMeters>
          </Trackpoint>
          <Trackpoint>
            <Time>2019-05-08T10:36:18.000Z</Time>
            <Position>
              <LatitudeDegrees>43.02787187509238719940185546875</LatitudeDegrees>
              <LongitudeDegrees>0.5653605423867702484130859375</LongitudeDegrees>
            </Position>
            <AltitudeMeters>538.79998779296875</AltitudeMeters>
            <DistanceMeters>46923.913773293</DistanceMeters>
          </Trackpoint>
          <Trackpoint>
            <Time>2019-05-08T10:36:22.000Z</Time>
            <Position>
              <LatitudeDegrees>43.02774379961192607879638671875</LatitudeDegrees>
              <LongitudeDegrees>0.56529088877141475677490234375</LongitudeDegrees>
            </Position>
            <AltitudeMeters>538.79998779296875</AltitudeMeters>
            <DistanceMeters>46939.254334632</DistanceMeters>
          </Trackpoint>
          <Trackpoint>
            <Time>2019-05-08T10:36:23.000Z</Time>
            <Position>
              <LatitudeDegrees>43.02772150374948978424072265625</LatitudeDegrees>
              <LongitudeDegrees>0.5652742087841033935546875</LongitudeDegrees>
            </Position>
            <AltitudeMeters>538.5999755859375</AltitudeMeters>
            <DistanceMeters>46942.082876258</DistanceMeters>
          </Trackpoint>
          <Trackpoint>
            <Time>2019-05-08T10:36:26.000Z</Time>
            <Position>
              <LatitudeDegrees>43.02765034139156341552734375</LatitudeDegrees>
              <LongitudeDegrees>0.56522819213569164276123046875</LongitudeDegrees>
            </Position>
            <AltitudeMeters>538.79998779296875</AltitudeMeters>
            <DistanceMeters>46950.843906435</DistanceMeters>
          </Trackpoint>
          <Trackpoint>
            <Time>2019-05-08T10:36:29.000Z</Time>
            <Position>
              <LatitudeDegrees>43.0275992117822170257568359375</LatitudeDegrees>
              <LongitudeDegrees>0.56519483216106891632080078125</LongitudeDegrees>
            </Position>
            <AltitudeMeters>539</AltitudeMeters>
            <DistanceMeters>46957.149414074</DistanceMeters>
          </Trackpoint>
          <Trackpoint>
            <Time>2019-05-08T10:36:30.000Z</Time>
            <Position>
              <LatitudeDegrees>43.02758387289941310882568359375</LatitudeDegrees>
              <LongitudeDegrees>0.56518544442951679229736328125</LongitudeDegrees>
            </Position>
            <AltitudeMeters>539</AltitudeMeters>
            <DistanceMeters>46959.021223269</DistanceMeters>
          </Trackpoint>
          <Trackpoint>
            <Time>2019-05-08T10:36:34.000Z</Time>
            <Position>
              <LatitudeDegrees>43.0275043286383152008056640625</LatitudeDegrees>
              <LongitudeDegrees>0.565145798027515411376953125</LongitudeDegrees>
            </Position>
            <AltitudeMeters>539.4000244140625</AltitudeMeters>
            <DistanceMeters>46968.443734165</DistanceMeters>
          </Trackpoint>
          <Trackpoint>
            <Time>2019-05-08T10:36:35.000Z</Time>
            <Position>
              <LatitudeDegrees>43.02747733891010284423828125</LatitudeDegrees>
              <LongitudeDegrees>0.56514680385589599609375</LongitudeDegrees>
            </Position>
            <AltitudeMeters>539.4000244140625</AltitudeMeters>
            <DistanceMeters>46971.448742725</DistanceMeters>
          </Trackpoint>
          <Trackpoint>
            <Time>2019-05-08T10:36:36.000Z</Time>
            <Position>
              <LatitudeDegrees>43.02744557149708271026611328125</LatitudeDegrees>
              <LongitudeDegrees>0.565157867968082427978515625</LongitudeDegrees>
            </Position>
            <AltitudeMeters>539.5999755859375</AltitudeMeters>
            <DistanceMeters>46975.097075588</DistanceMeters>
          </Trackpoint>
          <Trackpoint>
            <Time>2019-05-08T10:36:37.000Z</Time>
            <Position>
              <LatitudeDegrees>43.02741288207471370697021484375</LatitudeDegrees>
              <LongitudeDegrees>0.5651838518679141998291015625</LongitudeDegrees>
            </Position>
            <AltitudeMeters>539.5999755859375</AltitudeMeters>
            <DistanceMeters>46979.305160652</DistanceMeters>
          </Trackpoint>
          <Trackpoint>
            <Time>2019-05-08T10:36:38.000Z</Time>
            <Position>
              <LatitudeDegrees>43.0273822881281375885009765625</LatitudeDegrees>
              <LongitudeDegrees>0.5652260966598987579345703125</LongitudeDegrees>
            </Position>
            <AltitudeMeters>539.4000244140625</AltitudeMeters>
            <DistanceMeters>46984.144064269</DistanceMeters>
          </Trackpoint>
          <Trackpoint>
            <Time>2019-05-08T10:36:39.000Z</Time>
            <Position>
              <LatitudeDegrees>43.027353622019290924072265625</LatitudeDegrees>
              <LongitudeDegrees>0.56527714245021343231201171875</LongitudeDegrees>
            </Position>
            <AltitudeMeters>539.4000244140625</AltitudeMeters>
            <DistanceMeters>46989.38088985</DistanceMeters>
          </Trackpoint>
          <Trackpoint>
            <Time>2019-05-08T10:36:43.000Z</Time>
            <Position>
              <LatitudeDegrees>43.027215488255023956298828125</LatitudeDegrees>
              <LongitudeDegrees>0.56553211994469165802001953125</LongitudeDegrees>
            </Position>
            <AltitudeMeters>539.4000244140625</AltitudeMeters>
            <DistanceMeters>47015.202989776</DistanceMeters>
          </Trackpoint>
          <Trackpoint>
            <Time>2019-05-08T10:36:44.000Z</Time>
            <Position>
              <LatitudeDegrees>43.02718439139425754547119140625</LatitudeDegrees>
              <LongitudeDegrees>0.565584339201450347900390625</LongitudeDegrees>
            </Position>
            <AltitudeMeters>539.20001220703125</AltitudeMeters>
            <DistanceMeters>47020.683321359</DistanceMeters>
          </Trackpoint>
          <Trackpoint>
            <Time>2019-05-08T10:36:46.000Z</Time>
            <Position>
              <LatitudeDegrees>43.02711121737957000732421875</LatitudeDegrees>
              <LongitudeDegrees>0.56564695201814174652099609375</LongitudeDegrees>
            </Position>
            <AltitudeMeters>539</AltitudeMeters>
            <DistanceMeters>47030.289953508</DistanceMeters>
          </Trackpoint>
          <Trackpoint>
            <Time>2019-05-08T10:36:47.000Z</Time>
            <Position>
              <LatitudeDegrees>43.027071319520473480224609375</LatitudeDegrees>
              <LongitudeDegrees>0.56566203944385051727294921875</LongitudeDegrees>
            </Position>
            <AltitudeMeters>538.5999755859375</AltitudeMeters>
            <DistanceMeters>47034.898504235</DistanceMeters>
          </Trackpoint>
          <Trackpoint>
            <Time>2019-05-08T10:36:49.000Z</Time>
            <Position>
              <LatitudeDegrees>43.0269987322390079498291015625</LatitudeDegrees>
              <LongitudeDegrees>0.5656716786324977874755859375</LongitudeDegrees>
            </Position>
            <AltitudeMeters>537.79998779296875</AltitudeMeters>
            <DistanceMeters>47043.015365558</DistanceMeters>
          </Trackpoint>
          <Trackpoint>
            <Time>2019-05-08T10:36:52.000Z</Time>
            <Position>
              <LatitudeDegrees>43.02690736949443817138671875</LatitudeDegrees>
              <LongitudeDegrees>0.56568416766822338104248046875</LongitudeDegrees>
            </Position>
            <AltitudeMeters>537.4000244140625</AltitudeMeters>
            <DistanceMeters>47053.23416216</DistanceMeters>
          </Trackpoint>
          <Trackpoint>
            <Time>2019-05-08T10:36:59.000Z</Time>
            <Position>
              <LatitudeDegrees>43.026690445840358734130859375</LatitudeDegrees>
              <LongitudeDegrees>0.565713085234165191650390625</LongitudeDegrees>
            </Position>
            <AltitudeMeters>537.20001220703125</AltitudeMeters>
            <DistanceMeters>47077.492604437</DistanceMeters>
          </Trackpoint>
          <Trackpoint>
            <Time>2019-05-08T10:37:04.000Z</Time>
            <Position>
              <LatitudeDegrees>43.02655893377959728240966796875</LatitudeDegrees>
              <LongitudeDegrees>0.56575558148324489593505859375</LongitudeDegrees>
            </Position>
            <AltitudeMeters>537.4000244140625</AltitudeMeters>
            <DistanceMeters>47092.532664773</DistanceMeters>
          </Trackpoint>
          <Trackpoint>
            <Time>2019-05-08T10:37:05.000Z</Time>
            <Position>
              <LatitudeDegrees>43.0265446007251739501953125</LatitudeDegrees>
              <LongitudeDegrees>0.5657722614705562591552734375</LongitudeDegrees>
            </Position>
            <AltitudeMeters>537.5999755859375</AltitudeMeters>
            <DistanceMeters>47094.627567432</DistanceMeters>
          </Trackpoint>
          <Trackpoint>
            <Time>2019-05-08T10:37:11.000Z</Time>
            <Position>
              <LatitudeDegrees>43.02644795738160610198974609375</LatitudeDegrees>
              <LongitudeDegrees>0.56591751985251903533935546875</LongitudeDegrees>
            </Position>
            <AltitudeMeters>538.20001220703125</AltitudeMeters>
            <DistanceMeters>47110.609015494</DistanceMeters>
          </Trackpoint>
          <Trackpoint>
            <Time>2019-05-08T10:37:12.000Z</Time>
            <Position>
              <LatitudeDegrees>43.026430271565914154052734375</LatitudeDegrees>
              <LongitudeDegrees>0.56596244685351848602294921875</LongitudeDegrees>
            </Position>
            <AltitudeMeters>538.20001220703125</AltitudeMeters>
            <DistanceMeters>47114.762019949</DistanceMeters>
          </Trackpoint>
          <Trackpoint>
            <Time>2019-05-08T10:37:14.000Z</Time>
            <Position>
              <LatitudeDegrees>43.0263917148113250732421875</LatitudeDegrees>
              <LongitudeDegrees>0.56605967693030834197998046875</LongitudeDegrees>
            </Position>
            <AltitudeMeters>538.20001220703125</AltitudeMeters>
            <DistanceMeters>47123.762509701</DistanceMeters>
          </Trackpoint>
          <Trackpoint>
            <Time>2019-05-08T10:37:17.000Z</Time>
            <Position>
              <LatitudeDegrees>43.02631116472184658050537109375</LatitudeDegrees>
              <LongitudeDegrees>0.5662128143012523651123046875</LongitudeDegrees>
            </Position>
            <AltitudeMeters>538.20001220703125</AltitudeMeters>
            <DistanceMeters>47139.112780537</DistanceMeters>
          </Trackpoint>
          <Trackpoint>
            <Time>2019-05-08T10:37:18.000Z</Time>
            <Position>
              <LatitudeDegrees>43.0262795649468898773193359375</LatitudeDegrees>
              <LongitudeDegrees>0.566269643604755401611328125</LongitudeDegrees>
            </Position>
            <AltitudeMeters>538.20001220703125</AltitudeMeters>
            <DistanceMeters>47144.922636452</DistanceMeters>
          </Trackpoint>
          <Trackpoint>
            <Time>2019-05-08T10:37:19.000Z</Time>
            <Position>
              <LatitudeDegrees>43.02624058909714221954345703125</LatitudeDegrees>
              <LongitudeDegrees>0.56631968356668949127197265625</LongitudeDegrees>
            </Position>
            <AltitudeMeters>538.20001220703125</AltitudeMeters>
            <DistanceMeters>47150.872249856</DistanceMeters>
          </Trackpoint>
          <Trackpoint>
            <Time>2019-05-08T10:37:21.000Z</Time>
            <Position>
              <LatitudeDegrees>43.02615174092352390289306640625</LatitudeDegrees>
              <LongitudeDegrees>0.56640677154064178466796875</LongitudeDegrees>
            </Position>
            <AltitudeMeters>537.79998779296875</AltitudeMeters>
            <DistanceMeters>47163.03789628</DistanceMeters>
          </Trackpoint>
          <Trackpoint>
            <Time>2019-05-08T10:37:25.000Z</Time>
            <Position>
              <LatitudeDegrees>43.02598946727812290191650390625</LatitudeDegrees>
              <LongitudeDegrees>0.5666070990264415740966796875</LongitudeDegrees>
            </Position>
            <AltitudeMeters>537.20001220703125</AltitudeMeters>
            <DistanceMeters>47187.366962245</DistanceMeters>
          </Trackpoint>
          <Trackpoint>
            <Time>2019-05-08T10:37:26.000Z</Time>
            <Position>
              <LatitudeDegrees>43.02596214227378368377685546875</LatitudeDegrees>
              <LongitudeDegrees>0.566672645509243011474609375</LongitudeDegrees>
            </Position>
            <AltitudeMeters>536.5999755859375</AltitudeMeters>
            <DistanceMeters>47193.505570312</DistanceMeters>
          </Trackpoint>
          <Trackpoint>
            <Time>2019-05-08T10:37:27.000Z</Time>
            <Position>
              <LatitudeDegrees>43.02594303153455257415771484375</LatitudeDegrees>
              <LongitudeDegrees>0.566747076809406280517578125</LongitudeDegrees>
            </Position>
            <AltitudeMeters>536.20001220703125</AltitudeMeters>
            <DistanceMeters>47199.92391969</DistanceMeters>
          </Trackpoint>
          <Trackpoint>
            <Time>2019-05-08T10:37:29.000Z</Time>
            <Position>
              <LatitudeDegrees>43.0259288661181926727294921875</LatitudeDegrees>
              <LongitudeDegrees>0.56690876372158527374267578125</LongitudeDegrees>
            </Position>
            <AltitudeMeters>535.79998779296875</AltitudeMeters>
            <DistanceMeters>47213.173928982</DistanceMeters>
          </Trackpoint>
          <Trackpoint>
            <Time>2019-05-08T10:37:30.000Z</Time>
            <Position>
              <LatitudeDegrees>43.0259288661181926727294921875</LatitudeDegrees>
              <LongitudeDegrees>0.5669903196394443511962890625</LongitudeDegrees>
            </Position>
            <AltitudeMeters>535.5999755859375</AltitudeMeters>
            <DistanceMeters>47219.809488698</DistanceMeters>
          </Trackpoint>
          <Trackpoint>
            <Time>2019-05-08T10:37:31.000Z</Time>
            <Position>
              <LatitudeDegrees>43.02593280561268329620361328125</LatitudeDegrees>
              <LongitudeDegrees>0.567071624100208282470703125</LongitudeDegrees>
            </Position>
            <AltitudeMeters>535.5999755859375</AltitudeMeters>
            <DistanceMeters>47226.439602733</DistanceMeters>
          </Trackpoint>
          <Trackpoint>
            <Time>2019-05-08T10:37:33.000Z</Time>
            <Position>
              <LatitudeDegrees>43.0259526707231998443603515625</LatitudeDegrees>
              <LongitudeDegrees>0.567221827805042266845703125</LongitudeDegrees>
            </Position>
            <AltitudeMeters>535.20001220703125</AltitudeMeters>
            <DistanceMeters>47238.859416171</DistanceMeters>
          </Trackpoint>
          <Trackpoint>
            <Time>2019-05-08T10:37:34.000Z</Time>
            <Position>
              <LatitudeDegrees>43.02595946006476879119873046875</LatitudeDegrees>
              <LongitudeDegrees>0.5672766454517841339111328125</LongitudeDegrees>
            </Position>
            <AltitudeMeters>535</AltitudeMeters>
            <DistanceMeters>47243.383925348</DistanceMeters>
          </Trackpoint>
          <Trackpoint>
            <Time>2019-05-08T10:37:36.000Z</Time>
            <Position>
              <LatitudeDegrees>43.025944121181964874267578125</LatitudeDegrees>
              <LongitudeDegrees>0.5673514120280742645263671875</LongitudeDegrees>
            </Position>
            <AltitudeMeters>534.20001220703125</AltitudeMeters>
            <DistanceMeters>47249.703737696</DistanceMeters>
          </Trackpoint>
          <Trackpoint>
            <Time>2019-05-08T10:37:37.000Z</Time>
            <Position>
              <LatitudeDegrees>43.02591629326343536376953125</LatitudeDegrees>
              <LongitudeDegrees>0.567359626293182373046875</LongitudeDegrees>
            </Position>
            <AltitudeMeters>534</AltitudeMeters>
            <DistanceMeters>47252.872561611</DistanceMeters>
          </Trackpoint>
          <Trackpoint>
            <Time>2019-05-08T10:37:38.000Z</Time>
            <Position>
              <LatitudeDegrees>43.02588335238397121429443359375</LatitudeDegrees>
              <LongitudeDegrees>0.56734495796263217926025390625</LongitudeDegrees>
            </Position>
            <AltitudeMeters>533.5999755859375</AltitudeMeters>
            <DistanceMeters>47256.730224891</DistanceMeters>
          </Trackpoint>
          <Trackpoint>
            <Time>2019-05-08T10:37:39.000Z</Time>
            <Position>
              <LatitudeDegrees>43.02585518918931484222412109375</LatitudeDegrees>
              <LongitudeDegrees>0.567306987941265106201171875</LongitudeDegrees>
            </Position>
            <AltitudeMeters>533.20001220703125</AltitudeMeters>
            <DistanceMeters>47261.131305891</DistanceMeters>
          </Trackpoint>
          <Trackpoint>
            <Time>2019-05-08T10:37:40.000Z</Time>
            <Position>
              <LatitudeDegrees>43.02583314478397369384765625</LatitudeDegrees>
              <LongitudeDegrees>0.5672468058764934539794921875</LongitudeDegrees>
            </Position>
            <AltitudeMeters>532.5999755859375</AltitudeMeters>
            <DistanceMeters>47266.608341033</DistanceMeters>
          </Trackpoint>
          <Trackpoint>
            <Time>2019-05-08T10:37:41.000Z</Time>
            <Position>
              <LatitudeDegrees>43.0258158780634403228759765625</LatitudeDegrees>
              <LongitudeDegrees>0.567168183624744415283203125</LongitudeDegrees>
            </Position>
            <AltitudeMeters>532</AltitudeMeters>
            <DistanceMeters>47273.288658226</DistanceMeters>
          </Trackpoint>
          <Trackpoint>
            <Time>2019-05-08T10:37:43.000Z</Time>
            <Position>
              <LatitudeDegrees>43.02579752169549465179443359375</LatitudeDegrees>
              <LongitudeDegrees>0.5669712089002132415771484375</LongitudeDegrees>
            </Position>
            <AltitudeMeters>531.5999755859375</AltitudeMeters>
            <DistanceMeters>47289.445435436</DistanceMeters>
          </Trackpoint>
          <Trackpoint>
            <Time>2019-05-08T10:37:44.000Z</Time>
            <Position>
              <LatitudeDegrees>43.02579064853489398956298828125</LatitudeDegrees>
              <LongitudeDegrees>0.56688210926949977874755859375</LongitudeDegrees>
            </Position>
            <AltitudeMeters>531.4000244140625</AltitudeMeters>
            <DistanceMeters>47296.735291393</DistanceMeters>
          </Trackpoint>
          <Trackpoint>
            <Time>2019-05-08T10:37:45.000Z</Time>
            <Position>
              <LatitudeDegrees>43.0257836915552616119384765625</LatitudeDegrees>
              <LongitudeDegrees>0.566813461482524871826171875</LongitudeDegrees>
            </Position>
            <AltitudeMeters>530.79998779296875</AltitudeMeters>
            <DistanceMeters>47302.374788644</DistanceMeters>
          </Trackpoint>
          <Trackpoint>
            <Time>2019-05-08T10:37:46.000Z</Time>
            <Position>
              <LatitudeDegrees>43.02577304653823375701904296875</LatitudeDegrees>
              <LongitudeDegrees>0.56677448563277721405029296875</LongitudeDegrees>
            </Position>
            <AltitudeMeters>530.4000244140625</AltitudeMeters>
            <DistanceMeters>47305.761261305</DistanceMeters>
          </Trackpoint>
          <Trackpoint>
            <Time>2019-05-08T10:37:47.000Z</Time>
            <Position>
              <LatitudeDegrees>43.0257551930844783782958984375</LatitudeDegrees>
              <LongitudeDegrees>0.56677264161407947540283203125</LongitudeDegrees>
            </Position>
            <AltitudeMeters>530</AltitudeMeters>
            <DistanceMeters>47307.756822306</DistanceMeters>
          </Trackpoint>
          <Trackpoint>
            <Time>2019-05-08T10:37:48.000Z</Time>
            <Position>
              <LatitudeDegrees>43.02573147229850292205810546875</LatitudeDegrees>
              <LongitudeDegrees>0.566803403198719024658203125</LongitudeDegrees>
            </Position>
            <AltitudeMeters>529.20001220703125</AltitudeMeters>
            <DistanceMeters>47311.395241203</DistanceMeters>
          </Trackpoint>
          <Trackpoint>
            <Time>2019-05-08T10:37:49.000Z</Time>
            <Position>
              <LatitudeDegrees>43.02570976316928863525390625</LatitudeDegrees>
              <LongitudeDegrees>0.5668749846518039703369140625</LongitudeDegrees>
            </Position>
            <AltitudeMeters>528.4000244140625</AltitudeMeters>
            <DistanceMeters>47317.701464848</DistanceMeters>
          </Trackpoint>
          <Trackpoint>
            <Time>2019-05-08T10:37:50.000Z</Time>
            <Position>
              <LatitudeDegrees>43.02569023333489894866943359375</LatitudeDegrees>
              <LongitudeDegrees>0.5669668503105640411376953125</LongitudeDegrees>
            </Position>
            <AltitudeMeters>526.79998779296875</AltitudeMeters>
            <DistanceMeters>47325.486699147</DistanceMeters>
          </Trackpoint>
          <Trackpoint>
            <Time>2019-05-08T10:37:51.000Z</Time>
            <Position>
              <LatitudeDegrees>43.0256653390824794769287109375</LatitudeDegrees>
              <LongitudeDegrees>0.56707941927015781402587890625</LongitudeDegrees>
            </Position>
            <AltitudeMeters>525.5999755859375</AltitudeMeters>
            <DistanceMeters>47335.056129915</DistanceMeters>
          </Trackpoint>
          <Trackpoint>
            <Time>2019-05-08T10:37:52.000Z</Time>
            <Position>
              <LatitudeDegrees>43.02563156001269817352294921875</LatitudeDegrees>
              <LongitudeDegrees>0.5672052316367626190185546875</LongitudeDegrees>
            </Position>
            <AltitudeMeters>524.4000244140625</AltitudeMeters>
            <DistanceMeters>47345.961454613</DistanceMeters>
          </Trackpoint>
          <Trackpoint>
            <Time>2019-05-08T10:37:53.000Z</Time>
            <Position>
              <LatitudeDegrees>43.02558411844074726104736328125</LatitudeDegrees>
              <LongitudeDegrees>0.5673192255198955535888671875</LongitudeDegrees>
            </Position>
            <AltitudeMeters>523.4000244140625</AltitudeMeters>
            <DistanceMeters>47356.634101157</DistanceMeters>
          </Trackpoint>
          <Trackpoint>
            <Time>2019-05-08T10:37:54.000Z</Time>
            <Position>
              <LatitudeDegrees>43.0255443044006824493408203125</LatitudeDegrees>
              <LongitudeDegrees>0.5674251727759838104248046875</LongitudeDegrees>
            </Position>
            <AltitudeMeters>522.4000244140625</AltitudeMeters>
            <DistanceMeters>47366.327757612</DistanceMeters>
          </Trackpoint>
          <Trackpoint>
            <Time>2019-05-08T10:37:55.000Z</Time>
            <Position>
              <LatitudeDegrees>43.02550834603607654571533203125</LatitudeDegrees>
              <LongitudeDegrees>0.5675210617482662200927734375</LongitudeDegrees>
            </Position>
            <AltitudeMeters>520.5999755859375</AltitudeMeters>
            <DistanceMeters>47375.097029589</DistanceMeters>
          </Trackpoint>
          <Trackpoint>
            <Time>2019-05-08T10:37:56.000Z</Time>
            <Position>
              <LatitudeDegrees>43.02549325861036777496337890625</LatitudeDegrees>
              <LongitudeDegrees>0.56761032901704311370849609375</LongitudeDegrees>
            </Position>
            <AltitudeMeters>519.79998779296875</AltitudeMeters>
            <DistanceMeters>47382.551631553</DistanceMeters>
          </Trackpoint>
          <Trackpoint>
            <Time>2019-05-08T10:37:57.000Z</Time>
            <Position>
              <LatitudeDegrees>43.02547012455761432647705078125</LatitudeDegrees>
              <LongitudeDegrees>0.5676917172968387603759765625</LongitudeDegrees>
            </Position>
            <AltitudeMeters>519</AltitudeMeters>
            <DistanceMeters>47389.656427631</DistanceMeters>
          </Trackpoint>
          <Trackpoint>
            <Time>2019-05-08T10:37:58.000Z</Time>
            <Position>
              <LatitudeDegrees>43.02547113038599491119384765625</LatitudeDegrees>
              <LongitudeDegrees>0.5677775479853153228759765625</LongitudeDegrees>
            </Position>
            <AltitudeMeters>517.5999755859375</AltitudeMeters>
            <DistanceMeters>47396.640729526</DistanceMeters>
          </Trackpoint>
          <Trackpoint>
            <Time>2019-05-08T10:37:59.000Z</Time>
            <Position>
              <LatitudeDegrees>43.025517649948596954345703125</LatitudeDegrees>
              <LongitudeDegrees>0.5678617022931575775146484375</LongitudeDegrees>
            </Position>
            <AltitudeMeters>515.79998779296875</AltitudeMeters>
            <DistanceMeters>47405.225276914</DistanceMeters>
          </Trackpoint>
          <Trackpoint>
            <Time>2019-05-08T10:38:00.000Z</Time>
            <Position>
              <LatitudeDegrees>43.02557540126144886016845703125</LatitudeDegrees>
              <LongitudeDegrees>0.567937307059764862060546875</LongitudeDegrees>
            </Position>
            <AltitudeMeters>513</AltitudeMeters>
            <DistanceMeters>47414.122335422</DistanceMeters>
          </Trackpoint>
          <Trackpoint>
            <Time>2019-05-08T10:38:01.000Z</Time>
            <Position>
              <LatitudeDegrees>43.0256445519626140594482421875</LatitudeDegrees>
              <LongitudeDegrees>0.56801517494022846221923828125</LongitudeDegrees>
            </Position>
            <AltitudeMeters>510.399993896484375</AltitudeMeters>
            <DistanceMeters>47424.09108616</DistanceMeters>
          </Trackpoint>
          <Trackpoint>
            <Time>2019-05-08T10:38:02.000Z</Time>
            <Position>
              <LatitudeDegrees>43.02570917643606662750244140625</LatitudeDegrees>
              <LongitudeDegrees>0.56809195317327976226806640625</LongitudeDegrees>
            </Position>
            <AltitudeMeters>508.600006103515625</AltitudeMeters>
            <DistanceMeters>47433.617958592</DistanceMeters>
          </Trackpoint>
          <Trackpoint>
            <Time>2019-05-08T10:38:04.000Z</Time>
            <Position>
              <LatitudeDegrees>43.02577941678464412689208984375</LatitudeDegrees>
              <LongitudeDegrees>0.56826864369213581085205078125</LongitudeDegrees>
            </Position>
            <AltitudeMeters>507</AltitudeMeters>
            <DistanceMeters>47449.982430689</DistanceMeters>
          </Trackpoint>
          <Trackpoint>
            <Time>2019-05-08T10:38:05.000Z</Time>
            <Position>
              <LatitudeDegrees>43.0257840268313884735107421875</LatitudeDegrees>
              <LongitudeDegrees>0.56836076080799102783203125</LongitudeDegrees>
            </Position>
            <AltitudeMeters>506.399993896484375</AltitudeMeters>
            <DistanceMeters>47457.494952089</DistanceMeters>
          </Trackpoint>
          <Trackpoint>
            <Time>2019-05-08T10:38:06.000Z</Time>
            <Position>
              <LatitudeDegrees>43.02577354945242404937744140625</LatitudeDegrees>
              <LongitudeDegrees>0.5684584937989711761474609375</LongitudeDegrees>
            </Position>
            <AltitudeMeters>505.600006103515625</AltitudeMeters>
            <DistanceMeters>47465.531875431</DistanceMeters>
          </Trackpoint>
          <Trackpoint>
            <Time>2019-05-08T10:38:07.000Z</Time>
            <Position>
              <LatitudeDegrees>43.02575896494090557098388671875</LatitudeDegrees>
              <LongitudeDegrees>0.568548850715160369873046875</LongitudeDegrees>
            </Position>
            <AltitudeMeters>505.20001220703125</AltitudeMeters>
            <DistanceMeters>47473.060606389</DistanceMeters>
          </Trackpoint>
          <Trackpoint>
            <Time>2019-05-08T10:38:10.000Z</Time>
            <Position>
              <LatitudeDegrees>43.025732226669788360595703125</LatitudeDegrees>
              <LongitudeDegrees>0.568745993077754974365234375</LongitudeDegrees>
            </Position>
            <AltitudeMeters>503</AltitudeMeters>
            <DistanceMeters>47489.375340014</DistanceMeters>
          </Trackpoint>
          <Trackpoint>
            <Time>2019-05-08T10:38:14.000Z</Time>
            <Position>
              <LatitudeDegrees>43.02571571432054042816162109375</LatitudeDegrees>
              <LongitudeDegrees>0.5689308978617191314697265625</LongitudeDegrees>
            </Position>
            <AltitudeMeters>501.600006103515625</AltitudeMeters>
            <DistanceMeters>47504.532622253</DistanceMeters>
          </Trackpoint>
          <Trackpoint>
            <Time>2019-05-08T10:38:16.000Z</Time>
            <Position>
              <LatitudeDegrees>43.0257008783519268035888671875</LatitudeDegrees>
              <LongitudeDegrees>0.56900558061897754669189453125</LongitudeDegrees>
            </Position>
            <AltitudeMeters>501.20001220703125</AltitudeMeters>
            <DistanceMeters>47510.829531469</DistanceMeters>
          </Trackpoint>
          <Trackpoint>
            <Time>2019-05-08T10:38:18.000Z</Time>
            <Position>
              <LatitudeDegrees>43.0256948433816432952880859375</LatitudeDegrees>
              <LongitudeDegrees>0.56907062418758869171142578125</LongitudeDegrees>
            </Position>
            <AltitudeMeters>501.20001220703125</AltitudeMeters>
            <DistanceMeters>47516.164585447</DistanceMeters>
          </Trackpoint>
          <Trackpoint>
            <Time>2019-05-08T10:38:21.000Z</Time>
            <Position>
              <LatitudeDegrees>43.02569543011486530303955078125</LatitudeDegrees>
              <LongitudeDegrees>0.569167099893093109130859375</LongitudeDegrees>
            </Position>
            <AltitudeMeters>501.20001220703125</AltitudeMeters>
            <DistanceMeters>47524.014505297</DistanceMeters>
          </Trackpoint>
          <Trackpoint>
            <Time>2019-05-08T10:38:24.000Z</Time>
            <Position>
              <LatitudeDegrees>43.02570800296962261199951171875</LatitudeDegrees>
              <LongitudeDegrees>0.5692608095705509185791015625</LongitudeDegrees>
            </Position>
            <AltitudeMeters>501.20001220703125</AltitudeMeters>
            <DistanceMeters>47531.766612026</DistanceMeters>
          </Trackpoint>
          <Trackpoint>
            <Time>2019-05-08T10:38:26.000Z</Time>
            <Position>
              <LatitudeDegrees>43.02571780979633331298828125</LatitudeDegrees>
              <LongitudeDegrees>0.56932426057755947113037109375</LongitudeDegrees>
            </Position>
            <AltitudeMeters>501.399993896484375</AltitudeMeters>
            <DistanceMeters>47537.043804059</DistanceMeters>
          </Trackpoint>
          <Trackpoint>
            <Time>2019-05-08T10:38:27.000Z</Time>
            <Position>
              <LatitudeDegrees>43.025723509490489959716796875</LatitudeDegrees>
              <LongitudeDegrees>0.569355525076389312744140625</LongitudeDegrees>
            </Position>
            <AltitudeMeters>501.600006103515625</AltitudeMeters>
            <DistanceMeters>47539.666954502</DistanceMeters>
          </Trackpoint>
          <Trackpoint>
            <Time>2019-05-08T10:38:29.000Z</Time>
            <Position>
              <LatitudeDegrees>43.02573733963072299957275390625</LatitudeDegrees>
              <LongitudeDegrees>0.56941545568406581878662109375</LongitudeDegrees>
            </Position>
            <AltitudeMeters>502</AltitudeMeters>
            <DistanceMeters>47544.780769261</DistanceMeters>
          </Trackpoint>
          <Trackpoint>
            <Time>2019-05-08T10:38:30.000Z</Time>
            <Position>
              <LatitudeDegrees>43.0257468111813068389892578125</LatitudeDegrees>
              <LongitudeDegrees>0.5694425292313098907470703125</LongitudeDegrees>
            </Position>
            <AltitudeMeters>502.20001220703125</AltitudeMeters>
            <DistanceMeters>47547.225745867</DistanceMeters>
          </Trackpoint>
          <Trackpoint>
            <Time>2019-05-08T10:38:31.000Z</Time>
            <Position>
              <LatitudeDegrees>43.02575561217963695526123046875</LatitudeDegrees>
              <LongitudeDegrees>0.56946625001728534698486328125</LongitudeDegrees>
            </Position>
            <AltitudeMeters>502.600006103515625</AltitudeMeters>
            <DistanceMeters>47549.390603755</DistanceMeters>
          </Trackpoint>
          <Trackpoint>
            <Time>2019-05-08T10:38:32.000Z</Time>
            <Position>
              <LatitudeDegrees>43.02575938403606414794921875</LatitudeDegrees>
              <LongitudeDegrees>0.5694799125194549560546875</LongitudeDegrees>
            </Position>
            <AltitudeMeters>503.399993896484375</AltitudeMeters>
            <DistanceMeters>47550.577487037</DistanceMeters>
          </Trackpoint>
          <Trackpoint>
            <Time>2019-05-08T10:38:34.000Z</Time>
            <Position>
              <LatitudeDegrees>43.0257561989128589630126953125</LatitudeDegrees>
              <LongitudeDegrees>0.56947966106235980987548828125</LongitudeDegrees>
            </Position>
            <AltitudeMeters>504.399993896484375</AltitudeMeters>
            <DistanceMeters>47550.933044445</DistanceMeters>
          </Trackpoint>
          <Trackpoint>
            <Time>2019-05-08T10:41:31.000Z</Time>
            <Position>
              <LatitudeDegrees>43.0262597836554050445556640625</LatitudeDegrees>
              <LongitudeDegrees>0.5700718425214290618896484375</LongitudeDegrees>
            </Position>
            <AltitudeMeters>524.4000244140625</AltitudeMeters>
            <DistanceMeters>47624.846970665</DistanceMeters>
          </Trackpoint>
          <Trackpoint>
            <Time>2019-05-08T10:41:32.000Z</Time>
            <Position>
              <LatitudeDegrees>43.02625358104705810546875</LatitudeDegrees>
              <LongitudeDegrees>0.5700480379164218902587890625</LongitudeDegrees>
            </Position>
            <AltitudeMeters>524.4000244140625</AltitudeMeters>
            <DistanceMeters>47626.902712812</DistanceMeters>
          </Trackpoint>
          <Trackpoint>
            <Time>2019-05-08T10:41:39.000Z</Time>
            <Position>
              <LatitudeDegrees>43.02622516639530658721923828125</LatitudeDegrees>
              <LongitudeDegrees>0.569865815341472625732421875</LongitudeDegrees>
            </Position>
            <AltitudeMeters>524.4000244140625</AltitudeMeters>
            <DistanceMeters>47642.06356918</DistanceMeters>
          </Trackpoint>
          <Trackpoint>
            <Time>2019-05-08T10:41:44.000Z</Time>
            <Position>
              <LatitudeDegrees>43.02621644921600818634033203125</LatitudeDegrees>
              <LongitudeDegrees>0.56972734630107879638671875</LongitudeDegrees>
            </Position>
            <AltitudeMeters>524.4000244140625</AltitudeMeters>
            <DistanceMeters>47653.372147455</DistanceMeters>
          </Trackpoint>
          <Trackpoint>
            <Time>2019-05-08T10:41:45.000Z</Time>
            <Position>
              <LatitudeDegrees>43.02620873786509037017822265625</LatitudeDegrees>
              <LongitudeDegrees>0.56970144622027873992919921875</LongitudeDegrees>
            </Position>
            <AltitudeMeters>524.5999755859375</AltitudeMeters>
            <DistanceMeters>47655.64882571</DistanceMeters>
          </Trackpoint>
          <Trackpoint>
            <Time>2019-05-08T10:41:49.000Z</Time>
            <Position>
              <LatitudeDegrees>43.02620270289480686187744140625</LatitudeDegrees>
              <LongitudeDegrees>0.56959415785968303680419921875</LongitudeDegrees>
            </Position>
            <AltitudeMeters>525</AltitudeMeters>
            <DistanceMeters>47664.404700824</DistanceMeters>
          </Trackpoint>
          <Trackpoint>
            <Time>2019-05-08T10:41:50.000Z</Time>
            <Position>
              <LatitudeDegrees>43.0262158624827861785888671875</LatitudeDegrees>
              <LongitudeDegrees>0.56957446038722991943359375</LongitudeDegrees>
            </Position>
            <AltitudeMeters>525</AltitudeMeters>
            <DistanceMeters>47666.575806511</DistanceMeters>
          </Trackpoint>
          <Trackpoint>
            <Time>2019-05-08T10:41:51.000Z</Time>
            <Position>
              <LatitudeDegrees>43.02623522467911243438720703125</LatitudeDegrees>
              <LongitudeDegrees>0.569564402103424072265625</LongitudeDegrees>
            </Position>
            <AltitudeMeters>525</AltitudeMeters>
            <DistanceMeters>47668.880081874</DistanceMeters>
          </Trackpoint>
          <Trackpoint>
            <Time>2019-05-08T10:41:54.000Z</Time>
            <Position>
              <LatitudeDegrees>43.0263023637235164642333984375</LatitudeDegrees>
              <LongitudeDegrees>0.56957957334816455841064453125</LongitudeDegrees>
            </Position>
            <AltitudeMeters>525.79998779296875</AltitudeMeters>
            <DistanceMeters>47676.453657355</DistanceMeters>
          </Trackpoint>
          <Trackpoint>
            <Time>2019-05-08T10:41:55.000Z</Time>
            <Position>
              <LatitudeDegrees>43.02632457576692104339599609375</LatitudeDegrees>
              <LongitudeDegrees>0.56958493776619434356689453125</LongitudeDegrees>
            </Position>
            <AltitudeMeters>525.79998779296875</AltitudeMeters>
            <DistanceMeters>47678.964233655</DistanceMeters>
          </Trackpoint>
          <Trackpoint>
            <Time>2019-05-08T10:41:59.000Z</Time>
            <Position>
              <LatitudeDegrees>43.02640353329479694366455078125</LatitudeDegrees>
              <LongitudeDegrees>0.56961192749440670013427734375</LongitudeDegrees>
            </Position>
            <AltitudeMeters>527</AltitudeMeters>
            <DistanceMeters>47688.022727164</DistanceMeters>
          </Trackpoint>
          <Trackpoint>
            <Time>2019-05-08T10:42:01.000Z</Time>
            <Position>
              <LatitudeDegrees>43.0264431796967983245849609375</LatitudeDegrees>
              <LongitudeDegrees>0.56963271461427211761474609375</LongitudeDegrees>
            </Position>
            <AltitudeMeters>527.4000244140625</AltitudeMeters>
            <DistanceMeters>47692.748336019</DistanceMeters>
          </Trackpoint>
          <Trackpoint>
            <Time>2019-05-08T10:42:08.000Z</Time>
            <Position>
              <LatitudeDegrees>43.02658240310847759246826171875</LatitudeDegrees>
              <LongitudeDegrees>0.5697100795805454254150390625</LongitudeDegrees>
            </Position>
            <AltitudeMeters>528</AltitudeMeters>
            <DistanceMeters>47709.473847615</DistanceMeters>
          </Trackpoint>
          <Trackpoint>
            <Time>2019-05-08T10:42:15.000Z</Time>
            <Position>
              <LatitudeDegrees>43.02673579193651676177978515625</LatitudeDegrees>
              <LongitudeDegrees>0.56983320973813533782958984375</LongitudeDegrees>
            </Position>
            <AltitudeMeters>528.20001220703125</AltitudeMeters>
            <DistanceMeters>47729.268849689</DistanceMeters>
          </Trackpoint>
          <Trackpoint>
            <Time>2019-05-08T10:42:17.000Z</Time>
            <Position>
              <LatitudeDegrees>43.02678071893751621246337890625</LatitudeDegrees>
              <LongitudeDegrees>0.56987830437719821929931640625</LongitudeDegrees>
            </Position>
            <AltitudeMeters>528.20001220703125</AltitudeMeters>
            <DistanceMeters>47735.471117472</DistanceMeters>
          </Trackpoint>
          <Trackpoint>
            <Time>2019-05-08T10:42:19.000Z</Time>
            <Position>
              <LatitudeDegrees>43.0268230475485324859619140625</LatitudeDegrees>
              <LongitudeDegrees>0.56992071680724620819091796875</LongitudeDegrees>
            </Position>
            <AltitudeMeters>528.5999755859375</AltitudeMeters>
            <DistanceMeters>47741.311202979</DistanceMeters>
          </Trackpoint>
          <Trackpoint>
            <Time>2019-05-08T10:42:23.000Z</Time>
            <Position>
              <LatitudeDegrees>43.02690544165670871734619140625</LatitudeDegrees>
              <LongitudeDegrees>0.569997243583202362060546875</LongitudeDegrees>
            </Position>
            <AltitudeMeters>529</AltitudeMeters>
            <DistanceMeters>47752.395571256</DistanceMeters>
          </Trackpoint>
          <Trackpoint>
            <Time>2019-05-08T10:42:27.000Z</Time>
            <Position>
              <LatitudeDegrees>43.0269916914403438568115234375</LatitudeDegrees>
              <LongitudeDegrees>0.57005055248737335205078125</LongitudeDegrees>
            </Position>
            <AltitudeMeters>530.20001220703125</AltitudeMeters>
            <DistanceMeters>47762.929830101</DistanceMeters>
          </Trackpoint>
          <Trackpoint>
            <Time>2019-05-08T10:42:28.000Z</Time>
            <Position>
              <LatitudeDegrees>43.0270144902169704437255859375</LatitudeDegrees>
              <LongitudeDegrees>0.57005801238119602203369140625</LongitudeDegrees>
            </Position>
            <AltitudeMeters>530.4000244140625</AltitudeMeters>
            <DistanceMeters>47765.539174394</DistanceMeters>
          </Trackpoint>
          <Trackpoint>
            <Time>2019-05-08T10:42:29.000Z</Time>
            <Position>
              <LatitudeDegrees>43.02703536115586757659912109375</LatitudeDegrees>
              <LongitudeDegrees>0.57006932795047760009765625</LongitudeDegrees>
            </Position>
            <AltitudeMeters>530.5999755859375</AltitudeMeters>
            <DistanceMeters>47768.038936963</DistanceMeters>
          </Trackpoint>
          <Trackpoint>
            <Time>2019-05-08T10:42:33.000Z</Time>
            <Position>
              <LatitudeDegrees>43.0271006561815738677978515625</LatitudeDegrees>
              <LongitudeDegrees>0.570154488086700439453125</LongitudeDegrees>
            </Position>
            <AltitudeMeters>532</AltitudeMeters>
            <DistanceMeters>47778.080342919</DistanceMeters>
          </Trackpoint>
          <Trackpoint>
            <Time>2019-05-08T10:42:35.000Z</Time>
            <Position>
              <LatitudeDegrees>43.02712596952915191650390625</LatitudeDegrees>
              <LongitudeDegrees>0.5701958946883678436279296875</LongitudeDegrees>
            </Position>
            <AltitudeMeters>532.5999755859375</AltitudeMeters>
            <DistanceMeters>47782.472181177</DistanceMeters>
          </Trackpoint>
          <Trackpoint>
            <Time>2019-05-08T10:42:37.000Z</Time>
            <Position>
              <LatitudeDegrees>43.02714281715452671051025390625</LatitudeDegrees>
              <LongitudeDegrees>0.570228584110736846923828125</LongitudeDegrees>
            </Position>
            <AltitudeMeters>533.20001220703125</AltitudeMeters>
            <DistanceMeters>47785.72675944</DistanceMeters>
          </Trackpoint>
          <Trackpoint>
            <Time>2019-05-08T10:42:43.000Z</Time>
            <Position>
              <LatitudeDegrees>43.02719193510711193084716796875</LatitudeDegrees>
              <LongitudeDegrees>0.570358335971832275390625</LongitudeDegrees>
            </Position>
            <AltitudeMeters>534</AltitudeMeters>
            <DistanceMeters>47797.615357191</DistanceMeters>
          </Trackpoint>
          <Trackpoint>
            <Time>2019-05-08T10:42:47.000Z</Time>
            <Position>
              <LatitudeDegrees>43.02723350934684276580810546875</LatitudeDegrees>
              <LongitudeDegrees>0.570460595190525054931640625</LongitudeDegrees>
            </Position>
            <AltitudeMeters>534.4000244140625</AltitudeMeters>
            <DistanceMeters>47807.136066584</DistanceMeters>
          </Trackpoint>
          <Trackpoint>
            <Time>2019-05-08T10:42:49.000Z</Time>
            <Position>
              <LatitudeDegrees>43.02724557928740978240966796875</LatitudeDegrees>
              <LongitudeDegrees>0.57050258852541446685791015625</LongitudeDegrees>
            </Position>
            <AltitudeMeters>534.5999755859375</AltitudeMeters>
            <DistanceMeters>47810.807837837</DistanceMeters>
          </Trackpoint>
          <Trackpoint>
            <Time>2019-05-08T10:42:54.000Z</Time>
            <Position>
              <LatitudeDegrees>43.0271586589515209197998046875</LatitudeDegrees>
              <LongitudeDegrees>0.57058758102357387542724609375</LongitudeDegrees>
            </Position>
            <AltitudeMeters>534.5999755859375</AltitudeMeters>
            <DistanceMeters>47822.700232771</DistanceMeters>
          </Trackpoint>
          <Trackpoint>
            <Time>2019-05-08T10:42:59.000Z</Time>
            <Position>
              <LatitudeDegrees>43.0270761810243129730224609375</LatitudeDegrees>
              <LongitudeDegrees>0.57066217996180057525634765625</LongitudeDegrees>
            </Position>
            <AltitudeMeters>535.20001220703125</AltitudeMeters>
            <DistanceMeters>47833.705704834</DistanceMeters>
          </Trackpoint>
          <Trackpoint>
            <Time>2019-05-08T10:43:00.000Z</Time>
            <Position>
              <LatitudeDegrees>43.02705489099025726318359375</LatitudeDegrees>
              <LongitudeDegrees>0.57065983302891254425048828125</LongitudeDegrees>
            </Position>
            <AltitudeMeters>535.20001220703125</AltitudeMeters>
            <DistanceMeters>47836.083272468</DistanceMeters>
          </Trackpoint>
          <Trackpoint>
            <Time>2019-05-08T10:43:04.000Z</Time>
            <Position>
              <LatitudeDegrees>43.02697635255753993988037109375</LatitudeDegrees>
              <LongitudeDegrees>0.57063804008066654205322265625</LongitudeDegrees>
            </Position>
            <AltitudeMeters>536.4000244140625</AltitudeMeters>
            <DistanceMeters>47845.002631945</DistanceMeters>
          </Trackpoint>
          <Trackpoint>
            <Time>2019-05-08T10:43:05.000Z</Time>
            <Position>
              <LatitudeDegrees>43.02696411497890949249267578125</LatitudeDegrees>
              <LongitudeDegrees>0.57062613777816295623779296875</LongitudeDegrees>
            </Position>
            <AltitudeMeters>536.79998779296875</AltitudeMeters>
            <DistanceMeters>47846.673049145</DistanceMeters>
          </Trackpoint>
          <Trackpoint>
            <Time>2019-05-08T10:43:09.000Z</Time>
            <Position>
              <LatitudeDegrees>43.02694047801196575164794921875</LatitudeDegrees>
              <LongitudeDegrees>0.570551790297031402587890625</LongitudeDegrees>
            </Position>
            <AltitudeMeters>537.5999755859375</AltitudeMeters>
            <DistanceMeters>47853.26902582</DistanceMeters>
          </Trackpoint>
          <Trackpoint>
            <Time>2019-05-08T10:43:12.000Z</Time>
            <Position>
              <LatitudeDegrees>43.02693863399326801300048828125</LatitudeDegrees>
              <LongitudeDegrees>0.5705341883003711700439453125</LongitudeDegrees>
            </Position>
            <AltitudeMeters>537.5999755859375</AltitudeMeters>
            <DistanceMeters>47854.716429612</DistanceMeters>
          </Trackpoint>
          <Trackpoint>
            <Time>2019-05-08T10:53:40.000Z</Time>
            <Position>
              <LatitudeDegrees>43.0269759334623813629150390625</LatitudeDegrees>
              <LongitudeDegrees>0.5706917680799961090087890625</LongitudeDegrees>
            </Position>
            <AltitudeMeters>533.20001220703125</AltitudeMeters>
            <DistanceMeters>47868.193482613</DistanceMeters>
          </Trackpoint>
          <Trackpoint>
            <Time>2019-05-08T10:53:41.000Z</Time>
            <Position>
              <LatitudeDegrees>43.026985488831996917724609375</LatitudeDegrees>
              <LongitudeDegrees>0.570705346763134002685546875</LongitudeDegrees>
            </Position>
            <AltitudeMeters>533.20001220703125</AltitudeMeters>
            <DistanceMeters>47869.725742341</DistanceMeters>
          </Trackpoint>
          <Trackpoint>
            <Time>2019-05-08T10:53:44.000Z</Time>
            <Position>
              <LatitudeDegrees>43.0270128138363361358642578125</LatitudeDegrees>
              <LongitudeDegrees>0.57074516080319881439208984375</LongitudeDegrees>
            </Position>
            <AltitudeMeters>533.20001220703125</AltitudeMeters>
            <DistanceMeters>47874.168685859</DistanceMeters>
          </Trackpoint>
          <Trackpoint>
            <Time>2019-05-08T10:53:46.000Z</Time>
            <Position>
              <LatitudeDegrees>43.02701407112181186676025390625</LatitudeDegrees>
              <LongitudeDegrees>0.5707507766783237457275390625</LongitudeDegrees>
            </Position>
            <AltitudeMeters>533.20001220703125</AltitudeMeters>
            <DistanceMeters>47874.65322893</DistanceMeters>
          </Trackpoint>
          <Trackpoint>
            <Time>2019-05-08T10:53:51.000Z</Time>
            <Position>
              <LatitudeDegrees>43.02702496759593486785888671875</LatitudeDegrees>
              <LongitudeDegrees>0.57079193182289600372314453125</LongitudeDegrees>
            </Position>
            <AltitudeMeters>533.20001220703125</AltitudeMeters>
            <DistanceMeters>47878.215146588</DistanceMeters>
          </Trackpoint>
          <Trackpoint>
            <Time>2019-05-08T10:53:53.000Z</Time>
            <Position>
              <LatitudeDegrees>43.02704541943967342376708984375</LatitudeDegrees>
              <LongitudeDegrees>0.5708433128893375396728515625</LongitudeDegrees>
            </Position>
            <AltitudeMeters>533.20001220703125</AltitudeMeters>
            <DistanceMeters>47882.975975495</DistanceMeters>
          </Trackpoint>
          <Trackpoint>
            <Time>2019-05-08T10:53:56.000Z</Time>
            <Position>
              <LatitudeDegrees>43.02707358263432979583740234375</LatitudeDegrees>
              <LongitudeDegrees>0.5709318257868289947509765625</LongitudeDegrees>
            </Position>
            <AltitudeMeters>533.20001220703125</AltitudeMeters>
            <DistanceMeters>47890.830495357</DistanceMeters>
          </Trackpoint>
          <Trackpoint>
            <Time>2019-05-08T10:53:59.000Z</Time>
            <Position>
              <LatitudeDegrees>43.02707995288074016571044921875</LatitudeDegrees>
              <LongitudeDegrees>0.570965521037578582763671875</LongitudeDegrees>
            </Position>
            <AltitudeMeters>532.79998779296875</AltitudeMeters>
            <DistanceMeters>47893.662227668</DistanceMeters>
          </Trackpoint>
          <Trackpoint>
            <Time>2019-05-08T10:54:28.000Z</Time>
            <Position>
              <LatitudeDegrees>43.02708313800394535064697265625</LatitudeDegrees>
              <LongitudeDegrees>0.57101170532405376434326171875</LongitudeDegrees>
            </Position>
            <AltitudeMeters>531.5999755859375</AltitudeMeters>
            <DistanceMeters>47897.437073443</DistanceMeters>
          </Trackpoint>
          <Trackpoint>
            <Time>2019-05-08T10:54:29.000Z</Time>
            <Position>
              <LatitudeDegrees>43.02708313800394535064697265625</LatitudeDegrees>
              <LongitudeDegrees>0.57104456238448619842529296875</LongitudeDegrees>
            </Position>
            <AltitudeMeters>531.5999755859375</AltitudeMeters>
            <DistanceMeters>47900.111362236</DistanceMeters>
          </Trackpoint>
          <Trackpoint>
            <Time>2019-05-08T10:54:30.000Z</Time>
            <Position>
              <LatitudeDegrees>43.02708213217556476593017578125</LatitudeDegrees>
              <LongitudeDegrees>0.57108596898615360260009765625</LongitudeDegrees>
            </Position>
            <AltitudeMeters>531.5999755859375</AltitudeMeters>
            <DistanceMeters>47903.48179784</DistanceMeters>
          </Trackpoint>
          <Trackpoint>
            <Time>2019-05-08T10:54:36.000Z</Time>
            <Position>
              <LatitudeDegrees>43.02702404558658599853515625</LatitudeDegrees>
              <LongitudeDegrees>0.571356453001499176025390625</LongitudeDegrees>
            </Position>
            <AltitudeMeters>531.4000244140625</AltitudeMeters>
            <DistanceMeters>47926.419876752</DistanceMeters>
          </Trackpoint>
          <Trackpoint>
            <Time>2019-05-08T10:54:37.000Z</Time>
            <Position>
              <LatitudeDegrees>43.0270047672092914581298828125</LatitudeDegrees>
              <LongitudeDegrees>0.57140909135341644287109375</LongitudeDegrees>
            </Position>
            <AltitudeMeters>531.4000244140625</AltitudeMeters>
            <DistanceMeters>47931.21001498</DistanceMeters>
          </Trackpoint>
          <Trackpoint>
            <Time>2019-05-08T10:54:40.000Z</Time>
            <Position>
              <LatitudeDegrees>43.0269844830036163330078125</LatitudeDegrees>
              <LongitudeDegrees>0.5715561099350452423095703125</LongitudeDegrees>
            </Position>
            <AltitudeMeters>530.20001220703125</AltitudeMeters>
            <DistanceMeters>47943.383081744</DistanceMeters>
          </Trackpoint>
          <Trackpoint>
            <Time>2019-05-08T10:54:41.000Z</Time>
            <Position>
              <LatitudeDegrees>43.02700501866638660430908203125</LatitudeDegrees>
              <LongitudeDegrees>0.57159550487995147705078125</LongitudeDegrees>
            </Position>
            <AltitudeMeters>530.20001220703125</AltitudeMeters>
            <DistanceMeters>47947.320675077</DistanceMeters>
          </Trackpoint>
          <Trackpoint>
            <Time>2019-05-08T10:54:44.000Z</Time>
            <Position>
              <LatitudeDegrees>43.02707458846271038055419921875</LatitudeDegrees>
              <LongitudeDegrees>0.571698434650897979736328125</LongitudeDegrees>
            </Position>
            <AltitudeMeters>529.79998779296875</AltitudeMeters>
            <DistanceMeters>47958.726256222</DistanceMeters>
          </Trackpoint>
          <Trackpoint>
            <Time>2019-05-08T10:54:45.000Z</Time>
            <Position>
              <LatitudeDegrees>43.02708196453750133514404296875</LatitudeDegrees>
              <LongitudeDegrees>0.5717354826629161834716796875</LongitudeDegrees>
            </Position>
            <AltitudeMeters>529.79998779296875</AltitudeMeters>
            <DistanceMeters>47961.849152724</DistanceMeters>
          </Trackpoint>
          <Trackpoint>
            <Time>2019-05-08T10:54:47.000Z</Time>
            <Position>
              <LatitudeDegrees>43.02706654183566570281982421875</LatitudeDegrees>
              <LongitudeDegrees>0.571811087429523468017578125</LongitudeDegrees>
            </Position>
            <AltitudeMeters>529.20001220703125</AltitudeMeters>
            <DistanceMeters>47968.235061055</DistanceMeters>
          </Trackpoint>
          <Trackpoint>
            <Time>2019-05-08T10:54:49.000Z</Time>
            <Position>
              <LatitudeDegrees>43.02703049965202808380126953125</LatitudeDegrees>
              <LongitudeDegrees>0.57187043130397796630859375</LongitudeDegrees>
            </Position>
            <AltitudeMeters>529</AltitudeMeters>
            <DistanceMeters>47974.511861476</DistanceMeters>
          </Trackpoint>
          <Trackpoint>
            <Time>2019-05-08T10:54:51.000Z</Time>
            <Position>
              <LatitudeDegrees>43.02699982188642024993896484375</LatitudeDegrees>
              <LongitudeDegrees>0.57192449457943439483642578125</LongitudeDegrees>
            </Position>
            <AltitudeMeters>528</AltitudeMeters>
            <DistanceMeters>47980.080459371</DistanceMeters>
          </Trackpoint>
          <Trackpoint>
            <Time>2019-05-08T10:54:57.000Z</Time>
            <Position>
              <LatitudeDegrees>43.02693578414618968963623046875</LatitudeDegrees>
              <LongitudeDegrees>0.572117865085601806640625</LongitudeDegrees>
            </Position>
            <AltitudeMeters>527.5999755859375</AltitudeMeters>
            <DistanceMeters>47997.353378224</DistanceMeters>
          </Trackpoint>
          <Trackpoint>
            <Time>2019-05-08T10:54:59.000Z</Time>
            <Position>
              <LatitudeDegrees>43.02690795622766017913818359375</LatitudeDegrees>
              <LongitudeDegrees>0.572176873683929443359375</LongitudeDegrees>
            </Position>
            <AltitudeMeters>527.4000244140625</AltitudeMeters>
            <DistanceMeters>48003.067637268</DistanceMeters>
          </Trackpoint>
          <Trackpoint>
            <Time>2019-05-08T10:55:01.000Z</Time>
            <Position>
              <LatitudeDegrees>43.02687811665236949920654296875</LatitudeDegrees>
              <LongitudeDegrees>0.57223345153033733367919921875</LongitudeDegrees>
            </Position>
            <AltitudeMeters>527.5999755859375</AltitudeMeters>
            <DistanceMeters>48008.743843109</DistanceMeters>
          </Trackpoint>
          <Trackpoint>
            <Time>2019-05-08T10:55:05.000Z</Time>
            <Position>
              <LatitudeDegrees>43.02681843750178813934326171875</LatitudeDegrees>
              <LongitudeDegrees>0.57231031358242034912109375</LongitudeDegrees>
            </Position>
            <AltitudeMeters>527.4000244140625</AltitudeMeters>
            <DistanceMeters>48017.866902606</DistanceMeters>
          </Trackpoint>
          <Trackpoint>
            <Time>2019-05-08T10:55:07.000Z</Time>
            <Position>
              <LatitudeDegrees>43.02681441418826580047607421875</LatitudeDegrees>
              <LongitudeDegrees>0.5723096430301666259765625</LongitudeDegrees>
            </Position>
            <AltitudeMeters>527.4000244140625</AltitudeMeters>
            <DistanceMeters>48018.322634718</DistanceMeters>
          </Trackpoint>
          <Trackpoint>
            <Time>2019-05-08T10:56:13.000Z</Time>
            <Position>
              <LatitudeDegrees>43.026821203529834747314453125</LatitudeDegrees>
              <LongitudeDegrees>0.5723922885954380035400390625</LongitudeDegrees>
            </Position>
            <AltitudeMeters>526.79998779296875</AltitudeMeters>
            <DistanceMeters>48025.088910472</DistanceMeters>
          </Trackpoint>
          <Trackpoint>
            <Time>2019-05-08T10:56:14.000Z</Time>
            <Position>
              <LatitudeDegrees>43.02682011388242244720458984375</LatitudeDegrees>
              <LongitudeDegrees>0.5724254809319972991943359375</LongitudeDegrees>
            </Position>
            <AltitudeMeters>526.5999755859375</AltitudeMeters>
            <DistanceMeters>48027.790077213</DistanceMeters>
          </Trackpoint>
          <Trackpoint>
            <Time>2019-05-08T10:56:17.000Z</Time>
            <Position>
              <LatitudeDegrees>43.026792705059051513671875</LatitudeDegrees>
              <LongitudeDegrees>0.572570152580738067626953125</LongitudeDegrees>
            </Position>
            <AltitudeMeters>526.5999755859375</AltitudeMeters>
            <DistanceMeters>48039.950155411</DistanceMeters>
          </Trackpoint>
          <Trackpoint>
            <Time>2019-05-08T10:56:18.000Z</Time>
            <Position>
              <LatitudeDegrees>43.02678222768008708953857421875</LatitudeDegrees>
              <LongitudeDegrees>0.572637207806110382080078125</LongitudeDegrees>
            </Position>
            <AltitudeMeters>526.5999755859375</AltitudeMeters>
            <DistanceMeters>48045.529283793</DistanceMeters>
          </Trackpoint>
          <Trackpoint>
            <Time>2019-05-08T10:56:19.000Z</Time>
            <Position>
              <LatitudeDegrees>43.02676764316856861114501953125</LatitudeDegrees>
              <LongitudeDegrees>0.5727081187069416046142578125</LongitudeDegrees>
            </Position>
            <AltitudeMeters>526.4000244140625</AltitudeMeters>
            <DistanceMeters>48051.522750577</DistanceMeters>
          </Trackpoint>
          <Trackpoint>
            <Time>2019-05-08T10:56:22.000Z</Time>
            <Position>
              <LatitudeDegrees>43.02671651355922222137451171875</LatitudeDegrees>
              <LongitudeDegrees>0.5728836357593536376953125</LongitudeDegrees>
            </Position>
            <AltitudeMeters>526.20001220703125</AltitudeMeters>
            <DistanceMeters>48066.895359352</DistanceMeters>
          </Trackpoint>
          <Trackpoint>
            <Time>2019-05-08T10:56:23.000Z</Time>
            <Position>
              <LatitudeDegrees>43.02670092321932315826416015625</LatitudeDegrees>
              <LongitudeDegrees>0.57291515171527862548828125</LongitudeDegrees>
            </Position>
            <AltitudeMeters>526.20001220703125</AltitudeMeters>
            <DistanceMeters>48069.989205022</DistanceMeters>
          </Trackpoint>
          <Trackpoint>
            <Time>2019-05-08T10:56:26.000Z</Time>
            <Position>
              <LatitudeDegrees>43.02667980082333087921142578125</LatitudeDegrees>
              <LongitudeDegrees>0.57297793217003345489501953125</LongitudeDegrees>
            </Position>
            <AltitudeMeters>525</AltitudeMeters>
            <DistanceMeters>48075.612667274</DistanceMeters>
          </Trackpoint>
          <Trackpoint>
            <Time>2019-05-08T10:56:28.000Z</Time>
            <Position>
              <LatitudeDegrees>43.02666605450212955474853515625</LatitudeDegrees>
              <LongitudeDegrees>0.57302235625684261322021484375</LongitudeDegrees>
            </Position>
            <AltitudeMeters>523.79998779296875</AltitudeMeters>
            <DistanceMeters>48079.5376272</DistanceMeters>
          </Trackpoint>
          <Trackpoint>
            <Time>2019-05-08T10:56:31.000Z</Time>
            <Position>
              <LatitudeDegrees>43.02665448747575283050537109375</LatitudeDegrees>
              <LongitudeDegrees>0.573050938546657562255859375</LongitudeDegrees>
            </Position>
            <AltitudeMeters>522.4000244140625</AltitudeMeters>
            <DistanceMeters>48082.194979223</DistanceMeters>
          </Trackpoint>
          <Trackpoint>
            <Time>2019-05-08T10:57:34.000Z</Time>
            <Position>
              <LatitudeDegrees>43.0267296731472015380859375</LatitudeDegrees>
              <LongitudeDegrees>0.57308773510158061981201171875</LongitudeDegrees>
            </Position>
            <AltitudeMeters>521.20001220703125</AltitudeMeters>
            <DistanceMeters>48091.081882429</DistanceMeters>
          </Trackpoint>
          <Trackpoint>
            <Time>2019-05-08T10:57:37.000Z</Time>
            <Position>
              <LatitudeDegrees>43.0268398113548755645751953125</LatitudeDegrees>
              <LongitudeDegrees>0.57312704622745513916015625</LongitudeDegrees>
            </Position>
            <AltitudeMeters>521.4000244140625</AltitudeMeters>
            <DistanceMeters>48103.750764728</DistanceMeters>
          </Trackpoint>
          <Trackpoint>
            <Time>2019-05-08T10:57:38.000Z</Time>
            <Position>
              <LatitudeDegrees>43.026888258755207061767578125</LatitudeDegrees>
              <LongitudeDegrees>0.5731298960745334625244140625</LongitudeDegrees>
            </Position>
            <AltitudeMeters>521.20001220703125</AltitudeMeters>
            <DistanceMeters>48109.147244741</DistanceMeters>
          </Trackpoint>
          <Trackpoint>
            <Time>2019-05-08T10:57:39.000Z</Time>
            <Position>
              <LatitudeDegrees>43.02694248966872692108154296875</LatitudeDegrees>
              <LongitudeDegrees>0.57311891578137874603271484375</LongitudeDegrees>
            </Position>
            <AltitudeMeters>521.20001220703125</AltitudeMeters>
            <DistanceMeters>48115.248226228</DistanceMeters>
          </Trackpoint>
          <Trackpoint>
            <Time>2019-05-08T10:57:41.000Z</Time>
            <Position>
              <LatitudeDegrees>43.02706427872180938720703125</LatitudeDegrees>
              <LongitudeDegrees>0.57308186776936054229736328125</LongitudeDegrees>
            </Position>
            <AltitudeMeters>521</AltitudeMeters>
            <DistanceMeters>48129.13448751</DistanceMeters>
          </Trackpoint>
          <Trackpoint>
            <Time>2019-05-08T10:57:42.000Z</Time>
            <Position>
              <LatitudeDegrees>43.027133680880069732666015625</LatitudeDegrees>
              <LongitudeDegrees>0.57305202819406986236572265625</LongitudeDegrees>
            </Position>
            <AltitudeMeters>521</AltitudeMeters>
            <DistanceMeters>48137.23185653</DistanceMeters>
          </Trackpoint>
          <Trackpoint>
            <Time>2019-05-08T10:57:44.000Z</Time>
            <Position>
              <LatitudeDegrees>43.02726200781762599945068359375</LatitudeDegrees>
              <LongitudeDegrees>0.5729453265666961669921875</LongitudeDegrees>
            </Position>
            <AltitudeMeters>520.20001220703125</AltitudeMeters>
            <DistanceMeters>48153.946836793</DistanceMeters>
          </Trackpoint>
          <Trackpoint>
            <Time>2019-05-08T10:57:45.000Z</Time>
            <Position>
              <LatitudeDegrees>43.027313053607940673828125</LatitudeDegrees>
              <LongitudeDegrees>0.57287357747554779052734375</LongitudeDegrees>
            </Position>
            <AltitudeMeters>520</AltitudeMeters>
            <DistanceMeters>48162.093126242</DistanceMeters>
          </Trackpoint>
          <Trackpoint>
            <Time>2019-05-08T10:57:46.000Z</Time>
            <Position>
              <LatitudeDegrees>43.02736292593181133270263671875</LatitudeDegrees>
              <LongitudeDegrees>0.57279587723314762115478515625</LongitudeDegrees>
            </Position>
            <AltitudeMeters>519.4000244140625</AltitudeMeters>
            <DistanceMeters>48170.506076923</DistanceMeters>
          </Trackpoint>
          <Trackpoint>
            <Time>2019-05-08T10:57:48.000Z</Time>
            <Position>
              <LatitudeDegrees>43.02746652625501155853271484375</LatitudeDegrees>
              <LongitudeDegrees>0.572625808417797088623046875</LongitudeDegrees>
            </Position>
            <AltitudeMeters>517.79998779296875</AltitudeMeters>
            <DistanceMeters>48188.518089206</DistanceMeters>
          </Trackpoint>
          <Trackpoint>
            <Time>2019-05-08T10:57:50.000Z</Time>
            <Position>
              <LatitudeDegrees>43.0275727249681949615478515625</LatitudeDegrees>
              <LongitudeDegrees>0.57243394665420055389404296875</LongitudeDegrees>
            </Position>
            <AltitudeMeters>516.79998779296875</AltitudeMeters>
            <DistanceMeters>48208.098896537</DistanceMeters>
          </Trackpoint>
          <Trackpoint>
            <Time>2019-05-08T10:57:51.000Z</Time>
            <Position>
              <LatitudeDegrees>43.02762762643396854400634765625</LatitudeDegrees>
              <LongitudeDegrees>0.572332441806793212890625</LongitudeDegrees>
            </Position>
            <AltitudeMeters>516</AltitudeMeters>
            <DistanceMeters>48218.372774264</DistanceMeters>
          </Trackpoint>
          <Trackpoint>
            <Time>2019-05-08T10:57:52.000Z</Time>
            <Position>
              <LatitudeDegrees>43.02768060006201267242431640625</LatitudeDegrees>
              <LongitudeDegrees>0.57222657836973667144775390625</LongitudeDegrees>
            </Position>
            <AltitudeMeters>514.79998779296875</AltitudeMeters>
            <DistanceMeters>48228.810584011</DistanceMeters>
          </Trackpoint>
          <Trackpoint>
            <Time>2019-05-08T10:57:54.000Z</Time>
            <Position>
              <LatitudeDegrees>43.027782775461673736572265625</LatitudeDegrees>
              <LongitudeDegrees>0.57200144045054912567138671875</LongitudeDegrees>
            </Position>
            <AltitudeMeters>513.20001220703125</AltitudeMeters>
            <DistanceMeters>48250.372017765</DistanceMeters>
          </Trackpoint>
          <Trackpoint>
            <Time>2019-05-08T10:57:55.000Z</Time>
            <Position>
              <LatitudeDegrees>43.02783382125198841094970703125</LatitudeDegrees>
              <LongitudeDegrees>0.57188250124454498291015625</LongitudeDegrees>
            </Position>
            <AltitudeMeters>512.5999755859375</AltitudeMeters>
            <DistanceMeters>48261.594024987</DistanceMeters>
          </Trackpoint>
          <Trackpoint>
            <Time>2019-05-08T10:57:56.000Z</Time>
            <Position>
              <LatitudeDegrees>43.02788478322327136993408203125</LatitudeDegrees>
              <LongitudeDegrees>0.57176046073436737060546875</LongitudeDegrees>
            </Position>
            <AltitudeMeters>512</AltitudeMeters>
            <DistanceMeters>48273.030046898</DistanceMeters>
          </Trackpoint>
          <Trackpoint>
            <Time>2019-05-08T10:57:58.000Z</Time>
            <Position>
              <LatitudeDegrees>43.02799190394580364227294921875</LatitudeDegrees>
              <LongitudeDegrees>0.57150891982018947601318359375</LongitudeDegrees>
            </Position>
            <AltitudeMeters>510.600006103515625</AltitudeMeters>
            <DistanceMeters>48296.715920099</DistanceMeters>
          </Trackpoint>
          <Trackpoint>
            <Time>2019-05-08T10:57:59.000Z</Time>
            <Position>
              <LatitudeDegrees>43.02804236300289630889892578125</LatitudeDegrees>
              <LongitudeDegrees>0.57137690484523773193359375</LongitudeDegrees>
            </Position>
            <AltitudeMeters>509.600006103515625</AltitudeMeters>
            <DistanceMeters>48308.836949088</DistanceMeters>
          </Trackpoint>
          <Trackpoint>
            <Time>2019-05-08T10:58:00.000Z</Time>
            <Position>
              <LatitudeDegrees>43.02808695472776889801025390625</LatitudeDegrees>
              <LongitudeDegrees>0.57125126011669635772705078125</LongitudeDegrees>
            </Position>
            <AltitudeMeters>508.600006103515625</AltitudeMeters>
            <DistanceMeters>48320.200491368</DistanceMeters>
          </Trackpoint>
          <Trackpoint>
            <Time>2019-05-08T10:58:03.000Z</Time>
            <Position>
              <LatitudeDegrees>43.02818167023360729217529296875</LatitudeDegrees>
              <LongitudeDegrees>0.5709492601454257965087890625</LongitudeDegrees>
            </Position>
            <AltitudeMeters>506.20001220703125</AltitudeMeters>
            <DistanceMeters>48346.938313868</DistanceMeters>
          </Trackpoint>
          <Trackpoint>
            <Time>2019-05-08T10:58:05.000Z</Time>
            <Position>
              <LatitudeDegrees>43.02826666273176670074462890625</LatitudeDegrees>
              <LongitudeDegrees>0.57088480331003665924072265625</LongitudeDegrees>
            </Position>
            <AltitudeMeters>503.79998779296875</AltitudeMeters>
            <DistanceMeters>48357.754675105</DistanceMeters>
          </Trackpoint>
          <Trackpoint>
            <Time>2019-05-08T10:58:06.000Z</Time>
            <Position>
              <LatitudeDegrees>43.028311841189861297607421875</LatitudeDegrees>
              <LongitudeDegrees>0.57093660347163677215576171875</LongitudeDegrees>
            </Position>
            <AltitudeMeters>502.79998779296875</AltitudeMeters>
            <DistanceMeters>48364.315648692</DistanceMeters>
          </Trackpoint>
          <Trackpoint>
            <Time>2019-05-08T10:58:07.000Z</Time>
            <Position>
              <LatitudeDegrees>43.02833707071840763092041015625</LatitudeDegrees>
              <LongitudeDegrees>0.571028552949428558349609375</LongitudeDegrees>
            </Position>
            <AltitudeMeters>501.600006103515625</AltitudeMeters>
            <DistanceMeters>48372.306937738</DistanceMeters>
          </Trackpoint>
          <Trackpoint>
            <Time>2019-05-08T10:58:08.000Z</Time>
            <Position>
              <LatitudeDegrees>43.028341345489025115966796875</LatitudeDegrees>
              <LongitudeDegrees>0.57113952934741973876953125</LongitudeDegrees>
            </Position>
            <AltitudeMeters>500.399993896484375</AltitudeMeters>
            <DistanceMeters>48381.348968048</DistanceMeters>
          </Trackpoint>
          <Trackpoint>
            <Time>2019-05-08T10:58:09.000Z</Time>
            <Position>
              <LatitudeDegrees>43.02834494970738887786865234375</LatitudeDegrees>
              <LongitudeDegrees>0.5712627433240413665771484375</LongitudeDegrees>
            </Position>
            <AltitudeMeters>499.79998779296875</AltitudeMeters>
            <DistanceMeters>48391.382277183</DistanceMeters>
          </Trackpoint>
          <Trackpoint>
            <Time>2019-05-08T10:58:10.000Z</Time>
            <Position>
              <LatitudeDegrees>43.0283626355230808258056640625</LatitudeDegrees>
              <LongitudeDegrees>0.5713931657373905181884765625</LongitudeDegrees>
            </Position>
            <AltitudeMeters>499.399993896484375</AltitudeMeters>
            <DistanceMeters>48402.174400513</DistanceMeters>
          </Trackpoint>
          <Trackpoint>
            <Time>2019-05-08T10:58:12.000Z</Time>
            <Position>
              <LatitudeDegrees>43.028422482311725616455078125</LatitudeDegrees>
              <LongitudeDegrees>0.571669600903987884521484375</LongitudeDegrees>
            </Position>
            <AltitudeMeters>498.79998779296875</AltitudeMeters>
            <DistanceMeters>48425.63195235</DistanceMeters>
          </Trackpoint>
          <Trackpoint>
            <Time>2019-05-08T10:58:13.000Z</Time>
            <Position>
              <LatitudeDegrees>43.02845793776214122772216796875</LatitudeDegrees>
              <LongitudeDegrees>0.57181519456207752227783203125</LongitudeDegrees>
            </Position>
            <AltitudeMeters>498.600006103515625</AltitudeMeters>
            <DistanceMeters>48438.117753875</DistanceMeters>
          </Trackpoint>
          <Trackpoint>
            <Time>2019-05-08T10:58:14.000Z</Time>
            <Position>
              <LatitudeDegrees>43.0284997634589672088623046875</LatitudeDegrees>
              <LongitudeDegrees>0.57196539826691150665283203125</LongitudeDegrees>
            </Position>
            <AltitudeMeters>498.399993896484375</AltitudeMeters>
            <DistanceMeters>48451.19558427</DistanceMeters>
          </Trackpoint>
          <Trackpoint>
            <Time>2019-05-08T10:58:15.000Z</Time>
            <Position>
              <LatitudeDegrees>43.0285480432212352752685546875</LatitudeDegrees>
              <LongitudeDegrees>0.57211853563785552978515625</LongitudeDegrees>
            </Position>
            <AltitudeMeters>497.79998779296875</AltitudeMeters>
            <DistanceMeters>48464.764786852</DistanceMeters>
          </Trackpoint>
          <Trackpoint>
            <Time>2019-05-08T10:58:16.000Z</Time>
            <Position>
              <LatitudeDegrees>43.02860093303024768829345703125</LatitudeDegrees>
              <LongitudeDegrees>0.57227276265621185302734375</LongitudeDegrees>
            </Position>
            <AltitudeMeters>497.20001220703125</AltitudeMeters>
            <DistanceMeters>48478.625012184</DistanceMeters>
          </Trackpoint>
          <Trackpoint>
            <Time>2019-05-08T10:58:17.000Z</Time>
            <Position>
              <LatitudeDegrees>43.0286657251417636871337890625</LatitudeDegrees>
              <LongitudeDegrees>0.57242221198976039886474609375</LongitudeDegrees>
            </Position>
            <AltitudeMeters>496.20001220703125</AltitudeMeters>
            <DistanceMeters>48492.762611415</DistanceMeters>
          </Trackpoint>
          <Trackpoint>
            <Time>2019-05-08T10:58:18.000Z</Time>
            <Position>
              <LatitudeDegrees>43.02873772569000720977783203125</LatitudeDegrees>
              <LongitudeDegrees>0.57256788946688175201416015625</LongitudeDegrees>
            </Position>
            <AltitudeMeters>494.79998779296875</AltitudeMeters>
            <DistanceMeters>48507.070365711</DistanceMeters>
          </Trackpoint>
          <Trackpoint>
            <Time>2019-05-08T10:58:19.000Z</Time>
            <Position>
              <LatitudeDegrees>43.02881249226629734039306640625</LatitudeDegrees>
              <LongitudeDegrees>0.57271189056336879730224609375</LongitudeDegrees>
            </Position>
            <AltitudeMeters>493</AltitudeMeters>
            <DistanceMeters>48521.441722934</DistanceMeters>
          </Trackpoint>
          <Trackpoint>
            <Time>2019-05-08T10:58:20.000Z</Time>
            <Position>
              <LatitudeDegrees>43.02889429964125156402587890625</LatitudeDegrees>
              <LongitudeDegrees>0.5728472582995891571044921875</LongitudeDegrees>
            </Position>
            <AltitudeMeters>492</AltitudeMeters>
            <DistanceMeters>48535.732426515</DistanceMeters>
          </Trackpoint>
          <Trackpoint>
            <Time>2019-05-08T10:58:21.000Z</Time>
            <Position>
              <LatitudeDegrees>43.028977029025554656982421875</LatitudeDegrees>
              <LongitudeDegrees>0.5729641020298004150390625</LongitudeDegrees>
            </Position>
            <AltitudeMeters>490.79998779296875</AltitudeMeters>
            <DistanceMeters>48548.96743399</DistanceMeters>
          </Trackpoint>
          <Trackpoint>
            <Time>2019-05-08T10:58:23.000Z</Time>
            <Position>
              <LatitudeDegrees>43.0290995724499225616455078125</LatitudeDegrees>
              <LongitudeDegrees>0.573125369846820831298828125</LongitudeDegrees>
            </Position>
            <AltitudeMeters>488.20001220703125</AltitudeMeters>
            <DistanceMeters>48567.893740349</DistanceMeters>
          </Trackpoint>
          <Trackpoint>
            <Time>2019-05-08T10:58:25.000Z</Time>
            <Position>
              <LatitudeDegrees>43.029153048992156982421875</LatitudeDegrees>
              <LongitudeDegrees>0.5731902457773685455322265625</LongitudeDegrees>
            </Position>
            <AltitudeMeters>485.399993896484375</AltitudeMeters>
            <DistanceMeters>48575.848787534</DistanceMeters>
          </Trackpoint>
          <Trackpoint>
            <Time>2019-05-08T10:58:28.000Z</Time>
            <Position>
              <LatitudeDegrees>43.02915564738214015960693359375</LatitudeDegrees>
              <LongitudeDegrees>0.5732049979269504547119140625</LongitudeDegrees>
            </Position>
            <AltitudeMeters>481</AltitudeMeters>
            <DistanceMeters>48577.087784304</DistanceMeters>
          </Trackpoint>
          <Trackpoint>
            <Time>2019-05-08T10:59:58.000Z</Time>
            <Position>
              <LatitudeDegrees>43.02915682084858417510986328125</LatitudeDegrees>
              <LongitudeDegrees>0.57321824133396148681640625</LongitudeDegrees>
            </Position>
            <AltitudeMeters>478.79998779296875</AltitudeMeters>
            <DistanceMeters>48578.171255548</DistanceMeters>
          </Trackpoint>
          <Trackpoint>
            <Time>2019-05-08T11:00:00.000Z</Time>
            <Position>
              <LatitudeDegrees>43.0291672982275485992431640625</LatitudeDegrees>
              <LongitudeDegrees>0.57324296794831752777099609375</LongitudeDegrees>
            </Position>
            <AltitudeMeters>479</AltitudeMeters>
            <DistanceMeters>48580.495042482</DistanceMeters>
          </Trackpoint>
          <Trackpoint>
            <Time>2019-05-08T11:00:03.000Z</Time>
            <Position>
              <LatitudeDegrees>43.02916956134140491485595703125</LatitudeDegrees>
              <LongitudeDegrees>0.573254115879535675048828125</LongitudeDegrees>
            </Position>
            <AltitudeMeters>478.79998779296875</AltitudeMeters>
            <DistanceMeters>48581.43575896</DistanceMeters>
          </Trackpoint>
          <Trackpoint>
            <Time>2019-05-08T11:04:04.000Z</Time>
            <Position>
              <LatitudeDegrees>43.02922488190233707427978515625</LatitudeDegrees>
              <LongitudeDegrees>0.57334975339472293853759765625</LongitudeDegrees>
            </Position>
            <AltitudeMeters>477.600006103515625</AltitudeMeters>
            <DistanceMeters>48591.357749354</DistanceMeters>
          </Trackpoint>
          <Trackpoint>
            <Time>2019-05-08T11:04:07.000Z</Time>
            <Position>
              <LatitudeDegrees>43.02923443727195262908935546875</LatitudeDegrees>
              <LongitudeDegrees>0.5734189040958881378173828125</LongitudeDegrees>
            </Position>
            <AltitudeMeters>477.399993896484375</AltitudeMeters>
            <DistanceMeters>48597.082270943</DistanceMeters>
          </Trackpoint>
          <Trackpoint>
            <Time>2019-05-08T11:04:10.000Z</Time>
            <Position>
              <LatitudeDegrees>43.02926226519048213958740234375</LatitudeDegrees>
              <LongitudeDegrees>0.5734986998140811920166015625</LongitudeDegrees>
            </Position>
            <AltitudeMeters>477.20001220703125</AltitudeMeters>
            <DistanceMeters>48604.275485664</DistanceMeters>
          </Trackpoint>
          <Trackpoint>
            <Time>2019-05-08T11:04:13.000Z</Time>
            <Position>
              <LatitudeDegrees>43.02929495461285114288330078125</LatitudeDegrees>
              <LongitudeDegrees>0.5736043117940425872802734375</LongitudeDegrees>
            </Position>
            <AltitudeMeters>477.20001220703125</AltitudeMeters>
            <DistanceMeters>48613.606509031</DistanceMeters>
          </Trackpoint>
          <Trackpoint>
            <Time>2019-05-08T11:04:14.000Z</Time>
            <Position>
              <LatitudeDegrees>43.02929696626961231231689453125</LatitudeDegrees>
              <LongitudeDegrees>0.57364739477634429931640625</LongitudeDegrees>
            </Position>
            <AltitudeMeters>477.399993896484375</AltitudeMeters>
            <DistanceMeters>48617.118642915</DistanceMeters>
          </Trackpoint>
          <Trackpoint>
            <Time>2019-05-08T11:04:17.000Z</Time>
            <Position>
              <LatitudeDegrees>43.02925757132470607757568359375</LatitudeDegrees>
              <LongitudeDegrees>0.5737917311489582061767578125</LongitudeDegrees>
            </Position>
            <AltitudeMeters>477.20001220703125</AltitudeMeters>
            <DistanceMeters>48629.653887635</DistanceMeters>
          </Trackpoint>
          <Trackpoint>
            <Time>2019-05-08T11:04:24.000Z</Time>
            <Position>
              <LatitudeDegrees>43.029106445610523223876953125</LatitudeDegrees>
              <LongitudeDegrees>0.5741415917873382568359375</LongitudeDegrees>
            </Position>
            <AltitudeMeters>477.20001220703125</AltitudeMeters>
            <DistanceMeters>48662.71772248</DistanceMeters>
          </Trackpoint>
          <Trackpoint>
            <Time>2019-05-08T11:04:28.000Z</Time>
            <Position>
              <LatitudeDegrees>43.0290113948285579681396484375</LatitudeDegrees>
              <LongitudeDegrees>0.574359856545925140380859375</LongitudeDegrees>
            </Position>
            <AltitudeMeters>477.20001220703125</AltitudeMeters>
            <DistanceMeters>48683.389036355</DistanceMeters>
          </Trackpoint>
          <Trackpoint>
            <Time>2019-05-08T11:04:32.000Z</Time>
            <Position>
              <LatitudeDegrees>43.02890854887664318084716796875</LatitudeDegrees>
              <LongitudeDegrees>0.5745799653232097625732421875</LongitudeDegrees>
            </Position>
            <AltitudeMeters>477.20001220703125</AltitudeMeters>
            <DistanceMeters>48704.643604437</DistanceMeters>
          </Trackpoint>
          <Trackpoint>
            <Time>2019-05-08T11:04:35.000Z</Time>
            <Position>
              <LatitudeDegrees>43.02881919778883457183837890625</LatitudeDegrees>
              <LongitudeDegrees>0.57474131695926189422607421875</LongitudeDegrees>
            </Position>
            <AltitudeMeters>477.399993896484375</AltitudeMeters>
            <DistanceMeters>48721.113134977</DistanceMeters>
          </Trackpoint>
          <Trackpoint>
            <Time>2019-05-08T11:04:37.000Z</Time>
            <Position>
              <LatitudeDegrees>43.02875264547765254974365234375</LatitudeDegrees>
              <LongitudeDegrees>0.57483821175992488861083984375</LongitudeDegrees>
            </Position>
            <AltitudeMeters>477.399993896484375</AltitudeMeters>
            <DistanceMeters>48731.930748422</DistanceMeters>
          </Trackpoint>
          <Trackpoint>
            <Time>2019-05-08T11:04:39.000Z</Time>
            <Position>
              <LatitudeDegrees>43.02868274040520191192626953125</LatitudeDegrees>
              <LongitudeDegrees>0.57492421008646488189697265625</LongitudeDegrees>
            </Position>
            <AltitudeMeters>477.600006103515625</AltitudeMeters>
            <DistanceMeters>48742.394911406</DistanceMeters>
          </Trackpoint>
          <Trackpoint>
            <Time>2019-05-08T11:04:46.000Z</Time>
            <Position>
              <LatitudeDegrees>43.02841267548501491546630859375</LatitudeDegrees>
              <LongitudeDegrees>0.57521916925907135009765625</LongitudeDegrees>
            </Position>
            <AltitudeMeters>477.79998779296875</AltitudeMeters>
            <DistanceMeters>48780.85902097</DistanceMeters>
          </Trackpoint>
          <Trackpoint>
            <Time>2019-05-08T11:04:49.000Z</Time>
            <Position>
              <LatitudeDegrees>43.02828661166131496429443359375</LatitudeDegrees>
              <LongitudeDegrees>0.57536006905138492584228515625</LongitudeDegrees>
            </Position>
            <AltitudeMeters>478.20001220703125</AltitudeMeters>
            <DistanceMeters>48798.978001604</DistanceMeters>
          </Trackpoint>
          <Trackpoint>
            <Time>2019-05-08T11:04:57.000Z</Time>
            <Position>
              <LatitudeDegrees>43.02791311405599117279052734375</LatitudeDegrees>
              <LongitudeDegrees>0.5757574550807476043701171875</LongitudeDegrees>
            </Position>
            <AltitudeMeters>478.20001220703125</AltitudeMeters>
            <DistanceMeters>48851.642609165</DistanceMeters>
          </Trackpoint>
          <Trackpoint>
            <Time>2019-05-08T11:05:02.000Z</Time>
            <Position>
              <LatitudeDegrees>43.02766635082662105560302734375</LatitudeDegrees>
              <LongitudeDegrees>0.5760137736797332763671875</LongitudeDegrees>
            </Position>
            <AltitudeMeters>478</AltitudeMeters>
            <DistanceMeters>48886.128535683</DistanceMeters>
          </Trackpoint>
          <Trackpoint>
            <Time>2019-05-08T11:05:05.000Z</Time>
            <Position>
              <LatitudeDegrees>43.02750860340893268585205078125</LatitudeDegrees>
              <LongitudeDegrees>0.576156266033649444580078125</LongitudeDegrees>
            </Position>
            <AltitudeMeters>477.79998779296875</AltitudeMeters>
            <DistanceMeters>48907.168746414</DistanceMeters>
          </Trackpoint>
          <Trackpoint>
            <Time>2019-05-08T11:05:12.000Z</Time>
            <Position>
              <LatitudeDegrees>43.027155809104442596435546875</LatitudeDegrees>
              <LongitudeDegrees>0.57645055465400218963623046875</LongitudeDegrees>
            </Position>
            <AltitudeMeters>476.79998779296875</AltitudeMeters>
            <DistanceMeters>48953.160301795</DistanceMeters>
          </Trackpoint>
          <Trackpoint>
            <Time>2019-05-08T11:05:19.000Z</Time>
            <Position>
              <LatitudeDegrees>43.02684978581964969635009765625</LatitudeDegrees>
              <LongitudeDegrees>0.57686269283294677734375</LongitudeDegrees>
            </Position>
            <AltitudeMeters>476.600006103515625</AltitudeMeters>
            <DistanceMeters>49000.958455743</DistanceMeters>
          </Trackpoint>
          <Trackpoint>
            <Time>2019-05-08T11:05:21.000Z</Time>
            <Position>
              <LatitudeDegrees>43.02676361985504627227783203125</LatitudeDegrees>
              <LongitudeDegrees>0.57698297314345836639404296875</LongitudeDegrees>
            </Position>
            <AltitudeMeters>476.600006103515625</AltitudeMeters>
            <DistanceMeters>49014.66076757</DistanceMeters>
          </Trackpoint>
          <Trackpoint>
            <Time>2019-05-08T11:05:27.000Z</Time>
            <Position>
              <LatitudeDegrees>43.02653320133686065673828125</LatitudeDegrees>
              <LongitudeDegrees>0.5773651041090488433837890625</LongitudeDegrees>
            </Position>
            <AltitudeMeters>476.79998779296875</AltitudeMeters>
            <DistanceMeters>49054.965427374</DistanceMeters>
          </Trackpoint>
          <Trackpoint>
            <Time>2019-05-08T11:05:34.000Z</Time>
            <Position>
              <LatitudeDegrees>43.02633211947977542877197265625</LatitudeDegrees>
              <LongitudeDegrees>0.577837340533733367919921875</LongitudeDegrees>
            </Position>
            <AltitudeMeters>478</AltitudeMeters>
            <DistanceMeters>49099.432243977</DistanceMeters>
          </Trackpoint>
          <Trackpoint>
            <Time>2019-05-08T11:05:35.000Z</Time>
            <Position>
              <LatitudeDegrees>43.0263057164847850799560546875</LatitudeDegrees>
              <LongitudeDegrees>0.57790548540651798248291015625</LongitudeDegrees>
            </Position>
            <AltitudeMeters>478</AltitudeMeters>
            <DistanceMeters>49105.70760559</DistanceMeters>
          </Trackpoint>
          <Trackpoint>
            <Time>2019-05-08T11:05:44.000Z</Time>
            <Position>
              <LatitudeDegrees>43.02610270678997039794921875</LatitudeDegrees>
              <LongitudeDegrees>0.57852189056575298309326171875</LongitudeDegrees>
            </Position>
            <AltitudeMeters>480</AltitudeMeters>
            <DistanceMeters>49160.716993851</DistanceMeters>
          </Trackpoint>
          <Trackpoint>
            <Time>2019-05-08T11:05:51.000Z</Time>
            <Position>
              <LatitudeDegrees>43.02596046589314937591552734375</LatitudeDegrees>
              <LongitudeDegrees>0.579051710665225982666015625</LongitudeDegrees>
            </Position>
            <AltitudeMeters>480.20001220703125</AltitudeMeters>
            <DistanceMeters>49206.641744415</DistanceMeters>
          </Trackpoint>
          <Trackpoint>
            <Time>2019-05-08T11:05:56.000Z</Time>
            <Position>
              <LatitudeDegrees>43.025848232209682464599609375</LatitudeDegrees>
              <LongitudeDegrees>0.5794791877269744873046875</LongitudeDegrees>
            </Position>
            <AltitudeMeters>480.20001220703125</AltitudeMeters>
            <DistanceMeters>49243.599318371</DistanceMeters>
          </Trackpoint>
          <Trackpoint>
            <Time>2019-05-08T11:05:59.000Z</Time>
            <Position>
              <LatitudeDegrees>43.0257800035178661346435546875</LatitudeDegrees>
              <LongitudeDegrees>0.57975889183580875396728515625</LongitudeDegrees>
            </Position>
            <AltitudeMeters>480.20001220703125</AltitudeMeters>
            <DistanceMeters>49267.591634912</DistanceMeters>
          </Trackpoint>
          <Trackpoint>
            <Time>2019-05-08T11:06:06.000Z</Time>
            <Position>
              <LatitudeDegrees>43.02560247480869293212890625</LatitudeDegrees>
              <LongitudeDegrees>0.5804751254618167877197265625</LongitudeDegrees>
            </Position>
            <AltitudeMeters>478.600006103515625</AltitudeMeters>
            <DistanceMeters>49329.128164686</DistanceMeters>
          </Trackpoint>
          <Trackpoint>
            <Time>2019-05-08T11:06:07.000Z</Time>
            <Position>
              <LatitudeDegrees>43.0255741439759731292724609375</LatitudeDegrees>
              <LongitudeDegrees>0.5805800668895244598388671875</LongitudeDegrees>
            </Position>
            <AltitudeMeters>478.600006103515625</AltitudeMeters>
            <DistanceMeters>49338.230910505</DistanceMeters>
          </Trackpoint>
          <Trackpoint>
            <Time>2019-05-08T11:06:09.000Z</Time>
            <Position>
              <LatitudeDegrees>43.02552309818565845489501953125</LatitudeDegrees>
              <LongitudeDegrees>0.58079087175428867340087890625</LongitudeDegrees>
            </Position>
            <AltitudeMeters>478.20001220703125</AltitudeMeters>
            <DistanceMeters>49356.299984745</DistanceMeters>
          </Trackpoint>
          <Trackpoint>
            <Time>2019-05-08T11:06:11.000Z</Time>
            <Position>
              <LatitudeDegrees>43.02547364495694637298583984375</LatitudeDegrees>
              <LongitudeDegrees>0.5809968151152133941650390625</LongitudeDegrees>
            </Position>
            <AltitudeMeters>478.20001220703125</AltitudeMeters>
            <DistanceMeters>49373.937618756</DistanceMeters>
          </Trackpoint>
          <Trackpoint>
            <Time>2019-05-08T11:06:15.000Z</Time>
            <Position>
              <LatitudeDegrees>43.0253682844340801239013671875</LatitudeDegrees>
              <LongitudeDegrees>0.58138498105108737945556640625</LongitudeDegrees>
            </Position>
            <AltitudeMeters>477.79998779296875</AltitudeMeters>
            <DistanceMeters>49407.62844212</DistanceMeters>
          </Trackpoint>
          <Trackpoint>
            <Time>2019-05-08T11:06:22.000Z</Time>
            <Position>
              <LatitudeDegrees>43.025111965835094451904296875</LatitudeDegrees>
              <LongitudeDegrees>0.581993423402309417724609375</LongitudeDegrees>
            </Position>
            <AltitudeMeters>477.399993896484375</AltitudeMeters>
            <DistanceMeters>49464.767634876</DistanceMeters>
          </Trackpoint>
          <Trackpoint>
            <Time>2019-05-08T11:06:28.000Z</Time>
            <Position>
              <LatitudeDegrees>43.02489747293293476104736328125</LatitudeDegrees>
              <LongitudeDegrees>0.58247865177690982818603515625</LongitudeDegrees>
            </Position>
            <AltitudeMeters>477.20001220703125</AltitudeMeters>
            <DistanceMeters>49510.906211806</DistanceMeters>
          </Trackpoint>
          <Trackpoint>
            <Time>2019-05-08T11:06:31.000Z</Time>
            <Position>
              <LatitudeDegrees>43.02479269914329051971435546875</LatitudeDegrees>
              <LongitudeDegrees>0.5827194638550281524658203125</LongitudeDegrees>
            </Position>
            <AltitudeMeters>477.20001220703125</AltitudeMeters>
            <DistanceMeters>49533.708267447</DistanceMeters>
          </Trackpoint>
          <Trackpoint>
            <Time>2019-05-08T11:06:32.000Z</Time>
            <Position>
              <LatitudeDegrees>43.02475623786449432373046875</LatitudeDegrees>
              <LongitudeDegrees>0.5827999301254749298095703125</LongitudeDegrees>
            </Position>
            <AltitudeMeters>477.20001220703125</AltitudeMeters>
            <DistanceMeters>49541.411294925</DistanceMeters>
          </Trackpoint>
          <Trackpoint>
            <Time>2019-05-08T11:06:35.000Z</Time>
            <Position>
              <LatitudeDegrees>43.02464936859905719757080078125</LatitudeDegrees>
              <LongitudeDegrees>0.58304074220359325408935546875</LongitudeDegrees>
            </Position>
            <AltitudeMeters>477.20001220703125</AltitudeMeters>
            <DistanceMeters>49564.333621553</DistanceMeters>
          </Trackpoint>
          <Trackpoint>
            <Time>2019-05-08T11:06:41.000Z</Time>
            <Position>
              <LatitudeDegrees>43.024447448551654815673828125</LatitudeDegrees>
              <LongitudeDegrees>0.5835040099918842315673828125</LongitudeDegrees>
            </Position>
            <AltitudeMeters>477.79998779296875</AltitudeMeters>
            <DistanceMeters>49608.220122948</DistanceMeters>
          </Trackpoint>
          <Trackpoint>
            <Time>2019-05-08T11:06:43.000Z</Time>
            <Position>
              <LatitudeDegrees>43.024385087192058563232421875</LatitudeDegrees>
              <LongitudeDegrees>0.5836421437561511993408203125</LongitudeDegrees>
            </Position>
            <AltitudeMeters>477.79998779296875</AltitudeMeters>
            <DistanceMeters>49621.430203466</DistanceMeters>
          </Trackpoint>
          <Trackpoint>
            <Time>2019-05-08T11:06:48.000Z</Time>
            <Position>
              <LatitudeDegrees>43.024242259562015533447265625</LatitudeDegrees>
              <LongitudeDegrees>0.5839566327631473541259765625</LongitudeDegrees>
            </Position>
            <AltitudeMeters>478.399993896484375</AltitudeMeters>
            <DistanceMeters>49651.555620355</DistanceMeters>
          </Trackpoint>
          <Trackpoint>
            <Time>2019-05-08T11:06:49.000Z</Time>
            <Position>
              <LatitudeDegrees>43.024214766919612884521484375</LatitudeDegrees>
              <LongitudeDegrees>0.58401606045663356781005859375</LongitudeDegrees>
            </Position>
            <AltitudeMeters>478.399993896484375</AltitudeMeters>
            <DistanceMeters>49657.277775298</DistanceMeters>
          </Trackpoint>
          <Trackpoint>
            <Time>2019-05-08T11:06:53.000Z</Time>
            <Position>
              <LatitudeDegrees>43.02410806529223918914794921875</LatitudeDegrees>
              <LongitudeDegrees>0.58425486087799072265625</LongitudeDegrees>
            </Position>
            <AltitudeMeters>479.20001220703125</AltitudeMeters>
            <DistanceMeters>49680.05090311</DistanceMeters>
          </Trackpoint>
          <Trackpoint>
            <Time>2019-05-08T11:07:00.000Z</Time>
            <Position>
              <LatitudeDegrees>43.02392953075468540191650390625</LatitudeDegrees>
              <LongitudeDegrees>0.58467303402721881866455078125</LongitudeDegrees>
            </Position>
            <AltitudeMeters>480</AltitudeMeters>
            <DistanceMeters>49719.454804745</DistanceMeters>
          </Trackpoint>
          <Trackpoint>
            <Time>2019-05-08T11:07:01.000Z</Time>
            <Position>
              <LatitudeDegrees>43.0239048041403293609619140625</LatitudeDegrees>
              <LongitudeDegrees>0.584729276597499847412109375</LongitudeDegrees>
            </Position>
            <AltitudeMeters>480.399993896484375</AltitudeMeters>
            <DistanceMeters>49724.794934089</DistanceMeters>
          </Trackpoint>
          <Trackpoint>
            <Time>2019-05-08T11:07:11.000Z</Time>
            <Position>
              <LatitudeDegrees>43.02364856936037540435791015625</LatitudeDegrees>
              <LongitudeDegrees>0.58532112278044223785400390625</LongitudeDegrees>
            </Position>
            <AltitudeMeters>481.79998779296875</AltitudeMeters>
            <DistanceMeters>49780.764378153</DistanceMeters>
          </Trackpoint>
          <Trackpoint>
            <Time>2019-05-08T11:07:15.000Z</Time>
            <Position>
              <LatitudeDegrees>43.0235396884381771087646484375</LatitudeDegrees>
              <LongitudeDegrees>0.585558749735355377197265625</LongitudeDegrees>
            </Position>
            <AltitudeMeters>481.79998779296875</AltitudeMeters>
            <DistanceMeters>49803.583852034</DistanceMeters>
          </Trackpoint>
          <Trackpoint>
            <Time>2019-05-08T11:07:18.000Z</Time>
            <Position>
              <LatitudeDegrees>43.02345427684485912322998046875</LatitudeDegrees>
              <LongitudeDegrees>0.5857007391750812530517578125</LongitudeDegrees>
            </Position>
            <AltitudeMeters>482</AltitudeMeters>
            <DistanceMeters>49818.545656572</DistanceMeters>
          </Trackpoint>
          <Trackpoint>
            <Time>2019-05-08T11:07:19.000Z</Time>
            <Position>
              <LatitudeDegrees>43.0234220065176486968994140625</LatitudeDegrees>
              <LongitudeDegrees>0.58573552407324314117431640625</LongitudeDegrees>
            </Position>
            <AltitudeMeters>482</AltitudeMeters>
            <DistanceMeters>49823.118801775</DistanceMeters>
          </Trackpoint>
          <Trackpoint>
            <Time>2019-05-08T11:07:21.000Z</Time>
            <Position>
              <LatitudeDegrees>43.0233522690832614898681640625</LatitudeDegrees>
              <LongitudeDegrees>0.58580207638442516326904296875</LongitudeDegrees>
            </Position>
            <AltitudeMeters>482.20001220703125</AltitudeMeters>
            <DistanceMeters>49832.582909142</DistanceMeters>
          </Trackpoint>
          <Trackpoint>
            <Time>2019-05-08T11:07:23.000Z</Time>
            <Position>
              <LatitudeDegrees>43.023273646831512451171875</LatitudeDegrees>
              <LongitudeDegrees>0.585861839354038238525390625</LongitudeDegrees>
            </Position>
            <AltitudeMeters>482.399993896484375</AltitudeMeters>
            <DistanceMeters>49842.594143753</DistanceMeters>
          </Trackpoint>
          <Trackpoint>
            <Time>2019-05-08T11:07:24.000Z</Time>
            <Position>
              <LatitudeDegrees>43.0232332460582256317138671875</LatitudeDegrees>
              <LongitudeDegrees>0.58589159511029720306396484375</LongitudeDegrees>
            </Position>
            <AltitudeMeters>482.79998779296875</AltitudeMeters>
            <DistanceMeters>49847.700890347</DistanceMeters>
          </Trackpoint>
          <Trackpoint>
            <Time>2019-05-08T11:07:27.000Z</Time>
            <Position>
              <LatitudeDegrees>43.02311472594738006591796875</LatitudeDegrees>
              <LongitudeDegrees>0.58596602641046047210693359375</LongitudeDegrees>
            </Position>
            <AltitudeMeters>483.20001220703125</AltitudeMeters>
            <DistanceMeters>49862.216045998</DistanceMeters>
          </Trackpoint>
          <Trackpoint>
            <Time>2019-05-08T11:07:29.000Z</Time>
            <Position>
              <LatitudeDegrees>43.02305060438811779022216796875</LatitudeDegrees>
              <LongitudeDegrees>0.58600609190762042999267578125</LongitudeDegrees>
            </Position>
            <AltitudeMeters>483.79998779296875</AltitudeMeters>
            <DistanceMeters>49870.06251407</DistanceMeters>
          </Trackpoint>
          <Trackpoint>
            <Time>2019-05-08T11:07:36.000Z</Time>
            <Position>
              <LatitudeDegrees>43.02279562689363956451416015625</LatitudeDegrees>
              <LongitudeDegrees>0.58616149239242076873779296875</LongitudeDegrees>
            </Position>
            <AltitudeMeters>485.79998779296875</AltitudeMeters>
            <DistanceMeters>49901.131745018</DistanceMeters>
          </Trackpoint>
          <Trackpoint>
            <Time>2019-05-08T11:07:43.000Z</Time>
            <Position>
              <LatitudeDegrees>43.02247636020183563232421875</LatitudeDegrees>
              <LongitudeDegrees>0.5863642506301403045654296875</LongitudeDegrees>
            </Position>
            <AltitudeMeters>486.399993896484375</AltitudeMeters>
            <DistanceMeters>49940.310073517</DistanceMeters>
          </Trackpoint>
          <Trackpoint>
            <Time>2019-05-08T11:07:44.000Z</Time>
            <Position>
              <LatitudeDegrees>43.02242799662053585052490234375</LatitudeDegrees>
              <LongitudeDegrees>0.58639601804316043853759765625</LongitudeDegrees>
            </Position>
            <AltitudeMeters>486.600006103515625</AltitudeMeters>
            <DistanceMeters>49946.280897732</DistanceMeters>
          </Trackpoint>
          <Trackpoint>
            <Time>2019-05-08T11:07:46.000Z</Time>
            <Position>
              <LatitudeDegrees>43.02232942543923854827880859375</LatitudeDegrees>
              <LongitudeDegrees>0.58646567165851593017578125</LongitudeDegrees>
            </Position>
            <AltitudeMeters>486.600006103515625</AltitudeMeters>
            <DistanceMeters>49958.629983973</DistanceMeters>
          </Trackpoint>
          <Trackpoint>
            <Time>2019-05-08T11:07:48.000Z</Time>
            <Position>
              <LatitudeDegrees>43.02222632803022861480712890625</LatitudeDegrees>
              <LongitudeDegrees>0.5865360796451568603515625</LongitudeDegrees>
            </Position>
            <AltitudeMeters>486.399993896484375</AltitudeMeters>
            <DistanceMeters>49971.455774497</DistanceMeters>
          </Trackpoint>
          <Trackpoint>
            <Time>2019-05-08T11:07:51.000Z</Time>
            <Position>
              <LatitudeDegrees>43.0220584385097026824951171875</LatitudeDegrees>
              <LongitudeDegrees>0.5866522528231143951416015625</LongitudeDegrees>
            </Position>
            <AltitudeMeters>485.79998779296875</AltitudeMeters>
            <DistanceMeters>49992.397040754</DistanceMeters>
          </Trackpoint>
          <Trackpoint>
            <Time>2019-05-08T11:07:52.000Z</Time>
            <Position>
              <LatitudeDegrees>43.0219997651875019073486328125</LatitudeDegrees>
              <LongitudeDegrees>0.58669558726251125335693359375</LongitudeDegrees>
            </Position>
            <AltitudeMeters>485.600006103515625</AltitudeMeters>
            <DistanceMeters>49999.818256034</DistanceMeters>
          </Trackpoint>
          <Trackpoint>
            <Time>2019-05-08T11:07:55.000Z</Time>
            <Position>
              <LatitudeDegrees>43.0218294449150562286376953125</LatitudeDegrees>
              <LongitudeDegrees>0.58685459196567535400390625</LongitudeDegrees>
            </Position>
            <AltitudeMeters>484.20001220703125</AltitudeMeters>
            <DistanceMeters>50022.769519164</DistanceMeters>
          </Trackpoint>
          <Trackpoint>
            <Time>2019-05-08T11:07:57.000Z</Time>
            <Position>
              <LatitudeDegrees>43.0217245034873485565185546875</LatitudeDegrees>
              <LongitudeDegrees>0.5869828350841999053955078125</LongitudeDegrees>
            </Position>
            <AltitudeMeters>483.600006103515625</AltitudeMeters>
            <DistanceMeters>50038.43250473</DistanceMeters>
          </Trackpoint>
          <Trackpoint>
            <Time>2019-05-08T11:07:58.000Z</Time>
            <Position>
              <LatitudeDegrees>43.02167362533509731292724609375</LatitudeDegrees>
              <LongitudeDegrees>0.58705030940473079681396484375</LongitudeDegrees>
            </Position>
            <AltitudeMeters>483.20001220703125</AltitudeMeters>
            <DistanceMeters>50046.320294452</DistanceMeters>
          </Trackpoint>
          <Trackpoint>
            <Time>2019-05-08T11:08:00.000Z</Time>
            <Position>
              <LatitudeDegrees>43.02157404832541942596435546875</LatitudeDegrees>
              <LongitudeDegrees>0.58718894608318805694580078125</LongitudeDegrees>
            </Position>
            <AltitudeMeters>482.79998779296875</AltitudeMeters>
            <DistanceMeters>50062.135035274</DistanceMeters>
          </Trackpoint>
          <Trackpoint>
            <Time>2019-05-08T11:08:01.000Z</Time>
            <Position>
              <LatitudeDegrees>43.02152610383927822113037109375</LatitudeDegrees>
              <LongitudeDegrees>0.5872601084411144256591796875</LongitudeDegrees>
            </Position>
            <AltitudeMeters>482.600006103515625</AltitudeMeters>
            <DistanceMeters>50070.01022194</DistanceMeters>
          </Trackpoint>
          <Trackpoint>
            <Time>2019-05-08T11:08:03.000Z</Time>
            <Position>
              <LatitudeDegrees>43.0214304663240909576416015625</LatitudeDegrees>
              <LongitudeDegrees>0.58740033768117427825927734375</LongitudeDegrees>
            </Position>
            <AltitudeMeters>482.399993896484375</AltitudeMeters>
            <DistanceMeters>50085.61487001</DistanceMeters>
          </Trackpoint>
          <Trackpoint>
            <Time>2019-05-08T11:08:06.000Z</Time>
            <Position>
              <LatitudeDegrees>43.021285124123096466064453125</LatitudeDegrees>
              <LongitudeDegrees>0.58761231601238250732421875</LongitudeDegrees>
            </Position>
            <AltitudeMeters>481.600006103515625</AltitudeMeters>
            <DistanceMeters>50109.262970022</DistanceMeters>
          </Trackpoint>
          <Trackpoint>
            <Time>2019-05-08T11:08:10.000Z</Time>
            <Position>
              <LatitudeDegrees>43.0210904963314533233642578125</LatitudeDegrees>
              <LongitudeDegrees>0.58789654634892940521240234375</LongitudeDegrees>
            </Position>
            <AltitudeMeters>480.79998779296875</AltitudeMeters>
            <DistanceMeters>50140.951921581</DistanceMeters>
          </Trackpoint>
          <Trackpoint>
            <Time>2019-05-08T11:08:12.000Z</Time>
            <Position>
              <LatitudeDegrees>43.020992763340473175048828125</LatitudeDegrees>
              <LongitudeDegrees>0.58804004453122615814208984375</LongitudeDegrees>
            </Position>
            <AltitudeMeters>480.600006103515625</AltitudeMeters>
            <DistanceMeters>50156.910469321</DistanceMeters>
          </Trackpoint>
          <Trackpoint>
            <Time>2019-05-08T11:08:17.000Z</Time>
            <Position>
              <LatitudeDegrees>43.02075438201427459716796875</LatitudeDegrees>
              <LongitudeDegrees>0.58839677833020687103271484375</LongitudeDegrees>
            </Position>
            <AltitudeMeters>480.600006103515625</AltitudeMeters>
            <DistanceMeters>50196.237639864</DistanceMeters>
          </Trackpoint>
          <Trackpoint>
            <Time>2019-05-08T11:08:23.000Z</Time>
            <Position>
              <LatitudeDegrees>43.020465038716793060302734375</LatitudeDegrees>
              <LongitudeDegrees>0.58879240415990352630615234375</LongitudeDegrees>
            </Position>
            <AltitudeMeters>480.600006103515625</AltitudeMeters>
            <DistanceMeters>50241.774080477</DistanceMeters>
          </Trackpoint>
          <Trackpoint>
            <Time>2019-05-08T11:08:25.000Z</Time>
            <Position>
              <LatitudeDegrees>43.0203669704496860504150390625</LatitudeDegrees>
              <LongitudeDegrees>0.5889130197465419769287109375</LongitudeDegrees>
            </Position>
            <AltitudeMeters>480.399993896484375</AltitudeMeters>
            <DistanceMeters>50256.453170507</DistanceMeters>
          </Trackpoint>
          <Trackpoint>
            <Time>2019-05-08T11:08:28.000Z</Time>
            <Position>
              <LatitudeDegrees>43.0202114023268222808837890625</LatitudeDegrees>
              <LongitudeDegrees>0.58906607329845428466796875</LongitudeDegrees>
            </Position>
            <AltitudeMeters>480.20001220703125</AltitudeMeters>
            <DistanceMeters>50277.782381727</DistanceMeters>
          </Trackpoint>
          <Trackpoint>
            <Time>2019-05-08T11:08:31.000Z</Time>
            <Position>
              <LatitudeDegrees>43.02005139179527759552001953125</LatitudeDegrees>
              <LongitudeDegrees>0.5891872756183147430419921875</LongitudeDegrees>
            </Position>
            <AltitudeMeters>480.20001220703125</AltitudeMeters>
            <DistanceMeters>50298.14051078</DistanceMeters>
          </Trackpoint>
          <Trackpoint>
            <Time>2019-05-08T11:08:33.000Z</Time>
            <Position>
              <LatitudeDegrees>43.0199431814253330230712890625</LatitudeDegrees>
              <LongitudeDegrees>0.58925357647240161895751953125</LongitudeDegrees>
            </Position>
            <AltitudeMeters>480.399993896484375</AltitudeMeters>
            <DistanceMeters>50311.337596988</DistanceMeters>
          </Trackpoint>
          <Trackpoint>
            <Time>2019-05-08T11:08:39.000Z</Time>
            <Position>
              <LatitudeDegrees>43.01961771212518215179443359375</LatitudeDegrees>
              <LongitudeDegrees>0.58943898417055606842041015625</LongitudeDegrees>
            </Position>
            <AltitudeMeters>479.79998779296875</AltitudeMeters>
            <DistanceMeters>50350.579373147</DistanceMeters>
          </Trackpoint>
          <Trackpoint>
            <Time>2019-05-08T11:08:43.000Z</Time>
            <Position>
              <LatitudeDegrees>43.01941956393420696258544921875</LatitudeDegrees>
              <LongitudeDegrees>0.58952749706804752349853515625</LongitudeDegrees>
            </Position>
            <AltitudeMeters>479.79998779296875</AltitudeMeters>
            <DistanceMeters>50373.779907552</DistanceMeters>
          </Trackpoint>
          <Trackpoint>
            <Time>2019-05-08T11:08:44.000Z</Time>
            <Position>
              <LatitudeDegrees>43.01938335411250591278076171875</LatitudeDegrees>
              <LongitudeDegrees>0.58957074768841266632080078125</LongitudeDegrees>
            </Position>
            <AltitudeMeters>479.600006103515625</AltitudeMeters>
            <DistanceMeters>50379.131860698</DistanceMeters>
          </Trackpoint>
          <Trackpoint>
            <Time>2019-05-08T11:08:45.000Z</Time>
            <Position>
              <LatitudeDegrees>43.01936524920165538787841796875</LatitudeDegrees>
              <LongitudeDegrees>0.5896301753818988800048828125</LongitudeDegrees>
            </Position>
            <AltitudeMeters>479.600006103515625</AltitudeMeters>
            <DistanceMeters>50384.371272153</DistanceMeters>
          </Trackpoint>
          <Trackpoint>
            <Time>2019-05-08T11:08:47.000Z</Time>
            <Position>
              <LatitudeDegrees>43.01937882788479328155517578125</LatitudeDegrees>
              <LongitudeDegrees>0.58975540101528167724609375</LongitudeDegrees>
            </Position>
            <AltitudeMeters>479.79998779296875</AltitudeMeters>
            <DistanceMeters>50394.673237424</DistanceMeters>
          </Trackpoint>
          <Trackpoint>
            <Time>2019-05-08T11:08:48.000Z</Time>
            <Position>
              <LatitudeDegrees>43.019382096827030181884765625</LatitudeDegrees>
              <LongitudeDegrees>0.58981709182262420654296875</LongitudeDegrees>
            </Position>
            <AltitudeMeters>479.600006103515625</AltitudeMeters>
            <DistanceMeters>50399.706963132</DistanceMeters>
          </Trackpoint>
          <Trackpoint>
            <Time>2019-05-08T11:08:50.000Z</Time>
            <Position>
              <LatitudeDegrees>43.01935250870883464813232421875</LatitudeDegrees>
              <LongitudeDegrees>0.5899396352469921112060546875</LongitudeDegrees>
            </Position>
            <AltitudeMeters>479.79998779296875</AltitudeMeters>
            <DistanceMeters>50410.208167517</DistanceMeters>
          </Trackpoint>
          <Trackpoint>
            <Time>2019-05-08T11:08:54.000Z</Time>
            <Position>
              <LatitudeDegrees>43.01924605853855609893798828125</LatitudeDegrees>
              <LongitudeDegrees>0.59019905515015125274658203125</LongitudeDegrees>
            </Position>
            <AltitudeMeters>480</AltitudeMeters>
            <DistanceMeters>50434.4163046</DistanceMeters>
          </Trackpoint>
          <Trackpoint>
            <Time>2019-05-08T11:08:56.000Z</Time>
            <Position>
              <LatitudeDegrees>43.01917850039899349212646484375</LatitudeDegrees>
              <LongitudeDegrees>0.590326376259326934814453125</LongitudeDegrees>
            </Position>
            <AltitudeMeters>479.79998779296875</AltitudeMeters>
            <DistanceMeters>50447.218487518</DistanceMeters>
          </Trackpoint>
          <Trackpoint>
            <Time>2019-05-08T11:08:58.000Z</Time>
            <Position>
              <LatitudeDegrees>43.01910482347011566162109375</LatitudeDegrees>
              <LongitudeDegrees>0.590448416769504547119140625</LongitudeDegrees>
            </Position>
            <AltitudeMeters>480</AltitudeMeters>
            <DistanceMeters>50460.098025719</DistanceMeters>
          </Trackpoint>
          <Trackpoint>
            <Time>2019-05-08T11:09:03.000Z</Time>
            <Position>
              <LatitudeDegrees>43.01891614682972431182861328125</LatitudeDegrees>
              <LongitudeDegrees>0.5907409451901912689208984375</LongitudeDegrees>
            </Position>
            <AltitudeMeters>479.79998779296875</AltitudeMeters>
            <DistanceMeters>50491.841784639</DistanceMeters>
          </Trackpoint>
          <Trackpoint>
            <Time>2019-05-08T11:09:06.000Z</Time>
            <Position>
              <LatitudeDegrees>43.018798045814037322998046875</LatitudeDegrees>
              <LongitudeDegrees>0.59090673923492431640625</LongitudeDegrees>
            </Position>
            <AltitudeMeters>479.79998779296875</AltitudeMeters>
            <DistanceMeters>50510.678418991</DistanceMeters>
          </Trackpoint>
          <Trackpoint>
            <Time>2019-05-08T11:09:10.000Z</Time>
            <Position>
              <LatitudeDegrees>43.01862873136997222900390625</LatitudeDegrees>
              <LongitudeDegrees>0.59111419133841991424560546875</LongitudeDegrees>
            </Position>
            <AltitudeMeters>479.600006103515625</AltitudeMeters>
            <DistanceMeters>50535.979270539</DistanceMeters>
          </Trackpoint>
          <Trackpoint>
            <Time>2019-05-08T11:09:13.000Z</Time>
            <Position>
              <LatitudeDegrees>43.018500320613384246826171875</LatitudeDegrees>
              <LongitudeDegrees>0.59126607142388820648193359375</LongitudeDegrees>
            </Position>
            <AltitudeMeters>479.600006103515625</AltitudeMeters>
            <DistanceMeters>50554.874538794</DistanceMeters>
          </Trackpoint>
          <Trackpoint>
            <Time>2019-05-08T11:09:15.000Z</Time>
            <Position>
              <LatitudeDegrees>43.0184133164584636688232421875</LatitudeDegrees>
              <LongitudeDegrees>0.591367743909358978271484375</LongitudeDegrees>
            </Position>
            <AltitudeMeters>479.600006103515625</AltitudeMeters>
            <DistanceMeters>50567.611309316</DistanceMeters>
          </Trackpoint>
          <Trackpoint>
            <Time>2019-05-08T11:09:23.000Z</Time>
            <Position>
              <LatitudeDegrees>43.01807753741741180419921875</LatitudeDegrees>
              <LongitudeDegrees>0.5917920358479022979736328125</LongitudeDegrees>
            </Position>
            <AltitudeMeters>480.20001220703125</AltitudeMeters>
            <DistanceMeters>50618.492413826</DistanceMeters>
          </Trackpoint>
          <Trackpoint>
            <Time>2019-05-08T11:09:33.000Z</Time>
            <Position>
              <LatitudeDegrees>43.01768434233963489532470703125</LatitudeDegrees>
              <LongitudeDegrees>0.59236586093902587890625</LongitudeDegrees>
            </Position>
            <AltitudeMeters>480.399993896484375</AltitudeMeters>
            <DistanceMeters>50682.490771874</DistanceMeters>
          </Trackpoint>
          <Trackpoint>
            <Time>2019-05-08T11:09:35.000Z</Time>
            <Position>
              <LatitudeDegrees>43.01761276088654994964599609375</LatitudeDegrees>
              <LongitudeDegrees>0.5924837104976177215576171875</LongitudeDegrees>
            </Position>
            <AltitudeMeters>480.399993896484375</AltitudeMeters>
            <DistanceMeters>50694.958479599</DistanceMeters>
          </Trackpoint>
          <Trackpoint>
            <Time>2019-05-08T11:09:39.000Z</Time>
            <Position>
              <LatitudeDegrees>43.01748351193964481353759765625</LatitudeDegrees>
              <LongitudeDegrees>0.59270876459777355194091796875</LongitudeDegrees>
            </Position>
            <AltitudeMeters>480.399993896484375</AltitudeMeters>
            <DistanceMeters>50718.247392872</DistanceMeters>
          </Trackpoint>
          <Trackpoint>
            <Time>2019-05-08T11:09:42.000Z</Time>
            <Position>
              <LatitudeDegrees>43.01738292910158634185791015625</LatitudeDegrees>
              <LongitudeDegrees>0.59288595803081989288330078125</LongitudeDegrees>
            </Position>
            <AltitudeMeters>480.20001220703125</AltitudeMeters>
            <DistanceMeters>50736.50291262</DistanceMeters>
          </Trackpoint>
          <Trackpoint>
            <Time>2019-05-08T11:09:43.000Z</Time>
            <Position>
              <LatitudeDegrees>43.0173478089272975921630859375</LatitudeDegrees>
              <LongitudeDegrees>0.59294513426721096038818359375</LongitudeDegrees>
            </Position>
            <AltitudeMeters>480.399993896484375</AltitudeMeters>
            <DistanceMeters>50742.705180403</DistanceMeters>
          </Trackpoint>
          <Trackpoint>
            <Time>2019-05-08T11:09:47.000Z</Time>
            <Position>
              <LatitudeDegrees>43.01721252501010894775390625</LatitudeDegrees>
              <LongitudeDegrees>0.59318267740309238433837890625</LongitudeDegrees>
            </Position>
            <AltitudeMeters>480.600006103515625</AltitudeMeters>
            <DistanceMeters>50767.20807253</DistanceMeters>
          </Trackpoint>
          <Trackpoint>
            <Time>2019-05-08T11:09:49.000Z</Time>
            <Position>
              <LatitudeDegrees>43.01714622415602207183837890625</LatitudeDegrees>
              <LongitudeDegrees>0.5933044664561748504638671875</LongitudeDegrees>
            </Position>
            <AltitudeMeters>480.399993896484375</AltitudeMeters>
            <DistanceMeters>50779.564468951</DistanceMeters>
          </Trackpoint>
          <Trackpoint>
            <Time>2019-05-08T11:09:50.000Z</Time>
            <Position>
              <LatitudeDegrees>43.01711336709558963775634765625</LatitudeDegrees>
              <LongitudeDegrees>0.5933649837970733642578125</LongitudeDegrees>
            </Position>
            <AltitudeMeters>480.399993896484375</AltitudeMeters>
            <DistanceMeters>50785.697926252</DistanceMeters>
          </Trackpoint>
          <Trackpoint>
            <Time>2019-05-08T11:09:52.000Z</Time>
            <Position>
              <LatitudeDegrees>43.01704731769859790802001953125</LatitudeDegrees>
              <LongitudeDegrees>0.59348677285015583038330078125</LongitudeDegrees>
            </Position>
            <AltitudeMeters>480.399993896484375</AltitudeMeters>
            <DistanceMeters>50798.038234561</DistanceMeters>
          </Trackpoint>
          <Trackpoint>
            <Time>2019-05-08T11:09:55.000Z</Time>
            <Position>
              <LatitudeDegrees>43.0169468186795711517333984375</LatitudeDegrees>
              <LongitudeDegrees>0.59367100708186626434326171875</LongitudeDegrees>
            </Position>
            <AltitudeMeters>480.20001220703125</AltitudeMeters>
            <DistanceMeters>50816.744020621</DistanceMeters>
          </Trackpoint>
          <Trackpoint>
            <Time>2019-05-08T11:09:58.000Z</Time>
            <Position>
              <LatitudeDegrees>43.01683793775737285614013671875</LatitudeDegrees>
              <LongitudeDegrees>0.59386881999671459197998046875</LongitudeDegrees>
            </Position>
            <AltitudeMeters>480.20001220703125</AltitudeMeters>
            <DistanceMeters>50836.893493741</DistanceMeters>
          </Trackpoint>
          <Trackpoint>
            <Time>2019-05-08T11:10:00.000Z</Time>
            <Position>
              <LatitudeDegrees>43.016755878925323486328125</LatitudeDegrees>
              <LongitudeDegrees>0.5940072052180767059326171875</LongitudeDegrees>
            </Position>
            <AltitudeMeters>480</AltitudeMeters>
            <DistanceMeters>50851.393399597</DistanceMeters>
          </Trackpoint>
          <Trackpoint>
            <Time>2019-05-08T11:10:02.000Z</Time>
            <Position>
              <LatitudeDegrees>43.0166661925613880157470703125</LatitudeDegrees>
              <LongitudeDegrees>0.59415682218968868255615234375</LongitudeDegrees>
            </Position>
            <AltitudeMeters>479.79998779296875</AltitudeMeters>
            <DistanceMeters>50867.137751869</DistanceMeters>
          </Trackpoint>
          <Trackpoint>
            <Time>2019-05-08T11:10:04.000Z</Time>
            <Position>
              <LatitudeDegrees>43.01657147705554962158203125</LatitudeDegrees>
              <LongitudeDegrees>0.59431741945445537567138671875</LongitudeDegrees>
            </Position>
            <AltitudeMeters>479.399993896484375</AltitudeMeters>
            <DistanceMeters>50883.928732982</DistanceMeters>
          </Trackpoint>
          <Trackpoint>
            <Time>2019-05-08T11:10:08.000Z</Time>
            <Position>
              <LatitudeDegrees>43.01639051176607608795166015625</LatitudeDegrees>
              <LongitudeDegrees>0.59466811828315258026123046875</LongitudeDegrees>
            </Position>
            <AltitudeMeters>478.600006103515625</AltitudeMeters>
            <DistanceMeters>50918.86006719</DistanceMeters>
          </Trackpoint>
          <Trackpoint>
            <Time>2019-05-08T11:10:09.000Z</Time>
            <Position>
              <LatitudeDegrees>43.01634508185088634490966796875</LatitudeDegrees>
              <LongitudeDegrees>0.59475864283740520477294921875</LongitudeDegrees>
            </Position>
            <AltitudeMeters>478.399993896484375</AltitudeMeters>
            <DistanceMeters>50927.795610594</DistanceMeters>
          </Trackpoint>
          <Trackpoint>
            <Time>2019-05-08T11:10:12.000Z</Time>
            <Position>
              <LatitudeDegrees>43.0162100493907928466796875</LatitudeDegrees>
              <LongitudeDegrees>0.5950415320694446563720703125</LongitudeDegrees>
            </Position>
            <AltitudeMeters>476.79998779296875</AltitudeMeters>
            <DistanceMeters>50955.288400897</DistanceMeters>
          </Trackpoint>
          <Trackpoint>
            <Time>2019-05-08T11:10:13.000Z</Time>
            <Position>
              <LatitudeDegrees>43.01616470329463481903076171875</LatitudeDegrees>
              <LongitudeDegrees>0.595137588679790496826171875</LongitudeDegrees>
            </Position>
            <AltitudeMeters>476.399993896484375</AltitudeMeters>
            <DistanceMeters>50964.593258389</DistanceMeters>
          </Trackpoint>
          <Trackpoint>
            <Time>2019-05-08T11:10:15.000Z</Time>
            <Position>
              <LatitudeDegrees>43.0160732567310333251953125</LatitudeDegrees>
              <LongitudeDegrees>0.59533062390983104705810546875</LongitudeDegrees>
            </Position>
            <AltitudeMeters>476.20001220703125</AltitudeMeters>
            <DistanceMeters>50983.311832752</DistanceMeters>
          </Trackpoint>
          <Trackpoint>
            <Time>2019-05-08T11:10:16.000Z</Time>
            <Position>
              <LatitudeDegrees>43.01603260450065135955810546875</LatitudeDegrees>
              <LongitudeDegrees>0.59543271549046039581298828125</LongitudeDegrees>
            </Position>
            <AltitudeMeters>476</AltitudeMeters>
            <DistanceMeters>50992.772122792</DistanceMeters>
          </Trackpoint>
          <Trackpoint>
            <Time>2019-05-08T11:10:17.000Z</Time>
            <Position>
              <LatitudeDegrees>43.01599605940282344818115234375</LatitudeDegrees>
              <LongitudeDegrees>0.59553916566073894500732421875</LongitudeDegrees>
            </Position>
            <AltitudeMeters>475</AltitudeMeters>
            <DistanceMeters>51002.342968911</DistanceMeters>
          </Trackpoint>
          <Trackpoint>
            <Time>2019-05-08T11:10:20.000Z</Time>
            <Position>
              <LatitudeDegrees>43.01591056399047374725341796875</LatitudeDegrees>
              <LongitudeDegrees>0.595877207815647125244140625</LongitudeDegrees>
            </Position>
            <AltitudeMeters>474</AltitudeMeters>
            <DistanceMeters>51031.452336532</DistanceMeters>
          </Trackpoint>
          <Trackpoint>
            <Time>2019-05-08T11:10:21.000Z</Time>
            <Position>
              <LatitudeDegrees>43.0158970691263675689697265625</LatitudeDegrees>
              <LongitudeDegrees>0.59599413536489009857177734375</LongitudeDegrees>
            </Position>
            <AltitudeMeters>473.20001220703125</AltitudeMeters>
            <DistanceMeters>51041.085720964</DistanceMeters>
          </Trackpoint>
          <Trackpoint>
            <Time>2019-05-08T11:10:22.000Z</Time>
            <Position>
              <LatitudeDegrees>43.0158920399844646453857421875</LatitudeDegrees>
              <LongitudeDegrees>0.59611148200929164886474609375</LongitudeDegrees>
            </Position>
            <AltitudeMeters>472.600006103515625</AltitudeMeters>
            <DistanceMeters>51050.651848429</DistanceMeters>
          </Trackpoint>
          <Trackpoint>
            <Time>2019-05-08T11:10:26.000Z</Time>
            <Position>
              <LatitudeDegrees>43.01589882932603359222412109375</LatitudeDegrees>
              <LongitudeDegrees>0.596561171114444732666015625</LongitudeDegrees>
            </Position>
            <AltitudeMeters>471.20001220703125</AltitudeMeters>
            <DistanceMeters>51087.255517129</DistanceMeters>
          </Trackpoint>
          <Trackpoint>
            <Time>2019-05-08T11:10:31.000Z</Time>
            <Position>
              <LatitudeDegrees>43.01595725119113922119140625</LatitudeDegrees>
              <LongitudeDegrees>0.59708244167268276214599609375</LongitudeDegrees>
            </Position>
            <AltitudeMeters>469.399993896484375</AltitudeMeters>
            <DistanceMeters>51130.171837007</DistanceMeters>
          </Trackpoint>
          <Trackpoint>
            <Time>2019-05-08T11:10:33.000Z</Time>
            <Position>
              <LatitudeDegrees>43.015985749661922454833984375</LatitudeDegrees>
              <LongitudeDegrees>0.5972862057387828826904296875</LongitudeDegrees>
            </Position>
            <AltitudeMeters>469.20001220703125</AltitudeMeters>
            <DistanceMeters>51147.054530301</DistanceMeters>
          </Trackpoint>
          <Trackpoint>
            <Time>2019-05-08T11:10:38.000Z</Time>
            <Position>
              <LatitudeDegrees>43.0160610191524028778076171875</LatitudeDegrees>
              <LongitudeDegrees>0.59776154346764087677001953125</LongitudeDegrees>
            </Position>
            <AltitudeMeters>468.79998779296875</AltitudeMeters>
            <DistanceMeters>51186.634040929</DistanceMeters>
          </Trackpoint>
          <Trackpoint>
            <Time>2019-05-08T11:10:39.000Z</Time>
            <Position>
              <LatitudeDegrees>43.01608306355774402618408203125</LatitudeDegrees>
              <LongitudeDegrees>0.59784636832773685455322265625</LongitudeDegrees>
            </Position>
            <AltitudeMeters>468.79998779296875</AltitudeMeters>
            <DistanceMeters>51193.959731634</DistanceMeters>
          </Trackpoint>
          <Trackpoint>
            <Time>2019-05-08T11:10:40.000Z</Time>
            <Position>
              <LatitudeDegrees>43.01611156202852725982666015625</LatitudeDegrees>
              <LongitudeDegrees>0.5979242362082004547119140625</LongitudeDegrees>
            </Position>
            <AltitudeMeters>468.79998779296875</AltitudeMeters>
            <DistanceMeters>51201.046074492</DistanceMeters>
          </Trackpoint>
          <Trackpoint>
            <Time>2019-05-08T11:10:42.000Z</Time>
            <Position>
              <LatitudeDegrees>43.01616990007460117340087890625</LatitudeDegrees>
              <LongitudeDegrees>0.59807586483657360076904296875</LongitudeDegrees>
            </Position>
            <AltitudeMeters>468.79998779296875</AltitudeMeters>
            <DistanceMeters>51214.989443735</DistanceMeters>
          </Trackpoint>
          <Trackpoint>
            <Time>2019-05-08T11:10:44.000Z</Time>
            <Position>
              <LatitudeDegrees>43.0162206105887889862060546875</LatitudeDegrees>
              <LongitudeDegrees>0.5982306785881519317626953125</LongitudeDegrees>
            </Position>
            <AltitudeMeters>468.79998779296875</AltitudeMeters>
            <DistanceMeters>51228.794833748</DistanceMeters>
          </Trackpoint>
          <Trackpoint>
            <Time>2019-05-08T11:10:45.000Z</Time>
            <Position>
              <LatitudeDegrees>43.01623997278511524200439453125</LatitudeDegrees>
              <LongitudeDegrees>0.59830921702086925506591796875</LongitudeDegrees>
            </Position>
            <AltitudeMeters>468.600006103515625</AltitudeMeters>
            <DistanceMeters>51235.539722563</DistanceMeters>
          </Trackpoint>
          <Trackpoint>
            <Time>2019-05-08T11:10:47.000Z</Time>
            <Position>
              <LatitudeDegrees>43.01626159809529781341552734375</LatitudeDegrees>
              <LongitudeDegrees>0.59846830554306507110595703125</LongitudeDegrees>
            </Position>
            <AltitudeMeters>468.399993896484375</AltitudeMeters>
            <DistanceMeters>51248.708381873</DistanceMeters>
          </Trackpoint>
          <Trackpoint>
            <Time>2019-05-08T11:10:48.000Z</Time>
            <Position>
              <LatitudeDegrees>43.0162662081420421600341796875</LatitudeDegrees>
              <LongitudeDegrees>0.5985475145280361175537109375</LongitudeDegrees>
            </Position>
            <AltitudeMeters>468.399993896484375</AltitudeMeters>
            <DistanceMeters>51255.175087682</DistanceMeters>
          </Trackpoint>
          <Trackpoint>
            <Time>2019-05-08T11:10:54.000Z</Time>
            <Position>
              <LatitudeDegrees>43.01625497639179229736328125</LatitudeDegrees>
              <LongitudeDegrees>0.5990259535610675811767578125</LongitudeDegrees>
            </Position>
            <AltitudeMeters>468.600006103515625</AltitudeMeters>
            <DistanceMeters>51294.130245831</DistanceMeters>
          </Trackpoint>
          <Trackpoint>
            <Time>2019-05-08T11:10:56.000Z</Time>
            <Position>
              <LatitudeDegrees>43.01623829640448093414306640625</LatitudeDegrees>
              <LongitudeDegrees>0.59918780811131000518798828125</LongitudeDegrees>
            </Position>
            <AltitudeMeters>468.600006103515625</AltitudeMeters>
            <DistanceMeters>51307.4319494</DistanceMeters>
          </Trackpoint>
          <Trackpoint>
            <Time>2019-05-08T11:10:58.000Z</Time>
            <Position>
              <LatitudeDegrees>43.01619730889797210693359375</LatitudeDegrees>
              <LongitudeDegrees>0.599327199161052703857421875</LongitudeDegrees>
            </Position>
            <AltitudeMeters>468.399993896484375</AltitudeMeters>
            <DistanceMeters>51319.658678951</DistanceMeters>
          </Trackpoint>
          <Trackpoint>
            <Time>2019-05-08T11:11:00.000Z</Time>
            <Position>
              <LatitudeDegrees>43.01614542491734027862548828125</LatitudeDegrees>
              <LongitudeDegrees>0.59941881336271762847900390625</LongitudeDegrees>
            </Position>
            <AltitudeMeters>468.79998779296875</AltitudeMeters>
            <DistanceMeters>51329.088853543</DistanceMeters>
          </Trackpoint>
          <Trackpoint>
            <Time>2019-05-08T11:11:01.000Z</Time>
            <Position>
              <LatitudeDegrees>43.016121871769428253173828125</LatitudeDegrees>
              <LongitudeDegrees>0.59943255968391895294189453125</LongitudeDegrees>
            </Position>
            <AltitudeMeters>468.79998779296875</AltitudeMeters>
            <DistanceMeters>51331.939654974</DistanceMeters>
          </Trackpoint>
          <Trackpoint>
            <Time>2019-05-08T11:11:03.000Z</Time>
            <Position>
              <LatitudeDegrees>43.01608197391033172607421875</LatitudeDegrees>
              <LongitudeDegrees>0.5994080007076263427734375</LongitudeDegrees>
            </Position>
            <AltitudeMeters>469</AltitudeMeters>
            <DistanceMeters>51336.809252569</DistanceMeters>
          </Trackpoint>
          <Trackpoint>
            <Time>2019-05-08T11:11:05.000Z</Time>
            <Position>
              <LatitudeDegrees>43.01606655120849609375</LatitudeDegrees>
              <LongitudeDegrees>0.59935678727924823760986328125</LongitudeDegrees>
            </Position>
            <AltitudeMeters>468.79998779296875</AltitudeMeters>
            <DistanceMeters>51341.315763628</DistanceMeters>
          </Trackpoint>
          <Trackpoint>
            <Time>2019-05-08T11:11:07.000Z</Time>
            <Position>
              <LatitudeDegrees>43.0160657130181789398193359375</LatitudeDegrees>
              <LongitudeDegrees>0.59934086166322231292724609375</LongitudeDegrees>
            </Position>
            <AltitudeMeters>469</AltitudeMeters>
            <DistanceMeters>51342.615234403</DistanceMeters>
          </Trackpoint>
          <Trackpoint>
            <Time>2019-05-08T11:11:08.000Z</Time>
            <Position>
              <LatitudeDegrees>43.016065545380115509033203125</LatitudeDegrees>
              <LongitudeDegrees>0.59933767654001712799072265625</LongitudeDegrees>
            </Position>
            <AltitudeMeters>468.79998779296875</AltitudeMeters>
            <DistanceMeters>51342.866651457</DistanceMeters>
          </Trackpoint>
          <Trackpoint>
            <Time>2019-05-08T11:12:11.000Z</Time>
            <Position>
              <LatitudeDegrees>43.0161146633327007293701171875</LatitudeDegrees>
              <LongitudeDegrees>0.59933499433100223541259765625</LongitudeDegrees>
            </Position>
            <AltitudeMeters>469</AltitudeMeters>
            <DistanceMeters>51348.337913049</DistanceMeters>
          </Trackpoint>
          <Trackpoint>
            <Time>2019-05-08T11:12:13.000Z</Time>
            <Position>
              <LatitudeDegrees>43.01612396724522113800048828125</LatitudeDegrees>
              <LongitudeDegrees>0.5993763171136379241943359375</LongitudeDegrees>
            </Position>
            <AltitudeMeters>469</AltitudeMeters>
            <DistanceMeters>51351.856468833</DistanceMeters>
          </Trackpoint>
          <Trackpoint>
            <Time>2019-05-08T11:12:17.000Z</Time>
            <Position>
              <LatitudeDegrees>43.01606613211333751678466796875</LatitudeDegrees>
              <LongitudeDegrees>0.59945854358375072479248046875</LongitudeDegrees>
            </Position>
            <AltitudeMeters>468.79998779296875</AltitudeMeters>
            <DistanceMeters>51361.141896658</DistanceMeters>
          </Trackpoint>
          <Trackpoint>
            <Time>2019-05-08T11:12:18.000Z</Time>
            <Position>
              <LatitudeDegrees>43.016050793230533599853515625</LatitudeDegrees>
              <LongitudeDegrees>0.5994869582355022430419921875</LongitudeDegrees>
            </Position>
            <AltitudeMeters>468.79998779296875</AltitudeMeters>
            <DistanceMeters>51364.017926912</DistanceMeters>
          </Trackpoint>
          <Trackpoint>
            <Time>2019-05-08T11:12:23.000Z</Time>
            <Position>
              <LatitudeDegrees>43.01592028699815273284912109375</LatitudeDegrees>
              <LongitudeDegrees>0.599594414234161376953125</LongitudeDegrees>
            </Position>
            <AltitudeMeters>469</AltitudeMeters>
            <DistanceMeters>51380.972940436</DistanceMeters>
          </Trackpoint>
          <Trackpoint>
            <Time>2019-05-08T11:12:29.000Z</Time>
            <Position>
              <LatitudeDegrees>43.01574577577412128448486328125</LatitudeDegrees>
              <LongitudeDegrees>0.599714778363704681396484375</LongitudeDegrees>
            </Position>
            <AltitudeMeters>469.600006103515625</AltitudeMeters>
            <DistanceMeters>51402.726794948</DistanceMeters>
          </Trackpoint>
          <Trackpoint>
            <Time>2019-05-08T11:12:32.000Z</Time>
            <Position>
              <LatitudeDegrees>43.0157123319804668426513671875</LatitudeDegrees>
              <LongitudeDegrees>0.59973531402647495269775390625</LongitudeDegrees>
            </Position>
            <AltitudeMeters>469.79998779296875</AltitudeMeters>
            <DistanceMeters>51406.807415117</DistanceMeters>
          </Trackpoint>
          <Trackpoint>
            <Time>2019-05-08T11:12:34.000Z</Time>
            <Position>
              <LatitudeDegrees>43.015701435506343841552734375</LatitudeDegrees>
              <LongitudeDegrees>0.59974570758640766143798828125</LongitudeDegrees>
            </Position>
            <AltitudeMeters>469.600006103515625</AltitudeMeters>
            <DistanceMeters>51408.285683867</DistanceMeters>
          </Trackpoint>
          <Trackpoint>
            <Time>2019-05-08T11:12:36.000Z</Time>
            <Position>
              <LatitudeDegrees>43.01566648297011852264404296875</LatitudeDegrees>
              <LongitudeDegrees>0.59977470897138118743896484375</LongitudeDegrees>
            </Position>
            <AltitudeMeters>469.79998779296875</AltitudeMeters>
            <DistanceMeters>51412.835072311</DistanceMeters>
          </Trackpoint>
          <Trackpoint>
            <Time>2019-05-08T11:12:40.000Z</Time>
            <Position>
              <LatitudeDegrees>43.0155882798135280609130859375</LatitudeDegrees>
              <LongitudeDegrees>0.59987428598105907440185546875</LongitudeDegrees>
            </Position>
            <AltitudeMeters>469.20001220703125</AltitudeMeters>
            <DistanceMeters>51424.727467245</DistanceMeters>
          </Trackpoint>
          <Trackpoint>
            <Time>2019-05-08T11:12:41.000Z</Time>
            <Position>
              <LatitudeDegrees>43.01557143218815326690673828125</LatitudeDegrees>
              <LongitudeDegrees>0.599906556308269500732421875</LongitudeDegrees>
            </Position>
            <AltitudeMeters>469.20001220703125</AltitudeMeters>
            <DistanceMeters>51427.95557942</DistanceMeters>
          </Trackpoint>
          <Trackpoint>
            <Time>2019-05-08T11:12:44.000Z</Time>
            <Position>
              <LatitudeDegrees>43.01557277329266071319580078125</LatitudeDegrees>
              <LongitudeDegrees>0.59995911084115505218505859375</LongitudeDegrees>
            </Position>
            <AltitudeMeters>468.79998779296875</AltitudeMeters>
            <DistanceMeters>51432.236002893</DistanceMeters>
          </Trackpoint>
          <Trackpoint>
            <Time>2019-05-08T11:12:45.000Z</Time>
            <Position>
              <LatitudeDegrees>43.01557227037847042083740234375</LatitudeDegrees>
              <LongitudeDegrees>0.59995793737471103668212890625</LongitudeDegrees>
            </Position>
            <AltitudeMeters>468.79998779296875</AltitudeMeters>
            <DistanceMeters>51432.236002893</DistanceMeters>
          </Trackpoint>
          <Trackpoint>
            <Time>2019-05-08T11:13:26.000Z</Time>
            <Position>
              <LatitudeDegrees>43.01558040082454681396484375</LatitudeDegrees>
              <LongitudeDegrees>0.5999898724257946014404296875</LongitudeDegrees>
            </Position>
            <AltitudeMeters>467.79998779296875</AltitudeMeters>
            <DistanceMeters>51434.986858043</DistanceMeters>
          </Trackpoint>
          <Trackpoint>
            <Time>2019-05-08T11:13:27.000Z</Time>
            <Position>
              <LatitudeDegrees>43.01558685488998889923095703125</LatitudeDegrees>
              <LongitudeDegrees>0.60001627542078495025634765625</LongitudeDegrees>
            </Position>
            <AltitudeMeters>467.79998779296875</AltitudeMeters>
            <DistanceMeters>51437.251606025</DistanceMeters>
          </Trackpoint>
          <Trackpoint>
            <Time>2019-05-08T11:13:28.000Z</Time>
            <Position>
              <LatitudeDegrees>43.01559171639382839202880859375</LatitudeDegrees>
              <LongitudeDegrees>0.600050389766693115234375</LongitudeDegrees>
            </Position>
            <AltitudeMeters>468</AltitudeMeters>
            <DistanceMeters>51440.080147651</DistanceMeters>
          </Trackpoint>
          <Trackpoint>
            <Time>2019-05-08T11:13:33.000Z</Time>
            <Position>
              <LatitudeDegrees>43.0156362242996692657470703125</LatitudeDegrees>
              <LongitudeDegrees>0.60027376748621463775634765625</LongitudeDegrees>
            </Position>
            <AltitudeMeters>467.79998779296875</AltitudeMeters>
            <DistanceMeters>51458.921335649</DistanceMeters>
          </Trackpoint>
          <Trackpoint>
            <Time>2019-05-08T11:13:36.000Z</Time>
            <Position>
              <LatitudeDegrees>43.015690706670284271240234375</LatitudeDegrees>
              <LongitudeDegrees>0.6004290841519832611083984375</LongitudeDegrees>
            </Position>
            <AltitudeMeters>467.600006103515625</AltitudeMeters>
            <DistanceMeters>51472.94027226</DistanceMeters>
          </Trackpoint>
          <Trackpoint>
            <Time>2019-05-08T11:13:39.000Z</Time>
            <Position>
              <LatitudeDegrees>43.01576740108430385589599609375</LatitudeDegrees>
              <LongitudeDegrees>0.600572414696216583251953125</LongitudeDegrees>
            </Position>
            <AltitudeMeters>467</AltitudeMeters>
            <DistanceMeters>51487.394644564</DistanceMeters>
          </Trackpoint>
          <Trackpoint>
            <Time>2019-05-08T11:13:46.000Z</Time>
            <Position>
              <LatitudeDegrees>43.01599522121250629425048828125</LatitudeDegrees>
              <LongitudeDegrees>0.60085765086114406585693359375</LongitudeDegrees>
            </Position>
            <AltitudeMeters>467</AltitudeMeters>
            <DistanceMeters>51521.771732346</DistanceMeters>
          </Trackpoint>
          <Trackpoint>
            <Time>2019-05-08T11:13:49.000Z</Time>
            <Position>
              <LatitudeDegrees>43.01607836969196796417236328125</LatitudeDegrees>
              <LongitudeDegrees>0.60100668109953403472900390625</LongitudeDegrees>
            </Position>
            <AltitudeMeters>467.20001220703125</AltitudeMeters>
            <DistanceMeters>51537.027293961</DistanceMeters>
          </Trackpoint>
          <Trackpoint>
            <Time>2019-05-08T11:13:51.000Z</Time>
            <Position>
              <LatitudeDegrees>43.01611273549497127532958984375</LatitudeDegrees>
              <LongitudeDegrees>0.60113274492323398590087890625</LongitudeDegrees>
            </Position>
            <AltitudeMeters>467.399993896484375</AltitudeMeters>
            <DistanceMeters>51547.976416979</DistanceMeters>
          </Trackpoint>
          <Trackpoint>
            <Time>2019-05-08T11:13:53.000Z</Time>
            <Position>
              <LatitudeDegrees>43.01611575298011302947998046875</LatitudeDegrees>
              <LongitudeDegrees>0.60127741657197475433349609375</LongitudeDegrees>
            </Position>
            <AltitudeMeters>467.600006103515625</AltitudeMeters>
            <DistanceMeters>51559.755130597</DistanceMeters>
          </Trackpoint>
          <Trackpoint>
            <Time>2019-05-08T11:13:54.000Z</Time>
            <Position>
              <LatitudeDegrees>43.01609479822218418121337890625</LatitudeDegrees>
              <LongitudeDegrees>0.60134581290185451507568359375</LongitudeDegrees>
            </Position>
            <AltitudeMeters>467.399993896484375</AltitudeMeters>
            <DistanceMeters>51565.79063624</DistanceMeters>
          </Trackpoint>
          <Trackpoint>
            <Time>2019-05-08T11:13:55.000Z</Time>
            <Position>
              <LatitudeDegrees>43.0160667188465595245361328125</LatitudeDegrees>
              <LongitudeDegrees>0.6014047376811504364013671875</LongitudeDegrees>
            </Position>
            <AltitudeMeters>467.399993896484375</AltitudeMeters>
            <DistanceMeters>51571.514369055</DistanceMeters>
          </Trackpoint>
          <Trackpoint>
            <Time>2019-05-08T11:13:58.000Z</Time>
            <Position>
              <LatitudeDegrees>43.01596035249531269073486328125</LatitudeDegrees>
              <LongitudeDegrees>0.60160095803439617156982421875</LongitudeDegrees>
            </Position>
            <AltitudeMeters>467.399993896484375</AltitudeMeters>
            <DistanceMeters>51591.392449572</DistanceMeters>
          </Trackpoint>
          <Trackpoint>
            <Time>2019-05-08T11:13:59.000Z</Time>
            <Position>
              <LatitudeDegrees>43.0159238912165164947509765625</LatitudeDegrees>
              <LongitudeDegrees>0.60167589224874973297119140625</LongitudeDegrees>
            </Position>
            <AltitudeMeters>467.600006103515625</AltitudeMeters>
            <DistanceMeters>51598.717523922</DistanceMeters>
          </Trackpoint>
          <Trackpoint>
            <Time>2019-05-08T11:14:00.000Z</Time>
            <Position>
              <LatitudeDegrees>43.01589044742286205291748046875</LatitudeDegrees>
              <LongitudeDegrees>0.60175669379532337188720703125</LongitudeDegrees>
            </Position>
            <AltitudeMeters>467.399993896484375</AltitudeMeters>
            <DistanceMeters>51606.273193534</DistanceMeters>
          </Trackpoint>
          <Trackpoint>
            <Time>2019-05-08T11:14:02.000Z</Time>
            <Position>
              <LatitudeDegrees>43.01583043299615383148193359375</LatitudeDegrees>
              <LongitudeDegrees>0.60192181728780269622802734375</LongitudeDegrees>
            </Position>
            <AltitudeMeters>467.20001220703125</AltitudeMeters>
            <DistanceMeters>51621.279593714</DistanceMeters>
          </Trackpoint>
          <Trackpoint>
            <Time>2019-05-08T11:14:03.000Z</Time>
            <Position>
              <LatitudeDegrees>43.01579992286860942840576171875</LatitudeDegrees>
              <LongitudeDegrees>0.6020011939108371734619140625</LongitudeDegrees>
            </Position>
            <AltitudeMeters>467.20001220703125</AltitudeMeters>
            <DistanceMeters>51628.577496896</DistanceMeters>
          </Trackpoint>
          <Trackpoint>
            <Time>2019-05-08T11:14:08.000Z</Time>
            <Position>
              <LatitudeDegrees>43.015678636729717254638671875</LatitudeDegrees>
              <LongitudeDegrees>0.602434538304805755615234375</LongitudeDegrees>
            </Position>
            <AltitudeMeters>466.20001220703125</AltitudeMeters>
            <DistanceMeters>51666.338631029</DistanceMeters>
          </Trackpoint>
          <Trackpoint>
            <Time>2019-05-08T11:14:15.000Z</Time>
            <Position>
              <LatitudeDegrees>43.01555433310568332672119140625</LatitudeDegrees>
              <LongitudeDegrees>0.6030529551208019256591796875</LongitudeDegrees>
            </Position>
            <AltitudeMeters>465.20001220703125</AltitudeMeters>
            <DistanceMeters>51718.532783785</DistanceMeters>
          </Trackpoint>
          <Trackpoint>
            <Time>2019-05-08T11:14:16.000Z</Time>
            <Position>
              <LatitudeDegrees>43.0155312828719615936279296875</LatitudeDegrees>
              <LongitudeDegrees>0.60314088128507137298583984375</LongitudeDegrees>
            </Position>
            <AltitudeMeters>465</AltitudeMeters>
            <DistanceMeters>51726.134326994</DistanceMeters>
          </Trackpoint>
          <Trackpoint>
            <Time>2019-05-08T11:14:19.000Z</Time>
            <Position>
              <LatitudeDegrees>43.01544872112572193145751953125</LatitudeDegrees>
              <LongitudeDegrees>0.6034009717404842376708984375</LongitudeDegrees>
            </Position>
            <AltitudeMeters>464.79998779296875</AltitudeMeters>
            <DistanceMeters>51749.209388371</DistanceMeters>
          </Trackpoint>
          <Trackpoint>
            <Time>2019-05-08T11:14:21.000Z</Time>
            <Position>
              <LatitudeDegrees>43.015362806618213653564453125</LatitudeDegrees>
              <LongitudeDegrees>0.60355042107403278350830078125</LongitudeDegrees>
            </Position>
            <AltitudeMeters>465</AltitudeMeters>
            <DistanceMeters>51764.680367856</DistanceMeters>
          </Trackpoint>
          <Trackpoint>
            <Time>2019-05-08T11:14:23.000Z</Time>
            <Position>
              <LatitudeDegrees>43.0152607150375843048095703125</LatitudeDegrees>
              <LongitudeDegrees>0.6036812625825405120849609375</LongitudeDegrees>
            </Position>
            <AltitudeMeters>464.79998779296875</AltitudeMeters>
            <DistanceMeters>51780.252576203</DistanceMeters>
          </Trackpoint>
          <Trackpoint>
            <Time>2019-05-08T11:14:27.000Z</Time>
            <Position>
              <LatitudeDegrees>43.01504136063158512115478515625</LatitudeDegrees>
              <LongitudeDegrees>0.6039085797965526580810546875</LongitudeDegrees>
            </Position>
            <AltitudeMeters>464.20001220703125</AltitudeMeters>
            <DistanceMeters>51810.884213168</DistanceMeters>
          </Trackpoint>
          <Trackpoint>
            <Time>2019-05-08T11:14:32.000Z</Time>
            <Position>
              <LatitudeDegrees>43.0147641710937023162841796875</LatitudeDegrees>
              <LongitudeDegrees>0.6041707657277584075927734375</LongitudeDegrees>
            </Position>
            <AltitudeMeters>463.79998779296875</AltitudeMeters>
            <DistanceMeters>51848.39557987</DistanceMeters>
          </Trackpoint>
          <Trackpoint>
            <Time>2019-05-08T11:14:34.000Z</Time>
            <Position>
              <LatitudeDegrees>43.0146639235317707061767578125</LatitudeDegrees>
              <LongitudeDegrees>0.6042867712676525115966796875</LongitudeDegrees>
            </Position>
            <AltitudeMeters>463.79998779296875</AltitudeMeters>
            <DistanceMeters>51863.011170462</DistanceMeters>
          </Trackpoint>
          <Trackpoint>
            <Time>2019-05-08T11:14:36.000Z</Time>
            <Position>
              <LatitudeDegrees>43.01457784138619899749755859375</LatitudeDegrees>
              <LongitudeDegrees>0.60441358946263790130615234375</LongitudeDegrees>
            </Position>
            <AltitudeMeters>464</AltitudeMeters>
            <DistanceMeters>51877.093731978</DistanceMeters>
          </Trackpoint>
          <Trackpoint>
            <Time>2019-05-08T11:14:39.000Z</Time>
            <Position>
              <LatitudeDegrees>43.01447625271975994110107421875</LatitudeDegrees>
              <LongitudeDegrees>0.60462464578449726104736328125</LongitudeDegrees>
            </Position>
            <AltitudeMeters>463.79998779296875</AltitudeMeters>
            <DistanceMeters>51897.657302187</DistanceMeters>
          </Trackpoint>
          <Trackpoint>
            <Time>2019-05-08T11:14:48.000Z</Time>
            <Position>
              <LatitudeDegrees>43.01424860022962093353271484375</LatitudeDegrees>
              <LongitudeDegrees>0.60529612004756927490234375</LongitudeDegrees>
            </Position>
            <AltitudeMeters>464.20001220703125</AltitudeMeters>
            <DistanceMeters>51957.891797407</DistanceMeters>
          </Trackpoint>
          <Trackpoint>
            <Time>2019-05-08T11:14:49.000Z</Time>
            <Position>
              <LatitudeDegrees>43.014226891100406646728515625</LatitudeDegrees>
              <LongitudeDegrees>0.60536996461451053619384765625</LongitudeDegrees>
            </Position>
            <AltitudeMeters>464.20001220703125</AltitudeMeters>
            <DistanceMeters>51964.368967712</DistanceMeters>
          </Trackpoint>
          <Trackpoint>
            <Time>2019-05-08T11:14:54.000Z</Time>
            <Position>
              <LatitudeDegrees>43.01413913257420063018798828125</LatitudeDegrees>
              <LongitudeDegrees>0.60574849136173725128173828125</LongitudeDegrees>
            </Position>
            <AltitudeMeters>464.600006103515625</AltitudeMeters>
            <DistanceMeters>51996.685875379</DistanceMeters>
          </Trackpoint>
          <Trackpoint>
            <Time>2019-05-08T11:14:56.000Z</Time>
            <Position>
              <LatitudeDegrees>43.01412169821560382843017578125</LatitudeDegrees>
              <LongitudeDegrees>0.60591009445488452911376953125</LongitudeDegrees>
            </Position>
            <AltitudeMeters>464.600006103515625</AltitudeMeters>
            <DistanceMeters>52009.979769695</DistanceMeters>
          </Trackpoint>
          <Trackpoint>
            <Time>2019-05-08T11:15:02.000Z</Time>
            <Position>
              <LatitudeDegrees>43.0141179263591766357421875</LatitudeDegrees>
              <LongitudeDegrees>0.60642088763415813446044921875</LongitudeDegrees>
            </Position>
            <AltitudeMeters>464.600006103515625</AltitudeMeters>
            <DistanceMeters>52051.551540769</DistanceMeters>
          </Trackpoint>
          <Trackpoint>
            <Time>2019-05-08T11:15:08.000Z</Time>
            <Position>
              <LatitudeDegrees>43.0141901783645153045654296875</LatitudeDegrees>
              <LongitudeDegrees>0.60695364139974117279052734375</LongitudeDegrees>
            </Position>
            <AltitudeMeters>464.79998779296875</AltitudeMeters>
            <DistanceMeters>52095.647827245</DistanceMeters>
          </Trackpoint>
          <Trackpoint>
            <Time>2019-05-08T11:15:15.000Z</Time>
            <Position>
              <LatitudeDegrees>43.01433996297419071197509765625</LatitudeDegrees>
              <LongitudeDegrees>0.6075376085937023162841796875</LongitudeDegrees>
            </Position>
            <AltitudeMeters>464.79998779296875</AltitudeMeters>
            <DistanceMeters>52146.011627268</DistanceMeters>
          </Trackpoint>
          <Trackpoint>
            <Time>2019-05-08T11:15:20.000Z</Time>
            <Position>
              <LatitudeDegrees>43.0144952796399593353271484375</LatitudeDegrees>
              <LongitudeDegrees>0.60791856609284877777099609375</LongitudeDegrees>
            </Position>
            <AltitudeMeters>464.79998779296875</AltitudeMeters>
            <DistanceMeters>52181.508652592</DistanceMeters>
          </Trackpoint>
          <Trackpoint>
            <Time>2019-05-08T11:15:22.000Z</Time>
            <Position>
              <LatitudeDegrees>43.01456895656883716583251953125</LatitudeDegrees>
              <LongitudeDegrees>0.608067847788333892822265625</LongitudeDegrees>
            </Position>
            <AltitudeMeters>464.79998779296875</AltitudeMeters>
            <DistanceMeters>52196.166504032</DistanceMeters>
          </Trackpoint>
          <Trackpoint>
            <Time>2019-05-08T11:15:28.000Z</Time>
            <Position>
              <LatitudeDegrees>43.01481571979820728302001953125</LatitudeDegrees>
              <LongitudeDegrees>0.6084995158016681671142578125</LongitudeDegrees>
            </Position>
            <AltitudeMeters>464.79998779296875</AltitudeMeters>
            <DistanceMeters>52240.758441567</DistanceMeters>
          </Trackpoint>
          <Trackpoint>
            <Time>2019-05-08T11:15:30.000Z</Time>
            <Position>
              <LatitudeDegrees>43.01491613499820232391357421875</LatitudeDegrees>
              <LongitudeDegrees>0.60862633399665355682373046875</LongitudeDegrees>
            </Position>
            <AltitudeMeters>464.600006103515625</AltitudeMeters>
            <DistanceMeters>52255.971028431</DistanceMeters>
          </Trackpoint>
          <Trackpoint>
            <Time>2019-05-08T11:15:33.000Z</Time>
            <Position>
              <LatitudeDegrees>43.015090562403202056884765625</LatitudeDegrees>
              <LongitudeDegrees>0.60881115496158599853515625</LongitudeDegrees>
            </Position>
            <AltitudeMeters>464.399993896484375</AltitudeMeters>
            <DistanceMeters>52280.529873393</DistanceMeters>
          </Trackpoint>
          <Trackpoint>
            <Time>2019-05-08T11:15:37.000Z</Time>
            <Position>
              <LatitudeDegrees>43.015337325632572174072265625</LatitudeDegrees>
              <LongitudeDegrees>0.60906001366674900054931640625</LongitudeDegrees>
            </Position>
            <AltitudeMeters>464.20001220703125</AltitudeMeters>
            <DistanceMeters>52314.654653217</DistanceMeters>
          </Trackpoint>
          <Trackpoint>
            <Time>2019-05-08T11:15:39.000Z</Time>
            <Position>
              <LatitudeDegrees>43.01544704474508762359619140625</LatitudeDegrees>
              <LongitudeDegrees>0.60919747687876224517822265625</LongitudeDegrees>
            </Position>
            <AltitudeMeters>464.20001220703125</AltitudeMeters>
            <DistanceMeters>52331.216585534</DistanceMeters>
          </Trackpoint>
          <Trackpoint>
            <Time>2019-05-08T11:15:42.000Z</Time>
            <Position>
              <LatitudeDegrees>43.01557637751102447509765625</LatitudeDegrees>
              <LongitudeDegrees>0.60942529700696468353271484375</LongitudeDegrees>
            </Position>
            <AltitudeMeters>463.399993896484375</AltitudeMeters>
            <DistanceMeters>52354.689145772</DistanceMeters>
          </Trackpoint>
          <Trackpoint>
            <Time>2019-05-08T11:15:46.000Z</Time>
            <Position>
              <LatitudeDegrees>43.01572683267295360565185546875</LatitudeDegrees>
              <LongitudeDegrees>0.60973861254751682281494140625</LongitudeDegrees>
            </Position>
            <AltitudeMeters>462</AltitudeMeters>
            <DistanceMeters>52385.194053206</DistanceMeters>
          </Trackpoint>
          <Trackpoint>
            <Time>2019-05-08T11:15:49.000Z</Time>
            <Position>
              <LatitudeDegrees>43.01582892425358295440673828125</LatitudeDegrees>
              <LongitudeDegrees>0.6099713779985904693603515625</LongitudeDegrees>
            </Position>
            <AltitudeMeters>461.600006103515625</AltitudeMeters>
            <DistanceMeters>52407.283216852</DistanceMeters>
          </Trackpoint>
          <Trackpoint>
            <Time>2019-05-08T11:15:50.000Z</Time>
            <Position>
              <LatitudeDegrees>43.01585725508630275726318359375</LatitudeDegrees>
              <LongitudeDegrees>0.61005008406937122344970703125</LongitudeDegrees>
            </Position>
            <AltitudeMeters>461.600006103515625</AltitudeMeters>
            <DistanceMeters>52414.422247</DistanceMeters>
          </Trackpoint>
          <Trackpoint>
            <Time>2019-05-08T11:15:52.000Z</Time>
            <Position>
              <LatitudeDegrees>43.015883825719356536865234375</LatitudeDegrees>
              <LongitudeDegrees>0.61021286062896251678466796875</LongitudeDegrees>
            </Position>
            <AltitudeMeters>461.399993896484375</AltitudeMeters>
            <DistanceMeters>52427.994776589</DistanceMeters>
          </Trackpoint>
          <Trackpoint>
            <Time>2019-05-08T11:15:53.000Z</Time>
            <Position>
              <LatitudeDegrees>43.01588776521384716033935546875</LatitudeDegrees>
              <LongitudeDegrees>0.610293410718441009521484375</LongitudeDegrees>
            </Position>
            <AltitudeMeters>461.20001220703125</AltitudeMeters>
            <DistanceMeters>52434.564002976</DistanceMeters>
          </Trackpoint>
          <Trackpoint>
            <Time>2019-05-08T11:15:54.000Z</Time>
            <Position>
              <LatitudeDegrees>43.0158870108425617218017578125</LatitudeDegrees>
              <LongitudeDegrees>0.6103713624179363250732421875</LongitudeDegrees>
            </Position>
            <AltitudeMeters>461.20001220703125</AltitudeMeters>
            <DistanceMeters>52440.90734757</DistanceMeters>
          </Trackpoint>
          <Trackpoint>
            <Time>2019-05-08T11:15:55.000Z</Time>
            <Position>
              <LatitudeDegrees>43.01588080823421478271484375</LatitudeDegrees>
              <LongitudeDegrees>0.61044638045132160186767578125</LongitudeDegrees>
            </Position>
            <AltitudeMeters>461.399993896484375</AltitudeMeters>
            <DistanceMeters>52447.052571707</DistanceMeters>
          </Trackpoint>
          <Trackpoint>
            <Time>2019-05-08T11:15:57.000Z</Time>
            <Position>
              <LatitudeDegrees>43.0158588476479053497314453125</LatitudeDegrees>
              <LongitudeDegrees>0.61059440486133098602294921875</LongitudeDegrees>
            </Position>
            <AltitudeMeters>461.20001220703125</AltitudeMeters>
            <DistanceMeters>52459.344489338</DistanceMeters>
          </Trackpoint>
          <Trackpoint>
            <Time>2019-05-08T11:15:58.000Z</Time>
            <Position>
              <LatitudeDegrees>43.0158479511737823486328125</LatitudeDegrees>
              <LongitudeDegrees>0.61066917143762111663818359375</LongitudeDegrees>
            </Position>
            <AltitudeMeters>461.20001220703125</AltitudeMeters>
            <DistanceMeters>52465.548940634</DistanceMeters>
          </Trackpoint>
          <Trackpoint>
            <Time>2019-05-08T11:16:00.000Z</Time>
            <Position>
              <LatitudeDegrees>43.015824817121028900146484375</LatitudeDegrees>
              <LongitudeDegrees>0.61082138679921627044677734375</LongitudeDegrees>
            </Position>
            <AltitudeMeters>461.399993896484375</AltitudeMeters>
            <DistanceMeters>52478.200704742</DistanceMeters>
          </Trackpoint>
          <Trackpoint>
            <Time>2019-05-08T11:16:03.000Z</Time>
            <Position>
              <LatitudeDegrees>43.01578919403254985809326171875</LatitudeDegrees>
              <LongitudeDegrees>0.6110469438135623931884765625</LongitudeDegrees>
            </Position>
            <AltitudeMeters>461.600006103515625</AltitudeMeters>
            <DistanceMeters>52496.979964723</DistanceMeters>
          </Trackpoint>
          <Trackpoint>
            <Time>2019-05-08T11:16:06.000Z</Time>
            <Position>
              <LatitudeDegrees>43.015764467418193817138671875</LatitudeDegrees>
              <LongitudeDegrees>0.61125657521188259124755859375</LongitudeDegrees>
            </Position>
            <AltitudeMeters>462.600006103515625</AltitudeMeters>
            <DistanceMeters>52514.26020106</DistanceMeters>
          </Trackpoint>
          <Trackpoint>
            <Time>2019-05-08T11:16:07.000Z</Time>
            <Position>
              <LatitudeDegrees>43.0157586000859737396240234375</LatitudeDegrees>
              <LongitudeDegrees>0.611324720084667205810546875</LongitudeDegrees>
            </Position>
            <AltitudeMeters>462.79998779296875</AltitudeMeters>
            <DistanceMeters>52519.84499148</DistanceMeters>
          </Trackpoint>
          <Trackpoint>
            <Time>2019-05-08T11:16:12.000Z</Time>
            <Position>
              <LatitudeDegrees>43.01571811549365520477294921875</LatitudeDegrees>
              <LongitudeDegrees>0.61167709529399871826171875</LongitudeDegrees>
            </Position>
            <AltitudeMeters>463.399993896484375</AltitudeMeters>
            <DistanceMeters>52548.873125304</DistanceMeters>
          </Trackpoint>
          <Trackpoint>
            <Time>2019-05-08T11:16:14.000Z</Time>
            <Position>
              <LatitudeDegrees>43.0156910419464111328125</LatitudeDegrees>
              <LongitudeDegrees>0.611824952065944671630859375</LongitudeDegrees>
            </Position>
            <AltitudeMeters>463.79998779296875</AltitudeMeters>
            <DistanceMeters>52561.276932883</DistanceMeters>
          </Trackpoint>
          <Trackpoint>
            <Time>2019-05-08T11:16:16.000Z</Time>
            <Position>
              <LatitudeDegrees>43.01564418710768222808837890625</LatitudeDegrees>
              <LongitudeDegrees>0.6119679473340511322021484375</LongitudeDegrees>
            </Position>
            <AltitudeMeters>464.20001220703125</AltitudeMeters>
            <DistanceMeters>52574.029645408</DistanceMeters>
          </Trackpoint>
          <Trackpoint>
            <Time>2019-05-08T11:16:17.000Z</Time>
            <Position>
              <LatitudeDegrees>43.0156110785901546478271484375</LatitudeDegrees>
              <LongitudeDegrees>0.61203458346426486968994140625</LongitudeDegrees>
            </Position>
            <AltitudeMeters>464.20001220703125</AltitudeMeters>
            <DistanceMeters>52580.586488699</DistanceMeters>
          </Trackpoint>
          <Trackpoint>
            <Time>2019-05-08T11:16:18.000Z</Time>
            <Position>
              <LatitudeDegrees>43.015572689473628997802734375</LatitudeDegrees>
              <LongitudeDegrees>0.612095855176448822021484375</LongitudeDegrees>
            </Position>
            <AltitudeMeters>464.399993896484375</AltitudeMeters>
            <DistanceMeters>52587.153652859</DistanceMeters>
          </Trackpoint>
          <Trackpoint>
            <Time>2019-05-08T11:16:22.000Z</Time>
            <Position>
              <LatitudeDegrees>43.01538803614675998687744140625</LatitudeDegrees>
              <LongitudeDegrees>0.612294673919677734375</LongitudeDegrees>
            </Position>
            <AltitudeMeters>464.399993896484375</AltitudeMeters>
            <DistanceMeters>52613.310694588</DistanceMeters>
          </Trackpoint>
          <Trackpoint>
            <Time>2019-05-08T11:16:27.000Z</Time>
            <Position>
              <LatitudeDegrees>43.0151644907891750335693359375</LatitudeDegrees>
              <LongitudeDegrees>0.6125293672084808349609375</LongitudeDegrees>
            </Position>
            <AltitudeMeters>464.399993896484375</AltitudeMeters>
            <DistanceMeters>52644.67699639</DistanceMeters>
          </Trackpoint>
          <Trackpoint>
            <Time>2019-05-08T11:16:29.000Z</Time>
            <Position>
              <LatitudeDegrees>43.0151095055043697357177734375</LatitudeDegrees>
              <LongitudeDegrees>0.6126539222896099090576171875</LongitudeDegrees>
            </Position>
            <AltitudeMeters>464.399993896484375</AltitudeMeters>
            <DistanceMeters>52656.517645311</DistanceMeters>
          </Trackpoint>
          <Trackpoint>
            <Time>2019-05-08T11:16:33.000Z</Time>
            <Position>
              <LatitudeDegrees>43.0150458030402660369873046875</LatitudeDegrees>
              <LongitudeDegrees>0.6129499711096286773681640625</LongitudeDegrees>
            </Position>
            <AltitudeMeters>464.20001220703125</AltitudeMeters>
            <DistanceMeters>52681.632039181</DistanceMeters>
          </Trackpoint>
          <Trackpoint>
            <Time>2019-05-08T11:16:34.000Z</Time>
            <Position>
              <LatitudeDegrees>43.015015125274658203125</LatitudeDegrees>
              <LongitudeDegrees>0.61301409266889095306396484375</LongitudeDegrees>
            </Position>
            <AltitudeMeters>464.20001220703125</AltitudeMeters>
            <DistanceMeters>52687.867703473</DistanceMeters>
          </Trackpoint>
          <Trackpoint>
            <Time>2019-05-08T11:16:35.000Z</Time>
            <Position>
              <LatitudeDegrees>43.01497849635779857635498046875</LatitudeDegrees>
              <LongitudeDegrees>0.61306991614401340484619140625</LongitudeDegrees>
            </Position>
            <AltitudeMeters>464.20001220703125</AltitudeMeters>
            <DistanceMeters>52693.970164882</DistanceMeters>
          </Trackpoint>
          <Trackpoint>
            <Time>2019-05-08T11:16:40.000Z</Time>
            <Position>
              <LatitudeDegrees>43.0147725529968738555908203125</LatitudeDegrees>
              <LongitudeDegrees>0.6133392266929149627685546875</LongitudeDegrees>
            </Position>
            <AltitudeMeters>464.399993896484375</AltitudeMeters>
            <DistanceMeters>52725.684040621</DistanceMeters>
          </Trackpoint>
          <Trackpoint>
            <Time>2019-05-08T11:16:41.000Z</Time>
            <Position>
              <LatitudeDegrees>43.014727793633937835693359375</LatitudeDegrees>
              <LongitudeDegrees>0.6133891828358173370361328125</LongitudeDegrees>
            </Position>
            <AltitudeMeters>464.20001220703125</AltitudeMeters>
            <DistanceMeters>52732.115039774</DistanceMeters>
          </Trackpoint>
          <Trackpoint>
            <Time>2019-05-08T11:16:46.000Z</Time>
            <Position>
              <LatitudeDegrees>43.014497458934783935546875</LatitudeDegrees>
              <LongitudeDegrees>0.613597892224788665771484375</LongitudeDegrees>
            </Position>
            <AltitudeMeters>465</AltitudeMeters>
            <DistanceMeters>52762.867745932</DistanceMeters>
          </Trackpoint>
          <Trackpoint>
            <Time>2019-05-08T11:16:50.000Z</Time>
            <Position>
              <LatitudeDegrees>43.0142850615084171295166015625</LatitudeDegrees>
              <LongitudeDegrees>0.6137385405600070953369140625</LongitudeDegrees>
            </Position>
            <AltitudeMeters>465.399993896484375</AltitudeMeters>
            <DistanceMeters>52789.13330856</DistanceMeters>
          </Trackpoint>
          <Trackpoint>
            <Time>2019-05-08T11:16:53.000Z</Time>
            <Position>
              <LatitudeDegrees>43.01411113701760768890380859375</LatitudeDegrees>
              <LongitudeDegrees>0.6138404645025730133056640625</LongitudeDegrees>
            </Position>
            <AltitudeMeters>465.79998779296875</AltitudeMeters>
            <DistanceMeters>52810.193895562</DistanceMeters>
          </Trackpoint>
          <Trackpoint>
            <Time>2019-05-08T11:16:54.000Z</Time>
            <Position>
              <LatitudeDegrees>43.01405212841928005218505859375</LatitudeDegrees>
              <LongitudeDegrees>0.61387390829622745513916015625</LongitudeDegrees>
            </Position>
            <AltitudeMeters>466</AltitudeMeters>
            <DistanceMeters>52817.303773756</DistanceMeters>
          </Trackpoint>
          <Trackpoint>
            <Time>2019-05-08T11:16:57.000Z</Time>
            <Position>
              <LatitudeDegrees>43.01388046704232692718505859375</LatitudeDegrees>
              <LongitudeDegrees>0.61398446559906005859375</LongitudeDegrees>
            </Position>
            <AltitudeMeters>466.399993896484375</AltitudeMeters>
            <DistanceMeters>52838.422806303</DistanceMeters>
          </Trackpoint>
          <Trackpoint>
            <Time>2019-05-08T11:16:59.000Z</Time>
            <Position>
              <LatitudeDegrees>43.01376915536820888519287109375</LatitudeDegrees>
              <LongitudeDegrees>0.61406292021274566650390625</LongitudeDegrees>
            </Position>
            <AltitudeMeters>466.600006103515625</AltitudeMeters>
            <DistanceMeters>52852.360345701</DistanceMeters>
          </Trackpoint>
          <Trackpoint>
            <Time>2019-05-08T11:17:01.000Z</Time>
            <Position>
              <LatitudeDegrees>43.01366052590310573577880859375</LatitudeDegrees>
              <LongitudeDegrees>0.61415545642375946044921875</LongitudeDegrees>
            </Position>
            <AltitudeMeters>466.399993896484375</AltitudeMeters>
            <DistanceMeters>52866.604213067</DistanceMeters>
          </Trackpoint>
          <Trackpoint>
            <Time>2019-05-08T11:17:02.000Z</Time>
            <Position>
              <LatitudeDegrees>43.01360855810344219207763671875</LatitudeDegrees>
              <LongitudeDegrees>0.61420616693794727325439453125</LongitudeDegrees>
            </Position>
            <AltitudeMeters>466.399993896484375</AltitudeMeters>
            <DistanceMeters>52873.709644609</DistanceMeters>
          </Trackpoint>
          <Trackpoint>
            <Time>2019-05-08T11:17:06.000Z</Time>
            <Position>
              <LatitudeDegrees>43.0134046263992786407470703125</LatitudeDegrees>
              <LongitudeDegrees>0.614383779466152191162109375</LongitudeDegrees>
            </Position>
            <AltitudeMeters>466.600006103515625</AltitudeMeters>
            <DistanceMeters>52900.619492066</DistanceMeters>
          </Trackpoint>
          <Trackpoint>
            <Time>2019-05-08T11:17:09.000Z</Time>
            <Position>
              <LatitudeDegrees>43.013253919780254364013671875</LatitudeDegrees>
              <LongitudeDegrees>0.61449919827282428741455078125</LongitudeDegrees>
            </Position>
            <AltitudeMeters>466.399993896484375</AltitudeMeters>
            <DistanceMeters>52919.844267716</DistanceMeters>
          </Trackpoint>
          <Trackpoint>
            <Time>2019-05-08T11:17:11.000Z</Time>
            <Position>
              <LatitudeDegrees>43.0131437815725803375244140625</LatitudeDegrees>
              <LongitudeDegrees>0.614565499126911163330078125</LongitudeDegrees>
            </Position>
            <AltitudeMeters>466</AltitudeMeters>
            <DistanceMeters>52933.237978876</DistanceMeters>
          </Trackpoint>
          <Trackpoint>
            <Time>2019-05-08T11:17:13.000Z</Time>
            <Position>
              <LatitudeDegrees>43.01303674466907978057861328125</LatitudeDegrees>
              <LongitudeDegrees>0.61464521102607250213623046875</LongitudeDegrees>
            </Position>
            <AltitudeMeters>466</AltitudeMeters>
            <DistanceMeters>52946.80318797</DistanceMeters>
          </Trackpoint>
          <Trackpoint>
            <Time>2019-05-08T11:17:21.000Z</Time>
            <Position>
              <LatitudeDegrees>43.0126184038817882537841796875</LatitudeDegrees>
              <LongitudeDegrees>0.61495299451053142547607421875</LongitudeDegrees>
            </Position>
            <AltitudeMeters>466.20001220703125</AltitudeMeters>
            <DistanceMeters>52999.675457499</DistanceMeters>
          </Trackpoint>
          <Trackpoint>
            <Time>2019-05-08T11:17:22.000Z</Time>
            <Position>
              <LatitudeDegrees>43.0125657655298709869384765625</LatitudeDegrees>
              <LongitudeDegrees>0.61498970724642276763916015625</LongitudeDegrees>
            </Position>
            <AltitudeMeters>466.20001220703125</AltitudeMeters>
            <DistanceMeters>53006.252239855</DistanceMeters>
          </Trackpoint>
          <Trackpoint>
            <Time>2019-05-08T11:17:27.000Z</Time>
            <Position>
              <LatitudeDegrees>43.01229377277195453643798828125</LatitudeDegrees>
              <LongitudeDegrees>0.61515399254858493804931640625</LongitudeDegrees>
            </Position>
            <AltitudeMeters>466.79998779296875</AltitudeMeters>
            <DistanceMeters>53039.346376067</DistanceMeters>
          </Trackpoint>
          <Trackpoint>
            <Time>2019-05-08T11:17:28.000Z</Time>
            <Position>
              <LatitudeDegrees>43.01223434507846832275390625</LatitudeDegrees>
              <LongitudeDegrees>0.61517612077295780181884765625</LongitudeDegrees>
            </Position>
            <AltitudeMeters>466.79998779296875</AltitudeMeters>
            <DistanceMeters>53046.201484951</DistanceMeters>
          </Trackpoint>
          <Trackpoint>
            <Time>2019-05-08T11:17:36.000Z</Time>
            <Position>
              <LatitudeDegrees>43.01176118664443492889404296875</LatitudeDegrees>
              <LongitudeDegrees>0.61531643383204936981201171875</LongitudeDegrees>
            </Position>
            <AltitudeMeters>468</AltitudeMeters>
            <DistanceMeters>53100.088838128</DistanceMeters>
          </Trackpoint>
          <Trackpoint>
            <Time>2019-05-08T11:17:38.000Z</Time>
            <Position>
              <LatitudeDegrees>43.01165540702641010284423828125</LatitudeDegrees>
              <LongitudeDegrees>0.615357421338558197021484375</LongitudeDegrees>
            </Position>
            <AltitudeMeters>468.20001220703125</AltitudeMeters>
            <DistanceMeters>53112.325534071</DistanceMeters>
          </Trackpoint>
          <Trackpoint>
            <Time>2019-05-08T11:17:39.000Z</Time>
            <Position>
              <LatitudeDegrees>43.011598996818065643310546875</LatitudeDegrees>
              <LongitudeDegrees>0.61536169610917568206787109375</LongitudeDegrees>
            </Position>
            <AltitudeMeters>468.20001220703125</AltitudeMeters>
            <DistanceMeters>53118.614551071</DistanceMeters>
          </Trackpoint>
          <Trackpoint>
            <Time>2019-05-08T11:17:40.000Z</Time>
            <Position>
              <LatitudeDegrees>43.0115461908280849456787109375</LatitudeDegrees>
              <LongitudeDegrees>0.61537376604974269866943359375</LongitudeDegrees>
            </Position>
            <AltitudeMeters>468.20001220703125</AltitudeMeters>
            <DistanceMeters>53124.57402174</DistanceMeters>
          </Trackpoint>
          <Trackpoint>
            <Time>2019-05-08T11:17:42.000Z</Time>
            <Position>
              <LatitudeDegrees>43.01147016696631908416748046875</LatitudeDegrees>
              <LongitudeDegrees>0.61546035110950469970703125</LongitudeDegrees>
            </Position>
            <AltitudeMeters>468.20001220703125</AltitudeMeters>
            <DistanceMeters>53135.585645893</DistanceMeters>
          </Trackpoint>
          <Trackpoint>
            <Time>2019-05-08T11:17:44.000Z</Time>
            <Position>
              <LatitudeDegrees>43.01143613643944263458251953125</LatitudeDegrees>
              <LongitudeDegrees>0.61559186317026615142822265625</LongitudeDegrees>
            </Position>
            <AltitudeMeters>468.399993896484375</AltitudeMeters>
            <DistanceMeters>53146.93885298</DistanceMeters>
          </Trackpoint>
          <Trackpoint>
            <Time>2019-05-08T11:17:45.000Z</Time>
            <Position>
              <LatitudeDegrees>43.01142523996531963348388671875</LatitudeDegrees>
              <LongitudeDegrees>0.6156673841178417205810546875</LongitudeDegrees>
            </Position>
            <AltitudeMeters>468.399993896484375</AltitudeMeters>
            <DistanceMeters>53153.203412999</DistanceMeters>
          </Trackpoint>
          <Trackpoint>
            <Time>2019-05-08T11:17:46.000Z</Time>
            <Position>
              <LatitudeDegrees>43.011417947709560394287109375</LatitudeDegrees>
              <LongitudeDegrees>0.6157461740076541900634765625</LongitudeDegrees>
            </Position>
            <AltitudeMeters>468.399993896484375</AltitudeMeters>
            <DistanceMeters>53159.666626876</DistanceMeters>
          </Trackpoint>
          <Trackpoint>
            <Time>2019-05-08T11:17:47.000Z</Time>
            <Position>
              <LatitudeDegrees>43.011409230530261993408203125</LatitudeDegrees>
              <LongitudeDegrees>0.61582437716424465179443359375</LongitudeDegrees>
            </Position>
            <AltitudeMeters>468.20001220703125</AltitudeMeters>
            <DistanceMeters>53166.104642943</DistanceMeters>
          </Trackpoint>
          <Trackpoint>
            <Time>2019-05-08T11:17:49.000Z</Time>
            <Position>
              <LatitudeDegrees>43.01135399378836154937744140625</LatitudeDegrees>
              <LongitudeDegrees>0.61594490893185138702392578125</LongitudeDegrees>
            </Position>
            <AltitudeMeters>468.399993896484375</AltitudeMeters>
            <DistanceMeters>53177.681533483</DistanceMeters>
          </Trackpoint>
          <Trackpoint>
            <Time>2019-05-08T11:17:50.000Z</Time>
            <Position>
              <LatitudeDegrees>43.01129850558936595916748046875</LatitudeDegrees>
              <LongitudeDegrees>0.61596234329044818878173828125</LongitudeDegrees>
            </Position>
            <AltitudeMeters>468.20001220703125</AltitudeMeters>
            <DistanceMeters>53184.019181314</DistanceMeters>
          </Trackpoint>
          <Trackpoint>
            <Time>2019-05-08T11:17:51.000Z</Time>
            <Position>
              <LatitudeDegrees>43.01123295910656452178955078125</LatitudeDegrees>
              <LongitudeDegrees>0.61595681123435497283935546875</LongitudeDegrees>
            </Position>
            <AltitudeMeters>468.20001220703125</AltitudeMeters>
            <DistanceMeters>53191.328829891</DistanceMeters>
          </Trackpoint>
          <Trackpoint>
            <Time>2019-05-08T11:17:52.000Z</Time>
            <Position>
              <LatitudeDegrees>43.011160455644130706787109375</LatitudeDegrees>
              <LongitudeDegrees>0.61594583094120025634765625</LongitudeDegrees>
            </Position>
            <AltitudeMeters>468.20001220703125</AltitudeMeters>
            <DistanceMeters>53199.447915926</DistanceMeters>
          </Trackpoint>
          <Trackpoint>
            <Time>2019-05-08T11:17:54.000Z</Time>
            <Position>
              <LatitudeDegrees>43.0109986849129199981689453125</LatitudeDegrees>
              <LongitudeDegrees>0.615939795970916748046875</LongitudeDegrees>
            </Position>
            <AltitudeMeters>467.600006103515625</AltitudeMeters>
            <DistanceMeters>53217.459928209</DistanceMeters>
          </Trackpoint>
          <Trackpoint>
            <Time>2019-05-08T11:17:55.000Z</Time>
            <Position>
              <LatitudeDegrees>43.01090933382511138916015625</LatitudeDegrees>
              <LongitudeDegrees>0.6159369461238384246826171875</LongitudeDegrees>
            </Position>
            <AltitudeMeters>467.399993896484375</AltitudeMeters>
            <DistanceMeters>53227.407368969</DistanceMeters>
          </Trackpoint>
          <Trackpoint>
            <Time>2019-05-08T11:17:59.000Z</Time>
            <Position>
              <LatitudeDegrees>43.01053726114332675933837890625</LatitudeDegrees>
              <LongitudeDegrees>0.61594583094120025634765625</LongitudeDegrees>
            </Position>
            <AltitudeMeters>465.79998779296875</AltitudeMeters>
            <DistanceMeters>53268.826046309</DistanceMeters>
          </Trackpoint>
          <Trackpoint>
            <Time>2019-05-08T11:18:00.000Z</Time>
            <Position>
              <LatitudeDegrees>43.01044665277004241943359375</LatitudeDegrees>
              <LongitudeDegrees>0.61595731414854526519775390625</LongitudeDegrees>
            </Position>
            <AltitudeMeters>465</AltitudeMeters>
            <DistanceMeters>53278.954307186</DistanceMeters>
          </Trackpoint>
          <Trackpoint>
            <Time>2019-05-08T11:18:01.000Z</Time>
            <Position>
              <LatitudeDegrees>43.01035889424383640289306640625</LatitudeDegrees>
              <LongitudeDegrees>0.61597541905939579010009765625</LongitudeDegrees>
            </Position>
            <AltitudeMeters>464</AltitudeMeters>
            <DistanceMeters>53288.832972892</DistanceMeters>
          </Trackpoint>
          <Trackpoint>
            <Time>2019-05-08T11:18:06.000Z</Time>
            <Position>
              <LatitudeDegrees>43.00995019264519214630126953125</LatitudeDegrees>
              <LongitudeDegrees>0.61614255420863628387451171875</LongitudeDegrees>
            </Position>
            <AltitudeMeters>459.79998779296875</AltitudeMeters>
            <DistanceMeters>53336.312488515</DistanceMeters>
          </Trackpoint>
          <Trackpoint>
            <Time>2019-05-08T11:18:09.000Z</Time>
            <Position>
              <LatitudeDegrees>43.00971306860446929931640625</LatitudeDegrees>
              <LongitudeDegrees>0.61623676680028438568115234375</LongitudeDegrees>
            </Position>
            <AltitudeMeters>459.20001220703125</AltitudeMeters>
            <DistanceMeters>53363.796080609</DistanceMeters>
          </Trackpoint>
          <Trackpoint>
            <Time>2019-05-08T11:18:13.000Z</Time>
            <Position>
              <LatitudeDegrees>43.0094067938625812530517578125</LatitudeDegrees>
              <LongitudeDegrees>0.6163704581558704376220703125</LongitudeDegrees>
            </Position>
            <AltitudeMeters>459.20001220703125</AltitudeMeters>
            <DistanceMeters>53399.579411639</DistanceMeters>
          </Trackpoint>
          <Trackpoint>
            <Time>2019-05-08T11:18:14.000Z</Time>
            <Position>
              <LatitudeDegrees>43.009331189095973968505859375</LatitudeDegrees>
              <LongitudeDegrees>0.61640524305403232574462890625</LongitudeDegrees>
            </Position>
            <AltitudeMeters>459.20001220703125</AltitudeMeters>
            <DistanceMeters>53408.458182238</DistanceMeters>
          </Trackpoint>
          <Trackpoint>
            <Time>2019-05-08T11:18:19.000Z</Time>
            <Position>
              <LatitudeDegrees>43.0089551769196987152099609375</LatitudeDegrees>
              <LongitudeDegrees>0.6165692768990993499755859375</LongitudeDegrees>
            </Position>
            <AltitudeMeters>459</AltitudeMeters>
            <DistanceMeters>53452.386946917</DistanceMeters>
          </Trackpoint>
          <Trackpoint>
            <Time>2019-05-08T11:18:21.000Z</Time>
            <Position>
              <LatitudeDegrees>43.00880840979516506195068359375</LatitudeDegrees>
              <LongitudeDegrees>0.6166380085051059722900390625</LongitudeDegrees>
            </Position>
            <AltitudeMeters>459</AltitudeMeters>
            <DistanceMeters>53469.654114143</DistanceMeters>
          </Trackpoint>
          <Trackpoint>
            <Time>2019-05-08T11:18:23.000Z</Time>
            <Position>
              <LatitudeDegrees>43.00866323523223400115966796875</LatitudeDegrees>
              <LongitudeDegrees>0.61670766212046146392822265625</LongitudeDegrees>
            </Position>
            <AltitudeMeters>459</AltitudeMeters>
            <DistanceMeters>53486.777917526</DistanceMeters>
          </Trackpoint>
          <Trackpoint>
            <Time>2019-05-08T11:18:24.000Z</Time>
            <Position>
              <LatitudeDegrees>43.0085907317698001861572265625</LatitudeDegrees>
              <LongitudeDegrees>0.6167412735521793365478515625</LongitudeDegrees>
            </Position>
            <AltitudeMeters>458.79998779296875</AltitudeMeters>
            <DistanceMeters>53495.299117247</DistanceMeters>
          </Trackpoint>
          <Trackpoint>
            <Time>2019-05-08T11:18:29.000Z</Time>
            <Position>
              <LatitudeDegrees>43.0082474090158939361572265625</LatitudeDegrees>
              <LongitudeDegrees>0.61690027825534343719482421875</LongitudeDegrees>
            </Position>
            <AltitudeMeters>458.399993896484375</AltitudeMeters>
            <DistanceMeters>53535.643749345</DistanceMeters>
          </Trackpoint>
          <Trackpoint>
            <Time>2019-05-08T11:18:31.000Z</Time>
            <Position>
              <LatitudeDegrees>43.00812042318284511566162109375</LatitudeDegrees>
              <LongitudeDegrees>0.61695978976786136627197265625</LongitudeDegrees>
            </Position>
            <AltitudeMeters>458.399993896484375</AltitudeMeters>
            <DistanceMeters>53550.584414983</DistanceMeters>
          </Trackpoint>
          <Trackpoint>
            <Time>2019-05-08T11:18:34.000Z</Time>
            <Position>
              <LatitudeDegrees>43.00793585367500782012939453125</LatitudeDegrees>
              <LongitudeDegrees>0.61704411171376705169677734375</LongitudeDegrees>
            </Position>
            <AltitudeMeters>458.399993896484375</AltitudeMeters>
            <DistanceMeters>53572.243419375</DistanceMeters>
          </Trackpoint>
          <Trackpoint>
            <Time>2019-05-08T11:18:41.000Z</Time>
            <Position>
              <LatitudeDegrees>43.00750904716551303863525390625</LatitudeDegrees>
              <LongitudeDegrees>0.617238990962505340576171875</LongitudeDegrees>
            </Position>
            <AltitudeMeters>458.399993896484375</AltitudeMeters>
            <DistanceMeters>53622.326013894</DistanceMeters>
          </Trackpoint>
          <Trackpoint>
            <Time>2019-05-08T11:18:47.000Z</Time>
            <Position>
              <LatitudeDegrees>43.00714275799691677093505859375</LatitudeDegrees>
              <LongitudeDegrees>0.6174128316342830657958984375</LongitudeDegrees>
            </Position>
            <AltitudeMeters>458.399993896484375</AltitudeMeters>
            <DistanceMeters>53665.480175861</DistanceMeters>
          </Trackpoint>
          <Trackpoint>
            <Time>2019-05-08T11:18:53.000Z</Time>
            <Position>
              <LatitudeDegrees>43.0067802406847476959228515625</LatitudeDegrees>
              <LongitudeDegrees>0.617580302059650421142578125</LongitudeDegrees>
            </Position>
            <AltitudeMeters>458.399993896484375</AltitudeMeters>
            <DistanceMeters>53708.069109575</DistanceMeters>
          </Trackpoint>
          <Trackpoint>
            <Time>2019-05-08T11:18:54.000Z</Time>
            <Position>
              <LatitudeDegrees>43.00672047771513462066650390625</LatitudeDegrees>
              <LongitudeDegrees>0.61760720796883106231689453125</LongitudeDegrees>
            </Position>
            <AltitudeMeters>458.399993896484375</AltitudeMeters>
            <DistanceMeters>53715.07148882</DistanceMeters>
          </Trackpoint>
          <Trackpoint>
            <Time>2019-05-08T11:18:56.000Z</Time>
            <Position>
              <LatitudeDegrees>43.00660313107073307037353515625</LatitudeDegrees>
              <LongitudeDegrees>0.617659091949462890625</LongitudeDegrees>
            </Position>
            <AltitudeMeters>458.600006103515625</AltitudeMeters>
            <DistanceMeters>53728.798162673</DistanceMeters>
          </Trackpoint>
          <Trackpoint>
            <Time>2019-05-08T11:19:02.000Z</Time>
            <Position>
              <LatitudeDegrees>43.00625829957425594329833984375</LatitudeDegrees>
              <LongitudeDegrees>0.61782983131706714630126953125</LongitudeDegrees>
            </Position>
            <AltitudeMeters>458.79998779296875</AltitudeMeters>
            <DistanceMeters>53769.617086655</DistanceMeters>
          </Trackpoint>
          <Trackpoint>
            <Time>2019-05-08T11:19:11.000Z</Time>
            <Position>
              <LatitudeDegrees>43.00572923384606838226318359375</LatitudeDegrees>
              <LongitudeDegrees>0.6180833838880062103271484375</LongitudeDegrees>
            </Position>
            <AltitudeMeters>458.79998779296875</AltitudeMeters>
            <DistanceMeters>53832.014843027</DistanceMeters>
          </Trackpoint>
          <Trackpoint>
            <Time>2019-05-08T11:19:12.000Z</Time>
            <Position>
              <LatitudeDegrees>43.00567357800900936126708984375</LatitudeDegrees>
              <LongitudeDegrees>0.61811129562556743621826171875</LongitudeDegrees>
            </Position>
            <AltitudeMeters>458.79998779296875</AltitudeMeters>
            <DistanceMeters>53838.613557191</DistanceMeters>
          </Trackpoint>
          <Trackpoint>
            <Time>2019-05-08T11:19:15.000Z</Time>
            <Position>
              <LatitudeDegrees>43.00551138818264007568359375</LatitudeDegrees>
              <LongitudeDegrees>0.61818673275411128997802734375</LongitudeDegrees>
            </Position>
            <AltitudeMeters>458.79998779296875</AltitudeMeters>
            <DistanceMeters>53857.681040973</DistanceMeters>
          </Trackpoint>
          <Trackpoint>
            <Time>2019-05-08T11:19:18.000Z</Time>
            <Position>
              <LatitudeDegrees>43.0053596757352352142333984375</LatitudeDegrees>
              <LongitudeDegrees>0.6182590685784816741943359375</LongitudeDegrees>
            </Position>
            <AltitudeMeters>458.79998779296875</AltitudeMeters>
            <DistanceMeters>53875.564250621</DistanceMeters>
          </Trackpoint>
          <Trackpoint>
            <Time>2019-05-08T11:19:19.000Z</Time>
            <Position>
              <LatitudeDegrees>43.00531114451587200164794921875</LatitudeDegrees>
              <LongitudeDegrees>0.61828329227864742279052734375</LongitudeDegrees>
            </Position>
            <AltitudeMeters>458.79998779296875</AltitudeMeters>
            <DistanceMeters>53881.315526133</DistanceMeters>
          </Trackpoint>
          <Trackpoint>
            <Time>2019-05-08T11:19:20.000Z</Time>
            <Position>
              <LatitudeDegrees>43.00526320002973079681396484375</LatitudeDegrees>
              <LongitudeDegrees>0.61830759979784488677978515625</LongitudeDegrees>
            </Position>
            <AltitudeMeters>458.79998779296875</AltitudeMeters>
            <DistanceMeters>53887.007618392</DistanceMeters>
          </Trackpoint>
          <Trackpoint>
            <Time>2019-05-08T11:19:21.000Z</Time>
            <Position>
              <LatitudeDegrees>43.00521575845777988433837890625</LatitudeDegrees>
              <LongitudeDegrees>0.618331991136074066162109375</LongitudeDegrees>
            </Position>
            <AltitudeMeters>458.79998779296875</AltitudeMeters>
            <DistanceMeters>53892.648716635</DistanceMeters>
          </Trackpoint>
          <Trackpoint>
            <Time>2019-05-08T11:19:22.000Z</Time>
            <Position>
              <LatitudeDegrees>43.005168735980987548828125</LatitudeDegrees>
              <LongitudeDegrees>0.61835655011236667633056640625</LongitudeDegrees>
            </Position>
            <AltitudeMeters>459</AltitudeMeters>
            <DistanceMeters>53898.249652768</DistanceMeters>
          </Trackpoint>
          <Trackpoint>
            <Time>2019-05-08T11:19:25.000Z</Time>
            <Position>
              <LatitudeDegrees>43.00502456724643707275390625</LatitudeDegrees>
              <LongitudeDegrees>0.61842410825192928314208984375</LongitudeDegrees>
            </Position>
            <AltitudeMeters>459</AltitudeMeters>
            <DistanceMeters>53915.211322365</DistanceMeters>
          </Trackpoint>
          <Trackpoint>
            <Time>2019-05-08T11:19:29.000Z</Time>
            <Position>
              <LatitudeDegrees>43.0048262514173984527587890625</LatitudeDegrees>
              <LongitudeDegrees>0.61853625811636447906494140625</LongitudeDegrees>
            </Position>
            <AltitudeMeters>458.79998779296875</AltitudeMeters>
            <DistanceMeters>53939.097454742</DistanceMeters>
          </Trackpoint>
          <Trackpoint>
            <Time>2019-05-08T11:19:35.000Z</Time>
            <Position>
              <LatitudeDegrees>43.00452961586415767669677734375</LatitudeDegrees>
              <LongitudeDegrees>0.618684031069278717041015625</LongitudeDegrees>
            </Position>
            <AltitudeMeters>458.600006103515625</AltitudeMeters>
            <DistanceMeters>53974.236272774</DistanceMeters>
          </Trackpoint>
          <Trackpoint>
            <Time>2019-05-08T11:19:37.000Z</Time>
            <Position>
              <LatitudeDegrees>43.0044212378561496734619140625</LatitudeDegrees>
              <LongitudeDegrees>0.618739686906337738037109375</LongitudeDegrees>
            </Position>
            <AltitudeMeters>458.79998779296875</AltitudeMeters>
            <DistanceMeters>53987.121418698</DistanceMeters>
          </Trackpoint>
          <Trackpoint>
            <Time>2019-05-08T11:19:39.000Z</Time>
            <Position>
              <LatitudeDegrees>43.00430439412593841552734375</LatitudeDegrees>
              <LongitudeDegrees>0.61879240907728672027587890625</LongitudeDegrees>
            </Position>
            <AltitudeMeters>458.79998779296875</AltitudeMeters>
            <DistanceMeters>54000.815820021</DistanceMeters>
          </Trackpoint>
          <Trackpoint>
            <Time>2019-05-08T11:19:41.000Z</Time>
            <Position>
              <LatitudeDegrees>43.00418377853929996490478515625</LatitudeDegrees>
              <LongitudeDegrees>0.61884655617177486419677734375</LongitudeDegrees>
            </Position>
            <AltitudeMeters>458.79998779296875</AltitudeMeters>
            <DistanceMeters>54014.9454329</DistanceMeters>
          </Trackpoint>
          <Trackpoint>
            <Time>2019-05-08T11:19:43.000Z</Time>
            <Position>
              <LatitudeDegrees>43.00405855290591716766357421875</LatitudeDegrees>
              <LongitudeDegrees>0.61890556477010250091552734375</LongitudeDegrees>
            </Position>
            <AltitudeMeters>458.79998779296875</AltitudeMeters>
            <DistanceMeters>54029.687748859</DistanceMeters>
          </Trackpoint>
          <Trackpoint>
            <Time>2019-05-08T11:19:44.000Z</Time>
            <Position>
              <LatitudeDegrees>43.00399736501276493072509765625</LatitudeDegrees>
              <LongitudeDegrees>0.6189371645450592041015625</LongitudeDegrees>
            </Position>
            <AltitudeMeters>458.79998779296875</AltitudeMeters>
            <DistanceMeters>54036.967688327</DistanceMeters>
          </Trackpoint>
          <Trackpoint>
            <Time>2019-05-08T11:19:48.000Z</Time>
            <Position>
              <LatitudeDegrees>43.00376594066619873046875</LatitudeDegrees>
              <LongitudeDegrees>0.6190498173236846923828125</LongitudeDegrees>
            </Position>
            <AltitudeMeters>458.79998779296875</AltitudeMeters>
            <DistanceMeters>54064.308973014</DistanceMeters>
          </Trackpoint>
          <Trackpoint>
            <Time>2019-05-08T11:19:51.000Z</Time>
            <Position>
              <LatitudeDegrees>43.00359302200376987457275390625</LatitudeDegrees>
              <LongitudeDegrees>0.61912114731967449188232421875</LongitudeDegrees>
            </Position>
            <AltitudeMeters>459</AltitudeMeters>
            <DistanceMeters>54084.412008635</DistanceMeters>
          </Trackpoint>
          <Trackpoint>
            <Time>2019-05-08T11:19:54.000Z</Time>
            <Position>
              <LatitudeDegrees>43.00341448746621608734130859375</LatitudeDegrees>
              <LongitudeDegrees>0.6191973388195037841796875</LongitudeDegrees>
            </Position>
            <AltitudeMeters>459</AltitudeMeters>
            <DistanceMeters>54105.228282274</DistanceMeters>
          </Trackpoint>
          <Trackpoint>
            <Time>2019-05-08T11:19:56.000Z</Time>
            <Position>
              <LatitudeDegrees>43.00330233760178089141845703125</LatitudeDegrees>
              <LongitudeDegrees>0.619249641895294189453125</LongitudeDegrees>
            </Position>
            <AltitudeMeters>459.20001220703125</AltitudeMeters>
            <DistanceMeters>54118.416470262</DistanceMeters>
          </Trackpoint>
          <Trackpoint>
            <Time>2019-05-08T11:19:57.000Z</Time>
            <Position>
              <LatitudeDegrees>43.003248274326324462890625</LatitudeDegrees>
              <LongitudeDegrees>0.6192752905189990997314453125</LongitudeDegrees>
            </Position>
            <AltitudeMeters>459.20001220703125</AltitudeMeters>
            <DistanceMeters>54124.785387233</DistanceMeters>
          </Trackpoint>
          <Trackpoint>
            <Time>2019-05-08T11:19:58.000Z</Time>
            <Position>
              <LatitudeDegrees>43.00319370813667774200439453125</LatitudeDegrees>
              <LongitudeDegrees>0.6192960776388645172119140625</LongitudeDegrees>
            </Position>
            <AltitudeMeters>459</AltitudeMeters>
            <DistanceMeters>54131.090178784</DistanceMeters>
          </Trackpoint>
          <Trackpoint>
            <Time>2019-05-08T11:20:00.000Z</Time>
            <Position>
              <LatitudeDegrees>43.0030834861099720001220703125</LatitudeDegrees>
              <LongitudeDegrees>0.6193413399159908294677734375</LongitudeDegrees>
            </Position>
            <AltitudeMeters>459.399993896484375</AltitudeMeters>
            <DistanceMeters>54143.899765782</DistanceMeters>
          </Trackpoint>
          <Trackpoint>
            <Time>2019-05-08T11:20:04.000Z</Time>
            <Position>
              <LatitudeDegrees>43.00286807119846343994140625</LatitudeDegrees>
              <LongitudeDegrees>0.61945575289428234100341796875</LongitudeDegrees>
            </Position>
            <AltitudeMeters>459.600006103515625</AltitudeMeters>
            <DistanceMeters>54169.620953947</DistanceMeters>
          </Trackpoint>
          <Trackpoint>
            <Time>2019-05-08T11:20:09.000Z</Time>
            <Position>
              <LatitudeDegrees>43.00261468626558780670166015625</LatitudeDegrees>
              <LongitudeDegrees>0.6195770390331745147705078125</LongitudeDegrees>
            </Position>
            <AltitudeMeters>460.20001220703125</AltitudeMeters>
            <DistanceMeters>54199.501378614</DistanceMeters>
          </Trackpoint>
          <Trackpoint>
            <Time>2019-05-08T11:20:10.000Z</Time>
            <Position>
              <LatitudeDegrees>43.00256741233170032501220703125</LatitudeDegrees>
              <LongitudeDegrees>0.6196018494665622711181640625</LongitudeDegrees>
            </Position>
            <AltitudeMeters>460.399993896484375</AltitudeMeters>
            <DistanceMeters>54205.137672515</DistanceMeters>
          </Trackpoint>
          <Trackpoint>
            <Time>2019-05-08T11:20:13.000Z</Time>
            <Position>
              <LatitudeDegrees>43.00243196077644824981689453125</LatitudeDegrees>
              <LongitudeDegrees>0.61966965906322002410888671875</LongitudeDegrees>
            </Position>
            <AltitudeMeters>460.600006103515625</AltitudeMeters>
            <DistanceMeters>54221.192407082</DistanceMeters>
          </Trackpoint>
          <Trackpoint>
            <Time>2019-05-08T11:20:20.000Z</Time>
            <Position>
              <LatitudeDegrees>43.0021007917821407318115234375</LatitudeDegrees>
              <LongitudeDegrees>0.6198268197476863861083984375</LongitudeDegrees>
            </Position>
            <AltitudeMeters>460.600006103515625</AltitudeMeters>
            <DistanceMeters>54260.209061436</DistanceMeters>
          </Trackpoint>
          <Trackpoint>
            <Time>2019-05-08T11:20:29.000Z</Time>
            <Position>
              <LatitudeDegrees>43.00158798694610595703125</LatitudeDegrees>
              <LongitudeDegrees>0.62007911503314971923828125</LongitudeDegrees>
            </Position>
            <AltitudeMeters>460.79998779296875</AltitudeMeters>
            <DistanceMeters>54320.867449959</DistanceMeters>
          </Trackpoint>
          <Trackpoint>
            <Time>2019-05-08T11:20:36.000Z</Time>
            <Position>
              <LatitudeDegrees>43.0011697299778461456298828125</LatitudeDegrees>
              <LongitudeDegrees>0.62028170563280582427978515625</LongitudeDegrees>
            </Position>
            <AltitudeMeters>460.600006103515625</AltitudeMeters>
            <DistanceMeters>54370.25483649</DistanceMeters>
          </Trackpoint>
          <Trackpoint>
            <Time>2019-05-08T11:20:43.000Z</Time>
            <Position>
              <LatitudeDegrees>43.00074066035449504852294921875</LatitudeDegrees>
              <LongitudeDegrees>0.62049242667853832244873046875</LongitudeDegrees>
            </Position>
            <AltitudeMeters>461</AltitudeMeters>
            <DistanceMeters>54420.998212192</DistanceMeters>
          </Trackpoint>
          <Trackpoint>
            <Time>2019-05-08T11:20:52.000Z</Time>
            <Position>
              <LatitudeDegrees>43.000211678445339202880859375</LatitudeDegrees>
              <LongitudeDegrees>0.62075503170490264892578125</LongitudeDegrees>
            </Position>
            <AltitudeMeters>461.399993896484375</AltitudeMeters>
            <DistanceMeters>54483.63530722</DistanceMeters>
          </Trackpoint>
          <Trackpoint>
            <Time>2019-05-08T11:20:55.000Z</Time>
            <Position>
              <LatitudeDegrees>43.00012526102364063262939453125</LatitudeDegrees>
              <LongitudeDegrees>0.62092727981507778167724609375</LongitudeDegrees>
            </Position>
            <AltitudeMeters>461.399993896484375</AltitudeMeters>
            <DistanceMeters>54500.638451854</DistanceMeters>
          </Trackpoint>
          <Trackpoint>
            <Time>2019-05-08T11:20:57.000Z</Time>
            <Position>
              <LatitudeDegrees>43.00002719275653362274169921875</LatitudeDegrees>
              <LongitudeDegrees>0.6209992803633213043212890625</LongitudeDegrees>
            </Position>
            <AltitudeMeters>461.399993896484375</AltitudeMeters>
            <DistanceMeters>54513.027690709</DistanceMeters>
          </Trackpoint>
          <Trackpoint>
            <Time>2019-05-08T11:20:58.000Z</Time>
            <Position>
              <LatitudeDegrees>42.99996986053884029388427734375</LatitudeDegrees>
              <LongitudeDegrees>0.62102300114929676055908203125</LongitudeDegrees>
            </Position>
            <AltitudeMeters>461.600006103515625</AltitudeMeters>
            <DistanceMeters>54519.69447676</DistanceMeters>
          </Trackpoint>
          <Trackpoint>
            <Time>2019-05-08T11:20:59.000Z</Time>
            <Position>
              <LatitudeDegrees>42.9999102652072906494140625</LatitudeDegrees>
              <LongitudeDegrees>0.62104915268719196319580078125</LongitudeDegrees>
            </Position>
            <AltitudeMeters>461.600006103515625</AltitudeMeters>
            <DistanceMeters>54526.6613025</DistanceMeters>
          </Trackpoint>
          <Trackpoint>
            <Time>2019-05-08T11:21:01.000Z</Time>
            <Position>
              <LatitudeDegrees>42.9997883923351764678955078125</LatitudeDegrees>
              <LongitudeDegrees>0.62110028229653835296630859375</LongitudeDegrees>
            </Position>
            <AltitudeMeters>461.79998779296875</AltitudeMeters>
            <DistanceMeters>54540.849907937</DistanceMeters>
          </Trackpoint>
          <Trackpoint>
            <Time>2019-05-08T11:21:02.000Z</Time>
            <Position>
              <LatitudeDegrees>42.99972561188042163848876953125</LatitudeDegrees>
              <LongitudeDegrees>0.62111134640872478485107421875</LongitudeDegrees>
            </Position>
            <AltitudeMeters>461.600006103515625</AltitudeMeters>
            <DistanceMeters>54547.895355418</DistanceMeters>
          </Trackpoint>
          <Trackpoint>
            <Time>2019-05-08T11:21:04.000Z</Time>
            <Position>
              <LatitudeDegrees>42.99959904514253139495849609375</LatitudeDegrees>
              <LongitudeDegrees>0.6211206503212451934814453125</LongitudeDegrees>
            </Position>
            <AltitudeMeters>461.79998779296875</AltitudeMeters>
            <DistanceMeters>54562.002902505</DistanceMeters>
          </Trackpoint>
          <Trackpoint>
            <Time>2019-05-08T11:21:09.000Z</Time>
            <Position>
              <LatitudeDegrees>42.9992854781448841094970703125</LatitudeDegrees>
              <LongitudeDegrees>0.6211947463452816009521484375</LongitudeDegrees>
            </Position>
            <AltitudeMeters>462</AltitudeMeters>
            <DistanceMeters>54597.420979238</DistanceMeters>
          </Trackpoint>
          <Trackpoint>
            <Time>2019-05-08T11:21:17.000Z</Time>
            <Position>
              <LatitudeDegrees>42.998811900615692138671875</LatitudeDegrees>
              <LongitudeDegrees>0.621419213712215423583984375</LongitudeDegrees>
            </Position>
            <AltitudeMeters>462.20001220703125</AltitudeMeters>
            <DistanceMeters>54653.208378412</DistanceMeters>
          </Trackpoint>
          <Trackpoint>
            <Time>2019-05-08T11:21:24.000Z</Time>
            <Position>
              <LatitudeDegrees>42.9984013549983501434326171875</LatitudeDegrees>
              <LongitudeDegrees>0.6216346286237239837646484375</LongitudeDegrees>
            </Position>
            <AltitudeMeters>462.399993896484375</AltitudeMeters>
            <DistanceMeters>54702.152118042</DistanceMeters>
          </Trackpoint>
          <Trackpoint>
            <Time>2019-05-08T11:21:30.000Z</Time>
            <Position>
              <LatitudeDegrees>42.99802794121205806732177734375</LatitudeDegrees>
              <LongitudeDegrees>0.6218186952173709869384765625</LongitudeDegrees>
            </Position>
            <AltitudeMeters>462.399993896484375</AltitudeMeters>
            <DistanceMeters>54746.332284901</DistanceMeters>
          </Trackpoint>
          <Trackpoint>
            <Time>2019-05-08T11:21:32.000Z</Time>
            <Position>
              <LatitudeDegrees>42.99790422432124614715576171875</LatitudeDegrees>
              <LongitudeDegrees>0.62187912873923778533935546875</LongitudeDegrees>
            </Position>
            <AltitudeMeters>462.600006103515625</AltitudeMeters>
            <DistanceMeters>54760.954670139</DistanceMeters>
          </Trackpoint>
          <Trackpoint>
            <Time>2019-05-08T11:21:38.000Z</Time>
            <Position>
              <LatitudeDegrees>42.99752670340240001678466796875</LatitudeDegrees>
              <LongitudeDegrees>0.62206931412220001220703125</LongitudeDegrees>
            </Position>
            <AltitudeMeters>462.79998779296875</AltitudeMeters>
            <DistanceMeters>54805.734944318</DistanceMeters>
          </Trackpoint>
          <Trackpoint>
            <Time>2019-05-08T11:21:46.000Z</Time>
            <Position>
              <LatitudeDegrees>42.99701205454766750335693359375</LatitudeDegrees>
              <LongitudeDegrees>0.62231817282736301422119140625</LongitudeDegrees>
            </Position>
            <AltitudeMeters>463.20001220703125</AltitudeMeters>
            <DistanceMeters>54866.493140974</DistanceMeters>
          </Trackpoint>
          <Trackpoint>
            <Time>2019-05-08T11:21:47.000Z</Time>
            <Position>
              <LatitudeDegrees>42.99694843590259552001953125</LatitudeDegrees>
              <LongitudeDegrees>0.62234432436525821685791015625</LongitudeDegrees>
            </Position>
            <AltitudeMeters>463</AltitudeMeters>
            <DistanceMeters>54873.886927743</DistanceMeters>
          </Trackpoint>
          <Trackpoint>
            <Time>2019-05-08T11:21:52.000Z</Time>
            <Position>
              <LatitudeDegrees>42.996646352112293243408203125</LatitudeDegrees>
              <LongitudeDegrees>0.6224882416427135467529296875</LongitudeDegrees>
            </Position>
            <AltitudeMeters>463.20001220703125</AltitudeMeters>
            <DistanceMeters>54909.492158145</DistanceMeters>
          </Trackpoint>
          <Trackpoint>
            <Time>2019-05-08T11:21:54.000Z</Time>
            <Position>
              <LatitudeDegrees>42.996526993811130523681640625</LatitudeDegrees>
              <LongitudeDegrees>0.6225412152707576751708984375</LongitudeDegrees>
            </Position>
            <AltitudeMeters>463</AltitudeMeters>
            <DistanceMeters>54923.459468964</DistanceMeters>
          </Trackpoint>
          <Trackpoint>
            <Time>2019-05-08T11:21:56.000Z</Time>
            <Position>
              <LatitudeDegrees>42.9964005947113037109375</LatitudeDegrees>
              <LongitudeDegrees>0.62261371873319149017333984375</LongitudeDegrees>
            </Position>
            <AltitudeMeters>463.399993896484375</AltitudeMeters>
            <DistanceMeters>54938.715918433</DistanceMeters>
          </Trackpoint>
          <Trackpoint>
            <Time>2019-05-08T11:21:59.000Z</Time>
            <Position>
              <LatitudeDegrees>42.99620219506323337554931640625</LatitudeDegrees>
              <LongitudeDegrees>0.62271866016089916229248046875</LongitudeDegrees>
            </Position>
            <AltitudeMeters>463.20001220703125</AltitudeMeters>
            <DistanceMeters>54962.393021419</DistanceMeters>
          </Trackpoint>
          <Trackpoint>
            <Time>2019-05-08T11:22:06.000Z</Time>
            <Position>
              <LatitudeDegrees>42.9957382567226886749267578125</LatitudeDegrees>
              <LongitudeDegrees>0.62293709255754947662353515625</LongitudeDegrees>
            </Position>
            <AltitudeMeters>463.20001220703125</AltitudeMeters>
            <DistanceMeters>55017.006354858</DistanceMeters>
          </Trackpoint>
          <Trackpoint>
            <Time>2019-05-08T11:22:13.000Z</Time>
            <Position>
              <LatitudeDegrees>42.99528219737112522125244140625</LatitudeDegrees>
              <LongitudeDegrees>0.62315803952515125274658203125</LongitudeDegrees>
            </Position>
            <AltitudeMeters>463.399993896484375</AltitudeMeters>
            <DistanceMeters>55070.859176891</DistanceMeters>
          </Trackpoint>
          <Trackpoint>
            <Time>2019-05-08T11:22:15.000Z</Time>
            <Position>
              <LatitudeDegrees>42.99514867365360260009765625</LatitudeDegrees>
              <LongitudeDegrees>0.62321486882865428924560546875</LongitudeDegrees>
            </Position>
            <AltitudeMeters>463.600006103515625</AltitudeMeters>
            <DistanceMeters>55086.42384492</DistanceMeters>
          </Trackpoint>
          <Trackpoint>
            <Time>2019-05-08T11:22:22.000Z</Time>
            <Position>
              <LatitudeDegrees>42.9946853220462799072265625</LatitudeDegrees>
              <LongitudeDegrees>0.62344268895685672760009765625</LongitudeDegrees>
            </Position>
            <AltitudeMeters>464</AltitudeMeters>
            <DistanceMeters>55141.229220361</DistanceMeters>
          </Trackpoint>
          <Trackpoint>
            <Time>2019-05-08T11:22:30.000Z</Time>
            <Position>
              <LatitudeDegrees>42.9941604472696781158447265625</LatitudeDegrees>
              <LongitudeDegrees>0.62369666062295436859130859375</LongitudeDegrees>
            </Position>
            <AltitudeMeters>464.399993896484375</AltitudeMeters>
            <DistanceMeters>55203.199535352</DistanceMeters>
          </Trackpoint>
          <Trackpoint>
            <Time>2019-05-08T11:22:33.000Z</Time>
            <Position>
              <LatitudeDegrees>42.9939975030720233917236328125</LatitudeDegrees>
              <LongitudeDegrees>0.62383395619690418243408203125</LongitudeDegrees>
            </Position>
            <AltitudeMeters>464.79998779296875</AltitudeMeters>
            <DistanceMeters>55224.503117493</DistanceMeters>
          </Trackpoint>
          <Trackpoint>
            <Time>2019-05-08T11:22:35.000Z</Time>
            <Position>
              <LatitudeDegrees>42.99390303902328014373779296875</LatitudeDegrees>
              <LongitudeDegrees>0.6239547394216060638427734375</LongitudeDegrees>
            </Position>
            <AltitudeMeters>464.79998779296875</AltitudeMeters>
            <DistanceMeters>55238.89864542</DistanceMeters>
          </Trackpoint>
          <Trackpoint>
            <Time>2019-05-08T11:22:38.000Z</Time>
            <Position>
              <LatitudeDegrees>42.99378770403563976287841796875</LatitudeDegrees>
              <LongitudeDegrees>0.62416587956249713897705078125</LongitudeDegrees>
            </Position>
            <AltitudeMeters>464.79998779296875</AltitudeMeters>
            <DistanceMeters>55260.351965354</DistanceMeters>
          </Trackpoint>
          <Trackpoint>
            <Time>2019-05-08T11:22:41.000Z</Time>
            <Position>
              <LatitudeDegrees>42.9936571978032588958740234375</LatitudeDegrees>
              <LongitudeDegrees>0.6243684701621532440185546875</LongitudeDegrees>
            </Position>
            <AltitudeMeters>464.79998779296875</AltitudeMeters>
            <DistanceMeters>55282.329242912</DistanceMeters>
          </Trackpoint>
          <Trackpoint>
            <Time>2019-05-08T11:22:48.000Z</Time>
            <Position>
              <LatitudeDegrees>42.99331806600093841552734375</LatitudeDegrees>
              <LongitudeDegrees>0.62481832690536975860595703125</LongitudeDegrees>
            </Position>
            <AltitudeMeters>465.399993896484375</AltitudeMeters>
            <DistanceMeters>55334.921958049</DistanceMeters>
          </Trackpoint>
          <Trackpoint>
            <Time>2019-05-08T11:22:55.000Z</Time>
            <Position>
              <LatitudeDegrees>42.99293258227407932281494140625</LatitudeDegrees>
              <LongitudeDegrees>0.6251929141581058502197265625</LongitudeDegrees>
            </Position>
            <AltitudeMeters>465.399993896484375</AltitudeMeters>
            <DistanceMeters>55387.560410878</DistanceMeters>
          </Trackpoint>
          <Trackpoint>
            <Time>2019-05-08T11:23:01.000Z</Time>
            <Position>
              <LatitudeDegrees>42.99262094311416149139404296875</LatitudeDegrees>
              <LongitudeDegrees>0.62545157968997955322265625</LongitudeDegrees>
            </Position>
            <AltitudeMeters>465.79998779296875</AltitudeMeters>
            <DistanceMeters>55428.13826443</DistanceMeters>
          </Trackpoint>
          <Trackpoint>
            <Time>2019-05-08T11:23:02.000Z</Time>
            <Position>
              <LatitudeDegrees>42.99256478436291217803955078125</LatitudeDegrees>
              <LongitudeDegrees>0.62549156136810779571533203125</LongitudeDegrees>
            </Position>
            <AltitudeMeters>465.79998779296875</AltitudeMeters>
            <DistanceMeters>55435.185634184</DistanceMeters>
          </Trackpoint>
          <Trackpoint>
            <Time>2019-05-08T11:23:11.000Z</Time>
            <Position>
              <LatitudeDegrees>42.9920233972370624542236328125</LatitudeDegrees>
              <LongitudeDegrees>0.62585399486124515533447265625</LongitudeDegrees>
            </Position>
            <AltitudeMeters>466.20001220703125</AltitudeMeters>
            <DistanceMeters>55502.279474498</DistanceMeters>
          </Trackpoint>
          <Trackpoint>
            <Time>2019-05-08T11:23:20.000Z</Time>
            <Position>
              <LatitudeDegrees>42.991477735340595245361328125</LatitudeDegrees>
              <LongitudeDegrees>0.62619681470096111297607421875</LongitudeDegrees>
            </Position>
            <AltitudeMeters>466.600006103515625</AltitudeMeters>
            <DistanceMeters>55569.11872823</DistanceMeters>
          </Trackpoint>
          <Trackpoint>
            <Time>2019-05-08T11:23:24.000Z</Time>
            <Position>
              <LatitudeDegrees>42.99125033430755138397216796875</LatitudeDegrees>
              <LongitudeDegrees>0.62633964233100414276123046875</LongitudeDegrees>
            </Position>
            <AltitudeMeters>466.600006103515625</AltitudeMeters>
            <DistanceMeters>55596.972094052</DistanceMeters>
          </Trackpoint>
          <Trackpoint>
            <Time>2019-05-08T11:23:26.000Z</Time>
            <Position>
              <LatitudeDegrees>42.99114254303276538848876953125</LatitudeDegrees>
              <LongitudeDegrees>0.6264056079089641571044921875</LongitudeDegrees>
            </Position>
            <AltitudeMeters>466.79998779296875</AltitudeMeters>
            <DistanceMeters>55610.11638759</DistanceMeters>
          </Trackpoint>
          <Trackpoint>
            <Time>2019-05-08T11:23:28.000Z</Time>
            <Position>
              <LatitudeDegrees>42.99104916863143444061279296875</LatitudeDegrees>
              <LongitudeDegrees>0.62647484242916107177734375</LongitudeDegrees>
            </Position>
            <AltitudeMeters>466.79998779296875</AltitudeMeters>
            <DistanceMeters>55621.939482927</DistanceMeters>
          </Trackpoint>
          <Trackpoint>
            <Time>2019-05-08T11:23:30.000Z</Time>
            <Position>
              <LatitudeDegrees>42.99099938012659549713134765625</LatitudeDegrees>
              <LongitudeDegrees>0.6265199370682239532470703125</LongitudeDegrees>
            </Position>
            <AltitudeMeters>467</AltitudeMeters>
            <DistanceMeters>55628.587279112</DistanceMeters>
          </Trackpoint>
          <Trackpoint>
            <Time>2019-05-08T11:23:31.000Z</Time>
            <Position>
              <LatitudeDegrees>42.9909910820424556732177734375</LatitudeDegrees>
              <LongitudeDegrees>0.62653720378875732421875</LongitudeDegrees>
            </Position>
            <AltitudeMeters>467</AltitudeMeters>
            <DistanceMeters>55630.268473308</DistanceMeters>
          </Trackpoint>
          <Trackpoint>
            <Time>2019-05-08T11:23:33.000Z</Time>
            <Position>
              <LatitudeDegrees>42.991007678210735321044921875</LatitudeDegrees>
              <LongitudeDegrees>0.62657433561980724334716796875</LongitudeDegrees>
            </Position>
            <AltitudeMeters>467</AltitudeMeters>
            <DistanceMeters>55633.81132615</DistanceMeters>
          </Trackpoint>
          <Trackpoint>
            <Time>2019-05-08T11:23:37.000Z</Time>
            <Position>
              <LatitudeDegrees>42.99111320637166500091552734375</LatitudeDegrees>
              <LongitudeDegrees>0.6266406364738941192626953125</LongitudeDegrees>
            </Position>
            <AltitudeMeters>467.20001220703125</AltitudeMeters>
            <DistanceMeters>55646.737753906</DistanceMeters>
          </Trackpoint>
          <Trackpoint>
            <Time>2019-05-08T11:23:38.000Z</Time>
            <Position>
              <LatitudeDegrees>42.9911412857472896575927734375</LatitudeDegrees>
              <LongitudeDegrees>0.62667156569659709930419921875</LongitudeDegrees>
            </Position>
            <AltitudeMeters>467.20001220703125</AltitudeMeters>
            <DistanceMeters>55650.751437547</DistanceMeters>
          </Trackpoint>
          <Trackpoint>
            <Time>2019-05-08T11:23:41.000Z</Time>
            <Position>
              <LatitudeDegrees>42.9911771602928638458251953125</LatitudeDegrees>
              <LongitudeDegrees>0.62680802308022975921630859375</LongitudeDegrees>
            </Position>
            <AltitudeMeters>467.600006103515625</AltitudeMeters>
            <DistanceMeters>55662.556188273</DistanceMeters>
          </Trackpoint>
          <Trackpoint>
            <Time>2019-05-08T11:23:44.000Z</Time>
            <Position>
              <LatitudeDegrees>42.9911459796130657196044921875</LatitudeDegrees>
              <LongitudeDegrees>0.62694582156836986541748046875</LongitudeDegrees>
            </Position>
            <AltitudeMeters>468</AltitudeMeters>
            <DistanceMeters>55674.299583329</DistanceMeters>
          </Trackpoint>
          <Trackpoint>
            <Time>2019-05-08T11:23:46.000Z</Time>
            <Position>
              <LatitudeDegrees>42.991114966571331024169921875</LatitudeDegrees>
              <LongitudeDegrees>0.62704606913030147552490234375</LongitudeDegrees>
            </Position>
            <AltitudeMeters>468.20001220703125</AltitudeMeters>
            <DistanceMeters>55683.161047359</DistanceMeters>
          </Trackpoint>
          <Trackpoint>
            <Time>2019-05-08T11:23:47.000Z</Time>
            <Position>
              <LatitudeDegrees>42.99109711311757564544677734375</LatitudeDegrees>
              <LongitudeDegrees>0.62709443271160125732421875</LongitudeDegrees>
            </Position>
            <AltitudeMeters>468.20001220703125</AltitudeMeters>
            <DistanceMeters>55687.571351732</DistanceMeters>
          </Trackpoint>
          <Trackpoint>
            <Time>2019-05-08T11:23:51.000Z</Time>
            <Position>
              <LatitudeDegrees>42.99103081226348876953125</LatitudeDegrees>
              <LongitudeDegrees>0.6272203288972377777099609375</LongitudeDegrees>
            </Position>
            <AltitudeMeters>468.399993896484375</AltitudeMeters>
            <DistanceMeters>55700.200970503</DistanceMeters>
          </Trackpoint>
          <Trackpoint>
            <Time>2019-05-08T11:23:53.000Z</Time>
            <Position>
              <LatitudeDegrees>42.99102452583611011505126953125</LatitudeDegrees>
              <LongitudeDegrees>0.6272251904010772705078125</LongitudeDegrees>
            </Position>
            <AltitudeMeters>468.600006103515625</AltitudeMeters>
            <DistanceMeters>55700.996021037</DistanceMeters>
          </Trackpoint>
          <Trackpoint>
            <Time>2019-05-08T11:24:34.000Z</Time>
            <Position>
              <LatitudeDegrees>42.991012372076511383056640625</LatitudeDegrees>
              <LongitudeDegrees>0.62725494615733623504638671875</LongitudeDegrees>
            </Position>
            <AltitudeMeters>469</AltitudeMeters>
            <DistanceMeters>55703.769759512</DistanceMeters>
          </Trackpoint>
          <Trackpoint>
            <Time>2019-05-08T11:24:35.000Z</Time>
            <Position>
              <LatitudeDegrees>42.99100399017333984375</LatitudeDegrees>
              <LongitudeDegrees>0.6272494979202747344970703125</LongitudeDegrees>
            </Position>
            <AltitudeMeters>469</AltitudeMeters>
            <DistanceMeters>55704.802013851</DistanceMeters>
          </Trackpoint>
          <Trackpoint>
            <Time>2019-05-08T11:24:36.000Z</Time>
            <Position>
              <LatitudeDegrees>42.991004996001720428466796875</LatitudeDegrees>
              <LongitudeDegrees>0.62724706716835498809814453125</LongitudeDegrees>
            </Position>
            <AltitudeMeters>468.79998779296875</AltitudeMeters>
            <DistanceMeters>55705.014500044</DistanceMeters>
          </Trackpoint>
          <Trackpoint>
            <Time>2019-05-08T11:24:39.000Z</Time>
            <Position>
              <LatitudeDegrees>42.99102704040706157684326171875</LatitudeDegrees>
              <LongitudeDegrees>0.62720683403313159942626953125</LongitudeDegrees>
            </Position>
            <AltitudeMeters>468.79998779296875</AltitudeMeters>
            <DistanceMeters>55709.106169841</DistanceMeters>
          </Trackpoint>
          <Trackpoint>
            <Time>2019-05-08T11:24:41.000Z</Time>
            <Position>
              <LatitudeDegrees>42.99105453304946422576904296875</LatitudeDegrees>
              <LongitudeDegrees>0.627165175974369049072265625</LongitudeDegrees>
            </Position>
            <AltitudeMeters>468.79998779296875</AltitudeMeters>
            <DistanceMeters>55713.674375907</DistanceMeters>
          </Trackpoint>
          <Trackpoint>
            <Time>2019-05-08T11:24:42.000Z</Time>
            <Position>
              <LatitudeDegrees>42.991068698465824127197265625</LatitudeDegrees>
              <LongitudeDegrees>0.62713692896068096160888671875</LongitudeDegrees>
            </Position>
            <AltitudeMeters>469</AltitudeMeters>
            <DistanceMeters>55716.464344705</DistanceMeters>
          </Trackpoint>
          <Trackpoint>
            <Time>2019-05-08T11:24:43.000Z</Time>
            <Position>
              <LatitudeDegrees>42.9910842888057231903076171875</LatitudeDegrees>
              <LongitudeDegrees>0.6271036528050899505615234375</LongitudeDegrees>
            </Position>
            <AltitudeMeters>468.79998779296875</AltitudeMeters>
            <DistanceMeters>55719.681248124</DistanceMeters>
          </Trackpoint>
          <Trackpoint>
            <Time>2019-05-08T11:24:46.000Z</Time>
            <Position>
              <LatitudeDegrees>42.9911412857472896575927734375</LatitudeDegrees>
              <LongitudeDegrees>0.6269651837646961212158203125</LongitudeDegrees>
            </Position>
            <AltitudeMeters>469</AltitudeMeters>
            <DistanceMeters>55732.616754164</DistanceMeters>
          </Trackpoint>
          <Trackpoint>
            <Time>2019-05-08T11:24:49.000Z</Time>
            <Position>
              <LatitudeDegrees>42.99115913920104503631591796875</LatitudeDegrees>
              <LongitudeDegrees>0.6267593242228031158447265625</LongitudeDegrees>
            </Position>
            <AltitudeMeters>468.79998779296875</AltitudeMeters>
            <DistanceMeters>55749.493562843</DistanceMeters>
          </Trackpoint>
          <Trackpoint>
            <Time>2019-05-08T11:24:50.000Z</Time>
            <Position>
              <LatitudeDegrees>42.99113902263343334197998046875</LatitudeDegrees>
              <LongitudeDegrees>0.62668413855135440826416015625</LongitudeDegrees>
            </Position>
            <AltitudeMeters>468.79998779296875</AltitudeMeters>
            <DistanceMeters>55756.010344987</DistanceMeters>
          </Trackpoint>
          <Trackpoint>
            <Time>2019-05-08T11:24:51.000Z</Time>
            <Position>
              <LatitudeDegrees>42.99110398627817630767822265625</LatitudeDegrees>
              <LongitudeDegrees>0.62661741860210895538330078125</LongitudeDegrees>
            </Position>
            <AltitudeMeters>468.399993896484375</AltitudeMeters>
            <DistanceMeters>55762.696742259</DistanceMeters>
          </Trackpoint>
          <Trackpoint>
            <Time>2019-05-08T11:24:53.000Z</Time>
            <Position>
              <LatitudeDegrees>42.9909930936992168426513671875</LatitudeDegrees>
              <LongitudeDegrees>0.62654583714902400970458984375</LongitudeDegrees>
            </Position>
            <AltitudeMeters>467.399993896484375</AltitudeMeters>
            <DistanceMeters>55776.345569206</DistanceMeters>
          </Trackpoint>
          <Trackpoint>
            <Time>2019-05-08T11:24:54.000Z</Time>
            <Position>
              <LatitudeDegrees>42.990928553044795989990234375</LatitudeDegrees>
              <LongitudeDegrees>0.62654726207256317138671875</LongitudeDegrees>
            </Position>
            <AltitudeMeters>467</AltitudeMeters>
            <DistanceMeters>55783.529991031</DistanceMeters>
          </Trackpoint>
          <Trackpoint>
            <Time>2019-05-08T11:24:56.000Z</Time>
            <Position>
              <LatitudeDegrees>42.99079754389822483062744140625</LatitudeDegrees>
              <LongitudeDegrees>0.62657634727656841278076171875</LongitudeDegrees>
            </Position>
            <AltitudeMeters>466.600006103515625</AltitudeMeters>
            <DistanceMeters>55798.302901628</DistanceMeters>
          </Trackpoint>
          <Trackpoint>
            <Time>2019-05-08T11:24:57.000Z</Time>
            <Position>
              <LatitudeDegrees>42.9907302372157573699951171875</LatitudeDegrees>
              <LongitudeDegrees>0.6265869922935962677001953125</LongitudeDegrees>
            </Position>
            <AltitudeMeters>466.399993896484375</AltitudeMeters>
            <DistanceMeters>55805.844215932</DistanceMeters>
          </Trackpoint>
          <Trackpoint>
            <Time>2019-05-08T11:24:59.000Z</Time>
            <Position>
              <LatitudeDegrees>42.990597970783710479736328125</LatitudeDegrees>
              <LongitudeDegrees>0.6265883333981037139892578125</LongitudeDegrees>
            </Position>
            <AltitudeMeters>466.20001220703125</AltitudeMeters>
            <DistanceMeters>55820.565997915</DistanceMeters>
          </Trackpoint>
          <Trackpoint>
            <Time>2019-05-08T11:25:01.000Z</Time>
            <Position>
              <LatitudeDegrees>42.99047735519707202911376953125</LatitudeDegrees>
              <LongitudeDegrees>0.62654248438775539398193359375</LongitudeDegrees>
            </Position>
            <AltitudeMeters>466.20001220703125</AltitudeMeters>
            <DistanceMeters>55834.499973428</DistanceMeters>
          </Trackpoint>
          <Trackpoint>
            <Time>2019-05-08T11:25:04.000Z</Time>
            <Position>
              <LatitudeDegrees>42.99030971713364124298095703125</LatitudeDegrees>
              <LongitudeDegrees>0.62642832286655902862548828125</LongitudeDegrees>
            </Position>
            <AltitudeMeters>466</AltitudeMeters>
            <DistanceMeters>55855.345291332</DistanceMeters>
          </Trackpoint>
          <Trackpoint>
            <Time>2019-05-08T11:25:08.000Z</Time>
            <Position>
              <LatitudeDegrees>42.99009405076503753662109375</LatitudeDegrees>
              <LongitudeDegrees>0.62626252882182598114013671875</LongitudeDegrees>
            </Position>
            <AltitudeMeters>466.20001220703125</AltitudeMeters>
            <DistanceMeters>55882.884354501</DistanceMeters>
          </Trackpoint>
          <Trackpoint>
            <Time>2019-05-08T11:25:09.000Z</Time>
            <Position>
              <LatitudeDegrees>42.99004577100276947021484375</LatitudeDegrees>
              <LongitudeDegrees>0.62621844001114368438720703125</LongitudeDegrees>
            </Position>
            <AltitudeMeters>466.20001220703125</AltitudeMeters>
            <DistanceMeters>55889.346171078</DistanceMeters>
          </Trackpoint>
          <Trackpoint>
            <Time>2019-05-08T11:25:11.000Z</Time>
            <Position>
              <LatitudeDegrees>42.9899688251316547393798828125</LatitudeDegrees>
              <LongitudeDegrees>0.62610863707959651947021484375</LongitudeDegrees>
            </Position>
            <AltitudeMeters>466.399993896484375</AltitudeMeters>
            <DistanceMeters>55901.725931068</DistanceMeters>
          </Trackpoint>
          <Trackpoint>
            <Time>2019-05-08T11:25:12.000Z</Time>
            <Position>
              <LatitudeDegrees>42.98993521369993686676025390625</LatitudeDegrees>
              <LongitudeDegrees>0.62605365179479122161865234375</LongitudeDegrees>
            </Position>
            <AltitudeMeters>466.399993896484375</AltitudeMeters>
            <DistanceMeters>55907.55905442</DistanceMeters>
          </Trackpoint>
          <Trackpoint>
            <Time>2019-05-08T11:25:13.000Z</Time>
            <Position>
              <LatitudeDegrees>42.98989581875503063201904296875</LatitudeDegrees>
              <LongitudeDegrees>0.62601693905889987945556640625</LongitudeDegrees>
            </Position>
            <AltitudeMeters>466.600006103515625</AltitudeMeters>
            <DistanceMeters>55912.865256296</DistanceMeters>
          </Trackpoint>
          <Trackpoint>
            <Time>2019-05-08T11:25:15.000Z</Time>
            <Position>
              <LatitudeDegrees>42.98980462364852428436279296875</LatitudeDegrees>
              <LongitudeDegrees>0.626002438366413116455078125</LongitudeDegrees>
            </Position>
            <AltitudeMeters>466.600006103515625</AltitudeMeters>
            <DistanceMeters>55923.083169187</DistanceMeters>
          </Trackpoint>
          <Trackpoint>
            <Time>2019-05-08T11:25:20.000Z</Time>
            <Position>
              <LatitudeDegrees>42.98955249600112438201904296875</LatitudeDegrees>
              <LongitudeDegrees>0.6260800547897815704345703125</LongitudeDegrees>
            </Position>
            <AltitudeMeters>467.20001220703125</AltitudeMeters>
            <DistanceMeters>55951.848180999</DistanceMeters>
          </Trackpoint>
          <Trackpoint>
            <Time>2019-05-08T11:25:21.000Z</Time>
            <Position>
              <LatitudeDegrees>42.9894952476024627685546875</LatitudeDegrees>
              <LongitudeDegrees>0.62610779888927936553955078125</LongitudeDegrees>
            </Position>
            <AltitudeMeters>467.20001220703125</AltitudeMeters>
            <DistanceMeters>55958.60911636</DistanceMeters>
          </Trackpoint>
          <Trackpoint>
            <Time>2019-05-08T11:25:22.000Z</Time>
            <Position>
              <LatitudeDegrees>42.98943959176540374755859375</LatitudeDegrees>
              <LongitudeDegrees>0.62614300288259983062744140625</LongitudeDegrees>
            </Position>
            <AltitudeMeters>467.399993896484375</AltitudeMeters>
            <DistanceMeters>55965.435183636</DistanceMeters>
          </Trackpoint>
          <Trackpoint>
            <Time>2019-05-08T11:25:23.000Z</Time>
            <Position>
              <LatitudeDegrees>42.9893847741186618804931640625</LatitudeDegrees>
              <LongitudeDegrees>0.62618105672299861907958984375</LongitudeDegrees>
            </Position>
            <AltitudeMeters>467.600006103515625</AltitudeMeters>
            <DistanceMeters>55972.277766946</DistanceMeters>
          </Trackpoint>
          <Trackpoint>
            <Time>2019-05-08T11:25:25.000Z</Time>
            <Position>
              <LatitudeDegrees>42.98927270807325839996337890625</LatitudeDegrees>
              <LongitudeDegrees>0.6262520514428615570068359375</LongitudeDegrees>
            </Position>
            <AltitudeMeters>467.79998779296875</AltitudeMeters>
            <DistanceMeters>55986.02514742</DistanceMeters>
          </Trackpoint>
          <Trackpoint>
            <Time>2019-05-08T11:25:26.000Z</Time>
            <Position>
              <LatitudeDegrees>42.98921621404588222503662109375</LatitudeDegrees>
              <LongitudeDegrees>0.6262879259884357452392578125</LongitudeDegrees>
            </Position>
            <AltitudeMeters>467.79998779296875</AltitudeMeters>
            <DistanceMeters>55992.958842466</DistanceMeters>
          </Trackpoint>
          <Trackpoint>
            <Time>2019-05-08T11:25:27.000Z</Time>
            <Position>
              <LatitudeDegrees>42.989159636199474334716796875</LatitudeDegrees>
              <LongitudeDegrees>0.62632321380078792572021484375</LongitudeDegrees>
            </Position>
            <AltitudeMeters>467.79998779296875</AltitudeMeters>
            <DistanceMeters>55999.880806466</DistanceMeters>
          </Trackpoint>
          <Trackpoint>
            <Time>2019-05-08T11:25:29.000Z</Time>
            <Position>
              <LatitudeDegrees>42.98904991708695888519287109375</LatitudeDegrees>
              <LongitudeDegrees>0.6263955496251583099365234375</LongitudeDegrees>
            </Position>
            <AltitudeMeters>468</AltitudeMeters>
            <DistanceMeters>56013.438691112</DistanceMeters>
          </Trackpoint>
          <Trackpoint>
            <Time>2019-05-08T11:25:30.000Z</Time>
            <Position>
              <LatitudeDegrees>42.98899979330599308013916015625</LatitudeDegrees>
              <LongitudeDegrees>0.62643704004585742950439453125</LongitudeDegrees>
            </Position>
            <AltitudeMeters>467.79998779296875</AltitudeMeters>
            <DistanceMeters>56019.960321281</DistanceMeters>
          </Trackpoint>
          <Trackpoint>
            <Time>2019-05-08T11:25:32.000Z</Time>
            <Position>
              <LatitudeDegrees>42.988903485238552093505859375</LatitudeDegrees>
              <LongitudeDegrees>0.62652178108692169189453125</LongitudeDegrees>
            </Position>
            <AltitudeMeters>467.79998779296875</AltitudeMeters>
            <DistanceMeters>56032.708076208</DistanceMeters>
          </Trackpoint>
          <Trackpoint>
            <Time>2019-05-08T11:25:34.000Z</Time>
            <Position>
              <LatitudeDegrees>42.98880214802920818328857421875</LatitudeDegrees>
              <LongitudeDegrees>0.626597218215465545654296875</LongitudeDegrees>
            </Position>
            <AltitudeMeters>467.600006103515625</AltitudeMeters>
            <DistanceMeters>56045.551104524</DistanceMeters>
          </Trackpoint>
          <Trackpoint>
            <Time>2019-05-08T11:25:38.000Z</Time>
            <Position>
              <LatitudeDegrees>42.98861774615943431854248046875</LatitudeDegrees>
              <LongitudeDegrees>0.62676586210727691650390625</LongitudeDegrees>
            </Position>
            <AltitudeMeters>467.399993896484375</AltitudeMeters>
            <DistanceMeters>56070.244523525</DistanceMeters>
          </Trackpoint>
          <Trackpoint>
            <Time>2019-05-08T11:25:42.000Z</Time>
            <Position>
              <LatitudeDegrees>42.98844172619283199310302734375</LatitudeDegrees>
              <LongitudeDegrees>0.62692017294466495513916015625</LongitudeDegrees>
            </Position>
            <AltitudeMeters>467.399993896484375</AltitudeMeters>
            <DistanceMeters>56093.51830997</DistanceMeters>
          </Trackpoint>
          <Trackpoint>
            <Time>2019-05-08T11:25:45.000Z</Time>
            <Position>
              <LatitudeDegrees>42.98831365071237087249755859375</LatitudeDegrees>
              <LongitudeDegrees>0.6269816122949123382568359375</LongitudeDegrees>
            </Position>
            <AltitudeMeters>467.399993896484375</AltitudeMeters>
            <DistanceMeters>56108.625465627</DistanceMeters>
          </Trackpoint>
          <Trackpoint>
            <Time>2019-05-08T11:25:48.000Z</Time>
            <Position>
              <LatitudeDegrees>42.988210134208202362060546875</LatitudeDegrees>
              <LongitudeDegrees>0.6270137988030910491943359375</LongitudeDegrees>
            </Position>
            <AltitudeMeters>467.600006103515625</AltitudeMeters>
            <DistanceMeters>56120.440920837</DistanceMeters>
          </Trackpoint>
          <Trackpoint>
            <Time>2019-05-08T11:25:50.000Z</Time>
            <Position>
              <LatitudeDegrees>42.98815749585628509521484375</LatitudeDegrees>
              <LongitudeDegrees>0.62702880240976810455322265625</LongitudeDegrees>
            </Position>
            <AltitudeMeters>467.79998779296875</AltitudeMeters>
            <DistanceMeters>56126.425340874</DistanceMeters>
          </Trackpoint>
          <Trackpoint>
            <Time>2019-05-08T11:25:55.000Z</Time>
            <Position>
              <LatitudeDegrees>42.98808834515511989593505859375</LatitudeDegrees>
              <LongitudeDegrees>0.62705780379474163055419921875</LongitudeDegrees>
            </Position>
            <AltitudeMeters>468.399993896484375</AltitudeMeters>
            <DistanceMeters>56134.476296638</DistanceMeters>
          </Trackpoint>
          <Trackpoint>
            <Time>2019-05-08T11:26:02.000Z</Time>
            <Position>
              <LatitudeDegrees>42.9880590923130512237548828125</LatitudeDegrees>
              <LongitudeDegrees>0.627080015838146209716796875</LongitudeDegrees>
            </Position>
            <AltitudeMeters>468.79998779296875</AltitudeMeters>
            <DistanceMeters>56138.200568032</DistanceMeters>
          </Trackpoint>
          <Trackpoint>
            <Time>2019-05-08T11:26:04.000Z</Time>
            <Position>
              <LatitudeDegrees>42.9880255647003650665283203125</LatitudeDegrees>
              <LongitudeDegrees>0.62711513601243495941162109375</LongitudeDegrees>
            </Position>
            <AltitudeMeters>468.79998779296875</AltitudeMeters>
            <DistanceMeters>56142.901269795</DistanceMeters>
          </Trackpoint>
          <Trackpoint>
            <Time>2019-05-08T11:26:06.000Z</Time>
            <Position>
              <LatitudeDegrees>42.98797736875712871551513671875</LatitudeDegrees>
              <LongitudeDegrees>0.6271428801119327545166015625</LongitudeDegrees>
            </Position>
            <AltitudeMeters>468.79998779296875</AltitudeMeters>
            <DistanceMeters>56148.721995421</DistanceMeters>
          </Trackpoint>
          <Trackpoint>
            <Time>2019-05-08T11:26:10.000Z</Time>
            <Position>
              <LatitudeDegrees>42.987864799797534942626953125</LatitudeDegrees>
              <LongitudeDegrees>0.6272096000611782073974609375</LongitudeDegrees>
            </Position>
            <AltitudeMeters>469</AltitudeMeters>
            <DistanceMeters>56162.378098039</DistanceMeters>
          </Trackpoint>
          <Trackpoint>
            <Time>2019-05-08T11:26:15.000Z</Time>
            <Position>
              <LatitudeDegrees>42.9877053759992122650146484375</LatitudeDegrees>
              <LongitudeDegrees>0.62729149125516414642333984375</LongitudeDegrees>
            </Position>
            <AltitudeMeters>468.79998779296875</AltitudeMeters>
            <DistanceMeters>56181.333486236</DistanceMeters>
          </Trackpoint>
          <Trackpoint>
            <Time>2019-05-08T11:26:17.000Z</Time>
            <Position>
              <LatitudeDegrees>42.98764259554445743560791015625</LatitudeDegrees>
              <LongitudeDegrees>0.62733943574130535125732421875</LongitudeDegrees>
            </Position>
            <AltitudeMeters>468.79998779296875</AltitudeMeters>
            <DistanceMeters>56189.33719552</DistanceMeters>
          </Trackpoint>
          <Trackpoint>
            <Time>2019-05-08T11:26:22.000Z</Time>
            <Position>
              <LatitudeDegrees>42.98752860166132450103759765625</LatitudeDegrees>
              <LongitudeDegrees>0.62751864083111286163330078125</LongitudeDegrees>
            </Position>
            <AltitudeMeters>468.399993896484375</AltitudeMeters>
            <DistanceMeters>56208.672738567</DistanceMeters>
          </Trackpoint>
          <Trackpoint>
            <Time>2019-05-08T11:26:28.000Z</Time>
            <Position>
              <LatitudeDegrees>42.98748484812676906585693359375</LatitudeDegrees>
              <LongitudeDegrees>0.6277993507683277130126953125</LongitudeDegrees>
            </Position>
            <AltitudeMeters>468.399993896484375</AltitudeMeters>
            <DistanceMeters>56232.040617218</DistanceMeters>
          </Trackpoint>
          <Trackpoint>
            <Time>2019-05-08T11:26:33.000Z</Time>
            <Position>
              <LatitudeDegrees>42.987379990518093109130859375</LatitudeDegrees>
              <LongitudeDegrees>0.6279723532497882843017578125</LongitudeDegrees>
            </Position>
            <AltitudeMeters>468.399993896484375</AltitudeMeters>
            <DistanceMeters>56250.332704375</DistanceMeters>
          </Trackpoint>
          <Trackpoint>
            <Time>2019-05-08T11:26:38.000Z</Time>
            <Position>
              <LatitudeDegrees>42.987241186201572418212890625</LatitudeDegrees>
              <LongitudeDegrees>0.62807922251522541046142578125</LongitudeDegrees>
            </Position>
            <AltitudeMeters>468.399993896484375</AltitudeMeters>
            <DistanceMeters>56268.063782782</DistanceMeters>
          </Trackpoint>
          <Trackpoint>
            <Time>2019-05-08T11:26:39.000Z</Time>
            <Position>
              <LatitudeDegrees>42.98721813596785068511962890625</LatitudeDegrees>
              <LongitudeDegrees>0.6280969083309173583984375</LongitudeDegrees>
            </Position>
            <AltitudeMeters>468.20001220703125</AltitudeMeters>
            <DistanceMeters>56271.005009266</DistanceMeters>
          </Trackpoint>
          <Trackpoint>
            <Time>2019-05-08T11:26:41.000Z</Time>
            <Position>
              <LatitudeDegrees>42.98717136494815349578857421875</LatitudeDegrees>
              <LongitudeDegrees>0.62812884338200092315673828125</LongitudeDegrees>
            </Position>
            <AltitudeMeters>468.399993896484375</AltitudeMeters>
            <DistanceMeters>56276.82418332</DistanceMeters>
          </Trackpoint>
          <Trackpoint>
            <Time>2019-05-08T11:26:44.000Z</Time>
            <Position>
              <LatitudeDegrees>42.9870931617915630340576171875</LatitudeDegrees>
              <LongitudeDegrees>0.6281819008290767669677734375</LongitudeDegrees>
            </Position>
            <AltitudeMeters>468.399993896484375</AltitudeMeters>
            <DistanceMeters>56286.54110049</DistanceMeters>
          </Trackpoint>
          <Trackpoint>
            <Time>2019-05-08T11:26:50.000Z</Time>
            <Position>
              <LatitudeDegrees>42.98691957257688045501708984375</LatitudeDegrees>
              <LongitudeDegrees>0.62828960828483104705810546875</LongitudeDegrees>
            </Position>
            <AltitudeMeters>468.79998779296875</AltitudeMeters>
            <DistanceMeters>56307.758674127</DistanceMeters>
          </Trackpoint>
          <Trackpoint>
            <Time>2019-05-08T11:26:55.000Z</Time>
            <Position>
              <LatitudeDegrees>42.9867954365909099578857421875</LatitudeDegrees>
              <LongitudeDegrees>0.628354735672473907470703125</LongitudeDegrees>
            </Position>
            <AltitudeMeters>468.79998779296875</AltitudeMeters>
            <DistanceMeters>56322.557845525</DistanceMeters>
          </Trackpoint>
          <Trackpoint>
            <Time>2019-05-08T11:26:59.000Z</Time>
            <Position>
              <LatitudeDegrees>42.98667884431779384613037109375</LatitudeDegrees>
              <LongitudeDegrees>0.62844182364642620086669921875</LongitudeDegrees>
            </Position>
            <AltitudeMeters>469</AltitudeMeters>
            <DistanceMeters>56337.345724388</DistanceMeters>
          </Trackpoint>
          <Trackpoint>
            <Time>2019-05-08T11:27:03.000Z</Time>
            <Position>
              <LatitudeDegrees>42.98654691316187381744384765625</LatitudeDegrees>
              <LongitudeDegrees>0.6285325996577739715576171875</LongitudeDegrees>
            </Position>
            <AltitudeMeters>469.20001220703125</AltitudeMeters>
            <DistanceMeters>56353.784796677</DistanceMeters>
          </Trackpoint>
          <Trackpoint>
            <Time>2019-05-08T11:27:06.000Z</Time>
            <Position>
              <LatitudeDegrees>42.9864423908293247222900390625</LatitudeDegrees>
              <LongitudeDegrees>0.628586076200008392333984375</LongitudeDegrees>
            </Position>
            <AltitudeMeters>469.399993896484375</AltitudeMeters>
            <DistanceMeters>56366.20606417</DistanceMeters>
          </Trackpoint>
          <Trackpoint>
            <Time>2019-05-08T11:27:08.000Z</Time>
            <Position>
              <LatitudeDegrees>42.98637441359460353851318359375</LatitudeDegrees>
              <LongitudeDegrees>0.62862907536327838897705078125</LongitudeDegrees>
            </Position>
            <AltitudeMeters>469.399993896484375</AltitudeMeters>
            <DistanceMeters>56374.542999961</DistanceMeters>
          </Trackpoint>
          <Trackpoint>
            <Time>2019-05-08T11:27:09.000Z</Time>
            <Position>
              <LatitudeDegrees>42.98634490929543972015380859375</LatitudeDegrees>
              <LongitudeDegrees>0.62865137122571468353271484375</LongitudeDegrees>
            </Position>
            <AltitudeMeters>469.600006103515625</AltitudeMeters>
            <DistanceMeters>56378.296254449</DistanceMeters>
          </Trackpoint>
          <Trackpoint>
            <Time>2019-05-08T11:27:13.000Z</Time>
            <Position>
              <LatitudeDegrees>42.98621951602399349212646484375</LatitudeDegrees>
              <LongitudeDegrees>0.62874943949282169342041015625</LongitudeDegrees>
            </Position>
            <AltitudeMeters>469.600006103515625</AltitudeMeters>
            <DistanceMeters>56394.37571802</DistanceMeters>
          </Trackpoint>
          <Trackpoint>
            <Time>2019-05-08T11:27:19.000Z</Time>
            <Position>
              <LatitudeDegrees>42.98600577749311923980712890625</LatitudeDegrees>
              <LongitudeDegrees>0.62889511696994304656982421875</LongitudeDegrees>
            </Position>
            <AltitudeMeters>469.79998779296875</AltitudeMeters>
            <DistanceMeters>56420.958071977</DistanceMeters>
          </Trackpoint>
          <Trackpoint>
            <Time>2019-05-08T11:27:20.000Z</Time>
            <Position>
              <LatitudeDegrees>42.98596604727208614349365234375</LatitudeDegrees>
              <LongitudeDegrees>0.62891808338463306427001953125</LongitudeDegrees>
            </Position>
            <AltitudeMeters>469.79998779296875</AltitudeMeters>
            <DistanceMeters>56425.759507717</DistanceMeters>
          </Trackpoint>
          <Trackpoint>
            <Time>2019-05-08T11:27:24.000Z</Time>
            <Position>
              <LatitudeDegrees>42.98580075614154338836669921875</LatitudeDegrees>
              <LongitudeDegrees>0.6290227733552455902099609375</LongitudeDegrees>
            </Position>
            <AltitudeMeters>469.600006103515625</AltitudeMeters>
            <DistanceMeters>56446.035634574</DistanceMeters>
          </Trackpoint>
          <Trackpoint>
            <Time>2019-05-08T11:27:25.000Z</Time>
            <Position>
              <LatitudeDegrees>42.98576286993920803070068359375</LatitudeDegrees>
              <LongitudeDegrees>0.6290516071021556854248046875</LongitudeDegrees>
            </Position>
            <AltitudeMeters>469.79998779296875</AltitudeMeters>
            <DistanceMeters>56450.863328361</DistanceMeters>
          </Trackpoint>
          <Trackpoint>
            <Time>2019-05-08T11:27:26.000Z</Time>
            <Position>
              <LatitudeDegrees>42.985727079212665557861328125</LatitudeDegrees>
              <LongitudeDegrees>0.62908069230616092681884765625</LongitudeDegrees>
            </Position>
            <AltitudeMeters>469.79998779296875</AltitudeMeters>
            <DistanceMeters>56455.49728151</DistanceMeters>
          </Trackpoint>
          <Trackpoint>
            <Time>2019-05-08T11:27:31.000Z</Time>
            <Position>
              <LatitudeDegrees>42.98552700318396091461181640625</LatitudeDegrees>
              <LongitudeDegrees>0.62918630428612232208251953125</LongitudeDegrees>
            </Position>
            <AltitudeMeters>469.399993896484375</AltitudeMeters>
            <DistanceMeters>56479.368854648</DistanceMeters>
          </Trackpoint>
          <Trackpoint>
            <Time>2019-05-08T11:27:37.000Z</Time>
            <Position>
              <LatitudeDegrees>42.985285855829715728759765625</LatitudeDegrees>
              <LongitudeDegrees>0.6293199956417083740234375</LongitudeDegrees>
            </Position>
            <AltitudeMeters>469.20001220703125</AltitudeMeters>
            <DistanceMeters>56508.332211523</DistanceMeters>
          </Trackpoint>
          <Trackpoint>
            <Time>2019-05-08T11:27:39.000Z</Time>
            <Position>
              <LatitudeDegrees>42.98520178534090518951416015625</LatitudeDegrees>
              <LongitudeDegrees>0.62936366535723209381103515625</LongitudeDegrees>
            </Position>
            <AltitudeMeters>469.20001220703125</AltitudeMeters>
            <DistanceMeters>56518.342093052</DistanceMeters>
          </Trackpoint>
          <Trackpoint>
            <Time>2019-05-08T11:27:40.000Z</Time>
            <Position>
              <LatitudeDegrees>42.9851607978343963623046875</LatitudeDegrees>
              <LongitudeDegrees>0.6293912418186664581298828125</LongitudeDegrees>
            </Position>
            <AltitudeMeters>469</AltitudeMeters>
            <DistanceMeters>56523.427576209</DistanceMeters>
          </Trackpoint>
          <Trackpoint>
            <Time>2019-05-08T11:27:42.000Z</Time>
            <Position>
              <LatitudeDegrees>42.98507471568882465362548828125</LatitudeDegrees>
              <LongitudeDegrees>0.62943910248577594757080078125</LongitudeDegrees>
            </Position>
            <AltitudeMeters>469</AltitudeMeters>
            <DistanceMeters>56533.771093295</DistanceMeters>
          </Trackpoint>
          <Trackpoint>
            <Time>2019-05-08T11:27:43.000Z</Time>
            <Position>
              <LatitudeDegrees>42.98503045924007892608642578125</LatitudeDegrees>
              <LongitudeDegrees>0.62945988960564136505126953125</LongitudeDegrees>
            </Position>
            <AltitudeMeters>469</AltitudeMeters>
            <DistanceMeters>56538.979389526</DistanceMeters>
          </Trackpoint>
          <Trackpoint>
            <Time>2019-05-08T11:27:49.000Z</Time>
            <Position>
              <LatitudeDegrees>42.98475335352122783660888671875</LatitudeDegrees>
              <LongitudeDegrees>0.62956851907074451446533203125</LongitudeDegrees>
            </Position>
            <AltitudeMeters>469</AltitudeMeters>
            <DistanceMeters>56571.06494539</DistanceMeters>
          </Trackpoint>
          <Trackpoint>
            <Time>2019-05-08T11:27:52.000Z</Time>
            <Position>
              <LatitudeDegrees>42.9846097715198993682861328125</LatitudeDegrees>
              <LongitudeDegrees>0.6296091713011264801025390625</LongitudeDegrees>
            </Position>
            <AltitudeMeters>469.20001220703125</AltitudeMeters>
            <DistanceMeters>56587.384659684</DistanceMeters>
          </Trackpoint>
          <Trackpoint>
            <Time>2019-05-08T11:27:55.000Z</Time>
            <Position>
              <LatitudeDegrees>42.9844699613749980926513671875</LatitudeDegrees>
              <LongitudeDegrees>0.6296276114881038665771484375</LongitudeDegrees>
            </Position>
            <AltitudeMeters>469.20001220703125</AltitudeMeters>
            <DistanceMeters>56603.017637292</DistanceMeters>
          </Trackpoint>
          <Trackpoint>
            <Time>2019-05-08T11:28:02.000Z</Time>
            <Position>
              <LatitudeDegrees>42.9841522872447967529296875</LatitudeDegrees>
              <LongitudeDegrees>0.62964982353150844573974609375</LongitudeDegrees>
            </Position>
            <AltitudeMeters>469.399993896484375</AltitudeMeters>
            <DistanceMeters>56638.421688628</DistanceMeters>
          </Trackpoint>
          <Trackpoint>
            <Time>2019-05-08T11:28:09.000Z</Time>
            <Position>
              <LatitudeDegrees>42.9837997443974018096923828125</LatitudeDegrees>
              <LongitudeDegrees>0.629652254283428192138671875</LongitudeDegrees>
            </Position>
            <AltitudeMeters>469.600006103515625</AltitudeMeters>
            <DistanceMeters>56677.660818389</DistanceMeters>
          </Trackpoint>
          <Trackpoint>
            <Time>2019-05-08T11:28:16.000Z</Time>
            <Position>
              <LatitudeDegrees>42.98343135975301265716552734375</LatitudeDegrees>
              <LongitudeDegrees>0.62963356263935565948486328125</LongitudeDegrees>
            </Position>
            <AltitudeMeters>469.399993896484375</AltitudeMeters>
            <DistanceMeters>56718.690796348</DistanceMeters>
          </Trackpoint>
          <Trackpoint>
            <Time>2019-05-08T11:28:17.000Z</Time>
            <Position>
              <LatitudeDegrees>42.9833786375820636749267578125</LatitudeDegrees>
              <LongitudeDegrees>0.62962870113551616668701171875</LongitudeDegrees>
            </Position>
            <AltitudeMeters>469.399993896484375</AltitudeMeters>
            <DistanceMeters>56724.57171403</DistanceMeters>
          </Trackpoint>
          <Trackpoint>
            <Time>2019-05-08T11:28:19.000Z</Time>
            <Position>
              <LatitudeDegrees>42.98327243886888027191162109375</LatitudeDegrees>
              <LongitudeDegrees>0.6296257674694061279296875</LongitudeDegrees>
            </Position>
            <AltitudeMeters>469.20001220703125</AltitudeMeters>
            <DistanceMeters>56736.394045576</DistanceMeters>
          </Trackpoint>
          <Trackpoint>
            <Time>2019-05-08T11:28:22.000Z</Time>
            <Position>
              <LatitudeDegrees>42.98312743194401264190673828125</LatitudeDegrees>
              <LongitudeDegrees>0.62963456846773624420166015625</LongitudeDegrees>
            </Position>
            <AltitudeMeters>469.399993896484375</AltitudeMeters>
            <DistanceMeters>56752.549704942</DistanceMeters>
          </Trackpoint>
          <Trackpoint>
            <Time>2019-05-08T11:28:29.000Z</Time>
            <Position>
              <LatitudeDegrees>42.9827789962291717529296875</LatitudeDegrees>
              <LongitudeDegrees>0.62973313964903354644775390625</LongitudeDegrees>
            </Position>
            <AltitudeMeters>469.20001220703125</AltitudeMeters>
            <DistanceMeters>56792.153164103</DistanceMeters>
          </Trackpoint>
          <Trackpoint>
            <Time>2019-05-08T11:28:35.000Z</Time>
            <Position>
              <LatitudeDegrees>42.98247657716274261474609375</LatitudeDegrees>
              <LongitudeDegrees>0.62982089817523956298828125</LongitudeDegrees>
            </Position>
            <AltitudeMeters>469</AltitudeMeters>
            <DistanceMeters>56826.56320208</DistanceMeters>
          </Trackpoint>
          <Trackpoint>
            <Time>2019-05-08T11:28:39.000Z</Time>
            <Position>
              <LatitudeDegrees>42.98228345811367034912109375</LatitudeDegrees>
              <LongitudeDegrees>0.62987982295453548431396484375</LongitudeDegrees>
            </Position>
            <AltitudeMeters>469.399993896484375</AltitudeMeters>
            <DistanceMeters>56848.586860407</DistanceMeters>
          </Trackpoint>
          <Trackpoint>
            <Time>2019-05-08T11:28:41.000Z</Time>
            <Position>
              <LatitudeDegrees>42.98218748532235622406005859375</LatitudeDegrees>
              <LongitudeDegrees>0.62990765087306499481201171875</LongitudeDegrees>
            </Position>
            <AltitudeMeters>469.399993896484375</AltitudeMeters>
            <DistanceMeters>56859.50625276</DistanceMeters>
          </Trackpoint>
          <Trackpoint>
            <Time>2019-05-08T11:28:42.000Z</Time>
            <Position>
              <LatitudeDegrees>42.982140965759754180908203125</LatitudeDegrees>
              <LongitudeDegrees>0.6299127638339996337890625</LongitudeDegrees>
            </Position>
            <AltitudeMeters>469.399993896484375</AltitudeMeters>
            <DistanceMeters>56864.700660178</DistanceMeters>
          </Trackpoint>
          <Trackpoint>
            <Time>2019-05-08T11:28:43.000Z</Time>
            <Position>
              <LatitudeDegrees>42.9820958711206912994384765625</LatitudeDegrees>
              <LongitudeDegrees>0.62990379519760608673095703125</LongitudeDegrees>
            </Position>
            <AltitudeMeters>469.399993896484375</AltitudeMeters>
            <DistanceMeters>56869.773698504</DistanceMeters>
          </Trackpoint>
          <Trackpoint>
            <Time>2019-05-08T11:28:44.000Z</Time>
            <Position>
              <LatitudeDegrees>42.98206058330833911895751953125</LatitudeDegrees>
              <LongitudeDegrees>0.62987278215587139129638671875</LongitudeDegrees>
            </Position>
            <AltitudeMeters>469.399993896484375</AltitudeMeters>
            <DistanceMeters>56874.443563022</DistanceMeters>
          </Trackpoint>
          <Trackpoint>
            <Time>2019-05-08T11:28:45.000Z</Time>
            <Position>
              <LatitudeDegrees>42.9820321686565876007080078125</LatitudeDegrees>
              <LongitudeDegrees>0.6298250891268253326416015625</LongitudeDegrees>
            </Position>
            <AltitudeMeters>469.399993896484375</AltitudeMeters>
            <DistanceMeters>56879.452110951</DistanceMeters>
          </Trackpoint>
          <Trackpoint>
            <Time>2019-05-08T11:28:49.000Z</Time>
            <Position>
              <LatitudeDegrees>42.98193234018981456756591796875</LatitudeDegrees>
              <LongitudeDegrees>0.62960623763501644134521484375</LongitudeDegrees>
            </Position>
            <AltitudeMeters>469.399993896484375</AltitudeMeters>
            <DistanceMeters>56900.45236984</DistanceMeters>
          </Trackpoint>
          <Trackpoint>
            <Time>2019-05-08T11:28:50.000Z</Time>
            <Position>
              <LatitudeDegrees>42.98189562745392322540283203125</LatitudeDegrees>
              <LongitudeDegrees>0.6295855343341827392578125</LongitudeDegrees>
            </Position>
            <AltitudeMeters>469.20001220703125</AltitudeMeters>
            <DistanceMeters>56904.872899833</DistanceMeters>
          </Trackpoint>
          <Trackpoint>
            <Time>2019-05-08T11:28:51.000Z</Time>
            <Position>
              <LatitudeDegrees>42.98185388557612895965576171875</LatitudeDegrees>
              <LongitudeDegrees>0.62958444468677043914794921875</LongitudeDegrees>
            </Position>
            <AltitudeMeters>469.20001220703125</AltitudeMeters>
            <DistanceMeters>56909.519502116</DistanceMeters>
          </Trackpoint>
          <Trackpoint>
            <Time>2019-05-08T11:28:54.000Z</Time>
            <Position>
              <LatitudeDegrees>42.98171692527830600738525390625</LatitudeDegrees>
              <LongitudeDegrees>0.6296266056597232818603515625</LongitudeDegrees>
            </Position>
            <AltitudeMeters>469.399993896484375</AltitudeMeters>
            <DistanceMeters>56925.14496873</DistanceMeters>
          </Trackpoint>
          <Trackpoint>
            <Time>2019-05-08T11:28:55.000Z</Time>
            <Position>
              <LatitudeDegrees>42.98166948370635509490966796875</LatitudeDegrees>
              <LongitudeDegrees>0.6296403519809246063232421875</LongitudeDegrees>
            </Position>
            <AltitudeMeters>469.600006103515625</AltitudeMeters>
            <DistanceMeters>56930.543121811</DistanceMeters>
          </Trackpoint>
          <Trackpoint>
            <Time>2019-05-08T11:28:58.000Z</Time>
            <Position>
              <LatitudeDegrees>42.9815238900482654571533203125</LatitudeDegrees>
              <LongitudeDegrees>0.6296815909445285797119140625</LongitudeDegrees>
            </Position>
            <AltitudeMeters>470</AltitudeMeters>
            <DistanceMeters>56947.092236242</DistanceMeters>
          </Trackpoint>
          <Trackpoint>
            <Time>2019-05-08T11:28:59.000Z</Time>
            <Position>
              <LatitudeDegrees>42.98147385008633136749267578125</LatitudeDegrees>
              <LongitudeDegrees>0.6296869553625583648681640625</LongitudeDegrees>
            </Position>
            <AltitudeMeters>470</AltitudeMeters>
            <DistanceMeters>56952.678643334</DistanceMeters>
          </Trackpoint>
          <Trackpoint>
            <Time>2019-05-08T11:29:01.000Z</Time>
            <Position>
              <LatitudeDegrees>42.9813710041344165802001953125</LatitudeDegrees>
              <LongitudeDegrees>0.62969307415187358856201171875</LongitudeDegrees>
            </Position>
            <AltitudeMeters>469.79998779296875</AltitudeMeters>
            <DistanceMeters>56964.136359133</DistanceMeters>
          </Trackpoint>
          <Trackpoint>
            <Time>2019-05-08T11:29:02.000Z</Time>
            <Position>
              <LatitudeDegrees>42.981318868696689605712890625</LatitudeDegrees>
              <LongitudeDegrees>0.62969944439828395843505859375</LongitudeDegrees>
            </Position>
            <AltitudeMeters>469.79998779296875</AltitudeMeters>
            <DistanceMeters>56969.962512011</DistanceMeters>
          </Trackpoint>
          <Trackpoint>
            <Time>2019-05-08T11:29:11.000Z</Time>
            <Position>
              <LatitudeDegrees>42.98086767084896564483642578125</LatitudeDegrees>
              <LongitudeDegrees>0.62978477217257022857666015625</LongitudeDegrees>
            </Position>
            <AltitudeMeters>471.20001220703125</AltitudeMeters>
            <DistanceMeters>57020.660132452</DistanceMeters>
          </Trackpoint>
          <Trackpoint>
            <Time>2019-05-08T11:29:19.000Z</Time>
            <Position>
              <LatitudeDegrees>42.98048461787402629852294921875</LatitudeDegrees>
              <LongitudeDegrees>0.6298254244029521942138671875</LongitudeDegrees>
            </Position>
            <AltitudeMeters>471.20001220703125</AltitudeMeters>
            <DistanceMeters>57063.422787425</DistanceMeters>
          </Trackpoint>
          <Trackpoint>
            <Time>2019-05-08T11:29:21.000Z</Time>
            <Position>
              <LatitudeDegrees>42.98039007000625133514404296875</LatitudeDegrees>
              <LongitudeDegrees>0.62984009273350238800048828125</LongitudeDegrees>
            </Position>
            <AltitudeMeters>471.399993896484375</AltitudeMeters>
            <DistanceMeters>57074.013044714</DistanceMeters>
          </Trackpoint>
          <Trackpoint>
            <Time>2019-05-08T11:29:29.000Z</Time>
            <Position>
              <LatitudeDegrees>42.980009615421295166015625</LatitudeDegrees>
              <LongitudeDegrees>0.6298743747174739837646484375</LongitudeDegrees>
            </Position>
            <AltitudeMeters>471.600006103515625</AltitudeMeters>
            <DistanceMeters>57116.450319905</DistanceMeters>
          </Trackpoint>
          <Trackpoint>
            <Time>2019-05-08T11:29:30.000Z</Time>
            <Position>
              <LatitudeDegrees>42.97996091656386852264404296875</LatitudeDegrees>
              <LongitudeDegrees>0.629877559840679168701171875</LongitudeDegrees>
            </Position>
            <AltitudeMeters>471.600006103515625</AltitudeMeters>
            <DistanceMeters>57121.876004121</DistanceMeters>
          </Trackpoint>
          <Trackpoint>
            <Time>2019-05-08T11:29:39.000Z</Time>
            <Position>
              <LatitudeDegrees>42.9795122332870960235595703125</LatitudeDegrees>
              <LongitudeDegrees>0.62988602556288242340087890625</LongitudeDegrees>
            </Position>
            <AltitudeMeters>471.600006103515625</AltitudeMeters>
            <DistanceMeters>57171.820114248</DistanceMeters>
          </Trackpoint>
          <Trackpoint>
            <Time>2019-05-08T11:29:40.000Z</Time>
            <Position>
              <LatitudeDegrees>42.9794676415622234344482421875</LatitudeDegrees>
              <LongitudeDegrees>0.6298854388296604156494140625</LongitudeDegrees>
            </Position>
            <AltitudeMeters>471.600006103515625</AltitudeMeters>
            <DistanceMeters>57176.782474419</DistanceMeters>
          </Trackpoint>
          <Trackpoint>
            <Time>2019-05-08T11:29:41.000Z</Time>
            <Position>
              <LatitudeDegrees>42.97942481003701686859130859375</LatitudeDegrees>
              <LongitudeDegrees>0.629887282848358154296875</LongitudeDegrees>
            </Position>
            <AltitudeMeters>471.600006103515625</AltitudeMeters>
            <DistanceMeters>57181.551831038</DistanceMeters>
          </Trackpoint>
          <Trackpoint>
            <Time>2019-05-08T11:29:46.000Z</Time>
            <Position>
              <LatitudeDegrees>42.97922850586473941802978515625</LatitudeDegrees>
              <LongitudeDegrees>0.6299075670540332794189453125</LongitudeDegrees>
            </Position>
            <AltitudeMeters>471.399993896484375</AltitudeMeters>
            <DistanceMeters>57203.463268791</DistanceMeters>
          </Trackpoint>
          <Trackpoint>
            <Time>2019-05-08T11:29:50.000Z</Time>
            <Position>
              <LatitudeDegrees>42.97912649810314178466796875</LatitudeDegrees>
              <LongitudeDegrees>0.6300361454486846923828125</LongitudeDegrees>
            </Position>
            <AltitudeMeters>471.600006103515625</AltitudeMeters>
            <DistanceMeters>57218.907375731</DistanceMeters>
          </Trackpoint>
          <Trackpoint>
            <Time>2019-05-08T11:29:51.000Z</Time>
            <Position>
              <LatitudeDegrees>42.979108728468418121337890625</LatitudeDegrees>
              <LongitudeDegrees>0.6300862692296504974365234375</LongitudeDegrees>
            </Position>
            <AltitudeMeters>471.600006103515625</AltitudeMeters>
            <DistanceMeters>57223.442848599</DistanceMeters>
          </Trackpoint>
          <Trackpoint>
            <Time>2019-05-08T11:29:53.000Z</Time>
            <Position>
              <LatitudeDegrees>42.9790348000824451446533203125</LatitudeDegrees>
              <LongitudeDegrees>0.6301513127982616424560546875</LongitudeDegrees>
            </Position>
            <AltitudeMeters>471.600006103515625</AltitudeMeters>
            <DistanceMeters>57233.229216197</DistanceMeters>
          </Trackpoint>
          <Trackpoint>
            <Time>2019-05-08T11:29:56.000Z</Time>
            <Position>
              <LatitudeDegrees>42.97887763939797878265380859375</LatitudeDegrees>
              <LongitudeDegrees>0.630135722458362579345703125</LongitudeDegrees>
            </Position>
            <AltitudeMeters>471.79998779296875</AltitudeMeters>
            <DistanceMeters>57250.767245272</DistanceMeters>
          </Trackpoint>
          <Trackpoint>
            <Time>2019-05-08T11:30:04.000Z</Time>
            <Position>
              <LatitudeDegrees>42.978440187871456146240234375</LatitudeDegrees>
              <LongitudeDegrees>0.6301228143274784088134765625</LongitudeDegrees>
            </Position>
            <AltitudeMeters>472</AltitudeMeters>
            <DistanceMeters>57299.467764242</DistanceMeters>
          </Trackpoint>
          <Trackpoint>
            <Time>2019-05-08T11:30:11.000Z</Time>
            <Position>
              <LatitudeDegrees>42.97805520705878734588623046875</LatitudeDegrees>
              <LongitudeDegrees>0.6301513127982616424560546875</LongitudeDegrees>
            </Position>
            <AltitudeMeters>472.20001220703125</AltitudeMeters>
            <DistanceMeters>57342.379665256</DistanceMeters>
          </Trackpoint>
          <Trackpoint>
            <Time>2019-05-08T11:30:14.000Z</Time>
            <Position>
              <LatitudeDegrees>42.97788253985345363616943359375</LatitudeDegrees>
              <LongitudeDegrees>0.6301489658653736114501953125</LongitudeDegrees>
            </Position>
            <AltitudeMeters>472.399993896484375</AltitudeMeters>
            <DistanceMeters>57361.598568629</DistanceMeters>
          </Trackpoint>
          <Trackpoint>
            <Time>2019-05-08T11:30:18.000Z</Time>
            <Position>
              <LatitudeDegrees>42.9776561446487903594970703125</LatitudeDegrees>
              <LongitudeDegrees>0.63017738051712512969970703125</LongitudeDegrees>
            </Position>
            <AltitudeMeters>472.399993896484375</AltitudeMeters>
            <DistanceMeters>57386.902810576</DistanceMeters>
          </Trackpoint>
          <Trackpoint>
            <Time>2019-05-08T11:30:20.000Z</Time>
            <Position>
              <LatitudeDegrees>42.97755229286849498748779296875</LatitudeDegrees>
              <LongitudeDegrees>0.63020537607371807098388671875</LongitudeDegrees>
            </Position>
            <AltitudeMeters>472.600006103515625</AltitudeMeters>
            <DistanceMeters>57398.684207141</DistanceMeters>
          </Trackpoint>
          <Trackpoint>
            <Time>2019-05-08T11:30:21.000Z</Time>
            <Position>
              <LatitudeDegrees>42.977507114410400390625</LatitudeDegrees>
              <LongitudeDegrees>0.630208812654018402099609375</LongitudeDegrees>
            </Position>
            <AltitudeMeters>472.399993896484375</AltitudeMeters>
            <DistanceMeters>57403.721519401</DistanceMeters>
          </Trackpoint>
          <Trackpoint>
            <Time>2019-05-08T11:30:22.000Z</Time>
            <Position>
              <LatitudeDegrees>42.977470569312572479248046875</LatitudeDegrees>
              <LongitudeDegrees>0.63020118512213230133056640625</LongitudeDegrees>
            </Position>
            <AltitudeMeters>472.600006103515625</AltitudeMeters>
            <DistanceMeters>57407.837393963</DistanceMeters>
          </Trackpoint>
          <Trackpoint>
            <Time>2019-05-08T11:30:23.000Z</Time>
            <Position>
              <LatitudeDegrees>42.97744282521307468414306640625</LatitudeDegrees>
              <LongitudeDegrees>0.6301804818212985992431640625</LongitudeDegrees>
            </Position>
            <AltitudeMeters>472.79998779296875</AltitudeMeters>
            <DistanceMeters>57411.355949747</DistanceMeters>
          </Trackpoint>
          <Trackpoint>
            <Time>2019-05-08T11:30:25.000Z</Time>
            <Position>
              <LatitudeDegrees>42.9774127341806888580322265625</LatitudeDegrees>
              <LongitudeDegrees>0.63013111241161823272705078125</LongitudeDegrees>
            </Position>
            <AltitudeMeters>472.79998779296875</AltitudeMeters>
            <DistanceMeters>57416.588462697</DistanceMeters>
          </Trackpoint>
          <Trackpoint>
            <Time>2019-05-08T11:30:27.000Z</Time>
            <Position>
              <LatitudeDegrees>42.97740980051457881927490234375</LatitudeDegrees>
              <LongitudeDegrees>0.63012306578457355499267578125</LongitudeDegrees>
            </Position>
            <AltitudeMeters>472.79998779296875</AltitudeMeters>
            <DistanceMeters>57417.324536462</DistanceMeters>
          </Trackpoint>
          <Trackpoint>
            <Time>2019-05-08T11:32:21.000Z</Time>
            <Position>
              <LatitudeDegrees>42.97740762121975421905517578125</LatitudeDegrees>
              <LongitudeDegrees>0.6300752051174640655517578125</LongitudeDegrees>
            </Position>
            <AltitudeMeters>473.20001220703125</AltitudeMeters>
            <DistanceMeters>57421.22873536</DistanceMeters>
          </Trackpoint>
          <Trackpoint>
            <Time>2019-05-08T11:32:22.000Z</Time>
            <Position>
              <LatitudeDegrees>42.97740778885781764984130859375</LatitudeDegrees>
              <LongitudeDegrees>0.63004888594150543212890625</LongitudeDegrees>
            </Position>
            <AltitudeMeters>473.399993896484375</AltitudeMeters>
            <DistanceMeters>57423.370528729</DistanceMeters>
          </Trackpoint>
          <Trackpoint>
            <Time>2019-05-08T11:32:25.000Z</Time>
            <Position>
              <LatitudeDegrees>42.9774053581058979034423828125</LatitudeDegrees>
              <LongitudeDegrees>0.62993614934384822845458984375</LongitudeDegrees>
            </Position>
            <AltitudeMeters>473.20001220703125</AltitudeMeters>
            <DistanceMeters>57432.55475129</DistanceMeters>
          </Trackpoint>
          <Trackpoint>
            <Time>2019-05-08T11:32:28.000Z</Time>
            <Position>
              <LatitudeDegrees>42.9774050228297710418701171875</LatitudeDegrees>
              <LongitudeDegrees>0.6298210658133029937744140625</LongitudeDegrees>
            </Position>
            <AltitudeMeters>473</AltitudeMeters>
            <DistanceMeters>57441.92633192</DistanceMeters>
          </Trackpoint>
          <Trackpoint>
            <Time>2019-05-08T11:32:29.000Z</Time>
            <Position>
              <LatitudeDegrees>42.97740644775331020355224609375</LatitudeDegrees>
              <LongitudeDegrees>0.62977664172649383544921875</LongitudeDegrees>
            </Position>
            <AltitudeMeters>473</AltitudeMeters>
            <DistanceMeters>57445.548582749</DistanceMeters>
          </Trackpoint>
          <Trackpoint>
            <Time>2019-05-08T11:32:32.000Z</Time>
            <Position>
              <LatitudeDegrees>42.9773999936878681182861328125</LatitudeDegrees>
              <LongitudeDegrees>0.62962249852716922760009765625</LongitudeDegrees>
            </Position>
            <AltitudeMeters>472.79998779296875</AltitudeMeters>
            <DistanceMeters>57458.121590275</DistanceMeters>
          </Trackpoint>
          <Trackpoint>
            <Time>2019-05-08T11:32:33.000Z</Time>
            <Position>
              <LatitudeDegrees>42.9773993231356143951416015625</LatitudeDegrees>
              <LongitudeDegrees>0.62956566922366619110107421875</LongitudeDegrees>
            </Position>
            <AltitudeMeters>473</AltitudeMeters>
            <DistanceMeters>57462.749693701</DistanceMeters>
          </Trackpoint>
          <Trackpoint>
            <Time>2019-05-08T11:32:34.000Z</Time>
            <Position>
              <LatitudeDegrees>42.97740141861140727996826171875</LatitudeDegrees>
              <LongitudeDegrees>0.62950666062533855438232421875</LongitudeDegrees>
            </Position>
            <AltitudeMeters>472.79998779296875</AltitudeMeters>
            <DistanceMeters>57467.561462191</DistanceMeters>
          </Trackpoint>
          <Trackpoint>
            <Time>2019-05-08T11:32:39.000Z</Time>
            <Position>
              <LatitudeDegrees>42.97740007750689983367919921875</LatitudeDegrees>
              <LongitudeDegrees>0.629216730594635009765625</LongitudeDegrees>
            </Position>
            <AltitudeMeters>472.20001220703125</AltitudeMeters>
            <DistanceMeters>57491.171346115</DistanceMeters>
          </Trackpoint>
          <Trackpoint>
            <Time>2019-05-08T11:32:42.000Z</Time>
            <Position>
              <LatitudeDegrees>42.97739840112626552581787109375</LatitudeDegrees>
              <LongitudeDegrees>0.629056133329868316650390625</LongitudeDegrees>
            </Position>
            <AltitudeMeters>472.20001220703125</AltitudeMeters>
            <DistanceMeters>57504.250557412</DistanceMeters>
          </Trackpoint>
          <Trackpoint>
            <Time>2019-05-08T11:32:49.000Z</Time>
            <Position>
              <LatitudeDegrees>42.97739068977534770965576171875</LatitudeDegrees>
              <LongitudeDegrees>0.62868255190551280975341796875</LongitudeDegrees>
            </Position>
            <AltitudeMeters>471.79998779296875</AltitudeMeters>
            <DistanceMeters>57534.683743583</DistanceMeters>
          </Trackpoint>
          <Trackpoint>
            <Time>2019-05-08T11:32:51.000Z</Time>
            <Position>
              <LatitudeDegrees>42.97739203087985515594482421875</LatitudeDegrees>
              <LongitudeDegrees>0.6285664625465869903564453125</LongitudeDegrees>
            </Position>
            <AltitudeMeters>471.600006103515625</AltitudeMeters>
            <DistanceMeters>57544.137827179</DistanceMeters>
          </Trackpoint>
          <Trackpoint>
            <Time>2019-05-08T11:32:52.000Z</Time>
            <Position>
              <LatitudeDegrees>42.9773936234414577484130859375</LatitudeDegrees>
              <LongitudeDegrees>0.62850854359567165374755859375</LongitudeDegrees>
            </Position>
            <AltitudeMeters>471.79998779296875</AltitudeMeters>
            <DistanceMeters>57548.857699909</DistanceMeters>
          </Trackpoint>
          <Trackpoint>
            <Time>2019-05-08T11:32:54.000Z</Time>
            <Position>
              <LatitudeDegrees>42.977399490773677825927734375</LatitudeDegrees>
              <LongitudeDegrees>0.6283911131322383880615234375</LongitudeDegrees>
            </Position>
            <AltitudeMeters>471.600006103515625</AltitudeMeters>
            <DistanceMeters>57558.442688054</DistanceMeters>
          </Trackpoint>
          <Trackpoint>
            <Time>2019-05-08T11:32:58.000Z</Time>
            <Position>
              <LatitudeDegrees>42.97741533257067203521728515625</LatitudeDegrees>
              <LongitudeDegrees>0.62816689722239971160888671875</LongitudeDegrees>
            </Position>
            <AltitudeMeters>471.600006103515625</AltitudeMeters>
            <DistanceMeters>57576.785797888</DistanceMeters>
          </Trackpoint>
          <Trackpoint>
            <Time>2019-05-08T11:33:00.000Z</Time>
            <Position>
              <LatitudeDegrees>42.9774197749793529510498046875</LatitudeDegrees>
              <LongitudeDegrees>0.6280605308711528778076171875</LongitudeDegrees>
            </Position>
            <AltitudeMeters>471.399993896484375</AltitudeMeters>
            <DistanceMeters>57585.461898236</DistanceMeters>
          </Trackpoint>
          <Trackpoint>
            <Time>2019-05-08T11:33:03.000Z</Time>
            <Position>
              <LatitudeDegrees>42.9774341918528079986572265625</LatitudeDegrees>
              <LongitudeDegrees>0.62791476957499980926513671875</LongitudeDegrees>
            </Position>
            <AltitudeMeters>471.399993896484375</AltitudeMeters>
            <DistanceMeters>57597.439411519</DistanceMeters>
          </Trackpoint>
          <Trackpoint>
            <Time>2019-05-08T11:33:07.000Z</Time>
            <Position>
              <LatitudeDegrees>42.97745891846716403961181640625</LatitudeDegrees>
              <LongitudeDegrees>0.627718381583690643310546875</LongitudeDegrees>
            </Position>
            <AltitudeMeters>471.79998779296875</AltitudeMeters>
            <DistanceMeters>57613.667014215</DistanceMeters>
          </Trackpoint>
          <Trackpoint>
            <Time>2019-05-08T11:33:12.000Z</Time>
            <Position>
              <LatitudeDegrees>42.97755547799170017242431640625</LatitudeDegrees>
              <LongitudeDegrees>0.62747404910624027252197265625</LongitudeDegrees>
            </Position>
            <AltitudeMeters>471.79998779296875</AltitudeMeters>
            <DistanceMeters>57636.280377498</DistanceMeters>
          </Trackpoint>
          <Trackpoint>
            <Time>2019-05-08T11:33:13.000Z</Time>
            <Position>
              <LatitudeDegrees>42.9775833897292613983154296875</LatitudeDegrees>
              <LongitudeDegrees>0.627425014972686767578125</LongitudeDegrees>
            </Position>
            <AltitudeMeters>471.79998779296875</AltitudeMeters>
            <DistanceMeters>57641.339155675</DistanceMeters>
          </Trackpoint>
          <Trackpoint>
            <Time>2019-05-08T11:33:15.000Z</Time>
            <Position>
              <LatitudeDegrees>42.97765103168785572052001953125</LatitudeDegrees>
              <LongitudeDegrees>0.62735720537602901458740234375</LongitudeDegrees>
            </Position>
            <AltitudeMeters>472</AltitudeMeters>
            <DistanceMeters>57650.675500137</DistanceMeters>
          </Trackpoint>
          <Trackpoint>
            <Time>2019-05-08T11:33:16.000Z</Time>
            <Position>
              <LatitudeDegrees>42.977684475481510162353515625</LatitudeDegrees>
              <LongitudeDegrees>0.62733423896133899688720703125</LongitudeDegrees>
            </Position>
            <AltitudeMeters>472</AltitudeMeters>
            <DistanceMeters>57654.842613886</DistanceMeters>
          </Trackpoint>
          <Trackpoint>
            <Time>2019-05-08T11:33:20.000Z</Time>
            <Position>
              <LatitudeDegrees>42.9778207652270793914794921875</LatitudeDegrees>
              <LongitudeDegrees>0.627262406051158905029296875</LongitudeDegrees>
            </Position>
            <AltitudeMeters>471.79998779296875</AltitudeMeters>
            <DistanceMeters>57671.100793294</DistanceMeters>
          </Trackpoint>
          <Trackpoint>
            <Time>2019-05-08T11:33:23.000Z</Time>
            <Position>
              <LatitudeDegrees>42.9779027402400970458984375</LatitudeDegrees>
              <LongitudeDegrees>0.627160482108592987060546875</LongitudeDegrees>
            </Position>
            <AltitudeMeters>472</AltitudeMeters>
            <DistanceMeters>57683.435246178</DistanceMeters>
          </Trackpoint>
          <Trackpoint>
            <Time>2019-05-08T11:33:24.000Z</Time>
            <Position>
              <LatitudeDegrees>42.97790877521038055419921875</LatitudeDegrees>
              <LongitudeDegrees>0.62710692174732685089111328125</LongitudeDegrees>
            </Position>
            <AltitudeMeters>472</AltitudeMeters>
            <DistanceMeters>57687.848620724</DistanceMeters>
          </Trackpoint>
          <Trackpoint>
            <Time>2019-05-08T11:33:26.000Z</Time>
            <Position>
              <LatitudeDegrees>42.97788329422473907470703125</LatitudeDegrees>
              <LongitudeDegrees>0.62700835056602954864501953125</LongitudeDegrees>
            </Position>
            <AltitudeMeters>472.20001220703125</AltitudeMeters>
            <DistanceMeters>57696.361868844</DistanceMeters>
          </Trackpoint>
          <Trackpoint>
            <Time>2019-05-08T11:33:28.000Z</Time>
            <Position>
              <LatitudeDegrees>42.977848760783672332763671875</LatitudeDegrees>
              <LongitudeDegrees>0.6269390322268009185791015625</LongitudeDegrees>
            </Position>
            <AltitudeMeters>472.399993896484375</AltitudeMeters>
            <DistanceMeters>57703.190581369</DistanceMeters>
          </Trackpoint>
          <Trackpoint>
            <Time>2019-05-08T11:33:31.000Z</Time>
            <Position>
              <LatitudeDegrees>42.9778088629245758056640625</LatitudeDegrees>
              <LongitudeDegrees>0.626842975616455078125</LongitudeDegrees>
            </Position>
            <AltitudeMeters>473.399993896484375</AltitudeMeters>
            <DistanceMeters>57712.185049383</DistanceMeters>
          </Trackpoint>
          <Trackpoint>
            <Time>2019-05-08T11:33:34.000Z</Time>
            <Position>
              <LatitudeDegrees>42.9777506925165653228759765625</LatitudeDegrees>
              <LongitudeDegrees>0.6267316639423370361328125</LongitudeDegrees>
            </Position>
            <AltitudeMeters>475.20001220703125</AltitudeMeters>
            <DistanceMeters>57723.323866661</DistanceMeters>
          </Trackpoint>
          <Trackpoint>
            <Time>2019-05-08T11:33:36.000Z</Time>
            <Position>
              <LatitudeDegrees>42.9777020774781703948974609375</LatitudeDegrees>
              <LongitudeDegrees>0.62666921876370906829833984375</LongitudeDegrees>
            </Position>
            <AltitudeMeters>476.399993896484375</AltitudeMeters>
            <DistanceMeters>57730.749339492</DistanceMeters>
          </Trackpoint>
          <Trackpoint>
            <Time>2019-05-08T11:33:41.000Z</Time>
            <Position>
              <LatitudeDegrees>42.977588586509227752685546875</LatitudeDegrees>
              <LongitudeDegrees>0.626532174646854400634765625</LongitudeDegrees>
            </Position>
            <AltitudeMeters>477</AltitudeMeters>
            <DistanceMeters>57747.60446438</DistanceMeters>
          </Trackpoint>
          <Trackpoint>
            <Time>2019-05-08T11:33:42.000Z</Time>
            <Position>
              <LatitudeDegrees>42.97756218351423740386962890625</LatitudeDegrees>
              <LongitudeDegrees>0.62650677748024463653564453125</LongitudeDegrees>
            </Position>
            <AltitudeMeters>477.20001220703125</AltitudeMeters>
            <DistanceMeters>57751.199188207</DistanceMeters>
          </Trackpoint>
          <Trackpoint>
            <Time>2019-05-08T11:33:49.000Z</Time>
            <Position>
              <LatitudeDegrees>42.977335453033447265625</LatitudeDegrees>
              <LongitudeDegrees>0.6263320147991180419921875</LongitudeDegrees>
            </Position>
            <AltitudeMeters>477.20001220703125</AltitudeMeters>
            <DistanceMeters>57780.170961809</DistanceMeters>
          </Trackpoint>
          <Trackpoint>
            <Time>2019-05-08T11:33:56.000Z</Time>
            <Position>
              <LatitudeDegrees>42.97709983773529529571533203125</LatitudeDegrees>
              <LongitudeDegrees>0.62613830901682376861572265625</LongitudeDegrees>
            </Position>
            <AltitudeMeters>477</AltitudeMeters>
            <DistanceMeters>57810.773695153</DistanceMeters>
          </Trackpoint>
          <Trackpoint>
            <Time>2019-05-08T11:33:57.000Z</Time>
            <Position>
              <LatitudeDegrees>42.97706522047519683837890625</LatitudeDegrees>
              <LongitudeDegrees>0.62611735425889492034912109375</LongitudeDegrees>
            </Position>
            <AltitudeMeters>477.20001220703125</AltitudeMeters>
            <DistanceMeters>57814.987141521</DistanceMeters>
          </Trackpoint>
          <Trackpoint>
            <Time>2019-05-08T11:33:59.000Z</Time>
            <Position>
              <LatitudeDegrees>42.9769993387162685394287109375</LatitudeDegrees>
              <LongitudeDegrees>0.62608458101749420166015625</LongitudeDegrees>
            </Position>
            <AltitudeMeters>477</AltitudeMeters>
            <DistanceMeters>57822.790912118</DistanceMeters>
          </Trackpoint>
          <Trackpoint>
            <Time>2019-05-08T11:34:02.000Z</Time>
            <Position>
              <LatitudeDegrees>42.97691367566585540771484375</LatitudeDegrees>
              <LongitudeDegrees>0.6260334514081478118896484375</LongitudeDegrees>
            </Position>
            <AltitudeMeters>477</AltitudeMeters>
            <DistanceMeters>57833.195360994</DistanceMeters>
          </Trackpoint>
          <Trackpoint>
            <Time>2019-05-08T11:34:03.000Z</Time>
            <Position>
              <LatitudeDegrees>42.97688961960375308990478515625</LatitudeDegrees>
              <LongitudeDegrees>0.62601928599178791046142578125</LongitudeDegrees>
            </Position>
            <AltitudeMeters>477.20001220703125</AltitudeMeters>
            <DistanceMeters>57836.108824887</DistanceMeters>
          </Trackpoint>
          <Trackpoint>
            <Time>2019-05-08T11:34:06.000Z</Time>
            <Position>
              <LatitudeDegrees>42.97686950303614139556884765625</LatitudeDegrees>
              <LongitudeDegrees>0.6260056234896183013916015625</LongitudeDegrees>
            </Position>
            <AltitudeMeters>477.79998779296875</AltitudeMeters>
            <DistanceMeters>57838.608587456</DistanceMeters>
          </Trackpoint>
          <Trackpoint>
            <Time>2019-05-08T11:34:24.000Z</Time>
            <Position>
              <LatitudeDegrees>42.97682926990091800689697265625</LatitudeDegrees>
              <LongitudeDegrees>0.625977627933025360107421875</LongitudeDegrees>
            </Position>
            <AltitudeMeters>477.79998779296875</AltitudeMeters>
            <DistanceMeters>57843.633335582</DistanceMeters>
          </Trackpoint>
          <Trackpoint>
            <Time>2019-05-08T11:34:26.000Z</Time>
            <Position>
              <LatitudeDegrees>42.97677562572062015533447265625</LatitudeDegrees>
              <LongitudeDegrees>0.625958181917667388916015625</LongitudeDegrees>
            </Position>
            <AltitudeMeters>477.600006103515625</AltitudeMeters>
            <DistanceMeters>57849.810802948</DistanceMeters>
          </Trackpoint>
          <Trackpoint>
            <Time>2019-05-08T11:34:30.000Z</Time>
            <Position>
              <LatitudeDegrees>42.97663615085184574127197265625</LatitudeDegrees>
              <LongitudeDegrees>0.62589774839580059051513671875</LongitudeDegrees>
            </Position>
            <AltitudeMeters>477.79998779296875</AltitudeMeters>
            <DistanceMeters>57866.09617507</DistanceMeters>
          </Trackpoint>
          <Trackpoint>
            <Time>2019-05-08T11:34:32.000Z</Time>
            <Position>
              <LatitudeDegrees>42.976558618247509002685546875</LatitudeDegrees>
              <LongitudeDegrees>0.625875033438205718994140625</LongitudeDegrees>
            </Position>
            <AltitudeMeters>477.79998779296875</AltitudeMeters>
            <DistanceMeters>57874.921901069</DistanceMeters>
          </Trackpoint>
          <Trackpoint>
            <Time>2019-05-08T11:34:38.000Z</Time>
            <Position>
              <LatitudeDegrees>42.97628176398575305938720703125</LatitudeDegrees>
              <LongitudeDegrees>0.6258706748485565185546875</LongitudeDegrees>
            </Position>
            <AltitudeMeters>477.79998779296875</AltitudeMeters>
            <DistanceMeters>57905.7384067</DistanceMeters>
          </Trackpoint>
          <Trackpoint>
            <Time>2019-05-08T11:34:41.000Z</Time>
            <Position>
              <LatitudeDegrees>42.9761323146522045135498046875</LatitudeDegrees>
              <LongitudeDegrees>0.625873021781444549560546875</LongitudeDegrees>
            </Position>
            <AltitudeMeters>477.79998779296875</AltitudeMeters>
            <DistanceMeters>57922.373239508</DistanceMeters>
          </Trackpoint>
          <Trackpoint>
            <Time>2019-05-08T11:34:44.000Z</Time>
            <Position>
              <LatitudeDegrees>42.97596861608326435089111328125</LatitudeDegrees>
              <LongitudeDegrees>0.6258882768452167510986328125</LongitudeDegrees>
            </Position>
            <AltitudeMeters>477.79998779296875</AltitudeMeters>
            <DistanceMeters>57940.63568303</DistanceMeters>
          </Trackpoint>
          <Trackpoint>
            <Time>2019-05-08T11:34:50.000Z</Time>
            <Position>
              <LatitudeDegrees>42.97561942599713802337646484375</LatitudeDegrees>
              <LongitudeDegrees>0.625911913812160491943359375</LongitudeDegrees>
            </Position>
            <AltitudeMeters>477.399993896484375</AltitudeMeters>
            <DistanceMeters>57979.548861501</DistanceMeters>
          </Trackpoint>
          <Trackpoint>
            <Time>2019-05-08T11:34:53.000Z</Time>
            <Position>
              <LatitudeDegrees>42.97544022090733051300048828125</LatitudeDegrees>
              <LongitudeDegrees>0.62593312002718448638916015625</LongitudeDegrees>
            </Position>
            <AltitudeMeters>477.399993896484375</AltitudeMeters>
            <DistanceMeters>57999.569301134</DistanceMeters>
          </Trackpoint>
          <Trackpoint>
            <Time>2019-05-08T11:35:02.000Z</Time>
            <Position>
              <LatitudeDegrees>42.9748733527958393096923828125</LatitudeDegrees>
              <LongitudeDegrees>0.62596857547760009765625</LongitudeDegrees>
            </Position>
            <AltitudeMeters>477.399993896484375</AltitudeMeters>
            <DistanceMeters>58062.728833827</DistanceMeters>
          </Trackpoint>
          <Trackpoint>
            <Time>2019-05-08T11:35:09.000Z</Time>
            <Position>
              <LatitudeDegrees>42.97440203838050365447998046875</LatitudeDegrees>
              <LongitudeDegrees>0.62600788660347461700439453125</LongitudeDegrees>
            </Position>
            <AltitudeMeters>477.399993896484375</AltitudeMeters>
            <DistanceMeters>58115.284706788</DistanceMeters>
          </Trackpoint>
          <Trackpoint>
            <Time>2019-05-08T11:35:12.000Z</Time>
            <Position>
              <LatitudeDegrees>42.9741994477808475494384765625</LatitudeDegrees>
              <LongitudeDegrees>0.6260217167437076568603515625</LongitudeDegrees>
            </Position>
            <AltitudeMeters>477.600006103515625</AltitudeMeters>
            <DistanceMeters>58137.861502286</DistanceMeters>
          </Trackpoint>
          <Trackpoint>
            <Time>2019-05-08T11:35:21.000Z</Time>
            <Position>
              <LatitudeDegrees>42.9736164025962352752685546875</LatitudeDegrees>
              <LongitudeDegrees>0.6260720081627368927001953125</LongitudeDegrees>
            </Position>
            <AltitudeMeters>477.600006103515625</AltitudeMeters>
            <DistanceMeters>58202.884707699</DistanceMeters>
          </Trackpoint>
          <Trackpoint>
            <Time>2019-05-08T11:35:29.000Z</Time>
            <Position>
              <LatitudeDegrees>42.9730933718383312225341796875</LatitudeDegrees>
              <LongitudeDegrees>0.62610696069896221160888671875</LongitudeDegrees>
            </Position>
            <AltitudeMeters>478</AltitudeMeters>
            <DistanceMeters>58261.168551064</DistanceMeters>
          </Trackpoint>
          <Trackpoint>
            <Time>2019-05-08T11:35:31.000Z</Time>
            <Position>
              <LatitudeDegrees>42.972964458167552947998046875</LatitudeDegrees>
              <LongitudeDegrees>0.62611953355371952056884765625</LongitudeDegrees>
            </Position>
            <AltitudeMeters>478.399993896484375</AltitudeMeters>
            <DistanceMeters>58275.553097342</DistanceMeters>
          </Trackpoint>
          <Trackpoint>
            <Time>2019-05-08T11:35:33.000Z</Time>
            <Position>
              <LatitudeDegrees>42.97283411957323551177978515625</LatitudeDegrees>
              <LongitudeDegrees>0.626133866608142852783203125</LongitudeDegrees>
            </Position>
            <AltitudeMeters>478.399993896484375</AltitudeMeters>
            <DistanceMeters>58290.106772928</DistanceMeters>
          </Trackpoint>
          <Trackpoint>
            <Time>2019-05-08T11:35:34.000Z</Time>
            <Position>
              <LatitudeDegrees>42.97276874072849750518798828125</LatitudeDegrees>
              <LongitudeDegrees>0.62614870257675647735595703125</LongitudeDegrees>
            </Position>
            <AltitudeMeters>478.600006103515625</AltitudeMeters>
            <DistanceMeters>58297.483441597</DistanceMeters>
          </Trackpoint>
          <Trackpoint>
            <Time>2019-05-08T11:35:37.000Z</Time>
            <Position>
              <LatitudeDegrees>42.9725783877074718475341796875</LatitudeDegrees>
              <LongitudeDegrees>0.62621978111565113067626953125</LongitudeDegrees>
            </Position>
            <AltitudeMeters>478.600006103515625</AltitudeMeters>
            <DistanceMeters>58319.44674471</DistanceMeters>
          </Trackpoint>
          <Trackpoint>
            <Time>2019-05-08T11:35:39.000Z</Time>
            <Position>
              <LatitudeDegrees>42.972458191215991973876953125</LatitudeDegrees>
              <LongitudeDegrees>0.6262882612645626068115234375</LongitudeDegrees>
            </Position>
            <AltitudeMeters>479</AltitudeMeters>
            <DistanceMeters>58333.940733064</DistanceMeters>
          </Trackpoint>
          <Trackpoint>
            <Time>2019-05-08T11:35:43.000Z</Time>
            <Position>
              <LatitudeDegrees>42.97221846878528594970703125</LatitudeDegrees>
              <LongitudeDegrees>0.626456737518310546875</LongitudeDegrees>
            </Position>
            <AltitudeMeters>479.399993896484375</AltitudeMeters>
            <DistanceMeters>58363.943452446</DistanceMeters>
          </Trackpoint>
          <Trackpoint>
            <Time>2019-05-08T11:35:44.000Z</Time>
            <Position>
              <LatitudeDegrees>42.9721596278250217437744140625</LatitudeDegrees>
              <LongitudeDegrees>0.62650728039443492889404296875</LongitudeDegrees>
            </Position>
            <AltitudeMeters>479.399993896484375</AltitudeMeters>
            <DistanceMeters>58371.678650344</DistanceMeters>
          </Trackpoint>
          <Trackpoint>
            <Time>2019-05-08T11:35:51.000Z</Time>
            <Position>
              <LatitudeDegrees>42.97174095176160335540771484375</LatitudeDegrees>
              <LongitudeDegrees>0.6268537044525146484375</LongitudeDegrees>
            </Position>
            <AltitudeMeters>480</AltitudeMeters>
            <DistanceMeters>58426.152833502</DistanceMeters>
          </Trackpoint>
          <Trackpoint>
            <Time>2019-05-08T11:35:55.000Z</Time>
            <Position>
              <LatitudeDegrees>42.9715190827846527099609375</LatitudeDegrees>
              <LongitudeDegrees>0.62703609466552734375</LongitudeDegrees>
            </Position>
            <AltitudeMeters>480.20001220703125</AltitudeMeters>
            <DistanceMeters>58454.970223219</DistanceMeters>
          </Trackpoint>
          <Trackpoint>
            <Time>2019-05-08T11:35:59.000Z</Time>
            <Position>
              <LatitudeDegrees>42.97128614969551563262939453125</LatitudeDegrees>
              <LongitudeDegrees>0.62722410075366497039794921875</LongitudeDegrees>
            </Position>
            <AltitudeMeters>480.399993896484375</AltitudeMeters>
            <DistanceMeters>58485.079749198</DistanceMeters>
          </Trackpoint>
          <Trackpoint>
            <Time>2019-05-08T11:36:03.000Z</Time>
            <Position>
              <LatitudeDegrees>42.971050031483173370361328125</LatitudeDegrees>
              <LongitudeDegrees>0.62742509879171848297119140625</LongitudeDegrees>
            </Position>
            <AltitudeMeters>480.79998779296875</AltitudeMeters>
            <DistanceMeters>58516.04125522</DistanceMeters>
          </Trackpoint>
          <Trackpoint>
            <Time>2019-05-08T11:36:06.000Z</Time>
            <Position>
              <LatitudeDegrees>42.970875687897205352783203125</LatitudeDegrees>
              <LongitudeDegrees>0.627567507326602935791015625</LongitudeDegrees>
            </Position>
            <AltitudeMeters>480.79998779296875</AltitudeMeters>
            <DistanceMeters>58538.647629238</DistanceMeters>
          </Trackpoint>
          <Trackpoint>
            <Time>2019-05-08T11:36:07.000Z</Time>
            <Position>
              <LatitudeDegrees>42.9708171822130680084228515625</LatitudeDegrees>
              <LongitudeDegrees>0.62761201523244380950927734375</LongitudeDegrees>
            </Position>
            <AltitudeMeters>480.600006103515625</AltitudeMeters>
            <DistanceMeters>58546.100413967</DistanceMeters>
          </Trackpoint>
          <Trackpoint>
            <Time>2019-05-08T11:36:08.000Z</Time>
            <Position>
              <LatitudeDegrees>42.970757670700550079345703125</LatitudeDegrees>
              <LongitudeDegrees>0.62765543349087238311767578125</LongitudeDegrees>
            </Position>
            <AltitudeMeters>480.79998779296875</AltitudeMeters>
            <DistanceMeters>58553.608727175</DistanceMeters>
          </Trackpoint>
          <Trackpoint>
            <Time>2019-05-08T11:36:14.000Z</Time>
            <Position>
              <LatitudeDegrees>42.9703739471733570098876953125</LatitudeDegrees>
              <LongitudeDegrees>0.62786196358501911163330078125</LongitudeDegrees>
            </Position>
            <AltitudeMeters>480</AltitudeMeters>
            <DistanceMeters>58599.510466538</DistanceMeters>
          </Trackpoint>
          <Trackpoint>
            <Time>2019-05-08T11:36:15.000Z</Time>
            <Position>
              <LatitudeDegrees>42.97030873596668243408203125</LatitudeDegrees>
              <LongitudeDegrees>0.62789079733192920684814453125</LongitudeDegrees>
            </Position>
            <AltitudeMeters>480</AltitudeMeters>
            <DistanceMeters>58607.139283136</DistanceMeters>
          </Trackpoint>
          <Trackpoint>
            <Time>2019-05-08T11:36:23.000Z</Time>
            <Position>
              <LatitudeDegrees>42.96979115344583988189697265625</LatitudeDegrees>
              <LongitudeDegrees>0.62811979092657566070556640625</LongitudeDegrees>
            </Position>
            <AltitudeMeters>479.600006103515625</AltitudeMeters>
            <DistanceMeters>58667.690764856</DistanceMeters>
          </Trackpoint>
          <Trackpoint>
            <Time>2019-05-08T11:36:24.000Z</Time>
            <Position>
              <LatitudeDegrees>42.9697251878678798675537109375</LatitudeDegrees>
              <LongitudeDegrees>0.62814929522573947906494140625</LongitudeDegrees>
            </Position>
            <AltitudeMeters>479.79998779296875</AltitudeMeters>
            <DistanceMeters>58675.416033474</DistanceMeters>
          </Trackpoint>
          <Trackpoint>
            <Time>2019-05-08T11:36:31.000Z</Time>
            <Position>
              <LatitudeDegrees>42.9692869819700717926025390625</LatitudeDegrees>
              <LongitudeDegrees>0.62834476120769977569580078125</LongitudeDegrees>
            </Position>
            <AltitudeMeters>479.600006103515625</AltitudeMeters>
            <DistanceMeters>58726.721395701</DistanceMeters>
          </Trackpoint>
          <Trackpoint>
            <Time>2019-05-08T11:36:33.000Z</Time>
            <Position>
              <LatitudeDegrees>42.96916234306991100311279296875</LatitudeDegrees>
              <LongitudeDegrees>0.62839907594025135040283203125</LongitudeDegrees>
            </Position>
            <AltitudeMeters>479.79998779296875</AltitudeMeters>
            <DistanceMeters>58741.281894825</DistanceMeters>
          </Trackpoint>
          <Trackpoint>
            <Time>2019-05-08T11:36:37.000Z</Time>
            <Position>
              <LatitudeDegrees>42.9689034260809421539306640625</LatitudeDegrees>
              <LongitudeDegrees>0.62851139344274997711181640625</LongitudeDegrees>
            </Position>
            <AltitudeMeters>479.79998779296875</AltitudeMeters>
            <DistanceMeters>58771.516671634</DistanceMeters>
          </Trackpoint>
          <Trackpoint>
            <Time>2019-05-08T11:36:43.000Z</Time>
            <Position>
              <LatitudeDegrees>42.96850251965224742889404296875</LatitudeDegrees>
              <LongitudeDegrees>0.6286905147135257720947265625</LongitudeDegrees>
            </Position>
            <AltitudeMeters>480</AltitudeMeters>
            <DistanceMeters>58818.462465345</DistanceMeters>
          </Trackpoint>
          <Trackpoint>
            <Time>2019-05-08T11:36:50.000Z</Time>
            <Position>
              <LatitudeDegrees>42.9680042155086994171142578125</LatitudeDegrees>
              <LongitudeDegrees>0.62890618108212947845458984375</LongitudeDegrees>
            </Position>
            <AltitudeMeters>479.79998779296875</AltitudeMeters>
            <DistanceMeters>58876.639617321</DistanceMeters>
          </Trackpoint>
          <Trackpoint>
            <Time>2019-05-08T11:36:53.000Z</Time>
            <Position>
              <LatitudeDegrees>42.96778167597949504852294921875</LatitudeDegrees>
              <LongitudeDegrees>0.6290009804069995880126953125</LongitudeDegrees>
            </Position>
            <AltitudeMeters>479.79998779296875</AltitudeMeters>
            <DistanceMeters>58902.58399876</DistanceMeters>
          </Trackpoint>
          <Trackpoint>
            <Time>2019-05-08T11:36:57.000Z</Time>
            <Position>
              <LatitudeDegrees>42.96750440262258052825927734375</LatitudeDegrees>
              <LongitudeDegrees>0.62911807559430599212646484375</LongitudeDegrees>
            </Position>
            <AltitudeMeters>479.600006103515625</AltitudeMeters>
            <DistanceMeters>58934.884975409</DistanceMeters>
          </Trackpoint>
          <Trackpoint>
            <Time>2019-05-08T11:37:00.000Z</Time>
            <Position>
              <LatitudeDegrees>42.96732167713344097137451171875</LatitudeDegrees>
              <LongitudeDegrees>0.62919728457927703857421875</LongitudeDegrees>
            </Position>
            <AltitudeMeters>479.399993896484375</AltitudeMeters>
            <DistanceMeters>58956.221382647</DistanceMeters>
          </Trackpoint>
          <Trackpoint>
            <Time>2019-05-08T11:37:03.000Z</Time>
            <Position>
              <LatitudeDegrees>42.96714641153812408447265625</LatitudeDegrees>
              <LongitudeDegrees>0.62927498482167720794677734375</LongitudeDegrees>
            </Position>
            <AltitudeMeters>479.600006103515625</AltitudeMeters>
            <DistanceMeters>58976.729547861</DistanceMeters>
          </Trackpoint>
          <Trackpoint>
            <Time>2019-05-08T11:37:09.000Z</Time>
            <Position>
              <LatitudeDegrees>42.966791689395904541015625</LatitudeDegrees>
              <LongitudeDegrees>0.62943088822066783905029296875</LongitudeDegrees>
            </Position>
            <AltitudeMeters>479.600006103515625</AltitudeMeters>
            <DistanceMeters>59018.202367642</DistanceMeters>
          </Trackpoint>
          <Trackpoint>
            <Time>2019-05-08T11:37:17.000Z</Time>
            <Position>
              <LatitudeDegrees>42.9663013480603694915771484375</LatitudeDegrees>
              <LongitudeDegrees>0.629639513790607452392578125</LongitudeDegrees>
            </Position>
            <AltitudeMeters>480.600006103515625</AltitudeMeters>
            <DistanceMeters>59075.362180438</DistanceMeters>
          </Trackpoint>
          <Trackpoint>
            <Time>2019-05-08T11:37:22.000Z</Time>
            <Position>
              <LatitudeDegrees>42.9660113342106342315673828125</LatitudeDegrees>
              <LongitudeDegrees>0.62977756373584270477294921875</LongitudeDegrees>
            </Position>
            <AltitudeMeters>480.399993896484375</AltitudeMeters>
            <DistanceMeters>59109.543541891</DistanceMeters>
          </Trackpoint>
          <Trackpoint>
            <Time>2019-05-08T11:37:23.000Z</Time>
            <Position>
              <LatitudeDegrees>42.96597973443567752838134765625</LatitudeDegrees>
              <LongitudeDegrees>0.62982617877423763275146484375</LongitudeDegrees>
            </Position>
            <AltitudeMeters>480.600006103515625</AltitudeMeters>
            <DistanceMeters>59114.839523144</DistanceMeters>
          </Trackpoint>
          <Trackpoint>
            <Time>2019-05-08T11:37:24.000Z</Time>
            <Position>
              <LatitudeDegrees>42.96597034670412540435791015625</LatitudeDegrees>
              <LongitudeDegrees>0.6298931501805782318115234375</LongitudeDegrees>
            </Position>
            <AltitudeMeters>480.600006103515625</AltitudeMeters>
            <DistanceMeters>59120.393507402</DistanceMeters>
          </Trackpoint>
          <Trackpoint>
            <Time>2019-05-08T11:37:26.000Z</Time>
            <Position>
              <LatitudeDegrees>42.96598442830145359039306640625</LatitudeDegrees>
              <LongitudeDegrees>0.63003824092447757720947265625</LongitudeDegrees>
            </Position>
            <AltitudeMeters>480.600006103515625</AltitudeMeters>
            <DistanceMeters>59132.313963891</DistanceMeters>
          </Trackpoint>
          <Trackpoint>
            <Time>2019-05-08T11:37:29.000Z</Time>
            <Position>
              <LatitudeDegrees>42.9659972526133060455322265625</LatitudeDegrees>
              <LongitudeDegrees>0.6302575953304767608642578125</LongitudeDegrees>
            </Position>
            <AltitudeMeters>480.399993896484375</AltitudeMeters>
            <DistanceMeters>59150.236516144</DistanceMeters>
          </Trackpoint>
          <Trackpoint>
            <Time>2019-05-08T11:37:32.000Z</Time>
            <Position>
              <LatitudeDegrees>42.9660207219421863555908203125</LatitudeDegrees>
              <LongitudeDegrees>0.63045616261661052703857421875</LongitudeDegrees>
            </Position>
            <AltitudeMeters>480.600006103515625</AltitudeMeters>
            <DistanceMeters>59166.61863664</DistanceMeters>
          </Trackpoint>
          <Trackpoint>
            <Time>2019-05-08T11:37:35.000Z</Time>
            <Position>
              <LatitudeDegrees>42.96603673137724399566650390625</LatitudeDegrees>
              <LongitudeDegrees>0.63062044791877269744873046875</LongitudeDegrees>
            </Position>
            <AltitudeMeters>480.79998779296875</AltitudeMeters>
            <DistanceMeters>59180.117113683</DistanceMeters>
          </Trackpoint>
          <Trackpoint>
            <Time>2019-05-08T11:37:38.000Z</Time>
            <Position>
              <LatitudeDegrees>42.96604293398559093475341796875</LatitudeDegrees>
              <LongitudeDegrees>0.6307833082973957061767578125</LongitudeDegrees>
            </Position>
            <AltitudeMeters>481</AltitudeMeters>
            <DistanceMeters>59193.399115543</DistanceMeters>
          </Trackpoint>
          <Trackpoint>
            <Time>2019-05-08T11:37:44.000Z</Time>
            <Position>
              <LatitudeDegrees>42.96604595147073268890380859375</LatitudeDegrees>
              <LongitudeDegrees>0.63120047561824321746826171875</LongitudeDegrees>
            </Position>
            <AltitudeMeters>481.399993896484375</AltitudeMeters>
            <DistanceMeters>59227.377511527</DistanceMeters>
          </Trackpoint>
          <Trackpoint>
            <Time>2019-05-08T11:37:47.000Z</Time>
            <Position>
              <LatitudeDegrees>42.96605072915554046630859375</LatitudeDegrees>
              <LongitudeDegrees>0.6314324028789997100830078125</LongitudeDegrees>
            </Position>
            <AltitudeMeters>481.399993896484375</AltitudeMeters>
            <DistanceMeters>59246.274691292</DistanceMeters>
          </Trackpoint>
          <Trackpoint>
            <Time>2019-05-08T11:37:52.000Z</Time>
            <Position>
              <LatitudeDegrees>42.966062128543853759765625</LatitudeDegrees>
              <LongitudeDegrees>0.63182911835610866546630859375</LongitudeDegrees>
            </Position>
            <AltitudeMeters>481.20001220703125</AltitudeMeters>
            <DistanceMeters>59278.610594118</DistanceMeters>
          </Trackpoint>
          <Trackpoint>
            <Time>2019-05-08T11:38:00.000Z</Time>
            <Position>
              <LatitudeDegrees>42.9660800658166408538818359375</LatitudeDegrees>
              <LongitudeDegrees>0.63244552351534366607666015625</LongitudeDegrees>
            </Position>
            <AltitudeMeters>480.600006103515625</AltitudeMeters>
            <DistanceMeters>59328.853941839</DistanceMeters>
          </Trackpoint>
          <Trackpoint>
            <Time>2019-05-08T11:38:06.000Z</Time>
            <Position>
              <LatitudeDegrees>42.9660921357572078704833984375</LatitudeDegrees>
              <LongitudeDegrees>0.63296176493167877197265625</LongitudeDegrees>
            </Position>
            <AltitudeMeters>480.399993896484375</AltitudeMeters>
            <DistanceMeters>59370.921271218</DistanceMeters>
          </Trackpoint>
          <Trackpoint>
            <Time>2019-05-08T11:38:07.000Z</Time>
            <Position>
              <LatitudeDegrees>42.966088615357875823974609375</LatitudeDegrees>
              <LongitudeDegrees>0.6330544687807559967041015625</LongitudeDegrees>
            </Position>
            <AltitudeMeters>480.399993896484375</AltitudeMeters>
            <DistanceMeters>59378.481719874</DistanceMeters>
          </Trackpoint>
          <Trackpoint>
            <Time>2019-05-08T11:38:10.000Z</Time>
            <Position>
              <LatitudeDegrees>42.96606774441897869110107421875</LatitudeDegrees>
              <LongitudeDegrees>0.63333366997539997100830078125</LongitudeDegrees>
            </Position>
            <AltitudeMeters>480.399993896484375</AltitudeMeters>
            <DistanceMeters>59401.339941222</DistanceMeters>
          </Trackpoint>
          <Trackpoint>
            <Time>2019-05-08T11:38:13.000Z</Time>
            <Position>
              <LatitudeDegrees>42.9660270921885967254638671875</LatitudeDegrees>
              <LongitudeDegrees>0.6336049921810626983642578125</LongitudeDegrees>
            </Position>
            <AltitudeMeters>480.399993896484375</AltitudeMeters>
            <DistanceMeters>59423.896529112</DistanceMeters>
          </Trackpoint>
          <Trackpoint>
            <Time>2019-05-08T11:38:19.000Z</Time>
            <Position>
              <LatitudeDegrees>42.96592189930379390716552734375</LatitudeDegrees>
              <LongitudeDegrees>0.6341278553009033203125</LongitudeDegrees>
            </Position>
            <AltitudeMeters>478.399993896484375</AltitudeMeters>
            <DistanceMeters>59468.061977289</DistanceMeters>
          </Trackpoint>
          <Trackpoint>
            <Time>2019-05-08T11:38:28.000Z</Time>
            <Position>
              <LatitudeDegrees>42.96578812412917613983154296875</LatitudeDegrees>
              <LongitudeDegrees>0.63492857851088047027587890625</LongitudeDegrees>
            </Position>
            <AltitudeMeters>478.20001220703125</AltitudeMeters>
            <DistanceMeters>59534.9560597</DistanceMeters>
          </Trackpoint>
          <Trackpoint>
            <Time>2019-05-08T11:38:30.000Z</Time>
            <Position>
              <LatitudeDegrees>42.9657545126974582672119140625</LatitudeDegrees>
              <LongitudeDegrees>0.635109208524227142333984375</LongitudeDegrees>
            </Position>
            <AltitudeMeters>478</AltitudeMeters>
            <DistanceMeters>59550.135963873</DistanceMeters>
          </Trackpoint>
          <Trackpoint>
            <Time>2019-05-08T11:38:34.000Z</Time>
            <Position>
              <LatitudeDegrees>42.9656934924423694610595703125</LatitudeDegrees>
              <LongitudeDegrees>0.635473318397998809814453125</LongitudeDegrees>
            </Position>
            <AltitudeMeters>478.20001220703125</AltitudeMeters>
            <DistanceMeters>59580.559356772</DistanceMeters>
          </Trackpoint>
          <Trackpoint>
            <Time>2019-05-08T11:38:37.000Z</Time>
            <Position>
              <LatitudeDegrees>42.96564596705138683319091796875</LatitudeDegrees>
              <LongitudeDegrees>0.635744892060756683349609375</LongitudeDegrees>
            </Position>
            <AltitudeMeters>478</AltitudeMeters>
            <DistanceMeters>59603.301733263</DistanceMeters>
          </Trackpoint>
          <Trackpoint>
            <Time>2019-05-08T11:38:43.000Z</Time>
            <Position>
              <LatitudeDegrees>42.965558879077434539794921875</LatitudeDegrees>
              <LongitudeDegrees>0.63627890311181545257568359375</LongitudeDegrees>
            </Position>
            <AltitudeMeters>477.79998779296875</AltitudeMeters>
            <DistanceMeters>59647.862068869</DistanceMeters>
          </Trackpoint>
          <Trackpoint>
            <Time>2019-05-08T11:38:45.000Z</Time>
            <Position>
              <LatitudeDegrees>42.96552979387342929840087890625</LatitudeDegrees>
              <LongitudeDegrees>0.636450983583927154541015625</LongitudeDegrees>
            </Position>
            <AltitudeMeters>477.600006103515625</AltitudeMeters>
            <DistanceMeters>59662.246301263</DistanceMeters>
          </Trackpoint>
          <Trackpoint>
            <Time>2019-05-08T11:38:54.000Z</Time>
            <Position>
              <LatitudeDegrees>42.9653890617191791534423828125</LatitudeDegrees>
              <LongitudeDegrees>0.637185238301753997802734375</LongitudeDegrees>
            </Position>
            <AltitudeMeters>477.20001220703125</AltitudeMeters>
            <DistanceMeters>59724.066346416</DistanceMeters>
          </Trackpoint>
          <Trackpoint>
            <Time>2019-05-08T11:39:01.000Z</Time>
            <Position>
              <LatitudeDegrees>42.96528168953955173492431640625</LatitudeDegrees>
              <LongitudeDegrees>0.63773182220757007598876953125</LongitudeDegrees>
            </Position>
            <AltitudeMeters>477.20001220703125</AltitudeMeters>
            <DistanceMeters>59770.160180452</DistanceMeters>
          </Trackpoint>
          <Trackpoint>
            <Time>2019-05-08T11:39:02.000Z</Time>
            <Position>
              <LatitudeDegrees>42.96526660211384296417236328125</LatitudeDegrees>
              <LongitudeDegrees>0.63781145028769969940185546875</LongitudeDegrees>
            </Position>
            <AltitudeMeters>477.399993896484375</AltitudeMeters>
            <DistanceMeters>59776.859395325</DistanceMeters>
          </Trackpoint>
          <Trackpoint>
            <Time>2019-05-08T11:39:09.000Z</Time>
            <Position>
              <LatitudeDegrees>42.9651863873004913330078125</LatitudeDegrees>
              <LongitudeDegrees>0.638345964252948760986328125</LongitudeDegrees>
            </Position>
            <AltitudeMeters>477.399993896484375</AltitudeMeters>
            <DistanceMeters>59821.300109194</DistanceMeters>
          </Trackpoint>
          <Trackpoint>
            <Time>2019-05-08T11:39:11.000Z</Time>
            <Position>
              <LatitudeDegrees>42.965189404785633087158203125</LatitudeDegrees>
              <LongitudeDegrees>0.63849708996713161468505859375</LongitudeDegrees>
            </Position>
            <AltitudeMeters>477.399993896484375</AltitudeMeters>
            <DistanceMeters>59833.613312818</DistanceMeters>
          </Trackpoint>
          <Trackpoint>
            <Time>2019-05-08T11:39:12.000Z</Time>
            <Position>
              <LatitudeDegrees>42.965198792517185211181640625</LatitudeDegrees>
              <LongitudeDegrees>0.6385734491050243377685546875</LongitudeDegrees>
            </Position>
            <AltitudeMeters>477.399993896484375</AltitudeMeters>
            <DistanceMeters>59839.919536463</DistanceMeters>
          </Trackpoint>
          <Trackpoint>
            <Time>2019-05-08T11:39:13.000Z</Time>
            <Position>
              <LatitudeDegrees>42.965213544666767120361328125</LatitudeDegrees>
              <LongitudeDegrees>0.638647712767124176025390625</LongitudeDegrees>
            </Position>
            <AltitudeMeters>477.399993896484375</AltitudeMeters>
            <DistanceMeters>59846.186978727</DistanceMeters>
          </Trackpoint>
          <Trackpoint>
            <Time>2019-05-08T11:39:14.000Z</Time>
            <Position>
              <LatitudeDegrees>42.9652334935963153839111328125</LatitudeDegrees>
              <LongitudeDegrees>0.6387196294963359832763671875</LongitudeDegrees>
            </Position>
            <AltitudeMeters>477.600006103515625</AltitudeMeters>
            <DistanceMeters>59852.451538745</DistanceMeters>
          </Trackpoint>
          <Trackpoint>
            <Time>2019-05-08T11:39:15.000Z</Time>
            <Position>
              <LatitudeDegrees>42.9652586393058300018310546875</LatitudeDegrees>
              <LongitudeDegrees>0.63878693617880344390869140625</LongitudeDegrees>
            </Position>
            <AltitudeMeters>477.600006103515625</AltitudeMeters>
            <DistanceMeters>59858.607040411</DistanceMeters>
          </Trackpoint>
          <Trackpoint>
            <Time>2019-05-08T11:39:17.000Z</Time>
            <Position>
              <LatitudeDegrees>42.96531907282769680023193359375</LatitudeDegrees>
              <LongitudeDegrees>0.6389035284519195556640625</LongitudeDegrees>
            </Position>
            <AltitudeMeters>477.399993896484375</AltitudeMeters>
            <DistanceMeters>59870.243836635</DistanceMeters>
          </Trackpoint>
          <Trackpoint>
            <Time>2019-05-08T11:39:19.000Z</Time>
            <Position>
              <LatitudeDegrees>42.96538076363503932952880859375</LatitudeDegrees>
              <LongitudeDegrees>0.63900754787027835845947265625</LongitudeDegrees>
            </Position>
            <AltitudeMeters>477.399993896484375</AltitudeMeters>
            <DistanceMeters>59881.149161333</DistanceMeters>
          </Trackpoint>
          <Trackpoint>
            <Time>2019-05-08T11:39:20.000Z</Time>
            <Position>
              <LatitudeDegrees>42.965412698686122894287109375</LatitudeDegrees>
              <LongitudeDegrees>0.63905532471835613250732421875</LongitudeDegrees>
            </Position>
            <AltitudeMeters>477.399993896484375</AltitudeMeters>
            <DistanceMeters>59886.419504314</DistanceMeters>
          </Trackpoint>
          <Trackpoint>
            <Time>2019-05-08T11:39:27.000Z</Time>
            <Position>
              <LatitudeDegrees>42.96564144082367420196533203125</LatitudeDegrees>
              <LongitudeDegrees>0.6393677182495594024658203125</LongitudeDegrees>
            </Position>
            <AltitudeMeters>478.20001220703125</AltitudeMeters>
            <DistanceMeters>59922.413310691</DistanceMeters>
          </Trackpoint>
          <Trackpoint>
            <Time>2019-05-08T11:39:32.000Z</Time>
            <Position>
              <LatitudeDegrees>42.965820394456386566162109375</LatitudeDegrees>
              <LongitudeDegrees>0.6396205164492130279541015625</LongitudeDegrees>
            </Position>
            <AltitudeMeters>478.600006103515625</AltitudeMeters>
            <DistanceMeters>59951.060200874</DistanceMeters>
          </Trackpoint>
          <Trackpoint>
            <Time>2019-05-08T11:39:34.000Z</Time>
            <Position>
              <LatitudeDegrees>42.965901531279087066650390625</LatitudeDegrees>
              <LongitudeDegrees>0.63973509706556797027587890625</LongitudeDegrees>
            </Position>
            <AltitudeMeters>478.79998779296875</AltitudeMeters>
            <DistanceMeters>59964.046567097</DistanceMeters>
          </Trackpoint>
          <Trackpoint>
            <Time>2019-05-08T11:39:35.000Z</Time>
            <Position>
              <LatitudeDegrees>42.965945117175579071044921875</LatitudeDegrees>
              <LongitudeDegrees>0.6397958658635616302490234375</LongitudeDegrees>
            </Position>
            <AltitudeMeters>478.79998779296875</AltitudeMeters>
            <DistanceMeters>59970.977656959</DistanceMeters>
          </Trackpoint>
          <Trackpoint>
            <Time>2019-05-08T11:39:42.000Z</Time>
            <Position>
              <LatitudeDegrees>42.9662497155368328094482421875</LatitudeDegrees>
              <LongitudeDegrees>0.640198029577732086181640625</LongitudeDegrees>
            </Position>
            <AltitudeMeters>477.600006103515625</AltitudeMeters>
            <DistanceMeters>60018.118186997</DistanceMeters>
          </Trackpoint>
          <Trackpoint>
            <Time>2019-05-08T11:39:46.000Z</Time>
            <Position>
              <LatitudeDegrees>42.9664121568202972412109375</LatitudeDegrees>
              <LongitudeDegrees>0.64041721634566783905029296875</LongitudeDegrees>
            </Position>
            <AltitudeMeters>476.600006103515625</AltitudeMeters>
            <DistanceMeters>60043.526418442</DistanceMeters>
          </Trackpoint>
          <Trackpoint>
            <Time>2019-05-08T11:39:48.000Z</Time>
            <Position>
              <LatitudeDegrees>42.9664857499301433563232421875</LatitudeDegrees>
              <LongitudeDegrees>0.64052534289658069610595703125</LongitudeDegrees>
            </Position>
            <AltitudeMeters>476.600006103515625</AltitudeMeters>
            <DistanceMeters>60055.553212049</DistanceMeters>
          </Trackpoint>
          <Trackpoint>
            <Time>2019-05-08T11:39:52.000Z</Time>
            <Position>
              <LatitudeDegrees>42.9666106402873992919921875</LatitudeDegrees>
              <LongitudeDegrees>0.6407591141760349273681640625</LongitudeDegrees>
            </Position>
            <AltitudeMeters>476.600006103515625</AltitudeMeters>
            <DistanceMeters>60079.127307887</DistanceMeters>
          </Trackpoint>
          <Trackpoint>
            <Time>2019-05-08T11:39:53.000Z</Time>
            <Position>
              <LatitudeDegrees>42.96663419343531131744384765625</LatitudeDegrees>
              <LongitudeDegrees>0.64083094708621501922607421875</LongitudeDegrees>
            </Position>
            <AltitudeMeters>476.600006103515625</AltitudeMeters>
            <DistanceMeters>60085.538618828</DistanceMeters>
          </Trackpoint>
          <Trackpoint>
            <Time>2019-05-08T11:39:54.000Z</Time>
            <Position>
              <LatitudeDegrees>42.96665565110743045806884765625</LatitudeDegrees>
              <LongitudeDegrees>0.6409049592912197113037109375</LongitudeDegrees>
            </Position>
            <AltitudeMeters>476.600006103515625</AltitudeMeters>
            <DistanceMeters>60092.022756081</DistanceMeters>
          </Trackpoint>
          <Trackpoint>
            <Time>2019-05-08T11:40:02.000Z</Time>
            <Position>
              <LatitudeDegrees>42.96686100773513317108154296875</LatitudeDegrees>
              <LongitudeDegrees>0.64152605831623077392578125</LongitudeDegrees>
            </Position>
            <AltitudeMeters>477.399993896484375</AltitudeMeters>
            <DistanceMeters>60147.532430508</DistanceMeters>
          </Trackpoint>
          <Trackpoint>
            <Time>2019-05-08T11:40:10.000Z</Time>
            <Position>
              <LatitudeDegrees>42.96703535132110118865966796875</LatitudeDegrees>
              <LongitudeDegrees>0.6420935131609439849853515625</LongitudeDegrees>
            </Position>
            <AltitudeMeters>477.79998779296875</AltitudeMeters>
            <DistanceMeters>60197.657198332</DistanceMeters>
          </Trackpoint>
          <Trackpoint>
            <Time>2019-05-08T11:40:13.000Z</Time>
            <Position>
              <LatitudeDegrees>42.96705446206033229827880859375</LatitudeDegrees>
              <LongitudeDegrees>0.64218311570584774017333984375</LongitudeDegrees>
            </Position>
            <AltitudeMeters>477.79998779296875</AltitudeMeters>
            <DistanceMeters>60205.258147555</DistanceMeters>
          </Trackpoint>
          <Trackpoint>
            <Time>2019-05-08T11:40:14.000Z</Time>
            <Position>
              <LatitudeDegrees>42.96704926528036594390869140625</LatitudeDegrees>
              <LongitudeDegrees>0.64220055006444454193115234375</LongitudeDegrees>
            </Position>
            <AltitudeMeters>477.79998779296875</AltitudeMeters>
            <DistanceMeters>60206.790407283</DistanceMeters>
          </Trackpoint>
          <Trackpoint>
            <Time>2019-05-08T11:40:19.000Z</Time>
            <Position>
              <LatitudeDegrees>42.96705613844096660614013671875</LatitudeDegrees>
              <LongitudeDegrees>0.6423570401966571807861328125</LongitudeDegrees>
            </Position>
            <AltitudeMeters>478</AltitudeMeters>
            <DistanceMeters>60219.5586883</DistanceMeters>
          </Trackpoint>
          <Trackpoint>
            <Time>2019-05-08T11:40:24.000Z</Time>
            <Position>
              <LatitudeDegrees>42.96706854365766048431396484375</LatitudeDegrees>
              <LongitudeDegrees>0.6426608003675937652587890625</LongitudeDegrees>
            </Position>
            <AltitudeMeters>478</AltitudeMeters>
            <DistanceMeters>60244.336801574</DistanceMeters>
          </Trackpoint>
          <Trackpoint>
            <Time>2019-05-08T11:40:28.000Z</Time>
            <Position>
              <LatitudeDegrees>42.96707809902727603912353515625</LatitudeDegrees>
              <LongitudeDegrees>0.64292726106941699981689453125</LongitudeDegrees>
            </Position>
            <AltitudeMeters>477.79998779296875</AltitudeMeters>
            <DistanceMeters>60266.064904497</DistanceMeters>
          </Trackpoint>
          <Trackpoint>
            <Time>2019-05-08T11:40:32.000Z</Time>
            <Position>
              <LatitudeDegrees>42.96708966605365276336669921875</LatitudeDegrees>
              <LongitudeDegrees>0.64322180114686489105224609375</LongitudeDegrees>
            </Position>
            <AltitudeMeters>477.79998779296875</AltitudeMeters>
            <DistanceMeters>60290.088439743</DistanceMeters>
          </Trackpoint>
          <Trackpoint>
            <Time>2019-05-08T11:40:41.000Z</Time>
            <Position>
              <LatitudeDegrees>42.96711196191608905792236328125</LatitudeDegrees>
              <LongitudeDegrees>0.64392638392746448516845703125</LongitudeDegrees>
            </Position>
            <AltitudeMeters>478</AltitudeMeters>
            <DistanceMeters>60347.526566704</DistanceMeters>
          </Trackpoint>
          <Trackpoint>
            <Time>2019-05-08T11:40:45.000Z</Time>
            <Position>
              <LatitudeDegrees>42.96712688170373439788818359375</LatitudeDegrees>
              <LongitudeDegrees>0.64423374831676483154296875</LongitudeDegrees>
            </Position>
            <AltitudeMeters>478.20001220703125</AltitudeMeters>
            <DistanceMeters>60372.614699124</DistanceMeters>
          </Trackpoint>
          <Trackpoint>
            <Time>2019-05-08T11:40:49.000Z</Time>
            <Position>
              <LatitudeDegrees>42.9671390354633331298828125</LatitudeDegrees>
              <LongitudeDegrees>0.6445276178419589996337890625</LongitudeDegrees>
            </Position>
            <AltitudeMeters>478.20001220703125</AltitudeMeters>
            <DistanceMeters>60396.58705956</DistanceMeters>
          </Trackpoint>
          <Trackpoint>
            <Time>2019-05-08T11:40:55.000Z</Time>
            <Position>
              <LatitudeDegrees>42.96715722419321537017822265625</LatitudeDegrees>
              <LongitudeDegrees>0.6449681706726551055908203125</LongitudeDegrees>
            </Position>
            <AltitudeMeters>478</AltitudeMeters>
            <DistanceMeters>60432.524750823</DistanceMeters>
          </Trackpoint>
          <Trackpoint>
            <Time>2019-05-08T11:40:57.000Z</Time>
            <Position>
              <LatitudeDegrees>42.9671631753444671630859375</LatitudeDegrees>
              <LongitudeDegrees>0.64510990865528583526611328125</LongitudeDegrees>
            </Position>
            <AltitudeMeters>478.20001220703125</AltitudeMeters>
            <DistanceMeters>60444.087592681</DistanceMeters>
          </Trackpoint>
          <Trackpoint>
            <Time>2019-05-08T11:41:01.000Z</Time>
            <Position>
              <LatitudeDegrees>42.96717382036149501800537109375</LatitudeDegrees>
              <LongitudeDegrees>0.64539036713540554046630859375</LongitudeDegrees>
            </Position>
            <AltitudeMeters>478.399993896484375</AltitudeMeters>
            <DistanceMeters>60466.960031307</DistanceMeters>
          </Trackpoint>
          <Trackpoint>
            <Time>2019-05-08T11:41:03.000Z</Time>
            <Position>
              <LatitudeDegrees>42.96717851422727108001708984375</LatitudeDegrees>
              <LongitudeDegrees>0.6455277465283870697021484375</LongitudeDegrees>
            </Position>
            <AltitudeMeters>478.399993896484375</AltitudeMeters>
            <DistanceMeters>60478.161097422</DistanceMeters>
          </Trackpoint>
          <Trackpoint>
            <Time>2019-05-08T11:41:09.000Z</Time>
            <Position>
              <LatitudeDegrees>42.96719192527234554290771484375</LatitudeDegrees>
              <LongitudeDegrees>0.6459270603954792022705078125</LongitudeDegrees>
            </Position>
            <AltitudeMeters>478.20001220703125</AltitudeMeters>
            <DistanceMeters>60510.717421734</DistanceMeters>
          </Trackpoint>
          <Trackpoint>
            <Time>2019-05-08T11:41:10.000Z</Time>
            <Position>
              <LatitudeDegrees>42.96719494275748729705810546875</LatitudeDegrees>
              <LongitudeDegrees>0.64598967321217060089111328125</LongitudeDegrees>
            </Position>
            <AltitudeMeters>478</AltitudeMeters>
            <DistanceMeters>60515.829470367</DistanceMeters>
          </Trackpoint>
          <Trackpoint>
            <Time>2019-05-08T11:41:12.000Z</Time>
            <Position>
              <LatitudeDegrees>42.96719779260456562042236328125</LatitudeDegrees>
              <LongitudeDegrees>0.64611523412168025970458984375</LongitudeDegrees>
            </Position>
            <AltitudeMeters>478</AltitudeMeters>
            <DistanceMeters>60526.060630914</DistanceMeters>
          </Trackpoint>
          <Trackpoint>
            <Time>2019-05-08T11:41:17.000Z</Time>
            <Position>
              <LatitudeDegrees>42.96720181591808795928955078125</LatitudeDegrees>
              <LongitudeDegrees>0.64645587466657161712646484375</LongitudeDegrees>
            </Position>
            <AltitudeMeters>477.79998779296875</AltitudeMeters>
            <DistanceMeters>60553.807617913</DistanceMeters>
          </Trackpoint>
          <Trackpoint>
            <Time>2019-05-08T11:41:20.000Z</Time>
            <Position>
              <LatitudeDegrees>42.96717331744730472564697265625</LatitudeDegrees>
              <LongitudeDegrees>0.646646060049533843994140625</LongitudeDegrees>
            </Position>
            <AltitudeMeters>477.600006103515625</AltitudeMeters>
            <DistanceMeters>60569.618646857</DistanceMeters>
          </Trackpoint>
          <Trackpoint>
            <Time>2019-05-08T11:41:22.000Z</Time>
            <Position>
              <LatitudeDegrees>42.96712218783795833587646484375</LatitudeDegrees>
              <LongitudeDegrees>0.64675904810428619384765625</LongitudeDegrees>
            </Position>
            <AltitudeMeters>477.20001220703125</AltitudeMeters>
            <DistanceMeters>60580.438346993</DistanceMeters>
          </Trackpoint>
          <Trackpoint>
            <Time>2019-05-08T11:41:25.000Z</Time>
            <Position>
              <LatitudeDegrees>42.96700266189873218536376953125</LatitudeDegrees>
              <LongitudeDegrees>0.64691268838942050933837890625</LongitudeDegrees>
            </Position>
            <AltitudeMeters>477</AltitudeMeters>
            <DistanceMeters>60598.702273839</DistanceMeters>
          </Trackpoint>
          <Trackpoint>
            <Time>2019-05-08T11:41:27.000Z</Time>
            <Position>
              <LatitudeDegrees>42.96690090559422969818115234375</LatitudeDegrees>
              <LongitudeDegrees>0.6469694338738918304443359375</LongitudeDegrees>
            </Position>
            <AltitudeMeters>477</AltitudeMeters>
            <DistanceMeters>60610.93491038</DistanceMeters>
          </Trackpoint>
          <Trackpoint>
            <Time>2019-05-08T11:41:32.000Z</Time>
            <Position>
              <LatitudeDegrees>42.96661759726703166961669921875</LatitudeDegrees>
              <LongitudeDegrees>0.64698611386120319366455078125</LongitudeDegrees>
            </Position>
            <AltitudeMeters>476.79998779296875</AltitudeMeters>
            <DistanceMeters>60642.496943157</DistanceMeters>
          </Trackpoint>
          <Trackpoint>
            <Time>2019-05-08T11:41:40.000Z</Time>
            <Position>
              <LatitudeDegrees>42.9661531560122966766357421875</LatitudeDegrees>
              <LongitudeDegrees>0.6470247544348239898681640625</LongitudeDegrees>
            </Position>
            <AltitudeMeters>476.600006103515625</AltitudeMeters>
            <DistanceMeters>60694.285892222</DistanceMeters>
          </Trackpoint>
          <Trackpoint>
            <Time>2019-05-08T11:41:49.000Z</Time>
            <Position>
              <LatitudeDegrees>42.96560305170714855194091796875</LatitudeDegrees>
              <LongitudeDegrees>0.64708082936704158782958984375</LongitudeDegrees>
            </Position>
            <AltitudeMeters>476.79998779296875</AltitudeMeters>
            <DistanceMeters>60755.683740004</DistanceMeters>
          </Trackpoint>
          <Trackpoint>
            <Time>2019-05-08T11:41:50.000Z</Time>
            <Position>
              <LatitudeDegrees>42.96554253436625003814697265625</LatitudeDegrees>
              <LongitudeDegrees>0.6470882892608642578125</LongitudeDegrees>
            </Position>
            <AltitudeMeters>476.79998779296875</AltitudeMeters>
            <DistanceMeters>60762.447346089</DistanceMeters>
          </Trackpoint>
          <Trackpoint>
            <Time>2019-05-08T11:41:58.000Z</Time>
            <Position>
              <LatitudeDegrees>42.965055294334888458251953125</LatitudeDegrees>
              <LongitudeDegrees>0.64716330729424953460693359375</LongitudeDegrees>
            </Position>
            <AltitudeMeters>477</AltitudeMeters>
            <DistanceMeters>60817.021147613</DistanceMeters>
          </Trackpoint>
          <Trackpoint>
            <Time>2019-05-08T11:42:07.000Z</Time>
            <Position>
              <LatitudeDegrees>42.9644942097365856170654296875</LatitudeDegrees>
              <LongitudeDegrees>0.64726204611361026763916015625</LongitudeDegrees>
            </Position>
            <AltitudeMeters>477.20001220703125</AltitudeMeters>
            <DistanceMeters>60879.986654541</DistanceMeters>
          </Trackpoint>
          <Trackpoint>
            <Time>2019-05-08T11:42:15.000Z</Time>
            <Position>
              <LatitudeDegrees>42.96397210098803043365478515625</LatitudeDegrees>
              <LongitudeDegrees>0.647358186542987823486328125</LongitudeDegrees>
            </Position>
            <AltitudeMeters>477.399993896484375</AltitudeMeters>
            <DistanceMeters>60938.623527554</DistanceMeters>
          </Trackpoint>
          <Trackpoint>
            <Time>2019-05-08T11:42:24.000Z</Time>
            <Position>
              <LatitudeDegrees>42.96340313740074634552001953125</LatitudeDegrees>
              <LongitudeDegrees>0.6474522314965724945068359375</LongitudeDegrees>
            </Position>
            <AltitudeMeters>477.79998779296875</AltitudeMeters>
            <DistanceMeters>61002.41186854</DistanceMeters>
          </Trackpoint>
          <Trackpoint>
            <Time>2019-05-08T11:42:25.000Z</Time>
            <Position>
              <LatitudeDegrees>42.963344044983386993408203125</LatitudeDegrees>
              <LongitudeDegrees>0.6474555842578411102294921875</LongitudeDegrees>
            </Position>
            <AltitudeMeters>477.600006103515625</AltitudeMeters>
            <DistanceMeters>61008.994826602</DistanceMeters>
          </Trackpoint>
          <Trackpoint>
            <Time>2019-05-08T11:42:33.000Z</Time>
            <Position>
              <LatitudeDegrees>42.96285278163850307464599609375</LatitudeDegrees>
              <LongitudeDegrees>0.6474311091005802154541015625</LongitudeDegrees>
            </Position>
            <AltitudeMeters>477.79998779296875</AltitudeMeters>
            <DistanceMeters>61063.709753115</DistanceMeters>
          </Trackpoint>
          <Trackpoint>
            <Time>2019-05-08T11:42:41.000Z</Time>
            <Position>
              <LatitudeDegrees>42.96235196292400360107421875</LatitudeDegrees>
              <LongitudeDegrees>0.64734687097370624542236328125</LongitudeDegrees>
            </Position>
            <AltitudeMeters>477.79998779296875</AltitudeMeters>
            <DistanceMeters>61119.872390359</DistanceMeters>
          </Trackpoint>
          <Trackpoint>
            <Time>2019-05-08T11:42:46.000Z</Time>
            <Position>
              <LatitudeDegrees>42.9620383121073246002197265625</LatitudeDegrees>
              <LongitudeDegrees>0.64724829979240894317626953125</LongitudeDegrees>
            </Position>
            <AltitudeMeters>477.600006103515625</AltitudeMeters>
            <DistanceMeters>61155.693806617</DistanceMeters>
          </Trackpoint>
          <Trackpoint>
            <Time>2019-05-08T11:42:48.000Z</Time>
            <Position>
              <LatitudeDegrees>42.961908392608165740966796875</LatitudeDegrees>
              <LongitudeDegrees>0.64718627370893955230712890625</LongitudeDegrees>
            </Position>
            <AltitudeMeters>477.600006103515625</AltitudeMeters>
            <DistanceMeters>61171.011393771</DistanceMeters>
          </Trackpoint>
          <Trackpoint>
            <Time>2019-05-08T11:42:49.000Z</Time>
            <Position>
              <LatitudeDegrees>42.96183697879314422607421875</LatitudeDegrees>
              <LongitudeDegrees>0.647152997553348541259765625</LongitudeDegrees>
            </Position>
            <AltitudeMeters>477.600006103515625</AltitudeMeters>
            <DistanceMeters>61179.408766393</DistanceMeters>
          </Trackpoint>
          <Trackpoint>
            <Time>2019-05-08T11:42:51.000Z</Time>
            <Position>
              <LatitudeDegrees>42.9616842605173587799072265625</LatitudeDegrees>
              <LongitudeDegrees>0.647100694477558135986328125</LongitudeDegrees>
            </Position>
            <AltitudeMeters>477.399993896484375</AltitudeMeters>
            <DistanceMeters>61196.932372745</DistanceMeters>
          </Trackpoint>
          <Trackpoint>
            <Time>2019-05-08T11:42:52.000Z</Time>
            <Position>
              <LatitudeDegrees>42.9616110026836395263671875</LatitudeDegrees>
              <LongitudeDegrees>0.647084601223468780517578125</LongitudeDegrees>
            </Position>
            <AltitudeMeters>477.399993896484375</AltitudeMeters>
            <DistanceMeters>61205.190407457</DistanceMeters>
          </Trackpoint>
          <Trackpoint>
            <Time>2019-05-08T11:42:58.000Z</Time>
            <Position>
              <LatitudeDegrees>42.96120665967464447021484375</LatitudeDegrees>
              <LongitudeDegrees>0.64699114300310611724853515625</LongitudeDegrees>
            </Position>
            <AltitudeMeters>477.399993896484375</AltitudeMeters>
            <DistanceMeters>61250.833806829</DistanceMeters>
          </Trackpoint>
          <Trackpoint>
            <Time>2019-05-08T11:43:00.000Z</Time>
            <Position>
              <LatitudeDegrees>42.9610747285187244415283203125</LatitudeDegrees>
              <LongitudeDegrees>0.646956861019134521484375</LongitudeDegrees>
            </Position>
            <AltitudeMeters>477.600006103515625</AltitudeMeters>
            <DistanceMeters>61265.781119343</DistanceMeters>
          </Trackpoint>
          <Trackpoint>
            <Time>2019-05-08T11:43:01.000Z</Time>
            <Position>
              <LatitudeDegrees>42.961008511483669281005859375</LatitudeDegrees>
              <LongitudeDegrees>0.6469419412314891815185546875</LongitudeDegrees>
            </Position>
            <AltitudeMeters>477.399993896484375</AltitudeMeters>
            <DistanceMeters>61273.250243272</DistanceMeters>
          </Trackpoint>
          <Trackpoint>
            <Time>2019-05-08T11:43:07.000Z</Time>
            <Position>
              <LatitudeDegrees>42.96061330474913120269775390625</LatitudeDegrees>
              <LongitudeDegrees>0.64683674834668636322021484375</LongitudeDegrees>
            </Position>
            <AltitudeMeters>477.600006103515625</AltitudeMeters>
            <DistanceMeters>61318.06438235</DistanceMeters>
          </Trackpoint>
          <Trackpoint>
            <Time>2019-05-08T11:43:10.000Z</Time>
            <Position>
              <LatitudeDegrees>42.96043208800256252288818359375</LatitudeDegrees>
              <LongitudeDegrees>0.64677757211029529571533203125</LongitudeDegrees>
            </Position>
            <AltitudeMeters>477.79998779296875</AltitudeMeters>
            <DistanceMeters>61338.801989748</DistanceMeters>
          </Trackpoint>
          <Trackpoint>
            <Time>2019-05-08T11:43:13.000Z</Time>
            <Position>
              <LatitudeDegrees>42.96025891788303852081298828125</LatitudeDegrees>
              <LongitudeDegrees>0.646719820797443389892578125</LongitudeDegrees>
            </Position>
            <AltitudeMeters>477.600006103515625</AltitudeMeters>
            <DistanceMeters>61358.641647056</DistanceMeters>
          </Trackpoint>
          <Trackpoint>
            <Time>2019-05-08T11:43:14.000Z</Time>
            <Position>
              <LatitudeDegrees>42.9602015018463134765625</LatitudeDegrees>
              <LongitudeDegrees>0.6467008776962757110595703125</LongitudeDegrees>
            </Position>
            <AltitudeMeters>477.600006103515625</AltitudeMeters>
            <DistanceMeters>61365.215682792</DistanceMeters>
          </Trackpoint>
          <Trackpoint>
            <Time>2019-05-08T11:43:17.000Z</Time>
            <Position>
              <LatitudeDegrees>42.96002070419490337371826171875</LatitudeDegrees>
              <LongitudeDegrees>0.64663357101380825042724609375</LongitudeDegrees>
            </Position>
            <AltitudeMeters>477.79998779296875</AltitudeMeters>
            <DistanceMeters>61386.072693666</DistanceMeters>
          </Trackpoint>
          <Trackpoint>
            <Time>2019-05-08T11:43:21.000Z</Time>
            <Position>
              <LatitudeDegrees>42.9597658105194568634033203125</LatitudeDegrees>
              <LongitudeDegrees>0.6465355865657329559326171875</LongitudeDegrees>
            </Position>
            <AltitudeMeters>477.79998779296875</AltitudeMeters>
            <DistanceMeters>61415.544153298</DistanceMeters>
          </Trackpoint>
          <Trackpoint>
            <Time>2019-05-08T11:43:23.000Z</Time>
            <Position>
              <LatitudeDegrees>42.95963815413415431976318359375</LatitudeDegrees>
              <LongitudeDegrees>0.6464836187660694122314453125</LongitudeDegrees>
            </Position>
            <AltitudeMeters>477.600006103515625</AltitudeMeters>
            <DistanceMeters>61430.369843526</DistanceMeters>
          </Trackpoint>
          <Trackpoint>
            <Time>2019-05-08T11:43:30.000Z</Time>
            <Position>
              <LatitudeDegrees>42.9592354036867618560791015625</LatitudeDegrees>
              <LongitudeDegrees>0.6462744064629077911376953125</LongitudeDegrees>
            </Position>
            <AltitudeMeters>477.79998779296875</AltitudeMeters>
            <DistanceMeters>61478.326805164</DistanceMeters>
          </Trackpoint>
          <Trackpoint>
            <Time>2019-05-08T11:43:34.000Z</Time>
            <Position>
              <LatitudeDegrees>42.95901671983301639556884765625</LatitudeDegrees>
              <LongitudeDegrees>0.64610886387526988983154296875</LongitudeDegrees>
            </Position>
            <AltitudeMeters>477.79998779296875</AltitudeMeters>
            <DistanceMeters>61506.152438032</DistanceMeters>
          </Trackpoint>
          <Trackpoint>
            <Time>2019-05-08T11:43:35.000Z</Time>
            <Position>
              <LatitudeDegrees>42.95897179283201694488525390625</LatitudeDegrees>
              <LongitudeDegrees>0.6460464186966419219970703125</LongitudeDegrees>
            </Position>
            <AltitudeMeters>477.600006103515625</AltitudeMeters>
            <DistanceMeters>61513.285140934</DistanceMeters>
          </Trackpoint>
          <Trackpoint>
            <Time>2019-05-08T11:43:36.000Z</Time>
            <Position>
              <LatitudeDegrees>42.958937175571918487548828125</LatitudeDegrees>
              <LongitudeDegrees>0.64597181975841522216796875</LongitudeDegrees>
            </Position>
            <AltitudeMeters>477.79998779296875</AltitudeMeters>
            <DistanceMeters>61520.480238449</DistanceMeters>
          </Trackpoint>
          <Trackpoint>
            <Time>2019-05-08T11:43:38.000Z</Time>
            <Position>
              <LatitudeDegrees>42.9588751494884490966796875</LatitudeDegrees>
              <LongitudeDegrees>0.64582069404423236846923828125</LongitudeDegrees>
            </Position>
            <AltitudeMeters>477.79998779296875</AltitudeMeters>
            <DistanceMeters>61534.593865066</DistanceMeters>
          </Trackpoint>
          <Trackpoint>
            <Time>2019-05-08T11:43:39.000Z</Time>
            <Position>
              <LatitudeDegrees>42.958829887211322784423828125</LatitudeDegrees>
              <LongitudeDegrees>0.6457624398171901702880859375</LongitudeDegrees>
            </Position>
            <AltitudeMeters>477.79998779296875</AltitudeMeters>
            <DistanceMeters>61541.515176758</DistanceMeters>
          </Trackpoint>
          <Trackpoint>
            <Time>2019-05-08T11:43:40.000Z</Time>
            <Position>
              <LatitudeDegrees>42.95877951197326183319091796875</LatitudeDegrees>
              <LongitudeDegrees>0.64571424387395381927490234375</LongitudeDegrees>
            </Position>
            <AltitudeMeters>477.79998779296875</AltitudeMeters>
            <DistanceMeters>61548.359739314</DistanceMeters>
          </Trackpoint>
          <Trackpoint>
            <Time>2019-05-08T11:43:44.000Z</Time>
            <Position>
              <LatitudeDegrees>42.9585908353328704833984375</LatitudeDegrees>
              <LongitudeDegrees>0.64553822390735149383544921875</LongitudeDegrees>
            </Position>
            <AltitudeMeters>478</AltitudeMeters>
            <DistanceMeters>61573.787687789</DistanceMeters>
          </Trackpoint>
          <Trackpoint>
            <Time>2019-05-08T11:43:45.000Z</Time>
            <Position>
              <LatitudeDegrees>42.95855336822569370269775390625</LatitudeDegrees>
              <LongitudeDegrees>0.64548692665994167327880859375</LongitudeDegrees>
            </Position>
            <AltitudeMeters>478</AltitudeMeters>
            <DistanceMeters>61579.691592859</DistanceMeters>
          </Trackpoint>
          <Trackpoint>
            <Time>2019-05-08T11:43:46.000Z</Time>
            <Position>
              <LatitudeDegrees>42.95852906070649623870849609375</LatitudeDegrees>
              <LongitudeDegrees>0.6454308517277240753173828125</LongitudeDegrees>
            </Position>
            <AltitudeMeters>478</AltitudeMeters>
            <DistanceMeters>61585.001197237</DistanceMeters>
          </Trackpoint>
          <Trackpoint>
            <Time>2019-05-08T11:43:48.000Z</Time>
            <Position>
              <LatitudeDegrees>42.95847994275391101837158203125</LatitudeDegrees>
              <LongitudeDegrees>0.64531870186328887939453125</LongitudeDegrees>
            </Position>
            <AltitudeMeters>478.20001220703125</AltitudeMeters>
            <DistanceMeters>61595.647582517</DistanceMeters>
          </Trackpoint>
          <Trackpoint>
            <Time>2019-05-08T11:43:50.000Z</Time>
            <Position>
              <LatitudeDegrees>42.95840215869247913360595703125</LatitudeDegrees>
              <LongitudeDegrees>0.64522390253841876983642578125</LongitudeDegrees>
            </Position>
            <AltitudeMeters>478.20001220703125</AltitudeMeters>
            <DistanceMeters>61607.24862813</DistanceMeters>
          </Trackpoint>
          <Trackpoint>
            <Time>2019-05-08T11:43:52.000Z</Time>
            <Position>
              <LatitudeDegrees>42.95831465162336826324462890625</LatitudeDegrees>
              <LongitudeDegrees>0.64513958059251308441162109375</LongitudeDegrees>
            </Position>
            <AltitudeMeters>478.20001220703125</AltitudeMeters>
            <DistanceMeters>61619.16681182</DistanceMeters>
          </Trackpoint>
          <Trackpoint>
            <Time>2019-05-08T11:44:00.000Z</Time>
            <Position>
              <LatitudeDegrees>42.95795741491019725799560546875</LatitudeDegrees>
              <LongitudeDegrees>0.6448102556169033050537109375</LongitudeDegrees>
            </Position>
            <AltitudeMeters>478.600006103515625</AltitudeMeters>
            <DistanceMeters>61667.131116417</DistanceMeters>
          </Trackpoint>
          <Trackpoint>
            <Time>2019-05-08T11:44:05.000Z</Time>
            <Position>
              <LatitudeDegrees>42.95774501748383045196533203125</LatitudeDegrees>
              <LongitudeDegrees>0.644578747451305389404296875</LongitudeDegrees>
            </Position>
            <AltitudeMeters>478.20001220703125</AltitudeMeters>
            <DistanceMeters>61697.371716637</DistanceMeters>
          </Trackpoint>
          <Trackpoint>
            <Time>2019-05-08T11:44:06.000Z</Time>
            <Position>
              <LatitudeDegrees>42.957712076604366302490234375</LatitudeDegrees>
              <LongitudeDegrees>0.64452300779521465301513671875</LongitudeDegrees>
            </Position>
            <AltitudeMeters>478.20001220703125</AltitudeMeters>
            <DistanceMeters>61703.207935305</DistanceMeters>
          </Trackpoint>
          <Trackpoint>
            <Time>2019-05-08T11:44:08.000Z</Time>
            <Position>
              <LatitudeDegrees>42.9576438479125499725341796875</LatitudeDegrees>
              <LongitudeDegrees>0.6444357521831989288330078125</LongitudeDegrees>
            </Position>
            <AltitudeMeters>478.399993896484375</AltitudeMeters>
            <DistanceMeters>61713.609346069</DistanceMeters>
          </Trackpoint>
          <Trackpoint>
            <Time>2019-05-08T11:44:09.000Z</Time>
            <Position>
              <LatitudeDegrees>42.9576051235198974609375</LatitudeDegrees>
              <LongitudeDegrees>0.64442527480423450469970703125</LongitudeDegrees>
            </Position>
            <AltitudeMeters>478.399993896484375</AltitudeMeters>
            <DistanceMeters>61718.002212259</DistanceMeters>
          </Trackpoint>
          <Trackpoint>
            <Time>2019-05-08T11:44:11.000Z</Time>
            <Position>
              <LatitudeDegrees>42.95752859674394130706787109375</LatitudeDegrees>
              <LongitudeDegrees>0.64442208968102931976318359375</LongitudeDegrees>
            </Position>
            <AltitudeMeters>478.399993896484375</AltitudeMeters>
            <DistanceMeters>61726.522882104</DistanceMeters>
          </Trackpoint>
          <Trackpoint>
            <Time>2019-05-08T11:44:13.000Z</Time>
            <Position>
              <LatitudeDegrees>42.95746288262307643890380859375</LatitudeDegrees>
              <LongitudeDegrees>0.64435889013111591339111328125</LongitudeDegrees>
            </Position>
            <AltitudeMeters>478.600006103515625</AltitudeMeters>
            <DistanceMeters>61735.467011308</DistanceMeters>
          </Trackpoint>
          <Trackpoint>
            <Time>2019-05-08T11:44:15.000Z</Time>
            <Position>
              <LatitudeDegrees>42.95741158537566661834716796875</LatitudeDegrees>
              <LongitudeDegrees>0.644251517951488494873046875</LongitudeDegrees>
            </Position>
            <AltitudeMeters>478.79998779296875</AltitudeMeters>
            <DistanceMeters>61745.911739812</DistanceMeters>
          </Trackpoint>
          <Trackpoint>
            <Time>2019-05-08T11:44:16.000Z</Time>
            <Position>
              <LatitudeDegrees>42.95737512409687042236328125</LatitudeDegrees>
              <LongitudeDegrees>0.64420902170240879058837890625</LongitudeDegrees>
            </Position>
            <AltitudeMeters>478.600006103515625</AltitudeMeters>
            <DistanceMeters>61751.245100928</DistanceMeters>
          </Trackpoint>
          <Trackpoint>
            <Time>2019-05-08T11:44:17.000Z</Time>
            <Position>
              <LatitudeDegrees>42.957329861819744110107421875</LatitudeDegrees>
              <LongitudeDegrees>0.64417717047035694122314453125</LongitudeDegrees>
            </Position>
            <AltitudeMeters>478.79998779296875</AltitudeMeters>
            <DistanceMeters>61756.911753541</DistanceMeters>
          </Trackpoint>
          <Trackpoint>
            <Time>2019-05-08T11:44:22.000Z</Time>
            <Position>
              <LatitudeDegrees>42.9570792429149150848388671875</LatitudeDegrees>
              <LongitudeDegrees>0.644070468842983245849609375</LongitudeDegrees>
            </Position>
            <AltitudeMeters>479</AltitudeMeters>
            <DistanceMeters>61786.128875515</DistanceMeters>
          </Trackpoint>
          <Trackpoint>
            <Time>2019-05-08T11:44:24.000Z</Time>
            <Position>
              <LatitudeDegrees>42.95697036199271678924560546875</LatitudeDegrees>
              <LongitudeDegrees>0.6440615840256214141845703125</LongitudeDegrees>
            </Position>
            <AltitudeMeters>479.20001220703125</AltitudeMeters>
            <DistanceMeters>61798.26888695</DistanceMeters>
          </Trackpoint>
          <Trackpoint>
            <Time>2019-05-08T11:44:25.000Z</Time>
            <Position>
              <LatitudeDegrees>42.95692007057368755340576171875</LatitudeDegrees>
              <LongitudeDegrees>0.6440679542720317840576171875</LongitudeDegrees>
            </Position>
            <AltitudeMeters>479.399993896484375</AltitudeMeters>
            <DistanceMeters>61803.890743188</DistanceMeters>
          </Trackpoint>
          <Trackpoint>
            <Time>2019-05-08T11:44:26.000Z</Time>
            <Position>
              <LatitudeDegrees>42.95687078498303890228271484375</LatitudeDegrees>
              <LongitudeDegrees>0.64406233839690685272216796875</LongitudeDegrees>
            </Position>
            <AltitudeMeters>479.600006103515625</AltitudeMeters>
            <DistanceMeters>61809.395735154</DistanceMeters>
          </Trackpoint>
          <Trackpoint>
            <Time>2019-05-08T11:44:27.000Z</Time>
            <Position>
              <LatitudeDegrees>42.9568237625062465667724609375</LatitudeDegrees>
              <LongitudeDegrees>0.64404306001961231231689453125</LongitudeDegrees>
            </Position>
            <AltitudeMeters>479.79998779296875</AltitudeMeters>
            <DistanceMeters>61814.860390934</DistanceMeters>
          </Trackpoint>
          <Trackpoint>
            <Time>2019-05-08T11:44:29.000Z</Time>
            <Position>
              <LatitudeDegrees>42.956735752522945404052734375</LatitudeDegrees>
              <LongitudeDegrees>0.643981955945491790771484375</LongitudeDegrees>
            </Position>
            <AltitudeMeters>480.20001220703125</AltitudeMeters>
            <DistanceMeters>61825.848207918</DistanceMeters>
          </Trackpoint>
          <Trackpoint>
            <Time>2019-05-08T11:44:35.000Z</Time>
            <Position>
              <LatitudeDegrees>42.9564423859119415283203125</LatitudeDegrees>
              <LongitudeDegrees>0.6438118033111095428466796875</LongitudeDegrees>
            </Position>
            <AltitudeMeters>480.20001220703125</AltitudeMeters>
            <DistanceMeters>61861.320294293</DistanceMeters>
          </Trackpoint>
          <Trackpoint>
            <Time>2019-05-08T11:44:43.000Z</Time>
            <Position>
              <LatitudeDegrees>42.95604131184518337249755859375</LatitudeDegrees>
              <LongitudeDegrees>0.64358809031546115875244140625</LongitudeDegrees>
            </Position>
            <AltitudeMeters>480.20001220703125</AltitudeMeters>
            <DistanceMeters>61909.53705892</DistanceMeters>
          </Trackpoint>
          <Trackpoint>
            <Time>2019-05-08T11:44:50.000Z</Time>
            <Position>
              <LatitudeDegrees>42.9556618630886077880859375</LatitudeDegrees>
              <LongitudeDegrees>0.6434034369885921478271484375</LongitudeDegrees>
            </Position>
            <AltitudeMeters>480.20001220703125</AltitudeMeters>
            <DistanceMeters>61954.369127965</DistanceMeters>
          </Trackpoint>
          <Trackpoint>
            <Time>2019-05-08T11:44:52.000Z</Time>
            <Position>
              <LatitudeDegrees>42.9555507190525531768798828125</LatitudeDegrees>
              <LongitudeDegrees>0.643355660140514373779296875</LongitudeDegrees>
            </Position>
            <AltitudeMeters>480.600006103515625</AltitudeMeters>
            <DistanceMeters>61967.337054308</DistanceMeters>
          </Trackpoint>
          <Trackpoint>
            <Time>2019-05-08T11:44:59.000Z</Time>
            <Position>
              <LatitudeDegrees>42.9551514051854610443115234375</LatitudeDegrees>
              <LongitudeDegrees>0.64321358688175678253173828125</LongitudeDegrees>
            </Position>
            <AltitudeMeters>481.20001220703125</AltitudeMeters>
            <DistanceMeters>62013.263574487</DistanceMeters>
          </Trackpoint>
          <Trackpoint>
            <Time>2019-05-08T11:45:06.000Z</Time>
            <Position>
              <LatitudeDegrees>42.954733483493328094482421875</LatitudeDegrees>
              <LongitudeDegrees>0.64310562796890735626220703125</LongitudeDegrees>
            </Position>
            <AltitudeMeters>482.20001220703125</AltitudeMeters>
            <DistanceMeters>62060.603094884</DistanceMeters>
          </Trackpoint>
          <Trackpoint>
            <Time>2019-05-08T11:45:07.000Z</Time>
            <Position>
              <LatitudeDegrees>42.954673469066619873046875</LatitudeDegrees>
              <LongitudeDegrees>0.643094815313816070556640625</LongitudeDegrees>
            </Position>
            <AltitudeMeters>482.399993896484375</AltitudeMeters>
            <DistanceMeters>62067.340616259</DistanceMeters>
          </Trackpoint>
          <Trackpoint>
            <Time>2019-05-08T11:45:14.000Z</Time>
            <Position>
              <LatitudeDegrees>42.9542475007474422454833984375</LatitudeDegrees>
              <LongitudeDegrees>0.6430153548717498779296875</LongitudeDegrees>
            </Position>
            <AltitudeMeters>482.20001220703125</AltitudeMeters>
            <DistanceMeters>62115.191638856</DistanceMeters>
          </Trackpoint>
          <Trackpoint>
            <Time>2019-05-08T11:45:15.000Z</Time>
            <Position>
              <LatitudeDegrees>42.9541854746639728546142578125</LatitudeDegrees>
              <LongitudeDegrees>0.64300420694053173065185546875</LongitudeDegrees>
            </Position>
            <AltitudeMeters>482.20001220703125</AltitudeMeters>
            <DistanceMeters>62122.15392658</DistanceMeters>
          </Trackpoint>
          <Trackpoint>
            <Time>2019-05-08T11:45:19.000Z</Time>
            <Position>
              <LatitudeDegrees>42.9539360292255878448486328125</LatitudeDegrees>
              <LongitudeDegrees>0.64291586168110370635986328125</LongitudeDegrees>
            </Position>
            <AltitudeMeters>481.79998779296875</AltitudeMeters>
            <DistanceMeters>62150.835312598</DistanceMeters>
          </Trackpoint>
          <Trackpoint>
            <Time>2019-05-08T11:45:25.000Z</Time>
            <Position>
              <LatitudeDegrees>42.953558675944805145263671875</LatitudeDegrees>
              <LongitudeDegrees>0.64275409094989299774169921875</LongitudeDegrees>
            </Position>
            <AltitudeMeters>481.600006103515625</AltitudeMeters>
            <DistanceMeters>62194.854328981</DistanceMeters>
          </Trackpoint>
          <Trackpoint>
            <Time>2019-05-08T11:45:32.000Z</Time>
            <Position>
              <LatitudeDegrees>42.9531528241932392120361328125</LatitudeDegrees>
              <LongitudeDegrees>0.6425672583281993865966796875</LongitudeDegrees>
            </Position>
            <AltitudeMeters>481.399993896484375</AltitudeMeters>
            <DistanceMeters>62242.521570301</DistanceMeters>
          </Trackpoint>
          <Trackpoint>
            <Time>2019-05-08T11:45:36.000Z</Time>
            <Position>
              <LatitudeDegrees>42.95294721610844135284423828125</LatitudeDegrees>
              <LongitudeDegrees>0.64247681759297847747802734375</LongitudeDegrees>
            </Position>
            <AltitudeMeters>481.399993896484375</AltitudeMeters>
            <DistanceMeters>62266.56276563</DistanceMeters>
          </Trackpoint>
          <Trackpoint>
            <Time>2019-05-08T11:45:37.000Z</Time>
            <Position>
              <LatitudeDegrees>42.952910922467708587646484375</LatitudeDegrees>
              <LongitudeDegrees>0.6424468941986560821533203125</LongitudeDegrees>
            </Position>
            <AltitudeMeters>481.600006103515625</AltitudeMeters>
            <DistanceMeters>62271.279767682</DistanceMeters>
          </Trackpoint>
          <Trackpoint>
            <Time>2019-05-08T11:45:39.000Z</Time>
            <Position>
              <LatitudeDegrees>42.95286524109542369842529296875</LatitudeDegrees>
              <LongitudeDegrees>0.642390735447406768798828125</LongitudeDegrees>
            </Position>
            <AltitudeMeters>481.600006103515625</AltitudeMeters>
            <DistanceMeters>62278.119711107</DistanceMeters>
          </Trackpoint>
          <Trackpoint>
            <Time>2019-05-08T11:45:40.000Z</Time>
            <Position>
              <LatitudeDegrees>42.9528527520596981048583984375</LatitudeDegrees>
              <LongitudeDegrees>0.6423473171889781951904296875</LongitudeDegrees>
            </Position>
            <AltitudeMeters>481.600006103515625</AltitudeMeters>
            <DistanceMeters>62281.919591662</DistanceMeters>
          </Trackpoint>
          <Trackpoint>
            <Time>2019-05-08T11:45:41.000Z</Time>
            <Position>
              <LatitudeDegrees>42.95283204875886440277099609375</LatitudeDegrees>
              <LongitudeDegrees>0.64230096526443958282470703125</LongitudeDegrees>
            </Position>
            <AltitudeMeters>481.79998779296875</AltitudeMeters>
            <DistanceMeters>62286.343184733</DistanceMeters>
          </Trackpoint>
          <Trackpoint>
            <Time>2019-05-08T11:45:43.000Z</Time>
            <Position>
              <LatitudeDegrees>42.95275778509676456451416015625</LatitudeDegrees>
              <LongitudeDegrees>0.64222753979265689849853515625</LongitudeDegrees>
            </Position>
            <AltitudeMeters>482</AltitudeMeters>
            <DistanceMeters>62296.546062819</DistanceMeters>
          </Trackpoint>
          <Trackpoint>
            <Time>2019-05-08T11:45:45.000Z</Time>
            <Position>
              <LatitudeDegrees>42.95266675762832164764404296875</LatitudeDegrees>
              <LongitudeDegrees>0.64217339269816875457763671875</LongitudeDegrees>
            </Position>
            <AltitudeMeters>482.20001220703125</AltitudeMeters>
            <DistanceMeters>62307.59616208</DistanceMeters>
          </Trackpoint>
          <Trackpoint>
            <Time>2019-05-08T11:45:46.000Z</Time>
            <Position>
              <LatitudeDegrees>42.952616550028324127197265625</LatitudeDegrees>
              <LongitudeDegrees>0.64216417260468006134033203125</LongitudeDegrees>
            </Position>
            <AltitudeMeters>482.20001220703125</AltitudeMeters>
            <DistanceMeters>62313.23565933</DistanceMeters>
          </Trackpoint>
          <Trackpoint>
            <Time>2019-05-08T11:45:47.000Z</Time>
            <Position>
              <LatitudeDegrees>42.9525692760944366455078125</LatitudeDegrees>
              <LongitudeDegrees>0.64216576516628265380859375</LongitudeDegrees>
            </Position>
            <AltitudeMeters>482.20001220703125</AltitudeMeters>
            <DistanceMeters>62318.500002082</DistanceMeters>
          </Trackpoint>
          <Trackpoint>
            <Time>2019-05-08T11:45:49.000Z</Time>
            <Position>
              <LatitudeDegrees>42.95249057002365589141845703125</LatitudeDegrees>
              <LongitudeDegrees>0.642191581428050994873046875</LongitudeDegrees>
            </Position>
            <AltitudeMeters>482.399993896484375</AltitudeMeters>
            <DistanceMeters>62327.509015739</DistanceMeters>
          </Trackpoint>
          <Trackpoint>
            <Time>2019-05-08T11:45:51.000Z</Time>
            <Position>
              <LatitudeDegrees>42.95241295360028743743896484375</LatitudeDegrees>
              <LongitudeDegrees>0.64218646846711635589599609375</LongitudeDegrees>
            </Position>
            <AltitudeMeters>482.79998779296875</AltitudeMeters>
            <DistanceMeters>62336.157490934</DistanceMeters>
          </Trackpoint>
          <Trackpoint>
            <Time>2019-05-08T11:45:52.000Z</Time>
            <Position>
              <LatitudeDegrees>42.95238554477691650390625</LatitudeDegrees>
              <LongitudeDegrees>0.64216786064207553863525390625</LongitudeDegrees>
            </Position>
            <AltitudeMeters>482.79998779296875</AltitudeMeters>
            <DistanceMeters>62339.562578033</DistanceMeters>
          </Trackpoint>
          <Trackpoint>
            <Time>2019-05-08T11:45:54.000Z</Time>
            <Position>
              <LatitudeDegrees>42.95233902521431446075439453125</LatitudeDegrees>
              <LongitudeDegrees>0.642119161784648895263671875</LongitudeDegrees>
            </Position>
            <AltitudeMeters>483</AltitudeMeters>
            <DistanceMeters>62346.085592689</DistanceMeters>
          </Trackpoint>
          <Trackpoint>
            <Time>2019-05-08T11:45:55.000Z</Time>
            <Position>
              <LatitudeDegrees>42.95230977237224578857421875</LatitudeDegrees>
              <LongitudeDegrees>0.6421005539596080780029296875</LongitudeDegrees>
            </Position>
            <AltitudeMeters>483.20001220703125</AltitudeMeters>
            <DistanceMeters>62349.676546485</DistanceMeters>
          </Trackpoint>
          <Trackpoint>
            <Time>2019-05-08T11:45:59.000Z</Time>
            <Position>
              <LatitudeDegrees>42.95215713791549205780029296875</LatitudeDegrees>
              <LongitudeDegrees>0.6420122087001800537109375</LongitudeDegrees>
            </Position>
            <AltitudeMeters>483</AltitudeMeters>
            <DistanceMeters>62368.126662791</DistanceMeters>
          </Trackpoint>
          <Trackpoint>
            <Time>2019-05-08T11:46:00.000Z</Time>
            <Position>
              <LatitudeDegrees>42.95211221091449260711669921875</LatitudeDegrees>
              <LongitudeDegrees>0.64199083484709262847900390625</LongitudeDegrees>
            </Position>
            <AltitudeMeters>483</AltitudeMeters>
            <DistanceMeters>62373.421791435</DistanceMeters>
          </Trackpoint>
          <Trackpoint>
            <Time>2019-05-08T11:46:03.000Z</Time>
            <Position>
              <LatitudeDegrees>42.95196376740932464599609375</LatitudeDegrees>
              <LongitudeDegrees>0.64192377962172031402587890625</LongitudeDegrees>
            </Position>
            <AltitudeMeters>483</AltitudeMeters>
            <DistanceMeters>62390.823619314</DistanceMeters>
          </Trackpoint>
          <Trackpoint>
            <Time>2019-05-08T11:46:07.000Z</Time>
            <Position>
              <LatitudeDegrees>42.95175011269748210906982421875</LatitudeDegrees>
              <LongitudeDegrees>0.64183308742940425872802734375</LongitudeDegrees>
            </Position>
            <AltitudeMeters>483</AltitudeMeters>
            <DistanceMeters>62415.725151784</DistanceMeters>
          </Trackpoint>
          <Trackpoint>
            <Time>2019-05-08T11:46:15.000Z</Time>
            <Position>
              <LatitudeDegrees>42.9512933827936649322509765625</LatitudeDegrees>
              <LongitudeDegrees>0.64167802222073078155517578125</LongitudeDegrees>
            </Position>
            <AltitudeMeters>482.600006103515625</AltitudeMeters>
            <DistanceMeters>62468.106166163</DistanceMeters>
          </Trackpoint>
          <Trackpoint>
            <Time>2019-05-08T11:46:23.000Z</Time>
            <Position>
              <LatitudeDegrees>42.95080983079969882965087890625</LatitudeDegrees>
              <LongitudeDegrees>0.64165840856730937957763671875</LongitudeDegrees>
            </Position>
            <AltitudeMeters>482.600006103515625</AltitudeMeters>
            <DistanceMeters>62521.950184242</DistanceMeters>
          </Trackpoint>
          <Trackpoint>
            <Time>2019-05-08T11:46:28.000Z</Time>
            <Position>
              <LatitudeDegrees>42.9505262710154056549072265625</LatitudeDegrees>
              <LongitudeDegrees>0.6416164152324199676513671875</LongitudeDegrees>
            </Position>
            <AltitudeMeters>482.79998779296875</AltitudeMeters>
            <DistanceMeters>62553.695934375</DistanceMeters>
          </Trackpoint>
          <Trackpoint>
            <Time>2019-05-08T11:46:29.000Z</Time>
            <Position>
              <LatitudeDegrees>42.950466088950634002685546875</LatitudeDegrees>
              <LongitudeDegrees>0.64161465503275394439697265625</LongitudeDegrees>
            </Position>
            <AltitudeMeters>482.79998779296875</AltitudeMeters>
            <DistanceMeters>62560.395149248</DistanceMeters>
          </Trackpoint>
          <Trackpoint>
            <Time>2019-05-08T11:46:30.000Z</Time>
            <Position>
              <LatitudeDegrees>42.950405068695545196533203125</LatitudeDegrees>
              <LongitudeDegrees>0.6416190974414348602294921875</LongitudeDegrees>
            </Position>
            <AltitudeMeters>482.79998779296875</AltitudeMeters>
            <DistanceMeters>62567.196035334</DistanceMeters>
          </Trackpoint>
          <Trackpoint>
            <Time>2019-05-08T11:46:35.000Z</Time>
            <Position>
              <LatitudeDegrees>42.9501004703342914581298828125</LatitudeDegrees>
              <LongitudeDegrees>0.6416841410100460052490234375</LongitudeDegrees>
            </Position>
            <AltitudeMeters>483</AltitudeMeters>
            <DistanceMeters>62601.509891101</DistanceMeters>
          </Trackpoint>
          <Trackpoint>
            <Time>2019-05-08T11:46:37.000Z</Time>
            <Position>
              <LatitudeDegrees>42.9499821178615093231201171875</LatitudeDegrees>
              <LongitudeDegrees>0.64171917736530303955078125</LongitudeDegrees>
            </Position>
            <AltitudeMeters>482.79998779296875</AltitudeMeters>
            <DistanceMeters>62614.988284102</DistanceMeters>
          </Trackpoint>
          <Trackpoint>
            <Time>2019-05-08T11:46:42.000Z</Time>
            <Position>
              <LatitudeDegrees>42.94969771988689899444580078125</LatitudeDegrees>
              <LongitudeDegrees>0.64185923896729946136474609375</LongitudeDegrees>
            </Position>
            <AltitudeMeters>483</AltitudeMeters>
            <DistanceMeters>62648.636061509</DistanceMeters>
          </Trackpoint>
          <Trackpoint>
            <Time>2019-05-08T11:46:46.000Z</Time>
            <Position>
              <LatitudeDegrees>42.94950359500944614410400390625</LatitudeDegrees>
              <LongitudeDegrees>0.64202955923974514007568359375</LongitudeDegrees>
            </Position>
            <AltitudeMeters>483.399993896484375</AltitudeMeters>
            <DistanceMeters>62674.314382753</DistanceMeters>
          </Trackpoint>
          <Trackpoint>
            <Time>2019-05-08T11:46:47.000Z</Time>
            <Position>
              <LatitudeDegrees>42.9494564048945903778076171875</LatitudeDegrees>
              <LongitudeDegrees>0.6420760788023471832275390625</LongitudeDegrees>
            </Position>
            <AltitudeMeters>483.600006103515625</AltitudeMeters>
            <DistanceMeters>62680.791553058</DistanceMeters>
          </Trackpoint>
          <Trackpoint>
            <Time>2019-05-08T11:46:55.000Z</Time>
            <Position>
              <LatitudeDegrees>42.94910947792232036590576171875</LatitudeDegrees>
              <LongitudeDegrees>0.6425139494240283966064453125</LongitudeDegrees>
            </Position>
            <AltitudeMeters>484.20001220703125</AltitudeMeters>
            <DistanceMeters>62733.360997936</DistanceMeters>
          </Trackpoint>
          <Trackpoint>
            <Time>2019-05-08T11:47:00.000Z</Time>
            <Position>
              <LatitudeDegrees>42.94890495948493480682373046875</LatitudeDegrees>
              <LongitudeDegrees>0.64279801212251186370849609375</LongitudeDegrees>
            </Position>
            <AltitudeMeters>484.399993896484375</AltitudeMeters>
            <DistanceMeters>62765.822323855</DistanceMeters>
          </Trackpoint>
          <Trackpoint>
            <Time>2019-05-08T11:47:02.000Z</Time>
            <Position>
              <LatitudeDegrees>42.94880353845655918121337890625</LatitudeDegrees>
              <LongitudeDegrees>0.6428861059248447418212890625</LongitudeDegrees>
            </Position>
            <AltitudeMeters>484.399993896484375</AltitudeMeters>
            <DistanceMeters>62779.198831797</DistanceMeters>
          </Trackpoint>
          <Trackpoint>
            <Time>2019-05-08T11:47:04.000Z</Time>
            <Position>
              <LatitudeDegrees>42.94869943521916866302490234375</LatitudeDegrees>
              <LongitudeDegrees>0.6429724395275115966796875</LongitudeDegrees>
            </Position>
            <AltitudeMeters>484.600006103515625</AltitudeMeters>
            <DistanceMeters>62792.753385841</DistanceMeters>
          </Trackpoint>
          <Trackpoint>
            <Time>2019-05-08T11:47:07.000Z</Time>
            <Position>
              <LatitudeDegrees>42.948553673923015594482421875</LatitudeDegrees>
              <LongitudeDegrees>0.64314301125705242156982421875</LongitudeDegrees>
            </Position>
            <AltitudeMeters>484.79998779296875</AltitudeMeters>
            <DistanceMeters>62814.114748692</DistanceMeters>
          </Trackpoint>
          <Trackpoint>
            <Time>2019-05-08T11:47:14.000Z</Time>
            <Position>
              <LatitudeDegrees>42.9482406936585903167724609375</LatitudeDegrees>
              <LongitudeDegrees>0.64359412528574466705322265625</LongitudeDegrees>
            </Position>
            <AltitudeMeters>485</AltitudeMeters>
            <DistanceMeters>62864.752843318</DistanceMeters>
          </Trackpoint>
          <Trackpoint>
            <Time>2019-05-08T11:47:19.000Z</Time>
            <Position>
              <LatitudeDegrees>42.94799384661018848419189453125</LatitudeDegrees>
              <LongitudeDegrees>0.643840134143829345703125</LongitudeDegrees>
            </Position>
            <AltitudeMeters>485.20001220703125</AltitudeMeters>
            <DistanceMeters>62898.760725796</DistanceMeters>
          </Trackpoint>
          <Trackpoint>
            <Time>2019-05-08T11:47:25.000Z</Time>
            <Position>
              <LatitudeDegrees>42.9476901702582836151123046875</LatitudeDegrees>
              <LongitudeDegrees>0.6441802717745304107666015625</LongitudeDegrees>
            </Position>
            <AltitudeMeters>485.600006103515625</AltitudeMeters>
            <DistanceMeters>62942.467952908</DistanceMeters>
          </Trackpoint>
          <Trackpoint>
            <Time>2019-05-08T11:47:31.000Z</Time>
            <Position>
              <LatitudeDegrees>42.94741214253008365631103515625</LatitudeDegrees>
              <LongitudeDegrees>0.64452267251908779144287109375</LongitudeDegrees>
            </Position>
            <AltitudeMeters>485.600006103515625</AltitudeMeters>
            <DistanceMeters>62984.130421559</DistanceMeters>
          </Trackpoint>
          <Trackpoint>
            <Time>2019-05-08T11:47:33.000Z</Time>
            <Position>
              <LatitudeDegrees>42.94731239788234233856201171875</LatitudeDegrees>
              <LongitudeDegrees>0.6446191482245922088623046875</LongitudeDegrees>
            </Position>
            <AltitudeMeters>485.600006103515625</AltitudeMeters>
            <DistanceMeters>62997.732857603</DistanceMeters>
          </Trackpoint>
          <Trackpoint>
            <Time>2019-05-08T11:47:38.000Z</Time>
            <Position>
              <LatitudeDegrees>42.94704652391374111175537109375</LatitudeDegrees>
              <LongitudeDegrees>0.64484688453376293182373046875</LongitudeDegrees>
            </Position>
            <AltitudeMeters>485.79998779296875</AltitudeMeters>
            <DistanceMeters>63032.660701761</DistanceMeters>
          </Trackpoint>
          <Trackpoint>
            <Time>2019-05-08T11:47:41.000Z</Time>
            <Position>
              <LatitudeDegrees>42.946892045438289642333984375</LatitudeDegrees>
              <LongitudeDegrees>0.6449856050312519073486328125</LongitudeDegrees>
            </Position>
            <AltitudeMeters>485.79998779296875</AltitudeMeters>
            <DistanceMeters>63053.236344495</DistanceMeters>
          </Trackpoint>
          <Trackpoint>
            <Time>2019-05-08T11:47:42.000Z</Time>
            <Position>
              <LatitudeDegrees>42.9468452744185924530029296875</LatitudeDegrees>
              <LongitudeDegrees>0.6450382433831691741943359375</LongitudeDegrees>
            </Position>
            <AltitudeMeters>485.79998779296875</AltitudeMeters>
            <DistanceMeters>63059.98123331</DistanceMeters>
          </Trackpoint>
          <Trackpoint>
            <Time>2019-05-08T11:47:45.000Z</Time>
            <Position>
              <LatitudeDegrees>42.94671091251075267791748046875</LatitudeDegrees>
              <LongitudeDegrees>0.64520847983658313751220703125</LongitudeDegrees>
            </Position>
            <AltitudeMeters>486</AltitudeMeters>
            <DistanceMeters>63080.377694321</DistanceMeters>
          </Trackpoint>
          <Trackpoint>
            <Time>2019-05-08T11:47:46.000Z</Time>
            <Position>
              <LatitudeDegrees>42.94665508903563022613525390625</LatitudeDegrees>
              <LongitudeDegrees>0.64524100162088871002197265625</LongitudeDegrees>
            </Position>
            <AltitudeMeters>485.79998779296875</AltitudeMeters>
            <DistanceMeters>63087.132616694</DistanceMeters>
          </Trackpoint>
          <Trackpoint>
            <Time>2019-05-08T11:47:47.000Z</Time>
            <Position>
              <LatitudeDegrees>42.9465981759130954742431640625</LatitudeDegrees>
              <LongitudeDegrees>0.64524988643825054168701171875</LongitudeDegrees>
            </Position>
            <AltitudeMeters>486.20001220703125</AltitudeMeters>
            <DistanceMeters>63093.508618902</DistanceMeters>
          </Trackpoint>
          <Trackpoint>
            <Time>2019-05-08T11:47:50.000Z</Time>
            <Position>
              <LatitudeDegrees>42.94642827473580837249755859375</LatitudeDegrees>
              <LongitudeDegrees>0.64524401910603046417236328125</LongitudeDegrees>
            </Position>
            <AltitudeMeters>486.399993896484375</AltitudeMeters>
            <DistanceMeters>63112.424903134</DistanceMeters>
          </Trackpoint>
          <Trackpoint>
            <Time>2019-05-08T11:47:52.000Z</Time>
            <Position>
              <LatitudeDegrees>42.9463091678917407989501953125</LatitudeDegrees>
              <LongitudeDegrees>0.64525558613240718841552734375</LongitudeDegrees>
            </Position>
            <AltitudeMeters>486.600006103515625</AltitudeMeters>
            <DistanceMeters>63125.715060968</DistanceMeters>
          </Trackpoint>
          <Trackpoint>
            <Time>2019-05-08T11:47:58.000Z</Time>
            <Position>
              <LatitudeDegrees>42.9459366761147975921630859375</LatitudeDegrees>
              <LongitudeDegrees>0.64532264135777950286865234375</LongitudeDegrees>
            </Position>
            <AltitudeMeters>487.20001220703125</AltitudeMeters>
            <DistanceMeters>63167.532538099</DistanceMeters>
          </Trackpoint>
          <Trackpoint>
            <Time>2019-05-08T11:48:06.000Z</Time>
            <Position>
              <LatitudeDegrees>42.94542663730680942535400390625</LatitudeDegrees>
              <LongitudeDegrees>0.6454462744295597076416015625</LongitudeDegrees>
            </Position>
            <AltitudeMeters>487.20001220703125</AltitudeMeters>
            <DistanceMeters>63225.187682018</DistanceMeters>
          </Trackpoint>
          <Trackpoint>
            <Time>2019-05-08T11:48:10.000Z</Time>
            <Position>
              <LatitudeDegrees>42.94518649578094482421875</LatitudeDegrees>
              <LongitudeDegrees>0.64550905488431453704833984375</LongitudeDegrees>
            </Position>
            <AltitudeMeters>487.20001220703125</AltitudeMeters>
            <DistanceMeters>63252.400851057</DistanceMeters>
          </Trackpoint>
          <Trackpoint>
            <Time>2019-05-08T11:48:14.000Z</Time>
            <Position>
              <LatitudeDegrees>42.94493663124740123748779296875</LatitudeDegrees>
              <LongitudeDegrees>0.64557015895843505859375</LongitudeDegrees>
            </Position>
            <AltitudeMeters>487</AltitudeMeters>
            <DistanceMeters>63280.653365586</DistanceMeters>
          </Trackpoint>
          <Trackpoint>
            <Time>2019-05-08T11:48:23.000Z</Time>
            <Position>
              <LatitudeDegrees>42.9443689249455928802490234375</LatitudeDegrees>
              <LongitudeDegrees>0.645720027387142181396484375</LongitudeDegrees>
            </Position>
            <AltitudeMeters>487</AltitudeMeters>
            <DistanceMeters>63345.009256391</DistanceMeters>
          </Trackpoint>
          <Trackpoint>
            <Time>2019-05-08T11:48:30.000Z</Time>
            <Position>
              <LatitudeDegrees>42.943904399871826171875</LatitudeDegrees>
              <LongitudeDegrees>0.64584131352603435516357421875</LongitudeDegrees>
            </Position>
            <AltitudeMeters>487.20001220703125</AltitudeMeters>
            <DistanceMeters>63397.64770922</DistanceMeters>
          </Trackpoint>
          <Trackpoint>
            <Time>2019-05-08T11:48:34.000Z</Time>
            <Position>
              <LatitudeDegrees>42.94365855865180492401123046875</LatitudeDegrees>
              <LongitudeDegrees>0.64594390802085399627685546875</LongitudeDegrees>
            </Position>
            <AltitudeMeters>487.20001220703125</AltitudeMeters>
            <DistanceMeters>63426.258641741</DistanceMeters>
          </Trackpoint>
          <Trackpoint>
            <Time>2019-05-08T11:48:36.000Z</Time>
            <Position>
              <LatitudeDegrees>42.9435515217483043670654296875</LatitudeDegrees>
              <LongitudeDegrees>0.646034181118011474609375</LongitudeDegrees>
            </Position>
            <AltitudeMeters>487.20001220703125</AltitudeMeters>
            <DistanceMeters>63440.259530979</DistanceMeters>
          </Trackpoint>
          <Trackpoint>
            <Time>2019-05-08T11:48:42.000Z</Time>
            <Position>
              <LatitudeDegrees>42.94320828281342983245849609375</LatitudeDegrees>
              <LongitudeDegrees>0.64625470899045467376708984375</LongitudeDegrees>
            </Position>
            <AltitudeMeters>487.600006103515625</AltitudeMeters>
            <DistanceMeters>63482.477281136</DistanceMeters>
          </Trackpoint>
          <Trackpoint>
            <Time>2019-05-08T11:48:49.000Z</Time>
            <Position>
              <LatitudeDegrees>42.94277460314333438873291015625</LatitudeDegrees>
              <LongitudeDegrees>0.64643986523151397705078125</LongitudeDegrees>
            </Position>
            <AltitudeMeters>487.79998779296875</AltitudeMeters>
            <DistanceMeters>63533.049173632</DistanceMeters>
          </Trackpoint>
          <Trackpoint>
            <Time>2019-05-08T11:48:50.000Z</Time>
            <Position>
              <LatitudeDegrees>42.94271173886954784393310546875</LatitudeDegrees>
              <LongitudeDegrees>0.64646777696907520294189453125</LongitudeDegrees>
            </Position>
            <AltitudeMeters>488.20001220703125</AltitudeMeters>
            <DistanceMeters>63540.406229987</DistanceMeters>
          </Trackpoint>
          <Trackpoint>
            <Time>2019-05-08T11:48:59.000Z</Time>
            <Position>
              <LatitudeDegrees>42.94216088019311428070068359375</LatitudeDegrees>
              <LongitudeDegrees>0.64671822823584079742431640625</LongitudeDegrees>
            </Position>
            <AltitudeMeters>488.600006103515625</AltitudeMeters>
            <DistanceMeters>63605.024675248</DistanceMeters>
          </Trackpoint>
          <Trackpoint>
            <Time>2019-05-08T11:49:03.000Z</Time>
            <Position>
              <LatitudeDegrees>42.94191009365022182464599609375</LatitudeDegrees>
              <LongitudeDegrees>0.6468225829303264617919921875</LongitudeDegrees>
            </Position>
            <AltitudeMeters>488.600006103515625</AltitudeMeters>
            <DistanceMeters>63634.204066569</DistanceMeters>
          </Trackpoint>
          <Trackpoint>
            <Time>2019-05-08T11:49:04.000Z</Time>
            <Position>
              <LatitudeDegrees>42.94184756465256214141845703125</LatitudeDegrees>
              <LongitudeDegrees>0.64684563316404819488525390625</LongitudeDegrees>
            </Position>
            <AltitudeMeters>488.600006103515625</AltitudeMeters>
            <DistanceMeters>63641.412329873</DistanceMeters>
          </Trackpoint>
          <Trackpoint>
            <Time>2019-05-08T11:49:05.000Z</Time>
            <Position>
              <LatitudeDegrees>42.94178553856909275054931640625</LatitudeDegrees>
              <LongitudeDegrees>0.64686826430261135101318359375</LongitudeDegrees>
            </Position>
            <AltitudeMeters>488.79998779296875</AltitudeMeters>
            <DistanceMeters>63648.55831352</DistanceMeters>
          </Trackpoint>
          <Trackpoint>
            <Time>2019-05-08T11:49:06.000Z</Time>
            <Position>
              <LatitudeDegrees>42.9417232610285282135009765625</LatitudeDegrees>
              <LongitudeDegrees>0.646888129413127899169921875</LongitudeDegrees>
            </Position>
            <AltitudeMeters>488.600006103515625</AltitudeMeters>
            <DistanceMeters>63655.677076685</DistanceMeters>
          </Trackpoint>
          <Trackpoint>
            <Time>2019-05-08T11:49:07.000Z</Time>
            <Position>
              <LatitudeDegrees>42.9416607320308685302734375</LatitudeDegrees>
              <LongitudeDegrees>0.64690715633332729339599609375</LongitudeDegrees>
            </Position>
            <AltitudeMeters>488.79998779296875</AltitudeMeters>
            <DistanceMeters>63662.807247117</DistanceMeters>
          </Trackpoint>
          <Trackpoint>
            <Time>2019-05-08T11:49:16.000Z</Time>
            <Position>
              <LatitudeDegrees>42.94108481146395206451416015625</LatitudeDegrees>
              <LongitudeDegrees>0.64706909470260143280029296875</LongitudeDegrees>
            </Position>
            <AltitudeMeters>489.20001220703125</AltitudeMeters>
            <DistanceMeters>63728.25223568</DistanceMeters>
          </Trackpoint>
          <Trackpoint>
            <Time>2019-05-08T11:49:24.000Z</Time>
            <Position>
              <LatitudeDegrees>42.940539233386516571044921875</LatitudeDegrees>
              <LongitudeDegrees>0.64717152155935764312744140625</LongitudeDegrees>
            </Position>
            <AltitudeMeters>489</AltitudeMeters>
            <DistanceMeters>63789.546970978</DistanceMeters>
          </Trackpoint>
          <Trackpoint>
            <Time>2019-05-08T11:49:28.000Z</Time>
            <Position>
              <LatitudeDegrees>42.9402819089591503143310546875</LatitudeDegrees>
              <LongitudeDegrees>0.6472344696521759033203125</LongitudeDegrees>
            </Position>
            <AltitudeMeters>488.600006103515625</AltitudeMeters>
            <DistanceMeters>63818.643306776</DistanceMeters>
          </Trackpoint>
          <Trackpoint>
            <Time>2019-05-08T11:49:31.000Z</Time>
            <Position>
              <LatitudeDegrees>42.94010438024997711181640625</LatitudeDegrees>
              <LongitudeDegrees>0.64729808829724788665771484375</LongitudeDegrees>
            </Position>
            <AltitudeMeters>488.399993896484375</AltitudeMeters>
            <DistanceMeters>63839.071177263</DistanceMeters>
          </Trackpoint>
          <Trackpoint>
            <Time>2019-05-08T11:49:36.000Z</Time>
            <Position>
              <LatitudeDegrees>42.939811684191226959228515625</LatitudeDegrees>
              <LongitudeDegrees>0.64742825925350189208984375</LongitudeDegrees>
            </Position>
            <AltitudeMeters>488.399993896484375</AltitudeMeters>
            <DistanceMeters>63873.331965006</DistanceMeters>
          </Trackpoint>
          <Trackpoint>
            <Time>2019-05-08T11:49:39.000Z</Time>
            <Position>
              <LatitudeDegrees>42.939636670053005218505859375</LatitudeDegrees>
              <LongitudeDegrees>0.64747746102511882781982421875</LongitudeDegrees>
            </Position>
            <AltitudeMeters>488.600006103515625</AltitudeMeters>
            <DistanceMeters>63893.220037019</DistanceMeters>
          </Trackpoint>
          <Trackpoint>
            <Time>2019-05-08T11:49:42.000Z</Time>
            <Position>
              <LatitudeDegrees>42.93946844525635242462158203125</LatitudeDegrees>
              <LongitudeDegrees>0.64753965474665164947509765625</LongitudeDegrees>
            </Position>
            <AltitudeMeters>488.600006103515625</AltitudeMeters>
            <DistanceMeters>63912.617594218</DistanceMeters>
          </Trackpoint>
          <Trackpoint>
            <Time>2019-05-08T11:49:44.000Z</Time>
            <Position>
              <LatitudeDegrees>42.9393816925585269927978515625</LatitudeDegrees>
              <LongitudeDegrees>0.64763705246150493621826171875</LongitudeDegrees>
            </Position>
            <AltitudeMeters>489</AltitudeMeters>
            <DistanceMeters>63925.116407061</DistanceMeters>
          </Trackpoint>
          <Trackpoint>
            <Time>2019-05-08T11:49:45.000Z</Time>
            <Position>
              <LatitudeDegrees>42.93935428373515605926513671875</LatitudeDegrees>
              <LongitudeDegrees>0.64770259894430637359619140625</LongitudeDegrees>
            </Position>
            <AltitudeMeters>489.20001220703125</AltitudeMeters>
            <DistanceMeters>63931.267506174</DistanceMeters>
          </Trackpoint>
          <Trackpoint>
            <Time>2019-05-08T11:49:46.000Z</Time>
            <Position>
              <LatitudeDegrees>42.939336262643337249755859375</LatitudeDegrees>
              <LongitudeDegrees>0.64777418039739131927490234375</LongitudeDegrees>
            </Position>
            <AltitudeMeters>489.20001220703125</AltitudeMeters>
            <DistanceMeters>63937.436196645</DistanceMeters>
          </Trackpoint>
          <Trackpoint>
            <Time>2019-05-08T11:49:47.000Z</Time>
            <Position>
              <LatitudeDegrees>42.93932117521762847900390625</LatitudeDegrees>
              <LongitudeDegrees>0.64784693531692028045654296875</LongitudeDegrees>
            </Position>
            <AltitudeMeters>489.399993896484375</AltitudeMeters>
            <DistanceMeters>63943.598296243</DistanceMeters>
          </Trackpoint>
          <Trackpoint>
            <Time>2019-05-08T11:49:49.000Z</Time>
            <Position>
              <LatitudeDegrees>42.9392816126346588134765625</LatitudeDegrees>
              <LongitudeDegrees>0.64798138104379177093505859375</LongitudeDegrees>
            </Position>
            <AltitudeMeters>489.600006103515625</AltitudeMeters>
            <DistanceMeters>63955.404959195</DistanceMeters>
          </Trackpoint>
          <Trackpoint>
            <Time>2019-05-08T11:49:51.000Z</Time>
            <Position>
              <LatitudeDegrees>42.9392086900770664215087890625</LatitudeDegrees>
              <LongitudeDegrees>0.648062936961650848388671875</LongitudeDegrees>
            </Position>
            <AltitudeMeters>489.600006103515625</AltitudeMeters>
            <DistanceMeters>63965.894978811</DistanceMeters>
          </Trackpoint>
          <Trackpoint>
            <Time>2019-05-08T11:49:53.000Z</Time>
            <Position>
              <LatitudeDegrees>42.93911422602832317352294921875</LatitudeDegrees>
              <LongitudeDegrees>0.64807961694896221160888671875</LongitudeDegrees>
            </Position>
            <AltitudeMeters>489.600006103515625</AltitudeMeters>
            <DistanceMeters>63976.496315114</DistanceMeters>
          </Trackpoint>
          <Trackpoint>
            <Time>2019-05-08T11:49:55.000Z</Time>
            <Position>
              <LatitudeDegrees>42.9390187561511993408203125</LatitudeDegrees>
              <LongitudeDegrees>0.64807609654963016510009765625</LongitudeDegrees>
            </Position>
            <AltitudeMeters>489.79998779296875</AltitudeMeters>
            <DistanceMeters>63987.12572321</DistanceMeters>
          </Trackpoint>
          <Trackpoint>
            <Time>2019-05-08T11:49:58.000Z</Time>
            <Position>
              <LatitudeDegrees>42.93888489715754985809326171875</LatitudeDegrees>
              <LongitudeDegrees>0.64806737937033176422119140625</LongitudeDegrees>
            </Position>
            <AltitudeMeters>490.20001220703125</AltitudeMeters>
            <DistanceMeters>64002.041588034</DistanceMeters>
          </Trackpoint>
          <Trackpoint>
            <Time>2019-05-08T11:50:00.000Z</Time>
            <Position>
              <LatitudeDegrees>42.93881348334252834320068359375</LatitudeDegrees>
              <LongitudeDegrees>0.64805229194462299346923828125</LongitudeDegrees>
            </Position>
            <AltitudeMeters>490.399993896484375</AltitudeMeters>
            <DistanceMeters>64010.084688657</DistanceMeters>
          </Trackpoint>
          <Trackpoint>
            <Time>2019-05-08T11:50:01.000Z</Time>
            <Position>
              <LatitudeDegrees>42.93878682889044284820556640625</LatitudeDegrees>
              <LongitudeDegrees>0.6480248831212520599365234375</LongitudeDegrees>
            </Position>
            <AltitudeMeters>490.399993896484375</AltitudeMeters>
            <DistanceMeters>64013.799248767</DistanceMeters>
          </Trackpoint>
          <Trackpoint>
            <Time>2019-05-08T11:50:05.000Z</Time>
            <Position>
              <LatitudeDegrees>42.938736788928508758544921875</LatitudeDegrees>
              <LongitudeDegrees>0.6478290818631649017333984375</LongitudeDegrees>
            </Position>
            <AltitudeMeters>490.600006103515625</AltitudeMeters>
            <DistanceMeters>64030.697980597</DistanceMeters>
          </Trackpoint>
          <Trackpoint>
            <Time>2019-05-08T11:50:06.000Z</Time>
            <Position>
              <LatitudeDegrees>42.93872840702533721923828125</LatitudeDegrees>
              <LongitudeDegrees>0.64777133055031299591064453125</LongitudeDegrees>
            </Position>
            <AltitudeMeters>491</AltitudeMeters>
            <DistanceMeters>64035.494712274</DistanceMeters>
          </Trackpoint>
          <Trackpoint>
            <Time>2019-05-08T11:50:09.000Z</Time>
            <Position>
              <LatitudeDegrees>42.93869932182133197784423828125</LatitudeDegrees>
              <LongitudeDegrees>0.64759296365082263946533203125</LongitudeDegrees>
            </Position>
            <AltitudeMeters>491.600006103515625</AltitudeMeters>
            <DistanceMeters>64050.384522106</DistanceMeters>
          </Trackpoint>
          <Trackpoint>
            <Time>2019-05-08T11:50:10.000Z</Time>
            <Position>
              <LatitudeDegrees>42.93868943117558956146240234375</LatitudeDegrees>
              <LongitudeDegrees>0.64753278158605098724365234375</LongitudeDegrees>
            </Position>
            <AltitudeMeters>491.79998779296875</AltitudeMeters>
            <DistanceMeters>64055.410168713</DistanceMeters>
          </Trackpoint>
          <Trackpoint>
            <Time>2019-05-08T11:50:15.000Z</Time>
            <Position>
              <LatitudeDegrees>42.93864131905138492584228515625</LatitudeDegrees>
              <LongitudeDegrees>0.647233463823795318603515625</LongitudeDegrees>
            </Position>
            <AltitudeMeters>492</AltitudeMeters>
            <DistanceMeters>64080.380325266</DistanceMeters>
          </Trackpoint>
          <Trackpoint>
            <Time>2019-05-08T11:50:21.000Z</Time>
            <Position>
              <LatitudeDegrees>42.93858046643435955047607421875</LatitudeDegrees>
              <LongitudeDegrees>0.6468373350799083709716796875</LongitudeDegrees>
            </Position>
            <AltitudeMeters>491.79998779296875</AltitudeMeters>
            <DistanceMeters>64113.360893152</DistanceMeters>
          </Trackpoint>
          <Trackpoint>
            <Time>2019-05-08T11:50:22.000Z</Time>
            <Position>
              <LatitudeDegrees>42.93857107870280742645263671875</LatitudeDegrees>
              <LongitudeDegrees>0.6467706151306629180908203125</LongitudeDegrees>
            </Position>
            <AltitudeMeters>491.79998779296875</AltitudeMeters>
            <DistanceMeters>64118.896963911</DistanceMeters>
          </Trackpoint>
          <Trackpoint>
            <Time>2019-05-08T11:50:24.000Z</Time>
            <Position>
              <LatitudeDegrees>42.9385515488684177398681640625</LatitudeDegrees>
              <LongitudeDegrees>0.64664228819310665130615234375</LongitudeDegrees>
            </Position>
            <AltitudeMeters>491.79998779296875</AltitudeMeters>
            <DistanceMeters>64129.577222599</DistanceMeters>
          </Trackpoint>
          <Trackpoint>
            <Time>2019-05-08T11:50:26.000Z</Time>
            <Position>
              <LatitudeDegrees>42.93853470124304294586181640625</LatitudeDegrees>
              <LongitudeDegrees>0.64651823602616786956787109375</LongitudeDegrees>
            </Position>
            <AltitudeMeters>491.600006103515625</AltitudeMeters>
            <DistanceMeters>64139.857690229</DistanceMeters>
          </Trackpoint>
          <Trackpoint>
            <Time>2019-05-08T11:50:30.000Z</Time>
            <Position>
              <LatitudeDegrees>42.9385037720203399658203125</LatitudeDegrees>
              <LongitudeDegrees>0.64628429710865020751953125</LongitudeDegrees>
            </Position>
            <AltitudeMeters>491.399993896484375</AltitudeMeters>
            <DistanceMeters>64159.227761893</DistanceMeters>
          </Trackpoint>
          <Trackpoint>
            <Time>2019-05-08T11:50:31.000Z</Time>
            <Position>
              <LatitudeDegrees>42.9384958930313587188720703125</LatitudeDegrees>
              <LongitudeDegrees>0.64622704870998859405517578125</LongitudeDegrees>
            </Position>
            <AltitudeMeters>491.20001220703125</AltitudeMeters>
            <DistanceMeters>64163.974343897</DistanceMeters>
          </Trackpoint>
          <Trackpoint>
            <Time>2019-05-08T11:50:36.000Z</Time>
            <Position>
              <LatitudeDegrees>42.9384335316717624664306640625</LatitudeDegrees>
              <LongitudeDegrees>0.64594038762152194976806640625</LongitudeDegrees>
            </Position>
            <AltitudeMeters>490.79998779296875</AltitudeMeters>
            <DistanceMeters>64188.341609778</DistanceMeters>
          </Trackpoint>
          <Trackpoint>
            <Time>2019-05-08T11:50:38.000Z</Time>
            <Position>
              <LatitudeDegrees>42.938406206667423248291015625</LatitudeDegrees>
              <LongitudeDegrees>0.64585355110466480255126953125</LongitudeDegrees>
            </Position>
            <AltitudeMeters>490.79998779296875</AltitudeMeters>
            <DistanceMeters>64196.04287864</DistanceMeters>
          </Trackpoint>
          <Trackpoint>
            <Time>2019-05-08T11:50:40.000Z</Time>
            <Position>
              <LatitudeDegrees>42.93838776648044586181640625</LatitudeDegrees>
              <LongitudeDegrees>0.6457543931901454925537109375</LongitudeDegrees>
            </Position>
            <AltitudeMeters>490.79998779296875</AltitudeMeters>
            <DistanceMeters>64204.37873122</DistanceMeters>
          </Trackpoint>
          <Trackpoint>
            <Time>2019-05-08T11:50:42.000Z</Time>
            <Position>
              <LatitudeDegrees>42.93837678618729114532470703125</LatitudeDegrees>
              <LongitudeDegrees>0.6456296704709529876708984375</LongitudeDegrees>
            </Position>
            <AltitudeMeters>490.79998779296875</AltitudeMeters>
            <DistanceMeters>64214.614744945</DistanceMeters>
          </Trackpoint>
          <Trackpoint>
            <Time>2019-05-08T11:50:47.000Z</Time>
            <Position>
              <LatitudeDegrees>42.93836656026542186737060546875</LatitudeDegrees>
              <LongitudeDegrees>0.64537611790001392364501953125</LongitudeDegrees>
            </Position>
            <AltitudeMeters>490.79998779296875</AltitudeMeters>
            <DistanceMeters>64235.306143747</DistanceMeters>
          </Trackpoint>
          <Trackpoint>
            <Time>2019-05-08T11:50:49.000Z</Time>
            <Position>
              <LatitudeDegrees>42.938355915248394012451171875</LatitudeDegrees>
              <LongitudeDegrees>0.6453292630612850189208984375</LongitudeDegrees>
            </Position>
            <AltitudeMeters>490.79998779296875</AltitudeMeters>
            <DistanceMeters>64239.301788269</DistanceMeters>
          </Trackpoint>
          <Trackpoint>
            <Time>2019-05-08T11:50:51.000Z</Time>
            <Position>
              <LatitudeDegrees>42.93832205235958099365234375</LatitudeDegrees>
              <LongitudeDegrees>0.6452685780823230743408203125</LongitudeDegrees>
            </Position>
            <AltitudeMeters>491</AltitudeMeters>
            <DistanceMeters>64245.518598318</DistanceMeters>
          </Trackpoint>
          <Trackpoint>
            <Time>2019-05-08T11:50:52.000Z</Time>
            <Position>
              <LatitudeDegrees>42.93829212896525859832763671875</LatitudeDegrees>
              <LongitudeDegrees>0.64524385146796703338623046875</LongitudeDegrees>
            </Position>
            <AltitudeMeters>490.79998779296875</AltitudeMeters>
            <DistanceMeters>64249.412375193</DistanceMeters>
          </Trackpoint>
          <Trackpoint>
            <Time>2019-05-08T11:50:54.000Z</Time>
            <Position>
              <LatitudeDegrees>42.9382035322487354278564453125</LatitudeDegrees>
              <LongitudeDegrees>0.64523555338382720947265625</LongitudeDegrees>
            </Position>
            <AltitudeMeters>491</AltitudeMeters>
            <DistanceMeters>64259.29652397</DistanceMeters>
          </Trackpoint>
          <Trackpoint>
            <Time>2019-05-08T11:50:55.000Z</Time>
            <Position>
              <LatitudeDegrees>42.93815684504806995391845703125</LatitudeDegrees>
              <LongitudeDegrees>0.64524821005761623382568359375</LongitudeDegrees>
            </Position>
            <AltitudeMeters>491</AltitudeMeters>
            <DistanceMeters>64264.594210029</DistanceMeters>
          </Trackpoint>
          <Trackpoint>
            <Time>2019-05-08T11:50:58.000Z</Time>
            <Position>
              <LatitudeDegrees>42.938015274703502655029296875</LatitudeDegrees>
              <LongitudeDegrees>0.6453037820756435394287109375</LongitudeDegrees>
            </Position>
            <AltitudeMeters>490.79998779296875</AltitudeMeters>
            <DistanceMeters>64280.989003576</DistanceMeters>
          </Trackpoint>
          <Trackpoint>
            <Time>2019-05-08T11:51:00.000Z</Time>
            <Position>
              <LatitudeDegrees>42.9379168711602687835693359375</LatitudeDegrees>
              <LongitudeDegrees>0.6453513912856578826904296875</LongitudeDegrees>
            </Position>
            <AltitudeMeters>491</AltitudeMeters>
            <DistanceMeters>64292.608715405</DistanceMeters>
          </Trackpoint>
          <Trackpoint>
            <Time>2019-05-08T11:51:08.000Z</Time>
            <Position>
              <LatitudeDegrees>42.93751026503741741180419921875</LatitudeDegrees>
              <LongitudeDegrees>0.6455958075821399688720703125</LongitudeDegrees>
            </Position>
            <AltitudeMeters>491.79998779296875</AltitudeMeters>
            <DistanceMeters>64342.053206969</DistanceMeters>
          </Trackpoint>
          <Trackpoint>
            <Time>2019-05-08T11:51:13.000Z</Time>
            <Position>
              <LatitudeDegrees>42.9372637532651424407958984375</LatitudeDegrees>
              <LongitudeDegrees>0.645807869732379913330078125</LongitudeDegrees>
            </Position>
            <AltitudeMeters>491.79998779296875</AltitudeMeters>
            <DistanceMeters>64374.478349383</DistanceMeters>
          </Trackpoint>
          <Trackpoint>
            <Time>2019-05-08T11:51:16.000Z</Time>
            <Position>
              <LatitudeDegrees>42.9371343366801738739013671875</LatitudeDegrees>
              <LongitudeDegrees>0.64593938179314136505126953125</LongitudeDegrees>
            </Position>
            <AltitudeMeters>491.600006103515625</AltitudeMeters>
            <DistanceMeters>64392.431106509</DistanceMeters>
          </Trackpoint>
          <Trackpoint>
            <Time>2019-05-08T11:51:21.000Z</Time>
            <Position>
              <LatitudeDegrees>42.93690408580005168914794921875</LatitudeDegrees>
              <LongitudeDegrees>0.64617390744388103485107421875</LongitudeDegrees>
            </Position>
            <AltitudeMeters>491.600006103515625</AltitudeMeters>
            <DistanceMeters>64424.399370013</DistanceMeters>
          </Trackpoint>
          <Trackpoint>
            <Time>2019-05-08T11:51:23.000Z</Time>
            <Position>
              <LatitudeDegrees>42.936808280646800994873046875</LatitudeDegrees>
              <LongitudeDegrees>0.64627113752067089080810546875</LongitudeDegrees>
            </Position>
            <AltitudeMeters>491.600006103515625</AltitudeMeters>
            <DistanceMeters>64437.683411336</DistanceMeters>
          </Trackpoint>
          <Trackpoint>
            <Time>2019-05-08T11:51:33.000Z</Time>
            <Position>
              <LatitudeDegrees>42.936330176889896392822265625</LatitudeDegrees>
              <LongitudeDegrees>0.64675628207623958587646484375</LongitudeDegrees>
            </Position>
            <AltitudeMeters>491.600006103515625</AltitudeMeters>
            <DistanceMeters>64503.974472284</DistanceMeters>
          </Trackpoint>
          <Trackpoint>
            <Time>2019-05-08T11:51:34.000Z</Time>
            <Position>
              <LatitudeDegrees>42.9362824000418186187744140625</LatitudeDegrees>
              <LongitudeDegrees>0.64680464565753936767578125</LongitudeDegrees>
            </Position>
            <AltitudeMeters>491.600006103515625</AltitudeMeters>
            <DistanceMeters>64510.59368152</DistanceMeters>
          </Trackpoint>
          <Trackpoint>
            <Time>2019-05-08T11:51:42.000Z</Time>
            <Position>
              <LatitudeDegrees>42.9359078966081142425537109375</LatitudeDegrees>
              <LongitudeDegrees>0.647188536822795867919921875</LongitudeDegrees>
            </Position>
            <AltitudeMeters>491.79998779296875</AltitudeMeters>
            <DistanceMeters>64562.70905557</DistanceMeters>
          </Trackpoint>
          <Trackpoint>
            <Time>2019-05-08T11:51:44.000Z</Time>
            <Position>
              <LatitudeDegrees>42.9358136840164661407470703125</LatitudeDegrees>
              <LongitudeDegrees>0.64728115685284137725830078125</LongitudeDegrees>
            </Position>
            <AltitudeMeters>492.20001220703125</AltitudeMeters>
            <DistanceMeters>64575.628845161</DistanceMeters>
          </Trackpoint>
          <Trackpoint>
            <Time>2019-05-08T11:51:50.000Z</Time>
            <Position>
              <LatitudeDegrees>42.93551671318709850311279296875</LatitudeDegrees>
              <LongitudeDegrees>0.64757854677736759185791015625</LongitudeDegrees>
            </Position>
            <AltitudeMeters>492.600006103515625</AltitudeMeters>
            <DistanceMeters>64616.613901219</DistanceMeters>
          </Trackpoint>
          <Trackpoint>
            <Time>2019-05-08T11:51:59.000Z</Time>
            <Position>
              <LatitudeDegrees>42.93504196219146251678466796875</LatitudeDegrees>
              <LongitudeDegrees>0.64803251065313816070556640625</LongitudeDegrees>
            </Position>
            <AltitudeMeters>493</AltitudeMeters>
            <DistanceMeters>64681.116254208</DistanceMeters>
          </Trackpoint>
          <Trackpoint>
            <Time>2019-05-08T11:52:00.000Z</Time>
            <Position>
              <LatitudeDegrees>42.93498496524989604949951171875</LatitudeDegrees>
              <LongitudeDegrees>0.64808246679604053497314453125</LongitudeDegrees>
            </Position>
            <AltitudeMeters>492.79998779296875</AltitudeMeters>
            <DistanceMeters>64688.653975414</DistanceMeters>
          </Trackpoint>
          <Trackpoint>
            <Time>2019-05-08T11:52:08.000Z</Time>
            <Position>
              <LatitudeDegrees>42.93451138772070407867431640625</LatitudeDegrees>
              <LongitudeDegrees>0.64846694469451904296875</LongitudeDegrees>
            </Position>
            <AltitudeMeters>492.600006103515625</AltitudeMeters>
            <DistanceMeters>64749.972277737</DistanceMeters>
          </Trackpoint>
          <Trackpoint>
            <Time>2019-05-08T11:52:10.000Z</Time>
            <Position>
              <LatitudeDegrees>42.93438901193439960479736328125</LatitudeDegrees>
              <LongitudeDegrees>0.64856023527681827545166015625</LongitudeDegrees>
            </Position>
            <AltitudeMeters>492.79998779296875</AltitudeMeters>
            <DistanceMeters>64765.571137947</DistanceMeters>
          </Trackpoint>
          <Trackpoint>
            <Time>2019-05-08T11:52:18.000Z</Time>
            <Position>
              <LatitudeDegrees>42.9338660649955272674560546875</LatitudeDegrees>
              <LongitudeDegrees>0.64891244284808635711669921875</LongitudeDegrees>
            </Position>
            <AltitudeMeters>493.399993896484375</AltitudeMeters>
            <DistanceMeters>64830.467635641</DistanceMeters>
          </Trackpoint>
          <Trackpoint>
            <Time>2019-05-08T11:52:19.000Z</Time>
            <Position>
              <LatitudeDegrees>42.93379842303693294525146484375</LatitudeDegrees>
              <LongitudeDegrees>0.64895485527813434600830078125</LongitudeDegrees>
            </Position>
            <AltitudeMeters>493.600006103515625</AltitudeMeters>
            <DistanceMeters>64838.751327505</DistanceMeters>
          </Trackpoint>
          <Trackpoint>
            <Time>2019-05-08T11:52:23.000Z</Time>
            <Position>
              <LatitudeDegrees>42.9335274361073970794677734375</LatitudeDegrees>
              <LongitudeDegrees>0.6491145305335521697998046875</LongitudeDegrees>
            </Position>
            <AltitudeMeters>494</AltitudeMeters>
            <DistanceMeters>64871.59952128</DistanceMeters>
          </Trackpoint>
          <Trackpoint>
            <Time>2019-05-08T11:52:29.000Z</Time>
            <Position>
              <LatitudeDegrees>42.93313491158187389373779296875</LatitudeDegrees>
              <LongitudeDegrees>0.649315528571605682373046875</LongitudeDegrees>
            </Position>
            <AltitudeMeters>494.399993896484375</AltitudeMeters>
            <DistanceMeters>64918.257734804</DistanceMeters>
          </Trackpoint>
          <Trackpoint>
            <Time>2019-05-08T11:52:37.000Z</Time>
            <Position>
              <LatitudeDegrees>42.93263032101094722747802734375</LatitudeDegrees>
              <LongitudeDegrees>0.649534128606319427490234375</LongitudeDegrees>
            </Position>
            <AltitudeMeters>494.79998779296875</AltitudeMeters>
            <DistanceMeters>64977.177056489</DistanceMeters>
          </Trackpoint>
          <Trackpoint>
            <Time>2019-05-08T11:52:39.000Z</Time>
            <Position>
              <LatitudeDegrees>42.932502329349517822265625</LatitudeDegrees>
              <LongitudeDegrees>0.64958567731082439422607421875</LongitudeDegrees>
            </Position>
            <AltitudeMeters>495</AltitudeMeters>
            <DistanceMeters>64992.029218196</DistanceMeters>
          </Trackpoint>
          <Trackpoint>
            <Time>2019-05-08T11:52:44.000Z</Time>
            <Position>
              <LatitudeDegrees>42.9321920312941074371337890625</LatitudeDegrees>
              <LongitudeDegrees>0.6497116573154926300048828125</LongitudeDegrees>
            </Position>
            <AltitudeMeters>495.600006103515625</AltitudeMeters>
            <DistanceMeters>65028.059634233</DistanceMeters>
          </Trackpoint>
          <Trackpoint>
            <Time>2019-05-08T11:52:50.000Z</Time>
            <Position>
              <LatitudeDegrees>42.9318168573081493377685546875</LatitudeDegrees>
              <LongitudeDegrees>0.6498682312667369842529296875</LongitudeDegrees>
            </Position>
            <AltitudeMeters>496.20001220703125</AltitudeMeters>
            <DistanceMeters>65071.72314279</DistanceMeters>
          </Trackpoint>
          <Trackpoint>
            <Time>2019-05-08T11:52:57.000Z</Time>
            <Position>
              <LatitudeDegrees>42.9313759692013263702392578125</LatitudeDegrees>
              <LongitudeDegrees>0.65004651434719562530517578125</LongitudeDegrees>
            </Position>
            <AltitudeMeters>497.20001220703125</AltitudeMeters>
            <DistanceMeters>65122.900476563</DistanceMeters>
          </Trackpoint>
          <Trackpoint>
            <Time>2019-05-08T11:52:58.000Z</Time>
            <Position>
              <LatitudeDegrees>42.9313166253268718719482421875</LatitudeDegrees>
              <LongitudeDegrees>0.65007023513317108154296875</LongitudeDegrees>
            </Position>
            <AltitudeMeters>497.399993896484375</AltitudeMeters>
            <DistanceMeters>65129.783192671</DistanceMeters>
          </Trackpoint>
          <Trackpoint>
            <Time>2019-05-08T11:53:03.000Z</Time>
            <Position>
              <LatitudeDegrees>42.931035496294498443603515625</LatitudeDegrees>
              <LongitudeDegrees>0.6501770205795764923095703125</LongitudeDegrees>
            </Position>
            <AltitudeMeters>497.399993896484375</AltitudeMeters>
            <DistanceMeters>65162.260927035</DistanceMeters>
          </Trackpoint>
          <Trackpoint>
            <Time>2019-05-08T11:53:06.000Z</Time>
            <Position>
              <LatitudeDegrees>42.93086743913590908050537109375</LatitudeDegrees>
              <LongitudeDegrees>0.65023745410144329071044921875</LongitudeDegrees>
            </Position>
            <AltitudeMeters>497.600006103515625</AltitudeMeters>
            <DistanceMeters>65181.603474107</DistanceMeters>
          </Trackpoint>
          <Trackpoint>
            <Time>2019-05-08T11:53:09.000Z</Time>
            <Position>
              <LatitudeDegrees>42.93069653213024139404296875</LatitudeDegrees>
              <LongitudeDegrees>0.65029612742364406585693359375</LongitudeDegrees>
            </Position>
            <AltitudeMeters>497.600006103515625</AltitudeMeters>
            <DistanceMeters>65201.21768775</DistanceMeters>
          </Trackpoint>
          <Trackpoint>
            <Time>2019-05-08T11:53:10.000Z</Time>
            <Position>
              <LatitudeDegrees>42.93063844554126262664794921875</LatitudeDegrees>
              <LongitudeDegrees>0.6503168307244777679443359375</LongitudeDegrees>
            </Position>
            <AltitudeMeters>497.600006103515625</AltitudeMeters>
            <DistanceMeters>65207.899356549</DistanceMeters>
          </Trackpoint>
          <Trackpoint>
            <Time>2019-05-08T11:53:15.000Z</Time>
            <Position>
              <LatitudeDegrees>42.93034960515797138214111328125</LatitudeDegrees>
              <LongitudeDegrees>0.65043375827372074127197265625</LongitudeDegrees>
            </Position>
            <AltitudeMeters>497.399993896484375</AltitudeMeters>
            <DistanceMeters>65241.430458798</DistanceMeters>
          </Trackpoint>
          <Trackpoint>
            <Time>2019-05-08T11:53:24.000Z</Time>
            <Position>
              <LatitudeDegrees>42.92983680032193660736083984375</LatitudeDegrees>
              <LongitudeDegrees>0.6506487540900707244873046875</LongitudeDegrees>
            </Position>
            <AltitudeMeters>495.20001220703125</AltitudeMeters>
            <DistanceMeters>65301.135298021</DistanceMeters>
          </Trackpoint>
          <Trackpoint>
            <Time>2019-05-08T11:53:28.000Z</Time>
            <Position>
              <LatitudeDegrees>42.9296067170798778533935546875</LatitudeDegrees>
              <LongitudeDegrees>0.65074590034782886505126953125</LongitudeDegrees>
            </Position>
            <AltitudeMeters>495</AltitudeMeters>
            <DistanceMeters>65327.939906996</DistanceMeters>
          </Trackpoint>
          <Trackpoint>
            <Time>2019-05-08T11:53:33.000Z</Time>
            <Position>
              <LatitudeDegrees>42.92931762523949146270751953125</LatitudeDegrees>
              <LongitudeDegrees>0.65086391754448413848876953125</LongitudeDegrees>
            </Position>
            <AltitudeMeters>495</AltitudeMeters>
            <DistanceMeters>65361.523079235</DistanceMeters>
          </Trackpoint>
          <Trackpoint>
            <Time>2019-05-08T11:53:41.000Z</Time>
            <Position>
              <LatitudeDegrees>42.92883248068392276763916015625</LatitudeDegrees>
              <LongitudeDegrees>0.650961063802242279052734375</LongitudeDegrees>
            </Position>
            <AltitudeMeters>495.600006103515625</AltitudeMeters>
            <DistanceMeters>65416.097873543</DistanceMeters>
          </Trackpoint>
          <Trackpoint>
            <Time>2019-05-08T11:53:50.000Z</Time>
            <Position>
              <LatitudeDegrees>42.92829168029129505157470703125</LatitudeDegrees>
              <LongitudeDegrees>0.65094891004264354705810546875</LongitudeDegrees>
            </Position>
            <AltitudeMeters>496.399993896484375</AltitudeMeters>
            <DistanceMeters>65476.298178356</DistanceMeters>
          </Trackpoint>
          <Trackpoint>
            <Time>2019-05-08T11:53:58.000Z</Time>
            <Position>
              <LatitudeDegrees>42.92779681272804737091064453125</LatitudeDegrees>
              <LongitudeDegrees>0.65082737244665622711181640625</LongitudeDegrees>
            </Position>
            <AltitudeMeters>497.399993896484375</AltitudeMeters>
            <DistanceMeters>65532.261410508</DistanceMeters>
          </Trackpoint>
          <Trackpoint>
            <Time>2019-05-08T11:54:02.000Z</Time>
            <Position>
              <LatitudeDegrees>42.92754971422255039215087890625</LatitudeDegrees>
              <LongitudeDegrees>0.6507359258830547332763671875</LongitudeDegrees>
            </Position>
            <AltitudeMeters>497.600006103515625</AltitudeMeters>
            <DistanceMeters>65560.755801068</DistanceMeters>
          </Trackpoint>
          <Trackpoint>
            <Time>2019-05-08T11:54:06.000Z</Time>
            <Position>
              <LatitudeDegrees>42.92730730958282947540283203125</LatitudeDegrees>
              <LongitudeDegrees>0.6506252847611904144287109375</LongitudeDegrees>
            </Position>
            <AltitudeMeters>497.600006103515625</AltitudeMeters>
            <DistanceMeters>65589.202933271</DistanceMeters>
          </Trackpoint>
          <Trackpoint>
            <Time>2019-05-08T11:54:10.000Z</Time>
            <Position>
              <LatitudeDegrees>42.927073873579502105712890625</LatitudeDegrees>
              <LongitudeDegrees>0.65051154233515262603759765625</LongitudeDegrees>
            </Position>
            <AltitudeMeters>497.600006103515625</AltitudeMeters>
            <DistanceMeters>65616.788846381</DistanceMeters>
          </Trackpoint>
          <Trackpoint>
            <Time>2019-05-08T11:54:13.000Z</Time>
            <Position>
              <LatitudeDegrees>42.9268909804522991180419921875</LatitudeDegrees>
              <LongitudeDegrees>0.65042562782764434814453125</LongitudeDegrees>
            </Position>
            <AltitudeMeters>497.20001220703125</AltitudeMeters>
            <DistanceMeters>65638.315700841</DistanceMeters>
          </Trackpoint>
          <Trackpoint>
            <Time>2019-05-08T11:54:14.000Z</Time>
            <Position>
              <LatitudeDegrees>42.9268282838165760040283203125</LatitudeDegrees>
              <LongitudeDegrees>0.650396458804607391357421875</LongitudeDegrees>
            </Position>
            <AltitudeMeters>497</AltitudeMeters>
            <DistanceMeters>65645.688083774</DistanceMeters>
          </Trackpoint>
          <Trackpoint>
            <Time>2019-05-08T11:54:17.000Z</Time>
            <Position>
              <LatitudeDegrees>42.9266438819468021392822265625</LatitudeDegrees>
              <LongitudeDegrees>0.65030652098357677459716796875</LongitudeDegrees>
            </Position>
            <AltitudeMeters>496.79998779296875</AltitudeMeters>
            <DistanceMeters>65667.482166021</DistanceMeters>
          </Trackpoint>
          <Trackpoint>
            <Time>2019-05-08T11:54:18.000Z</Time>
            <Position>
              <LatitudeDegrees>42.926584370434284210205078125</LatitudeDegrees>
              <LongitudeDegrees>0.650279782712459564208984375</LongitudeDegrees>
            </Position>
            <AltitudeMeters>496.79998779296875</AltitudeMeters>
            <DistanceMeters>65674.455469517</DistanceMeters>
          </Trackpoint>
          <Trackpoint>
            <Time>2019-05-08T11:54:22.000Z</Time>
            <Position>
              <LatitudeDegrees>42.9263458214700222015380859375</LatitudeDegrees>
              <LongitudeDegrees>0.650175847113132476806640625</LongitudeDegrees>
            </Position>
            <AltitudeMeters>496.600006103515625</AltitudeMeters>
            <DistanceMeters>65702.325040652</DistanceMeters>
          </Trackpoint>
          <Trackpoint>
            <Time>2019-05-08T11:54:30.000Z</Time>
            <Position>
              <LatitudeDegrees>42.92584198527038097381591796875</LatitudeDegrees>
              <LongitudeDegrees>0.6499403156340122222900390625</LongitudeDegrees>
            </Position>
            <AltitudeMeters>496.79998779296875</AltitudeMeters>
            <DistanceMeters>65761.597415761</DistanceMeters>
          </Trackpoint>
          <Trackpoint>
            <Time>2019-05-08T11:54:32.000Z</Time>
            <Position>
              <LatitudeDegrees>42.92571390978991985321044921875</LatitudeDegrees>
              <LongitudeDegrees>0.649882145226001739501953125</LongitudeDegrees>
            </Position>
            <AltitudeMeters>496.79998779296875</AltitudeMeters>
            <DistanceMeters>65776.62005436</DistanceMeters>
          </Trackpoint>
          <Trackpoint>
            <Time>2019-05-08T11:54:35.000Z</Time>
            <Position>
              <LatitudeDegrees>42.92552229948341846466064453125</LatitudeDegrees>
              <LongitudeDegrees>0.649794973433017730712890625</LongitudeDegrees>
            </Position>
            <AltitudeMeters>496.600006103515625</AltitudeMeters>
            <DistanceMeters>65799.099044944</DistanceMeters>
          </Trackpoint>
          <Trackpoint>
            <Time>2019-05-08T11:54:38.000Z</Time>
            <Position>
              <LatitudeDegrees>42.9253379814326763153076171875</LatitudeDegrees>
              <LongitudeDegrees>0.64970453269779682159423828125</LongitudeDegrees>
            </Position>
            <AltitudeMeters>496.600006103515625</AltitudeMeters>
            <DistanceMeters>65820.897891535</DistanceMeters>
          </Trackpoint>
          <Trackpoint>
            <Time>2019-05-08T11:54:41.000Z</Time>
            <Position>
              <LatitudeDegrees>42.9251706786453723907470703125</LatitudeDegrees>
              <LongitudeDegrees>0.6496191211044788360595703125</LongitudeDegrees>
            </Position>
            <AltitudeMeters>496.399993896484375</AltitudeMeters>
            <DistanceMeters>65840.777561944</DistanceMeters>
          </Trackpoint>
          <Trackpoint>
            <Time>2019-05-08T11:54:50.000Z</Time>
            <Position>
              <LatitudeDegrees>42.9246744699776172637939453125</LatitudeDegrees>
              <LongitudeDegrees>0.6493626348674297332763671875</LongitudeDegrees>
            </Position>
            <AltitudeMeters>496.399993896484375</AltitudeMeters>
            <DistanceMeters>65899.830147247</DistanceMeters>
          </Trackpoint>
          <Trackpoint>
            <Time>2019-05-08T11:54:57.000Z</Time>
            <Position>
              <LatitudeDegrees>42.92434279806911945343017578125</LatitudeDegrees>
              <LongitudeDegrees>0.64916272647678852081298828125</LongitudeDegrees>
            </Position>
            <AltitudeMeters>496.79998779296875</AltitudeMeters>
            <DistanceMeters>65940.181493492</DistanceMeters>
          </Trackpoint>
          <Trackpoint>
            <Time>2019-05-08T11:55:04.000Z</Time>
            <Position>
              <LatitudeDegrees>42.92397919110953807830810546875</LatitudeDegrees>
              <LongitudeDegrees>0.64892853610217571258544921875</LongitudeDegrees>
            </Position>
            <AltitudeMeters>497</AltitudeMeters>
            <DistanceMeters>65984.926767198</DistanceMeters>
          </Trackpoint>
          <Trackpoint>
            <Time>2019-05-08T11:55:06.000Z</Time>
            <Position>
              <LatitudeDegrees>42.92387458495795726776123046875</LatitudeDegrees>
              <LongitudeDegrees>0.648857541382312774658203125</LongitudeDegrees>
            </Position>
            <AltitudeMeters>497.20001220703125</AltitudeMeters>
            <DistanceMeters>65997.928422133</DistanceMeters>
          </Trackpoint>
          <Trackpoint>
            <Time>2019-05-08T11:55:16.000Z</Time>
            <Position>
              <LatitudeDegrees>42.923340909183025360107421875</LatitudeDegrees>
              <LongitudeDegrees>0.64853106625378131866455078125</LongitudeDegrees>
            </Position>
            <AltitudeMeters>497.79998779296875</AltitudeMeters>
            <DistanceMeters>66063.015131699</DistanceMeters>
          </Trackpoint>
          <Trackpoint>
            <Time>2019-05-08T11:55:17.000Z</Time>
            <Position>
              <LatitudeDegrees>42.92328868992626667022705078125</LatitudeDegrees>
              <LongitudeDegrees>0.648498795926570892333984375</LongitudeDegrees>
            </Position>
            <AltitudeMeters>497.79998779296875</AltitudeMeters>
            <DistanceMeters>66069.394673574</DistanceMeters>
          </Trackpoint>
          <Trackpoint>
            <Time>2019-05-08T11:55:21.000Z</Time>
            <Position>
              <LatitudeDegrees>42.9230778850615024566650390625</LatitudeDegrees>
              <LongitudeDegrees>0.64836435019969940185546875</LongitudeDegrees>
            </Position>
            <AltitudeMeters>497.79998779296875</AltitudeMeters>
            <DistanceMeters>66095.290455796</DistanceMeters>
          </Trackpoint>
          <Trackpoint>
            <Time>2019-05-08T11:55:26.000Z</Time>
            <Position>
              <LatitudeDegrees>42.92281544767320156097412109375</LatitudeDegrees>
              <LongitudeDegrees>0.64817818813025951385498046875</LongitudeDegrees>
            </Position>
            <AltitudeMeters>498</AltitudeMeters>
            <DistanceMeters>66128.205794799</DistanceMeters>
          </Trackpoint>
          <Trackpoint>
            <Time>2019-05-08T11:55:28.000Z</Time>
            <Position>
              <LatitudeDegrees>42.92271134443581104278564453125</LatitudeDegrees>
              <LongitudeDegrees>0.6481140665709972381591796875</LongitudeDegrees>
            </Position>
            <AltitudeMeters>498</AltitudeMeters>
            <DistanceMeters>66140.91666132</DistanceMeters>
          </Trackpoint>
          <Trackpoint>
            <Time>2019-05-08T11:55:35.000Z</Time>
            <Position>
              <LatitudeDegrees>42.922350503504276275634765625</LatitudeDegrees>
              <LongitudeDegrees>0.6478755176067352294921875</LongitudeDegrees>
            </Position>
            <AltitudeMeters>498.20001220703125</AltitudeMeters>
            <DistanceMeters>66185.537547629</DistanceMeters>
          </Trackpoint>
          <Trackpoint>
            <Time>2019-05-08T11:55:44.000Z</Time>
            <Position>
              <LatitudeDegrees>42.921879105269908905029296875</LatitudeDegrees>
              <LongitudeDegrees>0.6475880183279514312744140625</LongitudeDegrees>
            </Position>
            <AltitudeMeters>499</AltitudeMeters>
            <DistanceMeters>66242.999880443</DistanceMeters>
          </Trackpoint>
          <Trackpoint>
            <Time>2019-05-08T11:55:45.000Z</Time>
            <Position>
              <LatitudeDegrees>42.921822778880596160888671875</LatitudeDegrees>
              <LongitudeDegrees>0.64755675382912158966064453125</LongitudeDegrees>
            </Position>
            <AltitudeMeters>499</AltitudeMeters>
            <DistanceMeters>66249.767490636</DistanceMeters>
          </Trackpoint>
          <Trackpoint>
            <Time>2019-05-08T11:55:52.000Z</Time>
            <Position>
              <LatitudeDegrees>42.92142153717577457427978515625</LatitudeDegrees>
              <LongitudeDegrees>0.6473647244274616241455078125</LongitudeDegrees>
            </Position>
            <AltitudeMeters>499.399993896484375</AltitudeMeters>
            <DistanceMeters>66297.089554067</DistanceMeters>
          </Trackpoint>
          <Trackpoint>
            <Time>2019-05-08T11:55:55.000Z</Time>
            <Position>
              <LatitudeDegrees>42.9212576709687709808349609375</LatitudeDegrees>
              <LongitudeDegrees>0.64729238860309123992919921875</LongitudeDegrees>
            </Position>
            <AltitudeMeters>500.600006103515625</AltitudeMeters>
            <DistanceMeters>66316.257174947</DistanceMeters>
          </Trackpoint>
          <Trackpoint>
            <Time>2019-05-08T11:55:59.000Z</Time>
            <Position>
              <LatitudeDegrees>42.92105105705559253692626953125</LatitudeDegrees>
              <LongitudeDegrees>0.64721007831394672393798828125</LongitudeDegrees>
            </Position>
            <AltitudeMeters>501</AltitudeMeters>
            <DistanceMeters>66340.212201515</DistanceMeters>
          </Trackpoint>
          <Trackpoint>
            <Time>2019-05-08T11:56:07.000Z</Time>
            <Position>
              <LatitudeDegrees>42.92063011787831783294677734375</LatitudeDegrees>
              <LongitudeDegrees>0.64709641970694065093994140625</LongitudeDegrees>
            </Position>
            <AltitudeMeters>501</AltitudeMeters>
            <DistanceMeters>66387.970665568</DistanceMeters>
          </Trackpoint>
          <Trackpoint>
            <Time>2019-05-08T11:56:17.000Z</Time>
            <Position>
              <LatitudeDegrees>42.92005578987300395965576171875</LatitudeDegrees>
              <LongitudeDegrees>0.6470260955393314361572265625</LongitudeDegrees>
            </Position>
            <AltitudeMeters>501.399993896484375</AltitudeMeters>
            <DistanceMeters>66452.151064058</DistanceMeters>
          </Trackpoint>
          <Trackpoint>
            <Time>2019-05-08T11:56:22.000Z</Time>
            <Position>
              <LatitudeDegrees>42.91978622786700725555419921875</LatitudeDegrees>
              <LongitudeDegrees>0.647023580968379974365234375</LongitudeDegrees>
            </Position>
            <AltitudeMeters>501.79998779296875</AltitudeMeters>
            <DistanceMeters>66482.154535869</DistanceMeters>
          </Trackpoint>
          <Trackpoint>
            <Time>2019-05-08T11:56:25.000Z</Time>
            <Position>
              <LatitudeDegrees>42.91962546296417713165283203125</LatitudeDegrees>
              <LongitudeDegrees>0.64702450297772884368896484375</LongitudeDegrees>
            </Position>
            <AltitudeMeters>502.20001220703125</AltitudeMeters>
            <DistanceMeters>66500.048346267</DistanceMeters>
          </Trackpoint>
          <Trackpoint>
            <Time>2019-05-08T11:56:26.000Z</Time>
            <Position>
              <LatitudeDegrees>42.91956980712711811065673828125</LatitudeDegrees>
              <LongitudeDegrees>0.64702953211963176727294921875</LongitudeDegrees>
            </Position>
            <AltitudeMeters>502.20001220703125</AltitudeMeters>
            <DistanceMeters>66506.256435044</DistanceMeters>
          </Trackpoint>
          <Trackpoint>
            <Time>2019-05-08T11:56:32.000Z</Time>
            <Position>
              <LatitudeDegrees>42.9192215390503406524658203125</LatitudeDegrees>
              <LongitudeDegrees>0.6470633111894130706787109375</LongitudeDegrees>
            </Position>
            <AltitudeMeters>502.79998779296875</AltitudeMeters>
            <DistanceMeters>66545.117017053</DistanceMeters>
          </Trackpoint>
          <Trackpoint>
            <Time>2019-05-08T11:56:41.000Z</Time>
            <Position>
              <LatitudeDegrees>42.9187011905014514923095703125</LatitudeDegrees>
              <LongitudeDegrees>0.64710396341979503631591796875</LongitudeDegrees>
            </Position>
            <AltitudeMeters>503.79998779296875</AltitudeMeters>
            <DistanceMeters>66603.127537894</DistanceMeters>
          </Trackpoint>
          <Trackpoint>
            <Time>2019-05-08T11:56:44.000Z</Time>
            <Position>
              <LatitudeDegrees>42.9185365699231624603271484375</LatitudeDegrees>
              <LongitudeDegrees>0.6471216492354869842529296875</LongitudeDegrees>
            </Position>
            <AltitudeMeters>504</AltitudeMeters>
            <DistanceMeters>66621.506549552</DistanceMeters>
          </Trackpoint>
          <Trackpoint>
            <Time>2019-05-08T11:56:46.000Z</Time>
            <Position>
              <LatitudeDegrees>42.91843238286674022674560546875</LatitudeDegrees>
              <LongitudeDegrees>0.647134892642498016357421875</LongitudeDegrees>
            </Position>
            <AltitudeMeters>504.20001220703125</AltitudeMeters>
            <DistanceMeters>66633.152653974</DistanceMeters>
          </Trackpoint>
          <Trackpoint>
            <Time>2019-05-08T11:56:54.000Z</Time>
            <Position>
              <LatitudeDegrees>42.9180249385535717010498046875</LatitudeDegrees>
              <LongitudeDegrees>0.64716280438005924224853515625</LongitudeDegrees>
            </Position>
            <AltitudeMeters>504.399993896484375</AltitudeMeters>
            <DistanceMeters>66678.559019426</DistanceMeters>
          </Trackpoint>
          <Trackpoint>
            <Time>2019-05-08T11:56:58.000Z</Time>
            <Position>
              <LatitudeDegrees>42.9178358428180217742919921875</LatitudeDegrees>
              <LongitudeDegrees>0.64717671833932399749755859375</LongitudeDegrees>
            </Position>
            <AltitudeMeters>504.399993896484375</AltitudeMeters>
            <DistanceMeters>66699.636107478</DistanceMeters>
          </Trackpoint>
          <Trackpoint>
            <Time>2019-05-08T11:57:02.000Z</Time>
            <Position>
              <LatitudeDegrees>42.9176413826644420623779296875</LatitudeDegrees>
              <LongitudeDegrees>0.64718878827989101409912109375</LongitudeDegrees>
            </Position>
            <AltitudeMeters>504.79998779296875</AltitudeMeters>
            <DistanceMeters>66721.301989961</DistanceMeters>
          </Trackpoint>
          <Trackpoint>
            <Time>2019-05-08T11:57:08.000Z</Time>
            <Position>
              <LatitudeDegrees>42.9173627682030200958251953125</LatitudeDegrees>
              <LongitudeDegrees>0.64720555208623409271240234375</LongitudeDegrees>
            </Position>
            <AltitudeMeters>506</AltitudeMeters>
            <DistanceMeters>66752.342433846</DistanceMeters>
          </Trackpoint>
          <Trackpoint>
            <Time>2019-05-08T11:57:11.000Z</Time>
            <Position>
              <LatitudeDegrees>42.91721348650753498077392578125</LatitudeDegrees>
              <LongitudeDegrees>0.647218041121959686279296875</LongitudeDegrees>
            </Position>
            <AltitudeMeters>506</AltitudeMeters>
            <DistanceMeters>66768.989204882</DistanceMeters>
          </Trackpoint>
          <Trackpoint>
            <Time>2019-05-08T11:57:16.000Z</Time>
            <Position>
              <LatitudeDegrees>42.91695700027048587799072265625</LatitudeDegrees>
              <LongitudeDegrees>0.64723639748990535736083984375</LongitudeDegrees>
            </Position>
            <AltitudeMeters>505.79998779296875</AltitudeMeters>
            <DistanceMeters>66797.575666675</DistanceMeters>
          </Trackpoint>
          <Trackpoint>
            <Time>2019-05-08T11:57:18.000Z</Time>
            <Position>
              <LatitudeDegrees>42.9168581776320934295654296875</LatitudeDegrees>
              <LongitudeDegrees>0.647240839898586273193359375</LongitudeDegrees>
            </Position>
            <AltitudeMeters>505.399993896484375</AltitudeMeters>
            <DistanceMeters>66808.579907908</DistanceMeters>
          </Trackpoint>
          <Trackpoint>
            <Time>2019-05-08T11:57:21.000Z</Time>
            <Position>
              <LatitudeDegrees>42.9167069680988788604736328125</LatitudeDegrees>
              <LongitudeDegrees>0.64724964089691638946533203125</LongitudeDegrees>
            </Position>
            <AltitudeMeters>505.399993896484375</AltitudeMeters>
            <DistanceMeters>66825.425118568</DistanceMeters>
          </Trackpoint>
          <Trackpoint>
            <Time>2019-05-08T11:57:24.000Z</Time>
            <Position>
              <LatitudeDegrees>42.9165418446063995361328125</LatitudeDegrees>
              <LongitudeDegrees>0.64725751988589763641357421875</LongitudeDegrees>
            </Position>
            <AltitudeMeters>505</AltitudeMeters>
            <DistanceMeters>66843.815181727</DistanceMeters>
          </Trackpoint>
          <Trackpoint>
            <Time>2019-05-08T11:57:29.000Z</Time>
            <Position>
              <LatitudeDegrees>42.9162473045289516448974609375</LatitudeDegrees>
              <LongitudeDegrees>0.64727629534900188446044921875</LongitudeDegrees>
            </Position>
            <AltitudeMeters>504.79998779296875</AltitudeMeters>
            <DistanceMeters>66876.633947668</DistanceMeters>
          </Trackpoint>
          <Trackpoint>
            <Time>2019-05-08T11:57:33.000Z</Time>
            <Position>
              <LatitudeDegrees>42.91600598953664302825927734375</LatitudeDegrees>
              <LongitudeDegrees>0.647293813526630401611328125</LongitudeDegrees>
            </Position>
            <AltitudeMeters>504.20001220703125</AltitudeMeters>
            <DistanceMeters>66903.530704801</DistanceMeters>
          </Trackpoint>
          <Trackpoint>
            <Time>2019-05-08T11:57:41.000Z</Time>
            <Position>
              <LatitudeDegrees>42.91551749221980571746826171875</LatitudeDegrees>
              <LongitudeDegrees>0.64731770195066928863525390625</LongitudeDegrees>
            </Position>
            <AltitudeMeters>503.600006103515625</AltitudeMeters>
            <DistanceMeters>66957.936216723</DistanceMeters>
          </Trackpoint>
          <Trackpoint>
            <Time>2019-05-08T11:57:44.000Z</Time>
            <Position>
              <LatitudeDegrees>42.915335185825824737548828125</LatitudeDegrees>
              <LongitudeDegrees>0.6473268382251262664794921875</LongitudeDegrees>
            </Position>
            <AltitudeMeters>503.399993896484375</AltitudeMeters>
            <DistanceMeters>66978.240826301</DistanceMeters>
          </Trackpoint>
          <Trackpoint>
            <Time>2019-05-08T11:57:53.000Z</Time>
            <Position>
              <LatitudeDegrees>42.9148022644221782684326171875</LatitudeDegrees>
              <LongitudeDegrees>0.647364892065525054931640625</LongitudeDegrees>
            </Position>
            <AltitudeMeters>503.20001220703125</AltitudeMeters>
            <DistanceMeters>67037.63708389</DistanceMeters>
          </Trackpoint>
          <Trackpoint>
            <Time>2019-05-08T11:57:57.000Z</Time>
            <Position>
              <LatitudeDegrees>42.91458324529230594635009765625</LatitudeDegrees>
              <LongitudeDegrees>0.6473878584802150726318359375</LongitudeDegrees>
            </Position>
            <AltitudeMeters>503.20001220703125</AltitudeMeters>
            <DistanceMeters>67062.086111279</DistanceMeters>
          </Trackpoint>
          <Trackpoint>
            <Time>2019-05-08T11:57:59.000Z</Time>
            <Position>
              <LatitudeDegrees>42.91448970325291156768798828125</LatitudeDegrees>
              <LongitudeDegrees>0.64734905026853084564208984375</LongitudeDegrees>
            </Position>
            <AltitudeMeters>503.399993896484375</AltitudeMeters>
            <DistanceMeters>67072.967396237</DistanceMeters>
          </Trackpoint>
          <Trackpoint>
            <Time>2019-05-08T11:58:01.000Z</Time>
            <Position>
              <LatitudeDegrees>42.91439599357545375823974609375</LatitudeDegrees>
              <LongitudeDegrees>0.6473033688962459564208984375</LongitudeDegrees>
            </Position>
            <AltitudeMeters>503.399993896484375</AltitudeMeters>
            <DistanceMeters>67084.042391873</DistanceMeters>
          </Trackpoint>
          <Trackpoint>
            <Time>2019-05-08T11:58:03.000Z</Time>
            <Position>
              <LatitudeDegrees>42.914293818175792694091796875</LatitudeDegrees>
              <LongitudeDegrees>0.64728677272796630859375</LongitudeDegrees>
            </Position>
            <AltitudeMeters>503.20001220703125</AltitudeMeters>
            <DistanceMeters>67095.495377965</DistanceMeters>
          </Trackpoint>
          <Trackpoint>
            <Time>2019-05-08T11:58:04.000Z</Time>
            <Position>
              <LatitudeDegrees>42.914241850376129150390625</LatitudeDegrees>
              <LongitudeDegrees>0.64728417433798313140869140625</LongitudeDegrees>
            </Position>
            <AltitudeMeters>503.399993896484375</AltitudeMeters>
            <DistanceMeters>67101.283433217</DistanceMeters>
          </Trackpoint>
          <Trackpoint>
            <Time>2019-05-08T11:58:06.000Z</Time>
            <Position>
              <LatitudeDegrees>42.9141357354819774627685546875</LatitudeDegrees>
              <LongitudeDegrees>0.64726464450359344482421875</LongitudeDegrees>
            </Position>
            <AltitudeMeters>503</AltitudeMeters>
            <DistanceMeters>67113.201238065</DistanceMeters>
          </Trackpoint>
          <Trackpoint>
            <Time>2019-05-08T11:58:09.000Z</Time>
            <Position>
              <LatitudeDegrees>42.913979999721050262451171875</LatitudeDegrees>
              <LongitudeDegrees>0.6472021155059337615966796875</LongitudeDegrees>
            </Position>
            <AltitudeMeters>503</AltitudeMeters>
            <DistanceMeters>67131.268812984</DistanceMeters>
          </Trackpoint>
          <Trackpoint>
            <Time>2019-05-08T11:58:16.000Z</Time>
            <Position>
              <LatitudeDegrees>42.91363072581589221954345703125</LatitudeDegrees>
              <LongitudeDegrees>0.6469808332622051239013671875</LongitudeDegrees>
            </Position>
            <AltitudeMeters>502.79998779296875</AltitudeMeters>
            <DistanceMeters>67174.124491578</DistanceMeters>
          </Trackpoint>
          <Trackpoint>
            <Time>2019-05-08T11:58:17.000Z</Time>
            <Position>
              <LatitudeDegrees>42.91358261369168758392333984375</LatitudeDegrees>
              <LongitudeDegrees>0.64694353379309177398681640625</LongitudeDegrees>
            </Position>
            <AltitudeMeters>502.600006103515625</AltitudeMeters>
            <DistanceMeters>67180.282926531</DistanceMeters>
          </Trackpoint>
          <Trackpoint>
            <Time>2019-05-08T11:58:22.000Z</Time>
            <Position>
              <LatitudeDegrees>42.91335429064929485321044921875</LatitudeDegrees>
              <LongitudeDegrees>0.646731555461883544921875</LongitudeDegrees>
            </Position>
            <AltitudeMeters>502.600006103515625</AltitudeMeters>
            <DistanceMeters>67211.013896004</DistanceMeters>
          </Trackpoint>
          <Trackpoint>
            <Time>2019-05-08T11:58:25.000Z</Time>
            <Position>
              <LatitudeDegrees>42.91322420351207256317138671875</LatitudeDegrees>
              <LongitudeDegrees>0.6465945951640605926513671875</LongitudeDegrees>
            </Position>
            <AltitudeMeters>502.79998779296875</AltitudeMeters>
            <DistanceMeters>67229.297095117</DistanceMeters>
          </Trackpoint>
          <Trackpoint>
            <Time>2019-05-08T11:58:31.000Z</Time>
            <Position>
              <LatitudeDegrees>42.91300644166767597198486328125</LatitudeDegrees>
              <LongitudeDegrees>0.646275579929351806640625</LongitudeDegrees>
            </Position>
            <AltitudeMeters>503</AltitudeMeters>
            <DistanceMeters>67264.845597023</DistanceMeters>
          </Trackpoint>
          <Trackpoint>
            <Time>2019-05-08T11:58:33.000Z</Time>
            <Position>
              <LatitudeDegrees>42.91294190101325511932373046875</LatitudeDegrees>
              <LongitudeDegrees>0.64616217277944087982177734375</LongitudeDegrees>
            </Position>
            <AltitudeMeters>503</AltitudeMeters>
            <DistanceMeters>67276.552795675</DistanceMeters>
          </Trackpoint>
          <Trackpoint>
            <Time>2019-05-08T11:58:39.000Z</Time>
            <Position>
              <LatitudeDegrees>42.9127785377204418182373046875</LatitudeDegrees>
              <LongitudeDegrees>0.64581952057778835296630859375</LongitudeDegrees>
            </Position>
            <AltitudeMeters>503.600006103515625</AltitudeMeters>
            <DistanceMeters>67309.881307543</DistanceMeters>
          </Trackpoint>
          <Trackpoint>
            <Time>2019-05-08T11:58:41.000Z</Time>
            <Position>
              <LatitudeDegrees>42.91273604147136211395263671875</LatitudeDegrees>
              <LongitudeDegrees>0.64569764770567417144775390625</LongitudeDegrees>
            </Position>
            <AltitudeMeters>503.399993896484375</AltitudeMeters>
            <DistanceMeters>67320.884317808</DistanceMeters>
          </Trackpoint>
          <Trackpoint>
            <Time>2019-05-08T11:58:47.000Z</Time>
            <Position>
              <LatitudeDegrees>42.9126343689858913421630859375</LatitudeDegrees>
              <LongitudeDegrees>0.64531191252171993255615234375</LongitudeDegrees>
            </Position>
            <AltitudeMeters>503.79998779296875</AltitudeMeters>
            <DistanceMeters>67354.302526079</DistanceMeters>
          </Trackpoint>
          <Trackpoint>
            <Time>2019-05-08T11:58:49.000Z</Time>
            <Position>
              <LatitudeDegrees>42.912609390914440155029296875</LatitudeDegrees>
              <LongitudeDegrees>0.64518727362155914306640625</LongitudeDegrees>
            </Position>
            <AltitudeMeters>504</AltitudeMeters>
            <DistanceMeters>67364.836356311</DistanceMeters>
          </Trackpoint>
          <Trackpoint>
            <Time>2019-05-08T11:58:54.000Z</Time>
            <Position>
              <LatitudeDegrees>42.91255583055317401885986328125</LatitudeDegrees>
              <LongitudeDegrees>0.64486398361623287200927734375</LongitudeDegrees>
            </Position>
            <AltitudeMeters>504.20001220703125</AltitudeMeters>
            <DistanceMeters>67391.855711599</DistanceMeters>
          </Trackpoint>
          <Trackpoint>
            <Time>2019-05-08T11:58:58.000Z</Time>
            <Position>
              <LatitudeDegrees>42.91251090355217456817626953125</LatitudeDegrees>
              <LongitudeDegrees>0.64460565336048603057861328125</LongitudeDegrees>
            </Position>
            <AltitudeMeters>504.600006103515625</AltitudeMeters>
            <DistanceMeters>67413.499493054</DistanceMeters>
          </Trackpoint>
          <Trackpoint>
            <Time>2019-05-08T11:59:05.000Z</Time>
            <Position>
              <LatitudeDegrees>42.91243496350944042205810546875</LatitudeDegrees>
              <LongitudeDegrees>0.644151270389556884765625</LongitudeDegrees>
            </Position>
            <AltitudeMeters>505.20001220703125</AltitudeMeters>
            <DistanceMeters>67451.491644074</DistanceMeters>
          </Trackpoint>
          <Trackpoint>
            <Time>2019-05-08T11:59:09.000Z</Time>
            <Position>
              <LatitudeDegrees>42.912383414804935455322265625</LatitudeDegrees>
              <LongitudeDegrees>0.6438912637531757354736328125</LongitudeDegrees>
            </Position>
            <AltitudeMeters>505.399993896484375</AltitudeMeters>
            <DistanceMeters>67473.449396044</DistanceMeters>
          </Trackpoint>
          <Trackpoint>
            <Time>2019-05-08T11:59:12.000Z</Time>
            <Position>
              <LatitudeDegrees>42.91232985444366931915283203125</LatitudeDegrees>
              <LongitudeDegrees>0.64368381164968013763427734375</LongitudeDegrees>
            </Position>
            <AltitudeMeters>505.600006103515625</AltitudeMeters>
            <DistanceMeters>67491.38051151</DistanceMeters>
          </Trackpoint>
          <Trackpoint>
            <Time>2019-05-08T11:59:19.000Z</Time>
            <Position>
              <LatitudeDegrees>42.91218501515686511993408203125</LatitudeDegrees>
              <LongitudeDegrees>0.64315491355955600738525390625</LongitudeDegrees>
            </Position>
            <AltitudeMeters>506.399993896484375</AltitudeMeters>
            <DistanceMeters>67537.41014149</DistanceMeters>
          </Trackpoint>
          <Trackpoint>
            <Time>2019-05-08T11:59:20.000Z</Time>
            <Position>
              <LatitudeDegrees>42.91216271929442882537841796875</LatitudeDegrees>
              <LongitudeDegrees>0.64307696186006069183349609375</LongitudeDegrees>
            </Position>
            <AltitudeMeters>506.399993896484375</AltitudeMeters>
            <DistanceMeters>67544.231577109</DistanceMeters>
          </Trackpoint>
          <Trackpoint>
            <Time>2019-05-08T11:59:23.000Z</Time>
            <Position>
              <LatitudeDegrees>42.9120955802500247955322265625</LatitudeDegrees>
              <LongitudeDegrees>0.64284168183803558349609375</LongitudeDegrees>
            </Position>
            <AltitudeMeters>506.399993896484375</AltitudeMeters>
            <DistanceMeters>67564.815337377</DistanceMeters>
          </Trackpoint>
          <Trackpoint>
            <Time>2019-05-08T11:59:26.000Z</Time>
            <Position>
              <LatitudeDegrees>42.91202860884368419647216796875</LatitudeDegrees>
              <LongitudeDegrees>0.64261444844305515289306640625</LongitudeDegrees>
            </Position>
            <AltitudeMeters>506.600006103515625</AltitudeMeters>
            <DistanceMeters>67584.782709141</DistanceMeters>
          </Trackpoint>
          <Trackpoint>
            <Time>2019-05-08T11:59:28.000Z</Time>
            <Position>
              <LatitudeDegrees>42.9119859449565410614013671875</LatitudeDegrees>
              <LongitudeDegrees>0.6424666754901409149169921875</LongitudeDegrees>
            </Position>
            <AltitudeMeters>506.399993896484375</AltitudeMeters>
            <DistanceMeters>67597.730774605</DistanceMeters>
          </Trackpoint>
          <Trackpoint>
            <Time>2019-05-08T11:59:30.000Z</Time>
            <Position>
              <LatitudeDegrees>42.9119440354406833648681640625</LatitudeDegrees>
              <LongitudeDegrees>0.642322339117527008056640625</LongitudeDegrees>
            </Position>
            <AltitudeMeters>506.20001220703125</AltitudeMeters>
            <DistanceMeters>67610.387890634</DistanceMeters>
          </Trackpoint>
          <Trackpoint>
            <Time>2019-05-08T11:59:40.000Z</Time>
            <Position>
              <LatitudeDegrees>42.911720909178256988525390625</LatitudeDegrees>
              <LongitudeDegrees>0.64157023094594478607177734375</LongitudeDegrees>
            </Position>
            <AltitudeMeters>505.79998779296875</AltitudeMeters>
            <DistanceMeters>67676.536927758</DistanceMeters>
          </Trackpoint>
          <Trackpoint>
            <Time>2019-05-08T11:59:42.000Z</Time>
            <Position>
              <LatitudeDegrees>42.91167640127241611480712890625</LatitudeDegrees>
              <LongitudeDegrees>0.64142438583076000213623046875</LongitudeDegrees>
            </Position>
            <AltitudeMeters>505.79998779296875</AltitudeMeters>
            <DistanceMeters>67689.416465959</DistanceMeters>
          </Trackpoint>
          <Trackpoint>
            <Time>2019-05-08T11:59:47.000Z</Time>
            <Position>
              <LatitudeDegrees>42.91157263331115245819091796875</LatitudeDegrees>
              <LongitudeDegrees>0.6410920433700084686279296875</LongitudeDegrees>
            </Position>
            <AltitudeMeters>505.79998779296875</AltitudeMeters>
            <DistanceMeters>67718.867696201</DistanceMeters>
          </Trackpoint>
          <Trackpoint>
            <Time>2019-05-08T11:59:48.000Z</Time>
            <Position>
              <LatitudeDegrees>42.91155218146741390228271484375</LatitudeDegrees>
              <LongitudeDegrees>0.641029514372348785400390625</LongitudeDegrees>
            </Position>
            <AltitudeMeters>506</AltitudeMeters>
            <DistanceMeters>67724.450869482</DistanceMeters>
          </Trackpoint>
          <Trackpoint>
            <Time>2019-05-08T11:59:50.000Z</Time>
            <Position>
              <LatitudeDegrees>42.9115111939609050750732421875</LatitudeDegrees>
              <LongitudeDegrees>0.640907473862171173095703125</LongitudeDegrees>
            </Position>
            <AltitudeMeters>506.20001220703125</AltitudeMeters>
            <DistanceMeters>67735.395455542</DistanceMeters>
          </Trackpoint>
          <Trackpoint>
            <Time>2019-05-08T11:59:54.000Z</Time>
            <Position>
              <LatitudeDegrees>42.9114250279963016510009765625</LatitudeDegrees>
              <LongitudeDegrees>0.640668757259845733642578125</LongitudeDegrees>
            </Position>
            <AltitudeMeters>507</AltitudeMeters>
            <DistanceMeters>67757.090285443</DistanceMeters>
          </Trackpoint>
          <Trackpoint>
            <Time>2019-05-08T11:59:57.000Z</Time>
            <Position>
              <LatitudeDegrees>42.9113566316664218902587890625</LatitudeDegrees>
              <LongitudeDegrees>0.6404892168939113616943359375</LongitudeDegrees>
            </Position>
            <AltitudeMeters>507.399993896484375</AltitudeMeters>
            <DistanceMeters>67773.587755068</DistanceMeters>
          </Trackpoint>
          <Trackpoint>
            <Time>2019-05-08T12:00:00.000Z</Time>
            <Position>
              <LatitudeDegrees>42.91128714568912982940673828125</LatitudeDegrees>
              <LongitudeDegrees>0.64031495712697505950927734375</LongitudeDegrees>
            </Position>
            <AltitudeMeters>507.79998779296875</AltitudeMeters>
            <DistanceMeters>67789.762128152</DistanceMeters>
          </Trackpoint>
          <Trackpoint>
            <Time>2019-05-08T12:00:05.000Z</Time>
            <Position>
              <LatitudeDegrees>42.91117516346275806427001953125</LatitudeDegrees>
              <LongitudeDegrees>0.6400500051677227020263671875</LongitudeDegrees>
            </Position>
            <AltitudeMeters>509</AltitudeMeters>
            <DistanceMeters>67814.698992113</DistanceMeters>
          </Trackpoint>
          <Trackpoint>
            <Time>2019-05-08T12:00:10.000Z</Time>
            <Position>
              <LatitudeDegrees>42.911059074103832244873046875</LatitudeDegrees>
              <LongitudeDegrees>0.63980139791965484619140625</LongitudeDegrees>
            </Position>
            <AltitudeMeters>509.79998779296875</AltitudeMeters>
            <DistanceMeters>67838.733801251</DistanceMeters>
          </Trackpoint>
          <Trackpoint>
            <Time>2019-05-08T12:00:11.000Z</Time>
            <Position>
              <LatitudeDegrees>42.91103468276560306549072265625</LatitudeDegrees>
              <LongitudeDegrees>0.639750771224498748779296875</LongitudeDegrees>
            </Position>
            <AltitudeMeters>510</AltitudeMeters>
            <DistanceMeters>67843.674276595</DistanceMeters>
          </Trackpoint>
          <Trackpoint>
            <Time>2019-05-08T12:00:15.000Z</Time>
            <Position>
              <LatitudeDegrees>42.9109331779181957244873046875</LatitudeDegrees>
              <LongitudeDegrees>0.63954600133001804351806640625</LongitudeDegrees>
            </Position>
            <AltitudeMeters>510.79998779296875</AltitudeMeters>
            <DistanceMeters>67863.830694912</DistanceMeters>
          </Trackpoint>
          <Trackpoint>
            <Time>2019-05-08T12:00:20.000Z</Time>
            <Position>
              <LatitudeDegrees>42.91078984737396240234375</LatitudeDegrees>
              <LongitudeDegrees>0.63929219730198383331298828125</LongitudeDegrees>
            </Position>
            <AltitudeMeters>511.399993896484375</AltitudeMeters>
            <DistanceMeters>67889.956647875</DistanceMeters>
          </Trackpoint>
          <Trackpoint>
            <Time>2019-05-08T12:00:22.000Z</Time>
            <Position>
              <LatitudeDegrees>42.91073226369917392730712890625</LatitudeDegrees>
              <LongitudeDegrees>0.63919161446392536163330078125</LongitudeDegrees>
            </Position>
            <AltitudeMeters>511.399993896484375</AltitudeMeters>
            <DistanceMeters>67900.363700141</DistanceMeters>
          </Trackpoint>
          <Trackpoint>
            <Time>2019-05-08T12:00:29.000Z</Time>
            <Position>
              <LatitudeDegrees>42.91050947271287441253662109375</LatitudeDegrees>
              <LongitudeDegrees>0.63882985152304172515869140625</LongitudeDegrees>
            </Position>
            <AltitudeMeters>512.5999755859375</AltitudeMeters>
            <DistanceMeters>67938.894191286</DistanceMeters>
          </Trackpoint>
          <Trackpoint>
            <Time>2019-05-08T12:00:31.000Z</Time>
            <Position>
              <LatitudeDegrees>42.910440154373645782470703125</LatitudeDegrees>
              <LongitudeDegrees>0.6387323699891567230224609375</LongitudeDegrees>
            </Position>
            <AltitudeMeters>513</AltitudeMeters>
            <DistanceMeters>67949.970002249</DistanceMeters>
          </Trackpoint>
          <Trackpoint>
            <Time>2019-05-08T12:00:38.000Z</Time>
            <Position>
              <LatitudeDegrees>42.9101774655282497406005859375</LatitudeDegrees>
              <LongitudeDegrees>0.63839265145361423492431640625</LongitudeDegrees>
            </Position>
            <AltitudeMeters>514</AltitudeMeters>
            <DistanceMeters>67990.241377557</DistanceMeters>
          </Trackpoint>
          <Trackpoint>
            <Time>2019-05-08T12:00:46.000Z</Time>
            <Position>
              <LatitudeDegrees>42.90982483886182308197021484375</LatitudeDegrees>
              <LongitudeDegrees>0.6379806809127330780029296875</LongitudeDegrees>
            </Position>
            <AltitudeMeters>514.4000244140625</AltitudeMeters>
            <DistanceMeters>68041.896854114</DistanceMeters>
          </Trackpoint>
          <Trackpoint>
            <Time>2019-05-08T12:00:49.000Z</Time>
            <Position>
              <LatitudeDegrees>42.909677736461162567138671875</LatitudeDegrees>
              <LongitudeDegrees>0.63782586716115474700927734375</LongitudeDegrees>
            </Position>
            <AltitudeMeters>514.79998779296875</AltitudeMeters>
            <DistanceMeters>68062.569041653</DistanceMeters>
          </Trackpoint>
          <Trackpoint>
            <Time>2019-05-08T12:00:54.000Z</Time>
            <Position>
              <LatitudeDegrees>42.90942150168120861053466796875</LatitudeDegrees>
              <LongitudeDegrees>0.63757223077118396759033203125</LongitudeDegrees>
            </Position>
            <AltitudeMeters>515</AltitudeMeters>
            <DistanceMeters>68097.79512552</DistanceMeters>
          </Trackpoint>
          <Trackpoint>
            <Time>2019-05-08T12:00:57.000Z</Time>
            <Position>
              <LatitudeDegrees>42.90927783586084842681884765625</LatitudeDegrees>
              <LongitudeDegrees>0.63743560574948787689208984375</LongitudeDegrees>
            </Position>
            <AltitudeMeters>515</AltitudeMeters>
            <DistanceMeters>68117.282322209</DistanceMeters>
          </Trackpoint>
          <Trackpoint>
            <Time>2019-05-08T12:01:02.000Z</Time>
            <Position>
              <LatitudeDegrees>42.909034006297588348388671875</LatitudeDegrees>
              <LongitudeDegrees>0.63721767626702785491943359375</LongitudeDegrees>
            </Position>
            <AltitudeMeters>515.20001220703125</AltitudeMeters>
            <DistanceMeters>68149.719019896</DistanceMeters>
          </Trackpoint>
          <Trackpoint>
            <Time>2019-05-08T12:01:06.000Z</Time>
            <Position>
              <LatitudeDegrees>42.90882001630961894989013671875</LatitudeDegrees>
              <LongitudeDegrees>0.63706554472446441650390625</LongitudeDegrees>
            </Position>
            <AltitudeMeters>515.4000244140625</AltitudeMeters>
            <DistanceMeters>68176.572096524</DistanceMeters>
          </Trackpoint>
          <Trackpoint>
            <Time>2019-05-08T12:01:11.000Z</Time>
            <Position>
              <LatitudeDegrees>42.90853972546756267547607421875</LatitudeDegrees>
              <LongitudeDegrees>0.636879466474056243896484375</LongitudeDegrees>
            </Position>
            <AltitudeMeters>515.20001220703125</AltitudeMeters>
            <DistanceMeters>68211.261663357</DistanceMeters>
          </Trackpoint>
          <Trackpoint>
            <Time>2019-05-08T12:01:13.000Z</Time>
            <Position>
              <LatitudeDegrees>42.9084259830415248870849609375</LatitudeDegrees>
              <LongitudeDegrees>0.63680478371679782867431640625</LongitudeDegrees>
            </Position>
            <AltitudeMeters>515.4000244140625</AltitudeMeters>
            <DistanceMeters>68225.309556103</DistanceMeters>
          </Trackpoint>
          <Trackpoint>
            <Time>2019-05-08T12:01:21.000Z</Time>
            <Position>
              <LatitudeDegrees>42.9079405032098293304443359375</LatitudeDegrees>
              <LongitudeDegrees>0.6365342997014522552490234375</LongitudeDegrees>
            </Position>
            <AltitudeMeters>515.20001220703125</AltitudeMeters>
            <DistanceMeters>68283.670504977</DistanceMeters>
          </Trackpoint>
          <Trackpoint>
            <Time>2019-05-08T12:01:27.000Z</Time>
            <Position>
              <LatitudeDegrees>42.907599024474620819091796875</LatitudeDegrees>
              <LongitudeDegrees>0.63635685481131076812744140625</LongitudeDegrees>
            </Position>
            <AltitudeMeters>515.20001220703125</AltitudeMeters>
            <DistanceMeters>68324.337720033</DistanceMeters>
          </Trackpoint>
          <Trackpoint>
            <Time>2019-05-08T12:01:37.000Z</Time>
            <Position>
              <LatitudeDegrees>42.90704741142690181732177734375</LatitudeDegrees>
              <LongitudeDegrees>0.6360625661909580230712890625</LongitudeDegrees>
            </Position>
            <AltitudeMeters>515.20001220703125</AltitudeMeters>
            <DistanceMeters>68390.254485296</DistanceMeters>
          </Trackpoint>
          <Trackpoint>
            <Time>2019-05-08T12:01:38.000Z</Time>
            <Position>
              <LatitudeDegrees>42.90699183940887451171875</LatitudeDegrees>
              <LongitudeDegrees>0.6360335648059844970703125</LongitudeDegrees>
            </Position>
            <AltitudeMeters>515.20001220703125</AltitudeMeters>
            <DistanceMeters>68396.876422415</DistanceMeters>
          </Trackpoint>
          <Trackpoint>
            <Time>2019-05-08T12:01:40.000Z</Time>
            <Position>
              <LatitudeDegrees>42.906882874667644500732421875</LatitudeDegrees>
              <LongitudeDegrees>0.63597447238862514495849609375</LongitudeDegrees>
            </Position>
            <AltitudeMeters>515.20001220703125</AltitudeMeters>
            <DistanceMeters>68409.925912121</DistanceMeters>
          </Trackpoint>
          <Trackpoint>
            <Time>2019-05-08T12:01:47.000Z</Time>
            <Position>
              <LatitudeDegrees>42.90652572177350521087646484375</LatitudeDegrees>
              <LongitudeDegrees>0.6357628293335437774658203125</LongitudeDegrees>
            </Position>
            <AltitudeMeters>515.79998779296875</AltitudeMeters>
            <DistanceMeters>68453.260802884</DistanceMeters>
          </Trackpoint>
          <Trackpoint>
            <Time>2019-05-08T12:01:55.000Z</Time>
            <Position>
              <LatitudeDegrees>42.9061347059905529022216796875</LatitudeDegrees>
              <LongitudeDegrees>0.63547222875058650970458984375</LongitudeDegrees>
            </Position>
            <AltitudeMeters>517</AltitudeMeters>
            <DistanceMeters>68502.812200398</DistanceMeters>
          </Trackpoint>
          <Trackpoint>
            <Time>2019-05-08T12:02:01.000Z</Time>
            <Position>
              <LatitudeDegrees>42.90583522059023380279541015625</LatitudeDegrees>
              <LongitudeDegrees>0.6352351047098636627197265625</LongitudeDegrees>
            </Position>
            <AltitudeMeters>517.4000244140625</AltitudeMeters>
            <DistanceMeters>68541.345503782</DistanceMeters>
          </Trackpoint>
          <Trackpoint>
            <Time>2019-05-08T12:02:03.000Z</Time>
            <Position>
              <LatitudeDegrees>42.9057405889034271240234375</LatitudeDegrees>
              <LongitudeDegrees>0.635155141353607177734375</LongitudeDegrees>
            </Position>
            <AltitudeMeters>517.5999755859375</AltitudeMeters>
            <DistanceMeters>68553.73255585</DistanceMeters>
          </Trackpoint>
          <Trackpoint>
            <Time>2019-05-08T12:02:11.000Z</Time>
            <Position>
              <LatitudeDegrees>42.90541528724133968353271484375</LatitudeDegrees>
              <LongitudeDegrees>0.63483797013759613037109375</LongitudeDegrees>
            </Position>
            <AltitudeMeters>518</AltitudeMeters>
            <DistanceMeters>68598.224749524</DistanceMeters>
          </Trackpoint>
          <Trackpoint>
            <Time>2019-05-08T12:02:16.000Z</Time>
            <Position>
              <LatitudeDegrees>42.9052391834557056427001953125</LatitudeDegrees>
              <LongitudeDegrees>0.63462096266448497772216796875</LongitudeDegrees>
            </Position>
            <AltitudeMeters>518.5999755859375</AltitudeMeters>
            <DistanceMeters>68624.629183661</DistanceMeters>
          </Trackpoint>
          <Trackpoint>
            <Time>2019-05-08T12:02:20.000Z</Time>
            <Position>
              <LatitudeDegrees>42.905106581747531890869140625</LatitudeDegrees>
              <LongitudeDegrees>0.63444561325013637542724609375</LongitudeDegrees>
            </Position>
            <AltitudeMeters>519.20001220703125</AltitudeMeters>
            <DistanceMeters>68645.17671938</DistanceMeters>
          </Trackpoint>
          <Trackpoint>
            <Time>2019-05-08T12:02:25.000Z</Time>
            <Position>
              <LatitudeDegrees>42.9049572162330150604248046875</LatitudeDegrees>
              <LongitudeDegrees>0.63419784419238567352294921875</LongitudeDegrees>
            </Position>
            <AltitudeMeters>520.20001220703125</AltitudeMeters>
            <DistanceMeters>68671.338076071</DistanceMeters>
          </Trackpoint>
          <Trackpoint>
            <Time>2019-05-08T12:02:27.000Z</Time>
            <Position>
              <LatitudeDegrees>42.9049037396907806396484375</LatitudeDegrees>
              <LongitudeDegrees>0.634097345173358917236328125</LongitudeDegrees>
            </Position>
            <AltitudeMeters>520.4000244140625</AltitudeMeters>
            <DistanceMeters>68681.464999502</DistanceMeters>
          </Trackpoint>
          <Trackpoint>
            <Time>2019-05-08T12:02:29.000Z</Time>
            <Position>
              <LatitudeDegrees>42.9048546217381954193115234375</LatitudeDegrees>
              <LongitudeDegrees>0.63400036655366420745849609375</LongitudeDegrees>
            </Position>
            <AltitudeMeters>521</AltitudeMeters>
            <DistanceMeters>68691.077269899</DistanceMeters>
          </Trackpoint>
          <Trackpoint>
            <Time>2019-05-08T12:02:33.000Z</Time>
            <Position>
              <LatitudeDegrees>42.90475462563335895538330078125</LatitudeDegrees>
              <LongitudeDegrees>0.63379886560142040252685546875</LongitudeDegrees>
            </Position>
            <AltitudeMeters>521.4000244140625</AltitudeMeters>
            <DistanceMeters>68710.92034056</DistanceMeters>
          </Trackpoint>
          <Trackpoint>
            <Time>2019-05-08T12:02:35.000Z</Time>
            <Position>
              <LatitudeDegrees>42.904704250395298004150390625</LatitudeDegrees>
              <LongitudeDegrees>0.63369090668857097625732421875</LongitudeDegrees>
            </Position>
            <AltitudeMeters>522</AltitudeMeters>
            <DistanceMeters>68721.355987253</DistanceMeters>
          </Trackpoint>
          <Trackpoint>
            <Time>2019-05-08T12:02:37.000Z</Time>
            <Position>
              <LatitudeDegrees>42.9046547971665859222412109375</LatitudeDegrees>
              <LongitudeDegrees>0.63358982093632221221923828125</LongitudeDegrees>
            </Position>
            <AltitudeMeters>522.5999755859375</AltitudeMeters>
            <DistanceMeters>68731.26613919</DistanceMeters>
          </Trackpoint>
          <Trackpoint>
            <Time>2019-05-08T12:02:41.000Z</Time>
            <Position>
              <LatitudeDegrees>42.9045625962316989898681640625</LatitudeDegrees>
              <LongitudeDegrees>0.6333981268107891082763671875</LongitudeDegrees>
            </Position>
            <AltitudeMeters>524</AltitudeMeters>
            <DistanceMeters>68749.962509403</DistanceMeters>
          </Trackpoint>
          <Trackpoint>
            <Time>2019-05-08T12:02:43.000Z</Time>
            <Position>
              <LatitudeDegrees>42.9045116342604160308837890625</LatitudeDegrees>
              <LongitudeDegrees>0.63330818898975849151611328125</LongitudeDegrees>
            </Position>
            <AltitudeMeters>524.4000244140625</AltitudeMeters>
            <DistanceMeters>68759.233338255</DistanceMeters>
          </Trackpoint>
          <Trackpoint>
            <Time>2019-05-08T12:02:49.000Z</Time>
            <Position>
              <LatitudeDegrees>42.9043332673609256744384765625</LatitudeDegrees>
              <LongitudeDegrees>0.63307349570095539093017578125</LongitudeDegrees>
            </Position>
            <AltitudeMeters>525.5999755859375</AltitudeMeters>
            <DistanceMeters>68786.805827004</DistanceMeters>
          </Trackpoint>
          <Trackpoint>
            <Time>2019-05-08T12:02:51.000Z</Time>
            <Position>
              <LatitudeDegrees>42.90426671504974365234375</LatitudeDegrees>
              <LongitudeDegrees>0.6330088712275028228759765625</LongitudeDegrees>
            </Position>
            <AltitudeMeters>526</AltitudeMeters>
            <DistanceMeters>68795.895667457</DistanceMeters>
          </Trackpoint>
          <Trackpoint>
            <Time>2019-05-08T12:02:56.000Z</Time>
            <Position>
              <LatitudeDegrees>42.9040767811238765716552734375</LatitudeDegrees>
              <LongitudeDegrees>0.63287115655839443206787109375</LongitudeDegrees>
            </Position>
            <AltitudeMeters>526.5999755859375</AltitudeMeters>
            <DistanceMeters>68819.832215879</DistanceMeters>
          </Trackpoint>
          <Trackpoint>
            <Time>2019-05-08T12:03:00.000Z</Time>
            <Position>
              <LatitudeDegrees>42.90390486828982830047607421875</LatitudeDegrees>
              <LongitudeDegrees>0.6327953003346920013427734375</LongitudeDegrees>
            </Position>
            <AltitudeMeters>526.5999755859375</AltitudeMeters>
            <DistanceMeters>68839.941090118</DistanceMeters>
          </Trackpoint>
          <Trackpoint>
            <Time>2019-05-08T12:03:04.000Z</Time>
            <Position>
              <LatitudeDegrees>42.903723903000354766845703125</LatitudeDegrees>
              <LongitudeDegrees>0.6327644549310207366943359375</LongitudeDegrees>
            </Position>
            <AltitudeMeters>526.79998779296875</AltitudeMeters>
            <DistanceMeters>68860.239250082</DistanceMeters>
          </Trackpoint>
          <Trackpoint>
            <Time>2019-05-08T12:03:06.000Z</Time>
            <Position>
              <LatitudeDegrees>42.903632707893848419189453125</LatitudeDegrees>
              <LongitudeDegrees>0.6327557377517223358154296875</LongitudeDegrees>
            </Position>
            <AltitudeMeters>526.79998779296875</AltitudeMeters>
            <DistanceMeters>68870.41421084</DistanceMeters>
          </Trackpoint>
          <Trackpoint>
            <Time>2019-05-08T12:03:07.000Z</Time>
            <Position>
              <LatitudeDegrees>42.90358744561672210693359375</LatitudeDegrees>
              <LongitudeDegrees>0.63275615684688091278076171875</LongitudeDegrees>
            </Position>
            <AltitudeMeters>526.79998779296875</AltitudeMeters>
            <DistanceMeters>68875.4515231</DistanceMeters>
          </Trackpoint>
          <Trackpoint>
            <Time>2019-05-08T12:03:11.000Z</Time>
            <Position>
              <LatitudeDegrees>42.90341167710721492767333984375</LatitudeDegrees>
              <LongitudeDegrees>0.6328013353049755096435546875</LongitudeDegrees>
            </Position>
            <AltitudeMeters>527</AltitudeMeters>
            <DistanceMeters>68895.358655862</DistanceMeters>
          </Trackpoint>
          <Trackpoint>
            <Time>2019-05-08T12:03:12.000Z</Time>
            <Position>
              <LatitudeDegrees>42.90336758829653263092041015625</LatitudeDegrees>
              <LongitudeDegrees>0.63281768001616001129150390625</LongitudeDegrees>
            </Position>
            <AltitudeMeters>526.79998779296875</AltitudeMeters>
            <DistanceMeters>68900.442363051</DistanceMeters>
          </Trackpoint>
          <Trackpoint>
            <Time>2019-05-08T12:03:17.000Z</Time>
            <Position>
              <LatitudeDegrees>42.90315426886081695556640625</LatitudeDegrees>
              <LongitudeDegrees>0.63292421400547027587890625</LongitudeDegrees>
            </Position>
            <AltitudeMeters>527.20001220703125</AltitudeMeters>
            <DistanceMeters>68925.72411281</DistanceMeters>
          </Trackpoint>
          <Trackpoint>
            <Time>2019-05-08T12:03:22.000Z</Time>
            <Position>
              <LatitudeDegrees>42.902981936931610107421875</LatitudeDegrees>
              <LongitudeDegrees>0.6330688856542110443115234375</LongitudeDegrees>
            </Position>
            <AltitudeMeters>528.5999755859375</AltitudeMeters>
            <DistanceMeters>68948.241233678</DistanceMeters>
          </Trackpoint>
          <Trackpoint>
            <Time>2019-05-08T12:03:24.000Z</Time>
            <Position>
              <LatitudeDegrees>42.90291949175298213958740234375</LatitudeDegrees>
              <LongitudeDegrees>0.6331382878124713897705078125</LongitudeDegrees>
            </Position>
            <AltitudeMeters>529</AltitudeMeters>
            <DistanceMeters>68957.204021193</DistanceMeters>
          </Trackpoint>
          <Trackpoint>
            <Time>2019-05-08T12:03:28.000Z</Time>
            <Position>
              <LatitudeDegrees>42.90280482731759548187255859375</LatitudeDegrees>
              <LongitudeDegrees>0.6332931853830814361572265625</LongitudeDegrees>
            </Position>
            <AltitudeMeters>529.5999755859375</AltitudeMeters>
            <DistanceMeters>68975.158790171</DistanceMeters>
          </Trackpoint>
          <Trackpoint>
            <Time>2019-05-08T12:03:31.000Z</Time>
            <Position>
              <LatitudeDegrees>42.90271882899105548858642578125</LatitudeDegrees>
              <LongitudeDegrees>0.6334018148481845855712890625</LongitudeDegrees>
            </Position>
            <AltitudeMeters>530</AltitudeMeters>
            <DistanceMeters>68988.199627171</DistanceMeters>
          </Trackpoint>
          <Trackpoint>
            <Time>2019-05-08T12:03:33.000Z</Time>
            <Position>
              <LatitudeDegrees>42.9026602394878864288330078125</LatitudeDegrees>
              <LongitudeDegrees>0.6334564648568630218505859375</LongitudeDegrees>
            </Position>
            <AltitudeMeters>530.4000244140625</AltitudeMeters>
            <DistanceMeters>68996.097713527</DistanceMeters>
          </Trackpoint>
          <Trackpoint>
            <Time>2019-05-08T12:03:36.000Z</Time>
            <Position>
              <LatitudeDegrees>42.90257734246551990509033203125</LatitudeDegrees>
              <LongitudeDegrees>0.63355880789458751678466796875</LongitudeDegrees>
            </Position>
            <AltitudeMeters>530.79998779296875</AltitudeMeters>
            <DistanceMeters>69008.537505326</DistanceMeters>
          </Trackpoint>
          <Trackpoint>
            <Time>2019-05-08T12:03:39.000Z</Time>
            <Position>
              <LatitudeDegrees>42.9024895839393138885498046875</LatitudeDegrees>
              <LongitudeDegrees>0.63365519978106021881103515625</LongitudeDegrees>
            </Position>
            <AltitudeMeters>531.4000244140625</AltitudeMeters>
            <DistanceMeters>69021.074190714</DistanceMeters>
          </Trackpoint>
          <Trackpoint>
            <Time>2019-05-08T12:03:43.000Z</Time>
            <Position>
              <LatitudeDegrees>42.90236435830593109130859375</LatitudeDegrees>
              <LongitudeDegrees>0.6337769888341426849365234375</LongitudeDegrees>
            </Position>
            <AltitudeMeters>532.20001220703125</AltitudeMeters>
            <DistanceMeters>69038.186916361</DistanceMeters>
          </Trackpoint>
          <Trackpoint>
            <Time>2019-05-08T12:03:44.000Z</Time>
            <Position>
              <LatitudeDegrees>42.9023326747119426727294921875</LatitudeDegrees>
              <LongitudeDegrees>0.63380506820976734161376953125</LongitudeDegrees>
            </Position>
            <AltitudeMeters>532.4000244140625</AltitudeMeters>
            <DistanceMeters>69042.391781362</DistanceMeters>
          </Trackpoint>
          <Trackpoint>
            <Time>2019-05-08T12:03:49.000Z</Time>
            <Position>
              <LatitudeDegrees>42.90215455926954746246337890625</LatitudeDegrees>
              <LongitudeDegrees>0.63390011899173259735107421875</LongitudeDegrees>
            </Position>
            <AltitudeMeters>533.20001220703125</AltitudeMeters>
            <DistanceMeters>69063.67734115</DistanceMeters>
          </Trackpoint>
          <Trackpoint>
            <Time>2019-05-08T12:03:55.000Z</Time>
            <Position>
              <LatitudeDegrees>42.9019222967326641082763671875</LatitudeDegrees>
              <LongitudeDegrees>0.63392358832061290740966796875</LongitudeDegrees>
            </Position>
            <AltitudeMeters>534.4000244140625</AltitudeMeters>
            <DistanceMeters>69089.599437486</DistanceMeters>
          </Trackpoint>
          <Trackpoint>
            <Time>2019-05-08T12:03:56.000Z</Time>
            <Position>
              <LatitudeDegrees>42.90188382379710674285888671875</LatitudeDegrees>
              <LongitudeDegrees>0.633917637169361114501953125</LongitudeDegrees>
            </Position>
            <AltitudeMeters>534.20001220703125</AltitudeMeters>
            <DistanceMeters>69093.909294472</DistanceMeters>
          </Trackpoint>
          <Trackpoint>
            <Time>2019-05-08T12:04:02.000Z</Time>
            <Position>
              <LatitudeDegrees>42.90165466256439685821533203125</LatitudeDegrees>
              <LongitudeDegrees>0.633821077644824981689453125</LongitudeDegrees>
            </Position>
            <AltitudeMeters>534.79998779296875</AltitudeMeters>
            <DistanceMeters>69120.602838112</DistanceMeters>
          </Trackpoint>
          <Trackpoint>
            <Time>2019-05-08T12:04:03.000Z</Time>
            <Position>
              <LatitudeDegrees>42.9016171954572200775146484375</LatitudeDegrees>
              <LongitudeDegrees>0.6337987817823886871337890625</LongitudeDegrees>
            </Position>
            <AltitudeMeters>535</AltitudeMeters>
            <DistanceMeters>69125.152226556</DistanceMeters>
          </Trackpoint>
          <Trackpoint>
            <Time>2019-05-08T12:04:06.000Z</Time>
            <Position>
              <LatitudeDegrees>42.9015122540295124053955078125</LatitudeDegrees>
              <LongitudeDegrees>0.6337354145944118499755859375</LongitudeDegrees>
            </Position>
            <AltitudeMeters>535.79998779296875</AltitudeMeters>
            <DistanceMeters>69137.923689698</DistanceMeters>
          </Trackpoint>
          <Trackpoint>
            <Time>2019-05-08T12:04:12.000Z</Time>
            <Position>
              <LatitudeDegrees>42.90129977278411388397216796875</LatitudeDegrees>
              <LongitudeDegrees>0.633599460124969482421875</LongitudeDegrees>
            </Position>
            <AltitudeMeters>536.5999755859375</AltitudeMeters>
            <DistanceMeters>69164.042037557</DistanceMeters>
          </Trackpoint>
          <Trackpoint>
            <Time>2019-05-08T12:04:18.000Z</Time>
            <Position>
              <LatitudeDegrees>42.90108720771968364715576171875</LatitudeDegrees>
              <LongitudeDegrees>0.6334785930812358856201171875</LongitudeDegrees>
            </Position>
            <AltitudeMeters>538.20001220703125</AltitudeMeters>
            <DistanceMeters>69189.671078908</DistanceMeters>
          </Trackpoint>
          <Trackpoint>
            <Time>2019-05-08T12:04:21.000Z</Time>
            <Position>
              <LatitudeDegrees>42.90097002871334552764892578125</LatitudeDegrees>
              <LongitudeDegrees>0.63342670910060405731201171875</LongitudeDegrees>
            </Position>
            <AltitudeMeters>538.5999755859375</AltitudeMeters>
            <DistanceMeters>69203.38261389</DistanceMeters>
          </Trackpoint>
          <Trackpoint>
            <Time>2019-05-08T12:04:25.000Z</Time>
            <Position>
              <LatitudeDegrees>42.9008101858198642730712890625</LatitudeDegrees>
              <LongitudeDegrees>0.63336082734167575836181640625</LongitudeDegrees>
            </Position>
            <AltitudeMeters>539.4000244140625</AltitudeMeters>
            <DistanceMeters>69221.9668366</DistanceMeters>
          </Trackpoint>
          <Trackpoint>
            <Time>2019-05-08T12:04:31.000Z</Time>
            <Position>
              <LatitudeDegrees>42.90057725273072719573974609375</LatitudeDegrees>
              <LongitudeDegrees>0.633269883692264556884765625</LongitudeDegrees>
            </Position>
            <AltitudeMeters>540</AltitudeMeters>
            <DistanceMeters>69248.932330765</DistanceMeters>
          </Trackpoint>
          <Trackpoint>
            <Time>2019-05-08T12:04:32.000Z</Time>
            <Position>
              <LatitudeDegrees>42.9005397856235504150390625</LatitudeDegrees>
              <LongitudeDegrees>0.63325538299977779388427734375</LongitudeDegrees>
            </Position>
            <AltitudeMeters>540</AltitudeMeters>
            <DistanceMeters>69253.267257417</DistanceMeters>
          </Trackpoint>
          <Trackpoint>
            <Time>2019-05-08T12:04:38.000Z</Time>
            <Position>
              <LatitudeDegrees>42.90030869655311107635498046875</LatitudeDegrees>
              <LongitudeDegrees>0.6331885792315006256103515625</LongitudeDegrees>
            </Position>
            <AltitudeMeters>541</AltitudeMeters>
            <DistanceMeters>69279.558248869</DistanceMeters>
          </Trackpoint>
          <Trackpoint>
            <Time>2019-05-08T12:04:39.000Z</Time>
            <Position>
              <LatitudeDegrees>42.90026963688433170318603515625</LatitudeDegrees>
              <LongitudeDegrees>0.63317768275737762451171875</LongitudeDegrees>
            </Position>
            <AltitudeMeters>541</AltitudeMeters>
            <DistanceMeters>69283.995090836</DistanceMeters>
          </Trackpoint>
          <Trackpoint>
            <Time>2019-05-08T12:04:46.000Z</Time>
            <Position>
              <LatitudeDegrees>42.9000048525631427764892578125</LatitudeDegrees>
              <LongitudeDegrees>0.63310937024652957916259765625</LongitudeDegrees>
            </Position>
            <AltitudeMeters>542.5999755859375</AltitudeMeters>
            <DistanceMeters>69313.987725852</DistanceMeters>
          </Trackpoint>
          <Trackpoint>
            <Time>2019-05-08T12:04:54.000Z</Time>
            <Position>
              <LatitudeDegrees>42.8997138328850269317626953125</LatitudeDegrees>
              <LongitudeDegrees>0.63294910825788974761962890625</LongitudeDegrees>
            </Position>
            <AltitudeMeters>543.5999755859375</AltitudeMeters>
            <DistanceMeters>69348.915182205</DistanceMeters>
          </Trackpoint>
          <Trackpoint>
            <Time>2019-05-08T12:04:57.000Z</Time>
            <Position>
              <LatitudeDegrees>42.8996251523494720458984375</LatitudeDegrees>
              <LongitudeDegrees>0.63286252319812774658203125</LongitudeDegrees>
            </Position>
            <AltitudeMeters>544.20001220703125</AltitudeMeters>
            <DistanceMeters>69361.050357797</DistanceMeters>
          </Trackpoint>
          <Trackpoint>
            <Time>2019-05-08T12:05:01.000Z</Time>
            <Position>
              <LatitudeDegrees>42.89950202219188213348388671875</LatitudeDegrees>
              <LongitudeDegrees>0.63274157233536243438720703125</LongitudeDegrees>
            </Position>
            <AltitudeMeters>544.4000244140625</AltitudeMeters>
            <DistanceMeters>69377.934655631</DistanceMeters>
          </Trackpoint>
          <Trackpoint>
            <Time>2019-05-08T12:05:03.000Z</Time>
            <Position>
              <LatitudeDegrees>42.89944745600223541259765625</LatitudeDegrees>
              <LongitudeDegrees>0.632648281753063201904296875</LongitudeDegrees>
            </Position>
            <AltitudeMeters>544.20001220703125</AltitudeMeters>
            <DistanceMeters>69387.668286097</DistanceMeters>
          </Trackpoint>
          <Trackpoint>
            <Time>2019-05-08T12:05:06.000Z</Time>
            <Position>
              <LatitudeDegrees>42.89937495253980159759521484375</LatitudeDegrees>
              <LongitudeDegrees>0.63248810358345508575439453125</LongitudeDegrees>
            </Position>
            <AltitudeMeters>544.4000244140625</AltitudeMeters>
            <DistanceMeters>69403.020321636</DistanceMeters>
          </Trackpoint>
          <Trackpoint>
            <Time>2019-05-08T12:05:07.000Z</Time>
            <Position>
              <LatitudeDegrees>42.89935332722961902618408203125</LatitudeDegrees>
              <LongitudeDegrees>0.63242875970900058746337890625</LongitudeDegrees>
            </Position>
            <AltitudeMeters>544.4000244140625</AltitudeMeters>
            <DistanceMeters>69408.424326375</DistanceMeters>
          </Trackpoint>
          <Trackpoint>
            <Time>2019-05-08T12:05:08.000Z</Time>
            <Position>
              <LatitudeDegrees>42.899333797395229339599609375</LatitudeDegrees>
              <LongitudeDegrees>0.6323651410639286041259765625</LongitudeDegrees>
            </Position>
            <AltitudeMeters>544.4000244140625</AltitudeMeters>
            <DistanceMeters>69414.047788627</DistanceMeters>
          </Trackpoint>
          <Trackpoint>
            <Time>2019-05-08T12:05:12.000Z</Time>
            <Position>
              <LatitudeDegrees>42.89927302859723567962646484375</LatitudeDegrees>
              <LongitudeDegrees>0.63207169063389301300048828125</LongitudeDegrees>
            </Position>
            <AltitudeMeters>544</AltitudeMeters>
            <DistanceMeters>69438.911760424</DistanceMeters>
          </Trackpoint>
          <Trackpoint>
            <Time>2019-05-08T12:05:13.000Z</Time>
            <Position>
              <LatitudeDegrees>42.89926397614181041717529296875</LatitudeDegrees>
              <LongitudeDegrees>0.631989128887653350830078125</LongitudeDegrees>
            </Position>
            <AltitudeMeters>543.5999755859375</AltitudeMeters>
            <DistanceMeters>69445.717955555</DistanceMeters>
          </Trackpoint>
          <Trackpoint>
            <Time>2019-05-08T12:05:15.000Z</Time>
            <Position>
              <LatitudeDegrees>42.89925056509673595428466796875</LatitudeDegrees>
              <LongitudeDegrees>0.6318159587681293487548828125</LongitudeDegrees>
            </Position>
            <AltitudeMeters>543.20001220703125</AltitudeMeters>
            <DistanceMeters>69459.916104256</DistanceMeters>
          </Trackpoint>
          <Trackpoint>
            <Time>2019-05-08T12:05:16.000Z</Time>
            <Position>
              <LatitudeDegrees>42.89924637414515018463134765625</LatitudeDegrees>
              <LongitudeDegrees>0.6317277811467647552490234375</LongitudeDegrees>
            </Position>
            <AltitudeMeters>543</AltitudeMeters>
            <DistanceMeters>69467.120608361</DistanceMeters>
          </Trackpoint>
          <Trackpoint>
            <Time>2019-05-08T12:05:18.000Z</Time>
            <Position>
              <LatitudeDegrees>42.89924100972712039947509765625</LatitudeDegrees>
              <LongitudeDegrees>0.63154446892440319061279296875</LongitudeDegrees>
            </Position>
            <AltitudeMeters>542.79998779296875</AltitudeMeters>
            <DistanceMeters>69482.078791209</DistanceMeters>
          </Trackpoint>
          <Trackpoint>
            <Time>2019-05-08T12:05:20.000Z</Time>
            <Position>
              <LatitudeDegrees>42.899235226213932037353515625</LatitudeDegrees>
              <LongitudeDegrees>0.63135470263659954071044921875</LongitudeDegrees>
            </Position>
            <AltitudeMeters>542.4000244140625</AltitudeMeters>
            <DistanceMeters>69497.564355779</DistanceMeters>
          </Trackpoint>
          <Trackpoint>
            <Time>2019-05-08T12:05:22.000Z</Time>
            <Position>
              <LatitudeDegrees>42.89922977797687053680419921875</LatitudeDegrees>
              <LongitudeDegrees>0.6311594881117343902587890625</LongitudeDegrees>
            </Position>
            <AltitudeMeters>542</AltitudeMeters>
            <DistanceMeters>69513.492602003</DistanceMeters>
          </Trackpoint>
          <Trackpoint>
            <Time>2019-05-08T12:05:24.000Z</Time>
            <Position>
              <LatitudeDegrees>42.899226844310760498046875</LatitudeDegrees>
              <LongitudeDegrees>0.63095773570239543914794921875</LongitudeDegrees>
            </Position>
            <AltitudeMeters>541.5999755859375</AltitudeMeters>
            <DistanceMeters>69529.945675626</DistanceMeters>
          </Trackpoint>
          <Trackpoint>
            <Time>2019-05-08T12:05:26.000Z</Time>
            <Position>
              <LatitudeDegrees>42.8992286883294582366943359375</LatitudeDegrees>
              <LongitudeDegrees>0.63074894249439239501953125</LongitudeDegrees>
            </Position>
            <AltitudeMeters>541.5999755859375</AltitudeMeters>
            <DistanceMeters>69546.971111122</DistanceMeters>
          </Trackpoint>
          <Trackpoint>
            <Time>2019-05-08T12:05:27.000Z</Time>
            <Position>
              <LatitudeDegrees>42.89924201555550098419189453125</LatitudeDegrees>
              <LongitudeDegrees>0.6306445039808750152587890625</LongitudeDegrees>
            </Position>
            <AltitudeMeters>541.5999755859375</AltitudeMeters>
            <DistanceMeters>69555.614886484</DistanceMeters>
          </Trackpoint>
          <Trackpoint>
            <Time>2019-05-08T12:05:29.000Z</Time>
            <Position>
              <LatitudeDegrees>42.89932675659656524658203125</LatitudeDegrees>
              <LongitudeDegrees>0.63046202994883060455322265625</LongitudeDegrees>
            </Position>
            <AltitudeMeters>541</AltitudeMeters>
            <DistanceMeters>69573.230491694</DistanceMeters>
          </Trackpoint>
          <Trackpoint>
            <Time>2019-05-08T12:05:30.000Z</Time>
            <Position>
              <LatitudeDegrees>42.8993815742433071136474609375</LatitudeDegrees>
              <LongitudeDegrees>0.63038340769708156585693359375</LongitudeDegrees>
            </Position>
            <AltitudeMeters>540.79998779296875</AltitudeMeters>
            <DistanceMeters>69582.080229148</DistanceMeters>
          </Trackpoint>
          <Trackpoint>
            <Time>2019-05-08T12:05:31.000Z</Time>
            <Position>
              <LatitudeDegrees>42.8994311951100826263427734375</LatitudeDegrees>
              <LongitudeDegrees>0.6303055398166179656982421875</LongitudeDegrees>
            </Position>
            <AltitudeMeters>540.4000244140625</AltitudeMeters>
            <DistanceMeters>69590.495326264</DistanceMeters>
          </Trackpoint>
          <Trackpoint>
            <Time>2019-05-08T12:05:33.000Z</Time>
            <Position>
              <LatitudeDegrees>42.899494059383869171142578125</LatitudeDegrees>
              <LongitudeDegrees>0.63011602498590946197509765625</LongitudeDegrees>
            </Position>
            <AltitudeMeters>540</AltitudeMeters>
            <DistanceMeters>69607.457528233</DistanceMeters>
          </Trackpoint>
          <Trackpoint>
            <Time>2019-05-08T12:05:35.000Z</Time>
            <Position>
              <LatitudeDegrees>42.8994881920516490936279296875</LatitudeDegrees>
              <LongitudeDegrees>0.62991167418658733367919921875</LongitudeDegrees>
            </Position>
            <AltitudeMeters>539.4000244140625</AltitudeMeters>
            <DistanceMeters>69624.131670599</DistanceMeters>
          </Trackpoint>
          <Trackpoint>
            <Time>2019-05-08T12:05:36.000Z</Time>
            <Position>
              <LatitudeDegrees>42.8994697518646717071533203125</LatitudeDegrees>
              <LongitudeDegrees>0.62981327064335346221923828125</LongitudeDegrees>
            </Position>
            <AltitudeMeters>539.20001220703125</AltitudeMeters>
            <DistanceMeters>69632.413727147</DistanceMeters>
          </Trackpoint>
          <Trackpoint>
            <Time>2019-05-08T12:05:41.000Z</Time>
            <Position>
              <LatitudeDegrees>42.8993255831301212310791015625</LatitudeDegrees>
              <LongitudeDegrees>0.62937271781265735626220703125</LongitudeDegrees>
            </Position>
            <AltitudeMeters>538.5999755859375</AltitudeMeters>
            <DistanceMeters>69671.755131195</DistanceMeters>
          </Trackpoint>
          <Trackpoint>
            <Time>2019-05-08T12:05:44.000Z</Time>
            <Position>
              <LatitudeDegrees>42.89924687705934047698974609375</LatitudeDegrees>
              <LongitudeDegrees>0.62912486493587493896484375</LongitudeDegrees>
            </Position>
            <AltitudeMeters>538.20001220703125</AltitudeMeters>
            <DistanceMeters>69693.780634521</DistanceMeters>
          </Trackpoint>
          <Trackpoint>
            <Time>2019-05-08T12:05:46.000Z</Time>
            <Position>
              <LatitudeDegrees>42.89920396171510219573974609375</LatitudeDegrees>
              <LongitudeDegrees>0.62896795570850372314453125</LongitudeDegrees>
            </Position>
            <AltitudeMeters>538.4000244140625</AltitudeMeters>
            <DistanceMeters>69707.436406512</DistanceMeters>
          </Trackpoint>
          <Trackpoint>
            <Time>2019-05-08T12:05:48.000Z</Time>
            <Position>
              <LatitudeDegrees>42.8991612978279590606689453125</LatitudeDegrees>
              <LongitudeDegrees>0.62881967984139919281005859375</LongitudeDegrees>
            </Position>
            <AltitudeMeters>538.4000244140625</AltitudeMeters>
            <DistanceMeters>69720.425206233</DistanceMeters>
          </Trackpoint>
          <Trackpoint>
            <Time>2019-05-08T12:05:50.000Z</Time>
            <Position>
              <LatitudeDegrees>42.89912282489240169525146484375</LatitudeDegrees>
              <LongitudeDegrees>0.62868095934391021728515625</LongitudeDegrees>
            </Position>
            <AltitudeMeters>538.79998779296875</AltitudeMeters>
            <DistanceMeters>69732.519385752</DistanceMeters>
          </Trackpoint>
          <Trackpoint>
            <Time>2019-05-08T12:05:51.000Z</Time>
            <Position>
              <LatitudeDegrees>42.899104468524456024169921875</LatitudeDegrees>
              <LongitudeDegrees>0.62861750833690166473388671875</LongitudeDegrees>
            </Position>
            <AltitudeMeters>538.5999755859375</AltitudeMeters>
            <DistanceMeters>69738.081493437</DistanceMeters>
          </Trackpoint>
          <Trackpoint>
            <Time>2019-05-08T12:05:55.000Z</Time>
            <Position>
              <LatitudeDegrees>42.8990405984222888946533203125</LatitudeDegrees>
              <LongitudeDegrees>0.62836957164108753204345703125</LongitudeDegrees>
            </Position>
            <AltitudeMeters>540</AltitudeMeters>
            <DistanceMeters>69759.510596951</DistanceMeters>
          </Trackpoint>
          <Trackpoint>
            <Time>2019-05-08T12:05:59.000Z</Time>
            <Position>
              <LatitudeDegrees>42.89897580631077289581298828125</LatitudeDegrees>
              <LongitudeDegrees>0.6281202100217342376708984375</LongitudeDegrees>
            </Position>
            <AltitudeMeters>541</AltitudeMeters>
            <DistanceMeters>69781.08354482</DistanceMeters>
          </Trackpoint>
          <Trackpoint>
            <Time>2019-05-08T12:06:00.000Z</Time>
            <Position>
              <LatitudeDegrees>42.89896004833281040191650390625</LatitudeDegrees>
              <LongitudeDegrees>0.628058351576328277587890625</LongitudeDegrees>
            </Position>
            <AltitudeMeters>541.5999755859375</AltitudeMeters>
            <DistanceMeters>69786.423674164</DistanceMeters>
          </Trackpoint>
          <Trackpoint>
            <Time>2019-05-08T12:06:05.000Z</Time>
            <Position>
              <LatitudeDegrees>42.89888109080493450164794921875</LatitudeDegrees>
              <LongitudeDegrees>0.6277544237673282623291015625</LongitudeDegrees>
            </Position>
            <AltitudeMeters>542.20001220703125</AltitudeMeters>
            <DistanceMeters>69812.716554613</DistanceMeters>
          </Trackpoint>
          <Trackpoint>
            <Time>2019-05-08T12:06:06.000Z</Time>
            <Position>
              <LatitudeDegrees>42.89886482991278171539306640625</LatitudeDegrees>
              <LongitudeDegrees>0.6276934035122394561767578125</LongitudeDegrees>
            </Position>
            <AltitudeMeters>542.5999755859375</AltitudeMeters>
            <DistanceMeters>69818.010830511</DistanceMeters>
          </Trackpoint>
          <Trackpoint>
            <Time>2019-05-08T12:06:11.000Z</Time>
            <Position>
              <LatitudeDegrees>42.8987775743007659912109375</LatitudeDegrees>
              <LongitudeDegrees>0.627387799322605133056640625</LongitudeDegrees>
            </Position>
            <AltitudeMeters>543.4000244140625</AltitudeMeters>
            <DistanceMeters>69844.754056093</DistanceMeters>
          </Trackpoint>
          <Trackpoint>
            <Time>2019-05-08T12:06:12.000Z</Time>
            <Position>
              <LatitudeDegrees>42.89876022376120090484619140625</LatitudeDegrees>
              <LongitudeDegrees>0.62732736580073833465576171875</LongitudeDegrees>
            </Position>
            <AltitudeMeters>543.79998779296875</AltitudeMeters>
            <DistanceMeters>69850.046626085</DistanceMeters>
          </Trackpoint>
          <Trackpoint>
            <Time>2019-05-08T12:06:15.000Z</Time>
            <Position>
              <LatitudeDegrees>42.8987096808850765228271484375</LatitudeDegrees>
              <LongitudeDegrees>0.62715503387153148651123046875</LongitudeDegrees>
            </Position>
            <AltitudeMeters>544.20001220703125</AltitudeMeters>
            <DistanceMeters>69865.181849217</DistanceMeters>
          </Trackpoint>
          <Trackpoint>
            <Time>2019-05-08T12:06:18.000Z</Time>
            <Position>
              <LatitudeDegrees>42.89865477941930294036865234375</LatitudeDegrees>
              <LongitudeDegrees>0.62699393369257450103759765625</LongitudeDegrees>
            </Position>
            <AltitudeMeters>545</AltitudeMeters>
            <DistanceMeters>69879.668982705</DistanceMeters>
          </Trackpoint>
          <Trackpoint>
            <Time>2019-05-08T12:06:24.000Z</Time>
            <Position>
              <LatitudeDegrees>42.89853818714618682861328125</LatitudeDegrees>
              <LongitudeDegrees>0.62667944468557834625244140625</LongitudeDegrees>
            </Position>
            <AltitudeMeters>546</AltitudeMeters>
            <DistanceMeters>69908.40761266</DistanceMeters>
          </Trackpoint>
          <Trackpoint>
            <Time>2019-05-08T12:06:25.000Z</Time>
            <Position>
              <LatitudeDegrees>42.89851781912147998809814453125</LatitudeDegrees>
              <LongitudeDegrees>0.626629404723644256591796875</LongitudeDegrees>
            </Position>
            <AltitudeMeters>546.20001220703125</AltitudeMeters>
            <DistanceMeters>69913.07457574</DistanceMeters>
          </Trackpoint>
          <Trackpoint>
            <Time>2019-05-08T12:06:29.000Z</Time>
            <Position>
              <LatitudeDegrees>42.8984287194907665252685546875</LatitudeDegrees>
              <LongitudeDegrees>0.62644265592098236083984375</LongitudeDegrees>
            </Position>
            <AltitudeMeters>547</AltitudeMeters>
            <DistanceMeters>69931.24581057</DistanceMeters>
          </Trackpoint>
          <Trackpoint>
            <Time>2019-05-08T12:06:34.000Z</Time>
            <Position>
              <LatitudeDegrees>42.89830860681831836700439453125</LatitudeDegrees>
              <LongitudeDegrees>0.62621827237308025360107421875</LongitudeDegrees>
            </Position>
            <AltitudeMeters>548.20001220703125</AltitudeMeters>
            <DistanceMeters>69953.905049668</DistanceMeters>
          </Trackpoint>
          <Trackpoint>
            <Time>2019-05-08T12:06:35.000Z</Time>
            <Position>
              <LatitudeDegrees>42.89828212000429630279541015625</LatitudeDegrees>
              <LongitudeDegrees>0.62617368064820766448974609375</LongitudeDegrees>
            </Position>
            <AltitudeMeters>548.4000244140625</AltitudeMeters>
            <DistanceMeters>69958.585537405</DistanceMeters>
          </Trackpoint>
          <Trackpoint>
            <Time>2019-05-08T12:06:44.000Z</Time>
            <Position>
              <LatitudeDegrees>42.8980136476457118988037109375</LatitudeDegrees>
              <LongitudeDegrees>0.6257846765220165252685546875</LongitudeDegrees>
            </Position>
            <AltitudeMeters>550</AltitudeMeters>
            <DistanceMeters>70002.16209894</DistanceMeters>
          </Trackpoint>
          <Trackpoint>
            <Time>2019-05-08T12:06:45.000Z</Time>
            <Position>
              <LatitudeDegrees>42.89798690937459468841552734375</LatitudeDegrees>
              <LongitudeDegrees>0.62573899514973163604736328125</LongitudeDegrees>
            </Position>
            <AltitudeMeters>550.20001220703125</AltitudeMeters>
            <DistanceMeters>70006.928614684</DistanceMeters>
          </Trackpoint>
          <Trackpoint>
            <Time>2019-05-08T12:06:46.000Z</Time>
            <Position>
              <LatitudeDegrees>42.89796276949346065521240234375</LatitudeDegrees>
              <LongitudeDegrees>0.62568903900682926177978515625</LongitudeDegrees>
            </Position>
            <AltitudeMeters>550.4000244140625</AltitudeMeters>
            <DistanceMeters>70011.809325868</DistanceMeters>
          </Trackpoint>
          <Trackpoint>
            <Time>2019-05-08T12:06:48.000Z</Time>
            <Position>
              <LatitudeDegrees>42.89792672730982303619384765625</LatitudeDegrees>
              <LongitudeDegrees>0.62558275647461414337158203125</LongitudeDegrees>
            </Position>
            <AltitudeMeters>550.4000244140625</AltitudeMeters>
            <DistanceMeters>70021.358919681</DistanceMeters>
          </Trackpoint>
          <Trackpoint>
            <Time>2019-05-08T12:06:49.000Z</Time>
            <Position>
              <LatitudeDegrees>42.8979177586734294891357421875</LatitudeDegrees>
              <LongitudeDegrees>0.6255312077701091766357421875</LongitudeDegrees>
            </Position>
            <AltitudeMeters>550.5999755859375</AltitudeMeters>
            <DistanceMeters>70025.678194844</DistanceMeters>
          </Trackpoint>
          <Trackpoint>
            <Time>2019-05-08T12:06:55.000Z</Time>
            <Position>
              <LatitudeDegrees>42.897893451154232025146484375</LatitudeDegrees>
              <LongitudeDegrees>0.6252442114055156707763671875</LongitudeDegrees>
            </Position>
            <AltitudeMeters>551.4000244140625</AltitudeMeters>
            <DistanceMeters>70049.234472086</DistanceMeters>
          </Trackpoint>
          <Trackpoint>
            <Time>2019-05-08T12:06:58.000Z</Time>
            <Position>
              <LatitudeDegrees>42.8978359512984752655029296875</LatitudeDegrees>
              <LongitudeDegrees>0.62509618699550628662109375</LongitudeDegrees>
            </Position>
            <AltitudeMeters>552.20001220703125</AltitudeMeters>
            <DistanceMeters>70062.895533167</DistanceMeters>
          </Trackpoint>
          <Trackpoint>
            <Time>2019-05-08T12:07:00.000Z</Time>
            <Position>
              <LatitudeDegrees>42.897778451442718505859375</LatitudeDegrees>
              <LongitudeDegrees>0.62501127831637859344482421875</LongitudeDegrees>
            </Position>
            <AltitudeMeters>552.79998779296875</AltitudeMeters>
            <DistanceMeters>70072.323792419</DistanceMeters>
          </Trackpoint>
          <Trackpoint>
            <Time>2019-05-08T12:07:08.000Z</Time>
            <Position>
              <LatitudeDegrees>42.89750025607645511627197265625</LatitudeDegrees>
              <LongitudeDegrees>0.62470634467899799346923828125</LongitudeDegrees>
            </Position>
            <AltitudeMeters>553.5999755859375</AltitudeMeters>
            <DistanceMeters>70112.034272766</DistanceMeters>
          </Trackpoint>
          <Trackpoint>
            <Time>2019-05-08T12:07:09.000Z</Time>
            <Position>
              <LatitudeDegrees>42.897462956607341766357421875</LatitudeDegrees>
              <LongitudeDegrees>0.6246690452098846435546875</LongitudeDegrees>
            </Position>
            <AltitudeMeters>553.79998779296875</AltitudeMeters>
            <DistanceMeters>70117.180651513</DistanceMeters>
          </Trackpoint>
          <Trackpoint>
            <Time>2019-05-08T12:07:15.000Z</Time>
            <Position>
              <LatitudeDegrees>42.89722868241369724273681640625</LatitudeDegrees>
              <LongitudeDegrees>0.6244543008506298065185546875</LongitudeDegrees>
            </Position>
            <AltitudeMeters>554.20001220703125</AltitudeMeters>
            <DistanceMeters>70148.589244783</DistanceMeters>
          </Trackpoint>
          <Trackpoint>
            <Time>2019-05-08T12:07:21.000Z</Time>
            <Position>
              <LatitudeDegrees>42.89699013344943523406982421875</LatitudeDegrees>
              <LongitudeDegrees>0.62423050403594970703125</LongitudeDegrees>
            </Position>
            <AltitudeMeters>555</AltitudeMeters>
            <DistanceMeters>70180.806244126</DistanceMeters>
          </Trackpoint>
          <Trackpoint>
            <Time>2019-05-08T12:07:26.000Z</Time>
            <Position>
              <LatitudeDegrees>42.8967865370213985443115234375</LatitudeDegrees>
              <LongitudeDegrees>0.6240412406623363494873046875</LongitudeDegrees>
            </Position>
            <AltitudeMeters>555.20001220703125</AltitudeMeters>
            <DistanceMeters>70208.222727547</DistanceMeters>
          </Trackpoint>
          <Trackpoint>
            <Time>2019-05-08T12:07:30.000Z</Time>
            <Position>
              <LatitudeDegrees>42.8966252692043781280517578125</LatitudeDegrees>
              <LongitudeDegrees>0.623889863491058349609375</LongitudeDegrees>
            </Position>
            <AltitudeMeters>555.4000244140625</AltitudeMeters>
            <DistanceMeters>70230.006448926</DistanceMeters>
          </Trackpoint>
          <Trackpoint>
            <Time>2019-05-08T12:07:33.000Z</Time>
            <Position>
              <LatitudeDegrees>42.896502055227756500244140625</LatitudeDegrees>
              <LongitudeDegrees>0.62378031201660633087158203125</LongitudeDegrees>
            </Position>
            <AltitudeMeters>555.79998779296875</AltitudeMeters>
            <DistanceMeters>70246.373128114</DistanceMeters>
          </Trackpoint>
          <Trackpoint>
            <Time>2019-05-08T12:07:36.000Z</Time>
            <Position>
              <LatitudeDegrees>42.8963821940124034881591796875</LatitudeDegrees>
              <LongitudeDegrees>0.623674280941486358642578125</LongitudeDegrees>
            </Position>
            <AltitudeMeters>556.4000244140625</AltitudeMeters>
            <DistanceMeters>70262.270447053</DistanceMeters>
          </Trackpoint>
          <Trackpoint>
            <Time>2019-05-08T12:07:39.000Z</Time>
            <Position>
              <LatitudeDegrees>42.89626945741474628448486328125</LatitudeDegrees>
              <LongitudeDegrees>0.623560957610607147216796875</LongitudeDegrees>
            </Position>
            <AltitudeMeters>556.5999755859375</AltitudeMeters>
            <DistanceMeters>70277.853669304</DistanceMeters>
          </Trackpoint>
          <Trackpoint>
            <Time>2019-05-08T12:07:42.000Z</Time>
            <Position>
              <LatitudeDegrees>42.8961438126862049102783203125</LatitudeDegrees>
              <LongitudeDegrees>0.6234647333621978759765625</LongitudeDegrees>
            </Position>
            <AltitudeMeters>557.4000244140625</AltitudeMeters>
            <DistanceMeters>70293.888987409</DistanceMeters>
          </Trackpoint>
          <Trackpoint>
            <Time>2019-05-08T12:07:43.000Z</Time>
            <Position>
              <LatitudeDegrees>42.89610517211258411407470703125</LatitudeDegrees>
              <LongitudeDegrees>0.6234245002269744873046875</LongitudeDegrees>
            </Position>
            <AltitudeMeters>557.5999755859375</AltitudeMeters>
            <DistanceMeters>70299.298837477</DistanceMeters>
          </Trackpoint>
          <Trackpoint>
            <Time>2019-05-08T12:07:47.000Z</Time>
            <Position>
              <LatitudeDegrees>42.8959480114281177520751953125</LatitudeDegrees>
              <LongitudeDegrees>0.62326432205736637115478515625</LongitudeDegrees>
            </Position>
            <AltitudeMeters>558.20001220703125</AltitudeMeters>
            <DistanceMeters>70321.128937208</DistanceMeters>
          </Trackpoint>
          <Trackpoint>
            <Time>2019-05-08T12:07:55.000Z</Time>
            <Position>
              <LatitudeDegrees>42.8956345282495021820068359375</LatitudeDegrees>
              <LongitudeDegrees>0.6229643337428569793701171875</LongitudeDegrees>
            </Position>
            <AltitudeMeters>558.79998779296875</AltitudeMeters>
            <DistanceMeters>70363.740340037</DistanceMeters>
          </Trackpoint>
          <Trackpoint>
            <Time>2019-05-08T12:07:57.000Z</Time>
            <Position>
              <LatitudeDegrees>42.89555649273097515106201171875</LatitudeDegrees>
              <LongitudeDegrees>0.62288462184369564056396484375</LongitudeDegrees>
            </Position>
            <AltitudeMeters>558.79998779296875</AltitudeMeters>
            <DistanceMeters>70374.588379317</DistanceMeters>
          </Trackpoint>
          <Trackpoint>
            <Time>2019-05-08T12:07:58.000Z</Time>
            <Position>
              <LatitudeDegrees>42.89551801979541778564453125</LatitudeDegrees>
              <LongitudeDegrees>0.62284120358526706695556640625</LongitudeDegrees>
            </Position>
            <AltitudeMeters>559</AltitudeMeters>
            <DistanceMeters>70380.14398921</DistanceMeters>
          </Trackpoint>
          <Trackpoint>
            <Time>2019-05-08T12:08:05.000Z</Time>
            <Position>
              <LatitudeDegrees>42.8952746093273162841796875</LatitudeDegrees>
              <LongitudeDegrees>0.62250827439129352569580078125</LongitudeDegrees>
            </Position>
            <AltitudeMeters>560</AltitudeMeters>
            <DistanceMeters>70418.496658114</DistanceMeters>
          </Trackpoint>
          <Trackpoint>
            <Time>2019-05-08T12:08:07.000Z</Time>
            <Position>
              <LatitudeDegrees>42.89521534927189350128173828125</LatitudeDegrees>
              <LongitudeDegrees>0.6224186718463897705078125</LongitudeDegrees>
            </Position>
            <AltitudeMeters>560.79998779296875</AltitudeMeters>
            <DistanceMeters>70428.339609408</DistanceMeters>
          </Trackpoint>
          <Trackpoint>
            <Time>2019-05-08T12:08:11.000Z</Time>
            <Position>
              <LatitudeDegrees>42.89510588161647319793701171875</LatitudeDegrees>
              <LongitudeDegrees>0.6222498603165149688720703125</LongitudeDegrees>
            </Position>
            <AltitudeMeters>561</AltitudeMeters>
            <DistanceMeters>70446.722305638</DistanceMeters>
          </Trackpoint>
          <Trackpoint>
            <Time>2019-05-08T12:08:13.000Z</Time>
            <Position>
              <LatitudeDegrees>42.895034216344356536865234375</LatitudeDegrees>
              <LongitudeDegrees>0.62217618338763713836669921875</LongitudeDegrees>
            </Position>
            <AltitudeMeters>561</AltitudeMeters>
            <DistanceMeters>70456.708252472</DistanceMeters>
          </Trackpoint>
          <Trackpoint>
            <Time>2019-05-08T12:08:17.000Z</Time>
            <Position>
              <LatitudeDegrees>42.89487563073635101318359375</LatitudeDegrees>
              <LongitudeDegrees>0.6220242194831371307373046875</LongitudeDegrees>
            </Position>
            <AltitudeMeters>561.5999755859375</AltitudeMeters>
            <DistanceMeters>70478.27429261</DistanceMeters>
          </Trackpoint>
          <Trackpoint>
            <Time>2019-05-08T12:08:18.000Z</Time>
            <Position>
              <LatitudeDegrees>42.89483346976339817047119140625</LatitudeDegrees>
              <LongitudeDegrees>0.62198591418564319610595703125</LongitudeDegrees>
            </Position>
            <AltitudeMeters>561.79998779296875</AltitudeMeters>
            <DistanceMeters>70483.910586511</DistanceMeters>
          </Trackpoint>
          <Trackpoint>
            <Time>2019-05-08T12:08:24.000Z</Time>
            <Position>
              <LatitudeDegrees>42.8945757262408733367919921875</LatitudeDegrees>
              <LongitudeDegrees>0.62176396138966083526611328125</LongitudeDegrees>
            </Position>
            <AltitudeMeters>562</AltitudeMeters>
            <DistanceMeters>70517.829666386</DistanceMeters>
          </Trackpoint>
          <Trackpoint>
            <Time>2019-05-08T12:08:25.000Z</Time>
            <Position>
              <LatitudeDegrees>42.8945318050682544708251953125</LatitudeDegrees>
              <LongitudeDegrees>0.6217285059392452239990234375</LongitudeDegrees>
            </Position>
            <AltitudeMeters>562</AltitudeMeters>
            <DistanceMeters>70523.509847997</DistanceMeters>
          </Trackpoint>
          <Trackpoint>
            <Time>2019-05-08T12:08:27.000Z</Time>
            <Position>
              <LatitudeDegrees>42.89444304071366786956787109375</LatitudeDegrees>
              <LongitudeDegrees>0.6216607801616191864013671875</LongitudeDegrees>
            </Position>
            <AltitudeMeters>562</AltitudeMeters>
            <DistanceMeters>70534.828403316</DistanceMeters>
          </Trackpoint>
          <Trackpoint>
            <Time>2019-05-08T12:08:35.000Z</Time>
            <Position>
              <LatitudeDegrees>42.89406334049999713897705078125</LatitudeDegrees>
              <LongitudeDegrees>0.6214021146297454833984375</LongitudeDegrees>
            </Position>
            <AltitudeMeters>561.5999755859375</AltitudeMeters>
            <DistanceMeters>70582.060790992</DistanceMeters>
          </Trackpoint>
          <Trackpoint>
            <Time>2019-05-08T12:08:38.000Z</Time>
            <Position>
              <LatitudeDegrees>42.89390509016811847686767578125</LatitudeDegrees>
              <LongitudeDegrees>0.6212975084781646728515625</LongitudeDegrees>
            </Position>
            <AltitudeMeters>561.5999755859375</AltitudeMeters>
            <DistanceMeters>70601.630757833</DistanceMeters>
          </Trackpoint>
          <Trackpoint>
            <Time>2019-05-08T12:08:42.000Z</Time>
            <Position>
              <LatitudeDegrees>42.89369017817080020904541015625</LatitudeDegrees>
              <LongitudeDegrees>0.6211545132100582122802734375</LongitudeDegrees>
            </Position>
            <AltitudeMeters>561.5999755859375</AltitudeMeters>
            <DistanceMeters>70628.241292111</DistanceMeters>
          </Trackpoint>
          <Trackpoint>
            <Time>2019-05-08T12:08:45.000Z</Time>
            <Position>
              <LatitudeDegrees>42.89352002553641796112060546875</LatitudeDegrees>
              <LongitudeDegrees>0.62105602584779262542724609375</LongitudeDegrees>
            </Position>
            <AltitudeMeters>561.5999755859375</AltitudeMeters>
            <DistanceMeters>70648.811887197</DistanceMeters>
          </Trackpoint>
          <Trackpoint>
            <Time>2019-05-08T12:08:47.000Z</Time>
            <Position>
              <LatitudeDegrees>42.893412150442600250244140625</LatitudeDegrees>
              <LongitudeDegrees>0.6209794990718364715576171875</LongitudeDegrees>
            </Position>
            <AltitudeMeters>561.5999755859375</AltitudeMeters>
            <DistanceMeters>70662.343437738</DistanceMeters>
          </Trackpoint>
          <Trackpoint>
            <Time>2019-05-08T12:08:53.000Z</Time>
            <Position>
              <LatitudeDegrees>42.8931048698723316192626953125</LatitudeDegrees>
              <LongitudeDegrees>0.62079668976366519927978515625</LongitudeDegrees>
            </Position>
            <AltitudeMeters>562</AltitudeMeters>
            <DistanceMeters>70699.651801991</DistanceMeters>
          </Trackpoint>
          <Trackpoint>
            <Time>2019-05-08T12:08:54.000Z</Time>
            <Position>
              <LatitudeDegrees>42.89305415935814380645751953125</LatitudeDegrees>
              <LongitudeDegrees>0.62078428454697132110595703125</LongitudeDegrees>
            </Position>
            <AltitudeMeters>561.79998779296875</AltitudeMeters>
            <DistanceMeters>70705.386567759</DistanceMeters>
          </Trackpoint>
          <Trackpoint>
            <Time>2019-05-08T12:08:55.000Z</Time>
            <Position>
              <LatitudeDegrees>42.893004119396209716796875</LatitudeDegrees>
              <LongitudeDegrees>0.62078042887151241302490234375</LongitudeDegrees>
            </Position>
            <AltitudeMeters>562</AltitudeMeters>
            <DistanceMeters>70710.966505355</DistanceMeters>
          </Trackpoint>
          <Trackpoint>
            <Time>2019-05-08T12:08:57.000Z</Time>
            <Position>
              <LatitudeDegrees>42.89289691485464572906494140625</LatitudeDegrees>
              <LongitudeDegrees>0.62080758623778820037841796875</LongitudeDegrees>
            </Position>
            <AltitudeMeters>562</AltitudeMeters>
            <DistanceMeters>70723.102425048</DistanceMeters>
          </Trackpoint>
          <Trackpoint>
            <Time>2019-05-08T12:08:58.000Z</Time>
            <Position>
              <LatitudeDegrees>42.89284260012209415435791015625</LatitudeDegrees>
              <LongitudeDegrees>0.620837174355983734130859375</LongitudeDegrees>
            </Position>
            <AltitudeMeters>562</AltitudeMeters>
            <DistanceMeters>70729.611581574</DistanceMeters>
          </Trackpoint>
          <Trackpoint>
            <Time>2019-05-08T12:08:59.000Z</Time>
            <Position>
              <LatitudeDegrees>42.89279147051274776458740234375</LatitudeDegrees>
              <LongitudeDegrees>0.620876066386699676513671875</LongitudeDegrees>
            </Position>
            <AltitudeMeters>562</AltitudeMeters>
            <DistanceMeters>70736.126977906</DistanceMeters>
          </Trackpoint>
          <Trackpoint>
            <Time>2019-05-08T12:09:03.000Z</Time>
            <Position>
              <LatitudeDegrees>42.89258393459022045135498046875</LatitudeDegrees>
              <LongitudeDegrees>0.621008165180683135986328125</LongitudeDegrees>
            </Position>
            <AltitudeMeters>562.4000244140625</AltitudeMeters>
            <DistanceMeters>70761.614340249</DistanceMeters>
          </Trackpoint>
          <Trackpoint>
            <Time>2019-05-08T12:09:07.000Z</Time>
            <Position>
              <LatitudeDegrees>42.89234572090208530426025390625</LatitudeDegrees>
              <LongitudeDegrees>0.62112727202475070953369140625</LongitudeDegrees>
            </Position>
            <AltitudeMeters>562.4000244140625</AltitudeMeters>
            <DistanceMeters>70789.850869242</DistanceMeters>
          </Trackpoint>
          <Trackpoint>
            <Time>2019-05-08T12:09:09.000Z</Time>
            <Position>
              <LatitudeDegrees>42.892228625714778900146484375</LatitudeDegrees>
              <LongitudeDegrees>0.62120966613292694091796875</LongitudeDegrees>
            </Position>
            <AltitudeMeters>562.4000244140625</AltitudeMeters>
            <DistanceMeters>70804.513648312</DistanceMeters>
          </Trackpoint>
          <Trackpoint>
            <Time>2019-05-08T12:09:10.000Z</Time>
            <Position>
              <LatitudeDegrees>42.89216919802129268646240234375</LatitudeDegrees>
              <LongitudeDegrees>0.62125115655362606048583984375</LongitudeDegrees>
            </Position>
            <AltitudeMeters>562.4000244140625</AltitudeMeters>
            <DistanceMeters>70811.943376254</DistanceMeters>
          </Trackpoint>
          <Trackpoint>
            <Time>2019-05-08T12:09:16.000Z</Time>
            <Position>
              <LatitudeDegrees>42.89180316030979156494140625</LatitudeDegrees>
              <LongitudeDegrees>0.6214790605008602142333984375</LongitudeDegrees>
            </Position>
            <AltitudeMeters>561.79998779296875</AltitudeMeters>
            <DistanceMeters>70856.722642158</DistanceMeters>
          </Trackpoint>
          <Trackpoint>
            <Time>2019-05-08T12:09:18.000Z</Time>
            <Position>
              <LatitudeDegrees>42.89167106151580810546875</LatitudeDegrees>
              <LongitudeDegrees>0.621507056057453155517578125</LongitudeDegrees>
            </Position>
            <AltitudeMeters>561</AltitudeMeters>
            <DistanceMeters>70871.601531703</DistanceMeters>
          </Trackpoint>
          <Trackpoint>
            <Time>2019-05-08T12:09:20.000Z</Time>
            <Position>
              <LatitudeDegrees>42.8915398009121417999267578125</LatitudeDegrees>
              <LongitudeDegrees>0.62148970551788806915283203125</LongitudeDegrees>
            </Position>
            <AltitudeMeters>560.79998779296875</AltitudeMeters>
            <DistanceMeters>70886.279391349</DistanceMeters>
          </Trackpoint>
          <Trackpoint>
            <Time>2019-05-08T12:09:22.000Z</Time>
            <Position>
              <LatitudeDegrees>42.89141532965004444122314453125</LatitudeDegrees>
              <LongitudeDegrees>0.62143656425178050994873046875</LongitudeDegrees>
            </Position>
            <AltitudeMeters>560.5999755859375</AltitudeMeters>
            <DistanceMeters>70900.795169101</DistanceMeters>
          </Trackpoint>
          <Trackpoint>
            <Time>2019-05-08T12:09:24.000Z</Time>
            <Position>
              <LatitudeDegrees>42.89131239987909793853759765625</LatitudeDegrees>
              <LongitudeDegrees>0.62134486623108386993408203125</LongitudeDegrees>
            </Position>
            <AltitudeMeters>560.4000244140625</AltitudeMeters>
            <DistanceMeters>70914.475716034</DistanceMeters>
          </Trackpoint>
          <Trackpoint>
            <Time>2019-05-08T12:09:26.000Z</Time>
            <Position>
              <LatitudeDegrees>42.8912373818457126617431640625</LatitudeDegrees>
              <LongitudeDegrees>0.62122265808284282684326171875</LongitudeDegrees>
            </Position>
            <AltitudeMeters>560.4000244140625</AltitudeMeters>
            <DistanceMeters>70927.476676417</DistanceMeters>
          </Trackpoint>
          <Trackpoint>
            <Time>2019-05-08T12:09:28.000Z</Time>
            <Position>
              <LatitudeDegrees>42.891177870333194732666015625</LatitudeDegrees>
              <LongitudeDegrees>0.62108720652759075164794921875</LongitudeDegrees>
            </Position>
            <AltitudeMeters>560.5999755859375</AltitudeMeters>
            <DistanceMeters>70940.356214618</DistanceMeters>
          </Trackpoint>
          <Trackpoint>
            <Time>2019-05-08T12:09:32.000Z</Time>
            <Position>
              <LatitudeDegrees>42.89107049815356731414794921875</LatitudeDegrees>
              <LongitudeDegrees>0.62080155126750469207763671875</LongitudeDegrees>
            </Position>
            <AltitudeMeters>560.5999755859375</AltitudeMeters>
            <DistanceMeters>70966.536721153</DistanceMeters>
          </Trackpoint>
          <Trackpoint>
            <Time>2019-05-08T12:09:36.000Z</Time>
            <Position>
              <LatitudeDegrees>42.8909607790410518646240234375</LatitudeDegrees>
              <LongitudeDegrees>0.62053014524281024932861328125</LongitudeDegrees>
            </Position>
            <AltitudeMeters>561.20001220703125</AltitudeMeters>
            <DistanceMeters>70991.814184416</DistanceMeters>
          </Trackpoint>
          <Trackpoint>
            <Time>2019-05-08T12:09:43.000Z</Time>
            <Position>
              <LatitudeDegrees>42.89077746681869029998779296875</LatitudeDegrees>
              <LongitudeDegrees>0.6201215274631977081298828125</LongitudeDegrees>
            </Position>
            <AltitudeMeters>561.5999755859375</AltitudeMeters>
            <DistanceMeters>71030.885536365</DistanceMeters>
          </Trackpoint>
          <Trackpoint>
            <Time>2019-05-08T12:09:45.000Z</Time>
            <Position>
              <LatitudeDegrees>42.89072130806744098663330078125</LatitudeDegrees>
              <LongitudeDegrees>0.6200152449309825897216796875</LongitudeDegrees>
            </Position>
            <AltitudeMeters>561.5999755859375</AltitudeMeters>
            <DistanceMeters>71041.57171186</DistanceMeters>
          </Trackpoint>
          <Trackpoint>
            <Time>2019-05-08T12:09:46.000Z</Time>
            <Position>
              <LatitudeDegrees>42.890686690807342529296875</LatitudeDegrees>
              <LongitudeDegrees>0.6199693121016025543212890625</LongitudeDegrees>
            </Position>
            <AltitudeMeters>561.5999755859375</AltitudeMeters>
            <DistanceMeters>71046.943873838</DistanceMeters>
          </Trackpoint>
          <Trackpoint>
            <Time>2019-05-08T12:09:48.000Z</Time>
            <Position>
              <LatitudeDegrees>42.890603542327880859375</LatitudeDegrees>
              <LongitudeDegrees>0.61990099959075450897216796875</LongitudeDegrees>
            </Position>
            <AltitudeMeters>561.5999755859375</AltitudeMeters>
            <DistanceMeters>71057.74519726</DistanceMeters>
          </Trackpoint>
          <Trackpoint>
            <Time>2019-05-08T12:09:49.000Z</Time>
            <Position>
              <LatitudeDegrees>42.89055727422237396240234375</LatitudeDegrees>
              <LongitudeDegrees>0.6198784522712230682373046875</LongitudeDegrees>
            </Position>
            <AltitudeMeters>562</AltitudeMeters>
            <DistanceMeters>71063.212331155</DistanceMeters>
          </Trackpoint>
          <Trackpoint>
            <Time>2019-05-08T12:09:50.000Z</Time>
            <Position>
              <LatitudeDegrees>42.8905084915459156036376953125</LatitudeDegrees>
              <LongitudeDegrees>0.6198677234351634979248046875</LongitudeDegrees>
            </Position>
            <AltitudeMeters>562.20001220703125</AltitudeMeters>
            <DistanceMeters>71068.710757833</DistanceMeters>
          </Trackpoint>
          <Trackpoint>
            <Time>2019-05-08T12:09:52.000Z</Time>
            <Position>
              <LatitudeDegrees>42.89041318930685520172119140625</LatitudeDegrees>
              <LongitudeDegrees>0.61988222412765026092529296875</LongitudeDegrees>
            </Position>
            <AltitudeMeters>562.5999755859375</AltitudeMeters>
            <DistanceMeters>71079.384250439</DistanceMeters>
          </Trackpoint>
          <Trackpoint>
            <Time>2019-05-08T12:09:53.000Z</Time>
            <Position>
              <LatitudeDegrees>42.8903670050203800201416015625</LatitudeDegrees>
              <LongitudeDegrees>0.61990602873265743255615234375</LongitudeDegrees>
            </Position>
            <AltitudeMeters>562.79998779296875</AltitudeMeters>
            <DistanceMeters>71084.878569829</DistanceMeters>
          </Trackpoint>
          <Trackpoint>
            <Time>2019-05-08T12:09:54.000Z</Time>
            <Position>
              <LatitudeDegrees>42.89031855762004852294921875</LatitudeDegrees>
              <LongitudeDegrees>0.61993888579308986663818359375</LongitudeDegrees>
            </Position>
            <AltitudeMeters>563.20001220703125</AltitudeMeters>
            <DistanceMeters>71090.899095291</DistanceMeters>
          </Trackpoint>
          <Trackpoint>
            <Time>2019-05-08T12:09:58.000Z</Time>
            <Position>
              <LatitudeDegrees>42.89010532200336456298828125</LatitudeDegrees>
              <LongitudeDegrees>0.6200668774545192718505859375</LongitudeDegrees>
            </Position>
            <AltitudeMeters>564</AltitudeMeters>
            <DistanceMeters>71116.826242273</DistanceMeters>
          </Trackpoint>
          <Trackpoint>
            <Time>2019-05-08T12:10:00.000Z</Time>
            <Position>
              <LatitudeDegrees>42.8899847902357578277587890625</LatitudeDegrees>
              <LongitudeDegrees>0.62007316388189792633056640625</LongitudeDegrees>
            </Position>
            <AltitudeMeters>564</AltitudeMeters>
            <DistanceMeters>71130.251267255</DistanceMeters>
          </Trackpoint>
          <Trackpoint>
            <Time>2019-05-08T12:10:02.000Z</Time>
            <Position>
              <LatitudeDegrees>42.88986098952591419219970703125</LatitudeDegrees>
              <LongitudeDegrees>0.620060674846172332763671875</LongitudeDegrees>
            </Position>
            <AltitudeMeters>564</AltitudeMeters>
            <DistanceMeters>71144.068426014</DistanceMeters>
          </Trackpoint>
          <Trackpoint>
            <Time>2019-05-08T12:10:10.000Z</Time>
            <Position>
              <LatitudeDegrees>42.889396212995052337646484375</LatitudeDegrees>
              <LongitudeDegrees>0.62000929377973079681396484375</LongitudeDegrees>
            </Position>
            <AltitudeMeters>564</AltitudeMeters>
            <DistanceMeters>71195.968325461</DistanceMeters>
          </Trackpoint>
          <Trackpoint>
            <Time>2019-05-08T12:10:17.000Z</Time>
            <Position>
              <LatitudeDegrees>42.8890269063413143157958984375</LatitudeDegrees>
              <LongitudeDegrees>0.61993771232664585113525390625</LongitudeDegrees>
            </Position>
            <AltitudeMeters>563.5999755859375</AltitudeMeters>
            <DistanceMeters>71237.48532188</DistanceMeters>
          </Trackpoint>
          <Trackpoint>
            <Time>2019-05-08T12:10:22.000Z</Time>
            <Position>
              <LatitudeDegrees>42.88877402432262897491455078125</LatitudeDegrees>
              <LongitudeDegrees>0.619876272976398468017578125</LongitudeDegrees>
            </Position>
            <AltitudeMeters>563.79998779296875</AltitudeMeters>
            <DistanceMeters>71266.074152724</DistanceMeters>
          </Trackpoint>
          <Trackpoint>
            <Time>2019-05-08T12:10:26.000Z</Time>
            <Position>
              <LatitudeDegrees>42.88856732659041881561279296875</LatitudeDegrees>
              <LongitudeDegrees>0.61982573010027408599853515625</LongitudeDegrees>
            </Position>
            <AltitudeMeters>564.5999755859375</AltitudeMeters>
            <DistanceMeters>71289.44647491</DistanceMeters>
          </Trackpoint>
          <Trackpoint>
            <Time>2019-05-08T12:10:30.000Z</Time>
            <Position>
              <LatitudeDegrees>42.8883690945804119110107421875</LatitudeDegrees>
              <LongitudeDegrees>0.61977493576705455780029296875</LongitudeDegrees>
            </Position>
            <AltitudeMeters>565.20001220703125</AltitudeMeters>
            <DistanceMeters>71311.895518014</DistanceMeters>
          </Trackpoint>
          <Trackpoint>
            <Time>2019-05-08T12:10:33.000Z</Time>
            <Position>
              <LatitudeDegrees>42.8882222436368465423583984375</LatitudeDegrees>
              <LongitudeDegrees>0.61973319388926029205322265625</LongitudeDegrees>
            </Position>
            <AltitudeMeters>565.20001220703125</AltitudeMeters>
            <DistanceMeters>71328.591038361</DistanceMeters>
          </Trackpoint>
          <Trackpoint>
            <Time>2019-05-08T12:10:37.000Z</Time>
            <Position>
              <LatitudeDegrees>42.88802702911198139190673828125</LatitudeDegrees>
              <LongitudeDegrees>0.6196766160428524017333984375</LongitudeDegrees>
            </Position>
            <AltitudeMeters>565.5999755859375</AltitudeMeters>
            <DistanceMeters>71350.803113606</DistanceMeters>
          </Trackpoint>
          <Trackpoint>
            <Time>2019-05-08T12:10:42.000Z</Time>
            <Position>
              <LatitudeDegrees>42.8877776674926280975341796875</LatitudeDegrees>
              <LongitudeDegrees>0.61961232684552669525146484375</LongitudeDegrees>
            </Position>
            <AltitudeMeters>566.4000244140625</AltitudeMeters>
            <DistanceMeters>71379.048275912</DistanceMeters>
          </Trackpoint>
          <Trackpoint>
            <Time>2019-05-08T12:10:45.000Z</Time>
            <Position>
              <LatitudeDegrees>42.887626625597476959228515625</LatitudeDegrees>
              <LongitudeDegrees>0.6195683218538761138916015625</LongitudeDegrees>
            </Position>
            <AltitudeMeters>566.79998779296875</AltitudeMeters>
            <DistanceMeters>71396.238395793</DistanceMeters>
          </Trackpoint>
          <Trackpoint>
            <Time>2019-05-08T12:10:49.000Z</Time>
            <Position>
              <LatitudeDegrees>42.88744834251701831817626953125</LatitudeDegrees>
              <LongitudeDegrees>0.61948274262249469757080078125</LongitudeDegrees>
            </Position>
            <AltitudeMeters>567.5999755859375</AltitudeMeters>
            <DistanceMeters>71417.27302642</DistanceMeters>
          </Trackpoint>
          <Trackpoint>
            <Time>2019-05-08T12:10:55.000Z</Time>
            <Position>
              <LatitudeDegrees>42.8871989808976650238037109375</LatitudeDegrees>
              <LongitudeDegrees>0.61923329718410968780517578125</LongitudeDegrees>
            </Position>
            <AltitudeMeters>568.4000244140625</AltitudeMeters>
            <DistanceMeters>71451.684245292</DistanceMeters>
          </Trackpoint>
          <Trackpoint>
            <Time>2019-05-08T12:11:03.000Z</Time>
            <Position>
              <LatitudeDegrees>42.88689195178449153900146484375</LatitudeDegrees>
              <LongitudeDegrees>0.61888561584055423736572265625</LongitudeDegrees>
            </Position>
            <AltitudeMeters>568.79998779296875</AltitudeMeters>
            <DistanceMeters>71496.088470898</DistanceMeters>
          </Trackpoint>
          <Trackpoint>
            <Time>2019-05-08T12:11:05.000Z</Time>
            <Position>
              <LatitudeDegrees>42.88681089878082275390625</LatitudeDegrees>
              <LongitudeDegrees>0.61879944987595081329345703125</LongitudeDegrees>
            </Position>
            <AltitudeMeters>568.79998779296875</AltitudeMeters>
            <DistanceMeters>71507.524097994</DistanceMeters>
          </Trackpoint>
          <Trackpoint>
            <Time>2019-05-08T12:11:11.000Z</Time>
            <Position>
              <LatitudeDegrees>42.88652951829135417938232421875</LatitudeDegrees>
              <LongitudeDegrees>0.6185562908649444580078125</LongitudeDegrees>
            </Position>
            <AltitudeMeters>569.20001220703125</AltitudeMeters>
            <DistanceMeters>71544.592312842</DistanceMeters>
          </Trackpoint>
          <Trackpoint>
            <Time>2019-05-08T12:11:17.000Z</Time>
            <Position>
              <LatitudeDegrees>42.88621670566499233245849609375</LatitudeDegrees>
              <LongitudeDegrees>0.61833173967897891998291015625</LongitudeDegrees>
            </Position>
            <AltitudeMeters>570.20001220703125</AltitudeMeters>
            <DistanceMeters>71583.931306739</DistanceMeters>
          </Trackpoint>
          <Trackpoint>
            <Time>2019-05-08T12:11:21.000Z</Time>
            <Position>
              <LatitudeDegrees>42.8860235027968883514404296875</LatitudeDegrees>
              <LongitudeDegrees>0.6181712262332439422607421875</LongitudeDegrees>
            </Position>
            <AltitudeMeters>570.5999755859375</AltitudeMeters>
            <DistanceMeters>71609.106213198</DistanceMeters>
          </Trackpoint>
          <Trackpoint>
            <Time>2019-05-08T12:11:24.000Z</Time>
            <Position>
              <LatitudeDegrees>42.88589986972510814666748046875</LatitudeDegrees>
              <LongitudeDegrees>0.618042647838592529296875</LongitudeDegrees>
            </Position>
            <AltitudeMeters>570.79998779296875</AltitudeMeters>
            <DistanceMeters>71626.406817632</DistanceMeters>
          </Trackpoint>
          <Trackpoint>
            <Time>2019-05-08T12:11:28.000Z</Time>
            <Position>
              <LatitudeDegrees>42.8857596404850482940673828125</LatitudeDegrees>
              <LongitudeDegrees>0.6178624369204044342041015625</LongitudeDegrees>
            </Position>
            <AltitudeMeters>571.5999755859375</AltitudeMeters>
            <DistanceMeters>71647.844979183</DistanceMeters>
          </Trackpoint>
          <Trackpoint>
            <Time>2019-05-08T12:11:32.000Z</Time>
            <Position>
              <LatitudeDegrees>42.8856453113257884979248046875</LatitudeDegrees>
              <LongitudeDegrees>0.6176783703267574310302734375</LongitudeDegrees>
            </Position>
            <AltitudeMeters>571.79998779296875</AltitudeMeters>
            <DistanceMeters>71667.523770516</DistanceMeters>
          </Trackpoint>
          <Trackpoint>
            <Time>2019-05-08T12:11:36.000Z</Time>
            <Position>
              <LatitudeDegrees>42.88555352948606014251708984375</LatitudeDegrees>
              <LongitudeDegrees>0.61750109307467937469482421875</LongitudeDegrees>
            </Position>
            <AltitudeMeters>573</AltitudeMeters>
            <DistanceMeters>71685.226306292</DistanceMeters>
          </Trackpoint>
          <Trackpoint>
            <Time>2019-05-08T12:11:37.000Z</Time>
            <Position>
              <LatitudeDegrees>42.8855306468904018402099609375</LatitudeDegrees>
              <LongitudeDegrees>0.617455579340457916259765625</LongitudeDegrees>
            </Position>
            <AltitudeMeters>573.20001220703125</AltitudeMeters>
            <DistanceMeters>71689.727805102</DistanceMeters>
          </Trackpoint>
          <Trackpoint>
            <Time>2019-05-08T12:11:43.000Z</Time>
            <Position>
              <LatitudeDegrees>42.885406427085399627685546875</LatitudeDegrees>
              <LongitudeDegrees>0.6171995960175991058349609375</LongitudeDegrees>
            </Position>
            <AltitudeMeters>573.79998779296875</AltitudeMeters>
            <DistanceMeters>71714.766938624</DistanceMeters>
          </Trackpoint>
          <Trackpoint>
            <Time>2019-05-08T12:11:44.000Z</Time>
            <Position>
              <LatitudeDegrees>42.88538354448974132537841796875</LatitudeDegrees>
              <LongitudeDegrees>0.61715894378721714019775390625</LongitudeDegrees>
            </Position>
            <AltitudeMeters>574</AltitudeMeters>
            <DistanceMeters>71718.9459538</DistanceMeters>
          </Trackpoint>
          <Trackpoint>
            <Time>2019-05-08T12:11:51.000Z</Time>
            <Position>
              <LatitudeDegrees>42.88520081900060176849365234375</LatitudeDegrees>
              <LongitudeDegrees>0.61688460409641265869140625</LongitudeDegrees>
            </Position>
            <AltitudeMeters>575.4000244140625</AltitudeMeters>
            <DistanceMeters>71749.181477262</DistanceMeters>
          </Trackpoint>
          <Trackpoint>
            <Time>2019-05-08T12:11:57.000Z</Time>
            <Position>
              <LatitudeDegrees>42.88504659198224544525146484375</LatitudeDegrees>
              <LongitudeDegrees>0.61673632822930812835693359375</LongitudeDegrees>
            </Position>
            <AltitudeMeters>576.5999755859375</AltitudeMeters>
            <DistanceMeters>71770.178725946</DistanceMeters>
          </Trackpoint>
          <Trackpoint>
            <Time>2019-05-08T12:12:01.000Z</Time>
            <Position>
              <LatitudeDegrees>42.88497718982398509979248046875</LatitudeDegrees>
              <LongitudeDegrees>0.61669995076954364776611328125</LongitudeDegrees>
            </Position>
            <AltitudeMeters>577.20001220703125</AltitudeMeters>
            <DistanceMeters>71778.453146748</DistanceMeters>
          </Trackpoint>
          <Trackpoint>
            <Time>2019-05-08T12:12:02.000Z</Time>
            <Position>
              <LatitudeDegrees>42.8849767707288265228271484375</LatitudeDegrees>
              <LongitudeDegrees>0.6166752241551876068115234375</LongitudeDegrees>
            </Position>
            <AltitudeMeters>577.5999755859375</AltitudeMeters>
            <DistanceMeters>71780.468967771</DistanceMeters>
          </Trackpoint>
          <Trackpoint>
            <Time>2019-05-08T12:12:05.000Z</Time>
            <Position>
              <LatitudeDegrees>42.88503552787005901336669921875</LatitudeDegrees>
              <LongitudeDegrees>0.61666239984333515167236328125</LongitudeDegrees>
            </Position>
            <AltitudeMeters>577.79998779296875</AltitudeMeters>
            <DistanceMeters>71787.091586686</DistanceMeters>
          </Trackpoint>
          <Trackpoint>
            <Time>2019-05-08T12:12:09.000Z</Time>
            <Position>
              <LatitudeDegrees>42.885146252810955047607421875</LatitudeDegrees>
              <LongitudeDegrees>0.6167452968657016754150390625</LongitudeDegrees>
            </Position>
            <AltitudeMeters>577.79998779296875</AltitudeMeters>
            <DistanceMeters>71801.147833432</DistanceMeters>
          </Trackpoint>
          <Trackpoint>
            <Time>2019-05-08T12:12:10.000Z</Time>
            <Position>
              <LatitudeDegrees>42.88518212735652923583984375</LatitudeDegrees>
              <LongitudeDegrees>0.6167365796864032745361328125</LongitudeDegrees>
            </Position>
            <AltitudeMeters>577.79998779296875</AltitudeMeters>
            <DistanceMeters>71805.204038467</DistanceMeters>
          </Trackpoint>
          <Trackpoint>
            <Time>2019-05-08T12:12:11.000Z</Time>
            <Position>
              <LatitudeDegrees>42.88521205075085163116455078125</LatitudeDegrees>
              <LongitudeDegrees>0.61669978313148021697998046875</LongitudeDegrees>
            </Position>
            <AltitudeMeters>577.79998779296875</AltitudeMeters>
            <DistanceMeters>71809.687446787</DistanceMeters>
          </Trackpoint>
          <Trackpoint>
            <Time>2019-05-08T12:12:13.000Z</Time>
            <Position>
              <LatitudeDegrees>42.88526351563632488250732421875</LatitudeDegrees>
              <LongitudeDegrees>0.61659199185669422149658203125</LongitudeDegrees>
            </Position>
            <AltitudeMeters>577.79998779296875</AltitudeMeters>
            <DistanceMeters>71820.180048562</DistanceMeters>
          </Trackpoint>
          <Trackpoint>
            <Time>2019-05-08T12:12:14.000Z</Time>
            <Position>
              <LatitudeDegrees>42.8852936066687107086181640625</LatitudeDegrees>
              <LongitudeDegrees>0.61653725802898406982421875</LongitudeDegrees>
            </Position>
            <AltitudeMeters>577.5999755859375</AltitudeMeters>
            <DistanceMeters>71825.760795255</DistanceMeters>
          </Trackpoint>
          <Trackpoint>
            <Time>2019-05-08T12:12:16.000Z</Time>
            <Position>
              <LatitudeDegrees>42.8853584825992584228515625</LatitudeDegrees>
              <LongitudeDegrees>0.6164251081645488739013671875</LongitudeDegrees>
            </Position>
            <AltitudeMeters>577.4000244140625</AltitudeMeters>
            <DistanceMeters>71837.413488484</DistanceMeters>
          </Trackpoint>
          <Trackpoint>
            <Time>2019-05-08T12:12:18.000Z</Time>
            <Position>
              <LatitudeDegrees>42.88540500216186046600341796875</LatitudeDegrees>
              <LongitudeDegrees>0.61632008291780948638916015625</LongitudeDegrees>
            </Position>
            <AltitudeMeters>577.20001220703125</AltitudeMeters>
            <DistanceMeters>71847.421565618</DistanceMeters>
          </Trackpoint>
          <Trackpoint>
            <Time>2019-05-08T12:12:21.000Z</Time>
            <Position>
              <LatitudeDegrees>42.8854220174252986907958984375</LatitudeDegrees>
              <LongitudeDegrees>0.61620642431080341339111328125</LongitudeDegrees>
            </Position>
            <AltitudeMeters>577</AltitudeMeters>
            <DistanceMeters>71856.881378383</DistanceMeters>
          </Trackpoint>
          <Trackpoint>
            <Time>2019-05-08T12:12:22.000Z</Time>
            <Position>
              <LatitudeDegrees>42.88541858084499835968017578125</LatitudeDegrees>
              <LongitudeDegrees>0.6161746568977832794189453125</LongitudeDegrees>
            </Position>
            <AltitudeMeters>577</AltitudeMeters>
            <DistanceMeters>71859.499360053</DistanceMeters>
          </Trackpoint>
          <Trackpoint>
            <Time>2019-05-08T12:12:26.000Z</Time>
            <Position>
              <LatitudeDegrees>42.885408438742160797119140625</LatitudeDegrees>
              <LongitudeDegrees>0.616117827594280242919921875</LongitudeDegrees>
            </Position>
            <AltitudeMeters>576.79998779296875</AltitudeMeters>
            <DistanceMeters>71864.269663255</DistanceMeters>
          </Trackpoint>
          <Trackpoint>
            <Time>2019-05-08T12:12:40.000Z</Time>
            <Position>
              <LatitudeDegrees>42.8854350931942462921142578125</LatitudeDegrees>
              <LongitudeDegrees>0.6161461584270000457763671875</LongitudeDegrees>
            </Position>
            <AltitudeMeters>578</AltitudeMeters>
            <DistanceMeters>71868.030128613</DistanceMeters>
          </Trackpoint>
          <Trackpoint>
            <Time>2019-05-08T12:12:42.000Z</Time>
            <Position>
              <LatitudeDegrees>42.8854189999401569366455078125</LatitudeDegrees>
              <LongitudeDegrees>0.61621145345270633697509765625</LongitudeDegrees>
            </Position>
            <AltitudeMeters>578.20001220703125</AltitudeMeters>
            <DistanceMeters>71873.647967804</DistanceMeters>
          </Trackpoint>
          <Trackpoint>
            <Time>2019-05-08T12:12:45.000Z</Time>
            <Position>
              <LatitudeDegrees>42.885380946099758148193359375</LatitudeDegrees>
              <LongitudeDegrees>0.6163560412824153900146484375</LongitudeDegrees>
            </Position>
            <AltitudeMeters>578</AltitudeMeters>
            <DistanceMeters>71886.177087841</DistanceMeters>
          </Trackpoint>
          <Trackpoint>
            <Time>2019-05-08T12:12:46.000Z</Time>
            <Position>
              <LatitudeDegrees>42.88535806350409984588623046875</LatitudeDegrees>
              <LongitudeDegrees>0.61641261912882328033447265625</LongitudeDegrees>
            </Position>
            <AltitudeMeters>577.79998779296875</AltitudeMeters>
            <DistanceMeters>71891.447430822</DistanceMeters>
          </Trackpoint>
          <Trackpoint>
            <Time>2019-05-08T12:12:49.000Z</Time>
            <Position>
              <LatitudeDegrees>42.88527290336787700653076171875</LatitudeDegrees>
              <LongitudeDegrees>0.61657908372581005096435546875</LongitudeDegrees>
            </Position>
            <AltitudeMeters>577.79998779296875</AltitudeMeters>
            <DistanceMeters>71908.004455334</DistanceMeters>
          </Trackpoint>
          <Trackpoint>
            <Time>2019-05-08T12:12:52.000Z</Time>
            <Position>
              <LatitudeDegrees>42.885199896991252899169921875</LatitudeDegrees>
              <LongitudeDegrees>0.616715289652347564697265625</LongitudeDegrees>
            </Position>
            <AltitudeMeters>577.4000244140625</AltitudeMeters>
            <DistanceMeters>71921.767263314</DistanceMeters>
          </Trackpoint>
          <Trackpoint>
            <Time>2019-05-08T12:12:54.000Z</Time>
            <Position>
              <LatitudeDegrees>42.88514616899192333221435546875</LatitudeDegrees>
              <LongitudeDegrees>0.6167685985565185546875</LongitudeDegrees>
            </Position>
            <AltitudeMeters>577</AltitudeMeters>
            <DistanceMeters>71929.160439405</DistanceMeters>
          </Trackpoint>
          <Trackpoint>
            <Time>2019-05-08T12:12:56.000Z</Time>
            <Position>
              <LatitudeDegrees>42.8850914351642131805419921875</LatitudeDegrees>
              <LongitudeDegrees>0.61677220277488231658935546875</LongitudeDegrees>
            </Position>
            <AltitudeMeters>576.79998779296875</AltitudeMeters>
            <DistanceMeters>71935.25994061</DistanceMeters>
          </Trackpoint>
          <Trackpoint>
            <Time>2019-05-08T12:13:00.000Z</Time>
            <Position>
              <LatitudeDegrees>42.88497517816722393035888671875</LatitudeDegrees>
              <LongitudeDegrees>0.6166953407227993011474609375</LongitudeDegrees>
            </Position>
            <AltitudeMeters>576.79998779296875</AltitudeMeters>
            <DistanceMeters>71949.637579844</DistanceMeters>
          </Trackpoint>
          <Trackpoint>
            <Time>2019-05-08T12:13:01.000Z</Time>
            <Position>
              <LatitudeDegrees>42.884943746030330657958984375</LatitudeDegrees>
              <LongitudeDegrees>0.61667379923164844512939453125</LongitudeDegrees>
            </Position>
            <AltitudeMeters>576.79998779296875</AltitudeMeters>
            <DistanceMeters>71953.552173019</DistanceMeters>
          </Trackpoint>
          <Trackpoint>
            <Time>2019-05-08T12:13:04.000Z</Time>
            <Position>
              <LatitudeDegrees>42.88484685122966766357421875</LatitudeDegrees>
              <LongitudeDegrees>0.61661235988140106201171875</LongitudeDegrees>
            </Position>
            <AltitudeMeters>577.5999755859375</AltitudeMeters>
            <DistanceMeters>71965.444188289</DistanceMeters>
          </Trackpoint>
          <Trackpoint>
            <Time>2019-05-08T12:13:08.000Z</Time>
            <Position>
              <LatitudeDegrees>42.8847165964543819427490234375</LatitudeDegrees>
              <LongitudeDegrees>0.616532228887081146240234375</LongitudeDegrees>
            </Position>
            <AltitudeMeters>578</AltitudeMeters>
            <DistanceMeters>71981.346334709</DistanceMeters>
          </Trackpoint>
          <Trackpoint>
            <Time>2019-05-08T12:13:11.000Z</Time>
            <Position>
              <LatitudeDegrees>42.88461592979729175567626953125</LatitudeDegrees>
              <LongitudeDegrees>0.6164817698299884796142578125</LongitudeDegrees>
            </Position>
            <AltitudeMeters>578.5999755859375</AltitudeMeters>
            <DistanceMeters>71993.28268868</DistanceMeters>
          </Trackpoint>
          <Trackpoint>
            <Time>2019-05-08T12:13:14.000Z</Time>
            <Position>
              <LatitudeDegrees>42.8845127485692501068115234375</LatitudeDegrees>
              <LongitudeDegrees>0.61642586253583431243896484375</LongitudeDegrees>
            </Position>
            <AltitudeMeters>578.79998779296875</AltitudeMeters>
            <DistanceMeters>72005.639085101</DistanceMeters>
          </Trackpoint>
          <Trackpoint>
            <Time>2019-05-08T12:13:20.000Z</Time>
            <Position>
              <LatitudeDegrees>42.88431032560765743255615234375</LatitudeDegrees>
              <LongitudeDegrees>0.61627817340195178985595703125</LongitudeDegrees>
            </Position>
            <AltitudeMeters>579.20001220703125</AltitudeMeters>
            <DistanceMeters>72031.186606805</DistanceMeters>
          </Trackpoint>
          <Trackpoint>
            <Time>2019-05-08T12:13:21.000Z</Time>
            <Position>
              <LatitudeDegrees>42.8842807374894618988037109375</LatitudeDegrees>
              <LongitudeDegrees>0.61624757945537567138671875</LongitudeDegrees>
            </Position>
            <AltitudeMeters>579.20001220703125</AltitudeMeters>
            <DistanceMeters>72035.317810562</DistanceMeters>
          </Trackpoint>
          <Trackpoint>
            <Time>2019-05-08T12:13:27.000Z</Time>
            <Position>
              <LatitudeDegrees>42.88411536253988742828369140625</LatitudeDegrees>
              <LongitudeDegrees>0.61606192030012607574462890625</LongitudeDegrees>
            </Position>
            <AltitudeMeters>579.79998779296875</AltitudeMeters>
            <DistanceMeters>72059.151904816</DistanceMeters>
          </Trackpoint>
          <Trackpoint>
            <Time>2019-05-08T12:13:32.000Z</Time>
            <Position>
              <LatitudeDegrees>42.88398661650717258453369140625</LatitudeDegrees>
              <LongitudeDegrees>0.61587584204971790313720703125</LongitudeDegrees>
            </Position>
            <AltitudeMeters>580.79998779296875</AltitudeMeters>
            <DistanceMeters>72080.023630855</DistanceMeters>
          </Trackpoint>
          <Trackpoint>
            <Time>2019-05-08T12:13:37.000Z</Time>
            <Position>
              <LatitudeDegrees>42.88385686464607715606689453125</LatitudeDegrees>
              <LongitudeDegrees>0.61565808020532131195068359375</LongitudeDegrees>
            </Position>
            <AltitudeMeters>581.5999755859375</AltitudeMeters>
            <DistanceMeters>72102.91382866</DistanceMeters>
          </Trackpoint>
          <Trackpoint>
            <Time>2019-05-08T12:13:43.000Z</Time>
            <Position>
              <LatitudeDegrees>42.88370314054191112518310546875</LatitudeDegrees>
              <LongitudeDegrees>0.6153766997158527374267578125</LongitudeDegrees>
            </Position>
            <AltitudeMeters>582</AltitudeMeters>
            <DistanceMeters>72131.538171731</DistanceMeters>
          </Trackpoint>
          <Trackpoint>
            <Time>2019-05-08T12:13:45.000Z</Time>
            <Position>
              <LatitudeDegrees>42.88365653716027736663818359375</LatitudeDegrees>
              <LongitudeDegrees>0.61528475023806095123291015625</LongitudeDegrees>
            </Position>
            <AltitudeMeters>582.20001220703125</AltitudeMeters>
            <DistanceMeters>72140.656776004</DistanceMeters>
          </Trackpoint>
          <Trackpoint>
            <Time>2019-05-08T12:13:48.000Z</Time>
            <Position>
              <LatitudeDegrees>42.88359023630619049072265625</LatitudeDegrees>
              <LongitudeDegrees>0.6151483766734600067138671875</LongitudeDegrees>
            </Position>
            <AltitudeMeters>582.4000244140625</AltitudeMeters>
            <DistanceMeters>72154.004562646</DistanceMeters>
          </Trackpoint>
          <Trackpoint>
            <Time>2019-05-08T12:13:53.000Z</Time>
            <Position>
              <LatitudeDegrees>42.88348806090652942657470703125</LatitudeDegrees>
              <LongitudeDegrees>0.61491058208048343658447265625</LongitudeDegrees>
            </Position>
            <AltitudeMeters>582.79998779296875</AltitudeMeters>
            <DistanceMeters>72176.486365037</DistanceMeters>
          </Trackpoint>
          <Trackpoint>
            <Time>2019-05-08T12:14:00.000Z</Time>
            <Position>
              <LatitudeDegrees>42.88332344032824039459228515625</LatitudeDegrees>
              <LongitudeDegrees>0.614565499126911163330078125</LongitudeDegrees>
            </Position>
            <AltitudeMeters>583.79998779296875</AltitudeMeters>
            <DistanceMeters>72210.068865051</DistanceMeters>
          </Trackpoint>
          <Trackpoint>
            <Time>2019-05-08T12:14:06.000Z</Time>
            <Position>
              <LatitudeDegrees>42.883140631020069122314453125</LatitudeDegrees>
              <LongitudeDegrees>0.61427213251590728759765625</LongitudeDegrees>
            </Position>
            <AltitudeMeters>584.79998779296875</AltitudeMeters>
            <DistanceMeters>72241.476595799</DistanceMeters>
          </Trackpoint>
          <Trackpoint>
            <Time>2019-05-08T12:14:08.000Z</Time>
            <Position>
              <LatitudeDegrees>42.88306779228150844573974609375</LatitudeDegrees>
              <LongitudeDegrees>0.61417825520038604736328125</LongitudeDegrees>
            </Position>
            <AltitudeMeters>585</AltitudeMeters>
            <DistanceMeters>72252.627566727</DistanceMeters>
          </Trackpoint>
          <Trackpoint>
            <Time>2019-05-08T12:14:09.000Z</Time>
            <Position>
              <LatitudeDegrees>42.88302923552691936492919921875</LatitudeDegrees>
              <LongitudeDegrees>0.61413391493260860443115234375</LongitudeDegrees>
            </Position>
            <AltitudeMeters>585</AltitudeMeters>
            <DistanceMeters>72258.238972662</DistanceMeters>
          </Trackpoint>
          <Trackpoint>
            <Time>2019-05-08T12:14:15.000Z</Time>
            <Position>
              <LatitudeDegrees>42.88277224637567996978759765625</LatitudeDegrees>
              <LongitudeDegrees>0.61391933821141719818115234375</LongitudeDegrees>
            </Position>
            <AltitudeMeters>585.5999755859375</AltitudeMeters>
            <DistanceMeters>72291.770882814</DistanceMeters>
          </Trackpoint>
          <Trackpoint>
            <Time>2019-05-08T12:14:22.000Z</Time>
            <Position>
              <LatitudeDegrees>42.88242775015532970428466796875</LatitudeDegrees>
              <LongitudeDegrees>0.61377868987619876861572265625</LongitudeDegrees>
            </Position>
            <AltitudeMeters>586.4000244140625</AltitudeMeters>
            <DistanceMeters>72331.793039425</DistanceMeters>
          </Trackpoint>
          <Trackpoint>
            <Time>2019-05-08T12:14:23.000Z</Time>
            <Position>
              <LatitudeDegrees>42.882377542555332183837890625</LatitudeDegrees>
              <LongitudeDegrees>0.6137683801352977752685546875</LongitudeDegrees>
            </Position>
            <AltitudeMeters>586.4000244140625</AltitudeMeters>
            <DistanceMeters>72337.444533067</DistanceMeters>
          </Trackpoint>
          <Trackpoint>
            <Time>2019-05-08T12:14:32.000Z</Time>
            <Position>
              <LatitudeDegrees>42.88192952983081340789794921875</LatitudeDegrees>
              <LongitudeDegrees>0.61369168572127819061279296875</LongitudeDegrees>
            </Position>
            <AltitudeMeters>586.20001220703125</AltitudeMeters>
            <DistanceMeters>72387.699921042</DistanceMeters>
          </Trackpoint>
          <Trackpoint>
            <Time>2019-05-08T12:14:34.000Z</Time>
            <Position>
              <LatitudeDegrees>42.88182735443115234375</LatitudeDegrees>
              <LongitudeDegrees>0.6136765144765377044677734375</LongitudeDegrees>
            </Position>
            <AltitudeMeters>586</AltitudeMeters>
            <DistanceMeters>72399.139495676</DistanceMeters>
          </Trackpoint>
          <Trackpoint>
            <Time>2019-05-08T12:14:39.000Z</Time>
            <Position>
              <LatitudeDegrees>42.88157447241246700286865234375</LatitudeDegrees>
              <LongitudeDegrees>0.61363804154098033905029296875</LongitudeDegrees>
            </Position>
            <AltitudeMeters>586.20001220703125</AltitudeMeters>
            <DistanceMeters>72427.460166922</DistanceMeters>
          </Trackpoint>
          <Trackpoint>
            <Time>2019-05-08T12:14:41.000Z</Time>
            <Position>
              <LatitudeDegrees>42.8814724646508693695068359375</LatitudeDegrees>
              <LongitudeDegrees>0.61362043954432010650634765625</LongitudeDegrees>
            </Position>
            <AltitudeMeters>586.4000244140625</AltitudeMeters>
            <DistanceMeters>72438.904476807</DistanceMeters>
          </Trackpoint>
          <Trackpoint>
            <Time>2019-05-08T12:14:52.000Z</Time>
            <Position>
              <LatitudeDegrees>42.88091347552835941314697265625</LatitudeDegrees>
              <LongitudeDegrees>0.61352639459073543548583984375</LongitudeDegrees>
            </Position>
            <AltitudeMeters>588.5999755859375</AltitudeMeters>
            <DistanceMeters>72501.592081301</DistanceMeters>
          </Trackpoint>
          <Trackpoint>
            <Time>2019-05-08T12:14:53.000Z</Time>
            <Position>
              <LatitudeDegrees>42.88086402229964733123779296875</LatitudeDegrees>
              <LongitudeDegrees>0.61351683922111988067626953125</LongitudeDegrees>
            </Position>
            <AltitudeMeters>588.5999755859375</AltitudeMeters>
            <DistanceMeters>72507.150941039</DistanceMeters>
          </Trackpoint>
          <Trackpoint>
            <Time>2019-05-08T12:15:01.000Z</Time>
            <Position>
              <LatitudeDegrees>42.8804642893373966217041015625</LatitudeDegrees>
              <LongitudeDegrees>0.6134595908224582672119140625</LongitudeDegrees>
            </Position>
            <AltitudeMeters>589</AltitudeMeters>
            <DistanceMeters>72551.886324927</DistanceMeters>
          </Trackpoint>
          <Trackpoint>
            <Time>2019-05-08T12:15:03.000Z</Time>
            <Position>
              <LatitudeDegrees>42.88036529906094074249267578125</LatitudeDegrees>
              <LongitudeDegrees>0.61344156973063945770263671875</LongitudeDegrees>
            </Position>
            <AltitudeMeters>589</AltitudeMeters>
            <DistanceMeters>72563.001607466</DistanceMeters>
          </Trackpoint>
          <Trackpoint>
            <Time>2019-05-08T12:15:07.000Z</Time>
            <Position>
              <LatitudeDegrees>42.8801618702709674835205078125</LatitudeDegrees>
              <LongitudeDegrees>0.61342631466686725616455078125</LongitudeDegrees>
            </Position>
            <AltitudeMeters>589.4000244140625</AltitudeMeters>
            <DistanceMeters>72585.677777182</DistanceMeters>
          </Trackpoint>
          <Trackpoint>
            <Time>2019-05-08T12:15:11.000Z</Time>
            <Position>
              <LatitudeDegrees>42.8799546696245670318603515625</LatitudeDegrees>
              <LongitudeDegrees>0.61343134380877017974853515625</LongitudeDegrees>
            </Position>
            <AltitudeMeters>590</AltitudeMeters>
            <DistanceMeters>72608.743248861</DistanceMeters>
          </Trackpoint>
          <Trackpoint>
            <Time>2019-05-08T12:15:18.000Z</Time>
            <Position>
              <LatitudeDegrees>42.87958896718919277191162109375</LatitudeDegrees>
              <LongitudeDegrees>0.61352186836302280426025390625</LongitudeDegrees>
            </Position>
            <AltitudeMeters>590.79998779296875</AltitudeMeters>
            <DistanceMeters>72650.110878197</DistanceMeters>
          </Trackpoint>
          <Trackpoint>
            <Time>2019-05-08T12:15:27.000Z</Time>
            <Position>
              <LatitudeDegrees>42.87915511988103389739990234375</LatitudeDegrees>
              <LongitudeDegrees>0.61370073817670345306396484375</LongitudeDegrees>
            </Position>
            <AltitudeMeters>591</AltitudeMeters>
            <DistanceMeters>72700.554581282</DistanceMeters>
          </Trackpoint>
          <Trackpoint>
            <Time>2019-05-08T12:15:33.000Z</Time>
            <Position>
              <LatitudeDegrees>42.8788321651518344879150390625</LatitudeDegrees>
              <LongitudeDegrees>0.6138317473232746124267578125</LongitudeDegrees>
            </Position>
            <AltitudeMeters>591</AltitudeMeters>
            <DistanceMeters>72738.05451161</DistanceMeters>
          </Trackpoint>
          <Trackpoint>
            <Time>2019-05-08T12:15:35.000Z</Time>
            <Position>
              <LatitudeDegrees>42.87872093729674816131591796875</LatitudeDegrees>
              <LongitudeDegrees>0.6138723157346248626708984375</LongitudeDegrees>
            </Position>
            <AltitudeMeters>591.20001220703125</AltitudeMeters>
            <DistanceMeters>72750.868679942</DistanceMeters>
          </Trackpoint>
          <Trackpoint>
            <Time>2019-05-08T12:15:45.000Z</Time>
            <Position>
              <LatitudeDegrees>42.87815750576555728912353515625</LatitudeDegrees>
              <LongitudeDegrees>0.6140533648431301116943359375</LongitudeDegrees>
            </Position>
            <AltitudeMeters>591.20001220703125</AltitudeMeters>
            <DistanceMeters>72815.294830052</DistanceMeters>
          </Trackpoint>
          <Trackpoint>
            <Time>2019-05-08T12:15:53.000Z</Time>
            <Position>
              <LatitudeDegrees>42.87769650109112262725830078125</LatitudeDegrees>
              <LongitudeDegrees>0.61403819359838962554931640625</LongitudeDegrees>
            </Position>
            <AltitudeMeters>591.20001220703125</AltitudeMeters>
            <DistanceMeters>72866.620517002</DistanceMeters>
          </Trackpoint>
          <Trackpoint>
            <Time>2019-05-08T12:15:54.000Z</Time>
            <Position>
              <LatitudeDegrees>42.8776392526924610137939453125</LatitudeDegrees>
              <LongitudeDegrees>0.61402360908687114715576171875</LongitudeDegrees>
            </Position>
            <AltitudeMeters>591.4000244140625</AltitudeMeters>
            <DistanceMeters>72873.102564957</DistanceMeters>
          </Trackpoint>
          <Trackpoint>
            <Time>2019-05-08T12:16:00.000Z</Time>
            <Position>
              <LatitudeDegrees>42.87730976007878780364990234375</LatitudeDegrees>
              <LongitudeDegrees>0.61388530768454074859619140625</LongitudeDegrees>
            </Position>
            <AltitudeMeters>591.5999755859375</AltitudeMeters>
            <DistanceMeters>72911.471476365</DistanceMeters>
          </Trackpoint>
          <Trackpoint>
            <Time>2019-05-08T12:16:05.000Z</Time>
            <Position>
              <LatitudeDegrees>42.877045311033725738525390625</LatitudeDegrees>
              <LongitudeDegrees>0.6137658655643463134765625</LongitudeDegrees>
            </Position>
            <AltitudeMeters>592.4000244140625</AltitudeMeters>
            <DistanceMeters>72942.475534768</DistanceMeters>
          </Trackpoint>
          <Trackpoint>
            <Time>2019-05-08T12:16:08.000Z</Time>
            <Position>
              <LatitudeDegrees>42.87688328884541988372802734375</LatitudeDegrees>
              <LongitudeDegrees>0.613690428435802459716796875</LongitudeDegrees>
            </Position>
            <AltitudeMeters>592.5999755859375</AltitudeMeters>
            <DistanceMeters>72961.529990509</DistanceMeters>
          </Trackpoint>
          <Trackpoint>
            <Time>2019-05-08T12:16:11.000Z</Time>
            <Position>
              <LatitudeDegrees>42.8767179138958454132080078125</LatitudeDegrees>
              <LongitudeDegrees>0.61360669322311878204345703125</LongitudeDegrees>
            </Position>
            <AltitudeMeters>592.5999755859375</AltitudeMeters>
            <DistanceMeters>72981.162610888</DistanceMeters>
          </Trackpoint>
          <Trackpoint>
            <Time>2019-05-08T12:16:15.000Z</Time>
            <Position>
              <LatitudeDegrees>42.8764939494431018829345703125</LatitudeDegrees>
              <LongitudeDegrees>0.61350627802312374114990234375</LongitudeDegrees>
            </Position>
            <AltitudeMeters>592.5999755859375</AltitudeMeters>
            <DistanceMeters>73007.401343484</DistanceMeters>
          </Trackpoint>
          <Trackpoint>
            <Time>2019-05-08T12:16:18.000Z</Time>
            <Position>
              <LatitudeDegrees>42.8763263113796710968017578125</LatitudeDegrees>
              <LongitudeDegrees>0.61342413537204265594482421875</LongitudeDegrees>
            </Position>
            <AltitudeMeters>592.79998779296875</AltitudeMeters>
            <DistanceMeters>73027.226202806</DistanceMeters>
          </Trackpoint>
          <Trackpoint>
            <Time>2019-05-08T12:16:23.000Z</Time>
            <Position>
              <LatitudeDegrees>42.87605331279337406158447265625</LatitudeDegrees>
              <LongitudeDegrees>0.613294132053852081298828125</LongitudeDegrees>
            </Position>
            <AltitudeMeters>592.5999755859375</AltitudeMeters>
            <DistanceMeters>73059.408708113</DistanceMeters>
          </Trackpoint>
          <Trackpoint>
            <Time>2019-05-08T12:16:24.000Z</Time>
            <Position>
              <LatitudeDegrees>42.8759984113276004791259765625</LatitudeDegrees>
              <LongitudeDegrees>0.6132698245346546173095703125</LongitudeDegrees>
            </Position>
            <AltitudeMeters>592.5999755859375</AltitudeMeters>
            <DistanceMeters>73065.834088218</DistanceMeters>
          </Trackpoint>
          <Trackpoint>
            <Time>2019-05-08T12:16:29.000Z</Time>
            <Position>
              <LatitudeDegrees>42.87575826980173587799072265625</LatitudeDegrees>
              <LongitudeDegrees>0.6131541542708873748779296875</LongitudeDegrees>
            </Position>
            <AltitudeMeters>592.5999755859375</AltitudeMeters>
            <DistanceMeters>73094.178663207</DistanceMeters>
          </Trackpoint>
          <Trackpoint>
            <Time>2019-05-08T12:16:30.000Z</Time>
            <Position>
              <LatitudeDegrees>42.87571501918137073516845703125</LatitudeDegrees>
              <LongitudeDegrees>0.6131370551884174346923828125</LongitudeDegrees>
            </Position>
            <AltitudeMeters>592.79998779296875</AltitudeMeters>
            <DistanceMeters>73099.190815706</DistanceMeters>
          </Trackpoint>
          <Trackpoint>
            <Time>2019-05-08T12:16:31.000Z</Time>
            <Position>
              <LatitudeDegrees>42.87567176856100559234619140625</LatitudeDegrees>
              <LongitudeDegrees>0.61311853118240833282470703125</LongitudeDegrees>
            </Position>
            <AltitudeMeters>593</AltitudeMeters>
            <DistanceMeters>73104.236188387</DistanceMeters>
          </Trackpoint>
          <Trackpoint>
            <Time>2019-05-08T12:16:37.000Z</Time>
            <Position>
              <LatitudeDegrees>42.875387705862522125244140625</LatitudeDegrees>
              <LongitudeDegrees>0.61297486536204814910888671875</LongitudeDegrees>
            </Position>
            <AltitudeMeters>593.20001220703125</AltitudeMeters>
            <DistanceMeters>73137.95460731</DistanceMeters>
          </Trackpoint>
          <Trackpoint>
            <Time>2019-05-08T12:16:46.000Z</Time>
            <Position>
              <LatitudeDegrees>42.87490163929760456085205078125</LatitudeDegrees>
              <LongitudeDegrees>0.61275132000446319580078125</LongitudeDegrees>
            </Position>
            <AltitudeMeters>594.4000244140625</AltitudeMeters>
            <DistanceMeters>73195.044866826</DistanceMeters>
          </Trackpoint>
          <Trackpoint>
            <Time>2019-05-08T12:16:53.000Z</Time>
            <Position>
              <LatitudeDegrees>42.87451255135238170623779296875</LatitudeDegrees>
              <LongitudeDegrees>0.612591393291950225830078125</LongitudeDegrees>
            </Position>
            <AltitudeMeters>594.79998779296875</AltitudeMeters>
            <DistanceMeters>73240.273190662</DistanceMeters>
          </Trackpoint>
          <Trackpoint>
            <Time>2019-05-08T12:16:59.000Z</Time>
            <Position>
              <LatitudeDegrees>42.8741808794438838958740234375</LatitudeDegrees>
              <LongitudeDegrees>0.61243456788361072540283203125</LongitudeDegrees>
            </Position>
            <AltitudeMeters>595</AltitudeMeters>
            <DistanceMeters>73279.342462498</DistanceMeters>
          </Trackpoint>
          <Trackpoint>
            <Time>2019-05-08T12:17:02.000Z</Time>
            <Position>
              <LatitudeDegrees>42.87401651032269001007080078125</LatitudeDegrees>
              <LongitudeDegrees>0.6123558618128299713134765625</LongitudeDegrees>
            </Position>
            <AltitudeMeters>595.20001220703125</AltitudeMeters>
            <DistanceMeters>73298.730474055</DistanceMeters>
          </Trackpoint>
          <Trackpoint>
            <Time>2019-05-08T12:17:11.000Z</Time>
            <Position>
              <LatitudeDegrees>42.873520553112030029296875</LatitudeDegrees>
              <LongitudeDegrees>0.6120822764933109283447265625</LongitudeDegrees>
            </Position>
            <AltitudeMeters>596.20001220703125</AltitudeMeters>
            <DistanceMeters>73358.271516801</DistanceMeters>
          </Trackpoint>
          <Trackpoint>
            <Time>2019-05-08T12:17:19.000Z</Time>
            <Position>
              <LatitudeDegrees>42.8730954229831695556640625</LatitudeDegrees>
              <LongitudeDegrees>0.6117842160165309906005859375</LongitudeDegrees>
            </Position>
            <AltitudeMeters>596.5999755859375</AltitudeMeters>
            <DistanceMeters>73411.469844574</DistanceMeters>
          </Trackpoint>
          <Trackpoint>
            <Time>2019-05-08T12:17:22.000Z</Time>
            <Position>
              <LatitudeDegrees>42.87293390370905399322509765625</LatitudeDegrees>
              <LongitudeDegrees>0.61166946776211261749267578125</LongitudeDegrees>
            </Position>
            <AltitudeMeters>596.5999755859375</AltitudeMeters>
            <DistanceMeters>73431.737953454</DistanceMeters>
          </Trackpoint>
          <Trackpoint>
            <Time>2019-05-08T12:17:24.000Z</Time>
            <Position>
              <LatitudeDegrees>42.87282493896782398223876953125</LatitudeDegrees>
              <LongitudeDegrees>0.61158590018749237060546875</LongitudeDegrees>
            </Position>
            <AltitudeMeters>596.5999755859375</AltitudeMeters>
            <DistanceMeters>73445.650201961</DistanceMeters>
          </Trackpoint>
          <Trackpoint>
            <Time>2019-05-08T12:17:30.000Z</Time>
            <Position>
              <LatitudeDegrees>42.87247155793011188507080078125</LatitudeDegrees>
              <LongitudeDegrees>0.611342824995517730712890625</LongitudeDegrees>
            </Position>
            <AltitudeMeters>596.79998779296875</AltitudeMeters>
            <DistanceMeters>73489.697211101</DistanceMeters>
          </Trackpoint>
          <Trackpoint>
            <Time>2019-05-08T12:17:35.000Z</Time>
            <Position>
              <LatitudeDegrees>42.87214248441159725189208984375</LatitudeDegrees>
              <LongitudeDegrees>0.6111663021147251129150390625</LongitudeDegrees>
            </Position>
            <AltitudeMeters>596.5999755859375</AltitudeMeters>
            <DistanceMeters>73529.052499331</DistanceMeters>
          </Trackpoint>
          <Trackpoint>
            <Time>2019-05-08T12:17:37.000Z</Time>
            <Position>
              <LatitudeDegrees>42.87201206199824810028076171875</LatitudeDegrees>
              <LongitudeDegrees>0.61110553331673145294189453125</LongitudeDegrees>
            </Position>
            <AltitudeMeters>596.5999755859375</AltitudeMeters>
            <DistanceMeters>73544.391588999</DistanceMeters>
          </Trackpoint>
          <Trackpoint>
            <Time>2019-05-08T12:17:38.000Z</Time>
            <Position>
              <LatitudeDegrees>42.871947102248668670654296875</LatitudeDegrees>
              <LongitudeDegrees>0.61107854358851909637451171875</LongitudeDegrees>
            </Position>
            <AltitudeMeters>596.79998779296875</AltitudeMeters>
            <DistanceMeters>73551.94964851</DistanceMeters>
          </Trackpoint>
          <Trackpoint>
            <Time>2019-05-08T12:17:42.000Z</Time>
            <Position>
              <LatitudeDegrees>42.8716951422393321990966796875</LatitudeDegrees>
              <LongitudeDegrees>0.6109817326068878173828125</LongitudeDegrees>
            </Position>
            <AltitudeMeters>596.5999755859375</AltitudeMeters>
            <DistanceMeters>73581.083977498</DistanceMeters>
          </Trackpoint>
          <Trackpoint>
            <Time>2019-05-08T12:17:45.000Z</Time>
            <Position>
              <LatitudeDegrees>42.87151761353015899658203125</LatitudeDegrees>
              <LongitudeDegrees>0.6109141744673252105712890625</LongitudeDegrees>
            </Position>
            <AltitudeMeters>596.79998779296875</AltitudeMeters>
            <DistanceMeters>73601.597205723</DistanceMeters>
          </Trackpoint>
          <Trackpoint>
            <Time>2019-05-08T12:17:46.000Z</Time>
            <Position>
              <LatitudeDegrees>42.87146405316889286041259765625</LatitudeDegrees>
              <LongitudeDegrees>0.61088425107300281524658203125</LongitudeDegrees>
            </Position>
            <AltitudeMeters>596.79998779296875</AltitudeMeters>
            <DistanceMeters>73608.038727381</DistanceMeters>
          </Trackpoint>
          <Trackpoint>
            <Time>2019-05-08T12:17:47.000Z</Time>
            <Position>
              <LatitudeDegrees>42.87141376174986362457275390625</LatitudeDegrees>
              <LongitudeDegrees>0.610847957432270050048828125</LongitudeDegrees>
            </Position>
            <AltitudeMeters>596.79998779296875</AltitudeMeters>
            <DistanceMeters>73614.370673322</DistanceMeters>
          </Trackpoint>
          <Trackpoint>
            <Time>2019-05-08T12:17:50.000Z</Time>
            <Position>
              <LatitudeDegrees>42.8712753765285015106201171875</LatitudeDegrees>
              <LongitudeDegrees>0.610693730413913726806640625</LongitudeDegrees>
            </Position>
            <AltitudeMeters>596.79998779296875</AltitudeMeters>
            <DistanceMeters>73634.257837225</DistanceMeters>
          </Trackpoint>
          <Trackpoint>
            <Time>2019-05-08T12:17:52.000Z</Time>
            <Position>
              <LatitudeDegrees>42.87117806263267993927001953125</LatitudeDegrees>
              <LongitudeDegrees>0.61059524305164813995361328125</LongitudeDegrees>
            </Position>
            <AltitudeMeters>596.79998779296875</AltitudeMeters>
            <DistanceMeters>73647.742928231</DistanceMeters>
          </Trackpoint>
          <Trackpoint>
            <Time>2019-05-08T12:17:55.000Z</Time>
            <Position>
              <LatitudeDegrees>42.87101629190146923065185546875</LatitudeDegrees>
              <LongitudeDegrees>0.61046532355248928070068359375</LongitudeDegrees>
            </Position>
            <AltitudeMeters>596.79998779296875</AltitudeMeters>
            <DistanceMeters>73668.635843185</DistanceMeters>
          </Trackpoint>
          <Trackpoint>
            <Time>2019-05-08T12:17:56.000Z</Time>
            <Position>
              <LatitudeDegrees>42.87095694802701473236083984375</LatitudeDegrees>
              <LongitudeDegrees>0.610435903072357177734375</LongitudeDegrees>
            </Position>
            <AltitudeMeters>597</AltitudeMeters>
            <DistanceMeters>73675.663966558</DistanceMeters>
          </Trackpoint>
          <Trackpoint>
            <Time>2019-05-08T12:18:00.000Z</Time>
            <Position>
              <LatitudeDegrees>42.8707270324230194091796875</LatitudeDegrees>
              <LongitudeDegrees>0.6102952547371387481689453125</LongitudeDegrees>
            </Position>
            <AltitudeMeters>597</AltitudeMeters>
            <DistanceMeters>73703.708280384</DistanceMeters>
          </Trackpoint>
          <Trackpoint>
            <Time>2019-05-08T12:18:01.000Z</Time>
            <Position>
              <LatitudeDegrees>42.8706742264330387115478515625</LatitudeDegrees>
              <LongitudeDegrees>0.61024353839457035064697265625</LongitudeDegrees>
            </Position>
            <AltitudeMeters>596.79998779296875</AltitudeMeters>
            <DistanceMeters>73710.942803387</DistanceMeters>
          </Trackpoint>
          <Trackpoint>
            <Time>2019-05-08T12:18:04.000Z</Time>
            <Position>
              <LatitudeDegrees>42.870512790977954864501953125</LatitudeDegrees>
              <LongitudeDegrees>0.61008696444332599639892578125</LongitudeDegrees>
            </Position>
            <AltitudeMeters>597</AltitudeMeters>
            <DistanceMeters>73732.987772292</DistanceMeters>
          </Trackpoint>
          <Trackpoint>
            <Time>2019-05-08T12:18:08.000Z</Time>
            <Position>
              <LatitudeDegrees>42.87030525505542755126953125</LatitudeDegrees>
              <LongitudeDegrees>0.60986584983766078948974609375</LongitudeDegrees>
            </Position>
            <AltitudeMeters>597.5999755859375</AltitudeMeters>
            <DistanceMeters>73762.294695041</DistanceMeters>
          </Trackpoint>
          <Trackpoint>
            <Time>2019-05-08T12:18:14.000Z</Time>
            <Position>
              <LatitudeDegrees>42.87000308744609355926513671875</LatitudeDegrees>
              <LongitudeDegrees>0.6095311604440212249755859375</LongitudeDegrees>
            </Position>
            <AltitudeMeters>597.79998779296875</AltitudeMeters>
            <DistanceMeters>73805.613016514</DistanceMeters>
          </Trackpoint>
          <Trackpoint>
            <Time>2019-05-08T12:18:18.000Z</Time>
            <Position>
              <LatitudeDegrees>42.8698326833546161651611328125</LatitudeDegrees>
              <LongitudeDegrees>0.60930895619094371795654296875</LongitudeDegrees>
            </Position>
            <AltitudeMeters>597.79998779296875</AltitudeMeters>
            <DistanceMeters>73831.847791079</DistanceMeters>
          </Trackpoint>
          <Trackpoint>
            <Time>2019-05-08T12:18:20.000Z</Time>
            <Position>
              <LatitudeDegrees>42.8697616048157215118408203125</LatitudeDegrees>
              <LongitudeDegrees>0.609180293977260589599609375</LongitudeDegrees>
            </Position>
            <AltitudeMeters>597.79998779296875</AltitudeMeters>
            <DistanceMeters>73844.990367015</DistanceMeters>
          </Trackpoint>
          <Trackpoint>
            <Time>2019-05-08T12:18:22.000Z</Time>
            <Position>
              <LatitudeDegrees>42.8696821443736553192138671875</LatitudeDegrees>
              <LongitudeDegrees>0.60906152240931987762451171875</LongitudeDegrees>
            </Position>
            <AltitudeMeters>598</AltitudeMeters>
            <DistanceMeters>73858.108184544</DistanceMeters>
          </Trackpoint>
          <Trackpoint>
            <Time>2019-05-08T12:18:25.000Z</Time>
            <Position>
              <LatitudeDegrees>42.8695684857666492462158203125</LatitudeDegrees>
              <LongitudeDegrees>0.60888935811817646026611328125</LongitudeDegrees>
            </Position>
            <AltitudeMeters>598</AltitudeMeters>
            <DistanceMeters>73877.009903368</DistanceMeters>
          </Trackpoint>
          <Trackpoint>
            <Time>2019-05-08T12:18:26.000Z</Time>
            <Position>
              <LatitudeDegrees>42.8695282526314258575439453125</LatitudeDegrees>
              <LongitudeDegrees>0.6088337861001491546630859375</LongitudeDegrees>
            </Position>
            <AltitudeMeters>598.20001220703125</AltitudeMeters>
            <DistanceMeters>73883.381655379</DistanceMeters>
          </Trackpoint>
          <Trackpoint>
            <Time>2019-05-08T12:18:33.000Z</Time>
            <Position>
              <LatitudeDegrees>42.86926866509020328521728515625</LatitudeDegrees>
              <LongitudeDegrees>0.60842667706310749053955078125</LongitudeDegrees>
            </Position>
            <AltitudeMeters>598.4000244140625</AltitudeMeters>
            <DistanceMeters>73927.400466621</DistanceMeters>
          </Trackpoint>
          <Trackpoint>
            <Time>2019-05-08T12:18:37.000Z</Time>
            <Position>
              <LatitudeDegrees>42.86913824267685413360595703125</LatitudeDegrees>
              <LongitudeDegrees>0.608199276030063629150390625</LongitudeDegrees>
            </Position>
            <AltitudeMeters>598.79998779296875</AltitudeMeters>
            <DistanceMeters>73950.955210451</DistanceMeters>
          </Trackpoint>
          <Trackpoint>
            <Time>2019-05-08T12:18:38.000Z</Time>
            <Position>
              <LatitudeDegrees>42.869105637073516845703125</LatitudeDegrees>
              <LongitudeDegrees>0.60814789496362209320068359375</LongitudeDegrees>
            </Position>
            <AltitudeMeters>598.79998779296875</AltitudeMeters>
            <DistanceMeters>73956.499430884</DistanceMeters>
          </Trackpoint>
          <Trackpoint>
            <Time>2019-05-08T12:18:40.000Z</Time>
            <Position>
              <LatitudeDegrees>42.86903464235365390777587890625</LatitudeDegrees>
              <LongitudeDegrees>0.60805602930486202239990234375</LongitudeDegrees>
            </Position>
            <AltitudeMeters>599.20001220703125</AltitudeMeters>
            <DistanceMeters>73967.389840611</DistanceMeters>
          </Trackpoint>
          <Trackpoint>
            <Time>2019-05-08T12:18:43.000Z</Time>
            <Position>
              <LatitudeDegrees>42.868923246860504150390625</LatitudeDegrees>
              <LongitudeDegrees>0.6079318933188915252685546875</LongitudeDegrees>
            </Position>
            <AltitudeMeters>599.79998779296875</AltitudeMeters>
            <DistanceMeters>73983.398105333</DistanceMeters>
          </Trackpoint>
          <Trackpoint>
            <Time>2019-05-08T12:18:44.000Z</Time>
            <Position>
              <LatitudeDegrees>42.86888242699205875396728515625</LatitudeDegrees>
              <LongitudeDegrees>0.6079000420868396759033203125</LongitudeDegrees>
            </Position>
            <AltitudeMeters>600</AltitudeMeters>
            <DistanceMeters>73988.632343762</DistanceMeters>
          </Trackpoint>
          <Trackpoint>
            <Time>2019-05-08T12:18:46.000Z</Time>
            <Position>
              <LatitudeDegrees>42.8687953390181064605712890625</LatitudeDegrees>
              <LongitudeDegrees>0.60785092413425445556640625</LongitudeDegrees>
            </Position>
            <AltitudeMeters>600.20001220703125</AltitudeMeters>
            <DistanceMeters>73999.12107206</DistanceMeters>
          </Trackpoint>
          <Trackpoint>
            <Time>2019-05-08T12:18:50.000Z</Time>
            <Position>
              <LatitudeDegrees>42.8686266951262950897216796875</LatitudeDegrees>
              <LongitudeDegrees>0.60775461606681346893310546875</LongitudeDegrees>
            </Position>
            <AltitudeMeters>600.79998779296875</AltitudeMeters>
            <DistanceMeters>74019.469218538</DistanceMeters>
          </Trackpoint>
          <Trackpoint>
            <Time>2019-05-08T12:18:52.000Z</Time>
            <Position>
              <LatitudeDegrees>42.868547737598419189453125</LatitudeDegrees>
              <LongitudeDegrees>0.6077148020267486572265625</LongitudeDegrees>
            </Position>
            <AltitudeMeters>601</AltitudeMeters>
            <DistanceMeters>74028.837908043</DistanceMeters>
          </Trackpoint>
          <Trackpoint>
            <Time>2019-05-08T12:18:55.000Z</Time>
            <Position>
              <LatitudeDegrees>42.868438102304935455322265625</LatitudeDegrees>
              <LongitudeDegrees>0.607650764286518096923828125</LongitudeDegrees>
            </Position>
            <AltitudeMeters>601.20001220703125</AltitudeMeters>
            <DistanceMeters>74042.111748918</DistanceMeters>
          </Trackpoint>
          <Trackpoint>
            <Time>2019-05-08T12:18:59.000Z</Time>
            <Position>
              <LatitudeDegrees>42.86829167045652866363525390625</LatitudeDegrees>
              <LongitudeDegrees>0.6075754947960376739501953125</LongitudeDegrees>
            </Position>
            <AltitudeMeters>601.20001220703125</AltitudeMeters>
            <DistanceMeters>74059.528359607</DistanceMeters>
          </Trackpoint>
          <Trackpoint>
            <Time>2019-05-08T12:19:00.000Z</Time>
            <Position>
              <LatitudeDegrees>42.8682562150061130523681640625</LatitudeDegrees>
              <LongitudeDegrees>0.60755378566682338714599609375</LongitudeDegrees>
            </Position>
            <AltitudeMeters>601.4000244140625</AltitudeMeters>
            <DistanceMeters>74063.853902162</DistanceMeters>
          </Trackpoint>
          <Trackpoint>
            <Time>2019-05-08T12:19:05.000Z</Time>
            <Position>
              <LatitudeDegrees>42.86809067241847515106201171875</LatitudeDegrees>
              <LongitudeDegrees>0.60744347982108592987060546875</LongitudeDegrees>
            </Position>
            <AltitudeMeters>602.4000244140625</AltitudeMeters>
            <DistanceMeters>74084.358984932</DistanceMeters>
          </Trackpoint>
          <Trackpoint>
            <Time>2019-05-08T12:19:07.000Z</Time>
            <Position>
              <LatitudeDegrees>42.86802210845053195953369140625</LatitudeDegrees>
              <LongitudeDegrees>0.607404001057147979736328125</LongitudeDegrees>
            </Position>
            <AltitudeMeters>602.79998779296875</AltitudeMeters>
            <DistanceMeters>74092.641586621</DistanceMeters>
          </Trackpoint>
          <Trackpoint>
            <Time>2019-05-08T12:19:13.000Z</Time>
            <Position>
              <LatitudeDegrees>42.86779831163585186004638671875</LatitudeDegrees>
              <LongitudeDegrees>0.607268549501895904541015625</LongitudeDegrees>
            </Position>
            <AltitudeMeters>603.79998779296875</AltitudeMeters>
            <DistanceMeters>74119.891563614</DistanceMeters>
          </Trackpoint>
          <Trackpoint>
            <Time>2019-05-08T12:19:18.000Z</Time>
            <Position>
              <LatitudeDegrees>42.867603600025177001953125</LatitudeDegrees>
              <LongitudeDegrees>0.607171989977359771728515625</LongitudeDegrees>
            </Position>
            <AltitudeMeters>604.4000244140625</AltitudeMeters>
            <DistanceMeters>74142.950378874</DistanceMeters>
          </Trackpoint>
          <Trackpoint>
            <Time>2019-05-08T12:19:19.000Z</Time>
            <Position>
              <LatitudeDegrees>42.86756378598511219024658203125</LatitudeDegrees>
              <LongitudeDegrees>0.60715765692293643951416015625</LongitudeDegrees>
            </Position>
            <AltitudeMeters>604.4000244140625</AltitudeMeters>
            <DistanceMeters>74147.533386381</DistanceMeters>
          </Trackpoint>
          <Trackpoint>
            <Time>2019-05-08T12:19:21.000Z</Time>
            <Position>
              <LatitudeDegrees>42.86748868413269519805908203125</LatitudeDegrees>
              <LongitudeDegrees>0.6071181781589984893798828125</LongitudeDegrees>
            </Position>
            <AltitudeMeters>604.5999755859375</AltitudeMeters>
            <DistanceMeters>74156.491134942</DistanceMeters>
          </Trackpoint>
          <Trackpoint>
            <Time>2019-05-08T12:19:25.000Z</Time>
            <Position>
              <LatitudeDegrees>42.867342419922351837158203125</LatitudeDegrees>
              <LongitudeDegrees>0.607022456824779510498046875</LongitudeDegrees>
            </Position>
            <AltitudeMeters>605</AltitudeMeters>
            <DistanceMeters>74174.546460741</DistanceMeters>
          </Trackpoint>
          <Trackpoint>
            <Time>2019-05-08T12:19:29.000Z</Time>
            <Position>
              <LatitudeDegrees>42.86719263531267642974853515625</LatitudeDegrees>
              <LongitudeDegrees>0.60692648403346538543701171875</LongitudeDegrees>
            </Position>
            <AltitudeMeters>605.5999755859375</AltitudeMeters>
            <DistanceMeters>74192.964981633</DistanceMeters>
          </Trackpoint>
          <Trackpoint>
            <Time>2019-05-08T12:19:30.000Z</Time>
            <Position>
              <LatitudeDegrees>42.86715575493872165679931640625</LatitudeDegrees>
              <LongitudeDegrees>0.60689748264849185943603515625</LongitudeDegrees>
            </Position>
            <AltitudeMeters>605.5999755859375</AltitudeMeters>
            <DistanceMeters>74197.702994933</DistanceMeters>
          </Trackpoint>
          <Trackpoint>
            <Time>2019-05-08T12:19:38.000Z</Time>
            <Position>
              <LatitudeDegrees>42.86685601808130741119384765625</LatitudeDegrees>
              <LongitudeDegrees>0.606672428548336029052734375</LongitudeDegrees>
            </Position>
            <AltitudeMeters>607.20001220703125</AltitudeMeters>
            <DistanceMeters>74235.782512727</DistanceMeters>
          </Trackpoint>
          <Trackpoint>
            <Time>2019-05-08T12:19:43.000Z</Time>
            <Position>
              <LatitudeDegrees>42.8666663356125354766845703125</LatitudeDegrees>
              <LongitudeDegrees>0.60655667446553707122802734375</LongitudeDegrees>
            </Position>
            <AltitudeMeters>607.79998779296875</AltitudeMeters>
            <DistanceMeters>74258.910148751</DistanceMeters>
          </Trackpoint>
          <Trackpoint>
            <Time>2019-05-08T12:19:50.000Z</Time>
            <Position>
              <LatitudeDegrees>42.8664011321961879730224609375</LatitudeDegrees>
              <LongitudeDegrees>0.60636288486421108245849609375</LongitudeDegrees>
            </Position>
            <AltitudeMeters>608.20001220703125</AltitudeMeters>
            <DistanceMeters>74292.394763751</DistanceMeters>
          </Trackpoint>
          <Trackpoint>
            <Time>2019-05-08T12:19:51.000Z</Time>
            <Position>
              <LatitudeDegrees>42.86636584438383579254150390625</LatitudeDegrees>
              <LongitudeDegrees>0.60633271001279354095458984375</LongitudeDegrees>
            </Position>
            <AltitudeMeters>608.5999755859375</AltitudeMeters>
            <DistanceMeters>74297.030665167</DistanceMeters>
          </Trackpoint>
          <Trackpoint>
            <Time>2019-05-08T12:19:53.000Z</Time>
            <Position>
              <LatitudeDegrees>42.86630834452807903289794921875</LatitudeDegrees>
              <LongitudeDegrees>0.6062454544007778167724609375</LongitudeDegrees>
            </Position>
            <AltitudeMeters>608.4000244140625</AltitudeMeters>
            <DistanceMeters>74306.602926429</DistanceMeters>
          </Trackpoint>
          <Trackpoint>
            <Time>2019-05-08T12:19:54.000Z</Time>
            <Position>
              <LatitudeDegrees>42.86628185771405696868896484375</LatitudeDegrees>
              <LongitudeDegrees>0.606197007000446319580078125</LongitudeDegrees>
            </Position>
            <AltitudeMeters>608.4000244140625</AltitudeMeters>
            <DistanceMeters>74311.533338763</DistanceMeters>
          </Trackpoint>
          <Trackpoint>
            <Time>2019-05-08T12:19:55.000Z</Time>
            <Position>
              <LatitudeDegrees>42.86625201813876628875732421875</LatitudeDegrees>
              <LongitudeDegrees>0.60615149326622486114501953125</LongitudeDegrees>
            </Position>
            <AltitudeMeters>608.5999755859375</AltitudeMeters>
            <DistanceMeters>74316.514769288</DistanceMeters>
          </Trackpoint>
          <Trackpoint>
            <Time>2019-05-08T12:19:56.000Z</Time>
            <Position>
              <LatitudeDegrees>42.86621983163058757781982421875</LatitudeDegrees>
              <LongitudeDegrees>0.60611142776906490325927734375</LongitudeDegrees>
            </Position>
            <AltitudeMeters>608.5999755859375</AltitudeMeters>
            <DistanceMeters>74321.363925818</DistanceMeters>
          </Trackpoint>
          <Trackpoint>
            <Time>2019-05-08T12:20:00.000Z</Time>
            <Position>
              <LatitudeDegrees>42.8661050833761692047119140625</LatitudeDegrees>
              <LongitudeDegrees>0.60595996677875518798828125</LongitudeDegrees>
            </Position>
            <AltitudeMeters>608.79998779296875</AltitudeMeters>
            <DistanceMeters>74339.134175486</DistanceMeters>
          </Trackpoint>
          <Trackpoint>
            <Time>2019-05-08T12:20:03.000Z</Time>
            <Position>
              <LatitudeDegrees>42.866018749773502349853515625</LatitudeDegrees>
              <LongitudeDegrees>0.60585997067391872406005859375</LongitudeDegrees>
            </Position>
            <AltitudeMeters>609.20001220703125</AltitudeMeters>
            <DistanceMeters>74351.738744695</DistanceMeters>
          </Trackpoint>
          <Trackpoint>
            <Time>2019-05-08T12:20:07.000Z</Time>
            <Position>
              <LatitudeDegrees>42.8658995591104030609130859375</LatitudeDegrees>
              <LongitudeDegrees>0.605726949870586395263671875</LongitudeDegrees>
            </Position>
            <AltitudeMeters>610.20001220703125</AltitudeMeters>
            <DistanceMeters>74368.877834132</DistanceMeters>
          </Trackpoint>
          <Trackpoint>
            <Time>2019-05-08T12:20:12.000Z</Time>
            <Position>
              <LatitudeDegrees>42.8657171688973903656005859375</LatitudeDegrees>
              <LongitudeDegrees>0.6055792607367038726806640625</LongitudeDegrees>
            </Position>
            <AltitudeMeters>611</AltitudeMeters>
            <DistanceMeters>74392.484275573</DistanceMeters>
          </Trackpoint>
          <Trackpoint>
            <Time>2019-05-08T12:20:14.000Z</Time>
            <Position>
              <LatitudeDegrees>42.865635864436626434326171875</LatitudeDegrees>
              <LongitudeDegrees>0.6055346690118312835693359375</LongitudeDegrees>
            </Position>
            <AltitudeMeters>611.4000244140625</AltitudeMeters>
            <DistanceMeters>74402.237831609</DistanceMeters>
          </Trackpoint>
          <Trackpoint>
            <Time>2019-05-08T12:20:18.000Z</Time>
            <Position>
              <LatitudeDegrees>42.86547116003930568695068359375</LatitudeDegrees>
              <LongitudeDegrees>0.6054696254432201385498046875</LongitudeDegrees>
            </Position>
            <AltitudeMeters>612</AltitudeMeters>
            <DistanceMeters>74421.322120257</DistanceMeters>
          </Trackpoint>
          <Trackpoint>
            <Time>2019-05-08T12:20:22.000Z</Time>
            <Position>
              <LatitudeDegrees>42.865293212234973907470703125</LatitudeDegrees>
              <LongitudeDegrees>0.6054268777370452880859375</LongitudeDegrees>
            </Position>
            <AltitudeMeters>612.20001220703125</AltitudeMeters>
            <DistanceMeters>74441.432790653</DistanceMeters>
          </Trackpoint>
          <Trackpoint>
            <Time>2019-05-08T12:20:31.000Z</Time>
            <Position>
              <LatitudeDegrees>42.86486196331679821014404296875</LatitudeDegrees>
              <LongitudeDegrees>0.60536175034940242767333984375</LongitudeDegrees>
            </Position>
            <AltitudeMeters>613.20001220703125</AltitudeMeters>
            <DistanceMeters>74489.724783493</DistanceMeters>
          </Trackpoint>
          <Trackpoint>
            <Time>2019-05-08T12:20:35.000Z</Time>
            <Position>
              <LatitudeDegrees>42.8646707721054553985595703125</LatitudeDegrees>
              <LongitudeDegrees>0.60532755218446254730224609375</LongitudeDegrees>
            </Position>
            <AltitudeMeters>613.4000244140625</AltitudeMeters>
            <DistanceMeters>74511.186940874</DistanceMeters>
          </Trackpoint>
          <Trackpoint>
            <Time>2019-05-08T12:20:36.000Z</Time>
            <Position>
              <LatitudeDegrees>42.8646275214850902557373046875</LatitudeDegrees>
              <LongitudeDegrees>0.60531623661518096923828125</LongitudeDegrees>
            </Position>
            <AltitudeMeters>613.4000244140625</AltitudeMeters>
            <DistanceMeters>74516.089803659</DistanceMeters>
          </Trackpoint>
          <Trackpoint>
            <Time>2019-05-08T12:20:37.000Z</Time>
            <Position>
              <LatitudeDegrees>42.8645899705588817596435546875</LatitudeDegrees>
              <LongitudeDegrees>0.6052892468869686126708984375</LongitudeDegrees>
            </Position>
            <AltitudeMeters>613.4000244140625</AltitudeMeters>
            <DistanceMeters>74520.812545322</DistanceMeters>
          </Trackpoint>
          <Trackpoint>
            <Time>2019-05-08T12:20:38.000Z</Time>
            <Position>
              <LatitudeDegrees>42.86456641741096973419189453125</LatitudeDegrees>
              <LongitudeDegrees>0.6052396260201930999755859375</LongitudeDegrees>
            </Position>
            <AltitudeMeters>613.4000244140625</AltitudeMeters>
            <DistanceMeters>74525.635560657</DistanceMeters>
          </Trackpoint>
          <Trackpoint>
            <Time>2019-05-08T12:20:40.000Z</Time>
            <Position>
              <LatitudeDegrees>42.8645665012300014495849609375</LatitudeDegrees>
              <LongitudeDegrees>0.6051149033010005950927734375</LongitudeDegrees>
            </Position>
            <AltitudeMeters>613.4000244140625</AltitudeMeters>
            <DistanceMeters>74535.810521415</DistanceMeters>
          </Trackpoint>
          <Trackpoint>
            <Time>2019-05-08T12:20:42.000Z</Time>
            <Position>
              <LatitudeDegrees>42.864571027457714080810546875</LatitudeDegrees>
              <LongitudeDegrees>0.6049636937677860260009765625</LongitudeDegrees>
            </Position>
            <AltitudeMeters>613.4000244140625</AltitudeMeters>
            <DistanceMeters>74548.156682372</DistanceMeters>
          </Trackpoint>
          <Trackpoint>
            <Time>2019-05-08T12:20:43.000Z</Time>
            <Position>
              <LatitudeDegrees>42.8645728714764118194580078125</LatitudeDegrees>
              <LongitudeDegrees>0.6048818863928318023681640625</LongitudeDegrees>
            </Position>
            <AltitudeMeters>613.20001220703125</AltitudeMeters>
            <DistanceMeters>74554.834295529</DistanceMeters>
          </Trackpoint>
          <Trackpoint>
            <Time>2019-05-08T12:20:44.000Z</Time>
            <Position>
              <LatitudeDegrees>42.86457597278058528900146484375</LatitudeDegrees>
              <LongitudeDegrees>0.60479714535176753997802734375</LongitudeDegrees>
            </Position>
            <AltitudeMeters>613.20001220703125</AltitudeMeters>
            <DistanceMeters>74561.756259529</DistanceMeters>
          </Trackpoint>
          <Trackpoint>
            <Time>2019-05-08T12:20:45.000Z</Time>
            <Position>
              <LatitudeDegrees>42.8645852766931056976318359375</LatitudeDegrees>
              <LongitudeDegrees>0.60470997355878353118896484375</LongitudeDegrees>
            </Position>
            <AltitudeMeters>612.79998779296875</AltitudeMeters>
            <DistanceMeters>74568.943194708</DistanceMeters>
          </Trackpoint>
          <Trackpoint>
            <Time>2019-05-08T12:20:47.000Z</Time>
            <Position>
              <LatitudeDegrees>42.86462525837123394012451171875</LatitudeDegrees>
              <LongitudeDegrees>0.604532696306705474853515625</LongitudeDegrees>
            </Position>
            <AltitudeMeters>612.20001220703125</AltitudeMeters>
            <DistanceMeters>74584.074837656</DistanceMeters>
          </Trackpoint>
          <Trackpoint>
            <Time>2019-05-08T12:20:48.000Z</Time>
            <Position>
              <LatitudeDegrees>42.8646573610603809356689453125</LatitudeDegrees>
              <LongitudeDegrees>0.60444829054176807403564453125</LongitudeDegrees>
            </Position>
            <AltitudeMeters>612</AltitudeMeters>
            <DistanceMeters>74591.832766471</DistanceMeters>
          </Trackpoint>
          <Trackpoint>
            <Time>2019-05-08T12:20:50.000Z</Time>
            <Position>
              <LatitudeDegrees>42.8647190518677234649658203125</LatitudeDegrees>
              <LongitudeDegrees>0.6042736954987049102783203125</LongitudeDegrees>
            </Position>
            <AltitudeMeters>611.79998779296875</AltitudeMeters>
            <DistanceMeters>74607.644937624</DistanceMeters>
          </Trackpoint>
          <Trackpoint>
            <Time>2019-05-08T12:20:52.000Z</Time>
            <Position>
              <LatitudeDegrees>42.8647217340767383575439453125</LatitudeDegrees>
              <LongitudeDegrees>0.60407328419387340545654296875</LongitudeDegrees>
            </Position>
            <AltitudeMeters>610.5999755859375</AltitudeMeters>
            <DistanceMeters>74623.997541506</DistanceMeters>
          </Trackpoint>
          <Trackpoint>
            <Time>2019-05-08T12:20:55.000Z</Time>
            <Position>
              <LatitudeDegrees>42.86461092531681060791015625</LatitudeDegrees>
              <LongitudeDegrees>0.60381310991942882537841796875</LongitudeDegrees>
            </Position>
            <AltitudeMeters>609</AltitudeMeters>
            <DistanceMeters>74648.545721101</DistanceMeters>
          </Trackpoint>
          <Trackpoint>
            <Time>2019-05-08T12:20:58.000Z</Time>
            <Position>
              <LatitudeDegrees>42.864495255053043365478515625</LatitudeDegrees>
              <LongitudeDegrees>0.60357959009706974029541015625</LongitudeDegrees>
            </Position>
            <AltitudeMeters>608</AltitudeMeters>
            <DistanceMeters>74671.538651656</DistanceMeters>
          </Trackpoint>
          <Trackpoint>
            <Time>2019-05-08T12:20:59.000Z</Time>
            <Position>
              <LatitudeDegrees>42.86445996724069118499755859375</LatitudeDegrees>
              <LongitudeDegrees>0.60351110994815826416015625</LongitudeDegrees>
            </Position>
            <AltitudeMeters>607</AltitudeMeters>
            <DistanceMeters>74678.367364181</DistanceMeters>
          </Trackpoint>
          <Trackpoint>
            <Time>2019-05-08T12:21:00.000Z</Time>
            <Position>
              <LatitudeDegrees>42.86442375741899013519287109375</LatitudeDegrees>
              <LongitudeDegrees>0.603451766073703765869140625</LongitudeDegrees>
            </Position>
            <AltitudeMeters>606.79998779296875</AltitudeMeters>
            <DistanceMeters>74684.666424103</DistanceMeters>
          </Trackpoint>
          <Trackpoint>
            <Time>2019-05-08T12:21:02.000Z</Time>
            <Position>
              <LatitudeDegrees>42.86435200832784175872802734375</LatitudeDegrees>
              <LongitudeDegrees>0.6033583916723728179931640625</LongitudeDegrees>
            </Position>
            <AltitudeMeters>606.4000244140625</AltitudeMeters>
            <DistanceMeters>74695.703031424</DistanceMeters>
          </Trackpoint>
          <Trackpoint>
            <Time>2019-05-08T12:21:04.000Z</Time>
            <Position>
              <LatitudeDegrees>42.8642838634550571441650390625</LatitudeDegrees>
              <LongitudeDegrees>0.603307597339153289794921875</LongitudeDegrees>
            </Position>
            <AltitudeMeters>606.4000244140625</AltitudeMeters>
            <DistanceMeters>74704.34576203</DistanceMeters>
          </Trackpoint>
          <Trackpoint>
            <Time>2019-05-08T12:21:05.000Z</Time>
            <Position>
              <LatitudeDegrees>42.8642493300139904022216796875</LatitudeDegrees>
              <LongitudeDegrees>0.603292845189571380615234375</LongitudeDegrees>
            </Position>
            <AltitudeMeters>606.20001220703125</AltitudeMeters>
            <DistanceMeters>74708.372921984</DistanceMeters>
          </Trackpoint>
          <Trackpoint>
            <Time>2019-05-08T12:21:08.000Z</Time>
            <Position>
              <LatitudeDegrees>42.86414329893887042999267578125</LatitudeDegrees>
              <LongitudeDegrees>0.60326426289975643157958984375</LongitudeDegrees>
            </Position>
            <AltitudeMeters>606.20001220703125</AltitudeMeters>
            <DistanceMeters>74720.402718537</DistanceMeters>
          </Trackpoint>
          <Trackpoint>
            <Time>2019-05-08T12:21:09.000Z</Time>
            <Position>
              <LatitudeDegrees>42.86410725675523281097412109375</LatitudeDegrees>
              <LongitudeDegrees>0.60325655154883861541748046875</LongitudeDegrees>
            </Position>
            <AltitudeMeters>606.20001220703125</AltitudeMeters>
            <DistanceMeters>74724.464485352</DistanceMeters>
          </Trackpoint>
          <Trackpoint>
            <Time>2019-05-08T12:21:11.000Z</Time>
            <Position>
              <LatitudeDegrees>42.8640327416360378265380859375</LatitudeDegrees>
              <LongitudeDegrees>0.6032462418079376220703125</LongitudeDegrees>
            </Position>
            <AltitudeMeters>607</AltitudeMeters>
            <DistanceMeters>74732.800879555</DistanceMeters>
          </Trackpoint>
          <Trackpoint>
            <Time>2019-05-08T12:21:14.000Z</Time>
            <Position>
              <LatitudeDegrees>42.86391816101968288421630859375</LatitudeDegrees>
              <LongitudeDegrees>0.6032309867441654205322265625</LongitudeDegrees>
            </Position>
            <AltitudeMeters>608.5999755859375</AltitudeMeters>
            <DistanceMeters>74745.614343174</DistanceMeters>
          </Trackpoint>
          <Trackpoint>
            <Time>2019-05-08T12:21:16.000Z</Time>
            <Position>
              <LatitudeDegrees>42.86384272389113903045654296875</LatitudeDegrees>
              <LongitudeDegrees>0.60322277247905731201171875</LongitudeDegrees>
            </Position>
            <AltitudeMeters>609</AltitudeMeters>
            <DistanceMeters>74754.038020559</DistanceMeters>
          </Trackpoint>
          <Trackpoint>
            <Time>2019-05-08T12:21:17.000Z</Time>
            <Position>
              <LatitudeDegrees>42.86380852572619915008544921875</LatitudeDegrees>
              <LongitudeDegrees>0.60322637669742107391357421875</LongitudeDegrees>
            </Position>
            <AltitudeMeters>609.20001220703125</AltitudeMeters>
            <DistanceMeters>74757.85568259</DistanceMeters>
          </Trackpoint>
          <Trackpoint>
            <Time>2019-05-08T12:21:19.000Z</Time>
            <Position>
              <LatitudeDegrees>42.8637492656707763671875</LatitudeDegrees>
              <LongitudeDegrees>0.60324196703732013702392578125</LongitudeDegrees>
            </Position>
            <AltitudeMeters>610.4000244140625</AltitudeMeters>
            <DistanceMeters>74764.572397704</DistanceMeters>
          </Trackpoint>
          <Trackpoint>
            <Time>2019-05-08T12:21:22.000Z</Time>
            <Position>
              <LatitudeDegrees>42.86367257125675678253173828125</LatitudeDegrees>
              <LongitudeDegrees>0.6032836250960826873779296875</LongitudeDegrees>
            </Position>
            <AltitudeMeters>610.79998779296875</AltitudeMeters>
            <DistanceMeters>74773.760552288</DistanceMeters>
          </Trackpoint>
          <Trackpoint>
            <Time>2019-05-08T12:21:23.000Z</Time>
            <Position>
              <LatitudeDegrees>42.86364692263305187225341796875</LatitudeDegrees>
              <LongitudeDegrees>0.603302903473377227783203125</LongitudeDegrees>
            </Position>
            <AltitudeMeters>610.79998779296875</AltitudeMeters>
            <DistanceMeters>74777.019289758</DistanceMeters>
          </Trackpoint>
          <Trackpoint>
            <Time>2019-05-08T12:21:26.000Z</Time>
            <Position>
              <LatitudeDegrees>42.863573245704174041748046875</LatitudeDegrees>
              <LongitudeDegrees>0.60335529036819934844970703125</LongitudeDegrees>
            </Position>
            <AltitudeMeters>611.5999755859375</AltitudeMeters>
            <DistanceMeters>74786.266712314</DistanceMeters>
          </Trackpoint>
          <Trackpoint>
            <Time>2019-05-08T12:21:29.000Z</Time>
            <Position>
              <LatitudeDegrees>42.86350828595459461212158203125</LatitudeDegrees>
              <LongitudeDegrees>0.60339736752212047576904296875</LongitudeDegrees>
            </Position>
            <AltitudeMeters>612.20001220703125</AltitudeMeters>
            <DistanceMeters>74794.269857459</DistanceMeters>
          </Trackpoint>
          <Trackpoint>
            <Time>2019-05-08T12:21:30.000Z</Time>
            <Position>
              <LatitudeDegrees>42.86348842084407806396484375</LatitudeDegrees>
              <LongitudeDegrees>0.60341186821460723876953125</LongitudeDegrees>
            </Position>
            <AltitudeMeters>612.4000244140625</AltitudeMeters>
            <DistanceMeters>74796.775032728</DistanceMeters>
          </Trackpoint>
          <Trackpoint>
            <Time>2019-05-08T12:21:31.000Z</Time>
            <Position>
              <LatitudeDegrees>42.8634661249816417694091796875</LatitudeDegrees>
              <LongitudeDegrees>0.6034271232783794403076171875</LongitudeDegrees>
            </Position>
            <AltitudeMeters>612.4000244140625</AltitudeMeters>
            <DistanceMeters>74799.548771204</DistanceMeters>
          </Trackpoint>
          <Trackpoint>
            <Time>2019-05-08T12:21:35.000Z</Time>
            <Position>
              <LatitudeDegrees>42.8633756004273891448974609375</LatitudeDegrees>
              <LongitudeDegrees>0.6034764088690280914306640625</LongitudeDegrees>
            </Position>
            <AltitudeMeters>613.4000244140625</AltitudeMeters>
            <DistanceMeters>74810.396810484</DistanceMeters>
          </Trackpoint>
          <Trackpoint>
            <Time>2019-05-08T12:21:36.000Z</Time>
            <Position>
              <LatitudeDegrees>42.86335690878331661224365234375</LatitudeDegrees>
              <LongitudeDegrees>0.60348831117153167724609375</LongitudeDegrees>
            </Position>
            <AltitudeMeters>613.5999755859375</AltitudeMeters>
            <DistanceMeters>74812.691267841</DistanceMeters>
          </Trackpoint>
          <Trackpoint>
            <Time>2019-05-08T12:21:40.000Z</Time>
            <Position>
              <LatitudeDegrees>42.86327342502772808074951171875</LatitudeDegrees>
              <LongitudeDegrees>0.603520162403583526611328125</LongitudeDegrees>
            </Position>
            <AltitudeMeters>615.5999755859375</AltitudeMeters>
            <DistanceMeters>74822.340106535</DistanceMeters>
          </Trackpoint>
          <Trackpoint>
            <Time>2019-05-08T12:21:41.000Z</Time>
            <Position>
              <LatitudeDegrees>42.8632542304694652557373046875</LatitudeDegrees>
              <LongitudeDegrees>0.60351689346134662628173828125</LongitudeDegrees>
            </Position>
            <AltitudeMeters>616</AltitudeMeters>
            <DistanceMeters>74824.494511161</DistanceMeters>
          </Trackpoint>
          <Trackpoint>
            <Time>2019-05-08T12:21:42.000Z</Time>
            <Position>
              <LatitudeDegrees>42.8632357902824878692626953125</LatitudeDegrees>
              <LongitudeDegrees>0.60351186431944370269775390625</LongitudeDegrees>
            </Position>
            <AltitudeMeters>616.4000244140625</AltitudeMeters>
            <DistanceMeters>74826.58941382</DistanceMeters>
          </Trackpoint>
          <Trackpoint>
            <Time>2019-05-08T12:21:46.000Z</Time>
            <Position>
              <LatitudeDegrees>42.8631580062210559844970703125</LatitudeDegrees>
              <LongitudeDegrees>0.6035106070339679718017578125</LongitudeDegrees>
            </Position>
            <AltitudeMeters>617.20001220703125</AltitudeMeters>
            <DistanceMeters>74835.247281027</DistanceMeters>
          </Trackpoint>
          <Trackpoint>
            <Time>2019-05-08T12:21:49.000Z</Time>
            <Position>
              <LatitudeDegrees>42.863091118633747100830078125</LatitudeDegrees>
              <LongitudeDegrees>0.60351069085299968719482421875</LongitudeDegrees>
            </Position>
            <AltitudeMeters>617.79998779296875</AltitudeMeters>
            <DistanceMeters>74842.692185943</DistanceMeters>
          </Trackpoint>
          <Trackpoint>
            <Time>2019-05-08T12:21:50.000Z</Time>
            <Position>
              <LatitudeDegrees>42.86307158879935741424560546875</LatitudeDegrees>
              <LongitudeDegrees>0.6035085953772068023681640625</LongitudeDegrees>
            </Position>
            <AltitudeMeters>618</AltitudeMeters>
            <DistanceMeters>74844.871594168</DistanceMeters>
          </Trackpoint>
          <Trackpoint>
            <Time>2019-05-08T12:21:54.000Z</Time>
            <Position>
              <LatitudeDegrees>42.86299732513725757598876953125</LatitudeDegrees>
              <LongitudeDegrees>0.6035122834146022796630859375</LongitudeDegrees>
            </Position>
            <AltitudeMeters>619</AltitudeMeters>
            <DistanceMeters>74853.142740348</DistanceMeters>
          </Trackpoint>
          <Trackpoint>
            <Time>2019-05-08T12:21:56.000Z</Time>
            <Position>
              <LatitudeDegrees>42.86296413280069828033447265625</LatitudeDegrees>
              <LongitudeDegrees>0.60350096784532070159912109375</LongitudeDegrees>
            </Position>
            <AltitudeMeters>619.4000244140625</AltitudeMeters>
            <DistanceMeters>74856.950929257</DistanceMeters>
          </Trackpoint>
          <Trackpoint>
            <Time>2019-05-08T12:21:59.000Z</Time>
            <Position>
              <LatitudeDegrees>42.86290830932557582855224609375</LatitudeDegrees>
              <LongitudeDegrees>0.6034888140857219696044921875</LongitudeDegrees>
            </Position>
            <AltitudeMeters>620.5999755859375</AltitudeMeters>
            <DistanceMeters>74863.242817299</DistanceMeters>
          </Trackpoint>
          <Trackpoint>
            <Time>2019-05-08T12:22:04.000Z</Time>
            <Position>
              <LatitudeDegrees>42.8628051280975341796875</LatitudeDegrees>
              <LongitudeDegrees>0.6034891493618488311767578125</LongitudeDegrees>
            </Position>
            <AltitudeMeters>621.79998779296875</AltitudeMeters>
            <DistanceMeters>74874.727297981</DistanceMeters>
          </Trackpoint>
          <Trackpoint>
            <Time>2019-05-08T12:22:05.000Z</Time>
            <Position>
              <LatitudeDegrees>42.8627845086157321929931640625</LatitudeDegrees>
              <LongitudeDegrees>0.6034894846379756927490234375</LongitudeDegrees>
            </Position>
            <AltitudeMeters>622</AltitudeMeters>
            <DistanceMeters>74877.021755339</DistanceMeters>
          </Trackpoint>
          <Trackpoint>
            <Time>2019-05-08T12:22:08.000Z</Time>
            <Position>
              <LatitudeDegrees>42.86272357217967510223388671875</LatitudeDegrees>
              <LongitudeDegrees>0.603496022522449493408203125</LongitudeDegrees>
            </Position>
            <AltitudeMeters>622.5999755859375</AltitudeMeters>
            <DistanceMeters>74883.825296465</DistanceMeters>
          </Trackpoint>
          <Trackpoint>
            <Time>2019-05-08T12:22:13.000Z</Time>
            <Position>
              <LatitudeDegrees>42.8626282699406147003173828125</LatitudeDegrees>
              <LongitudeDegrees>0.6034747324883937835693359375</LongitudeDegrees>
            </Position>
            <AltitudeMeters>624</AltitudeMeters>
            <DistanceMeters>74894.573821853</DistanceMeters>
          </Trackpoint>
          <Trackpoint>
            <Time>2019-05-08T12:22:16.000Z</Time>
            <Position>
              <LatitudeDegrees>42.8625779785215854644775390625</LatitudeDegrees>
              <LongitudeDegrees>0.6034271232783794403076171875</LongitudeDegrees>
            </Position>
            <AltitudeMeters>625</AltitudeMeters>
            <DistanceMeters>74901.386647473</DistanceMeters>
          </Trackpoint>
          <Trackpoint>
            <Time>2019-05-08T12:22:20.000Z</Time>
            <Position>
              <LatitudeDegrees>42.86252089776098728179931640625</LatitudeDegrees>
              <LongitudeDegrees>0.603361241519451141357421875</LongitudeDegrees>
            </Position>
            <AltitudeMeters>626.4000244140625</AltitudeMeters>
            <DistanceMeters>74909.707862899</DistanceMeters>
          </Trackpoint>
          <Trackpoint>
            <Time>2019-05-08T12:22:21.000Z</Time>
            <Position>
              <LatitudeDegrees>42.86252022720873355865478515625</LatitudeDegrees>
              <LongitudeDegrees>0.60333735309541225433349609375</LongitudeDegrees>
            </Position>
            <AltitudeMeters>626.5999755859375</AltitudeMeters>
            <DistanceMeters>74911.659962349</DistanceMeters>
          </Trackpoint>
          <Trackpoint>
            <Time>2019-05-08T12:22:25.000Z</Time>
            <Position>
              <LatitudeDegrees>42.86250933073461055755615234375</LatitudeDegrees>
              <LongitudeDegrees>0.60323677025735378265380859375</LongitudeDegrees>
            </Position>
            <AltitudeMeters>626.79998779296875</AltitudeMeters>
            <DistanceMeters>74919.955092396</DistanceMeters>
          </Trackpoint>
          <Trackpoint>
            <Time>2019-05-08T12:22:28.000Z</Time>
            <Position>
              <LatitudeDegrees>42.862504385411739349365234375</LatitudeDegrees>
              <LongitudeDegrees>0.60315932147204875946044921875</LongitudeDegrees>
            </Position>
            <AltitudeMeters>627.4000244140625</AltitudeMeters>
            <DistanceMeters>74926.297013279</DistanceMeters>
          </Trackpoint>
          <Trackpoint>
            <Time>2019-05-08T12:22:36.000Z</Time>
            <Position>
              <LatitudeDegrees>42.86246339790523052215576171875</LatitudeDegrees>
              <LongitudeDegrees>0.60294541530311107635498046875</LongitudeDegrees>
            </Position>
            <AltitudeMeters>629.20001220703125</AltitudeMeters>
            <DistanceMeters>74944.334575594</DistanceMeters>
          </Trackpoint>
          <Trackpoint>
            <Time>2019-05-08T12:22:43.000Z</Time>
            <Position>
              <LatitudeDegrees>42.86237957887351512908935546875</LatitudeDegrees>
              <LongitudeDegrees>0.60277886688709259033203125</LongitudeDegrees>
            </Position>
            <AltitudeMeters>630.20001220703125</AltitudeMeters>
            <DistanceMeters>74960.816438039</DistanceMeters>
          </Trackpoint>
          <Trackpoint>
            <Time>2019-05-08T12:22:44.000Z</Time>
            <Position>
              <LatitudeDegrees>42.86236247979104518890380859375</LatitudeDegrees>
              <LongitudeDegrees>0.60276386328041553497314453125</LongitudeDegrees>
            </Position>
            <AltitudeMeters>630.4000244140625</AltitudeMeters>
            <DistanceMeters>74963.077195272</DistanceMeters>
          </Trackpoint>
          <Trackpoint>
            <Time>2019-05-08T12:22:46.000Z</Time>
            <Position>
              <LatitudeDegrees>42.862335741519927978515625</LatitudeDegrees>
              <LongitudeDegrees>0.60272782109677791595458984375</LongitudeDegrees>
            </Position>
            <AltitudeMeters>630.5999755859375</AltitudeMeters>
            <DistanceMeters>74967.259450414</DistanceMeters>
          </Trackpoint>
          <Trackpoint>
            <Time>2019-05-08T12:22:49.000Z</Time>
            <Position>
              <LatitudeDegrees>42.8623022139072418212890625</LatitudeDegrees>
              <LongitudeDegrees>0.60266428627073764801025390625</LongitudeDegrees>
            </Position>
            <AltitudeMeters>630.79998779296875</AltitudeMeters>
            <DistanceMeters>74973.645358746</DistanceMeters>
          </Trackpoint>
          <Trackpoint>
            <Time>2019-05-08T12:22:52.000Z</Time>
            <Position>
              <LatitudeDegrees>42.86225795745849609375</LatitudeDegrees>
              <LongitudeDegrees>0.60262120328843593597412109375</LongitudeDegrees>
            </Position>
            <AltitudeMeters>631.20001220703125</AltitudeMeters>
            <DistanceMeters>74979.696553667</DistanceMeters>
          </Trackpoint>
          <Trackpoint>
            <Time>2019-05-08T12:22:54.000Z</Time>
            <Position>
              <LatitudeDegrees>42.86223725415766239166259765625</LatitudeDegrees>
              <LongitudeDegrees>0.60258298180997371673583984375</LongitudeDegrees>
            </Position>
            <AltitudeMeters>631.5999755859375</AltitudeMeters>
            <DistanceMeters>74983.572898235</DistanceMeters>
          </Trackpoint>
          <Trackpoint>
            <Time>2019-05-08T12:22:55.000Z</Time>
            <Position>
              <LatitudeDegrees>42.86222912371158599853515625</LatitudeDegrees>
              <LongitudeDegrees>0.602561943233013153076171875</LongitudeDegrees>
            </Position>
            <AltitudeMeters>632</AltitudeMeters>
            <DistanceMeters>74985.513398654</DistanceMeters>
          </Trackpoint>
          <Trackpoint>
            <Time>2019-05-08T12:23:02.000Z</Time>
            <Position>
              <LatitudeDegrees>42.86214463412761688232421875</LatitudeDegrees>
              <LongitudeDegrees>0.6024206243455410003662109375</LongitudeDegrees>
            </Position>
            <AltitudeMeters>634</AltitudeMeters>
            <DistanceMeters>75000.391681281</DistanceMeters>
          </Trackpoint>
          <Trackpoint>
            <Time>2019-05-08T12:23:04.000Z</Time>
            <Position>
              <LatitudeDegrees>42.862114794552326202392578125</LatitudeDegrees>
              <LongitudeDegrees>0.6023914553225040435791015625</LongitudeDegrees>
            </Position>
            <AltitudeMeters>634.4000244140625</AltitudeMeters>
            <DistanceMeters>75004.477829999</DistanceMeters>
          </Trackpoint>
          <Trackpoint>
            <Time>2019-05-08T12:23:10.000Z</Time>
            <Position>
              <LatitudeDegrees>42.8620170615613460540771484375</LatitudeDegrees>
              <LongitudeDegrees>0.6023012660443782806396484375</LongitudeDegrees>
            </Position>
            <AltitudeMeters>635</AltitudeMeters>
            <DistanceMeters>75017.610783212</DistanceMeters>
          </Trackpoint>
          <Trackpoint>
            <Time>2019-05-08T12:23:12.000Z</Time>
            <Position>
              <LatitudeDegrees>42.86198227666318416595458984375</LatitudeDegrees>
              <LongitudeDegrees>0.60227754525840282440185546875</LongitudeDegrees>
            </Position>
            <AltitudeMeters>635.5999755859375</AltitudeMeters>
            <DistanceMeters>75021.940498987</DistanceMeters>
          </Trackpoint>
          <Trackpoint>
            <Time>2019-05-08T12:23:17.000Z</Time>
            <Position>
              <LatitudeDegrees>42.86189879290759563446044921875</LatitudeDegrees>
              <LongitudeDegrees>0.60219280421733856201171875</LongitudeDegrees>
            </Position>
            <AltitudeMeters>636.4000244140625</AltitudeMeters>
            <DistanceMeters>75033.522068635</DistanceMeters>
          </Trackpoint>
          <Trackpoint>
            <Time>2019-05-08T12:23:19.000Z</Time>
            <Position>
              <LatitudeDegrees>42.861861996352672576904296875</LatitudeDegrees>
              <LongitudeDegrees>0.602168329060077667236328125</LongitudeDegrees>
            </Position>
            <AltitudeMeters>636.5999755859375</AltitudeMeters>
            <DistanceMeters>75038.078398928</DistanceMeters>
          </Trackpoint>
          <Trackpoint>
            <Time>2019-05-08T12:23:20.000Z</Time>
            <Position>
              <LatitudeDegrees>42.8618443943560123443603515625</LatitudeDegrees>
              <LongitudeDegrees>0.6021594442427158355712890625</LongitudeDegrees>
            </Position>
            <AltitudeMeters>637.20001220703125</AltitudeMeters>
            <DistanceMeters>75040.164662777</DistanceMeters>
          </Trackpoint>
          <Trackpoint>
            <Time>2019-05-08T12:23:25.000Z</Time>
            <Position>
              <LatitudeDegrees>42.86175445653498172760009765625</LatitudeDegrees>
              <LongitudeDegrees>0.6021064706146717071533203125</LongitudeDegrees>
            </Position>
            <AltitudeMeters>638.4000244140625</AltitudeMeters>
            <DistanceMeters>75051.068331263</DistanceMeters>
          </Trackpoint>
          <Trackpoint>
            <Time>2019-05-08T12:23:26.000Z</Time>
            <Position>
              <LatitudeDegrees>42.86173970438539981842041015625</LatitudeDegrees>
              <LongitudeDegrees>0.6020860187709331512451171875</LongitudeDegrees>
            </Position>
            <AltitudeMeters>638.5999755859375</AltitudeMeters>
            <DistanceMeters>75053.407610282</DistanceMeters>
          </Trackpoint>
          <Trackpoint>
            <Time>2019-05-08T12:23:32.000Z</Time>
            <Position>
              <LatitudeDegrees>42.8616412170231342315673828125</LatitudeDegrees>
              <LongitudeDegrees>0.60201083309948444366455078125</LongitudeDegrees>
            </Position>
            <AltitudeMeters>640.20001220703125</AltitudeMeters>
            <DistanceMeters>75065.969121169</DistanceMeters>
          </Trackpoint>
          <Trackpoint>
            <Time>2019-05-08T12:23:35.000Z</Time>
            <Position>
              <LatitudeDegrees>42.8615929372608661651611328125</LatitudeDegrees>
              <LongitudeDegrees>0.601980574429035186767578125</LongitudeDegrees>
            </Position>
            <AltitudeMeters>640.5999755859375</AltitudeMeters>
            <DistanceMeters>75071.883723112</DistanceMeters>
          </Trackpoint>
          <Trackpoint>
            <Time>2019-05-08T12:23:39.000Z</Time>
            <Position>
              <LatitudeDegrees>42.861528061330318450927734375</LatitudeDegrees>
              <LongitudeDegrees>0.60193933546543121337890625</LongitudeDegrees>
            </Position>
            <AltitudeMeters>641.20001220703125</AltitudeMeters>
            <DistanceMeters>75079.85011359</DistanceMeters>
          </Trackpoint>
          <Trackpoint>
            <Time>2019-05-08T12:23:40.000Z</Time>
            <Position>
              <LatitudeDegrees>42.86150953732430934906005859375</LatitudeDegrees>
              <LongitudeDegrees>0.601936988532543182373046875</LongitudeDegrees>
            </Position>
            <AltitudeMeters>641.20001220703125</AltitudeMeters>
            <DistanceMeters>75081.918991604</DistanceMeters>
          </Trackpoint>
          <Trackpoint>
            <Time>2019-05-08T12:23:44.000Z</Time>
            <Position>
              <LatitudeDegrees>42.8614373691380023956298828125</LatitudeDegrees>
              <LongitudeDegrees>0.60193606652319431304931640625</LongitudeDegrees>
            </Position>
            <AltitudeMeters>641.79998779296875</AltitudeMeters>
            <DistanceMeters>75089.951981475</DistanceMeters>
          </Trackpoint>
          <Trackpoint>
            <Time>2019-05-08T12:23:48.000Z</Time>
            <Position>
              <LatitudeDegrees>42.86137140356004238128662109375</LatitudeDegrees>
              <LongitudeDegrees>0.601919554173946380615234375</LongitudeDegrees>
            </Position>
            <AltitudeMeters>642.4000244140625</AltitudeMeters>
            <DistanceMeters>75097.417477561</DistanceMeters>
          </Trackpoint>
          <Trackpoint>
            <Time>2019-05-08T12:23:53.000Z</Time>
            <Position>
              <LatitudeDegrees>42.86128071136772632598876953125</LatitudeDegrees>
              <LongitudeDegrees>0.601922571659088134765625</LongitudeDegrees>
            </Position>
            <AltitudeMeters>643.79998779296875</AltitudeMeters>
            <DistanceMeters>75107.514038014</DistanceMeters>
          </Trackpoint>
          <Trackpoint>
            <Time>2019-05-08T12:23:54.000Z</Time>
            <Position>
              <LatitudeDegrees>42.86126344464719295501708984375</LatitudeDegrees>
              <LongitudeDegrees>0.60192533768713474273681640625</LongitudeDegrees>
            </Position>
            <AltitudeMeters>644.20001220703125</AltitudeMeters>
            <DistanceMeters>75109.447545616</DistanceMeters>
          </Trackpoint>
          <Trackpoint>
            <Time>2019-05-08T12:24:00.000Z</Time>
            <Position>
              <LatitudeDegrees>42.861166633665561676025390625</LatitudeDegrees>
              <LongitudeDegrees>0.60195249505341053009033203125</LongitudeDegrees>
            </Position>
            <AltitudeMeters>645.5999755859375</AltitudeMeters>
            <DistanceMeters>75120.448093531</DistanceMeters>
          </Trackpoint>
          <Trackpoint>
            <Time>2019-05-08T12:24:07.000Z</Time>
            <Position>
              <LatitudeDegrees>42.8610447607934474945068359375</LatitudeDegrees>
              <LongitudeDegrees>0.6020043790340423583984375</LongitudeDegrees>
            </Position>
            <AltitudeMeters>647.4000244140625</AltitudeMeters>
            <DistanceMeters>75134.657685688</DistanceMeters>
          </Trackpoint>
          <Trackpoint>
            <Time>2019-05-08T12:24:13.000Z</Time>
            <Position>
              <LatitudeDegrees>42.86096739582717418670654296875</LatitudeDegrees>
              <LongitudeDegrees>0.60211895965039730072021484375</LongitudeDegrees>
            </Position>
            <AltitudeMeters>648</AltitudeMeters>
            <DistanceMeters>75147.366776032</DistanceMeters>
          </Trackpoint>
          <Trackpoint>
            <Time>2019-05-08T12:24:18.000Z</Time>
            <Position>
              <LatitudeDegrees>42.86089011467993259429931640625</LatitudeDegrees>
              <LongitudeDegrees>0.6021949835121631622314453125</LongitudeDegrees>
            </Position>
            <AltitudeMeters>648.5999755859375</AltitudeMeters>
            <DistanceMeters>75157.970667387</DistanceMeters>
          </Trackpoint>
          <Trackpoint>
            <Time>2019-05-08T12:24:20.000Z</Time>
            <Position>
              <LatitudeDegrees>42.8608630411326885223388671875</LatitudeDegrees>
              <LongitudeDegrees>0.60223211534321308135986328125</LongitudeDegrees>
            </Position>
            <AltitudeMeters>649</AltitudeMeters>
            <DistanceMeters>75162.244757307</DistanceMeters>
          </Trackpoint>
          <Trackpoint>
            <Time>2019-05-08T12:24:26.000Z</Time>
            <Position>
              <LatitudeDegrees>42.86078299395740032196044921875</LatitudeDegrees>
              <LongitudeDegrees>0.60233303345739841461181640625</LongitudeDegrees>
            </Position>
            <AltitudeMeters>650.4000244140625</AltitudeMeters>
            <DistanceMeters>75174.376211708</DistanceMeters>
          </Trackpoint>
          <Trackpoint>
            <Time>2019-05-08T12:24:27.000Z</Time>
            <Position>
              <LatitudeDegrees>42.8607701696455478668212890625</LatitudeDegrees>
              <LongitudeDegrees>0.6023468635976314544677734375</LongitudeDegrees>
            </Position>
            <AltitudeMeters>650.5999755859375</AltitudeMeters>
            <DistanceMeters>75176.194179799</DistanceMeters>
          </Trackpoint>
          <Trackpoint>
            <Time>2019-05-08T12:24:34.000Z</Time>
            <Position>
              <LatitudeDegrees>42.8607014380395412445068359375</LatitudeDegrees>
              <LongitudeDegrees>0.602458007633686065673828125</LongitudeDegrees>
            </Position>
            <AltitudeMeters>651.79998779296875</AltitudeMeters>
            <DistanceMeters>75188.057685666</DistanceMeters>
          </Trackpoint>
          <Trackpoint>
            <Time>2019-05-08T12:24:36.000Z</Time>
            <Position>
              <LatitudeDegrees>42.860685847699642181396484375</LatitudeDegrees>
              <LongitudeDegrees>0.602496564388275146484375</LongitudeDegrees>
            </Position>
            <AltitudeMeters>651.79998779296875</AltitudeMeters>
            <DistanceMeters>75191.649896578</DistanceMeters>
          </Trackpoint>
          <Trackpoint>
            <Time>2019-05-08T12:24:41.000Z</Time>
            <Position>
              <LatitudeDegrees>42.8606263361871242523193359375</LatitudeDegrees>
              <LongitudeDegrees>0.6025741808116436004638671875</LongitudeDegrees>
            </Position>
            <AltitudeMeters>652.4000244140625</AltitudeMeters>
            <DistanceMeters>75200.813448338</DistanceMeters>
          </Trackpoint>
          <Trackpoint>
            <Time>2019-05-08T12:24:44.000Z</Time>
            <Position>
              <LatitudeDegrees>42.86057914607226848602294921875</LatitudeDegrees>
              <LongitudeDegrees>0.6025869213044643402099609375</LongitudeDegrees>
            </Position>
            <AltitudeMeters>652.5999755859375</AltitudeMeters>
            <DistanceMeters>75206.167931759</DistanceMeters>
          </Trackpoint>
          <Trackpoint>
            <Time>2019-05-08T12:24:46.000Z</Time>
            <Position>
              <LatitudeDegrees>42.86055869422852993011474609375</LatitudeDegrees>
              <LongitudeDegrees>0.602553896605968475341796875</LongitudeDegrees>
            </Position>
            <AltitudeMeters>653.20001220703125</AltitudeMeters>
            <DistanceMeters>75209.695458561</DistanceMeters>
          </Trackpoint>
          <Trackpoint>
            <Time>2019-05-08T12:24:48.000Z</Time>
            <Position>
              <LatitudeDegrees>42.86054075695574283599853515625</LatitudeDegrees>
              <LongitudeDegrees>0.60250653885304927825927734375</LongitudeDegrees>
            </Position>
            <AltitudeMeters>653.20001220703125</AltitudeMeters>
            <DistanceMeters>75214.043904269</DistanceMeters>
          </Trackpoint>
          <Trackpoint>
            <Time>2019-05-08T12:24:51.000Z</Time>
            <Position>
              <LatitudeDegrees>42.86055249162018299102783203125</LatitudeDegrees>
              <LongitudeDegrees>0.60243579559028148651123046875</LongitudeDegrees>
            </Position>
            <AltitudeMeters>653.5999755859375</AltitudeMeters>
            <DistanceMeters>75219.96155891</DistanceMeters>
          </Trackpoint>
          <Trackpoint>
            <Time>2019-05-08T12:24:57.000Z</Time>
            <Position>
              <LatitudeDegrees>42.860627509653568267822265625</LatitudeDegrees>
              <LongitudeDegrees>0.6023300997912883758544921875</LongitudeDegrees>
            </Position>
            <AltitudeMeters>653.79998779296875</AltitudeMeters>
            <DistanceMeters>75231.965054224</DistanceMeters>
          </Trackpoint>
          <Trackpoint>
            <Time>2019-05-08T12:25:02.000Z</Time>
            <Position>
              <LatitudeDegrees>42.86069230176508426666259765625</LatitudeDegrees>
              <LongitudeDegrees>0.6022318638861179351806640625</LongitudeDegrees>
            </Position>
            <AltitudeMeters>654.20001220703125</AltitudeMeters>
            <DistanceMeters>75242.746294597</DistanceMeters>
          </Trackpoint>
          <Trackpoint>
            <Time>2019-05-08T12:25:05.000Z</Time>
            <Position>
              <LatitudeDegrees>42.860715687274932861328125</LatitudeDegrees>
              <LongitudeDegrees>0.602162294089794158935546875</LongitudeDegrees>
            </Position>
            <AltitudeMeters>654.20001220703125</AltitudeMeters>
            <DistanceMeters>75248.990641647</DistanceMeters>
          </Trackpoint>
          <Trackpoint>
            <Time>2019-05-08T12:25:09.000Z</Time>
            <Position>
              <LatitudeDegrees>42.860732115805149078369140625</LatitudeDegrees>
              <LongitudeDegrees>0.60206078924238681793212890625</LongitudeDegrees>
            </Position>
            <AltitudeMeters>654.5999755859375</AltitudeMeters>
            <DistanceMeters>75257.471476445</DistanceMeters>
          </Trackpoint>
          <Trackpoint>
            <Time>2019-05-08T12:25:13.000Z</Time>
            <Position>
              <LatitudeDegrees>42.8607242368161678314208984375</LatitudeDegrees>
              <LongitudeDegrees>0.6019602902233600616455078125</LongitudeDegrees>
            </Position>
            <AltitudeMeters>656</AltitudeMeters>
            <DistanceMeters>75265.717473997</DistanceMeters>
          </Trackpoint>
          <Trackpoint>
            <Time>2019-05-08T12:25:14.000Z</Time>
            <Position>
              <LatitudeDegrees>42.8607208840548992156982421875</LatitudeDegrees>
              <LongitudeDegrees>0.6019346415996551513671875</LongitudeDegrees>
            </Position>
            <AltitudeMeters>656.4000244140625</AltitudeMeters>
            <DistanceMeters>75267.842335927</DistanceMeters>
          </Trackpoint>
          <Trackpoint>
            <Time>2019-05-08T12:25:20.000Z</Time>
            <Position>
              <LatitudeDegrees>42.860689200460910797119140625</LatitudeDegrees>
              <LongitudeDegrees>0.6017738766968250274658203125</LongitudeDegrees>
            </Position>
            <AltitudeMeters>658.20001220703125</AltitudeMeters>
            <DistanceMeters>75281.424176804</DistanceMeters>
          </Trackpoint>
          <Trackpoint>
            <Time>2019-05-08T12:25:22.000Z</Time>
            <Position>
              <LatitudeDegrees>42.8606699220836162567138671875</LatitudeDegrees>
              <LongitudeDegrees>0.60172199271619319915771484375</LongitudeDegrees>
            </Position>
            <AltitudeMeters>658.5999755859375</AltitudeMeters>
            <DistanceMeters>75286.169807494</DistanceMeters>
          </Trackpoint>
          <Trackpoint>
            <Time>2019-05-08T12:25:23.000Z</Time>
            <Position>
              <LatitudeDegrees>42.86066095344722270965576171875</LatitudeDegrees>
              <LongitudeDegrees>0.6016970984637737274169921875</LongitudeDegrees>
            </Position>
            <AltitudeMeters>658.79998779296875</AltitudeMeters>
            <DistanceMeters>75288.434555476</DistanceMeters>
          </Trackpoint>
          <Trackpoint>
            <Time>2019-05-08T12:25:25.000Z</Time>
            <Position>
              <LatitudeDegrees>42.86063882522284984588623046875</LatitudeDegrees>
              <LongitudeDegrees>0.60165074653923511505126953125</LongitudeDegrees>
            </Position>
            <AltitudeMeters>659.4000244140625</AltitudeMeters>
            <DistanceMeters>75292.946073215</DistanceMeters>
          </Trackpoint>
          <Trackpoint>
            <Time>2019-05-08T12:25:27.000Z</Time>
            <Position>
              <LatitudeDegrees>42.860610745847225189208984375</LatitudeDegrees>
              <LongitudeDegrees>0.60160783119499683380126953125</LongitudeDegrees>
            </Position>
            <AltitudeMeters>659.5999755859375</AltitudeMeters>
            <DistanceMeters>75297.639084662</DistanceMeters>
          </Trackpoint>
          <Trackpoint>
            <Time>2019-05-08T12:25:29.000Z</Time>
            <Position>
              <LatitudeDegrees>42.86058358848094940185546875</LatitudeDegrees>
              <LongitudeDegrees>0.6015609763562679290771484375</LongitudeDegrees>
            </Position>
            <AltitudeMeters>660.4000244140625</AltitudeMeters>
            <DistanceMeters>75302.512389603</DistanceMeters>
          </Trackpoint>
          <Trackpoint>
            <Time>2019-05-08T12:25:34.000Z</Time>
            <Position>
              <LatitudeDegrees>42.86050236783921718597412109375</LatitudeDegrees>
              <LongitudeDegrees>0.60145678929984569549560546875</LongitudeDegrees>
            </Position>
            <AltitudeMeters>663</AltitudeMeters>
            <DistanceMeters>75314.921292194</DistanceMeters>
          </Trackpoint>
          <Trackpoint>
            <Time>2019-05-08T12:25:35.000Z</Time>
            <Position>
              <LatitudeDegrees>42.86049197427928447723388671875</LatitudeDegrees>
              <LongitudeDegrees>0.601438768208026885986328125</LongitudeDegrees>
            </Position>
            <AltitudeMeters>663.4000244140625</AltitudeMeters>
            <DistanceMeters>75316.793101389</DistanceMeters>
          </Trackpoint>
          <Trackpoint>
            <Time>2019-05-08T12:25:37.000Z</Time>
            <Position>
              <LatitudeDegrees>42.8604664094746112823486328125</LatitudeDegrees>
              <LongitudeDegrees>0.60140968300402164459228515625</LongitudeDegrees>
            </Position>
            <AltitudeMeters>663.79998779296875</AltitudeMeters>
            <DistanceMeters>75320.497924758</DistanceMeters>
          </Trackpoint>
          <Trackpoint>
            <Time>2019-05-08T12:25:41.000Z</Time>
            <Position>
              <LatitudeDegrees>42.860397510230541229248046875</LatitudeDegrees>
              <LongitudeDegrees>0.6013165600597858428955078125</LongitudeDegrees>
            </Position>
            <AltitudeMeters>664.4000244140625</AltitudeMeters>
            <DistanceMeters>75331.29297624</DistanceMeters>
          </Trackpoint>
          <Trackpoint>
            <Time>2019-05-08T12:25:42.000Z</Time>
            <Position>
              <LatitudeDegrees>42.86037378944456577301025390625</LatitudeDegrees>
              <LongitudeDegrees>0.6012847088277339935302734375</LongitudeDegrees>
            </Position>
            <AltitudeMeters>664.5999755859375</AltitudeMeters>
            <DistanceMeters>75334.997799609</DistanceMeters>
          </Trackpoint>
          <Trackpoint>
            <Time>2019-05-08T12:25:44.000Z</Time>
            <Position>
              <LatitudeDegrees>42.86032081581652164459228515625</LatitudeDegrees>
              <LongitudeDegrees>0.6012059189379215240478515625</LongitudeDegrees>
            </Position>
            <AltitudeMeters>665</AltitudeMeters>
            <DistanceMeters>75343.720610172</DistanceMeters>
          </Trackpoint>
          <Trackpoint>
            <Time>2019-05-08T12:25:45.000Z</Time>
            <Position>
              <LatitudeDegrees>42.86028929986059665679931640625</LatitudeDegrees>
              <LongitudeDegrees>0.60115277767181396484375</LongitudeDegrees>
            </Position>
            <AltitudeMeters>665.20001220703125</AltitudeMeters>
            <DistanceMeters>75349.298119773</DistanceMeters>
          </Trackpoint>
          <Trackpoint>
            <Time>2019-05-08T12:25:46.000Z</Time>
            <Position>
              <LatitudeDegrees>42.8602582029998302459716796875</LatitudeDegrees>
              <LongitudeDegrees>0.60108505189418792724609375</LongitudeDegrees>
            </Position>
            <AltitudeMeters>665.20001220703125</AltitudeMeters>
            <DistanceMeters>75355.818365159</DistanceMeters>
          </Trackpoint>
          <Trackpoint>
            <Time>2019-05-08T12:25:48.000Z</Time>
            <Position>
              <LatitudeDegrees>42.86019206978380680084228515625</LatitudeDegrees>
              <LongitudeDegrees>0.60091883875429630279541015625</LongitudeDegrees>
            </Position>
            <AltitudeMeters>665</AltitudeMeters>
            <DistanceMeters>75371.248433063</DistanceMeters>
          </Trackpoint>
          <Trackpoint>
            <Time>2019-05-08T12:25:49.000Z</Time>
            <Position>
              <LatitudeDegrees>42.86015233956277370452880859375</LatitudeDegrees>
              <LongitudeDegrees>0.600834600627422332763671875</LongitudeDegrees>
            </Position>
            <AltitudeMeters>665.20001220703125</AltitudeMeters>
            <DistanceMeters>75379.420730499</DistanceMeters>
          </Trackpoint>
          <Trackpoint>
            <Time>2019-05-08T12:25:50.000Z</Time>
            <Position>
              <LatitudeDegrees>42.86010883748531341552734375</LatitudeDegrees>
              <LongitudeDegrees>0.60075120069086551666259765625</LongitudeDegrees>
            </Position>
            <AltitudeMeters>665.20001220703125</AltitudeMeters>
            <DistanceMeters>75387.771735252</DistanceMeters>
          </Trackpoint>
          <Trackpoint>
            <Time>2019-05-08T12:25:51.000Z</Time>
            <Position>
              <LatitudeDegrees>42.8600684367120265960693359375</LatitudeDegrees>
              <LongitudeDegrees>0.6006637774407863616943359375</LongitudeDegrees>
            </Position>
            <AltitudeMeters>665</AltitudeMeters>
            <DistanceMeters>75396.20344871</DistanceMeters>
          </Trackpoint>
          <Trackpoint>
            <Time>2019-05-08T12:25:53.000Z</Time>
            <Position>
              <LatitudeDegrees>42.85999660380184650421142578125</LatitudeDegrees>
              <LongitudeDegrees>0.600513406097888946533203125</LongitudeDegrees>
            </Position>
            <AltitudeMeters>664.79998779296875</AltitudeMeters>
            <DistanceMeters>75410.847123977</DistanceMeters>
          </Trackpoint>
          <Trackpoint>
            <Time>2019-05-08T12:25:54.000Z</Time>
            <Position>
              <LatitudeDegrees>42.85995167680084705352783203125</LatitudeDegrees>
              <LongitudeDegrees>0.600490607321262359619140625</LongitudeDegrees>
            </Position>
            <AltitudeMeters>664.4000244140625</AltitudeMeters>
            <DistanceMeters>75416.182177955</DistanceMeters>
          </Trackpoint>
          <Trackpoint>
            <Time>2019-05-08T12:25:55.000Z</Time>
            <Position>
              <LatitudeDegrees>42.8599095158278942108154296875</LatitudeDegrees>
              <LongitudeDegrees>0.60050846077501773834228515625</LongitudeDegrees>
            </Position>
            <AltitudeMeters>663.5999755859375</AltitudeMeters>
            <DistanceMeters>75421.096079095</DistanceMeters>
          </Trackpoint>
          <Trackpoint>
            <Time>2019-05-08T12:25:56.000Z</Time>
            <Position>
              <LatitudeDegrees>42.85988378338515758514404296875</LatitudeDegrees>
              <LongitudeDegrees>0.60055975802242755889892578125</LongitudeDegrees>
            </Position>
            <AltitudeMeters>662.5999755859375</AltitudeMeters>
            <DistanceMeters>75426.167337096</DistanceMeters>
          </Trackpoint>
          <Trackpoint>
            <Time>2019-05-08T12:25:57.000Z</Time>
            <Position>
              <LatitudeDegrees>42.85989333875477313995361328125</LatitudeDegrees>
              <LongitudeDegrees>0.60062664560973644256591796875</LongitudeDegrees>
            </Position>
            <AltitudeMeters>662</AltitudeMeters>
            <DistanceMeters>75431.727008999</DistanceMeters>
          </Trackpoint>
          <Trackpoint>
            <Time>2019-05-08T12:25:58.000Z</Time>
            <Position>
              <LatitudeDegrees>42.8598974458873271942138671875</LatitudeDegrees>
              <LongitudeDegrees>0.6006993167102336883544921875</LongitudeDegrees>
            </Position>
            <AltitudeMeters>661</AltitudeMeters>
            <DistanceMeters>75437.673586111</DistanceMeters>
          </Trackpoint>
          <Trackpoint>
            <Time>2019-05-08T12:25:59.000Z</Time>
            <Position>
              <LatitudeDegrees>42.8598961047828197479248046875</LatitudeDegrees>
              <LongitudeDegrees>0.60078204609453678131103515625</LongitudeDegrees>
            </Position>
            <AltitudeMeters>660.20001220703125</AltitudeMeters>
            <DistanceMeters>75444.425165622</DistanceMeters>
          </Trackpoint>
          <Trackpoint>
            <Time>2019-05-08T12:26:01.000Z</Time>
            <Position>
              <LatitudeDegrees>42.8598622418940067291259765625</LatitudeDegrees>
              <LongitudeDegrees>0.600975416600704193115234375</LongitudeDegrees>
            </Position>
            <AltitudeMeters>659.20001220703125</AltitudeMeters>
            <DistanceMeters>75460.645532673</DistanceMeters>
          </Trackpoint>
          <Trackpoint>
            <Time>2019-05-08T12:26:02.000Z</Time>
            <Position>
              <LatitudeDegrees>42.85982024855911731719970703125</LatitudeDegrees>
              <LongitudeDegrees>0.6010617502033710479736328125</LongitudeDegrees>
            </Position>
            <AltitudeMeters>658.79998779296875</AltitudeMeters>
            <DistanceMeters>75469.09917242</DistanceMeters>
          </Trackpoint>
          <Trackpoint>
            <Time>2019-05-08T12:26:03.000Z</Time>
            <Position>
              <LatitudeDegrees>42.85976015031337738037109375</LatitudeDegrees>
              <LongitudeDegrees>0.60113777406513690948486328125</LongitudeDegrees>
            </Position>
            <AltitudeMeters>658.5999755859375</AltitudeMeters>
            <DistanceMeters>75478.221737</DistanceMeters>
          </Trackpoint>
          <Trackpoint>
            <Time>2019-05-08T12:26:04.000Z</Time>
            <Position>
              <LatitudeDegrees>42.85968580283224582672119140625</LatitudeDegrees>
              <LongitudeDegrees>0.60120985843241214752197265625</LongitudeDegrees>
            </Position>
            <AltitudeMeters>658.20001220703125</AltitudeMeters>
            <DistanceMeters>75488.373152289</DistanceMeters>
          </Trackpoint>
          <Trackpoint>
            <Time>2019-05-08T12:26:05.000Z</Time>
            <Position>
              <LatitudeDegrees>42.8596017323434352874755859375</LatitudeDegrees>
              <LongitudeDegrees>0.60126568190753459930419921875</LongitudeDegrees>
            </Position>
            <AltitudeMeters>657.5999755859375</AltitudeMeters>
            <DistanceMeters>75498.779770702</DistanceMeters>
          </Trackpoint>
          <Trackpoint>
            <Time>2019-05-08T12:26:07.000Z</Time>
            <Position>
              <LatitudeDegrees>42.85941590555012226104736328125</LatitudeDegrees>
              <LongitudeDegrees>0.6013333238661289215087890625</LongitudeDegrees>
            </Position>
            <AltitudeMeters>656.5999755859375</AltitudeMeters>
            <DistanceMeters>75520.186106894</DistanceMeters>
          </Trackpoint>
          <Trackpoint>
            <Time>2019-05-08T12:26:08.000Z</Time>
            <Position>
              <LatitudeDegrees>42.85932320170104503631591796875</LatitudeDegrees>
              <LongitudeDegrees>0.601373054087162017822265625</LongitudeDegrees>
            </Position>
            <AltitudeMeters>656.4000244140625</AltitudeMeters>
            <DistanceMeters>75531.001215778</DistanceMeters>
          </Trackpoint>
          <Trackpoint>
            <Time>2019-05-08T12:26:09.000Z</Time>
            <Position>
              <LatitudeDegrees>42.85923200659453868865966796875</LatitudeDegrees>
              <LongitudeDegrees>0.60141890309751033782958984375</LongitudeDegrees>
            </Position>
            <AltitudeMeters>655.4000244140625</AltitudeMeters>
            <DistanceMeters>75541.819246593</DistanceMeters>
          </Trackpoint>
          <Trackpoint>
            <Time>2019-05-08T12:26:10.000Z</Time>
            <Position>
              <LatitudeDegrees>42.8591497801244258880615234375</LatitudeDegrees>
              <LongitudeDegrees>0.60145922005176544189453125</LongitudeDegrees>
            </Position>
            <AltitudeMeters>654.5999755859375</AltitudeMeters>
            <DistanceMeters>75551.544524001</DistanceMeters>
          </Trackpoint>
          <Trackpoint>
            <Time>2019-05-08T12:26:12.000Z</Time>
            <Position>
              <LatitudeDegrees>42.85902899689972400665283203125</LatitudeDegrees>
              <LongitudeDegrees>0.60151026584208011627197265625</LongitudeDegrees>
            </Position>
            <AltitudeMeters>652</AltitudeMeters>
            <DistanceMeters>75565.618426332</DistanceMeters>
          </Trackpoint>
          <Trackpoint>
            <Time>2019-05-08T12:26:14.000Z</Time>
            <Position>
              <LatitudeDegrees>42.858960516750812530517578125</LatitudeDegrees>
              <LongitudeDegrees>0.60154236853122711181640625</LongitudeDegrees>
            </Position>
            <AltitudeMeters>649.20001220703125</AltitudeMeters>
            <DistanceMeters>75573.678350025</DistanceMeters>
          </Trackpoint>
          <Trackpoint>
            <Time>2019-05-08T12:26:15.000Z</Time>
            <Position>
              <LatitudeDegrees>42.85893394611775875091552734375</LatitudeDegrees>
              <LongitudeDegrees>0.6015378423035144805908203125</LongitudeDegrees>
            </Position>
            <AltitudeMeters>648</AltitudeMeters>
            <DistanceMeters>75576.659221579</DistanceMeters>
          </Trackpoint>
          <Trackpoint>
            <Time>2019-05-08T12:26:17.000Z</Time>
            <Position>
              <LatitudeDegrees>42.85886487923562526702880859375</LatitudeDegrees>
              <LongitudeDegrees>0.6014784984290599822998046875</LongitudeDegrees>
            </Position>
            <AltitudeMeters>645.4000244140625</AltitudeMeters>
            <DistanceMeters>75585.744093548</DistanceMeters>
          </Trackpoint>
          <Trackpoint>
            <Time>2019-05-08T12:26:18.000Z</Time>
            <Position>
              <LatitudeDegrees>42.8588359616696834564208984375</LatitudeDegrees>
              <LongitudeDegrees>0.60142837464809417724609375</LongitudeDegrees>
            </Position>
            <AltitudeMeters>644.5999755859375</AltitudeMeters>
            <DistanceMeters>75590.948053507</DistanceMeters>
          </Trackpoint>
          <Trackpoint>
            <Time>2019-05-08T12:26:23.000Z</Time>
            <Position>
              <LatitudeDegrees>42.858716435730457305908203125</LatitudeDegrees>
              <LongitudeDegrees>0.60122578404843807220458984375</LongitudeDegrees>
            </Position>
            <AltitudeMeters>642.5999755859375</AltitudeMeters>
            <DistanceMeters>75612.16583994</DistanceMeters>
          </Trackpoint>
          <Trackpoint>
            <Time>2019-05-08T12:26:26.000Z</Time>
            <Position>
              <LatitudeDegrees>42.85870713181793689727783203125</LatitudeDegrees>
              <LongitudeDegrees>0.6012112833559513092041015625</LongitudeDegrees>
            </Position>
            <AltitudeMeters>640.79998779296875</AltitudeMeters>
            <DistanceMeters>75613.73881195</DistanceMeters>
          </Trackpoint>
          <Trackpoint>
            <Time>2019-05-08T12:26:31.000Z</Time>
            <Position>
              <LatitudeDegrees>42.858626581728458404541015625</LatitudeDegrees>
              <LongitudeDegrees>0.601242966949939727783203125</LongitudeDegrees>
            </Position>
            <AltitudeMeters>640</AltitudeMeters>
            <DistanceMeters>75623.069835317</DistanceMeters>
          </Trackpoint>
          <Trackpoint>
            <Time>2019-05-08T12:26:36.000Z</Time>
            <Position>
              <LatitudeDegrees>42.85842734389007091522216796875</LatitudeDegrees>
              <LongitudeDegrees>0.60129426419734954833984375</LongitudeDegrees>
            </Position>
            <AltitudeMeters>639.79998779296875</AltitudeMeters>
            <DistanceMeters>75645.637029456</DistanceMeters>
          </Trackpoint>
          <Trackpoint>
            <Time>2019-05-08T12:26:37.000Z</Time>
            <Position>
              <LatitudeDegrees>42.85838593728840351104736328125</LatitudeDegrees>
              <LongitudeDegrees>0.6012997962534427642822265625</LongitudeDegrees>
            </Position>
            <AltitudeMeters>639.79998779296875</AltitudeMeters>
            <DistanceMeters>75650.269033518</DistanceMeters>
          </Trackpoint>
          <Trackpoint>
            <Time>2019-05-08T12:26:38.000Z</Time>
            <Position>
              <LatitudeDegrees>42.85833992063999176025390625</LatitudeDegrees>
              <LongitudeDegrees>0.60130708850920200347900390625</LongitudeDegrees>
            </Position>
            <AltitudeMeters>639.5999755859375</AltitudeMeters>
            <DistanceMeters>75655.42505379</DistanceMeters>
          </Trackpoint>
          <Trackpoint>
            <Time>2019-05-08T12:26:41.000Z</Time>
            <Position>
              <LatitudeDegrees>42.858177982270717620849609375</LatitudeDegrees>
              <LongitudeDegrees>0.6013190746307373046875</LongitudeDegrees>
            </Position>
            <AltitudeMeters>639.5999755859375</AltitudeMeters>
            <DistanceMeters>75673.475377559</DistanceMeters>
          </Trackpoint>
          <Trackpoint>
            <Time>2019-05-08T12:26:42.000Z</Time>
            <Position>
              <LatitudeDegrees>42.85811771638691425323486328125</LatitudeDegrees>
              <LongitudeDegrees>0.601313374936580657958984375</LongitudeDegrees>
            </Position>
            <AltitudeMeters>639.4000244140625</AltitudeMeters>
            <DistanceMeters>75680.198811405</DistanceMeters>
          </Trackpoint>
          <Trackpoint>
            <Time>2019-05-08T12:26:43.000Z</Time>
            <Position>
              <LatitudeDegrees>42.8580562770366668701171875</LatitudeDegrees>
              <LongitudeDegrees>0.60129962861537933349609375</LongitudeDegrees>
            </Position>
            <AltitudeMeters>639.20001220703125</AltitudeMeters>
            <DistanceMeters>75687.128598309</DistanceMeters>
          </Trackpoint>
          <Trackpoint>
            <Time>2019-05-08T12:26:44.000Z</Time>
            <Position>
              <LatitudeDegrees>42.85799391567707061767578125</LatitudeDegrees>
              <LongitudeDegrees>0.60127548873424530029296875</LongitudeDegrees>
            </Position>
            <AltitudeMeters>639.20001220703125</AltitudeMeters>
            <DistanceMeters>75694.343122591</DistanceMeters>
          </Trackpoint>
          <Trackpoint>
            <Time>2019-05-08T12:26:45.000Z</Time>
            <Position>
              <LatitudeDegrees>42.857930548489093780517578125</LatitudeDegrees>
              <LongitudeDegrees>0.60124539770185947418212890625</LongitudeDegrees>
            </Position>
            <AltitudeMeters>638.79998779296875</AltitudeMeters>
            <DistanceMeters>75701.809828154</DistanceMeters>
          </Trackpoint>
          <Trackpoint>
            <Time>2019-05-08T12:26:48.000Z</Time>
            <Position>
              <LatitudeDegrees>42.857760228216648101806640625</LatitudeDegrees>
              <LongitudeDegrees>0.60117247514426708221435546875</LongitudeDegrees>
            </Position>
            <AltitudeMeters>637.20001220703125</AltitudeMeters>
            <DistanceMeters>75721.678593891</DistanceMeters>
          </Trackpoint>
          <Trackpoint>
            <Time>2019-05-08T12:26:49.000Z</Time>
            <Position>
              <LatitudeDegrees>42.8577181510627269744873046875</LatitudeDegrees>
              <LongitudeDegrees>0.601165853440761566162109375</LongitudeDegrees>
            </Position>
            <AltitudeMeters>637</AltitudeMeters>
            <DistanceMeters>75726.392723517</DistanceMeters>
          </Trackpoint>
          <Trackpoint>
            <Time>2019-05-08T12:26:50.000Z</Time>
            <Position>
              <LatitudeDegrees>42.85767875611782073974609375</LatitudeDegrees>
              <LongitudeDegrees>0.60117423534393310546875</LongitudeDegrees>
            </Position>
            <AltitudeMeters>636.5999755859375</AltitudeMeters>
            <DistanceMeters>75730.830582992</DistanceMeters>
          </Trackpoint>
          <Trackpoint>
            <Time>2019-05-08T12:26:52.000Z</Time>
            <Position>
              <LatitudeDegrees>42.85759468562901020050048828125</LatitudeDegrees>
              <LongitudeDegrees>0.6011998839676380157470703125</LongitudeDegrees>
            </Position>
            <AltitudeMeters>635.20001220703125</AltitudeMeters>
            <DistanceMeters>75740.418867942</DistanceMeters>
          </Trackpoint>
          <Trackpoint>
            <Time>2019-05-08T12:26:54.000Z</Time>
            <Position>
              <LatitudeDegrees>42.85748924128711223602294921875</LatitudeDegrees>
              <LongitudeDegrees>0.60120734386146068572998046875</LongitudeDegrees>
            </Position>
            <AltitudeMeters>634.20001220703125</AltitudeMeters>
            <DistanceMeters>75752.170718398</DistanceMeters>
          </Trackpoint>
          <Trackpoint>
            <Time>2019-05-08T12:26:55.000Z</Time>
            <Position>
              <LatitudeDegrees>42.8574328310787677764892578125</LatitudeDegrees>
              <LongitudeDegrees>0.60120482929050922393798828125</LongitudeDegrees>
            </Position>
            <AltitudeMeters>634</AltitudeMeters>
            <DistanceMeters>75758.452552052</DistanceMeters>
          </Trackpoint>
          <Trackpoint>
            <Time>2019-05-08T12:26:56.000Z</Time>
            <Position>
              <LatitudeDegrees>42.85737164318561553955078125</LatitudeDegrees>
              <LongitudeDegrees>0.60118722729384899139404296875</LongitudeDegrees>
            </Position>
            <AltitudeMeters>633.79998779296875</AltitudeMeters>
            <DistanceMeters>75765.412245296</DistanceMeters>
          </Trackpoint>
          <Trackpoint>
            <Time>2019-05-08T12:26:57.000Z</Time>
            <Position>
              <LatitudeDegrees>42.85731154493987560272216796875</LatitudeDegrees>
              <LongitudeDegrees>0.60115537606179714202880859375</LongitudeDegrees>
            </Position>
            <AltitudeMeters>633.5999755859375</AltitudeMeters>
            <DistanceMeters>75772.587863449</DistanceMeters>
          </Trackpoint>
          <Trackpoint>
            <Time>2019-05-08T12:26:59.000Z</Time>
            <Position>
              <LatitudeDegrees>42.85719755105674266815185546875</LatitudeDegrees>
              <LongitudeDegrees>0.60106116347014904022216796875</LongitudeDegrees>
            </Position>
            <AltitudeMeters>633.4000244140625</AltitudeMeters>
            <DistanceMeters>75787.422382752</DistanceMeters>
          </Trackpoint>
          <Trackpoint>
            <Time>2019-05-08T12:27:00.000Z</Time>
            <Position>
              <LatitudeDegrees>42.85714692436158657073974609375</LatitudeDegrees>
              <LongitudeDegrees>0.60100684873759746551513671875</LongitudeDegrees>
            </Position>
            <AltitudeMeters>633.4000244140625</AltitudeMeters>
            <DistanceMeters>75794.59170595</DistanceMeters>
          </Trackpoint>
          <Trackpoint>
            <Time>2019-05-08T12:27:01.000Z</Time>
            <Position>
              <LatitudeDegrees>42.85709948278963565826416015625</LatitudeDegrees>
              <LongitudeDegrees>0.60095764696598052978515625</LongitudeDegrees>
            </Position>
            <AltitudeMeters>633</AltitudeMeters>
            <DistanceMeters>75801.225904665</DistanceMeters>
          </Trackpoint>
          <Trackpoint>
            <Time>2019-05-08T12:27:02.000Z</Time>
            <Position>
              <LatitudeDegrees>42.85705371759831905364990234375</LatitudeDegrees>
              <LongitudeDegrees>0.60091297142207622528076171875</LongitudeDegrees>
            </Position>
            <AltitudeMeters>633</AltitudeMeters>
            <DistanceMeters>75807.489743914</DistanceMeters>
          </Trackpoint>
          <Trackpoint>
            <Time>2019-05-08T12:27:04.000Z</Time>
            <Position>
              <LatitudeDegrees>42.85698129795491695404052734375</LatitudeDegrees>
              <LongitudeDegrees>0.60085035860538482666015625</LongitudeDegrees>
            </Position>
            <AltitudeMeters>631.4000244140625</AltitudeMeters>
            <DistanceMeters>75817.032716247</DistanceMeters>
          </Trackpoint>
          <Trackpoint>
            <Time>2019-05-08T12:27:08.000Z</Time>
            <Position>
              <LatitudeDegrees>42.85688079893589019775390625</LatitudeDegrees>
              <LongitudeDegrees>0.600821860134601593017578125</LongitudeDegrees>
            </Position>
            <AltitudeMeters>629.20001220703125</AltitudeMeters>
            <DistanceMeters>75828.457678172</DistanceMeters>
          </Trackpoint>
          <Trackpoint>
            <Time>2019-05-08T12:27:11.000Z</Time>
            <Position>
              <LatitudeDegrees>42.85677107982337474822998046875</LatitudeDegrees>
              <LongitudeDegrees>0.6008200161159038543701171875</LongitudeDegrees>
            </Position>
            <AltitudeMeters>628.4000244140625</AltitudeMeters>
            <DistanceMeters>75840.671106552</DistanceMeters>
          </Trackpoint>
          <Trackpoint>
            <Time>2019-05-08T12:27:13.000Z</Time>
            <Position>
              <LatitudeDegrees>42.85667560994625091552734375</LatitudeDegrees>
              <LongitudeDegrees>0.60081440024077892303466796875</LongitudeDegrees>
            </Position>
            <AltitudeMeters>628</AltitudeMeters>
            <DistanceMeters>75851.306884267</DistanceMeters>
          </Trackpoint>
          <Trackpoint>
            <Time>2019-05-08T12:27:15.000Z</Time>
            <Position>
              <LatitudeDegrees>42.856561280786991119384765625</LatitudeDegrees>
              <LongitudeDegrees>0.60080450959503650665283203125</LongitudeDegrees>
            </Position>
            <AltitudeMeters>627.5999755859375</AltitudeMeters>
            <DistanceMeters>75864.057472344</DistanceMeters>
          </Trackpoint>
          <Trackpoint>
            <Time>2019-05-08T12:27:18.000Z</Time>
            <Position>
              <LatitudeDegrees>42.856366820633411407470703125</LatitudeDegrees>
              <LongitudeDegrees>0.60076511465013027191162109375</LongitudeDegrees>
            </Position>
            <AltitudeMeters>627.5999755859375</AltitudeMeters>
            <DistanceMeters>75885.938598529</DistanceMeters>
          </Trackpoint>
          <Trackpoint>
            <Time>2019-05-08T12:27:23.000Z</Time>
            <Position>
              <LatitudeDegrees>42.85605333745479583740234375</LatitudeDegrees>
              <LongitudeDegrees>0.60055858455598354339599609375</LongitudeDegrees>
            </Position>
            <AltitudeMeters>626.4000244140625</AltitudeMeters>
            <DistanceMeters>75924.686083606</DistanceMeters>
          </Trackpoint>
          <Trackpoint>
            <Time>2019-05-08T12:27:25.000Z</Time>
            <Position>
              <LatitudeDegrees>42.85593037493526935577392578125</LatitudeDegrees>
              <LongitudeDegrees>0.60044408775866031646728515625</LongitudeDegrees>
            </Position>
            <AltitudeMeters>625.4000244140625</AltitudeMeters>
            <DistanceMeters>75941.256464846</DistanceMeters>
          </Trackpoint>
          <Trackpoint>
            <Time>2019-05-08T12:27:29.000Z</Time>
            <Position>
              <LatitudeDegrees>42.85566885955631732940673828125</LatitudeDegrees>
              <LongitudeDegrees>0.6002436764538288116455078125</LongitudeDegrees>
            </Position>
            <AltitudeMeters>624.20001220703125</AltitudeMeters>
            <DistanceMeters>75974.642366897</DistanceMeters>
          </Trackpoint>
          <Trackpoint>
            <Time>2019-05-08T12:27:31.000Z</Time>
            <Position>
              <LatitudeDegrees>42.8555324859917163848876953125</LatitudeDegrees>
              <LongitudeDegrees>0.6001380644738674163818359375</LongitudeDegrees>
            </Position>
            <AltitudeMeters>624</AltitudeMeters>
            <DistanceMeters>75992.096785222</DistanceMeters>
          </Trackpoint>
          <Trackpoint>
            <Time>2019-05-08T12:27:35.000Z</Time>
            <Position>
              <LatitudeDegrees>42.8552646003663539886474609375</LatitudeDegrees>
              <LongitudeDegrees>0.59989674948155879974365234375</LongitudeDegrees>
            </Position>
            <AltitudeMeters>622.5999755859375</AltitudeMeters>
            <DistanceMeters>76027.827588009</DistanceMeters>
          </Trackpoint>
          <Trackpoint>
            <Time>2019-05-08T12:27:38.000Z</Time>
            <Position>
              <LatitudeDegrees>42.8550483472645282745361328125</LatitudeDegrees>
              <LongitudeDegrees>0.599760375916957855224609375</LongitudeDegrees>
            </Position>
            <AltitudeMeters>622.20001220703125</AltitudeMeters>
            <DistanceMeters>76054.344638987</DistanceMeters>
          </Trackpoint>
          <Trackpoint>
            <Time>2019-05-08T12:27:40.000Z</Time>
            <Position>
              <LatitudeDegrees>42.85488867200911045074462890625</LatitudeDegrees>
              <LongitudeDegrees>0.5997122637927532196044921875</LongitudeDegrees>
            </Position>
            <AltitudeMeters>621.5999755859375</AltitudeMeters>
            <DistanceMeters>76072.545417936</DistanceMeters>
          </Trackpoint>
          <Trackpoint>
            <Time>2019-05-08T12:27:41.000Z</Time>
            <Position>
              <LatitudeDegrees>42.8548049367964267730712890625</LatitudeDegrees>
              <LongitudeDegrees>0.59969726018607616424560546875</LongitudeDegrees>
            </Position>
            <AltitudeMeters>621.4000244140625</AltitudeMeters>
            <DistanceMeters>76081.945380595</DistanceMeters>
          </Trackpoint>
          <Trackpoint>
            <Time>2019-05-08T12:27:42.000Z</Time>
            <Position>
              <LatitudeDegrees>42.8547181002795696258544921875</LatitudeDegrees>
              <LongitudeDegrees>0.599691979587078094482421875</LongitudeDegrees>
            </Position>
            <AltitudeMeters>621</AltitudeMeters>
            <DistanceMeters>76091.619921532</DistanceMeters>
          </Trackpoint>
          <Trackpoint>
            <Time>2019-05-08T12:27:44.000Z</Time>
            <Position>
              <LatitudeDegrees>42.8545461036264896392822265625</LatitudeDegrees>
              <LongitudeDegrees>0.59975123964250087738037109375</LongitudeDegrees>
            </Position>
            <AltitudeMeters>620.20001220703125</AltitudeMeters>
            <DistanceMeters>76111.364680085</DistanceMeters>
          </Trackpoint>
          <Trackpoint>
            <Time>2019-05-08T12:27:46.000Z</Time>
            <Position>
              <LatitudeDegrees>42.8543881885707378387451171875</LatitudeDegrees>
              <LongitudeDegrees>0.599887110292911529541015625</LongitudeDegrees>
            </Position>
            <AltitudeMeters>619.79998779296875</AltitudeMeters>
            <DistanceMeters>76132.144917224</DistanceMeters>
          </Trackpoint>
          <Trackpoint>
            <Time>2019-05-08T12:27:48.000Z</Time>
            <Position>
              <LatitudeDegrees>42.8542332910001277923583984375</LatitudeDegrees>
              <LongitudeDegrees>0.60004041530191898345947265625</LongitudeDegrees>
            </Position>
            <AltitudeMeters>619.4000244140625</AltitudeMeters>
            <DistanceMeters>76153.445108087</DistanceMeters>
          </Trackpoint>
          <Trackpoint>
            <Time>2019-05-08T12:27:49.000Z</Time>
            <Position>
              <LatitudeDegrees>42.854148633778095245361328125</LatitudeDegrees>
              <LongitudeDegrees>0.60010244138538837432861328125</LongitudeDegrees>
            </Position>
            <AltitudeMeters>619.20001220703125</AltitudeMeters>
            <DistanceMeters>76164.140574808</DistanceMeters>
          </Trackpoint>
          <Trackpoint>
            <Time>2019-05-08T12:27:50.000Z</Time>
            <Position>
              <LatitudeDegrees>42.8540529124438762664794921875</LatitudeDegrees>
              <LongitudeDegrees>0.60013881884515285491943359375</LongitudeDegrees>
            </Position>
            <AltitudeMeters>618.79998779296875</AltitudeMeters>
            <DistanceMeters>76175.199659551</DistanceMeters>
          </Trackpoint>
          <Trackpoint>
            <Time>2019-05-08T12:27:51.000Z</Time>
            <Position>
              <LatitudeDegrees>42.8539513237774372100830078125</LatitudeDegrees>
              <LongitudeDegrees>0.60014938004314899444580078125</LongitudeDegrees>
            </Position>
            <AltitudeMeters>618.20001220703125</AltitudeMeters>
            <DistanceMeters>76186.539337173</DistanceMeters>
          </Trackpoint>
          <Trackpoint>
            <Time>2019-05-08T12:27:53.000Z</Time>
            <Position>
              <LatitudeDegrees>42.8537457995116710662841796875</LatitudeDegrees>
              <LongitudeDegrees>0.60016765259206295013427734375</LongitudeDegrees>
            </Position>
            <AltitudeMeters>616.79998779296875</AltitudeMeters>
            <DistanceMeters>76209.463042558</DistanceMeters>
          </Trackpoint>
          <Trackpoint>
            <Time>2019-05-08T12:27:55.000Z</Time>
            <Position>
              <LatitudeDegrees>42.85354144871234893798828125</LatitudeDegrees>
              <LongitudeDegrees>0.6001990847289562225341796875</LongitudeDegrees>
            </Position>
            <AltitudeMeters>615.4000244140625</AltitudeMeters>
            <DistanceMeters>76232.351662328</DistanceMeters>
          </Trackpoint>
          <Trackpoint>
            <Time>2019-05-08T12:27:58.000Z</Time>
            <Position>
              <LatitudeDegrees>42.85331723280251026153564453125</LatitudeDegrees>
              <LongitudeDegrees>0.60022682882845401763916015625</LongitudeDegrees>
            </Position>
            <AltitudeMeters>614.4000244140625</AltitudeMeters>
            <DistanceMeters>76257.409902402</DistanceMeters>
          </Trackpoint>
          <Trackpoint>
            <Time>2019-05-08T12:28:01.000Z</Time>
            <Position>
              <LatitudeDegrees>42.85318463109433650970458984375</LatitudeDegrees>
              <LongitudeDegrees>0.60024711303412914276123046875</LongitudeDegrees>
            </Position>
            <AltitudeMeters>612.5999755859375</AltitudeMeters>
            <DistanceMeters>76272.260848064</DistanceMeters>
          </Trackpoint>
          <Trackpoint>
            <Time>2019-05-08T12:28:02.000Z</Time>
            <Position>
              <LatitudeDegrees>42.85313350148499011993408203125</LatitudeDegrees>
              <LongitudeDegrees>0.600235126912593841552734375</LongitudeDegrees>
            </Position>
            <AltitudeMeters>612.20001220703125</AltitudeMeters>
            <DistanceMeters>76278.03484514</DistanceMeters>
          </Trackpoint>
          <Trackpoint>
            <Time>2019-05-08T12:28:05.000Z</Time>
            <Position>
              <LatitudeDegrees>42.8529547154903411865234375</LatitudeDegrees>
              <LongitudeDegrees>0.60016798786818981170654296875</LongitudeDegrees>
            </Position>
            <AltitudeMeters>611.79998779296875</AltitudeMeters>
            <DistanceMeters>76298.674463747</DistanceMeters>
          </Trackpoint>
          <Trackpoint>
            <Time>2019-05-08T12:28:06.000Z</Time>
            <Position>
              <LatitudeDegrees>42.852888666093349456787109375</LatitudeDegrees>
              <LongitudeDegrees>0.6001451052725315093994140625</LongitudeDegrees>
            </Position>
            <AltitudeMeters>611.5999755859375</AltitudeMeters>
            <DistanceMeters>76306.258762459</DistanceMeters>
          </Trackpoint>
          <Trackpoint>
            <Time>2019-05-08T12:28:07.000Z</Time>
            <Position>
              <LatitudeDegrees>42.8528207726776599884033203125</LatitudeDegrees>
              <LongitudeDegrees>0.6001196242868900299072265625</LongitudeDegrees>
            </Position>
            <AltitudeMeters>611.5999755859375</AltitudeMeters>
            <DistanceMeters>76314.096018354</DistanceMeters>
          </Trackpoint>
          <Trackpoint>
            <Time>2019-05-08T12:28:08.000Z</Time>
            <Position>
              <LatitudeDegrees>42.85275111906230449676513671875</LatitudeDegrees>
              <LongitudeDegrees>0.6000901199877262115478515625</LongitudeDegrees>
            </Position>
            <AltitudeMeters>611.4000244140625</AltitudeMeters>
            <DistanceMeters>76322.213992109</DistanceMeters>
          </Trackpoint>
          <Trackpoint>
            <Time>2019-05-08T12:28:11.000Z</Time>
            <Position>
              <LatitudeDegrees>42.85253318957984447479248046875</LatitudeDegrees>
              <LongitudeDegrees>0.60000755824148654937744140625</LongitudeDegrees>
            </Position>
            <AltitudeMeters>611</AltitudeMeters>
            <DistanceMeters>76347.388001819</DistanceMeters>
          </Trackpoint>
          <Trackpoint>
            <Time>2019-05-08T12:28:12.000Z</Time>
            <Position>
              <LatitudeDegrees>42.85245590843260288238525390625</LatitudeDegrees>
              <LongitudeDegrees>0.600000433623790740966796875</LongitudeDegrees>
            </Position>
            <AltitudeMeters>611</AltitudeMeters>
            <DistanceMeters>76356.009810752</DistanceMeters>
          </Trackpoint>
          <Trackpoint>
            <Time>2019-05-08T12:28:14.000Z</Time>
            <Position>
              <LatitudeDegrees>42.85230788402259349822998046875</LatitudeDegrees>
              <LongitudeDegrees>0.59997235424816608428955078125</LongitudeDegrees>
            </Position>
            <AltitudeMeters>610</AltitudeMeters>
            <DistanceMeters>76372.643829278</DistanceMeters>
          </Trackpoint>
          <Trackpoint>
            <Time>2019-05-08T12:28:15.000Z</Time>
            <Position>
              <LatitudeDegrees>42.8522447682917118072509765625</LatitudeDegrees>
              <LongitudeDegrees>0.5999218113720417022705078125</LongitudeDegrees>
            </Position>
            <AltitudeMeters>609.5999755859375</AltitudeMeters>
            <DistanceMeters>76380.789564463</DistanceMeters>
          </Trackpoint>
          <Trackpoint>
            <Time>2019-05-08T12:28:16.000Z</Time>
            <Position>
              <LatitudeDegrees>42.85219690762460231781005859375</LatitudeDegrees>
              <LongitudeDegrees>0.59984142892062664031982421875</LongitudeDegrees>
            </Position>
            <AltitudeMeters>609.20001220703125</AltitudeMeters>
            <DistanceMeters>76389.238930378</DistanceMeters>
          </Trackpoint>
          <Trackpoint>
            <Time>2019-05-08T12:28:17.000Z</Time>
            <Position>
              <LatitudeDegrees>42.8521703369915485382080078125</LatitudeDegrees>
              <LongitudeDegrees>0.599744282662868499755859375</LongitudeDegrees>
            </Position>
            <AltitudeMeters>608.79998779296875</AltitudeMeters>
            <DistanceMeters>76397.700044138</DistanceMeters>
          </Trackpoint>
          <Trackpoint>
            <Time>2019-05-08T12:28:18.000Z</Time>
            <Position>
              <LatitudeDegrees>42.85215214826166629791259765625</LatitudeDegrees>
              <LongitudeDegrees>0.59964395128190517425537109375</LongitudeDegrees>
            </Position>
            <AltitudeMeters>608.79998779296875</AltitudeMeters>
            <DistanceMeters>76406.133363892</DistanceMeters>
          </Trackpoint>
          <Trackpoint>
            <Time>2019-05-08T12:28:20.000Z</Time>
            <Position>
              <LatitudeDegrees>42.8521126694977283477783203125</LatitudeDegrees>
              <LongitudeDegrees>0.599451251327991485595703125</LongitudeDegrees>
            </Position>
            <AltitudeMeters>608.20001220703125</AltitudeMeters>
            <DistanceMeters>76422.459440162</DistanceMeters>
          </Trackpoint>
          <Trackpoint>
            <Time>2019-05-08T12:28:23.000Z</Time>
            <Position>
              <LatitudeDegrees>42.85203329287469387054443359375</LatitudeDegrees>
              <LongitudeDegrees>0.59917540289461612701416015625</LongitudeDegrees>
            </Position>
            <AltitudeMeters>607.5999755859375</AltitudeMeters>
            <DistanceMeters>76446.639584695</DistanceMeters>
          </Trackpoint>
          <Trackpoint>
            <Time>2019-05-08T12:28:25.000Z</Time>
            <Position>
              <LatitudeDegrees>42.85196707583963871002197265625</LatitudeDegrees>
              <LongitudeDegrees>0.59902519918978214263916015625</LongitudeDegrees>
            </Position>
            <AltitudeMeters>607</AltitudeMeters>
            <DistanceMeters>76460.941026281</DistanceMeters>
          </Trackpoint>
          <Trackpoint>
            <Time>2019-05-08T12:28:27.000Z</Time>
            <Position>
              <LatitudeDegrees>42.8519167006015777587890625</LatitudeDegrees>
              <LongitudeDegrees>0.5989149771630764007568359375</LongitudeDegrees>
            </Position>
            <AltitudeMeters>606.79998779296875</AltitudeMeters>
            <DistanceMeters>76471.539806917</DistanceMeters>
          </Trackpoint>
          <Trackpoint>
            <Time>2019-05-08T12:28:28.000Z</Time>
            <Position>
              <LatitudeDegrees>42.85190504975616931915283203125</LatitudeDegrees>
              <LongitudeDegrees>0.59886225499212741851806640625</LongitudeDegrees>
            </Position>
            <AltitudeMeters>606.79998779296875</AltitudeMeters>
            <DistanceMeters>76476.032269588</DistanceMeters>
          </Trackpoint>
          <Trackpoint>
            <Time>2019-05-08T12:28:32.000Z</Time>
            <Position>
              <LatitudeDegrees>42.8518806584179401397705078125</LatitudeDegrees>
              <LongitudeDegrees>0.5986690521240234375</LongitudeDegrees>
            </Position>
            <AltitudeMeters>606.79998779296875</AltitudeMeters>
            <DistanceMeters>76492.028966318</DistanceMeters>
          </Trackpoint>
          <Trackpoint>
            <Time>2019-05-08T12:28:38.000Z</Time>
            <Position>
              <LatitudeDegrees>42.851805724203586578369140625</LatitudeDegrees>
              <LongitudeDegrees>0.59844181872904300689697265625</LongitudeDegrees>
            </Position>
            <AltitudeMeters>607</AltitudeMeters>
            <DistanceMeters>76512.360020133</DistanceMeters>
          </Trackpoint>
          <Trackpoint>
            <Time>2019-05-08T12:28:40.000Z</Time>
            <Position>
              <LatitudeDegrees>42.85175979137420654296875</LatitudeDegrees>
              <LongitudeDegrees>0.598403848707675933837890625</LongitudeDegrees>
            </Position>
            <AltitudeMeters>607.20001220703125</AltitudeMeters>
            <DistanceMeters>76518.338401399</DistanceMeters>
          </Trackpoint>
          <Trackpoint>
            <Time>2019-05-08T12:28:43.000Z</Time>
            <Position>
              <LatitudeDegrees>42.85168343223631381988525390625</LatitudeDegrees>
              <LongitudeDegrees>0.5983795411884784698486328125</LongitudeDegrees>
            </Position>
            <AltitudeMeters>607.5999755859375</AltitudeMeters>
            <DistanceMeters>76527.065351882</DistanceMeters>
          </Trackpoint>
          <Trackpoint>
            <Time>2019-05-08T12:28:44.000Z</Time>
            <Position>
              <LatitudeDegrees>42.8516660816967487335205078125</LatitudeDegrees>
              <LongitudeDegrees>0.5983577482402324676513671875</LongitudeDegrees>
            </Position>
            <AltitudeMeters>607.5999755859375</AltitudeMeters>
            <DistanceMeters>76529.688502326</DistanceMeters>
          </Trackpoint>
          <Trackpoint>
            <Time>2019-05-08T12:28:46.000Z</Time>
            <Position>
              <LatitudeDegrees>42.8516754694283008575439453125</LatitudeDegrees>
              <LongitudeDegrees>0.59830435551702976226806640625</LongitudeDegrees>
            </Position>
            <AltitudeMeters>607.79998779296875</AltitudeMeters>
            <DistanceMeters>76534.167880615</DistanceMeters>
          </Trackpoint>
          <Trackpoint>
            <Time>2019-05-08T12:28:49.000Z</Time>
            <Position>
              <LatitudeDegrees>42.85174445249140262603759765625</LatitudeDegrees>
              <LongitudeDegrees>0.5983470194041728973388671875</LongitudeDegrees>
            </Position>
            <AltitudeMeters>607.79998779296875</AltitudeMeters>
            <DistanceMeters>76542.597987471</DistanceMeters>
          </Trackpoint>
          <Trackpoint>
            <Time>2019-05-08T12:28:53.000Z</Time>
            <Position>
              <LatitudeDegrees>42.85183967091143131256103515625</LatitudeDegrees>
              <LongitudeDegrees>0.5985045991837978363037109375</LongitudeDegrees>
            </Position>
            <AltitudeMeters>608</AltitudeMeters>
            <DistanceMeters>76559.261024124</DistanceMeters>
          </Trackpoint>
          <Trackpoint>
            <Time>2019-05-08T12:28:54.000Z</Time>
            <Position>
              <LatitudeDegrees>42.85186246968805789947509765625</LatitudeDegrees>
              <LongitudeDegrees>0.59855170547962188720703125</LongitudeDegrees>
            </Position>
            <AltitudeMeters>607.79998779296875</AltitudeMeters>
            <DistanceMeters>76563.867615016</DistanceMeters>
          </Trackpoint>
          <Trackpoint>
            <Time>2019-05-08T12:28:55.000Z</Time>
            <Position>
              <LatitudeDegrees>42.85188040696084499359130859375</LatitudeDegrees>
              <LongitudeDegrees>0.5986008234322071075439453125</LongitudeDegrees>
            </Position>
            <AltitudeMeters>607.79998779296875</AltitudeMeters>
            <DistanceMeters>76568.34497693</DistanceMeters>
          </Trackpoint>
          <Trackpoint>
            <Time>2019-05-08T12:28:57.000Z</Time>
            <Position>
              <LatitudeDegrees>42.85189993679523468017578125</LatitudeDegrees>
              <LongitudeDegrees>0.59871003963053226470947265625</LongitudeDegrees>
            </Position>
            <AltitudeMeters>607.79998779296875</AltitudeMeters>
            <DistanceMeters>76577.517885536</DistanceMeters>
          </Trackpoint>
          <Trackpoint>
            <Time>2019-05-08T12:28:58.000Z</Time>
            <Position>
              <LatitudeDegrees>42.851912677288055419921875</LatitudeDegrees>
              <LongitudeDegrees>0.59876468963921070098876953125</LongitudeDegrees>
            </Position>
            <AltitudeMeters>607.5999755859375</AltitudeMeters>
            <DistanceMeters>76582.197408522</DistanceMeters>
          </Trackpoint>
          <Trackpoint>
            <Time>2019-05-08T12:29:00.000Z</Time>
            <Position>
              <LatitudeDegrees>42.85192248411476612091064453125</LatitudeDegrees>
              <LongitudeDegrees>0.598870217800140380859375</LongitudeDegrees>
            </Position>
            <AltitudeMeters>607.4000244140625</AltitudeMeters>
            <DistanceMeters>76590.877671067</DistanceMeters>
          </Trackpoint>
          <Trackpoint>
            <Time>2019-05-08T12:29:01.000Z</Time>
            <Position>
              <LatitudeDegrees>42.8519068099558353424072265625</LatitudeDegrees>
              <LongitudeDegrees>0.59891003184020519256591796875</LongitudeDegrees>
            </Position>
            <AltitudeMeters>607.4000244140625</AltitudeMeters>
            <DistanceMeters>76594.565393281</DistanceMeters>
          </Trackpoint>
          <Trackpoint>
            <Time>2019-05-08T12:29:02.000Z</Time>
            <Position>
              <LatitudeDegrees>42.85187906585633754730224609375</LatitudeDegrees>
              <LongitudeDegrees>0.59892394579946994781494140625</LongitudeDegrees>
            </Position>
            <AltitudeMeters>607.4000244140625</AltitudeMeters>
            <DistanceMeters>76597.854470899</DistanceMeters>
          </Trackpoint>
          <Trackpoint>
            <Time>2019-05-08T12:29:04.000Z</Time>
            <Position>
              <LatitudeDegrees>42.85180329345166683197021484375</LatitudeDegrees>
              <LongitudeDegrees>0.59888237155973911285400390625</LongitudeDegrees>
            </Position>
            <AltitudeMeters>607.20001220703125</AltitudeMeters>
            <DistanceMeters>76606.944808051</DistanceMeters>
          </Trackpoint>
          <Trackpoint>
            <Time>2019-05-08T12:29:06.000Z</Time>
            <Position>
              <LatitudeDegrees>42.85172433592379093170166015625</LatitudeDegrees>
              <LongitudeDegrees>0.59880928136408329010009765625</LongitudeDegrees>
            </Position>
            <AltitudeMeters>607.20001220703125</AltitudeMeters>
            <DistanceMeters>76617.566142478</DistanceMeters>
          </Trackpoint>
          <Trackpoint>
            <Time>2019-05-08T12:29:08.000Z</Time>
            <Position>
              <LatitudeDegrees>42.85164705477654933929443359375</LatitudeDegrees>
              <LongitudeDegrees>0.5987292341887950897216796875</LongitudeDegrees>
            </Position>
            <AltitudeMeters>607</AltitudeMeters>
            <DistanceMeters>76628.366629852</DistanceMeters>
          </Trackpoint>
          <Trackpoint>
            <Time>2019-05-08T12:29:11.000Z</Time>
            <Position>
              <LatitudeDegrees>42.85152300260961055755615234375</LatitudeDegrees>
              <LongitudeDegrees>0.59860342182219028472900390625</LongitudeDegrees>
            </Position>
            <AltitudeMeters>607</AltitudeMeters>
            <DistanceMeters>76645.572239288</DistanceMeters>
          </Trackpoint>
          <Trackpoint>
            <Time>2019-05-08T12:29:12.000Z</Time>
            <Position>
              <LatitudeDegrees>42.85147824324667453765869140625</LatitudeDegrees>
              <LongitudeDegrees>0.59856570325791835784912109375</LongitudeDegrees>
            </Position>
            <AltitudeMeters>606.79998779296875</AltitudeMeters>
            <DistanceMeters>76651.428537635</DistanceMeters>
          </Trackpoint>
          <Trackpoint>
            <Time>2019-05-08T12:29:14.000Z</Time>
            <Position>
              <LatitudeDegrees>42.8513770736753940582275390625</LatitudeDegrees>
              <LongitudeDegrees>0.59850853867828845977783203125</LongitudeDegrees>
            </Position>
            <AltitudeMeters>606.79998779296875</AltitudeMeters>
            <DistanceMeters>76663.616431526</DistanceMeters>
          </Trackpoint>
          <Trackpoint>
            <Time>2019-05-08T12:29:15.000Z</Time>
            <Position>
              <LatitudeDegrees>42.85132133401930332183837890625</LatitudeDegrees>
              <LongitudeDegrees>0.5984933674335479736328125</LongitudeDegrees>
            </Position>
            <AltitudeMeters>606.79998779296875</AltitudeMeters>
            <DistanceMeters>76669.943384101</DistanceMeters>
          </Trackpoint>
          <Trackpoint>
            <Time>2019-05-08T12:29:16.000Z</Time>
            <Position>
              <LatitudeDegrees>42.8512617386877536773681640625</LatitudeDegrees>
              <LongitudeDegrees>0.59848867356777191162109375</LongitudeDegrees>
            </Position>
            <AltitudeMeters>606.5999755859375</AltitudeMeters>
            <DistanceMeters>76676.587783527</DistanceMeters>
          </Trackpoint>
          <Trackpoint>
            <Time>2019-05-08T12:29:19.000Z</Time>
            <Position>
              <LatitudeDegrees>42.8510783426463603973388671875</LatitudeDegrees>
              <LongitudeDegrees>0.59852010570466518402099609375</LongitudeDegrees>
            </Position>
            <AltitudeMeters>606.5999755859375</AltitudeMeters>
            <DistanceMeters>76697.160573394</DistanceMeters>
          </Trackpoint>
          <Trackpoint>
            <Time>2019-05-08T12:29:24.000Z</Time>
            <Position>
              <LatitudeDegrees>42.85076326690614223480224609375</LatitudeDegrees>
              <LongitudeDegrees>0.598607026040554046630859375</LongitudeDegrees>
            </Position>
            <AltitudeMeters>606.4000244140625</AltitudeMeters>
            <DistanceMeters>76732.939235566</DistanceMeters>
          </Trackpoint>
          <Trackpoint>
            <Time>2019-05-08T12:29:26.000Z</Time>
            <Position>
              <LatitudeDegrees>42.8506351076066493988037109375</LatitudeDegrees>
              <LongitudeDegrees>0.598623454570770263671875</LongitudeDegrees>
            </Position>
            <AltitudeMeters>606.5999755859375</AltitudeMeters>
            <DistanceMeters>76747.266541583</DistanceMeters>
          </Trackpoint>
          <Trackpoint>
            <Time>2019-05-08T12:29:30.000Z</Time>
            <Position>
              <LatitudeDegrees>42.8503943793475627899169921875</LatitudeDegrees>
              <LongitudeDegrees>0.59863460250198841094970703125</LongitudeDegrees>
            </Position>
            <AltitudeMeters>606.5999755859375</AltitudeMeters>
            <DistanceMeters>76774.075529709</DistanceMeters>
          </Trackpoint>
          <Trackpoint>
            <Time>2019-05-08T12:29:31.000Z</Time>
            <Position>
              <LatitudeDegrees>42.85033713094890117645263671875</LatitudeDegrees>
              <LongitudeDegrees>0.5986340157687664031982421875</LongitudeDegrees>
            </Position>
            <AltitudeMeters>606.5999755859375</AltitudeMeters>
            <DistanceMeters>76780.447990283</DistanceMeters>
          </Trackpoint>
          <Trackpoint>
            <Time>2019-05-08T12:29:32.000Z</Time>
            <Position>
              <LatitudeDegrees>42.8502770327031612396240234375</LatitudeDegrees>
              <LongitudeDegrees>0.5986303277313709259033203125</LongitudeDegrees>
            </Position>
            <AltitudeMeters>606.5999755859375</AltitudeMeters>
            <DistanceMeters>76787.143834483</DistanceMeters>
          </Trackpoint>
          <Trackpoint>
            <Time>2019-05-08T12:29:33.000Z</Time>
            <Position>
              <LatitudeDegrees>42.8502173535525798797607421875</LatitudeDegrees>
              <LongitudeDegrees>0.59863594360649585723876953125</LongitudeDegrees>
            </Position>
            <AltitudeMeters>606.5999755859375</AltitudeMeters>
            <DistanceMeters>76793.802488651</DistanceMeters>
          </Trackpoint>
          <Trackpoint>
            <Time>2019-05-08T12:29:37.000Z</Time>
            <Position>
              <LatitudeDegrees>42.84998408518731594085693359375</LatitudeDegrees>
              <LongitudeDegrees>0.59866528026759624481201171875</LongitudeDegrees>
            </Position>
            <AltitudeMeters>606.4000244140625</AltitudeMeters>
            <DistanceMeters>76819.875851975</DistanceMeters>
          </Trackpoint>
          <Trackpoint>
            <Time>2019-05-08T12:29:41.000Z</Time>
            <Position>
              <LatitudeDegrees>42.849758528172969818115234375</LatitudeDegrees>
              <LongitudeDegrees>0.59869210235774517059326171875</LongitudeDegrees>
            </Position>
            <AltitudeMeters>606.5999755859375</AltitudeMeters>
            <DistanceMeters>76845.075854474</DistanceMeters>
          </Trackpoint>
          <Trackpoint>
            <Time>2019-05-08T12:29:42.000Z</Time>
            <Position>
              <LatitudeDegrees>42.84970010630786418914794921875</LatitudeDegrees>
              <LongitudeDegrees>0.59869411401450634002685546875</LongitudeDegrees>
            </Position>
            <AltitudeMeters>606.5999755859375</AltitudeMeters>
            <DistanceMeters>76851.579459479</DistanceMeters>
          </Trackpoint>
          <Trackpoint>
            <Time>2019-05-08T12:29:43.000Z</Time>
            <Position>
              <LatitudeDegrees>42.8496386669576168060302734375</LatitudeDegrees>
              <LongitudeDegrees>0.59868455864489078521728515625</LongitudeDegrees>
            </Position>
            <AltitudeMeters>606.5999755859375</AltitudeMeters>
            <DistanceMeters>76858.460863469</DistanceMeters>
          </Trackpoint>
          <Trackpoint>
            <Time>2019-05-08T12:29:44.000Z</Time>
            <Position>
              <LatitudeDegrees>42.84957907162606716156005859375</LatitudeDegrees>
              <LongitudeDegrees>0.5986645258963108062744140625</LongitudeDegrees>
            </Position>
            <AltitudeMeters>606.5999755859375</AltitudeMeters>
            <DistanceMeters>76865.29222022</DistanceMeters>
          </Trackpoint>
          <Trackpoint>
            <Time>2019-05-08T12:29:47.000Z</Time>
            <Position>
              <LatitudeDegrees>42.849423587322235107421875</LatitudeDegrees>
              <LongitudeDegrees>0.59856402687728404998779296875</LongitudeDegrees>
            </Position>
            <AltitudeMeters>606.79998779296875</AltitudeMeters>
            <DistanceMeters>76884.442873595</DistanceMeters>
          </Trackpoint>
          <Trackpoint>
            <Time>2019-05-08T12:29:49.000Z</Time>
            <Position>
              <LatitudeDegrees>42.84933038055896759033203125</LatitudeDegrees>
              <LongitudeDegrees>0.598509795963764190673828125</LongitudeDegrees>
            </Position>
            <AltitudeMeters>606.5999755859375</AltitudeMeters>
            <DistanceMeters>76895.721467783</DistanceMeters>
          </Trackpoint>
          <Trackpoint>
            <Time>2019-05-08T12:29:50.000Z</Time>
            <Position>
              <LatitudeDegrees>42.84927673637866973876953125</LatitudeDegrees>
              <LongitudeDegrees>0.59849412180483341217041015625</LongitudeDegrees>
            </Position>
            <AltitudeMeters>606.5999755859375</AltitudeMeters>
            <DistanceMeters>76901.826887962</DistanceMeters>
          </Trackpoint>
          <Trackpoint>
            <Time>2019-05-08T12:29:51.000Z</Time>
            <Position>
              <LatitudeDegrees>42.84922149963676929473876953125</LatitudeDegrees>
              <LongitudeDegrees>0.59848674573004245758056640625</LongitudeDegrees>
            </Position>
            <AltitudeMeters>606.5999755859375</AltitudeMeters>
            <DistanceMeters>76908.004355328</DistanceMeters>
          </Trackpoint>
          <Trackpoint>
            <Time>2019-05-08T12:29:53.000Z</Time>
            <Position>
              <LatitudeDegrees>42.84910775721073150634765625</LatitudeDegrees>
              <LongitudeDegrees>0.598494708538055419921875</LongitudeDegrees>
            </Position>
            <AltitudeMeters>606.79998779296875</AltitudeMeters>
            <DistanceMeters>76920.680719567</DistanceMeters>
          </Trackpoint>
          <Trackpoint>
            <Time>2019-05-08T12:29:56.000Z</Time>
            <Position>
              <LatitudeDegrees>42.84895420074462890625</LatitudeDegrees>
              <LongitudeDegrees>0.59852630831301212310791015625</LongitudeDegrees>
            </Position>
            <AltitudeMeters>607</AltitudeMeters>
            <DistanceMeters>76937.965135932</DistanceMeters>
          </Trackpoint>
          <Trackpoint>
            <Time>2019-05-08T12:30:03.000Z</Time>
            <Position>
              <LatitudeDegrees>42.84862420521676540374755859375</LatitudeDegrees>
              <LongitudeDegrees>0.59860241599380970001220703125</LongitudeDegrees>
            </Position>
            <AltitudeMeters>607.79998779296875</AltitudeMeters>
            <DistanceMeters>76975.215607965</DistanceMeters>
          </Trackpoint>
          <Trackpoint>
            <Time>2019-05-08T12:30:06.000Z</Time>
            <Position>
              <LatitudeDegrees>42.8484866581857204437255859375</LatitudeDegrees>
              <LongitudeDegrees>0.59864063747227191925048828125</LongitudeDegrees>
            </Position>
            <AltitudeMeters>607.79998779296875</AltitudeMeters>
            <DistanceMeters>76990.839340759</DistanceMeters>
          </Trackpoint>
          <Trackpoint>
            <Time>2019-05-08T12:30:07.000Z</Time>
            <Position>
              <LatitudeDegrees>42.8484405577182769775390625</LatitudeDegrees>
              <LongitudeDegrees>0.5986628495156764984130859375</LongitudeDegrees>
            </Position>
            <AltitudeMeters>608</AltitudeMeters>
            <DistanceMeters>76996.28164273</DistanceMeters>
          </Trackpoint>
          <Trackpoint>
            <Time>2019-05-08T12:30:08.000Z</Time>
            <Position>
              <LatitudeDegrees>42.84839688800275325775146484375</LatitudeDegrees>
              <LongitudeDegrees>0.59869428165256977081298828125</LongitudeDegrees>
            </Position>
            <AltitudeMeters>608.20001220703125</AltitudeMeters>
            <DistanceMeters>77001.776783822</DistanceMeters>
          </Trackpoint>
          <Trackpoint>
            <Time>2019-05-08T12:30:13.000Z</Time>
            <Position>
              <LatitudeDegrees>42.84817493520677089691162109375</LatitudeDegrees>
              <LongitudeDegrees>0.59886661358177661895751953125</LongitudeDegrees>
            </Position>
            <AltitudeMeters>608.5999755859375</AltitudeMeters>
            <DistanceMeters>77030.202798851</DistanceMeters>
          </Trackpoint>
          <Trackpoint>
            <Time>2019-05-08T12:30:16.000Z</Time>
            <Position>
              <LatitudeDegrees>42.84803126938641071319580078125</LatitudeDegrees>
              <LongitudeDegrees>0.5989466607570648193359375</LongitudeDegrees>
            </Position>
            <AltitudeMeters>608.79998779296875</AltitudeMeters>
            <DistanceMeters>77047.475717705</DistanceMeters>
          </Trackpoint>
          <Trackpoint>
            <Time>2019-05-08T12:30:17.000Z</Time>
            <Position>
              <LatitudeDegrees>42.84798634238541126251220703125</LatitudeDegrees>
              <LongitudeDegrees>0.59896602295339107513427734375</LongitudeDegrees>
            </Position>
            <AltitudeMeters>609</AltitudeMeters>
            <DistanceMeters>77052.719436115</DistanceMeters>
          </Trackpoint>
          <Trackpoint>
            <Time>2019-05-08T12:30:21.000Z</Time>
            <Position>
              <LatitudeDegrees>42.84781602211296558380126953125</LatitudeDegrees>
              <LongitudeDegrees>0.5990336649119853973388671875</LongitudeDegrees>
            </Position>
            <AltitudeMeters>609.20001220703125</AltitudeMeters>
            <DistanceMeters>77072.463508646</DistanceMeters>
          </Trackpoint>
          <Trackpoint>
            <Time>2019-05-08T12:30:24.000Z</Time>
            <Position>
              <LatitudeDegrees>42.847681157290935516357421875</LatitudeDegrees>
              <LongitudeDegrees>0.59905705042183399200439453125</LongitudeDegrees>
            </Position>
            <AltitudeMeters>609.4000244140625</AltitudeMeters>
            <DistanceMeters>77087.594853207</DistanceMeters>
          </Trackpoint>
          <Trackpoint>
            <Time>2019-05-08T12:30:29.000Z</Time>
            <Position>
              <LatitudeDegrees>42.84744872711598873138427734375</LatitudeDegrees>
              <LongitudeDegrees>0.599057972431182861328125</LongitudeDegrees>
            </Position>
            <AltitudeMeters>610</AltitudeMeters>
            <DistanceMeters>77113.464992666</DistanceMeters>
          </Trackpoint>
          <Trackpoint>
            <Time>2019-05-08T12:30:32.000Z</Time>
            <Position>
              <LatitudeDegrees>42.84730522893369197845458984375</LatitudeDegrees>
              <LongitudeDegrees>0.5990447290241718292236328125</LongitudeDegrees>
            </Position>
            <AltitudeMeters>610.20001220703125</AltitudeMeters>
            <DistanceMeters>77129.47353943</DistanceMeters>
          </Trackpoint>
          <Trackpoint>
            <Time>2019-05-08T12:30:38.000Z</Time>
            <Position>
              <LatitudeDegrees>42.84704421646893024444580078125</LatitudeDegrees>
              <LongitudeDegrees>0.5990199185907840728759765625</LongitudeDegrees>
            </Position>
            <AltitudeMeters>610.4000244140625</AltitudeMeters>
            <DistanceMeters>77158.595157848</DistanceMeters>
          </Trackpoint>
          <Trackpoint>
            <Time>2019-05-08T12:30:39.000Z</Time>
            <Position>
              <LatitudeDegrees>42.84700565971434116363525390625</LatitudeDegrees>
              <LongitudeDegrees>0.59901597909629344940185546875</LongitudeDegrees>
            </Position>
            <AltitudeMeters>610.5999755859375</AltitudeMeters>
            <DistanceMeters>77162.897675334</DistanceMeters>
          </Trackpoint>
          <Trackpoint>
            <Time>2019-05-08T12:30:41.000Z</Time>
            <Position>
              <LatitudeDegrees>42.84691178239881992340087890625</LatitudeDegrees>
              <LongitudeDegrees>0.599003992974758148193359375</LongitudeDegrees>
            </Position>
            <AltitudeMeters>610.79998779296875</AltitudeMeters>
            <DistanceMeters>77173.391998195</DistanceMeters>
          </Trackpoint>
          <Trackpoint>
            <Time>2019-05-08T12:30:44.000Z</Time>
            <Position>
              <LatitudeDegrees>42.84675252623856067657470703125</LatitudeDegrees>
              <LongitudeDegrees>0.5989833734929561614990234375</LongitudeDegrees>
            </Position>
            <AltitudeMeters>611</AltitudeMeters>
            <DistanceMeters>77191.196769006</DistanceMeters>
          </Trackpoint>
          <Trackpoint>
            <Time>2019-05-08T12:30:46.000Z</Time>
            <Position>
              <LatitudeDegrees>42.8466461598873138427734375</LatitudeDegrees>
              <LongitudeDegrees>0.59897071681916713714599609375</LongitudeDegrees>
            </Position>
            <AltitudeMeters>611</AltitudeMeters>
            <DistanceMeters>77203.080048664</DistanceMeters>
          </Trackpoint>
          <Trackpoint>
            <Time>2019-05-08T12:30:49.000Z</Time>
            <Position>
              <LatitudeDegrees>42.84648698754608631134033203125</LatitudeDegrees>
              <LongitudeDegrees>0.59896686114370822906494140625</LongitudeDegrees>
            </Position>
            <AltitudeMeters>611</AltitudeMeters>
            <DistanceMeters>77220.798900145</DistanceMeters>
          </Trackpoint>
          <Trackpoint>
            <Time>2019-05-08T12:30:52.000Z</Time>
            <Position>
              <LatitudeDegrees>42.84633561037480831146240234375</LatitudeDegrees>
              <LongitudeDegrees>0.59897440485656261444091796875</LongitudeDegrees>
            </Position>
            <AltitudeMeters>611</AltitudeMeters>
            <DistanceMeters>77237.658846063</DistanceMeters>
          </Trackpoint>
          <Trackpoint>
            <Time>2019-05-08T12:31:00.000Z</Time>
            <Position>
              <LatitudeDegrees>42.84591165371239185333251953125</LatitudeDegrees>
              <LongitudeDegrees>0.5989357642829418182373046875</LongitudeDegrees>
            </Position>
            <AltitudeMeters>610.5999755859375</AltitudeMeters>
            <DistanceMeters>77284.951227412</DistanceMeters>
          </Trackpoint>
          <Trackpoint>
            <Time>2019-05-08T12:31:02.000Z</Time>
            <Position>
              <LatitudeDegrees>42.84581400454044342041015625</LatitudeDegrees>
              <LongitudeDegrees>0.59891791082918643951416015625</LongitudeDegrees>
            </Position>
            <AltitudeMeters>610.5999755859375</AltitudeMeters>
            <DistanceMeters>77295.916832636</DistanceMeters>
          </Trackpoint>
          <Trackpoint>
            <Time>2019-05-08T12:31:08.000Z</Time>
            <Position>
              <LatitudeDegrees>42.84553639590740203857421875</LatitudeDegrees>
              <LongitudeDegrees>0.5988559685647487640380859375</LongitudeDegrees>
            </Position>
            <AltitudeMeters>610.79998779296875</AltitudeMeters>
            <DistanceMeters>77327.226080127</DistanceMeters>
          </Trackpoint>
          <Trackpoint>
            <Time>2019-05-08T12:31:12.000Z</Time>
            <Position>
              <LatitudeDegrees>42.8453360684216022491455078125</LatitudeDegrees>
              <LongitudeDegrees>0.59883090667426586151123046875</LongitudeDegrees>
            </Position>
            <AltitudeMeters>610.79998779296875</AltitudeMeters>
            <DistanceMeters>77349.616519695</DistanceMeters>
          </Trackpoint>
          <Trackpoint>
            <Time>2019-05-08T12:31:16.000Z</Time>
            <Position>
              <LatitudeDegrees>42.84514068625867366790771484375</LatitudeDegrees>
              <LongitudeDegrees>0.59880894608795642852783203125</LongitudeDegrees>
            </Position>
            <AltitudeMeters>611</AltitudeMeters>
            <DistanceMeters>77371.436482584</DistanceMeters>
          </Trackpoint>
          <Trackpoint>
            <Time>2019-05-08T12:31:18.000Z</Time>
            <Position>
              <LatitudeDegrees>42.8450430370867252349853515625</LatitudeDegrees>
              <LongitudeDegrees>0.59878145344555377960205078125</LongitudeDegrees>
            </Position>
            <AltitudeMeters>611.20001220703125</AltitudeMeters>
            <DistanceMeters>77382.533877889</DistanceMeters>
          </Trackpoint>
          <Trackpoint>
            <Time>2019-05-08T12:31:22.000Z</Time>
            <Position>
              <LatitudeDegrees>42.84486508928239345550537109375</LatitudeDegrees>
              <LongitudeDegrees>0.59870685450732707977294921875</LongitudeDegrees>
            </Position>
            <AltitudeMeters>611.5999755859375</AltitudeMeters>
            <DistanceMeters>77403.254278091</DistanceMeters>
          </Trackpoint>
          <Trackpoint>
            <Time>2019-05-08T12:31:23.000Z</Time>
            <Position>
              <LatitudeDegrees>42.8448267839848995208740234375</LatitudeDegrees>
              <LongitudeDegrees>0.5986893363296985626220703125</LongitudeDegrees>
            </Position>
            <AltitudeMeters>611.5999755859375</AltitudeMeters>
            <DistanceMeters>77407.750759066</DistanceMeters>
          </Trackpoint>
          <Trackpoint>
            <Time>2019-05-08T12:31:24.000Z</Time>
            <Position>
              <LatitudeDegrees>42.84479074180126190185546875</LatitudeDegrees>
              <LongitudeDegrees>0.5986732430756092071533203125</LongitudeDegrees>
            </Position>
            <AltitudeMeters>611.79998779296875</AltitudeMeters>
            <DistanceMeters>77411.970630005</DistanceMeters>
          </Trackpoint>
          <Trackpoint>
            <Time>2019-05-08T12:31:30.000Z</Time>
            <Position>
              <LatitudeDegrees>42.8445619158446788787841796875</LatitudeDegrees>
              <LongitudeDegrees>0.59859034605324268341064453125</LongitudeDegrees>
            </Position>
            <AltitudeMeters>612</AltitudeMeters>
            <DistanceMeters>77438.322516249</DistanceMeters>
          </Trackpoint>
          <Trackpoint>
            <Time>2019-05-08T12:31:39.000Z</Time>
            <Position>
              <LatitudeDegrees>42.84422974102199077606201171875</LatitudeDegrees>
              <LongitudeDegrees>0.598445422947406768798828125</LongitudeDegrees>
            </Position>
            <AltitudeMeters>614</AltitudeMeters>
            <DistanceMeters>77477.139736856</DistanceMeters>
          </Trackpoint>
          <Trackpoint>
            <Time>2019-05-08T12:31:42.000Z</Time>
            <Position>
              <LatitudeDegrees>42.844129912555217742919921875</LatitudeDegrees>
              <LongitudeDegrees>0.59839001856744289398193359375</LongitudeDegrees>
            </Position>
            <AltitudeMeters>614.4000244140625</AltitudeMeters>
            <DistanceMeters>77489.135706938</DistanceMeters>
          </Trackpoint>
          <Trackpoint>
            <Time>2019-05-08T12:31:46.000Z</Time>
            <Position>
              <LatitudeDegrees>42.84398029558360576629638671875</LatitudeDegrees>
              <LongitudeDegrees>0.59835531748831272125244140625</LongitudeDegrees>
            </Position>
            <AltitudeMeters>614.5999755859375</AltitudeMeters>
            <DistanceMeters>77506.027490605</DistanceMeters>
          </Trackpoint>
          <Trackpoint>
            <Time>2019-05-08T12:31:47.000Z</Time>
            <Position>
              <LatitudeDegrees>42.8439359553158283233642578125</LatitudeDegrees>
              <LongitudeDegrees>0.5983510427176952362060546875</LongitudeDegrees>
            </Position>
            <AltitudeMeters>614.5999755859375</AltitudeMeters>
            <DistanceMeters>77510.974359025</DistanceMeters>
          </Trackpoint>
          <Trackpoint>
            <Time>2019-05-08T12:31:52.000Z</Time>
            <Position>
              <LatitudeDegrees>42.8437005914747714996337890625</LatitudeDegrees>
              <LongitudeDegrees>0.59831324033439159393310546875</LongitudeDegrees>
            </Position>
            <AltitudeMeters>614.5999755859375</AltitudeMeters>
            <DistanceMeters>77537.351762044</DistanceMeters>
          </Trackpoint>
          <Trackpoint>
            <Time>2019-05-08T12:31:53.000Z</Time>
            <Position>
              <LatitudeDegrees>42.84365222789347171783447265625</LatitudeDegrees>
              <LongitudeDegrees>0.5982957221567630767822265625</LongitudeDegrees>
            </Position>
            <AltitudeMeters>614.5999755859375</AltitudeMeters>
            <DistanceMeters>77542.921981309</DistanceMeters>
          </Trackpoint>
          <Trackpoint>
            <Time>2019-05-08T12:31:57.000Z</Time>
            <Position>
              <LatitudeDegrees>42.84346564672887325286865234375</LatitudeDegrees>
              <LongitudeDegrees>0.598204024136066436767578125</LongitudeDegrees>
            </Position>
            <AltitudeMeters>614.4000244140625</AltitudeMeters>
            <DistanceMeters>77564.996014128</DistanceMeters>
          </Trackpoint>
          <Trackpoint>
            <Time>2019-05-08T12:32:00.000Z</Time>
            <Position>
              <LatitudeDegrees>42.8433391638100147247314453125</LatitudeDegrees>
              <LongitudeDegrees>0.5981257371604442596435546875</LongitudeDegrees>
            </Position>
            <AltitudeMeters>614.20001220703125</AltitudeMeters>
            <DistanceMeters>77580.455607695</DistanceMeters>
          </Trackpoint>
          <Trackpoint>
            <Time>2019-05-08T12:32:02.000Z</Time>
            <Position>
              <LatitudeDegrees>42.8432617150247097015380859375</LatitudeDegrees>
              <LongitudeDegrees>0.59807360172271728515625</LongitudeDegrees>
            </Position>
            <AltitudeMeters>614</AltitudeMeters>
            <DistanceMeters>77590.068817478</DistanceMeters>
          </Trackpoint>
          <Trackpoint>
            <Time>2019-05-08T12:32:04.000Z</Time>
            <Position>
              <LatitudeDegrees>42.84318552352488040924072265625</LatitudeDegrees>
              <LongitudeDegrees>0.59801568277180194854736328125</LongitudeDegrees>
            </Position>
            <AltitudeMeters>613.79998779296875</AltitudeMeters>
            <DistanceMeters>77599.777367211</DistanceMeters>
          </Trackpoint>
          <Trackpoint>
            <Time>2019-05-08T12:32:07.000Z</Time>
            <Position>
              <LatitudeDegrees>42.8430707752704620361328125</LatitudeDegrees>
              <LongitudeDegrees>0.5979393236339092254638671875</LongitudeDegrees>
            </Position>
            <AltitudeMeters>613.5999755859375</AltitudeMeters>
            <DistanceMeters>77613.988230295</DistanceMeters>
          </Trackpoint>
          <Trackpoint>
            <Time>2019-05-08T12:32:13.000Z</Time>
            <Position>
              <LatitudeDegrees>42.84284857101738452911376953125</LatitudeDegrees>
              <LongitudeDegrees>0.59785776771605014801025390625</LongitudeDegrees>
            </Position>
            <AltitudeMeters>613.5999755859375</AltitudeMeters>
            <DistanceMeters>77639.600001281</DistanceMeters>
          </Trackpoint>
          <Trackpoint>
            <Time>2019-05-08T12:32:14.000Z</Time>
            <Position>
              <LatitudeDegrees>42.84281588159501552581787109375</LatitudeDegrees>
              <LongitudeDegrees>0.59784502722322940826416015625</LongitudeDegrees>
            </Position>
            <AltitudeMeters>613.79998779296875</AltitudeMeters>
            <DistanceMeters>77643.384403643</DistanceMeters>
          </Trackpoint>
          <Trackpoint>
            <Time>2019-05-08T12:32:16.000Z</Time>
            <Position>
              <LatitudeDegrees>42.84276592545211315155029296875</LatitudeDegrees>
              <LongitudeDegrees>0.5978333763778209686279296875</LongitudeDegrees>
            </Position>
            <AltitudeMeters>613.5999755859375</AltitudeMeters>
            <DistanceMeters>77649.025501886</DistanceMeters>
          </Trackpoint>
          <Trackpoint>
            <Time>2019-05-08T12:32:18.000Z</Time>
            <Position>
              <LatitudeDegrees>42.8427246026694774627685546875</LatitudeDegrees>
              <LongitudeDegrees>0.59784888289868831634521484375</LongitudeDegrees>
            </Position>
            <AltitudeMeters>613.79998779296875</AltitudeMeters>
            <DistanceMeters>77653.795805088</DistanceMeters>
          </Trackpoint>
          <Trackpoint>
            <Time>2019-05-08T12:32:23.000Z</Time>
            <Position>
              <LatitudeDegrees>42.84262410365045070648193359375</LatitudeDegrees>
              <LongitudeDegrees>0.59784703887999057769775390625</LongitudeDegrees>
            </Position>
            <AltitudeMeters>614.79998779296875</AltitudeMeters>
            <DistanceMeters>77664.982754156</DistanceMeters>
          </Trackpoint>
          <Trackpoint>
            <Time>2019-05-08T12:32:24.000Z</Time>
            <Position>
              <LatitudeDegrees>42.84260717220604419708251953125</LatitudeDegrees>
              <LongitudeDegrees>0.5978451110422611236572265625</LongitudeDegrees>
            </Position>
            <AltitudeMeters>615.20001220703125</AltitudeMeters>
            <DistanceMeters>77666.873761896</DistanceMeters>
          </Trackpoint>
          <Trackpoint>
            <Time>2019-05-08T12:32:27.000Z</Time>
            <Position>
              <LatitudeDegrees>42.84255243837833404541015625</LatitudeDegrees>
              <LongitudeDegrees>0.5978353880345821380615234375</LongitudeDegrees>
            </Position>
            <AltitudeMeters>616.20001220703125</AltitudeMeters>
            <DistanceMeters>77673.01751641</DistanceMeters>
          </Trackpoint>
          <Trackpoint>
            <Time>2019-05-08T12:32:30.000Z</Time>
            <Position>
              <LatitudeDegrees>42.8424932621419429779052734375</LatitudeDegrees>
              <LongitudeDegrees>0.5978219769895076751708984375</LongitudeDegrees>
            </Position>
            <AltitudeMeters>616.5999755859375</AltitudeMeters>
            <DistanceMeters>77679.695129568</DistanceMeters>
          </Trackpoint>
          <Trackpoint>
            <Time>2019-05-08T12:32:31.000Z</Time>
            <Position>
              <LatitudeDegrees>42.8424721397459506988525390625</LatitudeDegrees>
              <LongitudeDegrees>0.597830526530742645263671875</LongitudeDegrees>
            </Position>
            <AltitudeMeters>616.4000244140625</AltitudeMeters>
            <DistanceMeters>77682.147481686</DistanceMeters>
          </Trackpoint>
          <Trackpoint>
            <Time>2019-05-08T12:32:32.000Z</Time>
            <Position>
              <LatitudeDegrees>42.8424469940364360809326171875</LatitudeDegrees>
              <LongitudeDegrees>0.597842596471309661865234375</LongitudeDegrees>
            </Position>
            <AltitudeMeters>616.5999755859375</AltitudeMeters>
            <DistanceMeters>77685.116211146</DistanceMeters>
          </Trackpoint>
          <Trackpoint>
            <Time>2019-05-08T12:32:34.000Z</Time>
            <Position>
              <LatitudeDegrees>42.84238345921039581298828125</LatitudeDegrees>
              <LongitudeDegrees>0.59786103665828704833984375</LongitudeDegrees>
            </Position>
            <AltitudeMeters>616.79998779296875</AltitudeMeters>
            <DistanceMeters>77692.346364155</DistanceMeters>
          </Trackpoint>
          <Trackpoint>
            <Time>2019-05-08T12:32:35.000Z</Time>
            <Position>
              <LatitudeDegrees>42.84234817139804363250732421875</LatitudeDegrees>
              <LongitudeDegrees>0.597858689725399017333984375</LongitudeDegrees>
            </Position>
            <AltitudeMeters>617.20001220703125</AltitudeMeters>
            <DistanceMeters>77696.278220062</DistanceMeters>
          </Trackpoint>
          <Trackpoint>
            <Time>2019-05-08T12:32:36.000Z</Time>
            <Position>
              <LatitudeDegrees>42.84231883473694324493408203125</LatitudeDegrees>
              <LongitudeDegrees>0.59785139746963977813720703125</LongitudeDegrees>
            </Position>
            <AltitudeMeters>617.5999755859375</AltitudeMeters>
            <DistanceMeters>77699.597360502</DistanceMeters>
          </Trackpoint>
          <Trackpoint>
            <Time>2019-05-08T12:32:41.000Z</Time>
            <Position>
              <LatitudeDegrees>42.8421670384705066680908203125</LatitudeDegrees>
              <LongitudeDegrees>0.59780160896480083465576171875</LongitudeDegrees>
            </Position>
            <AltitudeMeters>617.79998779296875</AltitudeMeters>
            <DistanceMeters>77716.974262591</DistanceMeters>
          </Trackpoint>
          <Trackpoint>
            <Time>2019-05-08T12:32:45.000Z</Time>
            <Position>
              <LatitudeDegrees>42.8420300781726837158203125</LatitudeDegrees>
              <LongitudeDegrees>0.597768835723400115966796875</LongitudeDegrees>
            </Position>
            <AltitudeMeters>618</AltitudeMeters>
            <DistanceMeters>77732.45107776</DistanceMeters>
          </Trackpoint>
          <Trackpoint>
            <Time>2019-05-08T12:32:46.000Z</Time>
            <Position>
              <LatitudeDegrees>42.841982804238796234130859375</LatitudeDegrees>
              <LongitudeDegrees>0.59775165282189846038818359375</LongitudeDegrees>
            </Position>
            <AltitudeMeters>618</AltitudeMeters>
            <DistanceMeters>77737.896697196</DistanceMeters>
          </Trackpoint>
          <Trackpoint>
            <Time>2019-05-08T12:32:47.000Z</Time>
            <Position>
              <LatitudeDegrees>42.84192555584013462066650390625</LatitudeDegrees>
              <LongitudeDegrees>0.5977378226816654205322265625</LongitudeDegrees>
            </Position>
            <AltitudeMeters>618</AltitudeMeters>
            <DistanceMeters>77744.367590833</DistanceMeters>
          </Trackpoint>
          <Trackpoint>
            <Time>2019-05-08T12:32:48.000Z</Time>
            <Position>
              <LatitudeDegrees>42.84186788834631443023681640625</LatitudeDegrees>
              <LongitudeDegrees>0.59772466309368610382080078125</LongitudeDegrees>
            </Position>
            <AltitudeMeters>617.5999755859375</AltitudeMeters>
            <DistanceMeters>77750.875359923</DistanceMeters>
          </Trackpoint>
          <Trackpoint>
            <Time>2019-05-08T12:32:49.000Z</Time>
            <Position>
              <LatitudeDegrees>42.84181340597569942474365234375</LatitudeDegrees>
              <LongitudeDegrees>0.59771661646664142608642578125</LongitudeDegrees>
            </Position>
            <AltitudeMeters>617.79998779296875</AltitudeMeters>
            <DistanceMeters>77756.974861128</DistanceMeters>
          </Trackpoint>
          <Trackpoint>
            <Time>2019-05-08T12:32:51.000Z</Time>
            <Position>
              <LatitudeDegrees>42.8416974842548370361328125</LatitudeDegrees>
              <LongitudeDegrees>0.59772835113108158111572265625</LongitudeDegrees>
            </Position>
            <AltitudeMeters>617.5999755859375</AltitudeMeters>
            <DistanceMeters>77769.912810233</DistanceMeters>
          </Trackpoint>
          <Trackpoint>
            <Time>2019-05-08T12:32:52.000Z</Time>
            <Position>
              <LatitudeDegrees>42.84164861775934696197509765625</LatitudeDegrees>
              <LongitudeDegrees>0.5977492220699787139892578125</LongitudeDegrees>
            </Position>
            <AltitudeMeters>617.4000244140625</AltitudeMeters>
            <DistanceMeters>77775.612829096</DistanceMeters>
          </Trackpoint>
          <Trackpoint>
            <Time>2019-05-08T12:32:53.000Z</Time>
            <Position>
              <LatitudeDegrees>42.84160100854933261871337890625</LatitudeDegrees>
              <LongitudeDegrees>0.5977763794362545013427734375</LongitudeDegrees>
            </Position>
            <AltitudeMeters>617.4000244140625</AltitudeMeters>
            <DistanceMeters>77781.357034814</DistanceMeters>
          </Trackpoint>
          <Trackpoint>
            <Time>2019-05-08T12:32:54.000Z</Time>
            <Position>
              <LatitudeDegrees>42.84155239351093769073486328125</LatitudeDegrees>
              <LongitudeDegrees>0.59780965559184551239013671875</LongitudeDegrees>
            </Position>
            <AltitudeMeters>617.20001220703125</AltitudeMeters>
            <DistanceMeters>77787.410467742</DistanceMeters>
          </Trackpoint>
          <Trackpoint>
            <Time>2019-05-08T12:32:55.000Z</Time>
            <Position>
              <LatitudeDegrees>42.84150562249124050140380859375</LatitudeDegrees>
              <LongitudeDegrees>0.59784720651805400848388671875</LongitudeDegrees>
            </Position>
            <AltitudeMeters>616.5999755859375</AltitudeMeters>
            <DistanceMeters>77793.451207672</DistanceMeters>
          </Trackpoint>
          <Trackpoint>
            <Time>2019-05-08T12:32:56.000Z</Time>
            <Position>
              <LatitudeDegrees>42.84145197831094264984130859375</LatitudeDegrees>
              <LongitudeDegrees>0.5978783033788204193115234375</LongitudeDegrees>
            </Position>
            <AltitudeMeters>616.20001220703125</AltitudeMeters>
            <DistanceMeters>77799.93812961</DistanceMeters>
          </Trackpoint>
          <Trackpoint>
            <Time>2019-05-08T12:32:57.000Z</Time>
            <Position>
              <LatitudeDegrees>42.84140135161578655242919921875</LatitudeDegrees>
              <LongitudeDegrees>0.59790126979351043701171875</LongitudeDegrees>
            </Position>
            <AltitudeMeters>615.20001220703125</AltitudeMeters>
            <DistanceMeters>77805.875588531</DistanceMeters>
          </Trackpoint>
          <Trackpoint>
            <Time>2019-05-08T12:33:00.000Z</Time>
            <Position>
              <LatitudeDegrees>42.84128375351428985595703125</LatitudeDegrees>
              <LongitudeDegrees>0.59794284403324127197265625</LongitudeDegrees>
            </Position>
            <AltitudeMeters>613.5999755859375</AltitudeMeters>
            <DistanceMeters>77819.396791424</DistanceMeters>
          </Trackpoint>
          <Trackpoint>
            <Time>2019-05-08T12:33:01.000Z</Time>
            <Position>
              <LatitudeDegrees>42.84124863334000110626220703125</LatitudeDegrees>
              <LongitudeDegrees>0.59795516543090343475341796875</LongitudeDegrees>
            </Position>
            <AltitudeMeters>612</AltitudeMeters>
            <DistanceMeters>77823.432910588</DistanceMeters>
          </Trackpoint>
          <Trackpoint>
            <Time>2019-05-08T12:33:03.000Z</Time>
            <Position>
              <LatitudeDegrees>42.84117621369659900665283203125</LatitudeDegrees>
              <LongitudeDegrees>0.597974024713039398193359375</LongitudeDegrees>
            </Position>
            <AltitudeMeters>611</AltitudeMeters>
            <DistanceMeters>77831.638289919</DistanceMeters>
          </Trackpoint>
          <Trackpoint>
            <Time>2019-05-08T12:33:06.000Z</Time>
            <Position>
              <LatitudeDegrees>42.841069512069225311279296875</LatitudeDegrees>
              <LongitudeDegrees>0.59801400639116764068603515625</LongitudeDegrees>
            </Position>
            <AltitudeMeters>610.5999755859375</AltitudeMeters>
            <DistanceMeters>77843.954426656</DistanceMeters>
          </Trackpoint>
          <Trackpoint>
            <Time>2019-05-08T12:33:10.000Z</Time>
            <Position>
              <LatitudeDegrees>42.8409268520772457122802734375</LatitudeDegrees>
              <LongitudeDegrees>0.59806781820952892303466796875</LongitudeDegrees>
            </Position>
            <AltitudeMeters>610.5999755859375</AltitudeMeters>
            <DistanceMeters>77860.428891066</DistanceMeters>
          </Trackpoint>
          <Trackpoint>
            <Time>2019-05-08T12:33:12.000Z</Time>
            <Position>
              <LatitudeDegrees>42.84085401333868503570556640625</LatitudeDegrees>
              <LongitudeDegrees>0.5980969034135341644287109375</LongitudeDegrees>
            </Position>
            <AltitudeMeters>610.79998779296875</AltitudeMeters>
            <DistanceMeters>77868.876653736</DistanceMeters>
          </Trackpoint>
          <Trackpoint>
            <Time>2019-05-08T12:33:15.000Z</Time>
            <Position>
              <LatitudeDegrees>42.84074270166456699371337890625</LatitudeDegrees>
              <LongitudeDegrees>0.59811257757246494293212890625</LongitudeDegrees>
            </Position>
            <AltitudeMeters>611.20001220703125</AltitudeMeters>
            <DistanceMeters>77881.332042662</DistanceMeters>
          </Trackpoint>
          <Trackpoint>
            <Time>2019-05-08T12:33:18.000Z</Time>
            <Position>
              <LatitudeDegrees>42.840618900954723358154296875</LatitudeDegrees>
              <LongitudeDegrees>0.598153732717037200927734375</LongitudeDegrees>
            </Position>
            <AltitudeMeters>611.79998779296875</AltitudeMeters>
            <DistanceMeters>77895.515237399</DistanceMeters>
          </Trackpoint>
          <Trackpoint>
            <Time>2019-05-08T12:33:19.000Z</Time>
            <Position>
              <LatitudeDegrees>42.84058780409395694732666015625</LatitudeDegrees>
              <LongitudeDegrees>0.59816068969666957855224609375</LongitudeDegrees>
            </Position>
            <AltitudeMeters>612</AltitudeMeters>
            <DistanceMeters>77899.022225297</DistanceMeters>
          </Trackpoint>
          <Trackpoint>
            <Time>2019-05-08T12:33:22.000Z</Time>
            <Position>
              <LatitudeDegrees>42.84047699533402919769287109375</LatitudeDegrees>
              <LongitudeDegrees>0.598159767687320709228515625</LongitudeDegrees>
            </Position>
            <AltitudeMeters>612.5999755859375</AltitudeMeters>
            <DistanceMeters>77911.355579979</DistanceMeters>
          </Trackpoint>
          <Trackpoint>
            <Time>2019-05-08T12:33:25.000Z</Time>
            <Position>
              <LatitudeDegrees>42.84038445912301540374755859375</LatitudeDegrees>
              <LongitudeDegrees>0.59813856147229671478271484375</LongitudeDegrees>
            </Position>
            <AltitudeMeters>614</AltitudeMeters>
            <DistanceMeters>77921.799011565</DistanceMeters>
          </Trackpoint>
          <Trackpoint>
            <Time>2019-05-08T12:33:27.000Z</Time>
            <Position>
              <LatitudeDegrees>42.840310446918010711669921875</LatitudeDegrees>
              <LongitudeDegrees>0.598141662776470184326171875</LongitudeDegrees>
            </Position>
            <AltitudeMeters>614.5999755859375</AltitudeMeters>
            <DistanceMeters>77930.040627608</DistanceMeters>
          </Trackpoint>
          <Trackpoint>
            <Time>2019-05-08T12:33:33.000Z</Time>
            <Position>
              <LatitudeDegrees>42.8401496820151805877685546875</LatitudeDegrees>
              <LongitudeDegrees>0.59815415181219577789306640625</LongitudeDegrees>
            </Position>
            <AltitudeMeters>615.5999755859375</AltitudeMeters>
            <DistanceMeters>77947.963179861</DistanceMeters>
          </Trackpoint>
          <Trackpoint>
            <Time>2019-05-08T12:33:35.000Z</Time>
            <Position>
              <LatitudeDegrees>42.8401174955070018768310546875</LatitudeDegrees>
              <LongitudeDegrees>0.59814811684191226959228515625</LongitudeDegrees>
            </Position>
            <AltitudeMeters>615.5999755859375</AltitudeMeters>
            <DistanceMeters>77951.579192955</DistanceMeters>
          </Trackpoint>
          <Trackpoint>
            <Time>2019-05-08T12:33:39.000Z</Time>
            <Position>
              <LatitudeDegrees>42.84004113636910915374755859375</LatitudeDegrees>
              <LongitudeDegrees>0.59812045656144618988037109375</LongitudeDegrees>
            </Position>
            <AltitudeMeters>616.20001220703125</AltitudeMeters>
            <DistanceMeters>77960.373143982</DistanceMeters>
          </Trackpoint>
          <Trackpoint>
            <Time>2019-05-08T12:33:40.000Z</Time>
            <Position>
              <LatitudeDegrees>42.84002303145825862884521484375</LatitudeDegrees>
              <LongitudeDegrees>0.5981071293354034423828125</LongitudeDegrees>
            </Position>
            <AltitudeMeters>616.20001220703125</AltitudeMeters>
            <DistanceMeters>77962.661690319</DistanceMeters>
          </Trackpoint>
          <Trackpoint>
            <Time>2019-05-08T12:33:43.000Z</Time>
            <Position>
              <LatitudeDegrees>42.83996335230767726898193359375</LatitudeDegrees>
              <LongitudeDegrees>0.59808231890201568603515625</LongitudeDegrees>
            </Position>
            <AltitudeMeters>617.79998779296875</AltitudeMeters>
            <DistanceMeters>77969.605796324</DistanceMeters>
          </Trackpoint>
          <Trackpoint>
            <Time>2019-05-08T12:33:44.000Z</Time>
            <Position>
              <LatitudeDegrees>42.8399408049881458282470703125</LatitudeDegrees>
              <LongitudeDegrees>0.59807695448398590087890625</LongitudeDegrees>
            </Position>
            <AltitudeMeters>618.4000244140625</AltitudeMeters>
            <DistanceMeters>77972.152086741</DistanceMeters>
          </Trackpoint>
          <Trackpoint>
            <Time>2019-05-08T12:33:46.000Z</Time>
            <Position>
              <LatitudeDegrees>42.83988808281719684600830078125</LatitudeDegrees>
              <LongitudeDegrees>0.5980660580098628997802734375</LongitudeDegrees>
            </Position>
            <AltitudeMeters>618.79998779296875</AltitudeMeters>
            <DistanceMeters>77978.087263925</DistanceMeters>
          </Trackpoint>
          <Trackpoint>
            <Time>2019-05-08T12:33:51.000Z</Time>
            <Position>
              <LatitudeDegrees>42.8397771902382373809814453125</LatitudeDegrees>
              <LongitudeDegrees>0.5980549938976764678955078125</LongitudeDegrees>
            </Position>
            <AltitudeMeters>620.4000244140625</AltitudeMeters>
            <DistanceMeters>77990.462646606</DistanceMeters>
          </Trackpoint>
          <Trackpoint>
            <Time>2019-05-08T12:33:56.000Z</Time>
            <Position>
              <LatitudeDegrees>42.8395946323871612548828125</LatitudeDegrees>
              <LongitudeDegrees>0.5980288423597812652587890625</LongitudeDegrees>
            </Position>
            <AltitudeMeters>622</AltitudeMeters>
            <DistanceMeters>78010.893169202</DistanceMeters>
          </Trackpoint>
          <Trackpoint>
            <Time>2019-05-08T12:34:02.000Z</Time>
            <Position>
              <LatitudeDegrees>42.83942841924726963043212890625</LatitudeDegrees>
              <LongitudeDegrees>0.59803496114909648895263671875</LongitudeDegrees>
            </Position>
            <AltitudeMeters>622.4000244140625</AltitudeMeters>
            <DistanceMeters>78029.399728562</DistanceMeters>
          </Trackpoint>
          <Trackpoint>
            <Time>2019-05-08T12:34:08.000Z</Time>
            <Position>
              <LatitudeDegrees>42.83923731185495853424072265625</LatitudeDegrees>
              <LongitudeDegrees>0.5980181135237216949462890625</LongitudeDegrees>
            </Position>
            <AltitudeMeters>622.5999755859375</AltitudeMeters>
            <DistanceMeters>78050.714752281</DistanceMeters>
          </Trackpoint>
          <Trackpoint>
            <Time>2019-05-08T12:34:13.000Z</Time>
            <Position>
              <LatitudeDegrees>42.83906732685863971710205078125</LatitudeDegrees>
              <LongitudeDegrees>0.59797410853207111358642578125</LongitudeDegrees>
            </Position>
            <AltitudeMeters>622.5999755859375</AltitudeMeters>
            <DistanceMeters>78069.97261404</DistanceMeters>
          </Trackpoint>
          <Trackpoint>
            <Time>2019-05-08T12:34:14.000Z</Time>
            <Position>
              <LatitudeDegrees>42.839032709598541259765625</LatitudeDegrees>
              <LongitudeDegrees>0.59796388261020183563232421875</LongitudeDegrees>
            </Position>
            <AltitudeMeters>622.5999755859375</AltitudeMeters>
            <DistanceMeters>78073.915936451</DistanceMeters>
          </Trackpoint>
          <Trackpoint>
            <Time>2019-05-08T12:34:18.000Z</Time>
            <Position>
              <LatitudeDegrees>42.838869430124759674072265625</LatitudeDegrees>
              <LongitudeDegrees>0.59795885346829891204833984375</LongitudeDegrees>
            </Position>
            <AltitudeMeters>622.5999755859375</AltitudeMeters>
            <DistanceMeters>78092.094127159</DistanceMeters>
          </Trackpoint>
          <Trackpoint>
            <Time>2019-05-08T12:34:20.000Z</Time>
            <Position>
              <LatitudeDegrees>42.83878904767334461212158203125</LatitudeDegrees>
              <LongitudeDegrees>0.597958266735076904296875</LongitudeDegrees>
            </Position>
            <AltitudeMeters>622.4000244140625</AltitudeMeters>
            <DistanceMeters>78101.04078003</DistanceMeters>
          </Trackpoint>
          <Trackpoint>
            <Time>2019-05-08T12:34:22.000Z</Time>
            <Position>
              <LatitudeDegrees>42.83871780149638652801513671875</LatitudeDegrees>
              <LongitudeDegrees>0.59795784763991832733154296875</LongitudeDegrees>
            </Position>
            <AltitudeMeters>622.5999755859375</AltitudeMeters>
            <DistanceMeters>78108.970814857</DistanceMeters>
          </Trackpoint>
          <Trackpoint>
            <Time>2019-05-08T12:34:25.000Z</Time>
            <Position>
              <LatitudeDegrees>42.83861696720123291015625</LatitudeDegrees>
              <LongitudeDegrees>0.59799187816679477691650390625</LongitudeDegrees>
            </Position>
            <AltitudeMeters>622.79998779296875</AltitudeMeters>
            <DistanceMeters>78120.532094696</DistanceMeters>
          </Trackpoint>
          <Trackpoint>
            <Time>2019-05-08T12:34:27.000Z</Time>
            <Position>
              <LatitudeDegrees>42.838554941117763519287109375</LatitudeDegrees>
              <LongitudeDegrees>0.598017610609531402587890625</LongitudeDegrees>
            </Position>
            <AltitudeMeters>622.5999755859375</AltitudeMeters>
            <DistanceMeters>78127.747244778</DistanceMeters>
          </Trackpoint>
          <Trackpoint>
            <Time>2019-05-08T12:34:30.000Z</Time>
            <Position>
              <LatitudeDegrees>42.838479839265346527099609375</LatitudeDegrees>
              <LongitudeDegrees>0.59807435609400272369384765625</LongitudeDegrees>
            </Position>
            <AltitudeMeters>622.79998779296875</AltitudeMeters>
            <DistanceMeters>78137.303455485</DistanceMeters>
          </Trackpoint>
          <Trackpoint>
            <Time>2019-05-08T12:34:31.000Z</Time>
            <Position>
              <LatitudeDegrees>42.83844354562461376190185546875</LatitudeDegrees>
              <LongitudeDegrees>0.598092712461948394775390625</LongitudeDegrees>
            </Position>
            <AltitudeMeters>622.79998779296875</AltitudeMeters>
            <DistanceMeters>78141.610168502</DistanceMeters>
          </Trackpoint>
          <Trackpoint>
            <Time>2019-05-08T12:34:34.000Z</Time>
            <Position>
              <LatitudeDegrees>42.8383603133261203765869140625</LatitudeDegrees>
              <LongitudeDegrees>0.59815683402121067047119140625</LongitudeDegrees>
            </Position>
            <AltitudeMeters>622.79998779296875</AltitudeMeters>
            <DistanceMeters>78152.249766159</DistanceMeters>
          </Trackpoint>
          <Trackpoint>
            <Time>2019-05-08T12:34:36.000Z</Time>
            <Position>
              <LatitudeDegrees>42.83829954452812671661376953125</LatitudeDegrees>
              <LongitudeDegrees>0.59820008464157581329345703125</LongitudeDegrees>
            </Position>
            <AltitudeMeters>622.79998779296875</AltitudeMeters>
            <DistanceMeters>78159.879174574</DistanceMeters>
          </Trackpoint>
          <Trackpoint>
            <Time>2019-05-08T12:34:37.000Z</Time>
            <Position>
              <LatitudeDegrees>42.83827565610408782958984375</LatitudeDegrees>
              <LongitudeDegrees>0.59822170995175838470458984375</LongitudeDegrees>
            </Position>
            <AltitudeMeters>623</AltitudeMeters>
            <DistanceMeters>78163.070714364</DistanceMeters>
          </Trackpoint>
          <Trackpoint>
            <Time>2019-05-08T12:34:39.000Z</Time>
            <Position>
              <LatitudeDegrees>42.83818705938756465911865234375</LatitudeDegrees>
              <LongitudeDegrees>0.5982400663197040557861328125</LongitudeDegrees>
            </Position>
            <AltitudeMeters>623</AltitudeMeters>
            <DistanceMeters>78173.044445968</DistanceMeters>
          </Trackpoint>
          <Trackpoint>
            <Time>2019-05-08T12:34:40.000Z</Time>
            <Position>
              <LatitudeDegrees>42.8381443955004215240478515625</LatitudeDegrees>
              <LongitudeDegrees>0.59825037606060504913330078125</LongitudeDegrees>
            </Position>
            <AltitudeMeters>622.79998779296875</AltitudeMeters>
            <DistanceMeters>78177.867461302</DistanceMeters>
          </Trackpoint>
          <Trackpoint>
            <Time>2019-05-08T12:34:41.000Z</Time>
            <Position>
              <LatitudeDegrees>42.8380820341408252716064453125</LatitudeDegrees>
              <LongitudeDegrees>0.5982466042041778564453125</LongitudeDegrees>
            </Position>
            <AltitudeMeters>622.79998779296875</AltitudeMeters>
            <DistanceMeters>78184.815467395</DistanceMeters>
          </Trackpoint>
          <Trackpoint>
            <Time>2019-05-08T12:34:42.000Z</Time>
            <Position>
              <LatitudeDegrees>42.83802093006670475006103515625</LatitudeDegrees>
              <LongitudeDegrees>0.5982383899390697479248046875</LongitudeDegrees>
            </Position>
            <AltitudeMeters>622.5999755859375</AltitudeMeters>
            <DistanceMeters>78191.649467349</DistanceMeters>
          </Trackpoint>
          <Trackpoint>
            <Time>2019-05-08T12:34:43.000Z</Time>
            <Position>
              <LatitudeDegrees>42.8379579819738864898681640625</LatitudeDegrees>
              <LongitudeDegrees>0.598218776285648345947265625</LongitudeDegrees>
            </Position>
            <AltitudeMeters>622.4000244140625</AltitudeMeters>
            <DistanceMeters>78198.836402528</DistanceMeters>
          </Trackpoint>
          <Trackpoint>
            <Time>2019-05-08T12:34:46.000Z</Time>
            <Position>
              <LatitudeDegrees>42.8377474285662174224853515625</LatitudeDegrees>
              <LongitudeDegrees>0.59809363447129726409912109375</LongitudeDegrees>
            </Position>
            <AltitudeMeters>621.5999755859375</AltitudeMeters>
            <DistanceMeters>78224.400354928</DistanceMeters>
          </Trackpoint>
          <Trackpoint>
            <Time>2019-05-08T12:34:47.000Z</Time>
            <Position>
              <LatitudeDegrees>42.83766922540962696075439453125</LatitudeDegrees>
              <LongitudeDegrees>0.59805960394442081451416015625</LongitudeDegrees>
            </Position>
            <AltitudeMeters>621</AltitudeMeters>
            <DistanceMeters>78233.53676706</DistanceMeters>
          </Trackpoint>
          <Trackpoint>
            <Time>2019-05-08T12:34:49.000Z</Time>
            <Position>
              <LatitudeDegrees>42.8374896012246608734130859375</LatitudeDegrees>
              <LongitudeDegrees>0.59804904274642467498779296875</LongitudeDegrees>
            </Position>
            <AltitudeMeters>620</AltitudeMeters>
            <DistanceMeters>78253.547506922</DistanceMeters>
          </Trackpoint>
          <Trackpoint>
            <Time>2019-05-08T12:34:50.000Z</Time>
            <Position>
              <LatitudeDegrees>42.83739379607141017913818359375</LatitudeDegrees>
              <LongitudeDegrees>0.5980553291738033294677734375</LongitudeDegrees>
            </Position>
            <AltitudeMeters>619.5999755859375</AltitudeMeters>
            <DistanceMeters>78264.22311439</DistanceMeters>
          </Trackpoint>
          <Trackpoint>
            <Time>2019-05-08T12:34:51.000Z</Time>
            <Position>
              <LatitudeDegrees>42.83728449605405330657958984375</LatitudeDegrees>
              <LongitudeDegrees>0.5980777926743030548095703125</LongitudeDegrees>
            </Position>
            <AltitudeMeters>618.4000244140625</AltitudeMeters>
            <DistanceMeters>78276.525679621</DistanceMeters>
          </Trackpoint>
          <Trackpoint>
            <Time>2019-05-08T12:34:53.000Z</Time>
            <Position>
              <LatitudeDegrees>42.837093807756900787353515625</LatitudeDegrees>
              <LongitudeDegrees>0.59818516485393047332763671875</LongitudeDegrees>
            </Position>
            <AltitudeMeters>617.4000244140625</AltitudeMeters>
            <DistanceMeters>78299.487563329</DistanceMeters>
          </Trackpoint>
          <Trackpoint>
            <Time>2019-05-08T12:34:55.000Z</Time>
            <Position>
              <LatitudeDegrees>42.83695123158395290374755859375</LatitudeDegrees>
              <LongitudeDegrees>0.5983217060565948486328125</LongitudeDegrees>
            </Position>
            <AltitudeMeters>616.5999755859375</AltitudeMeters>
            <DistanceMeters>78318.878602062</DistanceMeters>
          </Trackpoint>
          <Trackpoint>
            <Time>2019-05-08T12:34:57.000Z</Time>
            <Position>
              <LatitudeDegrees>42.836815528571605682373046875</LatitudeDegrees>
              <LongitudeDegrees>0.59846176765859127044677734375</LongitudeDegrees>
            </Position>
            <AltitudeMeters>614.79998779296875</AltitudeMeters>
            <DistanceMeters>78337.820646762</DistanceMeters>
          </Trackpoint>
          <Trackpoint>
            <Time>2019-05-08T12:34:58.000Z</Time>
            <Position>
              <LatitudeDegrees>42.8367399238049983978271484375</LatitudeDegrees>
              <LongitudeDegrees>0.59852463193237781524658203125</LongitudeDegrees>
            </Position>
            <AltitudeMeters>614</AltitudeMeters>
            <DistanceMeters>78347.676891604</DistanceMeters>
          </Trackpoint>
          <Trackpoint>
            <Time>2019-05-08T12:35:01.000Z</Time>
            <Position>
              <LatitudeDegrees>42.8365315496921539306640625</LatitudeDegrees>
              <LongitudeDegrees>0.59871993027627468109130859375</LongitudeDegrees>
            </Position>
            <AltitudeMeters>612.20001220703125</AltitudeMeters>
            <DistanceMeters>78375.818600228</DistanceMeters>
          </Trackpoint>
          <Trackpoint>
            <Time>2019-05-08T12:35:02.000Z</Time>
            <Position>
              <LatitudeDegrees>42.83647614531219005584716796875</LatitudeDegrees>
              <LongitudeDegrees>0.5987801961600780487060546875</LongitudeDegrees>
            </Position>
            <AltitudeMeters>612</AltitudeMeters>
            <DistanceMeters>78383.70638995</DistanceMeters>
          </Trackpoint>
          <Trackpoint>
            <Time>2019-05-08T12:35:03.000Z</Time>
            <Position>
              <LatitudeDegrees>42.83642635680735111236572265625</LatitudeDegrees>
              <LongitudeDegrees>0.5988375283777713775634765625</LongitudeDegrees>
            </Position>
            <AltitudeMeters>612</AltitudeMeters>
            <DistanceMeters>78390.959611673</DistanceMeters>
          </Trackpoint>
          <Trackpoint>
            <Time>2019-05-08T12:35:04.000Z</Time>
            <Position>
              <LatitudeDegrees>42.83637170679867267608642578125</LatitudeDegrees>
              <LongitudeDegrees>0.59888807125389575958251953125</LongitudeDegrees>
            </Position>
            <AltitudeMeters>612</AltitudeMeters>
            <DistanceMeters>78398.309299917</DistanceMeters>
          </Trackpoint>
          <Trackpoint>
            <Time>2019-05-08T12:35:07.000Z</Time>
            <Position>
              <LatitudeDegrees>42.83624161966145038604736328125</LatitudeDegrees>
              <LongitudeDegrees>0.598989911377429962158203125</LongitudeDegrees>
            </Position>
            <AltitudeMeters>612</AltitudeMeters>
            <DistanceMeters>78415.004279388</DistanceMeters>
          </Trackpoint>
          <Trackpoint>
            <Time>2019-05-08T12:35:13.000Z</Time>
            <Position>
              <LatitudeDegrees>42.83595462329685688018798828125</LatitudeDegrees>
              <LongitudeDegrees>0.5992175638675689697265625</LongitudeDegrees>
            </Position>
            <AltitudeMeters>612.79998779296875</AltitudeMeters>
            <DistanceMeters>78451.958310297</DistanceMeters>
          </Trackpoint>
          <Trackpoint>
            <Time>2019-05-08T12:35:14.000Z</Time>
            <Position>
              <LatitudeDegrees>42.8359039127826690673828125</LatitudeDegrees>
              <LongitudeDegrees>0.59926190413534641265869140625</LongitudeDegrees>
            </Position>
            <AltitudeMeters>613</AltitudeMeters>
            <DistanceMeters>78458.662914725</DistanceMeters>
          </Trackpoint>
          <Trackpoint>
            <Time>2019-05-08T12:35:16.000Z</Time>
            <Position>
              <LatitudeDegrees>42.83579637296497821807861328125</LatitudeDegrees>
              <LongitudeDegrees>0.599326528608798980712890625</LongitudeDegrees>
            </Position>
            <AltitudeMeters>613.20001220703125</AltitudeMeters>
            <DistanceMeters>78471.742816419</DistanceMeters>
          </Trackpoint>
          <Trackpoint>
            <Time>2019-05-08T12:35:17.000Z</Time>
            <Position>
              <LatitudeDegrees>42.83574021421372890472412109375</LatitudeDegrees>
              <LongitudeDegrees>0.59934957884252071380615234375</LongitudeDegrees>
            </Position>
            <AltitudeMeters>613.20001220703125</AltitudeMeters>
            <DistanceMeters>78478.269982777</DistanceMeters>
          </Trackpoint>
          <Trackpoint>
            <Time>2019-05-08T12:35:18.000Z</Time>
            <Position>
              <LatitudeDegrees>42.83568623475730419158935546875</LatitudeDegrees>
              <LongitudeDegrees>0.59937187470495700836181640625</LongitudeDegrees>
            </Position>
            <AltitudeMeters>613</AltitudeMeters>
            <DistanceMeters>78484.547502478</DistanceMeters>
          </Trackpoint>
          <Trackpoint>
            <Time>2019-05-08T12:35:19.000Z</Time>
            <Position>
              <LatitudeDegrees>42.83563678152859210968017578125</LatitudeDegrees>
              <LongitudeDegrees>0.5993887223303318023681640625</LongitudeDegrees>
            </Position>
            <AltitudeMeters>613.20001220703125</AltitudeMeters>
            <DistanceMeters>78490.220525697</DistanceMeters>
          </Trackpoint>
          <Trackpoint>
            <Time>2019-05-08T12:35:21.000Z</Time>
            <Position>
              <LatitudeDegrees>42.83554382622241973876953125</LatitudeDegrees>
              <LongitudeDegrees>0.59941981919109821319580078125</LongitudeDegrees>
            </Position>
            <AltitudeMeters>613.20001220703125</AltitudeMeters>
            <DistanceMeters>78500.873694275</DistanceMeters>
          </Trackpoint>
          <Trackpoint>
            <Time>2019-05-08T12:35:23.000Z</Time>
            <Position>
              <LatitudeDegrees>42.835461013019084930419921875</LatitudeDegrees>
              <LongitudeDegrees>0.59945502318441867828369140625</LongitudeDegrees>
            </Position>
            <AltitudeMeters>613.4000244140625</AltitudeMeters>
            <DistanceMeters>78510.527678892</DistanceMeters>
          </Trackpoint>
          <Trackpoint>
            <Time>2019-05-08T12:35:24.000Z</Time>
            <Position>
              <LatitudeDegrees>42.8354239650070667266845703125</LatitudeDegrees>
              <LongitudeDegrees>0.59946944005787372589111328125</LongitudeDegrees>
            </Position>
            <AltitudeMeters>613.4000244140625</AltitudeMeters>
            <DistanceMeters>78514.815479685</DistanceMeters>
          </Trackpoint>
          <Trackpoint>
            <Time>2019-05-08T12:35:28.000Z</Time>
            <Position>
              <LatitudeDegrees>42.83528004772961139678955078125</LatitudeDegrees>
              <LongitudeDegrees>0.5995258502662181854248046875</LongitudeDegrees>
            </Position>
            <AltitudeMeters>614.4000244140625</AltitudeMeters>
            <DistanceMeters>78531.482309364</DistanceMeters>
          </Trackpoint>
          <Trackpoint>
            <Time>2019-05-08T12:35:32.000Z</Time>
            <Position>
              <LatitudeDegrees>42.8351399861276149749755859375</LatitudeDegrees>
              <LongitudeDegrees>0.5995781533420085906982421875</LongitudeDegrees>
            </Position>
            <AltitudeMeters>616.4000244140625</AltitudeMeters>
            <DistanceMeters>78547.645233342</DistanceMeters>
          </Trackpoint>
          <Trackpoint>
            <Time>2019-05-08T12:35:36.000Z</Time>
            <Position>
              <LatitudeDegrees>42.83498668111860752105712890625</LatitudeDegrees>
              <LongitudeDegrees>0.59960179030895233154296875</LongitudeDegrees>
            </Position>
            <AltitudeMeters>617.5999755859375</AltitudeMeters>
            <DistanceMeters>78564.817220597</DistanceMeters>
          </Trackpoint>
          <Trackpoint>
            <Time>2019-05-08T12:35:39.000Z</Time>
            <Position>
              <LatitudeDegrees>42.83485944382846355438232421875</LatitudeDegrees>
              <LongitudeDegrees>0.599621571600437164306640625</LongitudeDegrees>
            </Position>
            <AltitudeMeters>618.20001220703125</AltitudeMeters>
            <DistanceMeters>78579.070910993</DistanceMeters>
          </Trackpoint>
          <Trackpoint>
            <Time>2019-05-08T12:35:41.000Z</Time>
            <Position>
              <LatitudeDegrees>42.83476808108389377593994140625</LatitudeDegrees>
              <LongitudeDegrees>0.59963556937873363494873046875</LongitudeDegrees>
            </Position>
            <AltitudeMeters>618.20001220703125</AltitudeMeters>
            <DistanceMeters>78589.303836599</DistanceMeters>
          </Trackpoint>
          <Trackpoint>
            <Time>2019-05-08T12:35:45.000Z</Time>
            <Position>
              <LatitudeDegrees>42.8345854394137859344482421875</LatitudeDegrees>
              <LongitudeDegrees>0.59965468011796474456787109375</LongitudeDegrees>
            </Position>
            <AltitudeMeters>618.79998779296875</AltitudeMeters>
            <DistanceMeters>78609.69188405</DistanceMeters>
          </Trackpoint>
          <Trackpoint>
            <Time>2019-05-08T12:35:49.000Z</Time>
            <Position>
              <LatitudeDegrees>42.8344077430665493011474609375</LatitudeDegrees>
              <LongitudeDegrees>0.59965903870761394500732421875</LongitudeDegrees>
            </Position>
            <AltitudeMeters>619</AltitudeMeters>
            <DistanceMeters>78629.472967753</DistanceMeters>
          </Trackpoint>
          <Trackpoint>
            <Time>2019-05-08T12:35:53.000Z</Time>
            <Position>
              <LatitudeDegrees>42.83421956934034824371337890625</LatitudeDegrees>
              <LongitudeDegrees>0.59964294545352458953857421875</LongitudeDegrees>
            </Position>
            <AltitudeMeters>619.20001220703125</AltitudeMeters>
            <DistanceMeters>78650.458171303</DistanceMeters>
          </Trackpoint>
          <Trackpoint>
            <Time>2019-05-08T12:36:01.000Z</Time>
            <Position>
              <LatitudeDegrees>42.83381070010364055633544921875</LatitudeDegrees>
              <LongitudeDegrees>0.5996160395443439483642578125</LongitudeDegrees>
            </Position>
            <AltitudeMeters>620</AltitudeMeters>
            <DistanceMeters>78696.019095927</DistanceMeters>
          </Trackpoint>
          <Trackpoint>
            <Time>2019-05-08T12:36:03.000Z</Time>
            <Position>
              <LatitudeDegrees>42.83369578421115875244140625</LatitudeDegrees>
              <LongitudeDegrees>0.5995918996632099151611328125</LongitudeDegrees>
            </Position>
            <AltitudeMeters>620</AltitudeMeters>
            <DistanceMeters>78708.960185438</DistanceMeters>
          </Trackpoint>
          <Trackpoint>
            <Time>2019-05-08T12:36:04.000Z</Time>
            <Position>
              <LatitudeDegrees>42.83363836817443370819091796875</LatitudeDegrees>
              <LongitudeDegrees>0.59956767596304416656494140625</LongitudeDegrees>
            </Position>
            <AltitudeMeters>620</AltitudeMeters>
            <DistanceMeters>78715.649958144</DistanceMeters>
          </Trackpoint>
          <Trackpoint>
            <Time>2019-05-08T12:36:06.000Z</Time>
            <Position>
              <LatitudeDegrees>42.833524458110332489013671875</LatitudeDegrees>
              <LongitudeDegrees>0.59949927963316440582275390625</LongitudeDegrees>
            </Position>
            <AltitudeMeters>620</AltitudeMeters>
            <DistanceMeters>78729.503015012</DistanceMeters>
          </Trackpoint>
          <Trackpoint>
            <Time>2019-05-08T12:36:07.000Z</Time>
            <Position>
              <LatitudeDegrees>42.83346938900649547576904296875</LatitudeDegrees>
              <LongitudeDegrees>0.599459297955036163330078125</LongitudeDegrees>
            </Position>
            <AltitudeMeters>620</AltitudeMeters>
            <DistanceMeters>78736.447121017</DistanceMeters>
          </Trackpoint>
          <Trackpoint>
            <Time>2019-05-08T12:36:08.000Z</Time>
            <Position>
              <LatitudeDegrees>42.8334139846265316009521484375</LatitudeDegrees>
              <LongitudeDegrees>0.59942476451396942138671875</LongitudeDegrees>
            </Position>
            <AltitudeMeters>620</AltitudeMeters>
            <DistanceMeters>78743.228061162</DistanceMeters>
          </Trackpoint>
          <Trackpoint>
            <Time>2019-05-08T12:36:10.000Z</Time>
            <Position>
              <LatitudeDegrees>42.83329320140182971954345703125</LatitudeDegrees>
              <LongitudeDegrees>0.59938897378742694854736328125</LongitudeDegrees>
            </Position>
            <AltitudeMeters>620</AltitudeMeters>
            <DistanceMeters>78756.985619167</DistanceMeters>
          </Trackpoint>
          <Trackpoint>
            <Time>2019-05-08T12:36:11.000Z</Time>
            <Position>
              <LatitudeDegrees>42.83323117531836032867431640625</LatitudeDegrees>
              <LongitudeDegrees>0.59938411228358745574951171875</LongitudeDegrees>
            </Position>
            <AltitudeMeters>620</AltitudeMeters>
            <DistanceMeters>78763.900404397</DistanceMeters>
          </Trackpoint>
          <Trackpoint>
            <Time>2019-05-08T12:36:14.000Z</Time>
            <Position>
              <LatitudeDegrees>42.8330478630959987640380859375</LatitudeDegrees>
              <LongitudeDegrees>0.5993743054568767547607421875</LongitudeDegrees>
            </Position>
            <AltitudeMeters>619.4000244140625</AltitudeMeters>
            <DistanceMeters>78784.319432032</DistanceMeters>
          </Trackpoint>
          <Trackpoint>
            <Time>2019-05-08T12:36:15.000Z</Time>
            <Position>
              <LatitudeDegrees>42.83299036324024200439453125</LatitudeDegrees>
              <LongitudeDegrees>0.59935846365988254547119140625</LongitudeDegrees>
            </Position>
            <AltitudeMeters>619.4000244140625</AltitudeMeters>
            <DistanceMeters>78790.848673251</DistanceMeters>
          </Trackpoint>
          <Trackpoint>
            <Time>2019-05-08T12:36:17.000Z</Time>
            <Position>
              <LatitudeDegrees>42.832876034080982208251953125</LatitudeDegrees>
              <LongitudeDegrees>0.5993230082094669342041015625</LongitudeDegrees>
            </Position>
            <AltitudeMeters>619.20001220703125</AltitudeMeters>
            <DistanceMeters>78803.898854925</DistanceMeters>
          </Trackpoint>
          <Trackpoint>
            <Time>2019-05-08T12:36:20.000Z</Time>
            <Position>
              <LatitudeDegrees>42.83269674517214298248291015625</LatitudeDegrees>
              <LongitudeDegrees>0.59927565045654773712158203125</LongitudeDegrees>
            </Position>
            <AltitudeMeters>618.5999755859375</AltitudeMeters>
            <DistanceMeters>78824.225022482</DistanceMeters>
          </Trackpoint>
          <Trackpoint>
            <Time>2019-05-08T12:36:23.000Z</Time>
            <Position>
              <LatitudeDegrees>42.83251267857849597930908203125</LatitudeDegrees>
              <LongitudeDegrees>0.5992277897894382476806640625</LongitudeDegrees>
            </Position>
            <AltitudeMeters>618.4000244140625</AltitudeMeters>
            <DistanceMeters>78845.080950949</DistanceMeters>
          </Trackpoint>
          <Trackpoint>
            <Time>2019-05-08T12:36:25.000Z</Time>
            <Position>
              <LatitudeDegrees>42.83239491283893585205078125</LatitudeDegrees>
              <LongitudeDegrees>0.59919803403317928314208984375</LongitudeDegrees>
            </Position>
            <AltitudeMeters>618.20001220703125</AltitudeMeters>
            <DistanceMeters>78858.411475107</DistanceMeters>
          </Trackpoint>
          <Trackpoint>
            <Time>2019-05-08T12:36:28.000Z</Time>
            <Position>
              <LatitudeDegrees>42.83222149126231670379638671875</LatitudeDegrees>
              <LongitudeDegrees>0.59914371930062770843505859375</LongitudeDegrees>
            </Position>
            <AltitudeMeters>618.4000244140625</AltitudeMeters>
            <DistanceMeters>78878.216282615</DistanceMeters>
          </Trackpoint>
          <Trackpoint>
            <Time>2019-05-08T12:36:29.000Z</Time>
            <Position>
              <LatitudeDegrees>42.83216332085430622100830078125</LatitudeDegrees>
              <LongitudeDegrees>0.5991325713694095611572265625</LongitudeDegrees>
            </Position>
            <AltitudeMeters>618.4000244140625</AltitudeMeters>
            <DistanceMeters>78884.754507289</DistanceMeters>
          </Trackpoint>
          <Trackpoint>
            <Time>2019-05-08T12:36:31.000Z</Time>
            <Position>
              <LatitudeDegrees>42.83205452375113964080810546875</LatitudeDegrees>
              <LongitudeDegrees>0.599113292992115020751953125</LongitudeDegrees>
            </Position>
            <AltitudeMeters>618.4000244140625</AltitudeMeters>
            <DistanceMeters>78896.965347647</DistanceMeters>
          </Trackpoint>
          <Trackpoint>
            <Time>2019-05-08T12:36:33.000Z</Time>
            <Position>
              <LatitudeDegrees>42.8319468162953853607177734375</LatitudeDegrees>
              <LongitudeDegrees>0.5990903265774250030517578125</LongitudeDegrees>
            </Position>
            <AltitudeMeters>618.5999755859375</AltitudeMeters>
            <DistanceMeters>78909.099034899</DistanceMeters>
          </Trackpoint>
          <Trackpoint>
            <Time>2019-05-08T12:36:35.000Z</Time>
            <Position>
              <LatitudeDegrees>42.831835336983203887939453125</LatitudeDegrees>
              <LongitudeDegrees>0.59905520640313625335693359375</LongitudeDegrees>
            </Position>
            <AltitudeMeters>618.4000244140625</AltitudeMeters>
            <DistanceMeters>78921.834032855</DistanceMeters>
          </Trackpoint>
          <Trackpoint>
            <Time>2019-05-08T12:36:38.000Z</Time>
            <Position>
              <LatitudeDegrees>42.8316579759120941162109375</LatitudeDegrees>
              <LongitudeDegrees>0.59899083338677883148193359375</LongitudeDegrees>
            </Position>
            <AltitudeMeters>619.20001220703125</AltitudeMeters>
            <DistanceMeters>78942.261903342</DistanceMeters>
          </Trackpoint>
          <Trackpoint>
            <Time>2019-05-08T12:36:39.000Z</Time>
            <Position>
              <LatitudeDegrees>42.8315936028957366943359375</LatitudeDegrees>
              <LongitudeDegrees>0.59897054918110370635986328125</LongitudeDegrees>
            </Position>
            <AltitudeMeters>619.4000244140625</AltitudeMeters>
            <DistanceMeters>78949.615276564</DistanceMeters>
          </Trackpoint>
          <Trackpoint>
            <Time>2019-05-08T12:36:41.000Z</Time>
            <Position>
              <LatitudeDegrees>42.8314556367695331573486328125</LatitudeDegrees>
              <LongitudeDegrees>0.5989428050816059112548828125</LongitudeDegrees>
            </Position>
            <AltitudeMeters>619.4000244140625</AltitudeMeters>
            <DistanceMeters>78965.137534766</DistanceMeters>
          </Trackpoint>
          <Trackpoint>
            <Time>2019-05-08T12:36:44.000Z</Time>
            <Position>
              <LatitudeDegrees>42.83124424517154693603515625</LatitudeDegrees>
              <LongitudeDegrees>0.598910115659236907958984375</LongitudeDegrees>
            </Position>
            <AltitudeMeters>619.5999755859375</AltitudeMeters>
            <DistanceMeters>78988.816544597</DistanceMeters>
          </Trackpoint>
          <Trackpoint>
            <Time>2019-05-08T12:36:46.000Z</Time>
            <Position>
              <LatitudeDegrees>42.83111038617789745330810546875</LatitudeDegrees>
              <LongitudeDegrees>0.59890818782150745391845703125</LongitudeDegrees>
            </Position>
            <AltitudeMeters>619.5999755859375</AltitudeMeters>
            <DistanceMeters>79003.716054632</DistanceMeters>
          </Trackpoint>
          <Trackpoint>
            <Time>2019-05-08T12:36:49.000Z</Time>
            <Position>
              <LatitudeDegrees>42.83091072924435138702392578125</LatitudeDegrees>
              <LongitudeDegrees>0.59893400408327579498291015625</LongitudeDegrees>
            </Position>
            <AltitudeMeters>619.4000244140625</AltitudeMeters>
            <DistanceMeters>79026.038232352</DistanceMeters>
          </Trackpoint>
          <Trackpoint>
            <Time>2019-05-08T12:36:50.000Z</Time>
            <Position>
              <LatitudeDegrees>42.8308417461812496185302734375</LatitudeDegrees>
              <LongitudeDegrees>0.598949678242206573486328125</LongitudeDegrees>
            </Position>
            <AltitudeMeters>619</AltitudeMeters>
            <DistanceMeters>79033.822306667</DistanceMeters>
          </Trackpoint>
          <Trackpoint>
            <Time>2019-05-08T12:36:55.000Z</Time>
            <Position>
              <LatitudeDegrees>42.83044620417058467864990234375</LatitudeDegrees>
              <LongitudeDegrees>0.59903475455939769744873046875</LongitudeDegrees>
            </Position>
            <AltitudeMeters>618.5999755859375</AltitudeMeters>
            <DistanceMeters>79078.391355298</DistanceMeters>
          </Trackpoint>
          <Trackpoint>
            <Time>2019-05-08T12:37:01.000Z</Time>
            <Position>
              <LatitudeDegrees>42.83000648953020572662353515625</LatitudeDegrees>
              <LongitudeDegrees>0.59921613894402980804443359375</LongitudeDegrees>
            </Position>
            <AltitudeMeters>617.5999755859375</AltitudeMeters>
            <DistanceMeters>79129.522792324</DistanceMeters>
          </Trackpoint>
          <Trackpoint>
            <Time>2019-05-08T12:37:02.000Z</Time>
            <Position>
              <LatitudeDegrees>42.82993809320032596588134765625</LatitudeDegrees>
              <LongitudeDegrees>0.59924480505287647247314453125</LongitudeDegrees>
            </Position>
            <AltitudeMeters>617.4000244140625</AltitudeMeters>
            <DistanceMeters>79137.486915436</DistanceMeters>
          </Trackpoint>
          <Trackpoint>
            <Time>2019-05-08T12:37:06.000Z</Time>
            <Position>
              <LatitudeDegrees>42.82971044071018695831298828125</LatitudeDegrees>
              <LongitudeDegrees>0.59936106204986572265625</LongitudeDegrees>
            </Position>
            <AltitudeMeters>617.5999755859375</AltitudeMeters>
            <DistanceMeters>79164.543842967</DistanceMeters>
          </Trackpoint>
          <Trackpoint>
            <Time>2019-05-08T12:37:07.000Z</Time>
            <Position>
              <LatitudeDegrees>42.82966283150017261505126953125</LatitudeDegrees>
              <LongitudeDegrees>0.59938360936939716339111328125</LongitudeDegrees>
            </Position>
            <AltitudeMeters>617.5999755859375</AltitudeMeters>
            <DistanceMeters>79170.152834528</DistanceMeters>
          </Trackpoint>
          <Trackpoint>
            <Time>2019-05-08T12:37:10.000Z</Time>
            <Position>
              <LatitudeDegrees>42.829553447663784027099609375</LatitudeDegrees>
              <LongitudeDegrees>0.59944647364318370819091796875</LongitudeDegrees>
            </Position>
            <AltitudeMeters>617.5999755859375</AltitudeMeters>
            <DistanceMeters>79183.364623871</DistanceMeters>
          </Trackpoint>
          <Trackpoint>
            <Time>2019-05-08T12:37:11.000Z</Time>
            <Position>
              <LatitudeDegrees>42.82951782457530498504638671875</LatitudeDegrees>
              <LongitudeDegrees>0.59946575202047824859619140625</LongitudeDegrees>
            </Position>
            <AltitudeMeters>617.79998779296875</AltitudeMeters>
            <DistanceMeters>79187.631312764</DistanceMeters>
          </Trackpoint>
          <Trackpoint>
            <Time>2019-05-08T12:37:14.000Z</Time>
            <Position>
              <LatitudeDegrees>42.82941221259534358978271484375</LatitudeDegrees>
              <LongitudeDegrees>0.59952107258141040802001953125</LongitudeDegrees>
            </Position>
            <AltitudeMeters>618.20001220703125</AltitudeMeters>
            <DistanceMeters>79200.223697064</DistanceMeters>
          </Trackpoint>
          <Trackpoint>
            <Time>2019-05-08T12:37:17.000Z</Time>
            <Position>
              <LatitudeDegrees>42.829314060509204864501953125</LatitudeDegrees>
              <LongitudeDegrees>0.59958879835903644561767578125</LongitudeDegrees>
            </Position>
            <AltitudeMeters>619.4000244140625</AltitudeMeters>
            <DistanceMeters>79212.46740153</DistanceMeters>
          </Trackpoint>
          <Trackpoint>
            <Time>2019-05-08T12:37:18.000Z</Time>
            <Position>
              <LatitudeDegrees>42.829277850687503814697265625</LatitudeDegrees>
              <LongitudeDegrees>0.5996096692979335784912109375</LongitudeDegrees>
            </Position>
            <AltitudeMeters>619.5999755859375</AltitudeMeters>
            <DistanceMeters>79216.843791839</DistanceMeters>
          </Trackpoint>
          <Trackpoint>
            <Time>2019-05-08T12:37:21.000Z</Time>
            <Position>
              <LatitudeDegrees>42.82917969860136508941650390625</LatitudeDegrees>
              <LongitudeDegrees>0.5996656604111194610595703125</LongitudeDegrees>
            </Position>
            <AltitudeMeters>620.4000244140625</AltitudeMeters>
            <DistanceMeters>79228.685965929</DistanceMeters>
          </Trackpoint>
          <Trackpoint>
            <Time>2019-05-08T12:37:22.000Z</Time>
            <Position>
              <LatitudeDegrees>42.82915120013058185577392578125</LatitudeDegrees>
              <LongitudeDegrees>0.5996841005980968475341796875</LongitudeDegrees>
            </Position>
            <AltitudeMeters>620.5999755859375</AltitudeMeters>
            <DistanceMeters>79232.196814024</DistanceMeters>
          </Trackpoint>
          <Trackpoint>
            <Time>2019-05-08T12:37:25.000Z</Time>
            <Position>
              <LatitudeDegrees>42.82905665226280689239501953125</LatitudeDegrees>
              <LongitudeDegrees>0.59975408948957920074462890625</LongitudeDegrees>
            </Position>
            <AltitudeMeters>621.4000244140625</AltitudeMeters>
            <DistanceMeters>79244.170934191</DistanceMeters>
          </Trackpoint>
          <Trackpoint>
            <Time>2019-05-08T12:37:27.000Z</Time>
            <Position>
              <LatitudeDegrees>42.82899043522775173187255859375</LatitudeDegrees>
              <LongitudeDegrees>0.5997994355857372283935546875</LongitudeDegrees>
            </Position>
            <AltitudeMeters>622.20001220703125</AltitudeMeters>
            <DistanceMeters>79252.418026756</DistanceMeters>
          </Trackpoint>
          <Trackpoint>
            <Time>2019-05-08T12:37:31.000Z</Time>
            <Position>
              <LatitudeDegrees>42.82884207554161548614501953125</LatitudeDegrees>
              <LongitudeDegrees>0.59990965761244297027587890625</LongitudeDegrees>
            </Position>
            <AltitudeMeters>623.4000244140625</AltitudeMeters>
            <DistanceMeters>79271.222754713</DistanceMeters>
          </Trackpoint>
          <Trackpoint>
            <Time>2019-05-08T12:37:34.000Z</Time>
            <Position>
              <LatitudeDegrees>42.8287251479923725128173828125</LatitudeDegrees>
              <LongitudeDegrees>0.5999982543289661407470703125</LongitudeDegrees>
            </Position>
            <AltitudeMeters>623.4000244140625</AltitudeMeters>
            <DistanceMeters>79286.111351576</DistanceMeters>
          </Trackpoint>
          <Trackpoint>
            <Time>2019-05-08T12:37:35.000Z</Time>
            <Position>
              <LatitudeDegrees>42.82868198119103908538818359375</LatitudeDegrees>
              <LongitudeDegrees>0.6000294350087642669677734375</LongitudeDegrees>
            </Position>
            <AltitudeMeters>623.4000244140625</AltitudeMeters>
            <DistanceMeters>79291.548673553</DistanceMeters>
          </Trackpoint>
          <Trackpoint>
            <Time>2019-05-08T12:37:38.000Z</Time>
            <Position>
              <LatitudeDegrees>42.828544937074184417724609375</LatitudeDegrees>
              <LongitudeDegrees>0.60012373141944408416748046875</LongitudeDegrees>
            </Position>
            <AltitudeMeters>623</AltitudeMeters>
            <DistanceMeters>79308.633937704</DistanceMeters>
          </Trackpoint>
          <Trackpoint>
            <Time>2019-05-08T12:37:39.000Z</Time>
            <Position>
              <LatitudeDegrees>42.8284948132932186126708984375</LatitudeDegrees>
              <LongitudeDegrees>0.6001615338027477264404296875</LongitudeDegrees>
            </Position>
            <AltitudeMeters>623</AltitudeMeters>
            <DistanceMeters>79315.008523495</DistanceMeters>
          </Trackpoint>
          <Trackpoint>
            <Time>2019-05-08T12:37:41.000Z</Time>
            <Position>
              <LatitudeDegrees>42.8283932246267795562744140625</LatitudeDegrees>
              <LongitudeDegrees>0.60025281272828578948974609375</LongitudeDegrees>
            </Position>
            <AltitudeMeters>622.79998779296875</AltitudeMeters>
            <DistanceMeters>79328.549746935</DistanceMeters>
          </Trackpoint>
          <Trackpoint>
            <Time>2019-05-08T12:37:43.000Z</Time>
            <Position>
              <LatitudeDegrees>42.828270681202411651611328125</LatitudeDegrees>
              <LongitudeDegrees>0.60034283436834812164306640625</LongitudeDegrees>
            </Position>
            <AltitudeMeters>622.5999755859375</AltitudeMeters>
            <DistanceMeters>79344.042598899</DistanceMeters>
          </Trackpoint>
          <Trackpoint>
            <Time>2019-05-08T12:37:44.000Z</Time>
            <Position>
              <LatitudeDegrees>42.828205637633800506591796875</LatitudeDegrees>
              <LongitudeDegrees>0.6003901921212673187255859375</LongitudeDegrees>
            </Position>
            <AltitudeMeters>622.4000244140625</AltitudeMeters>
            <DistanceMeters>79352.249628824</DistanceMeters>
          </Trackpoint>
          <Trackpoint>
            <Time>2019-05-08T12:37:45.000Z</Time>
            <Position>
              <LatitudeDegrees>42.8281387500464916229248046875</LatitudeDegrees>
              <LongitudeDegrees>0.6004367955029010772705078125</LongitudeDegrees>
            </Position>
            <AltitudeMeters>622.4000244140625</AltitudeMeters>
            <DistanceMeters>79360.61089977</DistanceMeters>
          </Trackpoint>
          <Trackpoint>
            <Time>2019-05-08T12:37:47.000Z</Time>
            <Position>
              <LatitudeDegrees>42.827991060912609100341796875</LatitudeDegrees>
              <LongitudeDegrees>0.60051642358303070068359375</LongitudeDegrees>
            </Position>
            <AltitudeMeters>621.79998779296875</AltitudeMeters>
            <DistanceMeters>79378.287401265</DistanceMeters>
          </Trackpoint>
          <Trackpoint>
            <Time>2019-05-08T12:37:49.000Z</Time>
            <Position>
              <LatitudeDegrees>42.82783892937004566192626953125</LatitudeDegrees>
              <LongitudeDegrees>0.60056696645915508270263671875</LongitudeDegrees>
            </Position>
            <AltitudeMeters>621</AltitudeMeters>
            <DistanceMeters>79395.715414671</DistanceMeters>
          </Trackpoint>
          <Trackpoint>
            <Time>2019-05-08T12:37:50.000Z</Time>
            <Position>
              <LatitudeDegrees>42.82776483334600925445556640625</LatitudeDegrees>
              <LongitudeDegrees>0.60059982351958751678466796875</LongitudeDegrees>
            </Position>
            <AltitudeMeters>620.4000244140625</AltitudeMeters>
            <DistanceMeters>79404.387350823</DistanceMeters>
          </Trackpoint>
          <Trackpoint>
            <Time>2019-05-08T12:37:51.000Z</Time>
            <Position>
              <LatitudeDegrees>42.82769442535936832427978515625</LatitudeDegrees>
              <LongitudeDegrees>0.60063217766582965850830078125</LongitudeDegrees>
            </Position>
            <AltitudeMeters>619.79998779296875</AltitudeMeters>
            <DistanceMeters>79412.656313203</DistanceMeters>
          </Trackpoint>
          <Trackpoint>
            <Time>2019-05-08T12:37:52.000Z</Time>
            <Position>
              <LatitudeDegrees>42.8276291303336620330810546875</LatitudeDegrees>
              <LongitudeDegrees>0.6006659567356109619140625</LongitudeDegrees>
            </Position>
            <AltitudeMeters>619.20001220703125</AltitudeMeters>
            <DistanceMeters>79420.429359033</DistanceMeters>
          </Trackpoint>
          <Trackpoint>
            <Time>2019-05-08T12:37:54.000Z</Time>
            <Position>
              <LatitudeDegrees>42.82750834710896015167236328125</LatitudeDegrees>
              <LongitudeDegrees>0.6007201038300991058349609375</LongitudeDegrees>
            </Position>
            <AltitudeMeters>618</AltitudeMeters>
            <DistanceMeters>79434.580365189</DistanceMeters>
          </Trackpoint>
          <Trackpoint>
            <Time>2019-05-08T12:37:56.000Z</Time>
            <Position>
              <LatitudeDegrees>42.8274004720151424407958984375</LatitudeDegrees>
              <LongitudeDegrees>0.6007142364978790283203125</LongitudeDegrees>
            </Position>
            <AltitudeMeters>617</AltitudeMeters>
            <DistanceMeters>79446.59664258</DistanceMeters>
          </Trackpoint>
          <Trackpoint>
            <Time>2019-05-08T12:37:57.000Z</Time>
            <Position>
              <LatitudeDegrees>42.827345989644527435302734375</LatitudeDegrees>
              <LongitudeDegrees>0.6006932817399501800537109375</LongitudeDegrees>
            </Position>
            <AltitudeMeters>616.79998779296875</AltitudeMeters>
            <DistanceMeters>79452.897135898</DistanceMeters>
          </Trackpoint>
          <Trackpoint>
            <Time>2019-05-08T12:38:00.000Z</Time>
            <Position>
              <LatitudeDegrees>42.827171981334686279296875</LatitudeDegrees>
              <LongitudeDegrees>0.60061105526983737945556640625</LongitudeDegrees>
            </Position>
            <AltitudeMeters>616.4000244140625</AltitudeMeters>
            <DistanceMeters>79473.3947308</DistanceMeters>
          </Trackpoint>
          <Trackpoint>
            <Time>2019-05-08T12:38:04.000Z</Time>
            <Position>
              <LatitudeDegrees>42.82693636603653430938720703125</LatitudeDegrees>
              <LongitudeDegrees>0.60049119405448436737060546875</LongitudeDegrees>
            </Position>
            <AltitudeMeters>616.20001220703125</AltitudeMeters>
            <DistanceMeters>79501.384897507</DistanceMeters>
          </Trackpoint>
          <Trackpoint>
            <Time>2019-05-08T12:38:09.000Z</Time>
            <Position>
              <LatitudeDegrees>42.8266404010355472564697265625</LatitudeDegrees>
              <LongitudeDegrees>0.60036219656467437744140625</LongitudeDegrees>
            </Position>
            <AltitudeMeters>615.79998779296875</AltitudeMeters>
            <DistanceMeters>79535.968486027</DistanceMeters>
          </Trackpoint>
          <Trackpoint>
            <Time>2019-05-08T12:38:11.000Z</Time>
            <Position>
              <LatitudeDegrees>42.8265287540853023529052734375</LatitudeDegrees>
              <LongitudeDegrees>0.600292123854160308837890625</LongitudeDegrees>
            </Position>
            <AltitudeMeters>615.5999755859375</AltitudeMeters>
            <DistanceMeters>79549.648372877</DistanceMeters>
          </Trackpoint>
          <Trackpoint>
            <Time>2019-05-08T12:38:17.000Z</Time>
            <Position>
              <LatitudeDegrees>42.82621099613606929779052734375</LatitudeDegrees>
              <LongitudeDegrees>0.60011568479239940643310546875</LongitudeDegrees>
            </Position>
            <AltitudeMeters>615.5999755859375</AltitudeMeters>
            <DistanceMeters>79587.83563574</DistanceMeters>
          </Trackpoint>
          <Trackpoint>
            <Time>2019-05-08T12:38:18.000Z</Time>
            <Position>
              <LatitudeDegrees>42.82616556622087955474853515625</LatitudeDegrees>
              <LongitudeDegrees>0.60009062290191650390625</LongitudeDegrees>
            </Position>
            <AltitudeMeters>615.79998779296875</AltitudeMeters>
            <DistanceMeters>79593.291195469</DistanceMeters>
          </Trackpoint>
          <Trackpoint>
            <Time>2019-05-08T12:38:22.000Z</Time>
            <Position>
              <LatitudeDegrees>42.82599759288132190704345703125</LatitudeDegrees>
              <LongitudeDegrees>0.59999884106218814849853515625</LongitudeDegrees>
            </Position>
            <AltitudeMeters>616.20001220703125</AltitudeMeters>
            <DistanceMeters>79613.432600193</DistanceMeters>
          </Trackpoint>
          <Trackpoint>
            <Time>2019-05-08T12:38:24.000Z</Time>
            <Position>
              <LatitudeDegrees>42.8259172104299068450927734375</LatitudeDegrees>
              <LongitudeDegrees>0.59997000731527805328369140625</LongitudeDegrees>
            </Position>
            <AltitudeMeters>616.5999755859375</AltitudeMeters>
            <DistanceMeters>79622.684415939</DistanceMeters>
          </Trackpoint>
          <Trackpoint>
            <Time>2019-05-08T12:38:26.000Z</Time>
            <Position>
              <LatitudeDegrees>42.825848646461963653564453125</LatitudeDegrees>
              <LongitudeDegrees>0.5999261699616909027099609375</LongitudeDegrees>
            </Position>
            <AltitudeMeters>616.79998779296875</AltitudeMeters>
            <DistanceMeters>79631.113451558</DistanceMeters>
          </Trackpoint>
          <Trackpoint>
            <Time>2019-05-08T12:38:28.000Z</Time>
            <Position>
              <LatitudeDegrees>42.82578905113041400909423828125</LatitudeDegrees>
              <LongitudeDegrees>0.59991468675434589385986328125</LongitudeDegrees>
            </Position>
            <AltitudeMeters>617.4000244140625</AltitudeMeters>
            <DistanceMeters>79637.812666432</DistanceMeters>
          </Trackpoint>
          <Trackpoint>
            <Time>2019-05-08T12:38:31.000Z</Time>
            <Position>
              <LatitudeDegrees>42.8257110156118869781494140625</LatitudeDegrees>
              <LongitudeDegrees>0.60002868063747882843017578125</LongitudeDegrees>
            </Position>
            <AltitudeMeters>617.4000244140625</AltitudeMeters>
            <DistanceMeters>79650.541990519</DistanceMeters>
          </Trackpoint>
          <Trackpoint>
            <Time>2019-05-08T12:38:32.000Z</Time>
            <Position>
              <LatitudeDegrees>42.825676314532756805419921875</LatitudeDegrees>
              <LongitudeDegrees>0.6000696681439876556396484375</LongitudeDegrees>
            </Position>
            <AltitudeMeters>617.4000244140625</AltitudeMeters>
            <DistanceMeters>79655.652272417</DistanceMeters>
          </Trackpoint>
          <Trackpoint>
            <Time>2019-05-08T12:38:36.000Z</Time>
            <Position>
              <LatitudeDegrees>42.82551102340221405029296875</LatitudeDegrees>
              <LongitudeDegrees>0.60022029094398021697998046875</LongitudeDegrees>
            </Position>
            <AltitudeMeters>617.5999755859375</AltitudeMeters>
            <DistanceMeters>79677.780034053</DistanceMeters>
          </Trackpoint>
          <Trackpoint>
            <Time>2019-05-08T12:38:38.000Z</Time>
            <Position>
              <LatitudeDegrees>42.82541714608669281005859375</LatitudeDegrees>
              <LongitudeDegrees>0.600281395018100738525390625</LongitudeDegrees>
            </Position>
            <AltitudeMeters>617.5999755859375</AltitudeMeters>
            <DistanceMeters>79689.358094547</DistanceMeters>
          </Trackpoint>
          <Trackpoint>
            <Time>2019-05-08T12:38:40.000Z</Time>
            <Position>
              <LatitudeDegrees>42.82531253993511199951171875</LatitudeDegrees>
              <LongitudeDegrees>0.60031550936400890350341796875</LongitudeDegrees>
            </Position>
            <AltitudeMeters>617.4000244140625</AltitudeMeters>
            <DistanceMeters>79701.329574959</DistanceMeters>
          </Trackpoint>
          <Trackpoint>
            <Time>2019-05-08T12:38:41.000Z</Time>
            <Position>
              <LatitudeDegrees>42.825261913239955902099609375</LatitudeDegrees>
              <LongitudeDegrees>0.60032288543879985809326171875</LongitudeDegrees>
            </Position>
            <AltitudeMeters>617.4000244140625</AltitudeMeters>
            <DistanceMeters>79706.996227572</DistanceMeters>
          </Trackpoint>
          <Trackpoint>
            <Time>2019-05-08T12:38:43.000Z</Time>
            <Position>
              <LatitudeDegrees>42.82516325823962688446044921875</LatitudeDegrees>
              <LongitudeDegrees>0.6003221310675144195556640625</LongitudeDegrees>
            </Position>
            <AltitudeMeters>617.20001220703125</AltitudeMeters>
            <DistanceMeters>79717.977467977</DistanceMeters>
          </Trackpoint>
          <Trackpoint>
            <Time>2019-05-08T12:38:45.000Z</Time>
            <Position>
              <LatitudeDegrees>42.82507290132343769073486328125</LatitudeDegrees>
              <LongitudeDegrees>0.60031265951693058013916015625</LongitudeDegrees>
            </Position>
            <AltitudeMeters>617.20001220703125</AltitudeMeters>
            <DistanceMeters>79728.063737912</DistanceMeters>
          </Trackpoint>
          <Trackpoint>
            <Time>2019-05-08T12:38:46.000Z</Time>
            <Position>
              <LatitudeDegrees>42.8250300697982311248779296875</LatitudeDegrees>
              <LongitudeDegrees>0.60031098313629627227783203125</LongitudeDegrees>
            </Position>
            <AltitudeMeters>617.20001220703125</AltitudeMeters>
            <DistanceMeters>79732.832147761</DistanceMeters>
          </Trackpoint>
          <Trackpoint>
            <Time>2019-05-08T12:38:47.000Z</Time>
            <Position>
              <LatitudeDegrees>42.82498824410140514373779296875</LatitudeDegrees>
              <LongitudeDegrees>0.600304193794727325439453125</LongitudeDegrees>
            </Position>
            <AltitudeMeters>617.20001220703125</AltitudeMeters>
            <DistanceMeters>79737.520346356</DistanceMeters>
          </Trackpoint>
          <Trackpoint>
            <Time>2019-05-08T12:38:50.000Z</Time>
            <Position>
              <LatitudeDegrees>42.82486704178154468536376953125</LatitudeDegrees>
              <LongitudeDegrees>0.6002743542194366455078125</LongitudeDegrees>
            </Position>
            <AltitudeMeters>617.20001220703125</AltitudeMeters>
            <DistanceMeters>79751.228588067</DistanceMeters>
          </Trackpoint>
          <Trackpoint>
            <Time>2019-05-08T12:38:51.000Z</Time>
            <Position>
              <LatitudeDegrees>42.82482647337019443511962890625</LatitudeDegrees>
              <LongitudeDegrees>0.6002658046782016754150390625</LongitudeDegrees>
            </Position>
            <AltitudeMeters>617.20001220703125</AltitudeMeters>
            <DistanceMeters>79755.795805664</DistanceMeters>
          </Trackpoint>
          <Trackpoint>
            <Time>2019-05-08T12:38:53.000Z</Time>
            <Position>
              <LatitudeDegrees>42.82474391162395477294921875</LatitudeDegrees>
              <LongitudeDegrees>0.6002450175583362579345703125</LongitudeDegrees>
            </Position>
            <AltitudeMeters>617.5999755859375</AltitudeMeters>
            <DistanceMeters>79765.140367677</DistanceMeters>
          </Trackpoint>
          <Trackpoint>
            <Time>2019-05-08T12:38:54.000Z</Time>
            <Position>
              <LatitudeDegrees>42.82469973899424076080322265625</LatitudeDegrees>
              <LongitudeDegrees>0.60023789294064044952392578125</LongitudeDegrees>
            </Position>
            <AltitudeMeters>618</AltitudeMeters>
            <DistanceMeters>79770.090885576</DistanceMeters>
          </Trackpoint>
          <Trackpoint>
            <Time>2019-05-08T12:38:57.000Z</Time>
            <Position>
              <LatitudeDegrees>42.82456562854349613189697265625</LatitudeDegrees>
              <LongitudeDegrees>0.6002188660204410552978515625</LongitudeDegrees>
            </Position>
            <AltitudeMeters>618.79998779296875</AltitudeMeters>
            <DistanceMeters>79785.097887493</DistanceMeters>
          </Trackpoint>
          <Trackpoint>
            <Time>2019-05-08T12:39:00.000Z</Time>
            <Position>
              <LatitudeDegrees>42.8244611062109470367431640625</LatitudeDegrees>
              <LongitudeDegrees>0.60018659569323062896728515625</LongitudeDegrees>
            </Position>
            <AltitudeMeters>619.79998779296875</AltitudeMeters>
            <DistanceMeters>79797.025916854</DistanceMeters>
          </Trackpoint>
          <Trackpoint>
            <Time>2019-05-08T12:39:03.000Z</Time>
            <Position>
              <LatitudeDegrees>42.824365384876728057861328125</LatitudeDegrees>
              <LongitudeDegrees>0.60014200396835803985595703125</LongitudeDegrees>
            </Position>
            <AltitudeMeters>621.20001220703125</AltitudeMeters>
            <DistanceMeters>79808.284878313</DistanceMeters>
          </Trackpoint>
          <Trackpoint>
            <Time>2019-05-08T12:39:04.000Z</Time>
            <Position>
              <LatitudeDegrees>42.82433085143566131591796875</LatitudeDegrees>
              <LongitudeDegrees>0.6001310236752033233642578125</LongitudeDegrees>
            </Position>
            <AltitudeMeters>621.5999755859375</AltitudeMeters>
            <DistanceMeters>79812.231634179</DistanceMeters>
          </Trackpoint>
          <Trackpoint>
            <Time>2019-05-08T12:39:09.000Z</Time>
            <Position>
              <LatitudeDegrees>42.82414737157523632049560546875</LatitudeDegrees>
              <LongitudeDegrees>0.60008400119841098785400390625</LongitudeDegrees>
            </Position>
            <AltitudeMeters>622.5999755859375</AltitudeMeters>
            <DistanceMeters>79833.011002197</DistanceMeters>
          </Trackpoint>
          <Trackpoint>
            <Time>2019-05-08T12:39:13.000Z</Time>
            <Position>
              <LatitudeDegrees>42.82399951480329036712646484375</LatitudeDegrees>
              <LongitudeDegrees>0.6000435166060924530029296875</LongitudeDegrees>
            </Position>
            <AltitudeMeters>623.20001220703125</AltitudeMeters>
            <DistanceMeters>79849.796066542</DistanceMeters>
          </Trackpoint>
          <Trackpoint>
            <Time>2019-05-08T12:39:17.000Z</Time>
            <Position>
              <LatitudeDegrees>42.82384662888944149017333984375</LatitudeDegrees>
              <LongitudeDegrees>0.60000102035701274871826171875</LongitudeDegrees>
            </Position>
            <AltitudeMeters>624</AltitudeMeters>
            <DistanceMeters>79867.162572326</DistanceMeters>
          </Trackpoint>
          <Trackpoint>
            <Time>2019-05-08T12:39:21.000Z</Time>
            <Position>
              <LatitudeDegrees>42.8237144462764263153076171875</LatitudeDegrees>
              <LongitudeDegrees>0.59996531344950199127197265625</LongitudeDegrees>
            </Position>
            <AltitudeMeters>624.79998779296875</AltitudeMeters>
            <DistanceMeters>79882.160545663</DistanceMeters>
          </Trackpoint>
          <Trackpoint>
            <Time>2019-05-08T12:39:25.000Z</Time>
            <Position>
              <LatitudeDegrees>42.82357555814087390899658203125</LatitudeDegrees>
              <LongitudeDegrees>0.59991963207721710205078125</LongitudeDegrees>
            </Position>
            <AltitudeMeters>625.20001220703125</AltitudeMeters>
            <DistanceMeters>79898.062692082</DistanceMeters>
          </Trackpoint>
          <Trackpoint>
            <Time>2019-05-08T12:39:27.000Z</Time>
            <Position>
              <LatitudeDegrees>42.823497019708156585693359375</LatitudeDegrees>
              <LongitudeDegrees>0.5998983420431613922119140625</LongitudeDegrees>
            </Position>
            <AltitudeMeters>625.4000244140625</AltitudeMeters>
            <DistanceMeters>79906.97597501</DistanceMeters>
          </Trackpoint>
          <Trackpoint>
            <Time>2019-05-08T12:39:36.000Z</Time>
            <Position>
              <LatitudeDegrees>42.823147661983966827392578125</LatitudeDegrees>
              <LongitudeDegrees>0.5998088233172893524169921875</LongitudeDegrees>
            </Position>
            <AltitudeMeters>626.79998779296875</AltitudeMeters>
            <DistanceMeters>79946.540881325</DistanceMeters>
          </Trackpoint>
          <Trackpoint>
            <Time>2019-05-08T12:39:42.000Z</Time>
            <Position>
              <LatitudeDegrees>42.82290802337229251861572265625</LatitudeDegrees>
              <LongitudeDegrees>0.59974570758640766143798828125</LongitudeDegrees>
            </Position>
            <AltitudeMeters>626.79998779296875</AltitudeMeters>
            <DistanceMeters>79973.706225187</DistanceMeters>
          </Trackpoint>
          <Trackpoint>
            <Time>2019-05-08T12:39:45.000Z</Time>
            <Position>
              <LatitudeDegrees>42.8227669559419155120849609375</LatitudeDegrees>
              <LongitudeDegrees>0.59970195405185222625732421875</LongitudeDegrees>
            </Position>
            <AltitudeMeters>627</AltitudeMeters>
            <DistanceMeters>79989.808697513</DistanceMeters>
          </Trackpoint>
          <Trackpoint>
            <Time>2019-05-08T12:39:50.000Z</Time>
            <Position>
              <LatitudeDegrees>42.82249697484076023101806640625</LatitudeDegrees>
              <LongitudeDegrees>0.59962769038975238800048828125</LongitudeDegrees>
            </Position>
            <AltitudeMeters>627</AltitudeMeters>
            <DistanceMeters>80020.46346721</DistanceMeters>
          </Trackpoint>
          <Trackpoint>
            <Time>2019-05-08T12:39:51.000Z</Time>
            <Position>
              <LatitudeDegrees>42.82243746332824230194091796875</LatitudeDegrees>
              <LongitudeDegrees>0.59961226768791675567626953125</LongitudeDegrees>
            </Position>
            <AltitudeMeters>627.20001220703125</AltitudeMeters>
            <DistanceMeters>80027.205677887</DistanceMeters>
          </Trackpoint>
          <Trackpoint>
            <Time>2019-05-08T12:39:52.000Z</Time>
            <Position>
              <LatitudeDegrees>42.82237560488283634185791015625</LatitudeDegrees>
              <LongitudeDegrees>0.5995965935289859771728515625</LongitudeDegrees>
            </Position>
            <AltitudeMeters>627</AltitudeMeters>
            <DistanceMeters>80034.208057132</DistanceMeters>
          </Trackpoint>
          <Trackpoint>
            <Time>2019-05-08T12:39:55.000Z</Time>
            <Position>
              <LatitudeDegrees>42.822182066738605499267578125</LatitudeDegrees>
              <LongitudeDegrees>0.59953582473099231719970703125</LongitudeDegrees>
            </Position>
            <AltitudeMeters>626.5999755859375</AltitudeMeters>
            <DistanceMeters>80056.313158275</DistanceMeters>
          </Trackpoint>
          <Trackpoint>
            <Time>2019-05-08T12:39:57.000Z</Time>
            <Position>
              <LatitudeDegrees>42.822041921317577362060546875</LatitudeDegrees>
              <LongitudeDegrees>0.599491484463214874267578125</LongitudeDegrees>
            </Position>
            <AltitudeMeters>626.20001220703125</AltitudeMeters>
            <DistanceMeters>80072.325935068</DistanceMeters>
          </Trackpoint>
          <Trackpoint>
            <Time>2019-05-08T12:39:58.000Z</Time>
            <Position>
              <LatitudeDegrees>42.821968831121921539306640625</LatitudeDegrees>
              <LongitudeDegrees>0.59946994297206401824951171875</LongitudeDegrees>
            </Position>
            <AltitudeMeters>626.20001220703125</AltitudeMeters>
            <DistanceMeters>80080.648778116</DistanceMeters>
          </Trackpoint>
          <Trackpoint>
            <Time>2019-05-08T12:40:00.000Z</Time>
            <Position>
              <LatitudeDegrees>42.8218201361596584320068359375</LatitudeDegrees>
              <LongitudeDegrees>0.59942333959043025970458984375</LongitudeDegrees>
            </Position>
            <AltitudeMeters>625.79998779296875</AltitudeMeters>
            <DistanceMeters>80097.630666153</DistanceMeters>
          </Trackpoint>
          <Trackpoint>
            <Time>2019-05-08T12:40:02.000Z</Time>
            <Position>
              <LatitudeDegrees>42.82166196964681148529052734375</LatitudeDegrees>
              <LongitudeDegrees>0.59936718083918094635009765625</LongitudeDegrees>
            </Position>
            <AltitudeMeters>625.20001220703125</AltitudeMeters>
            <DistanceMeters>80115.822264256</DistanceMeters>
          </Trackpoint>
          <Trackpoint>
            <Time>2019-05-08T12:40:03.000Z</Time>
            <Position>
              <LatitudeDegrees>42.8215794079005718231201171875</LatitudeDegrees>
              <LongitudeDegrees>0.59933918528258800506591796875</LongitudeDegrees>
            </Position>
            <AltitudeMeters>625</AltitudeMeters>
            <DistanceMeters>80125.291617934</DistanceMeters>
          </Trackpoint>
          <Trackpoint>
            <Time>2019-05-08T12:40:04.000Z</Time>
            <Position>
              <LatitudeDegrees>42.82149374485015869140625</LatitudeDegrees>
              <LongitudeDegrees>0.59931118972599506378173828125</LongitudeDegrees>
            </Position>
            <AltitudeMeters>624.5999755859375</AltitudeMeters>
            <DistanceMeters>80135.095962061</DistanceMeters>
          </Trackpoint>
          <Trackpoint>
            <Time>2019-05-08T12:40:05.000Z</Time>
            <Position>
              <LatitudeDegrees>42.8214070759713649749755859375</LatitudeDegrees>
              <LongitudeDegrees>0.59928386472165584564208984375</LongitudeDegrees>
            </Position>
            <AltitudeMeters>624.20001220703125</AltitudeMeters>
            <DistanceMeters>80144.996997859</DistanceMeters>
          </Trackpoint>
          <Trackpoint>
            <Time>2019-05-08T12:40:07.000Z</Time>
            <Position>
              <LatitudeDegrees>42.82123155891895294189453125</LatitudeDegrees>
              <LongitudeDegrees>0.59922921471297740936279296875</LongitudeDegrees>
            </Position>
            <AltitudeMeters>623.4000244140625</AltitudeMeters>
            <DistanceMeters>80165.035245765</DistanceMeters>
          </Trackpoint>
          <Trackpoint>
            <Time>2019-05-08T12:40:12.000Z</Time>
            <Position>
              <LatitudeDegrees>42.82078631222248077392578125</LatitudeDegrees>
              <LongitudeDegrees>0.5991156399250030517578125</LongitudeDegrees>
            </Position>
            <AltitudeMeters>621.20001220703125</AltitudeMeters>
            <DistanceMeters>80215.451910648</DistanceMeters>
          </Trackpoint>
          <Trackpoint>
            <Time>2019-05-08T12:40:14.000Z</Time>
            <Position>
              <LatitudeDegrees>42.82060937024652957916259765625</LatitudeDegrees>
              <LongitudeDegrees>0.599099211394786834716796875</LongitudeDegrees>
            </Position>
            <AltitudeMeters>621.20001220703125</AltitudeMeters>
            <DistanceMeters>80235.191409085</DistanceMeters>
          </Trackpoint>
          <Trackpoint>
            <Time>2019-05-08T12:40:19.000Z</Time>
            <Position>
              <LatitudeDegrees>42.820177786052227020263671875</LatitudeDegrees>
              <LongitudeDegrees>0.59904900379478931427001953125</LongitudeDegrees>
            </Position>
            <AltitudeMeters>621</AltitudeMeters>
            <DistanceMeters>80283.4020867</DistanceMeters>
          </Trackpoint>
          <Trackpoint>
            <Time>2019-05-08T12:40:23.000Z</Time>
            <Position>
              <LatitudeDegrees>42.81983823515474796295166015625</LatitudeDegrees>
              <LongitudeDegrees>0.59895831160247325897216796875</LongitudeDegrees>
            </Position>
            <AltitudeMeters>620.79998779296875</AltitudeMeters>
            <DistanceMeters>80321.91323814</DistanceMeters>
          </Trackpoint>
          <Trackpoint>
            <Time>2019-05-08T12:40:25.000Z</Time>
            <Position>
              <LatitudeDegrees>42.81967193819582462310791015625</LatitudeDegrees>
              <LongitudeDegrees>0.59889812953770160675048828125</LongitudeDegrees>
            </Position>
            <AltitudeMeters>621</AltitudeMeters>
            <DistanceMeters>80341.063419981</DistanceMeters>
          </Trackpoint>
          <Trackpoint>
            <Time>2019-05-08T12:40:26.000Z</Time>
            <Position>
              <LatitudeDegrees>42.81959029845893383026123046875</LatitudeDegrees>
              <LongitudeDegrees>0.59886828996241092681884765625</LongitudeDegrees>
            </Position>
            <AltitudeMeters>621</AltitudeMeters>
            <DistanceMeters>80350.470584759</DistanceMeters>
          </Trackpoint>
          <Trackpoint>
            <Time>2019-05-08T12:40:32.000Z</Time>
            <Position>
              <LatitudeDegrees>42.81912560574710369110107421875</LatitudeDegrees>
              <LongitudeDegrees>0.5986943654716014862060546875</LongitudeDegrees>
            </Position>
            <AltitudeMeters>620.5999755859375</AltitudeMeters>
            <DistanceMeters>80404.105399875</DistanceMeters>
          </Trackpoint>
          <Trackpoint>
            <Time>2019-05-08T12:40:35.000Z</Time>
            <Position>
              <LatitudeDegrees>42.81889527104794979095458984375</LatitudeDegrees>
              <LongitudeDegrees>0.5986400507390499114990234375</LongitudeDegrees>
            </Position>
            <AltitudeMeters>620.4000244140625</AltitudeMeters>
            <DistanceMeters>80430.122596693</DistanceMeters>
          </Trackpoint>
          <Trackpoint>
            <Time>2019-05-08T12:40:37.000Z</Time>
            <Position>
              <LatitudeDegrees>42.81873567961156368255615234375</LatitudeDegrees>
              <LongitudeDegrees>0.59860928915441036224365234375</LongitudeDegrees>
            </Position>
            <AltitudeMeters>620.4000244140625</AltitudeMeters>
            <DistanceMeters>80448.062019604</DistanceMeters>
          </Trackpoint>
          <Trackpoint>
            <Time>2019-05-08T12:40:39.000Z</Time>
            <Position>
              <LatitudeDegrees>42.81857809983193874359130859375</LatitudeDegrees>
              <LongitudeDegrees>0.59857877902686595916748046875</LongitudeDegrees>
            </Position>
            <AltitudeMeters>620.4000244140625</AltitudeMeters>
            <DistanceMeters>80465.776793568</DistanceMeters>
          </Trackpoint>
          <Trackpoint>
            <Time>2019-05-08T12:40:46.000Z</Time>
            <Position>
              <LatitudeDegrees>42.8180630318820476531982421875</LatitudeDegrees>
              <LongitudeDegrees>0.5984248034656047821044921875</LongitudeDegrees>
            </Position>
            <AltitudeMeters>620.20001220703125</AltitudeMeters>
            <DistanceMeters>80524.467003311</DistanceMeters>
          </Trackpoint>
          <Trackpoint>
            <Time>2019-05-08T12:40:48.000Z</Time>
            <Position>
              <LatitudeDegrees>42.81792665831744670867919921875</LatitudeDegrees>
              <LongitudeDegrees>0.59835447929799556732177734375</LongitudeDegrees>
            </Position>
            <AltitudeMeters>620.20001220703125</AltitudeMeters>
            <DistanceMeters>80540.695440681</DistanceMeters>
          </Trackpoint>
          <Trackpoint>
            <Time>2019-05-08T12:40:49.000Z</Time>
            <Position>
              <LatitudeDegrees>42.8178591839969158172607421875</LatitudeDegrees>
              <LongitudeDegrees>0.59832614846527576446533203125</LongitudeDegrees>
            </Position>
            <AltitudeMeters>620.20001220703125</AltitudeMeters>
            <DistanceMeters>80548.553408785</DistanceMeters>
          </Trackpoint>
          <Trackpoint>
            <Time>2019-05-08T12:40:50.000Z</Time>
            <Position>
              <LatitudeDegrees>42.8177936375141143798828125</LatitudeDegrees>
              <LongitudeDegrees>0.59829513542354106903076171875</LongitudeDegrees>
            </Position>
            <AltitudeMeters>620.20001220703125</AltitudeMeters>
            <DistanceMeters>80556.275754597</DistanceMeters>
          </Trackpoint>
          <Trackpoint>
            <Time>2019-05-08T12:40:51.000Z</Time>
            <Position>
              <LatitudeDegrees>42.81773261725902557373046875</LatitudeDegrees>
              <LongitudeDegrees>0.59825473465025424957275390625</LongitudeDegrees>
            </Position>
            <AltitudeMeters>620.20001220703125</AltitudeMeters>
            <DistanceMeters>80563.825446148</DistanceMeters>
          </Trackpoint>
          <Trackpoint>
            <Time>2019-05-08T12:40:54.000Z</Time>
            <Position>
              <LatitudeDegrees>42.81755466945469379425048828125</LatitudeDegrees>
              <LongitudeDegrees>0.59812255203723907470703125</LongitudeDegrees>
            </Position>
            <AltitudeMeters>620.20001220703125</AltitudeMeters>
            <DistanceMeters>80586.38063284</DistanceMeters>
          </Trackpoint>
          <Trackpoint>
            <Time>2019-05-08T12:40:57.000Z</Time>
            <Position>
              <LatitudeDegrees>42.81737093813717365264892578125</LatitudeDegrees>
              <LongitudeDegrees>0.59800512157380580902099609375</LongitudeDegrees>
            </Position>
            <AltitudeMeters>620.20001220703125</AltitudeMeters>
            <DistanceMeters>80608.96602609</DistanceMeters>
          </Trackpoint>
          <Trackpoint>
            <Time>2019-05-08T12:40:59.000Z</Time>
            <Position>
              <LatitudeDegrees>42.81724068336188793182373046875</LatitudeDegrees>
              <LongitudeDegrees>0.597957260906696319580078125</LongitudeDegrees>
            </Position>
            <AltitudeMeters>620.20001220703125</AltitudeMeters>
            <DistanceMeters>80623.981149085</DistanceMeters>
          </Trackpoint>
          <Trackpoint>
            <Time>2019-05-08T12:41:00.000Z</Time>
            <Position>
              <LatitudeDegrees>42.81717530451714992523193359375</LatitudeDegrees>
              <LongitudeDegrees>0.59794284403324127197265625</LongitudeDegrees>
            </Position>
            <AltitudeMeters>620.20001220703125</AltitudeMeters>
            <DistanceMeters>80631.352919567</DistanceMeters>
          </Trackpoint>
          <Trackpoint>
            <Time>2019-05-08T12:41:04.000Z</Time>
            <Position>
              <LatitudeDegrees>42.8169137053191661834716796875</LatitudeDegrees>
              <LongitudeDegrees>0.5979111604392528533935546875</LongitudeDegrees>
            </Position>
            <AltitudeMeters>620.5999755859375</AltitudeMeters>
            <DistanceMeters>80660.584100752</DistanceMeters>
          </Trackpoint>
          <Trackpoint>
            <Time>2019-05-08T12:41:05.000Z</Time>
            <Position>
              <LatitudeDegrees>42.816845811903476715087890625</LatitudeDegrees>
              <LongitudeDegrees>0.59790487401187419891357421875</LongitudeDegrees>
            </Position>
            <AltitudeMeters>620.5999755859375</AltitudeMeters>
            <DistanceMeters>80668.157676233</DistanceMeters>
          </Trackpoint>
          <Trackpoint>
            <Time>2019-05-08T12:41:12.000Z</Time>
            <Position>
              <LatitudeDegrees>42.81640802510082721710205078125</LatitudeDegrees>
              <LongitudeDegrees>0.59781686402857303619384765625</LongitudeDegrees>
            </Position>
            <AltitudeMeters>620.79998779296875</AltitudeMeters>
            <DistanceMeters>80717.41122409</DistanceMeters>
          </Trackpoint>
          <Trackpoint>
            <Time>2019-05-08T12:41:17.000Z</Time>
            <Position>
              <LatitudeDegrees>42.8161248005926609039306640625</LatitudeDegrees>
              <LongitudeDegrees>0.5977036245167255401611328125</LongitudeDegrees>
            </Position>
            <AltitudeMeters>621.20001220703125</AltitudeMeters>
            <DistanceMeters>80750.262579101</DistanceMeters>
          </Trackpoint>
          <Trackpoint>
            <Time>2019-05-08T12:41:18.000Z</Time>
            <Position>
              <LatitudeDegrees>42.81607040204107761383056640625</LatitudeDegrees>
              <LongitudeDegrees>0.597672946751117706298828125</LongitudeDegrees>
            </Position>
            <AltitudeMeters>621</AltitudeMeters>
            <DistanceMeters>80756.815978491</DistanceMeters>
          </Trackpoint>
          <Trackpoint>
            <Time>2019-05-08T12:41:26.000Z</Time>
            <Position>
              <LatitudeDegrees>42.8156587667763233184814453125</LatitudeDegrees>
              <LongitudeDegrees>0.59739709831774234771728515625</LongitudeDegrees>
            </Position>
            <AltitudeMeters>622</AltitudeMeters>
            <DistanceMeters>80807.868058211</DistanceMeters>
          </Trackpoint>
          <Trackpoint>
            <Time>2019-05-08T12:41:29.000Z</Time>
            <Position>
              <LatitudeDegrees>42.8154985047876834869384765625</LatitudeDegrees>
              <LongitudeDegrees>0.597326271235942840576171875</LongitudeDegrees>
            </Position>
            <AltitudeMeters>622.20001220703125</AltitudeMeters>
            <DistanceMeters>80826.619407938</DistanceMeters>
          </Trackpoint>
          <Trackpoint>
            <Time>2019-05-08T12:41:31.000Z</Time>
            <Position>
              <LatitudeDegrees>42.81539507210254669189453125</LatitudeDegrees>
              <LongitudeDegrees>0.59730171225965023040771484375</LongitudeDegrees>
            </Position>
            <AltitudeMeters>622.79998779296875</AltitudeMeters>
            <DistanceMeters>80838.304989481</DistanceMeters>
          </Trackpoint>
          <Trackpoint>
            <Time>2019-05-08T12:41:35.000Z</Time>
            <Position>
              <LatitudeDegrees>42.8152054734528064727783203125</LatitudeDegrees>
              <LongitudeDegrees>0.59728444553911685943603515625</LongitudeDegrees>
            </Position>
            <AltitudeMeters>623</AltitudeMeters>
            <DistanceMeters>80859.454785383</DistanceMeters>
          </Trackpoint>
          <Trackpoint>
            <Time>2019-05-08T12:41:36.000Z</Time>
            <Position>
              <LatitudeDegrees>42.8151608817279338836669921875</LatitudeDegrees>
              <LongitudeDegrees>0.59729584492743015289306640625</LongitudeDegrees>
            </Position>
            <AltitudeMeters>623</AltitudeMeters>
            <DistanceMeters>80864.504630517</DistanceMeters>
          </Trackpoint>
          <Trackpoint>
            <Time>2019-05-08T12:41:40.000Z</Time>
            <Position>
              <LatitudeDegrees>42.815011180937290191650390625</LatitudeDegrees>
              <LongitudeDegrees>0.59732903726398944854736328125</LongitudeDegrees>
            </Position>
            <AltitudeMeters>623.20001220703125</AltitudeMeters>
            <DistanceMeters>80881.385184189</DistanceMeters>
          </Trackpoint>
          <Trackpoint>
            <Time>2019-05-08T12:41:43.000Z</Time>
            <Position>
              <LatitudeDegrees>42.81496164388954639434814453125</LatitudeDegrees>
              <LongitudeDegrees>0.5973083339631557464599609375</LongitudeDegrees>
            </Position>
            <AltitudeMeters>623.4000244140625</AltitudeMeters>
            <DistanceMeters>80887.152139325</DistanceMeters>
          </Trackpoint>
          <Trackpoint>
            <Time>2019-05-08T12:41:44.000Z</Time>
            <Position>
              <LatitudeDegrees>42.81496147625148296356201171875</LatitudeDegrees>
              <LongitudeDegrees>0.5973090045154094696044921875</LongitudeDegrees>
            </Position>
            <AltitudeMeters>623.4000244140625</AltitudeMeters>
            <DistanceMeters>80887.286527394</DistanceMeters>
          </Trackpoint>
          <Trackpoint>
            <Time>2019-05-08T12:42:49.000Z</Time>
            <Position>
              <LatitudeDegrees>42.814914621412754058837890625</LatitudeDegrees>
              <LongitudeDegrees>0.5973368324339389801025390625</LongitudeDegrees>
            </Position>
            <AltitudeMeters>624</AltitudeMeters>
            <DistanceMeters>80892.973858386</DistanceMeters>
          </Trackpoint>
          <Trackpoint>
            <Time>2019-05-08T12:42:50.000Z</Time>
            <Position>
              <LatitudeDegrees>42.81490012072026729583740234375</LatitudeDegrees>
              <LongitudeDegrees>0.5973509140312671661376953125</LongitudeDegrees>
            </Position>
            <AltitudeMeters>624</AltitudeMeters>
            <DistanceMeters>80894.955797652</DistanceMeters>
          </Trackpoint>
          <Trackpoint>
            <Time>2019-05-08T12:42:51.000Z</Time>
            <Position>
              <LatitudeDegrees>42.81488587148487567901611328125</LatitudeDegrees>
              <LongitudeDegrees>0.597371198236942291259765625</LongitudeDegrees>
            </Position>
            <AltitudeMeters>624</AltitudeMeters>
            <DistanceMeters>80897.246316024</DistanceMeters>
          </Trackpoint>
          <Trackpoint>
            <Time>2019-05-08T12:42:52.000Z</Time>
            <Position>
              <LatitudeDegrees>42.8148753941059112548828125</LatitudeDegrees>
              <LongitudeDegrees>0.5973985232412815093994140625</LongitudeDegrees>
            </Position>
            <AltitudeMeters>624</AltitudeMeters>
            <DistanceMeters>80899.764075676</DistanceMeters>
          </Trackpoint>
          <Trackpoint>
            <Time>2019-05-08T12:42:53.000Z</Time>
            <Position>
              <LatitudeDegrees>42.81487547792494297027587890625</LatitudeDegrees>
              <LongitudeDegrees>0.5974340625107288360595703125</LongitudeDegrees>
            </Position>
            <AltitudeMeters>624</AltitudeMeters>
            <DistanceMeters>80902.666671294</DistanceMeters>
          </Trackpoint>
          <Trackpoint>
            <Time>2019-05-08T12:42:55.000Z</Time>
            <Position>
              <LatitudeDegrees>42.814871706068515777587890625</LatitudeDegrees>
              <LongitudeDegrees>0.5975138582289218902587890625</LongitudeDegrees>
            </Position>
            <AltitudeMeters>624</AltitudeMeters>
            <DistanceMeters>80909.195220966</DistanceMeters>
          </Trackpoint>
          <Trackpoint>
            <Time>2019-05-08T12:42:59.000Z</Time>
            <Position>
              <LatitudeDegrees>42.8147689439356327056884765625</LatitudeDegrees>
              <LongitudeDegrees>0.5976496450603008270263671875</LongitudeDegrees>
            </Position>
            <AltitudeMeters>623.79998779296875</AltitudeMeters>
            <DistanceMeters>80925.124034102</DistanceMeters>
          </Trackpoint>
          <Trackpoint>
            <Time>2019-05-08T12:43:04.000Z</Time>
            <Position>
              <LatitudeDegrees>42.81457540579140186309814453125</LatitudeDegrees>
              <LongitudeDegrees>0.597731284797191619873046875</LongitudeDegrees>
            </Position>
            <AltitudeMeters>623</AltitudeMeters>
            <DistanceMeters>80947.673014441</DistanceMeters>
          </Trackpoint>
          <Trackpoint>
            <Time>2019-05-08T12:43:05.000Z</Time>
            <Position>
              <LatitudeDegrees>42.81453919596970081329345703125</LatitudeDegrees>
              <LongitudeDegrees>0.59773539192974567413330078125</LongitudeDegrees>
            </Position>
            <AltitudeMeters>623</AltitudeMeters>
            <DistanceMeters>80951.715839983</DistanceMeters>
          </Trackpoint>
          <Trackpoint>
            <Time>2019-05-08T12:43:09.000Z</Time>
            <Position>
              <LatitudeDegrees>42.8143954463303089141845703125</LatitudeDegrees>
              <LongitudeDegrees>0.597700439393520355224609375</LongitudeDegrees>
            </Position>
            <AltitudeMeters>623</AltitudeMeters>
            <DistanceMeters>80967.967908651</DistanceMeters>
          </Trackpoint>
          <Trackpoint>
            <Time>2019-05-08T12:43:11.000Z</Time>
            <Position>
              <LatitudeDegrees>42.81431573443114757537841796875</LatitudeDegrees>
              <LongitudeDegrees>0.5976734496653079986572265625</LongitudeDegrees>
            </Position>
            <AltitudeMeters>623.20001220703125</AltitudeMeters>
            <DistanceMeters>80977.109755154</DistanceMeters>
          </Trackpoint>
          <Trackpoint>
            <Time>2019-05-08T12:43:14.000Z</Time>
            <Position>
              <LatitudeDegrees>42.81419478356838226318359375</LatitudeDegrees>
              <LongitudeDegrees>0.59764017350971698760986328125</LongitudeDegrees>
            </Position>
            <AltitudeMeters>623.20001220703125</AltitudeMeters>
            <DistanceMeters>80990.843334683</DistanceMeters>
          </Trackpoint>
          <Trackpoint>
            <Time>2019-05-08T12:43:16.000Z</Time>
            <Position>
              <LatitudeDegrees>42.81411741860210895538330078125</LatitudeDegrees>
              <LongitudeDegrees>0.5976201407611370086669921875</LongitudeDegrees>
            </Position>
            <AltitudeMeters>623.5999755859375</AltitudeMeters>
            <DistanceMeters>80999.608486729</DistanceMeters>
          </Trackpoint>
          <Trackpoint>
            <Time>2019-05-08T12:43:17.000Z</Time>
            <Position>
              <LatitudeDegrees>42.81408011913299560546875</LatitudeDegrees>
              <LongitudeDegrees>0.59760999865829944610595703125</LongitudeDegrees>
            </Position>
            <AltitudeMeters>623.79998779296875</AltitudeMeters>
            <DistanceMeters>81003.842244131</DistanceMeters>
          </Trackpoint>
          <Trackpoint>
            <Time>2019-05-08T12:43:20.000Z</Time>
            <Position>
              <LatitudeDegrees>42.8139736689627170562744140625</LatitudeDegrees>
              <LongitudeDegrees>0.59757462702691555023193359375</LongitudeDegrees>
            </Position>
            <AltitudeMeters>624.4000244140625</AltitudeMeters>
            <DistanceMeters>81016.036804348</DistanceMeters>
          </Trackpoint>
          <Trackpoint>
            <Time>2019-05-08T12:43:23.000Z</Time>
            <Position>
              <LatitudeDegrees>42.81386679969727993011474609375</LatitudeDegrees>
              <LongitudeDegrees>0.59755316935479640960693359375</LongitudeDegrees>
            </Position>
            <AltitudeMeters>624.4000244140625</AltitudeMeters>
            <DistanceMeters>81028.05984322</DistanceMeters>
          </Trackpoint>
          <Trackpoint>
            <Time>2019-05-08T12:43:24.000Z</Time>
            <Position>
              <LatitudeDegrees>42.813831008970737457275390625</LatitudeDegrees>
              <LongitudeDegrees>0.5975410155951976776123046875</LongitudeDegrees>
            </Position>
            <AltitudeMeters>624.5999755859375</AltitudeMeters>
            <DistanceMeters>81032.164733309</DistanceMeters>
          </Trackpoint>
          <Trackpoint>
            <Time>2019-05-08T12:43:26.000Z</Time>
            <Position>
              <LatitudeDegrees>42.81375850550830364227294921875</LatitudeDegrees>
              <LongitudeDegrees>0.5975170433521270751953125</LongitudeDegrees>
            </Position>
            <AltitudeMeters>625.20001220703125</AltitudeMeters>
            <DistanceMeters>81040.468567588</DistanceMeters>
          </Trackpoint>
          <Trackpoint>
            <Time>2019-05-08T12:43:29.000Z</Time>
            <Position>
              <LatitudeDegrees>42.81364895403385162353515625</LatitudeDegrees>
              <LongitudeDegrees>0.59748351573944091796875</LongitudeDegrees>
            </Position>
            <AltitudeMeters>625.4000244140625</AltitudeMeters>
            <DistanceMeters>81052.965574113</DistanceMeters>
          </Trackpoint>
          <Trackpoint>
            <Time>2019-05-08T12:43:32.000Z</Time>
            <Position>
              <LatitudeDegrees>42.8135408274829387664794921875</LatitudeDegrees>
              <LongitudeDegrees>0.597436912357807159423828125</LongitudeDegrees>
            </Position>
            <AltitudeMeters>625.79998779296875</AltitudeMeters>
            <DistanceMeters>81065.588040939</DistanceMeters>
          </Trackpoint>
          <Trackpoint>
            <Time>2019-05-08T12:43:34.000Z</Time>
            <Position>
              <LatitudeDegrees>42.8134672343730926513671875</LatitudeDegrees>
              <LongitudeDegrees>0.59741905890405178070068359375</LongitudeDegrees>
            </Position>
            <AltitudeMeters>626.4000244140625</AltitudeMeters>
            <DistanceMeters>81073.908171108</DistanceMeters>
          </Trackpoint>
          <Trackpoint>
            <Time>2019-05-08T12:43:39.000Z</Time>
            <Position>
              <LatitudeDegrees>42.81328224577009677886962890625</LatitudeDegrees>
              <LongitudeDegrees>0.5973633192479610443115234375</LongitudeDegrees>
            </Position>
            <AltitudeMeters>626.79998779296875</AltitudeMeters>
            <DistanceMeters>81094.994682533</DistanceMeters>
          </Trackpoint>
          <Trackpoint>
            <Time>2019-05-08T12:43:45.000Z</Time>
            <Position>
              <LatitudeDegrees>42.8130607120692729949951171875</LatitudeDegrees>
              <LongitudeDegrees>0.59729106724262237548828125</LongitudeDegrees>
            </Position>
            <AltitudeMeters>628</AltitudeMeters>
            <DistanceMeters>81120.347767187</DistanceMeters>
          </Trackpoint>
          <Trackpoint>
            <Time>2019-05-08T12:43:52.000Z</Time>
            <Position>
              <LatitudeDegrees>42.812784276902675628662109375</LatitudeDegrees>
              <LongitudeDegrees>0.5971980281174182891845703125</LongitudeDegrees>
            </Position>
            <AltitudeMeters>628.5999755859375</AltitudeMeters>
            <DistanceMeters>81152.039425749</DistanceMeters>
          </Trackpoint>
          <Trackpoint>
            <Time>2019-05-08T12:44:01.000Z</Time>
            <Position>
              <LatitudeDegrees>42.81239141710102558135986328125</LatitudeDegrees>
              <LongitudeDegrees>0.59706400148570537567138671875</LongitudeDegrees>
            </Position>
            <AltitudeMeters>628.79998779296875</AltitudeMeters>
            <DistanceMeters>81197.113953139</DistanceMeters>
          </Trackpoint>
          <Trackpoint>
            <Time>2019-05-08T12:44:02.000Z</Time>
            <Position>
              <LatitudeDegrees>42.8123433887958526611328125</LatitudeDegrees>
              <LongitudeDegrees>0.5970411188900470733642578125</LongitudeDegrees>
            </Position>
            <AltitudeMeters>628.5999755859375</AltitudeMeters>
            <DistanceMeters>81202.775823093</DistanceMeters>
          </Trackpoint>
          <Trackpoint>
            <Time>2019-05-08T12:44:05.000Z</Time>
            <Position>
              <LatitudeDegrees>42.812187485396862030029296875</LatitudeDegrees>
              <LongitudeDegrees>0.59696358628571033477783203125</LongitudeDegrees>
            </Position>
            <AltitudeMeters>628.5999755859375</AltitudeMeters>
            <DistanceMeters>81221.247217419</DistanceMeters>
          </Trackpoint>
          <Trackpoint>
            <Time>2019-05-08T12:44:08.000Z</Time>
            <Position>
              <LatitudeDegrees>42.8120156563818454742431640625</LatitudeDegrees>
              <LongitudeDegrees>0.596861578524112701416015625</LongitudeDegrees>
            </Position>
            <AltitudeMeters>628.5999755859375</AltitudeMeters>
            <DistanceMeters>81242.106825841</DistanceMeters>
          </Trackpoint>
          <Trackpoint>
            <Time>2019-05-08T12:44:09.000Z</Time>
            <Position>
              <LatitudeDegrees>42.81195488758385181427001953125</LatitudeDegrees>
              <LongitudeDegrees>0.59682327322661876678466796875</LongitudeDegrees>
            </Position>
            <AltitudeMeters>628.5999755859375</AltitudeMeters>
            <DistanceMeters>81249.557792891</DistanceMeters>
          </Trackpoint>
          <Trackpoint>
            <Time>2019-05-08T12:44:12.000Z</Time>
            <Position>
              <LatitudeDegrees>42.81176495365798473358154296875</LatitudeDegrees>
              <LongitudeDegrees>0.59670793823897838592529296875</LongitudeDegrees>
            </Position>
            <AltitudeMeters>628.20001220703125</AltitudeMeters>
            <DistanceMeters>81272.700456177</DistanceMeters>
          </Trackpoint>
          <Trackpoint>
            <Time>2019-05-08T12:44:13.000Z</Time>
            <Position>
              <LatitudeDegrees>42.81169831752777099609375</LatitudeDegrees>
              <LongitudeDegrees>0.59667139314115047454833984375</LongitudeDegrees>
            </Position>
            <AltitudeMeters>627.79998779296875</AltitudeMeters>
            <DistanceMeters>81280.695134474</DistanceMeters>
          </Trackpoint>
          <Trackpoint>
            <Time>2019-05-08T12:44:15.000Z</Time>
            <Position>
              <LatitudeDegrees>42.81157166697084903717041015625</LatitudeDegrees>
              <LongitudeDegrees>0.596590004861354827880859375</LongitudeDegrees>
            </Position>
            <AltitudeMeters>627</AltitudeMeters>
            <DistanceMeters>81296.279225912</DistanceMeters>
          </Trackpoint>
          <Trackpoint>
            <Time>2019-05-08T12:44:17.000Z</Time>
            <Position>
              <LatitudeDegrees>42.8114497102797031402587890625</LatitudeDegrees>
              <LongitudeDegrees>0.596489422023296356201171875</LongitudeDegrees>
            </Position>
            <AltitudeMeters>626.20001220703125</AltitudeMeters>
            <DistanceMeters>81312.144418971</DistanceMeters>
          </Trackpoint>
          <Trackpoint>
            <Time>2019-05-08T12:44:20.000Z</Time>
            <Position>
              <LatitudeDegrees>42.81126069836318492889404296875</LatitudeDegrees>
              <LongitudeDegrees>0.5963672138750553131103515625</LongitudeDegrees>
            </Position>
            <AltitudeMeters>625.20001220703125</AltitudeMeters>
            <DistanceMeters>81335.428097147</DistanceMeters>
          </Trackpoint>
          <Trackpoint>
            <Time>2019-05-08T12:44:23.000Z</Time>
            <Position>
              <LatitudeDegrees>42.811073027551174163818359375</LatitudeDegrees>
              <LongitudeDegrees>0.59625363908708095550537109375</LongitudeDegrees>
            </Position>
            <AltitudeMeters>624.20001220703125</AltitudeMeters>
            <DistanceMeters>81358.281972563</DistanceMeters>
          </Trackpoint>
          <Trackpoint>
            <Time>2019-05-08T12:44:25.000Z</Time>
            <Position>
              <LatitudeDegrees>42.8109528310596942901611328125</LatitudeDegrees>
              <LongitudeDegrees>0.59617669321596622467041015625</LongitudeDegrees>
            </Position>
            <AltitudeMeters>624</AltitudeMeters>
            <DistanceMeters>81373.06160548</DistanceMeters>
          </Trackpoint>
          <Trackpoint>
            <Time>2019-05-08T12:44:27.000Z</Time>
            <Position>
              <LatitudeDegrees>42.8108304552733898162841796875</LatitudeDegrees>
              <LongitudeDegrees>0.5961117334663867950439453125</LongitudeDegrees>
            </Position>
            <AltitudeMeters>624</AltitudeMeters>
            <DistanceMeters>81387.678431698</DistanceMeters>
          </Trackpoint>
          <Trackpoint>
            <Time>2019-05-08T12:44:29.000Z</Time>
            <Position>
              <LatitudeDegrees>42.810707576572895050048828125</LatitudeDegrees>
              <LongitudeDegrees>0.59606990776956081390380859375</LongitudeDegrees>
            </Position>
            <AltitudeMeters>624</AltitudeMeters>
            <DistanceMeters>81401.775093083</DistanceMeters>
          </Trackpoint>
          <Trackpoint>
            <Time>2019-05-08T12:44:31.000Z</Time>
            <Position>
              <LatitudeDegrees>42.81058360822498798370361328125</LatitudeDegrees>
              <LongitudeDegrees>0.596046857535839080810546875</LongitudeDegrees>
            </Position>
            <AltitudeMeters>623.79998779296875</AltitudeMeters>
            <DistanceMeters>81415.700641246</DistanceMeters>
          </Trackpoint>
          <Trackpoint>
            <Time>2019-05-08T12:44:32.000Z</Time>
            <Position>
              <LatitudeDegrees>42.81052242033183574676513671875</LatitudeDegrees>
              <LongitudeDegrees>0.59604224748909473419189453125</LongitudeDegrees>
            </Position>
            <AltitudeMeters>623.79998779296875</AltitudeMeters>
            <DistanceMeters>81422.521414944</DistanceMeters>
          </Trackpoint>
          <Trackpoint>
            <Time>2019-05-08T12:44:34.000Z</Time>
            <Position>
              <LatitudeDegrees>42.81039870344102382659912109375</LatitudeDegrees>
              <LongitudeDegrees>0.59604660607874393463134765625</LongitudeDegrees>
            </Position>
            <AltitudeMeters>624</AltitudeMeters>
            <DistanceMeters>81436.296028051</DistanceMeters>
          </Trackpoint>
          <Trackpoint>
            <Time>2019-05-08T12:44:37.000Z</Time>
            <Position>
              <LatitudeDegrees>42.810222096741199493408203125</LatitudeDegrees>
              <LongitudeDegrees>0.59605817310512065887451171875</LongitudeDegrees>
            </Position>
            <AltitudeMeters>623.79998779296875</AltitudeMeters>
            <DistanceMeters>81455.975278251</DistanceMeters>
          </Trackpoint>
          <Trackpoint>
            <Time>2019-05-08T12:44:39.000Z</Time>
            <Position>
              <LatitudeDegrees>42.8101039119064807891845703125</LatitudeDegrees>
              <LongitudeDegrees>0.5960594303905963897705078125</LongitudeDegrees>
            </Position>
            <AltitudeMeters>624</AltitudeMeters>
            <DistanceMeters>81469.130215916</DistanceMeters>
          </Trackpoint>
          <Trackpoint>
            <Time>2019-05-08T12:44:42.000Z</Time>
            <Position>
              <LatitudeDegrees>42.80993132852017879486083984375</LatitudeDegrees>
              <LongitudeDegrees>0.5960664711892604827880859375</LongitudeDegrees>
            </Position>
            <AltitudeMeters>624.20001220703125</AltitudeMeters>
            <DistanceMeters>81488.347944619</DistanceMeters>
          </Trackpoint>
          <Trackpoint>
            <Time>2019-05-08T12:44:46.000Z</Time>
            <Position>
              <LatitudeDegrees>42.8097119741141796112060546875</LatitudeDegrees>
              <LongitudeDegrees>0.596079044044017791748046875</LongitudeDegrees>
            </Position>
            <AltitudeMeters>624.79998779296875</AltitudeMeters>
            <DistanceMeters>81512.78441112</DistanceMeters>
          </Trackpoint>
          <Trackpoint>
            <Time>2019-05-08T12:44:47.000Z</Time>
            <Position>
              <LatitudeDegrees>42.80965724028646945953369140625</LatitudeDegrees>
              <LongitudeDegrees>0.59608273208141326904296875</LongitudeDegrees>
            </Position>
            <AltitudeMeters>624.79998779296875</AltitudeMeters>
            <DistanceMeters>81518.884652511</DistanceMeters>
          </Trackpoint>
          <Trackpoint>
            <Time>2019-05-08T12:44:54.000Z</Time>
            <Position>
              <LatitudeDegrees>42.80926111154258251190185546875</LatitudeDegrees>
              <LongitudeDegrees>0.59611885808408260345458984375</LongitudeDegrees>
            </Position>
            <AltitudeMeters>626</AltitudeMeters>
            <DistanceMeters>81563.073198651</DistanceMeters>
          </Trackpoint>
          <Trackpoint>
            <Time>2019-05-08T12:45:00.000Z</Time>
            <Position>
              <LatitudeDegrees>42.8089079819619655609130859375</LatitudeDegrees>
              <LongitudeDegrees>0.5961462669074535369873046875</LongitudeDegrees>
            </Position>
            <AltitudeMeters>626.20001220703125</AltitudeMeters>
            <DistanceMeters>81602.440875239</DistanceMeters>
          </Trackpoint>
          <Trackpoint>
            <Time>2019-05-08T12:45:07.000Z</Time>
            <Position>
              <LatitudeDegrees>42.80852752737700939178466796875</LatitudeDegrees>
              <LongitudeDegrees>0.5961831472814083099365234375</LongitudeDegrees>
            </Position>
            <AltitudeMeters>626</AltitudeMeters>
            <DistanceMeters>81644.893149223</DistanceMeters>
          </Trackpoint>
          <Trackpoint>
            <Time>2019-05-08T12:45:12.000Z</Time>
            <Position>
              <LatitudeDegrees>42.80824606306850910186767578125</LatitudeDegrees>
              <LongitudeDegrees>0.59626436792314052581787109375</LongitudeDegrees>
            </Position>
            <AltitudeMeters>625.79998779296875</AltitudeMeters>
            <DistanceMeters>81676.915178057</DistanceMeters>
          </Trackpoint>
          <Trackpoint>
            <Time>2019-05-08T12:45:14.000Z</Time>
            <Position>
              <LatitudeDegrees>42.80813341028988361358642578125</LatitudeDegrees>
              <LongitudeDegrees>0.59630133211612701416015625</LongitudeDegrees>
            </Position>
            <AltitudeMeters>625.79998779296875</AltitudeMeters>
            <DistanceMeters>81689.812232298</DistanceMeters>
          </Trackpoint>
          <Trackpoint>
            <Time>2019-05-08T12:45:15.000Z</Time>
            <Position>
              <LatitudeDegrees>42.80808580107986927032470703125</LatitudeDegrees>
              <LongitudeDegrees>0.5963288247585296630859375</LongitudeDegrees>
            </Position>
            <AltitudeMeters>625.5999755859375</AltitudeMeters>
            <DistanceMeters>81695.567431721</DistanceMeters>
          </Trackpoint>
          <Trackpoint>
            <Time>2019-05-08T12:45:17.000Z</Time>
            <Position>
              <LatitudeDegrees>42.808034084737300872802734375</LatitudeDegrees>
              <LongitudeDegrees>0.596434772014617919921875</LongitudeDegrees>
            </Position>
            <AltitudeMeters>625.79998779296875</AltitudeMeters>
            <DistanceMeters>81705.958419356</DistanceMeters>
          </Trackpoint>
          <Trackpoint>
            <Time>2019-05-08T12:45:19.000Z</Time>
            <Position>
              <LatitudeDegrees>42.80804439447820186614990234375</LatitudeDegrees>
              <LongitudeDegrees>0.59657013975083827972412109375</LongitudeDegrees>
            </Position>
            <AltitudeMeters>625.5999755859375</AltitudeMeters>
            <DistanceMeters>81717.071264421</DistanceMeters>
          </Trackpoint>
          <Trackpoint>
            <Time>2019-05-08T12:45:20.000Z</Time>
            <Position>
              <LatitudeDegrees>42.808052860200405120849609375</LatitudeDegrees>
              <LongitudeDegrees>0.59664691798388957977294921875</LongitudeDegrees>
            </Position>
            <AltitudeMeters>625.4000244140625</AltitudeMeters>
            <DistanceMeters>81723.411761273</DistanceMeters>
          </Trackpoint>
          <Trackpoint>
            <Time>2019-05-08T12:45:21.000Z</Time>
            <Position>
              <LatitudeDegrees>42.8080590628087520599365234375</LatitudeDegrees>
              <LongitudeDegrees>0.59673509560525417327880859375</LongitudeDegrees>
            </Position>
            <AltitudeMeters>625.4000244140625</AltitudeMeters>
            <DistanceMeters>81730.645035975</DistanceMeters>
          </Trackpoint>
          <Trackpoint>
            <Time>2019-05-08T12:45:22.000Z</Time>
            <Position>
              <LatitudeDegrees>42.8080671094357967376708984375</LatitudeDegrees>
              <LongitudeDegrees>0.59682662598788738250732421875</LongitudeDegrees>
            </Position>
            <AltitudeMeters>625.5999755859375</AltitudeMeters>
            <DistanceMeters>81738.173167202</DistanceMeters>
          </Trackpoint>
          <Trackpoint>
            <Time>2019-05-08T12:45:24.000Z</Time>
            <Position>
              <LatitudeDegrees>42.80808898620307445526123046875</LatitudeDegrees>
              <LongitudeDegrees>0.59700767509639263153076171875</LongitudeDegrees>
            </Position>
            <AltitudeMeters>625.20001220703125</AltitudeMeters>
            <DistanceMeters>81753.156080817</DistanceMeters>
          </Trackpoint>
          <Trackpoint>
            <Time>2019-05-08T12:45:25.000Z</Time>
            <Position>
              <LatitudeDegrees>42.80809686519205570220947265625</LatitudeDegrees>
              <LongitudeDegrees>0.597095601260662078857421875</LongitudeDegrees>
            </Position>
            <AltitudeMeters>625.4000244140625</AltitudeMeters>
            <DistanceMeters>81760.389355519</DistanceMeters>
          </Trackpoint>
          <Trackpoint>
            <Time>2019-05-08T12:45:27.000Z</Time>
            <Position>
              <LatitudeDegrees>42.808113209903240203857421875</LatitudeDegrees>
              <LongitudeDegrees>0.59726290404796600341796875</LongitudeDegrees>
            </Position>
            <AltitudeMeters>625.20001220703125</AltitudeMeters>
            <DistanceMeters>81774.171177892</DistanceMeters>
          </Trackpoint>
          <Trackpoint>
            <Time>2019-05-08T12:45:29.000Z</Time>
            <Position>
              <LatitudeDegrees>42.80813273973762989044189453125</LatitudeDegrees>
              <LongitudeDegrees>0.59741671197116374969482421875</LongitudeDegrees>
            </Position>
            <AltitudeMeters>624.5999755859375</AltitudeMeters>
            <DistanceMeters>81786.916807544</DistanceMeters>
          </Trackpoint>
          <Trackpoint>
            <Time>2019-05-08T12:45:30.000Z</Time>
            <Position>
              <LatitudeDegrees>42.8081432171165943145751953125</LatitudeDegrees>
              <LongitudeDegrees>0.597490556538105010986328125</LongitudeDegrees>
            </Position>
            <AltitudeMeters>623.79998779296875</AltitudeMeters>
            <DistanceMeters>81793.058356966</DistanceMeters>
          </Trackpoint>
          <Trackpoint>
            <Time>2019-05-08T12:45:31.000Z</Time>
            <Position>
              <LatitudeDegrees>42.80815310776233673095703125</LatitudeDegrees>
              <LongitudeDegrees>0.597563646733760833740234375</LongitudeDegrees>
            </Position>
            <AltitudeMeters>623.4000244140625</AltitudeMeters>
            <DistanceMeters>81799.128176724</DistanceMeters>
          </Trackpoint>
          <Trackpoint>
            <Time>2019-05-08T12:45:33.000Z</Time>
            <Position>
              <LatitudeDegrees>42.808178924024105072021484375</LatitudeDegrees>
              <LongitudeDegrees>0.59770471416413784027099609375</LongitudeDegrees>
            </Position>
            <AltitudeMeters>622.79998779296875</AltitudeMeters>
            <DistanceMeters>81811.000052445</DistanceMeters>
          </Trackpoint>
          <Trackpoint>
            <Time>2019-05-08T12:45:37.000Z</Time>
            <Position>
              <LatitudeDegrees>42.808248661458492279052734375</LatitudeDegrees>
              <LongitudeDegrees>0.59797628782689571380615234375</LongitudeDegrees>
            </Position>
            <AltitudeMeters>622.79998779296875</AltitudeMeters>
            <DistanceMeters>81834.494530794</DistanceMeters>
          </Trackpoint>
          <Trackpoint>
            <Time>2019-05-08T12:45:42.000Z</Time>
            <Position>
              <LatitudeDegrees>42.8083182312548160552978515625</LatitudeDegrees>
              <LongitudeDegrees>0.59833251871168613433837890625</LongitudeDegrees>
            </Position>
            <AltitudeMeters>622.79998779296875</AltitudeMeters>
            <DistanceMeters>81864.595358195</DistanceMeters>
          </Trackpoint>
          <Trackpoint>
            <Time>2019-05-08T12:45:43.000Z</Time>
            <Position>
              <LatitudeDegrees>42.80832820571959018707275390625</LatitudeDegrees>
              <LongitudeDegrees>0.598399825394153594970703125</LongitudeDegrees>
            </Position>
            <AltitudeMeters>622.79998779296875</AltitudeMeters>
            <DistanceMeters>81870.202739596</DistanceMeters>
          </Trackpoint>
          <Trackpoint>
            <Time>2019-05-08T12:45:45.000Z</Time>
            <Position>
              <LatitudeDegrees>42.808335162699222564697265625</LatitudeDegrees>
              <LongitudeDegrees>0.59852446429431438446044921875</LongitudeDegrees>
            </Position>
            <AltitudeMeters>623</AltitudeMeters>
            <DistanceMeters>81880.409157276</DistanceMeters>
          </Trackpoint>
          <Trackpoint>
            <Time>2019-05-08T12:45:47.000Z</Time>
            <Position>
              <LatitudeDegrees>42.80829685740172863006591796875</LatitudeDegrees>
              <LongitudeDegrees>0.59861985035240650177001953125</LongitudeDegrees>
            </Position>
            <AltitudeMeters>623.20001220703125</AltitudeMeters>
            <DistanceMeters>81889.288436381</DistanceMeters>
          </Trackpoint>
          <Trackpoint>
            <Time>2019-05-08T12:45:48.000Z</Time>
            <Position>
              <LatitudeDegrees>42.8082702867686748504638671875</LatitudeDegrees>
              <LongitudeDegrees>0.5986601673066616058349609375</LongitudeDegrees>
            </Position>
            <AltitudeMeters>623.20001220703125</AltitudeMeters>
            <DistanceMeters>81893.713050006</DistanceMeters>
          </Trackpoint>
          <Trackpoint>
            <Time>2019-05-08T12:45:51.000Z</Time>
            <Position>
              <LatitudeDegrees>42.80821605585515499114990234375</LatitudeDegrees>
              <LongitudeDegrees>0.59880760498344898223876953125</LongitudeDegrees>
            </Position>
            <AltitudeMeters>623.4000244140625</AltitudeMeters>
            <DistanceMeters>81907.180719272</DistanceMeters>
          </Trackpoint>
          <Trackpoint>
            <Time>2019-05-08T12:45:52.000Z</Time>
            <Position>
              <LatitudeDegrees>42.80819199979305267333984375</LatitudeDegrees>
              <LongitudeDegrees>0.59883409179747104644775390625</LongitudeDegrees>
            </Position>
            <AltitudeMeters>623.4000244140625</AltitudeMeters>
            <DistanceMeters>81910.62273326</DistanceMeters>
          </Trackpoint>
          <Trackpoint>
            <Time>2019-05-08T12:45:54.000Z</Time>
            <Position>
              <LatitudeDegrees>42.80813609249889850616455078125</LatitudeDegrees>
              <LongitudeDegrees>0.5988147296011447906494140625</LongitudeDegrees>
            </Position>
            <AltitudeMeters>623.5999755859375</AltitudeMeters>
            <DistanceMeters>81917.043192665</DistanceMeters>
          </Trackpoint>
          <Trackpoint>
            <Time>2019-05-08T12:45:58.000Z</Time>
            <Position>
              <LatitudeDegrees>42.80810407362878322601318359375</LatitudeDegrees>
              <LongitudeDegrees>0.59875932522118091583251953125</LongitudeDegrees>
            </Position>
            <AltitudeMeters>623.5999755859375</AltitudeMeters>
            <DistanceMeters>81922.801529291</DistanceMeters>
          </Trackpoint>
          <Trackpoint>
            <Time>2019-05-08T12:49:00.000Z</Time>
            <Position>
              <LatitudeDegrees>42.80812469311058521270751953125</LatitudeDegrees>
              <LongitudeDegrees>0.59866209514439105987548828125</LongitudeDegrees>
            </Position>
            <AltitudeMeters>625.5999755859375</AltitudeMeters>
            <DistanceMeters>81931.066122338</DistanceMeters>
          </Trackpoint>
          <Trackpoint>
            <Time>2019-05-08T12:49:02.000Z</Time>
            <Position>
              <LatitudeDegrees>42.8081526048481464385986328125</LatitudeDegrees>
              <LongitudeDegrees>0.59859864413738250732421875</LongitudeDegrees>
            </Position>
            <AltitudeMeters>625.5999755859375</AltitudeMeters>
            <DistanceMeters>81937.107609653</DistanceMeters>
          </Trackpoint>
          <Trackpoint>
            <Time>2019-05-08T12:49:07.000Z</Time>
            <Position>
              <LatitudeDegrees>42.80820113606750965118408203125</LatitudeDegrees>
              <LongitudeDegrees>0.59836604632437229156494140625</LongitudeDegrees>
            </Position>
            <AltitudeMeters>625.5999755859375</AltitudeMeters>
            <DistanceMeters>81956.85374018</DistanceMeters>
          </Trackpoint>
          <Trackpoint>
            <Time>2019-05-08T12:49:08.000Z</Time>
            <Position>
              <LatitudeDegrees>42.80820163898169994354248046875</LatitudeDegrees>
              <LongitudeDegrees>0.598308630287647247314453125</LongitudeDegrees>
            </Position>
            <AltitudeMeters>625.5999755859375</AltitudeMeters>
            <DistanceMeters>81961.541938775</DistanceMeters>
          </Trackpoint>
          <Trackpoint>
            <Time>2019-05-08T12:49:11.000Z</Time>
            <Position>
              <LatitudeDegrees>42.8081911616027355194091796875</LatitudeDegrees>
              <LongitudeDegrees>0.59813001193106174468994140625</LongitudeDegrees>
            </Position>
            <AltitudeMeters>625.4000244140625</AltitudeMeters>
            <DistanceMeters>81976.173584353</DistanceMeters>
          </Trackpoint>
          <Trackpoint>
            <Time>2019-05-08T12:49:13.000Z</Time>
            <Position>
              <LatitudeDegrees>42.808203063905239105224609375</LatitudeDegrees>
              <LongitudeDegrees>0.59800319373607635498046875</LongitudeDegrees>
            </Position>
            <AltitudeMeters>625.20001220703125</AltitudeMeters>
            <DistanceMeters>81986.613124219</DistanceMeters>
          </Trackpoint>
          <Trackpoint>
            <Time>2019-05-08T12:49:14.000Z</Time>
            <Position>
              <LatitudeDegrees>42.8082142956554889678955078125</LatitudeDegrees>
              <LongitudeDegrees>0.59793873690068721771240234375</LongitudeDegrees>
            </Position>
            <AltitudeMeters>625.20001220703125</AltitudeMeters>
            <DistanceMeters>81992.023808818</DistanceMeters>
          </Trackpoint>
          <Trackpoint>
            <Time>2019-05-08T12:49:15.000Z</Time>
            <Position>
              <LatitudeDegrees>42.80822192318737506866455078125</LatitudeDegrees>
              <LongitudeDegrees>0.59787151403725147247314453125</LongitudeDegrees>
            </Position>
            <AltitudeMeters>625</AltitudeMeters>
            <DistanceMeters>81997.577793075</DistanceMeters>
          </Trackpoint>
          <Trackpoint>
            <Time>2019-05-08T12:49:17.000Z</Time>
            <Position>
              <LatitudeDegrees>42.80820800922811031341552734375</LatitudeDegrees>
              <LongitudeDegrees>0.59773338027298450469970703125</LongitudeDegrees>
            </Position>
            <AltitudeMeters>624.79998779296875</AltitudeMeters>
            <DistanceMeters>82008.962770777</DistanceMeters>
          </Trackpoint>
          <Trackpoint>
            <Time>2019-05-08T12:49:18.000Z</Time>
            <Position>
              <LatitudeDegrees>42.8081935085356235504150390625</LatitudeDegrees>
              <LongitudeDegrees>0.597663223743438720703125</LongitudeDegrees>
            </Position>
            <AltitudeMeters>624.79998779296875</AltitudeMeters>
            <DistanceMeters>82014.915418925</DistanceMeters>
          </Trackpoint>
          <Trackpoint>
            <Time>2019-05-08T12:49:19.000Z</Time>
            <Position>
              <LatitudeDegrees>42.808181606233119964599609375</LatitudeDegrees>
              <LongitudeDegrees>0.59759139083325862884521484375</LongitudeDegrees>
            </Position>
            <AltitudeMeters>624.5999755859375</AltitudeMeters>
            <DistanceMeters>82020.928440302</DistanceMeters>
          </Trackpoint>
          <Trackpoint>
            <Time>2019-05-08T12:49:21.000Z</Time>
            <Position>
              <LatitudeDegrees>42.80816308222711086273193359375</LatitudeDegrees>
              <LongitudeDegrees>0.59744202531874179840087890625</LongitudeDegrees>
            </Position>
            <AltitudeMeters>624.4000244140625</AltitudeMeters>
            <DistanceMeters>82033.29798416</DistanceMeters>
          </Trackpoint>
          <Trackpoint>
            <Time>2019-05-08T12:49:22.000Z</Time>
            <Position>
              <LatitudeDegrees>42.80815235339105129241943359375</LatitudeDegrees>
              <LongitudeDegrees>0.59736474417150020599365234375</LongitudeDegrees>
            </Position>
            <AltitudeMeters>624.5999755859375</AltitudeMeters>
            <DistanceMeters>82039.720552898</DistanceMeters>
          </Trackpoint>
          <Trackpoint>
            <Time>2019-05-08T12:49:24.000Z</Time>
            <Position>
              <LatitudeDegrees>42.808128297328948974609375</LatitudeDegrees>
              <LongitudeDegrees>0.59720791876316070556640625</LongitudeDegrees>
            </Position>
            <AltitudeMeters>624.5999755859375</AltitudeMeters>
            <DistanceMeters>82052.802870692</DistanceMeters>
          </Trackpoint>
          <Trackpoint>
            <Time>2019-05-08T12:49:29.000Z</Time>
            <Position>
              <LatitudeDegrees>42.808081023395061492919921875</LatitudeDegrees>
              <LongitudeDegrees>0.59679745696485042572021484375</LongitudeDegrees>
            </Position>
            <AltitudeMeters>624.5999755859375</AltitudeMeters>
            <DistanceMeters>82086.729670187</DistanceMeters>
          </Trackpoint>
          <Trackpoint>
            <Time>2019-05-08T12:49:31.000Z</Time>
            <Position>
              <LatitudeDegrees>42.8080634213984012603759765625</LatitudeDegrees>
              <LongitudeDegrees>0.59664071537554264068603515625</LongitudeDegrees>
            </Position>
            <AltitudeMeters>624.5999755859375</AltitudeMeters>
            <DistanceMeters>82099.677386943</DistanceMeters>
          </Trackpoint>
          <Trackpoint>
            <Time>2019-05-08T12:49:32.000Z</Time>
            <Position>
              <LatitudeDegrees>42.80805051326751708984375</LatitudeDegrees>
              <LongitudeDegrees>0.59657734818756580352783203125</LongitudeDegrees>
            </Position>
            <AltitudeMeters>624.5999755859375</AltitudeMeters>
            <DistanceMeters>82105.047867756</DistanceMeters>
          </Trackpoint>
          <Trackpoint>
            <Time>2019-05-08T12:49:34.000Z</Time>
            <Position>
              <LatitudeDegrees>42.808012627065181732177734375</LatitudeDegrees>
              <LongitudeDegrees>0.59649436734616756439208984375</LongitudeDegrees>
            </Position>
            <AltitudeMeters>624.5999755859375</AltitudeMeters>
            <DistanceMeters>82113.028980412</DistanceMeters>
          </Trackpoint>
          <Trackpoint>
            <Time>2019-05-08T12:49:35.000Z</Time>
            <Position>
              <LatitudeDegrees>42.8079856373369693756103515625</LatitudeDegrees>
              <LongitudeDegrees>0.596467964351177215576171875</LongitudeDegrees>
            </Position>
            <AltitudeMeters>624.79998779296875</AltitudeMeters>
            <DistanceMeters>82116.727705302</DistanceMeters>
          </Trackpoint>
          <Trackpoint>
            <Time>2019-05-08T12:49:38.000Z</Time>
            <Position>
              <LatitudeDegrees>42.80788430012762546539306640625</LatitudeDegrees>
              <LongitudeDegrees>0.59641054831445217132568359375</LongitudeDegrees>
            </Position>
            <AltitudeMeters>625</AltitudeMeters>
            <DistanceMeters>82128.942242666</DistanceMeters>
          </Trackpoint>
          <Trackpoint>
            <Time>2019-05-08T12:49:42.000Z</Time>
            <Position>
              <LatitudeDegrees>42.80769118107855319976806640625</LatitudeDegrees>
              <LongitudeDegrees>0.5964708141982555389404296875</LongitudeDegrees>
            </Position>
            <AltitudeMeters>626.4000244140625</AltitudeMeters>
            <DistanceMeters>82150.992945516</DistanceMeters>
          </Trackpoint>
          <Trackpoint>
            <Time>2019-05-08T12:49:47.000Z</Time>
            <Position>
              <LatitudeDegrees>42.8074161708354949951171875</LatitudeDegrees>
              <LongitudeDegrees>0.59656661935150623321533203125</LongitudeDegrees>
            </Position>
            <AltitudeMeters>627</AltitudeMeters>
            <DistanceMeters>82182.585862594</DistanceMeters>
          </Trackpoint>
          <Trackpoint>
            <Time>2019-05-08T12:49:49.000Z</Time>
            <Position>
              <LatitudeDegrees>42.807299159467220306396484375</LatitudeDegrees>
              <LongitudeDegrees>0.59660735540091991424560546875</LongitudeDegrees>
            </Position>
            <AltitudeMeters>626.79998779296875</AltitudeMeters>
            <DistanceMeters>82196.028028701</DistanceMeters>
          </Trackpoint>
          <Trackpoint>
            <Time>2019-05-08T12:49:58.000Z</Time>
            <Position>
              <LatitudeDegrees>42.8067521564662456512451171875</LatitudeDegrees>
              <LongitudeDegrees>0.596815980970859527587890625</LongitudeDegrees>
            </Position>
            <AltitudeMeters>626.5999755859375</AltitudeMeters>
            <DistanceMeters>82259.249009678</DistanceMeters>
          </Trackpoint>
          <Trackpoint>
            <Time>2019-05-08T12:50:00.000Z</Time>
            <Position>
              <LatitudeDegrees>42.8066381625831127166748046875</LatitudeDegrees>
              <LongitudeDegrees>0.59687540866434574127197265625</LongitudeDegrees>
            </Position>
            <AltitudeMeters>626.5999755859375</AltitudeMeters>
            <DistanceMeters>82272.832845</DistanceMeters>
          </Trackpoint>
          <Trackpoint>
            <Time>2019-05-08T12:50:01.000Z</Time>
            <Position>
              <LatitudeDegrees>42.80658393166959285736083984375</LatitudeDegrees>
              <LongitudeDegrees>0.59691145084798336029052734375</LongitudeDegrees>
            </Position>
            <AltitudeMeters>626.5999755859375</AltitudeMeters>
            <DistanceMeters>82279.547543183</DistanceMeters>
          </Trackpoint>
          <Trackpoint>
            <Time>2019-05-08T12:50:06.000Z</Time>
            <Position>
              <LatitudeDegrees>42.80632912181317806243896484375</LatitudeDegrees>
              <LongitudeDegrees>0.59712636284530162811279296875</LongitudeDegrees>
            </Position>
            <AltitudeMeters>627</AltitudeMeters>
            <DistanceMeters>82312.89880637</DistanceMeters>
          </Trackpoint>
          <Trackpoint>
            <Time>2019-05-08T12:50:12.000Z</Time>
            <Position>
              <LatitudeDegrees>42.80603826977312564849853515625</LatitudeDegrees>
              <LongitudeDegrees>0.59741620905697345733642578125</LongitudeDegrees>
            </Position>
            <AltitudeMeters>627.20001220703125</AltitudeMeters>
            <DistanceMeters>82353.000530196</DistanceMeters>
          </Trackpoint>
          <Trackpoint>
            <Time>2019-05-08T12:50:15.000Z</Time>
            <Position>
              <LatitudeDegrees>42.805891335010528564453125</LatitudeDegrees>
              <LongitudeDegrees>0.59756708331406116485595703125</LongitudeDegrees>
            </Position>
            <AltitudeMeters>627.5999755859375</AltitudeMeters>
            <DistanceMeters>82373.476086089</DistanceMeters>
          </Trackpoint>
          <Trackpoint>
            <Time>2019-05-08T12:50:20.000Z</Time>
            <Position>
              <LatitudeDegrees>42.80563987791538238525390625</LatitudeDegrees>
              <LongitudeDegrees>0.597819797694683074951171875</LongitudeDegrees>
            </Position>
            <AltitudeMeters>628</AltitudeMeters>
            <DistanceMeters>82408.249112362</DistanceMeters>
          </Trackpoint>
          <Trackpoint>
            <Time>2019-05-08T12:50:21.000Z</Time>
            <Position>
              <LatitudeDegrees>42.805585563182830810546875</LatitudeDegrees>
              <LongitudeDegrees>0.5978625454008579254150390625</LongitudeDegrees>
            </Position>
            <AltitudeMeters>628.20001220703125</AltitudeMeters>
            <DistanceMeters>82415.229534447</DistanceMeters>
          </Trackpoint>
          <Trackpoint>
            <Time>2019-05-08T12:50:27.000Z</Time>
            <Position>
              <LatitudeDegrees>42.8052387200295925140380859375</LatitudeDegrees>
              <LongitudeDegrees>0.59808793477714061737060546875</LongitudeDegrees>
            </Position>
            <AltitudeMeters>628.79998779296875</AltitudeMeters>
            <DistanceMeters>82457.99683485</DistanceMeters>
          </Trackpoint>
          <Trackpoint>
            <Time>2019-05-08T12:50:28.000Z</Time>
            <Position>
              <LatitudeDegrees>42.8051763586699962615966796875</LatitudeDegrees>
              <LongitudeDegrees>0.59811358340084552764892578125</LongitudeDegrees>
            </Position>
            <AltitudeMeters>628.79998779296875</AltitudeMeters>
            <DistanceMeters>82465.247566196</DistanceMeters>
          </Trackpoint>
          <Trackpoint>
            <Time>2019-05-08T12:50:29.000Z</Time>
            <Position>
              <LatitudeDegrees>42.805111818015575408935546875</LatitudeDegrees>
              <LongitudeDegrees>0.5981331132352352142333984375</LongitudeDegrees>
            </Position>
            <AltitudeMeters>628.79998779296875</AltitudeMeters>
            <DistanceMeters>82472.606463426</DistanceMeters>
          </Trackpoint>
          <Trackpoint>
            <Time>2019-05-08T12:50:32.000Z</Time>
            <Position>
              <LatitudeDegrees>42.80491207726299762725830078125</LatitudeDegrees>
              <LongitudeDegrees>0.59814912267029285430908203125</LongitudeDegrees>
            </Position>
            <AltitudeMeters>629</AltitudeMeters>
            <DistanceMeters>82494.876597878</DistanceMeters>
          </Trackpoint>
          <Trackpoint>
            <Time>2019-05-08T12:50:37.000Z</Time>
            <Position>
              <LatitudeDegrees>42.80458468012511730194091796875</LatitudeDegrees>
              <LongitudeDegrees>0.59805289842188358306884765625</LongitudeDegrees>
            </Position>
            <AltitudeMeters>629.20001220703125</AltitudeMeters>
            <DistanceMeters>82532.154089394</DistanceMeters>
          </Trackpoint>
          <Trackpoint>
            <Time>2019-05-08T12:50:43.000Z</Time>
            <Position>
              <LatitudeDegrees>42.80423381365835666656494140625</LatitudeDegrees>
              <LongitudeDegrees>0.597791634500026702880859375</LongitudeDegrees>
            </Position>
            <AltitudeMeters>629.4000244140625</AltitudeMeters>
            <DistanceMeters>82576.653994829</DistanceMeters>
          </Trackpoint>
          <Trackpoint>
            <Time>2019-05-08T12:50:44.000Z</Time>
            <Position>
              <LatitudeDegrees>42.804179750382900238037109375</LatitudeDegrees>
              <LongitudeDegrees>0.59774511493742465972900390625</LongitudeDegrees>
            </Position>
            <AltitudeMeters>629.5999755859375</AltitudeMeters>
            <DistanceMeters>82583.770220563</DistanceMeters>
          </Trackpoint>
          <Trackpoint>
            <Time>2019-05-08T12:50:52.000Z</Time>
            <Position>
              <LatitudeDegrees>42.80373592860996723175048828125</LatitudeDegrees>
              <LongitudeDegrees>0.597377903759479522705078125</LongitudeDegrees>
            </Position>
            <AltitudeMeters>630.4000244140625</AltitudeMeters>
            <DistanceMeters>82641.557636836</DistanceMeters>
          </Trackpoint>
          <Trackpoint>
            <Time>2019-05-08T12:50:53.000Z</Time>
            <Position>
              <LatitudeDegrees>42.8036796860396862030029296875</LatitudeDegrees>
              <LongitudeDegrees>0.59733071364462375640869140625</LongitudeDegrees>
            </Position>
            <AltitudeMeters>630.4000244140625</AltitudeMeters>
            <DistanceMeters>82648.908553612</DistanceMeters>
          </Trackpoint>
          <Trackpoint>
            <Time>2019-05-08T12:50:59.000Z</Time>
            <Position>
              <LatitudeDegrees>42.80334130860865116119384765625</LatitudeDegrees>
              <LongitudeDegrees>0.5970441363751888275146484375</LongitudeDegrees>
            </Position>
            <AltitudeMeters>631.20001220703125</AltitudeMeters>
            <DistanceMeters>82693.249081618</DistanceMeters>
          </Trackpoint>
          <Trackpoint>
            <Time>2019-05-08T12:51:01.000Z</Time>
            <Position>
              <LatitudeDegrees>42.80322161503136157989501953125</LatitudeDegrees>
              <LongitudeDegrees>0.59694732539355754852294921875</LongitudeDegrees>
            </Position>
            <AltitudeMeters>631.4000244140625</AltitudeMeters>
            <DistanceMeters>82708.739893456</DistanceMeters>
          </Trackpoint>
          <Trackpoint>
            <Time>2019-05-08T12:51:08.000Z</Time>
            <Position>
              <LatitudeDegrees>42.8027844987809658050537109375</LatitudeDegrees>
              <LongitudeDegrees>0.596671812236309051513671875</LongitudeDegrees>
            </Position>
            <AltitudeMeters>631.79998779296875</AltitudeMeters>
            <DistanceMeters>82762.342204816</DistanceMeters>
          </Trackpoint>
          <Trackpoint>
            <Time>2019-05-08T12:51:09.000Z</Time>
            <Position>
              <LatitudeDegrees>42.802716605365276336669921875</LatitudeDegrees>
              <LongitudeDegrees>0.59664976783096790313720703125</LongitudeDegrees>
            </Position>
            <AltitudeMeters>631.79998779296875</AltitudeMeters>
            <DistanceMeters>82770.110021163</DistanceMeters>
          </Trackpoint>
          <Trackpoint>
            <Time>2019-05-08T12:51:14.000Z</Time>
            <Position>
              <LatitudeDegrees>42.80235978774726390838623046875</LatitudeDegrees>
              <LongitudeDegrees>0.59657399542629718780517578125</LongitudeDegrees>
            </Position>
            <AltitudeMeters>631.79998779296875</AltitudeMeters>
            <DistanceMeters>82810.303625458</DistanceMeters>
          </Trackpoint>
          <Trackpoint>
            <Time>2019-05-08T12:51:20.000Z</Time>
            <Position>
              <LatitudeDegrees>42.80191521160304546356201171875</LatitudeDegrees>
              <LongitudeDegrees>0.596511550247669219970703125</LongitudeDegrees>
            </Position>
            <AltitudeMeters>631.4000244140625</AltitudeMeters>
            <DistanceMeters>82860.047727899</DistanceMeters>
          </Trackpoint>
          <Trackpoint>
            <Time>2019-05-08T12:51:23.000Z</Time>
            <Position>
              <LatitudeDegrees>42.80169426463544368743896484375</LatitudeDegrees>
              <LongitudeDegrees>0.5964758433401584625244140625</LongitudeDegrees>
            </Position>
            <AltitudeMeters>631</AltitudeMeters>
            <DistanceMeters>82884.81180635</DistanceMeters>
          </Trackpoint>
          <Trackpoint>
            <Time>2019-05-08T12:51:27.000Z</Time>
            <Position>
              <LatitudeDegrees>42.8014055080711841583251953125</LatitudeDegrees>
              <LongitudeDegrees>0.596434772014617919921875</LongitudeDegrees>
            </Position>
            <AltitudeMeters>630.5999755859375</AltitudeMeters>
            <DistanceMeters>82917.125360772</DistanceMeters>
          </Trackpoint>
          <Trackpoint>
            <Time>2019-05-08T12:51:32.000Z</Time>
            <Position>
              <LatitudeDegrees>42.8010481037199497222900390625</LatitudeDegrees>
              <LongitudeDegrees>0.59638037346303462982177734375</LongitudeDegrees>
            </Position>
            <AltitudeMeters>630.5999755859375</AltitudeMeters>
            <DistanceMeters>82957.152480867</DistanceMeters>
          </Trackpoint>
          <Trackpoint>
            <Time>2019-05-08T12:51:40.000Z</Time>
            <Position>
              <LatitudeDegrees>42.8004871867597103118896484375</LatitudeDegrees>
              <LongitudeDegrees>0.59629186056554317474365234375</LongitudeDegrees>
            </Position>
            <AltitudeMeters>630.79998779296875</AltitudeMeters>
            <DistanceMeters>83020.000710101</DistanceMeters>
          </Trackpoint>
          <Trackpoint>
            <Time>2019-05-08T12:51:42.000Z</Time>
            <Position>
              <LatitudeDegrees>42.800347544252872467041015625</LatitudeDegrees>
              <LongitudeDegrees>0.5962733365595340728759765625</LongitudeDegrees>
            </Position>
            <AltitudeMeters>630.79998779296875</AltitudeMeters>
            <DistanceMeters>83035.616638328</DistanceMeters>
          </Trackpoint>
          <Trackpoint>
            <Time>2019-05-08T12:51:47.000Z</Time>
            <Position>
              <LatitudeDegrees>42.79999139718711376190185546875</LatitudeDegrees>
              <LongitudeDegrees>0.59622480534017086029052734375</LongitudeDegrees>
            </Position>
            <AltitudeMeters>630.79998779296875</AltitudeMeters>
            <DistanceMeters>83075.45403125</DistanceMeters>
          </Trackpoint>
          <Trackpoint>
            <Time>2019-05-08T12:51:53.000Z</Time>
            <Position>
              <LatitudeDegrees>42.79957632534205913543701171875</LatitudeDegrees>
              <LongitudeDegrees>0.59615858830511569976806640625</LongitudeDegrees>
            </Position>
            <AltitudeMeters>630.5999755859375</AltitudeMeters>
            <DistanceMeters>83121.967836463</DistanceMeters>
          </Trackpoint>
          <Trackpoint>
            <Time>2019-05-08T12:52:00.000Z</Time>
            <Position>
              <LatitudeDegrees>42.79910811223089694976806640625</LatitudeDegrees>
              <LongitudeDegrees>0.596082396805286407470703125</LongitudeDegrees>
            </Position>
            <AltitudeMeters>630.5999755859375</AltitudeMeters>
            <DistanceMeters>83174.45115189</DistanceMeters>
          </Trackpoint>
          <Trackpoint>
            <Time>2019-05-08T12:52:05.000Z</Time>
            <Position>
              <LatitudeDegrees>42.79877769760787487030029296875</LatitudeDegrees>
              <LongitudeDegrees>0.59603353030979633331298828125</LongitudeDegrees>
            </Position>
            <AltitudeMeters>630.4000244140625</AltitudeMeters>
            <DistanceMeters>83211.443039165</DistanceMeters>
          </Trackpoint>
          <Trackpoint>
            <Time>2019-05-08T12:52:07.000Z</Time>
            <Position>
              <LatitudeDegrees>42.7986438386142253875732421875</LatitudeDegrees>
              <LongitudeDegrees>0.59601458720862865447998046875</LongitudeDegrees>
            </Position>
            <AltitudeMeters>630.5999755859375</AltitudeMeters>
            <DistanceMeters>83226.422336194</DistanceMeters>
          </Trackpoint>
          <Trackpoint>
            <Time>2019-05-08T12:52:10.000Z</Time>
            <Position>
              <LatitudeDegrees>42.798444516956806182861328125</LatitudeDegrees>
              <LongitudeDegrees>0.59598877094686031341552734375</LongitudeDegrees>
            </Position>
            <AltitudeMeters>630.79998779296875</AltitudeMeters>
            <DistanceMeters>83248.707265723</DistanceMeters>
          </Trackpoint>
          <Trackpoint>
            <Time>2019-05-08T12:52:12.000Z</Time>
            <Position>
              <LatitudeDegrees>42.79831635765731334686279296875</LatitudeDegrees>
              <LongitudeDegrees>0.5959709174931049346923828125</LongitudeDegrees>
            </Position>
            <AltitudeMeters>631</AltitudeMeters>
            <DistanceMeters>83263.045282333</DistanceMeters>
          </Trackpoint>
          <Trackpoint>
            <Time>2019-05-08T12:52:19.000Z</Time>
            <Position>
              <LatitudeDegrees>42.79787412844598293304443359375</LatitudeDegrees>
              <LongitudeDegrees>0.595917440950870513916015625</LongitudeDegrees>
            </Position>
            <AltitudeMeters>632</AltitudeMeters>
            <DistanceMeters>83312.459630663</DistanceMeters>
          </Trackpoint>
          <Trackpoint>
            <Time>2019-05-08T12:52:24.000Z</Time>
            <Position>
              <LatitudeDegrees>42.79758662916719913482666015625</LatitudeDegrees>
              <LongitudeDegrees>0.5958743579685688018798828125</LongitudeDegrees>
            </Position>
            <AltitudeMeters>632.20001220703125</AltitudeMeters>
            <DistanceMeters>83344.651674602</DistanceMeters>
          </Trackpoint>
          <Trackpoint>
            <Time>2019-05-08T12:52:27.000Z</Time>
            <Position>
              <LatitudeDegrees>42.7974160574376583099365234375</LatitudeDegrees>
              <LongitudeDegrees>0.59584896080195903778076171875</LongitudeDegrees>
            </Position>
            <AltitudeMeters>632</AltitudeMeters>
            <DistanceMeters>83363.749680196</DistanceMeters>
          </Trackpoint>
          <Trackpoint>
            <Time>2019-05-08T12:52:33.000Z</Time>
            <Position>
              <LatitudeDegrees>42.79706343077123165130615234375</LatitudeDegrees>
              <LongitudeDegrees>0.59579975903034210205078125</LongitudeDegrees>
            </Position>
            <AltitudeMeters>632.5999755859375</AltitudeMeters>
            <DistanceMeters>83403.202821984</DistanceMeters>
          </Trackpoint>
          <Trackpoint>
            <Time>2019-05-08T12:52:39.000Z</Time>
            <Position>
              <LatitudeDegrees>42.7967351116240024566650390625</LatitudeDegrees>
              <LongitudeDegrees>0.59573597274720668792724609375</LongitudeDegrees>
            </Position>
            <AltitudeMeters>632.79998779296875</AltitudeMeters>
            <DistanceMeters>83440.114799094</DistanceMeters>
          </Trackpoint>
          <Trackpoint>
            <Time>2019-05-08T12:52:40.000Z</Time>
            <Position>
              <LatitudeDegrees>42.79668423347175121307373046875</LatitudeDegrees>
              <LongitudeDegrees>0.59571904130280017852783203125</LongitudeDegrees>
            </Position>
            <AltitudeMeters>632.79998779296875</AltitudeMeters>
            <DistanceMeters>83445.943276389</DistanceMeters>
          </Trackpoint>
          <Trackpoint>
            <Time>2019-05-08T12:52:45.000Z</Time>
            <Position>
              <LatitudeDegrees>42.7964343689382076263427734375</LatitudeDegrees>
              <LongitudeDegrees>0.59561510570347309112548828125</LongitudeDegrees>
            </Position>
            <AltitudeMeters>633</AltitudeMeters>
            <DistanceMeters>83475.020208781</DistanceMeters>
          </Trackpoint>
          <Trackpoint>
            <Time>2019-05-08T12:52:47.000Z</Time>
            <Position>
              <LatitudeDegrees>42.79634174890816211700439453125</LatitudeDegrees>
              <LongitudeDegrees>0.5955776385962963104248046875</LongitudeDegrees>
            </Position>
            <AltitudeMeters>633.20001220703125</AltitudeMeters>
            <DistanceMeters>83485.773773722</DistanceMeters>
          </Trackpoint>
          <Trackpoint>
            <Time>2019-05-08T12:52:49.000Z</Time>
            <Position>
              <LatitudeDegrees>42.796250469982624053955078125</LatitudeDegrees>
              <LongitudeDegrees>0.595593564212322235107421875</LongitudeDegrees>
            </Position>
            <AltitudeMeters>633.4000244140625</AltitudeMeters>
            <DistanceMeters>83496.016401711</DistanceMeters>
          </Trackpoint>
          <Trackpoint>
            <Time>2019-05-08T12:52:56.000Z</Time>
            <Position>
              <LatitudeDegrees>42.79592852108180522918701171875</LatitudeDegrees>
              <LongitudeDegrees>0.5957301892340183258056640625</LongitudeDegrees>
            </Position>
            <AltitudeMeters>635</AltitudeMeters>
            <DistanceMeters>83533.5471421</DistanceMeters>
          </Trackpoint>
          <Trackpoint>
            <Time>2019-05-08T12:53:03.000Z</Time>
            <Position>
              <LatitudeDegrees>42.79559307731688022613525390625</LatitudeDegrees>
              <LongitudeDegrees>0.59586823917925357818603515625</LongitudeDegrees>
            </Position>
            <AltitudeMeters>635.5999755859375</AltitudeMeters>
            <DistanceMeters>83572.547939483</DistanceMeters>
          </Trackpoint>
          <Trackpoint>
            <Time>2019-05-08T12:53:09.000Z</Time>
            <Position>
              <LatitudeDegrees>42.7953168936073780059814453125</LatitudeDegrees>
              <LongitudeDegrees>0.5960176885128021240234375</LongitudeDegrees>
            </Position>
            <AltitudeMeters>635.79998779296875</AltitudeMeters>
            <DistanceMeters>83605.622150893</DistanceMeters>
          </Trackpoint>
          <Trackpoint>
            <Time>2019-05-08T12:53:10.000Z</Time>
            <Position>
              <LatitudeDegrees>42.795275151729583740234375</LatitudeDegrees>
              <LongitudeDegrees>0.596043169498443603515625</LongitudeDegrees>
            </Position>
            <AltitudeMeters>635.5999755859375</AltitudeMeters>
            <DistanceMeters>83610.712071258</DistanceMeters>
          </Trackpoint>
          <Trackpoint>
            <Time>2019-05-08T12:53:15.000Z</Time>
            <Position>
              <LatitudeDegrees>42.79505562968552112579345703125</LatitudeDegrees>
              <LongitudeDegrees>0.59617769904434680938720703125</LongitudeDegrees>
            </Position>
            <AltitudeMeters>635.79998779296875</AltitudeMeters>
            <DistanceMeters>83637.501853183</DistanceMeters>
          </Trackpoint>
          <Trackpoint>
            <Time>2019-05-08T12:53:22.000Z</Time>
            <Position>
              <LatitudeDegrees>42.79473896138370037078857421875</LatitudeDegrees>
              <LongitudeDegrees>0.59634315781295299530029296875</LongitudeDegrees>
            </Position>
            <AltitudeMeters>636.4000244140625</AltitudeMeters>
            <DistanceMeters>83675.24959328</DistanceMeters>
          </Trackpoint>
          <Trackpoint>
            <Time>2019-05-08T12:53:24.000Z</Time>
            <Position>
              <LatitudeDegrees>42.7946456708014011383056640625</LatitudeDegrees>
              <LongitudeDegrees>0.596390850841999053955078125</LongitudeDegrees>
            </Position>
            <AltitudeMeters>636.4000244140625</AltitudeMeters>
            <DistanceMeters>83686.340069881</DistanceMeters>
          </Trackpoint>
          <Trackpoint>
            <Time>2019-05-08T12:53:31.000Z</Time>
            <Position>
              <LatitudeDegrees>42.79432137496769428253173828125</LatitudeDegrees>
              <LongitudeDegrees>0.59653711505234241485595703125</LongitudeDegrees>
            </Position>
            <AltitudeMeters>636.5999755859375</AltitudeMeters>
            <DistanceMeters>83724.360257113</DistanceMeters>
          </Trackpoint>
          <Trackpoint>
            <Time>2019-05-08T12:53:32.000Z</Time>
            <Position>
              <LatitudeDegrees>42.79427309520542621612548828125</LatitudeDegrees>
              <LongitudeDegrees>0.59655907563865184783935546875</LongitudeDegrees>
            </Position>
            <AltitudeMeters>636.5999755859375</AltitudeMeters>
            <DistanceMeters>83730.025315955</DistanceMeters>
          </Trackpoint>
          <Trackpoint>
            <Time>2019-05-08T12:53:38.000Z</Time>
            <Position>
              <LatitudeDegrees>42.7939791418612003326416015625</LatitudeDegrees>
              <LongitudeDegrees>0.5967242829501628875732421875</LongitudeDegrees>
            </Position>
            <AltitudeMeters>636.5999755859375</AltitudeMeters>
            <DistanceMeters>83765.416101805</DistanceMeters>
          </Trackpoint>
          <Trackpoint>
            <Time>2019-05-08T12:53:39.000Z</Time>
            <Position>
              <LatitudeDegrees>42.79392960481345653533935546875</LatitudeDegrees>
              <LongitudeDegrees>0.596750266849994659423828125</LongitudeDegrees>
            </Position>
            <AltitudeMeters>636.4000244140625</AltitudeMeters>
            <DistanceMeters>83771.324593621</DistanceMeters>
          </Trackpoint>
          <Trackpoint>
            <Time>2019-05-08T12:53:41.000Z</Time>
            <Position>
              <LatitudeDegrees>42.79383975081145763397216796875</LatitudeDegrees>
              <LongitudeDegrees>0.59680986218154430389404296875</LongitudeDegrees>
            </Position>
            <AltitudeMeters>636.5999755859375</AltitudeMeters>
            <DistanceMeters>83782.447185373</DistanceMeters>
          </Trackpoint>
          <Trackpoint>
            <Time>2019-05-08T12:53:43.000Z</Time>
            <Position>
              <LatitudeDegrees>42.79375425539910793304443359375</LatitudeDegrees>
              <LongitudeDegrees>0.59687557630240917205810546875</LongitudeDegrees>
            </Position>
            <AltitudeMeters>636.4000244140625</AltitudeMeters>
            <DistanceMeters>83793.372365025</DistanceMeters>
          </Trackpoint>
          <Trackpoint>
            <Time>2019-05-08T12:53:44.000Z</Time>
            <Position>
              <LatitudeDegrees>42.79371368698775768280029296875</LatitudeDegrees>
              <LongitudeDegrees>0.5969093553721904754638671875</LongitudeDegrees>
            </Position>
            <AltitudeMeters>636.4000244140625</AltitudeMeters>
            <DistanceMeters>83798.664081859</DistanceMeters>
          </Trackpoint>
          <Trackpoint>
            <Time>2019-05-08T12:53:50.000Z</Time>
            <Position>
              <LatitudeDegrees>42.79341897927224636077880859375</LatitudeDegrees>
              <LongitudeDegrees>0.59712083078920841217041015625</LongitudeDegrees>
            </Position>
            <AltitudeMeters>636.20001220703125</AltitudeMeters>
            <DistanceMeters>83835.735098082</DistanceMeters>
          </Trackpoint>
          <Trackpoint>
            <Time>2019-05-08T12:53:52.000Z</Time>
            <Position>
              <LatitudeDegrees>42.79331722296774387359619140625</LatitudeDegrees>
              <LongitudeDegrees>0.5971926636993885040283203125</LongitudeDegrees>
            </Position>
            <AltitudeMeters>636</AltitudeMeters>
            <DistanceMeters>83848.489934702</DistanceMeters>
          </Trackpoint>
          <Trackpoint>
            <Time>2019-05-08T12:53:56.000Z</Time>
            <Position>
              <LatitudeDegrees>42.79311421327292919158935546875</LatitudeDegrees>
              <LongitudeDegrees>0.597320236265659332275390625</LongitudeDegrees>
            </Position>
            <AltitudeMeters>636</AltitudeMeters>
            <DistanceMeters>83873.372058831</DistanceMeters>
          </Trackpoint>
          <Trackpoint>
            <Time>2019-05-08T12:54:04.000Z</Time>
            <Position>
              <LatitudeDegrees>42.792727053165435791015625</LatitudeDegrees>
              <LongitudeDegrees>0.5975869484245777130126953125</LongitudeDegrees>
            </Position>
            <AltitudeMeters>635.79998779296875</AltitudeMeters>
            <DistanceMeters>83921.656945562</DistanceMeters>
          </Trackpoint>
          <Trackpoint>
            <Time>2019-05-08T12:54:09.000Z</Time>
            <Position>
              <LatitudeDegrees>42.7924714051187038421630859375</LatitudeDegrees>
              <LongitudeDegrees>0.59769750572741031646728515625</LongitudeDegrees>
            </Position>
            <AltitudeMeters>635.5999755859375</AltitudeMeters>
            <DistanceMeters>83951.509402985</DistanceMeters>
          </Trackpoint>
          <Trackpoint>
            <Time>2019-05-08T12:54:10.000Z</Time>
            <Position>
              <LatitudeDegrees>42.79241516254842281341552734375</LatitudeDegrees>
              <LongitudeDegrees>0.59770370833575725555419921875</LongitudeDegrees>
            </Position>
            <AltitudeMeters>635.5999755859375</AltitudeMeters>
            <DistanceMeters>83957.789798984</DistanceMeters>
          </Trackpoint>
          <Trackpoint>
            <Time>2019-05-08T12:54:14.000Z</Time>
            <Position>
              <LatitudeDegrees>42.79218147508800029754638671875</LatitudeDegrees>
              <LongitudeDegrees>0.59772952459752559661865234375</LongitudeDegrees>
            </Position>
            <AltitudeMeters>635.4000244140625</AltitudeMeters>
            <DistanceMeters>83983.884799168</DistanceMeters>
          </Trackpoint>
          <Trackpoint>
            <Time>2019-05-08T12:54:17.000Z</Time>
            <Position>
              <LatitudeDegrees>42.7920070476830005645751953125</LatitudeDegrees>
              <LongitudeDegrees>0.5977331288158893585205078125</LongitudeDegrees>
            </Position>
            <AltitudeMeters>635.20001220703125</AltitudeMeters>
            <DistanceMeters>84003.301201035</DistanceMeters>
          </Trackpoint>
          <Trackpoint>
            <Time>2019-05-08T12:54:24.000Z</Time>
            <Position>
              <LatitudeDegrees>42.79161971993744373321533203125</LatitudeDegrees>
              <LongitudeDegrees>0.59772382490336894989013671875</LongitudeDegrees>
            </Position>
            <AltitudeMeters>635.4000244140625</AltitudeMeters>
            <DistanceMeters>84046.418309565</DistanceMeters>
          </Trackpoint>
          <Trackpoint>
            <Time>2019-05-08T12:54:26.000Z</Time>
            <Position>
              <LatitudeDegrees>42.7915054745972156524658203125</LatitudeDegrees>
              <LongitudeDegrees>0.5977101624011993408203125</LongitudeDegrees>
            </Position>
            <AltitudeMeters>635.5999755859375</AltitudeMeters>
            <DistanceMeters>84059.183053956</DistanceMeters>
          </Trackpoint>
          <Trackpoint>
            <Time>2019-05-08T12:54:30.000Z</Time>
            <Position>
              <LatitudeDegrees>42.79129953123629093170166015625</LatitudeDegrees>
              <LongitudeDegrees>0.5976647324860095977783203125</LongitudeDegrees>
            </Position>
            <AltitudeMeters>635.4000244140625</AltitudeMeters>
            <DistanceMeters>84082.403430018</DistanceMeters>
          </Trackpoint>
          <Trackpoint>
            <Time>2019-05-08T12:54:31.000Z</Time>
            <Position>
              <LatitudeDegrees>42.79125343076884746551513671875</LatitudeDegrees>
              <LongitudeDegrees>0.5976404249668121337890625</LongitudeDegrees>
            </Position>
            <AltitudeMeters>635.4000244140625</AltitudeMeters>
            <DistanceMeters>84087.905960919</DistanceMeters>
          </Trackpoint>
          <Trackpoint>
            <Time>2019-05-08T12:54:33.000Z</Time>
            <Position>
              <LatitudeDegrees>42.7911561168730258941650390625</LatitudeDegrees>
              <LongitudeDegrees>0.59759709052741527557373046875</LongitudeDegrees>
            </Position>
            <AltitudeMeters>635.5999755859375</AltitudeMeters>
            <DistanceMeters>84099.301244999</DistanceMeters>
          </Trackpoint>
          <Trackpoint>
            <Time>2019-05-08T12:54:35.000Z</Time>
            <Position>
              <LatitudeDegrees>42.7910696156322956085205078125</LatitudeDegrees>
              <LongitudeDegrees>0.59760983102023601531982421875</LongitudeDegrees>
            </Position>
            <AltitudeMeters>635.5999755859375</AltitudeMeters>
            <DistanceMeters>84108.985581525</DistanceMeters>
          </Trackpoint>
          <Trackpoint>
            <Time>2019-05-08T12:54:37.000Z</Time>
            <Position>
              <LatitudeDegrees>42.7909767441451549530029296875</LatitudeDegrees>
              <LongitudeDegrees>0.59763799421489238739013671875</LongitudeDegrees>
            </Position>
            <AltitudeMeters>635.4000244140625</AltitudeMeters>
            <DistanceMeters>84119.575412466</DistanceMeters>
          </Trackpoint>
          <Trackpoint>
            <Time>2019-05-08T12:54:39.000Z</Time>
            <Position>
              <LatitudeDegrees>42.79087993316352367401123046875</LatitudeDegrees>
              <LongitudeDegrees>0.597624666988849639892578125</LongitudeDegrees>
            </Position>
            <AltitudeMeters>635.5999755859375</AltitudeMeters>
            <DistanceMeters>84130.405956912</DistanceMeters>
          </Trackpoint>
          <Trackpoint>
            <Time>2019-05-08T12:54:46.000Z</Time>
            <Position>
              <LatitudeDegrees>42.79054842889308929443359375</LatitudeDegrees>
              <LongitudeDegrees>0.597563646733760833740234375</LongitudeDegrees>
            </Position>
            <AltitudeMeters>635.4000244140625</AltitudeMeters>
            <DistanceMeters>84167.638243375</DistanceMeters>
          </Trackpoint>
          <Trackpoint>
            <Time>2019-05-08T12:54:47.000Z</Time>
            <Position>
              <LatitudeDegrees>42.79050123877823352813720703125</LatitudeDegrees>
              <LongitudeDegrees>0.59755467809736728668212890625</LongitudeDegrees>
            </Position>
            <AltitudeMeters>635.5999755859375</AltitudeMeters>
            <DistanceMeters>84172.941040566</DistanceMeters>
          </Trackpoint>
          <Trackpoint>
            <Time>2019-05-08T12:54:54.000Z</Time>
            <Position>
              <LatitudeDegrees>42.7901814691722393035888671875</LatitudeDegrees>
              <LongitudeDegrees>0.59745359234511852264404296875</LongitudeDegrees>
            </Position>
            <AltitudeMeters>636</AltitudeMeters>
            <DistanceMeters>84209.4770513</DistanceMeters>
          </Trackpoint>
          <Trackpoint>
            <Time>2019-05-08T12:55:00.000Z</Time>
            <Position>
              <LatitudeDegrees>42.78991878032684326171875</LatitudeDegrees>
              <LongitudeDegrees>0.59730255044996738433837890625</LongitudeDegrees>
            </Position>
            <AltitudeMeters>636.5999755859375</AltitudeMeters>
            <DistanceMeters>84241.210852287</DistanceMeters>
          </Trackpoint>
          <Trackpoint>
            <Time>2019-05-08T12:55:02.000Z</Time>
            <Position>
              <LatitudeDegrees>42.78984166681766510009765625</LatitudeDegrees>
              <LongitudeDegrees>0.59722401201725006103515625</LongitudeDegrees>
            </Position>
            <AltitudeMeters>636.79998779296875</AltitudeMeters>
            <DistanceMeters>84251.925720084</DistanceMeters>
          </Trackpoint>
          <Trackpoint>
            <Time>2019-05-08T12:55:06.000Z</Time>
            <Position>
              <LatitudeDegrees>42.78970663435757160186767578125</LatitudeDegrees>
              <LongitudeDegrees>0.597048662602901458740234375</LongitudeDegrees>
            </Position>
            <AltitudeMeters>636.79998779296875</AltitudeMeters>
            <DistanceMeters>84272.68639321</DistanceMeters>
          </Trackpoint>
          <Trackpoint>
            <Time>2019-05-08T12:55:10.000Z</Time>
            <Position>
              <LatitudeDegrees>42.7896089851856231689453125</LatitudeDegrees>
              <LongitudeDegrees>0.59683098457753658294677734375</LongitudeDegrees>
            </Position>
            <AltitudeMeters>636.79998779296875</AltitudeMeters>
            <DistanceMeters>84293.524995517</DistanceMeters>
          </Trackpoint>
          <Trackpoint>
            <Time>2019-05-08T12:55:12.000Z</Time>
            <Position>
              <LatitudeDegrees>42.789590544998645782470703125</LatitudeDegrees>
              <LongitudeDegrees>0.596740543842315673828125</LongitudeDegrees>
            </Position>
            <AltitudeMeters>636.79998779296875</AltitudeMeters>
            <DistanceMeters>84301.192185201</DistanceMeters>
          </Trackpoint>
          <Trackpoint>
            <Time>2019-05-08T12:55:15.000Z</Time>
            <Position>
              <LatitudeDegrees>42.7896410040557384490966796875</LatitudeDegrees>
              <LongitudeDegrees>0.596689917147159576416015625</LongitudeDegrees>
            </Position>
            <AltitudeMeters>636.79998779296875</AltitudeMeters>
            <DistanceMeters>84308.167430852</DistanceMeters>
          </Trackpoint>
          <Trackpoint>
            <Time>2019-05-08T12:55:18.000Z</Time>
            <Position>
              <LatitudeDegrees>42.78971292078495025634765625</LatitudeDegrees>
              <LongitudeDegrees>0.59665865264832973480224609375</LongitudeDegrees>
            </Position>
            <AltitudeMeters>636.79998779296875</AltitudeMeters>
            <DistanceMeters>84316.569103754</DistanceMeters>
          </Trackpoint>
          <Trackpoint>
            <Time>2019-05-08T12:55:20.000Z</Time>
            <Position>
              <LatitudeDegrees>42.789744772017002105712890625</LatitudeDegrees>
              <LongitudeDegrees>0.59663836844265460968017578125</LongitudeDegrees>
            </Position>
            <AltitudeMeters>636.79998779296875</AltitudeMeters>
            <DistanceMeters>84320.482543373</DistanceMeters>
          </Trackpoint>
          <Trackpoint>
            <Time>2019-05-08T12:55:21.000Z</Time>
            <Position>
              <LatitudeDegrees>42.78974586166441440582275390625</LatitudeDegrees>
              <LongitudeDegrees>0.59662051498889923095703125</LongitudeDegrees>
            </Position>
            <AltitudeMeters>636.79998779296875</AltitudeMeters>
            <DistanceMeters>84321.942371459</DistanceMeters>
          </Trackpoint>
          <Trackpoint>
            <Time>2019-05-08T12:55:26.000Z</Time>
            <Position>
              <LatitudeDegrees>42.789732702076435089111328125</LatitudeDegrees>
              <LongitudeDegrees>0.59645480476319789886474609375</LongitudeDegrees>
            </Position>
            <AltitudeMeters>637</AltitudeMeters>
            <DistanceMeters>84335.55675169</DistanceMeters>
          </Trackpoint>
          <Trackpoint>
            <Time>2019-05-08T12:55:31.000Z</Time>
            <Position>
              <LatitudeDegrees>42.78972406871616840362548828125</LatitudeDegrees>
              <LongitudeDegrees>0.596278868615627288818359375</LongitudeDegrees>
            </Position>
            <AltitudeMeters>637.20001220703125</AltitudeMeters>
            <DistanceMeters>84349.958864588</DistanceMeters>
          </Trackpoint>
          <Trackpoint>
            <Time>2019-05-08T12:55:39.000Z</Time>
            <Position>
              <LatitudeDegrees>42.7897050417959690093994140625</LatitudeDegrees>
              <LongitudeDegrees>0.5961888469755649566650390625</LongitudeDegrees>
            </Position>
            <AltitudeMeters>637.20001220703125</AltitudeMeters>
            <DistanceMeters>84357.61072813</DistanceMeters>
          </Trackpoint>
          <Trackpoint>
            <Time>2019-05-08T12:55:41.000Z</Time>
            <Position>
              <LatitudeDegrees>42.78972004540264606475830078125</LatitudeDegrees>
              <LongitudeDegrees>0.5961625277996063232421875</LongitudeDegrees>
            </Position>
            <AltitudeMeters>637.20001220703125</AltitudeMeters>
            <DistanceMeters>84360.331879115</DistanceMeters>
          </Trackpoint>
        </Track>
      </Lap>
    </Activity>
  </Activities>
</TrainingCenterDatabase>
